
Distance (Route):
Temperature : -5.5°C
Humidity : 33.5%
Pressure : 0hPa| Receiver | Frames | First received | Last received |
|---|---|---|---|
| DO3MHA-11 | 519 | 2026-09-05 02:23:18 | 2026-09-05 04:15:06 |
| DO3MHA-12 | 512 | 2026-09-05 02:23:24 | 2026-09-05 04:15:11 |
| BAUMI2-15 | 318 | 2026-09-05 02:30:58 | 2026-09-05 04:08:25 |
| OE5MMP-10 | 258 | 2026-09-05 03:01:25 | 2026-09-05 04:11:29 |
| OE5DXL-15 | 185 | 2026-09-05 02:25:17 | 2026-09-05 04:14:48 |
| OE5DRO-10 | 167 | 2026-09-05 02:31:02 | 2026-09-05 04:15:01 |
| DG1MFX-10 | 149 | 2026-09-05 02:30:06 | 2026-09-05 04:15:05 |
| OM5KV | 147 | 2026-09-05 03:07:52 | 2026-09-05 04:04:58 |
| PG1ADW-2 | 134 | 2026-09-05 02:51:36 | 2026-09-05 04:14:55 |
| DB0UT-7 | 132 | 2026-09-05 02:41:12 | 2026-09-05 04:06:29 |
| NBG1-10 | 131 | 2026-09-05 02:32:25 | 2026-09-05 04:12:08 |
| IN3HCDX | 114 | 2026-09-05 02:33:28 | 2026-09-05 04:12:09 |
| OE5HKT-10 | 112 | 2026-09-05 03:01:41 | 2026-09-05 04:08:19 |
| DB0NH | 92 | 2026-09-05 02:32:37 | 2026-09-05 04:12:14 |
| DL6DJ-15 | 91 | 2026-09-05 02:33:26 | 2026-09-05 03:53:42 |
| OE3JTB-15 | 88 | 2026-09-05 02:42:15 | 2026-09-05 04:12:25 |
| OE5WHR-10 | 66 | 2026-09-05 03:03:11 | 2026-09-05 03:54:05 |
| OE8JPQ-2 | 63 | 2026-09-05 03:20:59 | 2026-09-05 04:01:33 |
| OE5REO-15 | 62 | 2026-09-05 03:21:27 | 2026-09-05 04:00:34 |
| S52SK | 42 | 2026-09-05 03:01:21 | 2026-09-05 04:05:46 |
| 9A1FER-3 | 36 | 2026-09-05 03:33:23 | 2026-09-05 03:57:59 |
| IW2NTF | 35 | 2026-09-05 03:47:49 | 2026-09-05 03:54:49 |
| HARRO8 | 26 | 2026-09-05 03:25:55 | 2026-09-05 03:57:30 |
| DG1MJG | 19 | 2026-09-05 03:35:46 | 2026-09-05 04:03:18 |
| PETON7-10 | 18 | 2026-09-05 03:42:26 | 2026-09-05 03:55:03 |
| 9A1FER-10 | 15 | 2026-09-05 03:51:15 | 2026-09-05 03:55:39 |
| IN3IJJ | 13 | 2026-09-05 02:45:34 | 2026-09-05 03:04:51 |
| IN3HCDX1 | 8 | 2026-09-05 03:48:57 | 2026-09-05 04:02:48 |
| DF7PN | 7 | 2026-09-05 03:35:54 | 2026-09-05 03:54:32 |
| DB0ND-19 | 5 | 2026-09-05 02:38:30 | 2026-09-05 02:52:59 |
| DM0DOS-11 | 2 | 2026-09-05 03:51:43 | 2026-09-05 03:52:48 |
| Receiver | Date | Latitude | Longitude | Direction | Speed | Altitude | Climb | Temperature | Humidity | Pressure | Voltage | Killtimer | Uptime | BKT | XDATA |
|---|---|---|---|---|---|---|---|---|---|---|---|---|---|---|---|
| DO3MHA-12 | 2026-09-05 04:15:11 | 47.23317 | 12.90970 | 84° | 71km/h | 4887m | -2.6m/s | -5.5°C | 33.5% | 0hPa | 2.5V | 00:00:00 | 02:29:07 | 00:00:00 | |
| DO3MHA-11 | 2026-09-05 04:15:06 | 47.23308 | 12.90840 | 82° | 64km/h | 4900m | -2.5m/s | -5.6°C | 35.5% | 0hPa | 2.5V | 00:00:00 | 02:29:02 | 00:00:00 | |
| DG1MFX-10 | 2026-09-05 04:15:05 | 47.23308 | 12.90840 | 83° | 66km/h | 4900m | -2.5m/s | -5.6°C | 34.3% | 0hPa | 2.5V | 08:10:00 | 00:00:00 | 00:00:00 | |
| OE5DRO-10 | 2026-09-05 04:15:01 | 47.23294 | 12.90722 | 78° | 69km/h | 4914m | -2.8m/s | -5.7°C | 36.1% | 0hPa | 2.5V | 00:00:00 | 00:00:00 | 00:00:00 | |
| DO3MHA-12 | 2026-09-05 04:14:59 | 47.23286 | 12.90676 | 76° | 66km/h | 4919m | -3.2m/s | -5.8°C | 36.3% | 0hPa | 2.5V | 00:00:00 | 02:28:55 | 00:00:00 | |
| PG1ADW-2 | 2026-09-05 04:14:55 | 47.23268 | 12.90582 | 72° | 75km/h | 4931m | -3.0m/s | -5.9°C | 37.3% | 0hPa | 2.6V | 00:00:00 | 00:00:00 | 00:00:00 | |
| DO3MHA-12 | 2026-09-05 04:14:54 | 47.23263 | 12.90558 | 72° | 73km/h | 4934m | -2.8m/s | -5.9°C | 36.5% | 0hPa | 2.6V | 00:00:00 | 02:28:50 | 00:00:00 | |
| DO3MHA-11 | 2026-09-05 04:14:49 | 47.23235 | 12.90428 | 73° | 75km/h | 4948m | -2.8m/s | -6.1°C | 41.5% | 0hPa | 2.6V | 00:00:00 | 02:28:45 | 00:00:00 | |
| OE5DXL-15 | 2026-09-05 04:14:48 | 47.23230 | 12.90401 | 76° | 73km/h | 4950m | -2.9m/s | -6.1°C | 41.9% | 0hPa | 2.6V | 00:00:00 | 00:00:00 | 00:00:00 | |
| OE5DRO-10 | 2026-09-05 04:14:45 | 47.23214 | 12.90321 | 75° | 73km/h | 4958m | -3.3m/s | -6.2°C | 42.8% | 0hPa | 2.5V | 08:10:00 | 00:00:00 | 00:00:00 | |
| DO3MHA-12 | 2026-09-05 04:14:44 | 47.23209 | 12.90295 | 74° | 75km/h | 4962m | -2.6m/s | -6.2°C | 41.7% | 0hPa | 2.5V | 00:00:00 | 02:28:40 | 00:00:00 | |
| DO3MHA-12 | 2026-09-05 04:14:39 | 47.23182 | 12.90162 | 75° | 75km/h | 4974m | -3.0m/s | -6.3°C | 41.8% | 0hPa | 2.5V | 00:00:00 | 02:28:35 | 00:00:00 | |
| PG1ADW-2 | 2026-09-05 04:14:35 | 47.23162 | 12.90055 | 73° | 71km/h | 4984m | -2.1m/s | -6.4°C | 41.5% | 0hPa | 2.5V | 00:00:00 | 00:00:00 | 00:00:00 | |
| DO3MHA-12 | 2026-09-05 04:14:34 | 47.23156 | 12.90029 | 73° | 69km/h | 4987m | -2.3m/s | -6.4°C | 41.7% | 0hPa | 2.5V | 00:00:00 | 02:28:30 | 00:00:00 | |
| DO3MHA-11 | 2026-09-05 04:14:29 | 47.23133 | 12.89906 | 78° | 69km/h | 4997m | -2.8m/s | -6.5°C | 42.8% | 0hPa | 2.5V | 00:00:00 | 02:28:25 | 00:00:00 | |
| DO3MHA-12 | 2026-09-05 04:14:22 | 47.23101 | 12.89734 | 73° | 71km/h | 5044m | -10.7m/s | -6.9°C | 48.4% | 0hPa | 2.5V | 00:00:00 | 02:28:18 | 00:00:00 | |
| OE5DXL-15 | 2026-09-05 04:14:18 | 47.23079 | 12.89635 | 73° | 69km/h | 5083m | -10.8m/s | -7.1°C | 51.4% | 0hPa | 2.5V | 00:00:00 | 00:00:00 | 00:00:00 | |
| PG1ADW-2 | 2026-09-05 04:14:15 | 47.23063 | 12.89561 | 73° | 71km/h | 5112m | -11.1m/s | -7.3°C | 51.9% | 0hPa | 2.5V | 00:00:00 | 02:28:11 | 00:00:00 | |
| OE5DRO-10 | 2026-09-05 04:14:13 | 47.23052 | 12.89511 | 74° | 71km/h | 5132m | -11.2m/s | -7.5°C | 52.1% | 0hPa | 2.5V | 00:00:00 | 00:00:00 | 00:00:00 | |
| DO3MHA-11 | 2026-09-05 04:14:12 | 47.23047 | 12.89486 | 75° | 71km/h | 5142m | -11.2m/s | -7.5°C | 51.7% | 0hPa | 2.5V | 00:00:00 | 02:28:08 | 00:00:00 | |
| DO3MHA-12 | 2026-09-05 04:14:02 | 47.23003 | 12.89225 | 80° | 68km/h | 5245m | -10.5m/s | -7.9°C | 37.6% | 0hPa | 2.5V | 00:00:00 | 02:27:58 | 00:00:00 | |
| OE5DRO-10 | 2026-09-05 04:13:57 | 47.22986 | 12.89096 | 81° | 66km/h | 5295m | -10.3m/s | -8.2°C | 28.3% | 0hPa | 2.5V | 00:00:00 | 00:00:00 | 00:00:00 | |
| PG1ADW-2 | 2026-09-05 04:13:55 | 47.22979 | 12.89045 | 80° | 66km/h | 5315m | -10.2m/s | -8.3°C | 26.2% | 0hPa | 2.6V | 00:00:00 | 00:00:00 | 00:00:00 | |
| DO3MHA-12 | 2026-09-05 04:13:52 | 47.22970 | 12.88969 | 81° | 66km/h | 5345m | -10.5m/s | -8.6°C | 25.3% | 0hPa | 2.6V | 00:00:00 | 02:27:48 | 00:00:00 | |
| OE5DXL-15 | 2026-09-05 04:13:48 | 47.22958 | 12.88869 | 80° | 69km/h | 5386m | -10.5m/s | -8.8°C | 27.2% | 0hPa | 2.6V | 00:00:00 | 00:00:00 | 00:00:00 | |
| DO3MHA-11 | 2026-09-05 04:13:42 | 47.22941 | 12.88721 | 81° | 68km/h | 5446m | -9.9m/s | -9.3°C | 29.1% | 0hPa | 2.6V | 00:00:00 | 02:27:38 | 00:00:00 | |
| OE5DRO-10 | 2026-09-05 04:13:41 | 47.22939 | 12.88696 | 81° | 69km/h | 5456m | -10.1m/s | -9.3°C | 29.0% | 0hPa | 2.6V | 00:00:00 | 00:00:00 | 00:00:00 | |
| PG1ADW-2 | 2026-09-05 04:13:35 | 47.22925 | 12.88541 | 83° | 71km/h | 5516m | -10.4m/s | -9.4°C | 24.6% | 0hPa | 2.6V | 00:00:00 | 00:00:00 | 00:00:00 | |
| DO3MHA-12 | 2026-09-05 04:13:32 | 47.22919 | 12.88462 | 82° | 71km/h | 5547m | -10.5m/s | -9.4°C | 22.3% | 0hPa | 2.6V | 00:00:00 | 02:27:28 | 00:00:00 | |
| DG1MFX-10 | 2026-09-05 04:13:26 | 47.22908 | 12.88327 | 84° | 71km/h | 5598m | -10.6m/s | -9.6°C | 19.9% | 0hPa | 2.6V | 08:12:00 | 00:00:00 | 00:00:00 | |
| OE5DRO-10 | 2026-09-05 04:13:25 | 47.22905 | 12.88273 | 84° | 73km/h | 5618m | -10.5m/s | -9.5°C | 20.2% | 0hPa | 2.6V | 00:00:00 | 00:00:00 | 00:00:00 | |
| DO3MHA-11 | 2026-09-05 04:13:22 | 47.22899 | 12.88190 | 86° | 73km/h | 5649m | -10.6m/s | -9.7°C | 19.8% | 0hPa | 2.6V | 00:00:00 | 02:27:18 | 00:00:00 | |
| OE5DXL-15 | 2026-09-05 04:13:17 | 47.22892 | 12.88053 | 86° | 77km/h | 5701m | -10.4m/s | -10.1°C | 19.1% | 0hPa | 2.6V | 08:11:00 | 00:00:00 | 00:00:00 | |
| PG1ADW-2 | 2026-09-05 04:13:15 | 47.22889 | 12.87998 | 87° | 75km/h | 5721m | -10.5m/s | -10.2°C | 19.3% | 0hPa | 2.4V | 00:00:00 | 00:00:00 | 00:00:00 | |
| DO3MHA-12 | 2026-09-05 04:13:12 | 47.22885 | 12.87915 | 86° | 75km/h | 5752m | -10.4m/s | -10.2°C | 18.7% | 0hPa | 2.4V | 00:00:00 | 02:27:08 | 00:00:00 | |
| OE5DRO-10 | 2026-09-05 04:13:09 | 47.22879 | 12.87830 | 86° | 77km/h | 5783m | -10.3m/s | -10.3°C | 18.3% | 0hPa | 2.4V | 00:00:00 | 00:00:00 | 00:00:00 | |
| DG1MFX-10 | 2026-09-05 04:13:06 | 47.22875 | 12.87774 | 86° | 75km/h | 5803m | -10.4m/s | -10.5°C | 17.5% | 0hPa | 2.4V | 08:12:00 | 00:00:00 | 00:00:00 | |
| DO3MHA-12 | 2026-09-05 04:13:02 | 47.22865 | 12.87632 | 85° | 78km/h | 5854m | -10.8m/s | -10.6°C | 18.3% | 0hPa | 2.4V | 08:12:00 | 02:26:58 | 00:00:00 | |
| PG1ADW-2 | 2026-09-05 04:12:55 | 47.22849 | 12.87430 | 87° | 80km/h | 5926m | -10.7m/s | -10.8°C | 22.2% | 0hPa | 2.6V | 00:00:00 | 02:26:51 | 00:00:00 | |
| OE5DRO-10 | 2026-09-05 04:12:53 | 47.22845 | 12.87371 | 87° | 80km/h | 5948m | -10.4m/s | -10.9°C | 22.2% | 0hPa | 2.6V | 00:00:00 | 00:00:00 | 00:00:00 | |
| DO3MHA-11 | 2026-09-05 04:12:52 | 47.22844 | 12.87342 | 87° | 80km/h | 5958m | -10.5m/s | -11.0°C | 22.0% | 0hPa | 2.6V | 08:12:00 | 02:26:48 | 00:00:00 | |
| OE5DXL-15 | 2026-09-05 04:12:47 | 47.22836 | 12.87197 | 89° | 82km/h | 6007m | -11.2m/s | -11.4°C | 20.8% | 0hPa | 2.5V | 00:00:00 | 00:00:00 | 00:00:00 | |
| DG1MFX-10 | 2026-09-05 04:12:46 | 47.22836 | 12.87197 | 89° | 80km/h | 6007m | -11.2m/s | -11.5°C | 19.7% | 0hPa | 2.5V | 08:12:00 | 00:00:00 | 00:00:00 | |
| DO3MHA-12 | 2026-09-05 04:12:42 | 47.22832 | 12.87049 | 90° | 82km/h | 6059m | -11.1m/s | -11.8°C | 23.0% | 0hPa | 2.5V | 00:00:00 | 02:26:38 | 00:00:00 | |
| OE5DRO-10 | 2026-09-05 04:12:37 | 47.22829 | 12.86900 | 90° | 84km/h | 6110m | -11.2m/s | -12.2°C | 23.0% | 0hPa | 2.5V | 00:00:00 | 00:00:00 | 00:00:00 | |
| PG1ADW-2 | 2026-09-05 04:12:35 | 47.22829 | 12.86840 | 89° | 84km/h | 6131m | -11.3m/s | -12.2°C | 21.7% | 0hPa | 2.5V | 00:00:00 | 00:00:00 | 00:00:00 | |
| DO3MHA-12 | 2026-09-05 04:12:32 | 47.22827 | 12.86749 | 87° | 84km/h | 6163m | -11.4m/s | -12.3°C | 21.4% | 0hPa | 2.5V | 00:00:00 | 02:26:28 | 00:00:00 | |
| DG1MFX-10 | 2026-09-05 04:12:26 | 47.22822 | 12.86595 | 86° | 84km/h | 6216m | -11.0m/s | -12.8°C | 20.0% | 0hPa | 2.4V | 08:12:00 | 00:00:00 | 00:00:00 | |
| OE3JTB-15 | 2026-09-05 04:12:25 | 47.22820 | 12.86534 | 85° | 91km/h | 6237m | -10.9m/s | -12.9°C | 21.4% | 0hPa | 2.4V | 08:12:00 | 00:00:00 | 00:00:00 | |
| DO3MHA-12 | 2026-09-05 04:12:22 | 47.22816 | 12.86442 | 86° | 86km/h | 6268m | -10.5m/s | -13.2°C | 21.8% | 0hPa | 2.5V | 00:00:00 | 02:26:18 | 00:00:00 | |
| OE5DRO-10 | 2026-09-05 04:12:21 | 47.22814 | 12.86411 | 86° | 89km/h | 6278m | -10.3m/s | -13.3°C | 21.8% | 0hPa | 2.5V | 08:12:00 | 00:00:00 | 00:00:00 | |
| OE5DXL-15 | 2026-09-05 04:12:17 | 47.22809 | 12.86286 | 85° | 95km/h | 6316m | -10.4m/s | -13.7°C | 22.6% | 0hPa | 2.5V | 00:00:00 | 00:00:00 | 00:00:00 | |
| PG1ADW-2 | 2026-09-05 04:12:15 | 47.22806 | 12.86224 | 85° | 93km/h | 6336m | -10.7m/s | -13.9°C | 23.2% | 0hPa | 2.5V | 08:12:00 | 00:00:00 | 00:00:00 | |
| DB0NH | 2026-09-05 04:12:14 | 47.22804 | 12.86192 | 84° | 97km/h | 6346m | -10.7m/s | -14.0°C | 23.3% | 0hPa | 2.5V | 00:00:00 | 02:26:10 | 00:00:00 | |
| DO3MHA-11 | 2026-09-05 04:12:12 | 47.22800 | 12.86129 | 85° | 93km/h | 6365m | -10.9m/s | -14.1°C | 22.8% | 0hPa | 2.5V | 00:00:00 | 02:26:08 | 00:00:00 | |
| IN3HCDX | 2026-09-05 04:12:09 | 47.22796 | 12.86063 | 86° | 91km/h | 6385m | -11.0m/s | -14.1°C | 19.7% | 0hPa | 2.5V | 00:00:00 | 00:00:00 | 00:00:00 | |
| NBG1-10 | 2026-09-05 04:12:08 | 47.22792 | 12.85996 | 86° | 99km/h | 6404m | -11.0m/s | -14.2°C | 20.4% | 0hPa | 2.5V | 00:00:00 | 02:26:04 | 00:00:00 | |
| OE5DRO-10 | 2026-09-05 04:12:05 | 47.22788 | 12.85894 | 87° | 99km/h | 6434m | -11.1m/s | -14.4°C | 19.6% | 0hPa | 2.5V | 00:00:00 | 00:00:00 | 00:00:00 | |
| DO3MHA-12 | 2026-09-05 04:12:02 | 47.22784 | 12.85789 | 88° | 99km/h | 6465m | -10.9m/s | -14.6°C | 18.8% | 0hPa | 2.5V | 00:00:00 | 02:25:58 | 00:00:00 | |
| PG1ADW-2 | 2026-09-05 04:11:55 | 47.22782 | 12.85538 | 90° | 102km/h | 6535m | -11.5m/s | -15.0°C | 16.5% | 0hPa | 2.4V | 00:00:00 | 00:00:00 | 00:00:00 | |
| DO3MHA-12 | 2026-09-05 04:11:52 | 47.22783 | 12.85427 | 90° | 102km/h | 6567m | -11.4m/s | -14.5°C | 10.9% | 0hPa | 2.4V | 00:00:00 | 02:25:48 | 00:00:00 | |
| OE5DRO-10 | 2026-09-05 04:11:49 | 47.22784 | 12.85314 | 90° | 102km/h | 6599m | -11.3m/s | -14.5°C | 11.2% | 0hPa | 2.4V | 00:00:00 | 00:00:00 | 00:00:00 | |
| OE5DXL-15 | 2026-09-05 04:11:47 | 47.22785 | 12.85239 | 90° | 102km/h | 6621m | -10.8m/s | -14.7°C | 11.5% | 0hPa | 2.4V | 00:00:00 | 00:00:00 | 00:00:00 | |
| DB0NH | 2026-09-05 04:11:44 | 47.22786 | 12.85126 | 89° | 102km/h | 6653m | -10.6m/s | -14.8°C | 11.9% | 0hPa | 2.5V | 00:00:00 | 02:25:40 | 00:00:00 | |
| DO3MHA-12 | 2026-09-05 04:11:42 | 47.22786 | 12.85050 | 89° | 102km/h | 6674m | -10.6m/s | -14.9°C | 11.3% | 0hPa | 2.5V | 00:00:00 | 02:25:38 | 00:00:00 | |
| NBG1-10 | 2026-09-05 04:11:35 | 47.22780 | 12.84782 | 87° | 102km/h | 6745m | -10.3m/s | -15.3°C | 8.0% | 0hPa | 2.5V | 00:00:00 | 02:25:31 | 00:00:00 | |
| DO3MHA-12 | 2026-09-05 04:11:32 | 47.22777 | 12.84667 | 87° | 102km/h | 6775m | -10.3m/s | -15.5°C | 7.9% | 0hPa | 2.5V | 08:13:00 | 02:25:28 | 00:00:00 | |
| OE5DRO-10 | 2026-09-05 04:11:30 | 47.22774 | 12.84591 | 86° | 104km/h | 6795m | -10.5m/s | -15.5°C | 8.6% | 0hPa | 2.4V | 00:00:00 | 00:00:00 | 00:00:00 | |
| OE5MMP-10 | 2026-09-05 04:11:29 | 47.22771 | 12.84553 | 86° | 104km/h | 6806m | -10.4m/s | -15.5°C | 10.3% | 0hPa | 2.5V | 00:00:00 | 02:25:25 | 00:00:00 | |
| OE3JTB-15 | 2026-09-05 04:11:26 | 47.22766 | 12.84440 | 87° | 102km/h | 6837m | -10.4m/s | -15.8°C | 12.6% | 0hPa | 2.5V | 00:00:00 | 02:25:22 | 00:00:00 | |
| DG1MFX-10 | 2026-09-05 04:11:24 | 47.22764 | 12.84402 | 87° | 102km/h | 6847m | -10.7m/s | -15.9°C | 13.3% | 0hPa | 2.5V | 08:13:00 | 00:00:00 | 00:00:00 | |
| DO3MHA-11 | 2026-09-05 04:11:22 | 47.22760 | 12.84288 | 88° | 106km/h | 6877m | -11.4m/s | -16.1°C | 14.7% | 0hPa | 2.5V | 08:13:00 | 02:25:18 | 00:00:00 | |
| OE5DXL-15 | 2026-09-05 04:11:17 | 47.22752 | 12.84095 | 85° | 102km/h | 6937m | -12.5m/s | -16.6°C | 14.6% | 0hPa | 2.4V | 00:00:00 | 00:00:00 | 00:00:00 | |
| OE5MMP-10 | 2026-09-05 04:11:16 | 47.22750 | 12.84056 | 85° | 106km/h | 6949m | -12.2m/s | -16.7°C | 14.5% | 0hPa | 2.4V | 00:00:00 | 02:25:12 | 00:00:00 | |
| PG1ADW-2 | 2026-09-05 04:11:15 | 47.22748 | 12.84017 | 85° | 102km/h | 6961m | -11.9m/s | -16.8°C | 14.5% | 0hPa | 2.4V | 00:00:00 | 00:00:00 | 00:00:00 | |
| DB0NH | 2026-09-05 04:11:14 | 47.22746 | 12.83978 | 85° | 99km/h | 6973m | -12.1m/s | -16.9°C | 14.5% | 0hPa | 2.5V | 00:00:00 | 02:25:10 | 00:00:00 | |
| DO3MHA-12 | 2026-09-05 04:11:12 | 47.22742 | 12.83901 | 84° | 102km/h | 6997m | -11.9m/s | -17.1°C | 14.5% | 0hPa | 2.5V | 00:00:00 | 02:25:08 | 00:00:00 | |
| OE5DRO-10 | 2026-09-05 04:11:11 | 47.22739 | 12.83862 | 84° | 102km/h | 7008m | -11.6m/s | -17.2°C | 14.3% | 0hPa | 2.5V | 00:00:00 | 00:00:00 | 00:00:00 | |
| DG1MFX-10 | 2026-09-05 04:11:04 | 47.22724 | 12.83632 | 86° | 100km/h | 7077m | -11.8m/s | -17.8°C | 12.7% | 0hPa | 2.5V | 08:14:00 | 00:00:00 | 00:00:00 | |
| OE5MMP-10 | 2026-09-05 04:11:03 | 47.22720 | 12.83558 | 86° | 106km/h | 7100m | -11.6m/s | -17.9°C | 14.5% | 0hPa | 2.5V | 08:14:00 | 02:24:59 | 00:00:00 | |
| DO3MHA-12 | 2026-09-05 04:11:02 | 47.22717 | 12.83521 | 86° | 100km/h | 7112m | -11.7m/s | -17.9°C | 14.8% | 0hPa | 2.5V | 00:00:00 | 02:24:58 | 00:00:00 | |
| OE3JTB-15 | 2026-09-05 04:10:57 | 47.22706 | 12.83335 | 88° | 104km/h | 7169m | -12.0m/s | -18.4°C | 14.6% | 0hPa | 2.5V | 00:00:00 | 00:00:00 | 00:00:00 | |
| PG1ADW-2 | 2026-09-05 04:10:55 | 47.22703 | 12.83260 | 88° | 104km/h | 7191m | -12.1m/s | -18.6°C | 15.0% | 0hPa | 2.5V | 00:00:00 | 00:00:00 | 00:00:00 | |
| OE5DRO-10 | 2026-09-05 04:10:52 | 47.22700 | 12.83147 | 88° | 104km/h | 7226m | -12.5m/s | -18.9°C | 15.2% | 0hPa | 2.5V | 00:00:00 | 00:00:00 | 00:00:00 | |
| OE5DXL-15 | 2026-09-05 04:10:47 | 47.22694 | 12.82955 | 87° | 108km/h | 7286m | -12.1m/s | -19.4°C | 15.7% | 0hPa | 2.5V | 00:00:00 | 00:00:00 | 00:00:00 | |
| DG1MFX-10 | 2026-09-05 04:10:44 | 47.22691 | 12.82877 | 87° | 104km/h | 7310m | -12.0m/s | -19.7°C | 14.4% | 0hPa | 2.5V | 08:14:00 | 00:00:00 | 00:00:00 | |
| DO3MHA-12 | 2026-09-05 04:10:42 | 47.22687 | 12.82760 | 86° | 104km/h | 7344m | -11.8m/s | -20.0°C | 16.4% | 0hPa | 2.5V | 00:00:00 | 02:24:38 | 00:00:00 | |
| OE5DRO-10 | 2026-09-05 04:10:33 | 47.22674 | 12.82410 | 91° | 110km/h | 7449m | -11.6m/s | -20.7°C | 15.9% | 0hPa | 2.5V | 00:00:00 | 00:00:00 | 00:00:00 | |
| DO3MHA-12 | 2026-09-05 04:10:32 | 47.22674 | 12.82371 | 90° | 108km/h | 7460m | -11.7m/s | -20.8°C | 16.2% | 0hPa | 2.4V | 00:00:00 | 02:24:28 | 00:00:00 | |
| NBG1-10 | 2026-09-05 04:10:29 | 47.22674 | 12.82253 | 92° | 108km/h | 7494m | -11.8m/s | -21.1°C | 16.5% | 0hPa | 2.5V | 00:00:00 | 02:24:25 | 00:00:00 | |
| OE3JTB-15 | 2026-09-05 04:10:28 | 47.22675 | 12.82213 | 92° | 110km/h | 7506m | -12.1m/s | -21.2°C | 16.7% | 0hPa | 2.5V | 00:00:00 | 00:00:00 | 00:00:00 | |
| DG1MFX-10 | 2026-09-05 04:10:23 | 47.22678 | 12.82052 | 92° | 111km/h | 7553m | -12.4m/s | -21.7°C | 15.3% | 0hPa | 2.5V | 08:15:00 | 00:00:00 | 00:00:00 | |
| DO3MHA-12 | 2026-09-05 04:10:22 | 47.22680 | 12.81970 | 91° | 110km/h | 7577m | -12.5m/s | -21.9°C | 16.5% | 0hPa | 2.5V | 00:00:00 | 02:24:18 | 00:00:00 | |
| DO3MHA-11 | 2026-09-05 04:10:21 | 47.22680 | 12.81929 | 91° | 110km/h | 7590m | -12.5m/s | -22.0°C | 16.8% | 0hPa | 2.5V | 00:00:00 | 02:24:17 | 00:00:00 | |
| OE5MMP-10 | 2026-09-05 04:10:19 | 47.22682 | 12.81846 | 90° | 108km/h | 7614m | -12.2m/s | -22.1°C | 16.1% | 0hPa | 2.4V | 00:00:00 | 02:24:15 | 00:00:00 | |
| OE5DXL-15 | 2026-09-05 04:10:17 | 47.22682 | 12.81764 | 90° | 108km/h | 7639m | -11.8m/s | -22.3°C | 16.7% | 0hPa | 2.4V | 00:00:00 | 00:00:00 | 00:00:00 | |
| PG1ADW-2 | 2026-09-05 04:10:15 | 47.22682 | 12.81681 | 90° | 108km/h | 7662m | -11.2m/s | -22.5°C | 17.1% | 0hPa | 2.5V | 00:00:00 | 02:24:11 | 00:00:00 | |
| OE5DRO-10 | 2026-09-05 04:10:14 | 47.22682 | 12.81640 | 90° | 108km/h | 7673m | -11.4m/s | -22.6°C | 17.2% | 0hPa | 2.4V | 00:00:00 | 00:00:00 | 00:00:00 | |
| DO3MHA-12 | 2026-09-05 04:10:12 | 47.22682 | 12.81560 | 91° | 106km/h | 7695m | -11.8m/s | -22.8°C | 17.2% | 0hPa | 2.4V | 00:00:00 | 02:24:08 | 00:00:00 | |
| DO3MHA-11 | 2026-09-05 04:10:11 | 47.22682 | 12.81520 | 92° | 106km/h | 7707m | -11.7m/s | -22.9°C | 17.0% | 0hPa | 2.4V | 00:00:00 | 02:24:07 | 00:00:00 | |
| OE5MMP-10 | 2026-09-05 04:10:06 | 47.22685 | 12.81323 | 93° | 106km/h | 7765m | -12.1m/s | -23.3°C | 16.2% | 0hPa | 2.4V | 00:00:00 | 02:24:02 | 00:00:00 | |
| DO3MHA-12 | 2026-09-05 04:10:02 | 47.22690 | 12.81166 | 93° | 108km/h | 7811m | -12.8m/s | -23.7°C | 15.6% | 0hPa | 2.4V | 08:15:00 | 02:23:58 | 00:00:00 | |
| DO3MHA-11 | 2026-09-05 04:10:01 | 47.22692 | 12.81126 | 93° | 108km/h | 7823m | -12.6m/s | -23.8°C | 15.2% | 0hPa | 2.4V | 00:00:00 | 02:23:57 | 00:00:00 | |
| OE3JTB-15 | 2026-09-05 04:09:59 | 47.22695 | 12.81047 | 93° | 104km/h | 7847m | -12.1m/s | -23.9°C | 14.5% | 0hPa | 2.4V | 00:00:00 | 02:23:55 | 00:00:00 | |
| NBG1-10 | 2026-09-05 04:09:56 | 47.22697 | 12.80927 | 91° | 102km/h | 7883m | -11.9m/s | -24.1°C | 13.9% | 0hPa | 2.4V | 00:00:00 | 02:23:52 | 00:00:00 | |
| PG1ADW-2 | 2026-09-05 04:09:55 | 47.22698 | 12.80887 | 91° | 104km/h | 7895m | -11.7m/s | -24.2°C | 13.8% | 0hPa | 2.4V | 00:00:00 | 00:00:00 | 00:00:00 | |
| DO3MHA-12 | 2026-09-05 04:09:52 | 47.22699 | 12.80768 | 91° | 102km/h | 7930m | -11.1m/s | -24.4°C | 13.6% | 0hPa | 2.4V | 00:00:00 | 02:23:48 | 00:00:00 | |
| DO3MHA-11 | 2026-09-05 04:09:51 | 47.22700 | 12.80728 | 91° | 102km/h | 7941m | -11.2m/s | -24.6°C | 13.5% | 0hPa | 2.4V | 08:15:00 | 02:23:47 | 00:00:00 | |
| OE5MMP-10 | 2026-09-05 04:09:50 | 47.22701 | 12.80690 | 93° | 102km/h | 7952m | -11.3m/s | -24.6°C | 13.2% | 0hPa | 2.4V | 00:00:00 | 02:23:46 | 00:00:00 | |
| OE5DXL-15 | 2026-09-05 04:09:47 | 47.22705 | 12.80575 | 95° | 100km/h | 7985m | -11.3m/s | -24.8°C | 12.6% | 0hPa | 2.5V | 00:00:00 | 00:00:00 | 00:00:00 | |
| DO3MHA-12 | 2026-09-05 04:09:42 | 47.22715 | 12.80385 | 96° | 102km/h | 8041m | -11.6m/s | -25.2°C | 12.3% | 0hPa | 2.5V | 00:00:00 | 02:23:38 | 00:00:00 | |
| DO3MHA-11 | 2026-09-05 04:09:41 | 47.22717 | 12.80348 | 96° | 102km/h | 8053m | -11.6m/s | -25.3°C | 12.2% | 0hPa | 2.5V | 00:00:00 | 02:23:37 | 00:00:00 | |
| OE5MMP-10 | 2026-09-05 04:09:40 | 47.22719 | 12.80310 | 97° | 100km/h | 8064m | -11.7m/s | -25.3°C | 11.8% | 0hPa | 2.5V | 00:00:00 | 02:23:36 | 00:00:00 | |
| OE5DRO-10 | 2026-09-05 04:09:36 | 47.22730 | 12.80158 | 94° | 99km/h | 8112m | -11.9m/s | -25.6°C | 11.0% | 0hPa | 2.5V | 08:15:00 | 00:00:00 | 00:00:00 | |
| PG1ADW-2 | 2026-09-05 04:09:35 | 47.22731 | 12.80121 | 94° | 99km/h | 8124m | -11.8m/s | -25.6°C | 10.8% | 0hPa | 2.4V | 00:00:00 | 00:00:00 | 00:00:00 | |
| DO3MHA-12 | 2026-09-05 04:09:32 | 47.22736 | 12.80009 | 94° | 99km/h | 8159m | -11.7m/s | -25.6°C | 10.5% | 0hPa | 2.4V | 00:00:00 | 02:23:28 | 00:00:00 | |
| DO3MHA-11 | 2026-09-05 04:09:31 | 47.22738 | 12.79972 | 94° | 99km/h | 8172m | -11.5m/s | -25.6°C | 10.5% | 0hPa | 2.4V | 00:00:00 | 02:23:27 | 00:00:00 | |
| OE5MMP-10 | 2026-09-05 04:09:30 | 47.22739 | 12.79935 | 95° | 99km/h | 8183m | -11.6m/s | -25.8°C | 10.6% | 0hPa | 2.4V | 00:00:00 | 02:23:26 | 00:00:00 | |
| IN3HCDX | 2026-09-05 04:09:28 | 47.22741 | 12.79899 | 96° | 97km/h | 8195m | -11.5m/s | -25.9°C | 9.4% | 0hPa | 2.4V | 08:16:00 | 00:00:00 | 00:00:00 | |
| NBG1-10 | 2026-09-05 04:09:23 | 47.22755 | 12.79681 | 98° | 99km/h | 8265m | -11.9m/s | -26.6°C | 11.3% | 0hPa | 2.4V | 00:00:00 | 02:23:19 | 00:00:00 | |
| DO3MHA-12 | 2026-09-05 04:09:22 | 47.22758 | 12.79645 | 98° | 100km/h | 8276m | -12.0m/s | -26.7°C | 11.4% | 0hPa | 2.5V | 00:00:00 | 02:23:18 | 00:00:00 | |
| DO3MHA-11 | 2026-09-05 04:09:21 | 47.22761 | 12.79608 | 98° | 100km/h | 8288m | -11.9m/s | -26.9°C | 11.6% | 0hPa | 2.5V | 00:00:00 | 02:23:17 | 00:00:00 | |
| OE5MMP-10 | 2026-09-05 04:09:20 | 47.22765 | 12.79572 | 98° | 100km/h | 8300m | -12.1m/s | -27.0°C | 11.6% | 0hPa | 2.5V | 00:00:00 | 02:23:16 | 00:00:00 | |
| OE5DXL-15 | 2026-09-05 04:09:17 | 47.22775 | 12.79460 | 97° | 97km/h | 8336m | -12.1m/s | -27.3°C | 12.0% | 0hPa | 2.5V | 00:00:00 | 00:00:00 | 00:00:00 | |
| PG1ADW-2 | 2026-09-05 04:09:15 | 47.22780 | 12.79385 | 96° | 99km/h | 8361m | -12.0m/s | -27.5°C | 12.1% | 0hPa | 2.5V | 08:15:00 | 00:00:00 | 00:00:00 | |
| DO3MHA-12 | 2026-09-05 04:09:12 | 47.22787 | 12.79274 | 95° | 97km/h | 8397m | -11.9m/s | -27.9°C | 12.5% | 0hPa | 2.4V | 00:00:00 | 02:23:08 | 00:00:00 | |
| OE5MMP-10 | 2026-09-05 04:09:10 | 47.22791 | 12.79202 | 95° | 97km/h | 8420m | -11.8m/s | -28.1°C | 12.7% | 0hPa | 2.4V | 00:00:00 | 02:23:06 | 00:00:00 | |
| IN3HCDX | 2026-09-05 04:09:07 | 47.22796 | 12.79130 | 97° | 97km/h | 8444m | -11.9m/s | -28.4°C | 11.3% | 0hPa | 2.4V | 08:16:00 | 00:00:00 | 00:00:00 | |
| DO3MHA-11 | 2026-09-05 04:09:01 | 47.22817 | 12.78881 | 99° | 99km/h | 8528m | -12.5m/s | -29.1°C | 13.7% | 0hPa | 2.4V | 00:00:00 | 02:22:57 | 00:00:00 | |
| OE5MMP-10 | 2026-09-05 04:09:00 | 47.22821 | 12.78845 | 98° | 97km/h | 8540m | -12.7m/s | -29.2°C | 13.8% | 0hPa | 2.4V | 00:00:00 | 02:22:56 | 00:00:00 | |
| OE5DRO-10 | 2026-09-05 04:08:58 | 47.22827 | 12.78772 | 96° | 97km/h | 8565m | -12.6m/s | -29.5°C | 14.0% | 0hPa | 2.4V | 00:00:00 | 00:00:00 | 00:00:00 | |
| PG1ADW-2 | 2026-09-05 04:08:55 | 47.22834 | 12.78663 | 95° | 97km/h | 8603m | -12.0m/s | -29.8°C | 14.4% | 0hPa | 2.4V | 00:00:00 | 02:22:51 | 00:00:00 | |
| DO3MHA-11 | 2026-09-05 04:08:51 | 47.22842 | 12.78519 | 95° | 97km/h | 8651m | -11.9m/s | -30.3°C | 14.8% | 0hPa | 2.4V | 00:00:00 | 02:22:47 | 00:00:00 | |
| NBG1-10 | 2026-09-05 04:08:50 | 47.22844 | 12.78484 | 96° | 95km/h | 8663m | -11.8m/s | -30.3°C | 14.9% | 0hPa | 2.5V | 00:00:00 | 02:22:46 | 00:00:00 | |
| OE5DXL-15 | 2026-09-05 04:08:47 | 47.22851 | 12.78379 | 97° | 95km/h | 8697m | -11.6m/s | -30.6°C | 15.2% | 0hPa | 2.5V | 08:16:00 | 00:00:00 | 00:00:00 | |
| IN3HCDX | 2026-09-05 04:08:46 | 47.22851 | 12.78379 | 97° | 95km/h | 8697m | -11.6m/s | -30.6°C | 13.3% | 0hPa | 2.4V | 08:17:00 | 00:00:00 | 00:00:00 | |
| OE5MMP-10 | 2026-09-05 04:08:40 | 47.22871 | 12.78130 | 96° | 95km/h | 8779m | -12.8m/s | -30.9°C | 15.5% | 0hPa | 2.4V | 00:00:00 | 02:22:36 | 00:00:00 | |
| OE5DRO-10 | 2026-09-05 04:08:39 | 47.22873 | 12.78094 | 95° | 95km/h | 8792m | -12.6m/s | -30.9°C | 15.3% | 0hPa | 2.4V | 00:00:00 | 00:00:00 | 00:00:00 | |
| DO3MHA-11 | 2026-09-05 04:08:38 | 47.22876 | 12.78058 | 94° | 95km/h | 8804m | -12.5m/s | -31.0°C | 15.0% | 0hPa | 2.4V | 00:00:00 | 02:22:34 | 00:00:00 | |
| PG1ADW-2 | 2026-09-05 04:08:35 | 47.22881 | 12.77951 | 94° | 93km/h | 8842m | -11.8m/s | -31.2°C | 14.2% | 0hPa | 2.4V | 00:00:00 | 00:00:00 | 00:00:00 | |
| OE3JTB-15 | 2026-09-05 04:08:32 | 47.22886 | 12.77846 | 95° | 93km/h | 8876m | -11.7m/s | -31.5°C | 14.1% | 0hPa | 2.4V | 00:00:00 | 02:22:28 | 00:00:00 | |
| OE5MMP-10 | 2026-09-05 04:08:30 | 47.22890 | 12.77778 | 96° | 95km/h | 8900m | -12.0m/s | -31.7°C | 13.6% | 0hPa | 2.4V | 00:00:00 | 02:22:26 | 00:00:00 | |
| BAUMI2-15 | 2026-09-05 04:08:25 | 47.22905 | 12.77606 | 98° | 95km/h | 8961m | -13.3m/s | -32.1°C | 13.4% | 0hPa | 2.4V | 00:00:00 | 02:22:21 | 00:00:00 | |
| DO3MHA-11 | 2026-09-05 04:08:21 | 47.22916 | 12.77466 | 95° | 93km/h | 9012m | -12.6m/s | -32.5°C | 14.2% | 0hPa | 2.4V | 00:00:00 | 02:22:17 | 00:00:00 | |
| BAUMI2-15 | 2026-09-05 04:08:20 | 47.22918 | 12.77431 | 95° | 93km/h | 9024m | -12.4m/s | -32.5°C | 14.6% | 0hPa | 2.4V | 00:00:00 | 02:22:16 | 00:00:00 | |
| OE5HKT-10 | 2026-09-05 04:08:19 | 47.22920 | 12.77397 | 95° | 93km/h | 9037m | -12.2m/s | -32.6°C | 14.8% | 0hPa | 2.4V | 08:16:00 | 00:00:00 | 00:00:00 | |
| DG1MFX-10 | 2026-09-05 04:08:18 | 47.22920 | 12.77397 | 95° | 93km/h | 9037m | -12.3m/s | -32.6°C | 12.8% | 0hPa | 2.4V | 08:17:00 | 00:00:00 | 00:00:00 | |
| OE5DXL-15 | 2026-09-05 04:08:17 | 47.22924 | 12.77328 | 95° | 93km/h | 9061m | -12.1m/s | -32.7°C | 14.5% | 0hPa | 2.4V | 00:00:00 | 00:00:00 | 00:00:00 | |
| PG1ADW-2 | 2026-09-05 04:08:15 | 47.22927 | 12.77260 | 97° | 93km/h | 9085m | -11.9m/s | -33.0°C | 14.0% | 0hPa | 2.4V | 00:00:00 | 00:00:00 | 00:00:00 | |
| DB0NH | 2026-09-05 04:08:14 | 47.22930 | 12.77226 | 97° | 93km/h | 9097m | -12.0m/s | -33.1°C | 14.0% | 0hPa | 2.5V | 00:00:00 | 02:22:10 | 00:00:00 | |
| DO3MHA-11 | 2026-09-05 04:08:11 | 47.22939 | 12.77124 | 99° | 93km/h | 9132m | -12.5m/s | -33.3°C | 13.5% | 0hPa | 2.5V | 08:17:00 | 02:22:07 | 00:00:00 | |
| BAUMI2-15 | 2026-09-05 04:08:10 | 47.22942 | 12.77089 | 100° | 95km/h | 9145m | -12.8m/s | -33.3°C | 14.0% | 0hPa | 2.4V | 00:00:00 | 02:22:06 | 00:00:00 | |
| BAUMI2-15 | 2026-09-05 04:08:05 | 47.22962 | 12.76915 | 99° | 91km/h | 9209m | -12.7m/s | -33.5°C | 17.1% | 0hPa | 2.4V | 00:00:00 | 02:22:01 | 00:00:00 | |
| DO3MHA-11 | 2026-09-05 04:08:01 | 47.22977 | 12.76780 | 101° | 93km/h | 9258m | -12.5m/s | -33.9°C | 21.4% | 0hPa | 2.5V | 00:00:00 | 02:21:57 | 00:00:00 | |
| DO3MHA-12 | 2026-09-05 04:08:00 | 47.22982 | 12.76746 | 102° | 93km/h | 9271m | -12.6m/s | -34.0°C | 22.9% | 0hPa | 2.5V | 00:00:00 | 02:21:56 | 00:00:00 | |
| OE5HKT-10 | 2026-09-05 04:07:58 | 47.22991 | 12.76680 | 104° | 97km/h | 9295m | -13.1m/s | -34.2°C | 27.9% | 0hPa | 2.5V | 00:00:00 | 00:00:00 | 00:00:00 | |
| DG1MFX-10 | 2026-09-05 04:07:57 | 47.22991 | 12.76680 | 104° | 91km/h | 9295m | -13.2m/s | -34.2°C | 24.7% | 0hPa | 2.5V | 08:18:00 | 00:00:00 | 00:00:00 | |
| PG1ADW-2 | 2026-09-05 04:07:55 | 47.23007 | 12.76580 | 105° | 97km/h | 9334m | -13.2m/s | -34.5°C | 47.1% | 0hPa | 2.5V | 00:00:00 | 00:00:00 | 00:00:00 | |
| DO3MHA-11 | 2026-09-05 04:07:51 | 47.23030 | 12.76442 | 103° | 97km/h | 9386m | -12.9m/s | -34.7°C | 59.2% | 0hPa | 2.5V | 00:00:00 | 02:21:47 | 00:00:00 | |
| DO3MHA-12 | 2026-09-05 04:07:50 | 47.23035 | 12.76408 | 102° | 97km/h | 9399m | -12.7m/s | -34.7°C | 58.0% | 0hPa | 2.5V | 08:17:00 | 02:21:46 | 00:00:00 | |
| OE5DXL-15 | 2026-09-05 04:07:47 | 47.23051 | 12.76304 | 105° | 99km/h | 9437m | -12.9m/s | -34.6°C | 54.8% | 0hPa | 2.5V | 00:00:00 | 00:00:00 | 00:00:00 | |
| BAUMI2-15 | 2026-09-05 04:07:45 | 47.23064 | 12.76236 | 107° | 99km/h | 9463m | -13.2m/s | -34.6°C | 48.8% | 0hPa | 2.5V | 00:00:00 | 02:21:41 | 00:00:00 | |
| NBG1-10 | 2026-09-05 04:07:44 | 47.23071 | 12.76201 | 108° | 99km/h | 9476m | -13.4m/s | -34.7°C | 47.2% | 0hPa | 2.5V | 08:17:00 | 02:21:40 | 00:00:00 | |
| OE5DRO-10 | 2026-09-05 04:07:42 | 47.23086 | 12.76132 | 108° | 99km/h | 9502m | -13.6m/s | -34.9°C | 44.3% | 0hPa | 2.4V | 00:00:00 | 00:00:00 | 00:00:00 | |
| DO3MHA-11 | 2026-09-05 04:07:41 | 47.23093 | 12.76097 | 108° | 99km/h | 9515m | -13.8m/s | -35.0°C | 42.4% | 0hPa | 2.4V | 00:00:00 | 02:21:37 | 00:00:00 | |
| DO3MHA-12 | 2026-09-05 04:07:40 | 47.23101 | 12.76062 | 107° | 99km/h | 9529m | -13.8m/s | -35.1°C | 39.6% | 0hPa | 2.4V | 00:00:00 | 02:21:36 | 00:00:00 | |
| OE5HKT-10 | 2026-09-05 04:07:37 | 47.23121 | 12.75954 | 105° | 99km/h | 9570m | -13.5m/s | -35.5°C | 36.5% | 0hPa | 2.4V | 00:00:00 | 02:21:33 | 00:00:00 | |
| PG1ADW-2 | 2026-09-05 04:07:35 | 47.23134 | 12.75883 | 105° | 99km/h | 9597m | -13.5m/s | -35.7°C | 35.2% | 0hPa | 2.4V | 00:00:00 | 02:21:31 | 00:00:00 | |
| OE3JTB-15 | 2026-09-05 04:07:34 | 47.23141 | 12.75848 | 107° | 99km/h | 9610m | -13.3m/s | -35.8°C | 34.2% | 0hPa | 2.4V | 00:00:00 | 00:00:00 | 00:00:00 | |
| DO3MHA-11 | 2026-09-05 04:07:31 | 47.23162 | 12.75743 | 108° | 100km/h | 9650m | -13.4m/s | -36.2°C | 34.0% | 0hPa | 2.4V | 00:00:00 | 02:21:27 | 00:00:00 | |
| DO3MHA-12 | 2026-09-05 04:07:30 | 47.23170 | 12.75708 | 108° | 100km/h | 9663m | -13.5m/s | -36.4°C | 34.4% | 0hPa | 2.4V | 00:00:00 | 02:21:26 | 00:00:00 | |
| BAUMI2-15 | 2026-09-05 04:07:25 | 47.23210 | 12.75531 | 107° | 99km/h | 9731m | -13.9m/s | -37.0°C | 38.8% | 0hPa | 2.4V | 00:00:00 | 02:21:21 | 00:00:00 | |
| OE5DRO-10 | 2026-09-05 04:07:23 | 47.23224 | 12.75460 | 106° | 97km/h | 9758m | -13.7m/s | -37.3°C | 42.7% | 0hPa | 2.4V | 00:00:00 | 00:00:00 | 00:00:00 | |
| DO3MHA-11 | 2026-09-05 04:07:21 | 47.23238 | 12.75390 | 107° | 97km/h | 9785m | -13.4m/s | -37.5°C | 48.5% | 0hPa | 2.4V | 00:00:00 | 02:21:17 | 00:00:00 | |
| DO3MHA-12 | 2026-09-05 04:07:20 | 47.23245 | 12.75355 | 108° | 97km/h | 9798m | -13.7m/s | -37.6°C | 50.3% | 0hPa | 2.4V | 00:00:00 | 02:21:16 | 00:00:00 | |
| OE5DXL-15 | 2026-09-05 04:07:17 | 47.23268 | 12.75254 | 109° | 95km/h | 9838m | -13.7m/s | -37.9°C | 55.3% | 0hPa | 2.5V | 00:00:00 | 00:00:00 | 00:00:00 | |
| OE5HKT-10 | 2026-09-05 04:07:16 | 47.23275 | 12.75220 | 110° | 97km/h | 9851m | -13.7m/s | -38.1°C | 56.5% | 0hPa | 2.5V | 00:00:00 | 00:00:00 | 00:00:00 | |
| PG1ADW-2 | 2026-09-05 04:07:15 | 47.23283 | 12.75186 | 109° | 97km/h | 9865m | -14.2m/s | -38.2°C | 57.4% | 0hPa | 2.4V | 00:00:00 | 00:00:00 | 00:00:00 | |
| DB0NH | 2026-09-05 04:07:12 | 47.23306 | 12.75083 | 108° | 95km/h | 9907m | -14.4m/s | -38.5°C | 58.8% | 0hPa | 2.5V | 00:00:00 | 02:21:08 | 00:00:00 | |
| DO3MHA-11 | 2026-09-05 04:07:11 | 47.23313 | 12.75047 | 105° | 95km/h | 9921m | -14.3m/s | -38.6°C | 59.2% | 0hPa | 2.5V | 00:00:00 | 02:21:07 | 00:00:00 | |
| DO3MHA-12 | 2026-09-05 04:07:10 | 47.23319 | 12.75012 | 104° | 95km/h | 9935m | -14.0m/s | -38.7°C | 59.7% | 0hPa | 2.5V | 00:00:00 | 02:21:06 | 00:00:00 | |
| BAUMI2-15 | 2026-09-05 04:07:05 | 47.23346 | 12.74838 | 103° | 93km/h | 10003m | -13.5m/s | -39.2°C | 61.3% | 0hPa | 2.5V | 08:18:00 | 02:21:01 | 00:00:00 | |
| OE3JTB-15 | 2026-09-05 04:07:04 | 47.23351 | 12.74804 | 104° | 95km/h | 10016m | -13.6m/s | -39.2°C | 61.6% | 0hPa | 2.4V | 00:00:00 | 02:21:00 | 00:00:00 | |
| IN3HCDX | 2026-09-05 04:07:02 | 47.23356 | 12.74770 | 104° | 93km/h | 10030m | -13.8m/s | -39.3°C | 56.0% | 0hPa | 2.4V | 00:00:00 | 00:00:00 | 00:00:00 | |
| DO3MHA-11 | 2026-09-05 04:07:01 | 47.23367 | 12.74702 | 104° | 95km/h | 10057m | -14.3m/s | -39.5°C | 64.3% | 0hPa | 2.4V | 00:00:00 | 02:20:57 | 00:00:00 | |
| DO3MHA-12 | 2026-09-05 04:07:00 | 47.23373 | 12.74668 | 104° | 95km/h | 10071m | -14.6m/s | -39.6°C | 65.3% | 0hPa | 2.4V | 00:00:00 | 02:20:56 | 00:00:00 | |
| DG1MFX-10 | 2026-09-05 04:06:56 | 47.23388 | 12.74563 | 100° | 95km/h | 10114m | -14.3m/s | -40.0°C | 61.5% | 0hPa | 2.4V | 08:18:00 | 00:00:00 | 00:00:00 | |
| PG1ADW-2 | 2026-09-05 04:06:55 | 47.23396 | 12.74493 | 99° | 93km/h | 10143m | -14.0m/s | -40.2°C | 69.4% | 0hPa | 2.4V | 00:00:00 | 00:00:00 | 00:00:00 | |
| DO3MHA-11 | 2026-09-05 04:06:51 | 47.23411 | 12.74357 | 101° | 95km/h | 10197m | -13.8m/s | -40.6°C | 70.1% | 0hPa | 2.4V | 00:00:00 | 02:20:47 | 00:00:00 | |
| BAUMI2-15 | 2026-09-05 04:06:50 | 47.23415 | 12.74324 | 101° | 93km/h | 10211m | -13.9m/s | -40.8°C | 70.4% | 0hPa | 2.4V | 00:00:00 | 02:20:46 | 00:00:00 | |
| OE5DXL-15 | 2026-09-05 04:06:47 | 47.23429 | 12.74223 | 103° | 95km/h | 10253m | -14.5m/s | -41.1°C | 70.7% | 0hPa | 2.4V | 00:00:00 | 00:00:00 | 00:00:00 | |
| BAUMI2-15 | 2026-09-05 04:06:45 | 47.23438 | 12.74154 | 102° | 93km/h | 10281m | -14.6m/s | -41.4°C | 70.7% | 0hPa | 2.4V | 00:00:00 | 02:20:41 | 00:00:00 | |
| DO3MHA-11 | 2026-09-05 04:06:41 | 47.23456 | 12.74014 | 99° | 95km/h | 10339m | -14.0m/s | -41.9°C | 71.0% | 0hPa | 2.4V | 08:18:00 | 02:20:37 | 00:00:00 | |
| OE5MMP-10 | 2026-09-05 04:06:40 | 47.23460 | 12.73979 | 99° | 95km/h | 10353m | -14.0m/s | -42.0°C | 71.1% | 0hPa | 2.4V | 00:00:00 | 02:20:36 | 00:00:00 | |
| DG1MFX-10 | 2026-09-05 04:06:36 | 47.23472 | 12.73876 | 102° | 93km/h | 10394m | -14.0m/s | -42.4°C | 63.5% | 0hPa | 2.4V | 08:18:00 | 00:00:00 | 00:00:00 | |
| PG1ADW-2 | 2026-09-05 04:06:35 | 47.23481 | 12.73808 | 103° | 95km/h | 10421m | -14.3m/s | -42.6°C | 71.1% | 0hPa | 2.4V | 00:00:00 | 00:00:00 | 00:00:00 | |
| OE5HKT-10 | 2026-09-05 04:06:34 | 47.23486 | 12.73773 | 103° | 95km/h | 10435m | -14.5m/s | -42.8°C | 70.8% | 0hPa | 2.4V | 00:00:00 | 02:20:30 | 00:00:00 | |
| DO3MHA-11 | 2026-09-05 04:06:31 | 47.23503 | 12.73669 | 103° | 95km/h | 10478m | -15.1m/s | -43.1°C | 68.8% | 0hPa | 2.4V | 00:00:00 | 02:20:27 | 00:00:00 | |
| DO3MHA-12 | 2026-09-05 04:06:30 | 47.23508 | 12.73633 | 102° | 95km/h | 10493m | -15.1m/s | -43.2°C | 68.8% | 0hPa | 2.4V | 00:00:00 | 02:20:26 | 00:00:00 | |
| DB0UT-7 | 2026-09-05 04:06:29 | 47.23513 | 12.73597 | 101° | 95km/h | 10508m | -14.8m/s | -43.3°C | 68.9% | 0hPa | 2.4V | 00:00:00 | 02:20:25 | 00:00:00 | |
| OE5DRO-10 | 2026-09-05 04:06:26 | 47.23527 | 12.73491 | 101° | 93km/h | 10552m | -14.0m/s | -43.7°C | 68.5% | 0hPa | 2.4V | 00:00:00 | 00:00:00 | 00:00:00 | |
| DO3MHA-11 | 2026-09-05 04:06:21 | 47.23550 | 12.73320 | 103° | 93km/h | 10621m | -14.1m/s | -44.3°C | 69.6% | 0hPa | 2.4V | 00:00:00 | 02:20:17 | 00:00:00 | |
| DO3MHA-12 | 2026-09-05 04:06:20 | 47.23556 | 12.73286 | 104° | 93km/h | 10634m | -14.1m/s | -44.5°C | 69.8% | 0hPa | 2.4V | 08:18:00 | 02:20:16 | 00:00:00 | |
| OE5DXL-15 | 2026-09-05 04:06:17 | 47.23572 | 12.73184 | 102° | 95km/h | 10677m | -14.6m/s | -44.8°C | 69.4% | 0hPa | 2.4V | 00:00:00 | 00:00:00 | 00:00:00 | |
| PG1ADW-2 | 2026-09-05 04:06:15 | 47.23582 | 12.73115 | 101° | 95km/h | 10706m | -14.5m/s | -45.0°C | 68.5% | 0hPa | 2.4V | 08:18:00 | 02:20:11 | 00:00:00 | |
| OE5HKT-10 | 2026-09-05 04:06:13 | 47.23590 | 12.73046 | 101° | 95km/h | 10735m | -14.2m/s | -45.3°C | 68.3% | 0hPa | 2.5V | 00:00:00 | 00:00:00 | 00:00:00 | |
| DO3MHA-11 | 2026-09-05 04:06:11 | 47.23599 | 12.72979 | 103° | 95km/h | 10763m | -14.0m/s | -45.5°C | 68.3% | 0hPa | 2.4V | 00:00:00 | 02:20:07 | 00:00:00 | |
| DO3MHA-12 | 2026-09-05 04:06:10 | 47.23604 | 12.72945 | 104° | 95km/h | 10777m | -14.2m/s | -45.7°C | 68.2% | 0hPa | 2.4V | 00:00:00 | 02:20:06 | 00:00:00 | |
| OE5DRO-10 | 2026-09-05 04:06:07 | 47.23621 | 12.72845 | 105° | 97km/h | 10819m | -14.8m/s | -46.1°C | 67.5% | 0hPa | 2.4V | 00:00:00 | 00:00:00 | 00:00:00 | |
| OE3JTB-15 | 2026-09-05 04:06:06 | 47.23627 | 12.72810 | 105° | 97km/h | 10834m | -15.0m/s | -46.2°C | 67.4% | 0hPa | 2.4V | 00:00:00 | 00:00:00 | 00:00:00 | |
| DO3MHA-11 | 2026-09-05 04:06:01 | 47.23653 | 12.72635 | 101° | 95km/h | 10908m | -14.3m/s | -46.9°C | 66.7% | 0hPa | 2.4V | 00:00:00 | 02:19:57 | 00:00:00 | |
| DO3MHA-12 | 2026-09-05 04:06:00 | 47.23658 | 12.72601 | 101° | 95km/h | 10923m | -14.1m/s | -47.0°C | 67.2% | 0hPa | 2.4V | 00:00:00 | 02:19:56 | 00:00:00 | |
| IN3HCDX | 2026-09-05 04:05:59 | 47.23658 | 12.72601 | 101° | 95km/h | 10923m | -14.1m/s | -47.1°C | 58.9% | 0hPa | 2.4V | 08:19:00 | 00:00:00 | 00:00:00 | |
| DB0UT-7 | 2026-09-05 04:05:58 | 47.23666 | 12.72531 | 101° | 95km/h | 10951m | -14.0m/s | -47.3°C | 67.4% | 0hPa | 2.4V | 00:00:00 | 00:00:00 | 00:00:00 | |
| NBG1-10 | 2026-09-05 04:05:56 | 47.23676 | 12.72463 | 103° | 97km/h | 10979m | -14.4m/s | -47.6°C | 67.1% | 0hPa | 2.5V | 00:00:00 | 02:19:52 | 00:00:00 | |
| PG1ADW-2 | 2026-09-05 04:05:55 | 47.23681 | 12.72429 | 104° | 97km/h | 10994m | -14.5m/s | -47.7°C | 66.6% | 0hPa | 2.5V | 00:00:00 | 00:00:00 | 00:00:00 | |
| OE5HKT-10 | 2026-09-05 04:05:52 | 47.23697 | 12.72325 | 103° | 99km/h | 11037m | -15.2m/s | -48.1°C | 66.0% | 0hPa | 2.5V | 00:00:00 | 00:00:00 | 00:00:00 | |
| DO3MHA-11 | 2026-09-05 04:05:51 | 47.23703 | 12.72290 | 102° | 97km/h | 11052m | -15.0m/s | -48.3°C | 65.8% | 0hPa | 2.5V | 00:00:00 | 02:19:47 | 00:00:00 | |
| DO3MHA-12 | 2026-09-05 04:05:50 | 47.23708 | 12.72254 | 101° | 97km/h | 11067m | -14.8m/s | -48.4°C | 65.7% | 0hPa | 2.5V | 00:00:00 | 02:19:46 | 00:00:00 | |
| OE5DRO-10 | 2026-09-05 04:05:48 | 47.23717 | 12.72182 | 100° | 97km/h | 11097m | -14.6m/s | -48.6°C | 64.1% | 0hPa | 2.4V | 00:00:00 | 00:00:00 | 00:00:00 | |
| OE5DXL-15 | 2026-09-05 04:05:47 | 47.23721 | 12.72147 | 100° | 97km/h | 11111m | -14.4m/s | -48.8°C | 63.6% | 0hPa | 2.4V | 00:00:00 | 00:00:00 | 00:00:00 | |
| S52SK | 2026-09-05 04:05:46 | 47.23721 | 12.72147 | 100° | 97km/h | 11111m | -14.5m/s | -48.8°C | 55.0% | 0hPa | 2.4V | 00:00:00 | 00:00:00 | 00:00:00 | |
| DO3MHA-11 | 2026-09-05 04:05:41 | 47.23749 | 12.71937 | 103° | 99km/h | 11196m | -14.7m/s | -49.5°C | 63.5% | 0hPa | 2.4V | 00:00:00 | 02:19:37 | 00:00:00 | |
| DO3MHA-12 | 2026-09-05 04:05:40 | 47.23754 | 12.71902 | 103° | 99km/h | 11211m | -14.9m/s | -49.6°C | 63.9% | 0hPa | 2.5V | 00:00:00 | 02:19:36 | 00:00:00 | |
| IN3HCDX | 2026-09-05 04:05:38 | 47.23759 | 12.71866 | 103° | 100km/h | 11225m | -15.2m/s | -49.8°C | 55.8% | 0hPa | 2.5V | 08:19:00 | 00:00:00 | 00:00:00 | |
| OE3JTB-15 | 2026-09-05 04:05:37 | 47.23769 | 12.71792 | 100° | 95km/h | 11256m | -15.0m/s | -50.1°C | 64.6% | 0hPa | 2.5V | 00:00:00 | 02:19:33 | 00:00:00 | |
| DB0NH | 2026-09-05 04:05:36 | 47.23773 | 12.71756 | 99° | 95km/h | 11271m | -14.8m/s | -50.2°C | 64.6% | 0hPa | 2.5V | 00:00:00 | 02:19:32 | 00:00:00 | |
| PG1ADW-2 | 2026-09-05 04:05:35 | 47.23777 | 12.71719 | 99° | 97km/h | 11286m | -14.4m/s | -50.3°C | 64.4% | 0hPa | 2.5V | 00:00:00 | 00:00:00 | 00:00:00 | |
| DG1MFX-10 | 2026-09-05 04:05:34 | 47.23777 | 12.71719 | 100° | 100km/h | 11286m | -14.5m/s | -50.4°C | 55.6% | 0hPa | 2.5V | 08:19:00 | 00:00:00 | 00:00:00 | |
| OE5HKT-10 | 2026-09-05 04:05:31 | 47.23793 | 12.71574 | 100° | 95km/h | 11342m | -13.8m/s | -50.9°C | 63.6% | 0hPa | 2.5V | 00:00:00 | 02:19:27 | 00:00:00 | |
| DO3MHA-12 | 2026-09-05 04:05:30 | 47.23797 | 12.71538 | 101° | 97km/h | 11355m | -13.8m/s | -51.0°C | 63.4% | 0hPa | 2.5V | 00:00:00 | 02:19:26 | 00:00:00 | |
| OE5DRO-10 | 2026-09-05 04:05:29 | 47.23802 | 12.71503 | 101° | 95km/h | 11369m | -14.2m/s | -51.1°C | 63.2% | 0hPa | 2.5V | 00:00:00 | 00:00:00 | 00:00:00 | |
| NBG1-10 | 2026-09-05 04:05:23 | 47.23820 | 12.71285 | 93° | 89km/h | 11457m | -14.1m/s | -51.7°C | 61.0% | 0hPa | 2.5V | 00:00:00 | 02:19:19 | 00:00:00 | |
| DO3MHA-11 | 2026-09-05 04:05:21 | 47.23823 | 12.71215 | 94° | 91km/h | 11485m | -14.3m/s | -51.9°C | 62.0% | 0hPa | 2.5V | 00:00:00 | 02:19:17 | 00:00:00 | |
| DO3MHA-12 | 2026-09-05 04:05:20 | 47.23824 | 12.71180 | 94° | 91km/h | 11499m | -14.1m/s | -52.0°C | 62.1% | 0hPa | 2.5V | 00:00:00 | 02:19:16 | 00:00:00 | |
| DB0UT-7 | 2026-09-05 04:05:19 | 47.23826 | 12.71146 | 95° | 88km/h | 11513m | -14.1m/s | -52.1°C | 62.9% | 0hPa | 2.5V | 00:00:00 | 02:19:15 | 00:00:00 | |
| OE5DXL-15 | 2026-09-05 04:05:17 | 47.23829 | 12.71078 | 95° | 88km/h | 11541m | -13.9m/s | -52.4°C | 64.2% | 0hPa | 2.5V | 00:00:00 | 00:00:00 | 00:00:00 | |
| IN3HCDX | 2026-09-05 04:05:16 | 47.23829 | 12.71078 | 95° | 91km/h | 11541m | -13.9m/s | -52.5°C | 54.8% | 0hPa | 2.5V | 08:20:00 | 00:00:00 | 00:00:00 | |
| PG1ADW-2 | 2026-09-05 04:05:15 | 47.23833 | 12.71011 | 96° | 89km/h | 11569m | -14.8m/s | -52.7°C | 65.0% | 0hPa | 2.5V | 00:00:00 | 00:00:00 | 00:00:00 | |
| DG1MFX-10 | 2026-09-05 04:05:13 | 47.23834 | 12.70976 | 94° | 93km/h | 11583m | -14.9m/s | -52.8°C | 55.4% | 0hPa | 2.4V | 08:20:00 | 00:00:00 | 00:00:00 | |
| DO3MHA-11 | 2026-09-05 04:05:11 | 47.23836 | 12.70873 | 90° | 89km/h | 11628m | -14.4m/s | -53.1°C | 66.4% | 0hPa | 2.4V | 08:20:00 | 02:19:07 | 00:00:00 | |
| OE5MMP-10 | 2026-09-05 04:05:10 | 47.23836 | 12.70839 | 90° | 89km/h | 11643m | -14.4m/s | -53.3°C | 67.1% | 0hPa | 2.5V | 00:00:00 | 02:19:06 | 00:00:00 | |
| OE5HKT-10 | 2026-09-05 04:05:09 | 47.23836 | 12.70805 | 91° | 86km/h | 11656m | -14.6m/s | -53.4°C | 67.2% | 0hPa | 2.5V | 08:20:00 | 00:00:00 | 00:00:00 | |
| OE3JTB-15 | 2026-09-05 04:05:08 | 47.23836 | 12.70772 | 90° | 86km/h | 11670m | -14.6m/s | -53.5°C | 67.8% | 0hPa | 2.5V | 00:00:00 | 00:00:00 | 00:00:00 | |
| DB0NH | 2026-09-05 04:05:06 | 47.23837 | 12.70706 | 93° | 86km/h | 11699m | -15.0m/s | -53.8°C | 68.6% | 0hPa | 2.4V | 00:00:00 | 02:19:02 | 00:00:00 | |
| DO3MHA-11 | 2026-09-05 04:05:01 | 47.23840 | 12.70542 | 89° | 86km/h | 11774m | -14.6m/s | -54.5°C | 70.0% | 0hPa | 2.4V | 00:00:00 | 02:18:57 | 00:00:00 | |
| OE5MMP-10 | 2026-09-05 04:05:00 | 47.23839 | 12.70510 | 88° | 86km/h | 11789m | -14.3m/s | -54.6°C | 70.1% | 0hPa | 2.4V | 00:00:00 | 02:18:56 | 00:00:00 | |
| OM5KV | 2026-09-05 04:04:58 | 47.23838 | 12.70477 | 88° | 88km/h | 11803m | -14.1m/s | -54.8°C | 59.7% | 0hPa | 2.4V | 08:20:00 | 00:00:00 | 00:00:00 | |
| OM5KV | 2026-09-05 04:04:56 | 47.23836 | 12.70414 | 89° | 84km/h | 11832m | -14.3m/s | -55.0°C | 59.0% | 0hPa | 2.4V | 08:20:00 | 00:00:00 | 00:00:00 | |
| PG1ADW-2 | 2026-09-05 04:04:55 | 47.23835 | 12.70352 | 90° | 84km/h | 11860m | -14.9m/s | -55.2°C | 68.9% | 0hPa | 2.4V | 00:00:00 | 02:18:51 | 00:00:00 | |
| DG1MFX-10 | 2026-09-05 04:04:53 | 47.23834 | 12.70321 | 90° | 84km/h | 11874m | -15.0m/s | -55.4°C | 58.3% | 0hPa | 2.4V | 08:20:00 | 00:00:00 | 00:00:00 | |
| DO3MHA-11 | 2026-09-05 04:04:51 | 47.23831 | 12.70226 | 85° | 84km/h | 11919m | -15.1m/s | -55.8°C | 67.3% | 0hPa | 2.4V | 00:00:00 | 02:18:47 | 00:00:00 | |
| NBG1-10 | 2026-09-05 04:04:50 | 47.23829 | 12.70195 | 84° | 86km/h | 11934m | -14.8m/s | -55.9°C | 66.6% | 0hPa | 2.4V | 00:00:00 | 02:18:46 | 00:00:00 | |
| DB0UT-7 | 2026-09-05 04:04:49 | 47.23827 | 12.70164 | 82° | 86km/h | 11949m | -14.6m/s | -56.0°C | 65.9% | 0hPa | 2.4V | 00:00:00 | 00:00:00 | 00:00:00 | |
| OE5HKT-10 | 2026-09-05 04:04:48 | 47.23824 | 12.70133 | 83° | 84km/h | 11964m | -14.6m/s | -56.1°C | 65.2% | 0hPa | 2.4V | 00:00:00 | 00:00:00 | 00:00:00 | |
| OE5DXL-15 | 2026-09-05 04:04:47 | 47.23821 | 12.70103 | 84° | 86km/h | 11979m | -14.8m/s | -56.2°C | 64.0% | 0hPa | 2.4V | 00:00:00 | 00:00:00 | 00:00:00 | |
| OM5KV | 2026-09-05 04:04:44 | 47.23816 | 12.70042 | 85° | 82km/h | 12008m | -15.2m/s | -56.4°C | 52.6% | 0hPa | 2.4V | 08:20:00 | 00:00:00 | 00:00:00 | |
| DO3MHA-11 | 2026-09-05 04:04:41 | 47.23807 | 12.69918 | 82° | 84km/h | 12069m | -15.4m/s | -56.7°C | 62.3% | 0hPa | 2.4V | 00:00:00 | 02:18:37 | 00:00:00 | |
| OE5MMP-10 | 2026-09-05 04:04:40 | 47.23803 | 12.69887 | 80° | 86km/h | 12084m | -15.3m/s | -56.8°C | 62.5% | 0hPa | 2.4V | 00:00:00 | 02:18:36 | 00:00:00 | |
| OE3JTB-15 | 2026-09-05 04:04:39 | 47.23799 | 12.69856 | 79° | 86km/h | 12100m | -15.1m/s | -57.0°C | 62.7% | 0hPa | 2.4V | 00:00:00 | 00:00:00 | 00:00:00 | |
| OM5KV | 2026-09-05 04:04:37 | 47.23795 | 12.69825 | 79° | 84km/h | 12115m | -15.0m/s | -57.2°C | 52.7% | 0hPa | 2.4V | 08:20:00 | 00:00:00 | 00:00:00 | |
| DB0NH | 2026-09-05 04:04:36 | 47.23787 | 12.69764 | 80° | 88km/h | 12144m | -15.4m/s | -57.3°C | 63.0% | 0hPa | 2.4V | 00:00:00 | 02:18:32 | 00:00:00 | |
| PG1ADW-2 | 2026-09-05 04:04:35 | 47.23783 | 12.69734 | 81° | 86km/h | 12160m | -15.6m/s | -57.4°C | 62.5% | 0hPa | 2.4V | 00:00:00 | 00:00:00 | 00:00:00 | |
| OM5KV | 2026-09-05 04:04:33 | 47.23780 | 12.69703 | 82° | 84km/h | 12175m | -15.9m/s | -57.6°C | 51.7% | 0hPa | 2.4V | 08:21:00 | 00:00:00 | 00:00:00 | |
| OE5DRO-10 | 2026-09-05 04:04:32 | 47.23773 | 12.69640 | 81° | 88km/h | 12207m | -16.4m/s | -57.8°C | 62.0% | 0hPa | 2.4V | 00:00:00 | 00:00:00 | 00:00:00 | |
| DO3MHA-11 | 2026-09-05 04:04:31 | 47.23769 | 12.69609 | 79° | 86km/h | 12223m | -16.2m/s | -57.9°C | 62.0% | 0hPa | 2.4V | 00:00:00 | 02:18:27 | 00:00:00 | |
| DO3MHA-12 | 2026-09-05 04:04:30 | 47.23765 | 12.69577 | 78° | 86km/h | 12239m | -15.9m/s | -58.1°C | 61.9% | 0hPa | 2.4V | 00:00:00 | 02:18:26 | 00:00:00 | |
| OE5HKT-10 | 2026-09-05 04:04:27 | 47.23750 | 12.69482 | 76° | 88km/h | 12286m | -15.0m/s | -58.5°C | 61.7% | 0hPa | 2.4V | 00:00:00 | 02:18:23 | 00:00:00 | |
| BAUMI2-15 | 2026-09-05 04:04:25 | 47.23740 | 12.69420 | 78° | 86km/h | 12315m | -15.5m/s | -58.7°C | 61.0% | 0hPa | 2.4V | 00:00:00 | 02:18:21 | 00:00:00 | |
| OM5KV | 2026-09-05 04:04:23 | 47.23735 | 12.69389 | 78° | 86km/h | 12331m | -15.6m/s | -58.9°C | 49.7% | 0hPa | 2.4V | 08:21:00 | 00:00:00 | 00:00:00 | |
| OM5KV | 2026-09-05 04:04:22 | 47.23726 | 12.69327 | 81° | 84km/h | 12362m | -15.5m/s | -59.2°C | 48.5% | 0hPa | 2.4V | 08:21:00 | 00:00:00 | 00:00:00 | |
| DO3MHA-11 | 2026-09-05 04:04:21 | 47.23722 | 12.69297 | 81° | 88km/h | 12377m | -15.7m/s | -59.3°C | 58.9% | 0hPa | 2.4V | 00:00:00 | 02:18:17 | 00:00:00 | |
| BAUMI2-15 | 2026-09-05 04:04:20 | 47.23718 | 12.69265 | 81° | 88km/h | 12392m | -16.0m/s | -59.5°C | 58.4% | 0hPa | 2.4V | 08:20:00 | 02:18:16 | 00:00:00 | |
| DB0UT-7 | 2026-09-05 04:04:19 | 47.23715 | 12.69233 | 81° | 91km/h | 12407m | -15.9m/s | -59.6°C | 57.8% | 0hPa | 2.4V | 08:20:00 | 02:18:15 | 00:00:00 | |
| OE5DXL-15 | 2026-09-05 04:04:17 | 47.23707 | 12.69169 | 80° | 93km/h | 12439m | -15.4m/s | -59.9°C | 56.2% | 0hPa | 2.4V | 08:20:00 | 00:00:00 | 00:00:00 | |
| PG1ADW-2 | 2026-09-05 04:04:15 | 47.23698 | 12.69103 | 79° | 91km/h | 12470m | -14.9m/s | -60.1°C | 54.8% | 0hPa | 2.5V | 00:00:00 | 00:00:00 | 00:00:00 | |
| OE5DRO-10 | 2026-09-05 04:04:13 | 47.23690 | 12.69039 | 82° | 91km/h | 12500m | -15.4m/s | -60.4°C | 53.0% | 0hPa | 2.5V | 00:00:00 | 00:00:00 | 00:00:00 | |
| DG1MFX-10 | 2026-09-05 04:04:12 | 47.23690 | 12.69039 | 83° | 88km/h | 12500m | -15.4m/s | -60.4°C | 42.7% | 0hPa | 2.5V | 08:21:00 | 00:00:00 | 00:00:00 | |
| DO3MHA-11 | 2026-09-05 04:04:11 | 47.23684 | 12.68974 | 84° | 91km/h | 12530m | -15.7m/s | -60.5°C | 50.8% | 0hPa | 2.5V | 00:00:00 | 02:18:07 | 00:00:00 | |
| BAUMI2-15 | 2026-09-05 04:04:10 | 47.23682 | 12.68941 | 85° | 91km/h | 12545m | -16.0m/s | -60.6°C | 49.8% | 0hPa | 2.4V | 00:00:00 | 02:18:06 | 00:00:00 | |
| OM5KV | 2026-09-05 04:04:07 | 47.23677 | 12.68874 | 83° | 93km/h | 12577m | -16.0m/s | -60.8°C | 38.8% | 0hPa | 2.4V | 08:21:00 | 00:00:00 | 00:00:00 | |
| OE5HKT-10 | 2026-09-05 04:04:06 | 47.23670 | 12.68806 | 80° | 102km/h | 12609m | -15.6m/s | -61.0°C | 48.0% | 0hPa | 2.4V | 00:00:00 | 00:00:00 | 00:00:00 | |
| BAUMI2-15 | 2026-09-05 04:04:05 | 47.23666 | 12.68773 | 80° | 89km/h | 12624m | -15.5m/s | -61.2°C | 47.6% | 0hPa | 2.5V | 00:00:00 | 02:18:01 | 00:00:00 | |
| IN3HCDX | 2026-09-05 04:04:02 | 47.23657 | 12.68707 | 82° | 88km/h | 12655m | -15.5m/s | -61.5°C | 36.8% | 0hPa | 2.4V | 08:21:00 | 00:00:00 | 00:00:00 | |
| DO3MHA-11 | 2026-09-05 04:04:01 | 47.23650 | 12.68642 | 82° | 95km/h | 12686m | -15.7m/s | -61.7°C | 45.7% | 0hPa | 2.4V | 00:00:00 | 02:17:57 | 00:00:00 | |
| OE5MMP-10 | 2026-09-05 04:04:00 | 47.23646 | 12.68609 | 83° | 95km/h | 12702m | -16.0m/s | -61.8°C | 45.1% | 0hPa | 2.4V | 00:00:00 | 02:17:56 | 00:00:00 | |
| OM5KV | 2026-09-05 04:03:59 | 47.23647 | 12.68609 | 83° | 89km/h | 12702m | -16.1m/s | -61.9°C | 35.2% | 0hPa | 2.4V | 08:21:00 | 00:00:00 | 00:00:00 | |
| PG1ADW-2 | 2026-09-05 04:03:55 | 47.23630 | 12.68438 | 81° | 106km/h | 12780m | -15.5m/s | -62.3°C | 41.5% | 0hPa | 2.4V | 00:00:00 | 00:00:00 | 00:00:00 | |
| OE5DRO-10 | 2026-09-05 04:03:54 | 47.23626 | 12.68402 | 81° | 108km/h | 12796m | -15.1m/s | -62.4°C | 40.6% | 0hPa | 2.4V | 08:21:00 | 00:00:00 | 00:00:00 | |
| OM5KV | 2026-09-05 04:03:53 | 47.23626 | 12.68402 | 81° | 97km/h | 12796m | -15.2m/s | -62.4°C | 31.1% | 0hPa | 2.4V | 08:21:00 | 00:00:00 | 00:00:00 | |
| DG1MFX-10 | 2026-09-05 04:03:52 | 47.23622 | 12.68367 | 81° | 97km/h | 12811m | -14.9m/s | -62.5°C | 30.3% | 0hPa | 2.4V | 08:21:00 | 00:00:00 | 00:00:00 | |
| DO3MHA-11 | 2026-09-05 04:03:51 | 47.23615 | 12.68295 | 83° | 106km/h | 12841m | -15.1m/s | -62.5°C | 37.5% | 0hPa | 2.4V | 00:00:00 | 02:17:47 | 00:00:00 | |
| OE5MMP-10 | 2026-09-05 04:03:50 | 47.23612 | 12.68259 | 84° | 106km/h | 12856m | -15.1m/s | -62.5°C | 36.6% | 0hPa | 2.4V | 00:00:00 | 02:17:46 | 00:00:00 | |
| DB0UT-7 | 2026-09-05 04:03:49 | 47.23609 | 12.68222 | 85° | 117km/h | 12871m | -15.0m/s | -62.6°C | 35.9% | 0hPa | 2.5V | 00:00:00 | 00:00:00 | 00:00:00 | |
| OM5KV | 2026-09-05 04:03:48 | 47.23609 | 12.68222 | 86° | 100km/h | 12871m | -15.1m/s | -62.6°C | 26.9% | 0hPa | 2.5V | 08:21:00 | 00:00:00 | 00:00:00 | |
| OE5DXL-15 | 2026-09-05 04:03:47 | 47.23605 | 12.68146 | 86° | 119km/h | 12901m | -15.5m/s | -62.3°C | 32.6% | 0hPa | 2.5V | 00:00:00 | 00:00:00 | 00:00:00 | |
| BAUMI2-15 | 2026-09-05 04:03:45 | 47.23600 | 12.68067 | 84° | 111km/h | 12931m | -15.1m/s | -62.3°C | 30.7% | 0hPa | 2.5V | 00:00:00 | 02:17:41 | 00:00:00 | |
| NBG1-10 | 2026-09-05 04:03:44 | 47.23597 | 12.68027 | 83° | 119km/h | 12947m | -15.2m/s | -62.2°C | 29.7% | 0hPa | 2.5V | 00:00:00 | 02:17:40 | 00:00:00 | |
| OE5HKT-10 | 2026-09-05 04:03:43 | 47.23593 | 12.67986 | 83° | 119km/h | 12962m | -15.1m/s | -62.0°C | 28.5% | 0hPa | 2.5V | 00:00:00 | 00:00:00 | 00:00:00 | |
| DO3MHA-11 | 2026-09-05 04:03:41 | 47.23587 | 12.67904 | 85° | 117km/h | 12992m | -15.2m/s | -61.6°C | 26.4% | 0hPa | 2.5V | 08:21:00 | 02:17:37 | 00:00:00 | |
| BAUMI2-15 | 2026-09-05 04:03:40 | 47.23585 | 12.67863 | 86° | 117km/h | 13007m | -15.6m/s | -61.6°C | 26.3% | 0hPa | 2.4V | 00:00:00 | 02:17:36 | 00:00:00 | |
| PG1ADW-2 | 2026-09-05 04:03:35 | 47.23575 | 12.67646 | 86° | 120km/h | 13087m | -16.0m/s | -61.4°C | 24.0% | 0hPa | 2.4V | 00:00:00 | 02:17:31 | 00:00:00 | |
| OM5KV | 2026-09-05 04:03:34 | 47.23575 | 12.67646 | 86° | 120km/h | 13087m | -16.0m/s | -61.4°C | 17.2% | 0hPa | 2.4V | 08:22:00 | 00:00:00 | 00:00:00 | |
| DO3MHA-11 | 2026-09-05 04:03:31 | 47.23566 | 12.67469 | 87° | 122km/h | 13149m | -15.3m/s | -61.8°C | 23.8% | 0hPa | 2.4V | 00:00:00 | 02:17:27 | 00:00:00 | |
| BAUMI2-15 | 2026-09-05 04:03:30 | 47.23564 | 12.67425 | 88° | 122km/h | 13164m | -15.4m/s | -61.9°C | 23.6% | 0hPa | 2.4V | 00:00:00 | 02:17:26 | 00:00:00 | |
| OM5KV | 2026-09-05 04:03:29 | 47.23564 | 12.67425 | 89° | 119km/h | 13164m | -15.5m/s | -61.9°C | 16.8% | 0hPa | 2.4V | 08:22:00 | 00:00:00 | 00:00:00 | |
| BAUMI2-15 | 2026-09-05 04:03:25 | 47.23560 | 12.67197 | 88° | 122km/h | 13244m | -16.1m/s | -62.3°C | 22.9% | 0hPa | 2.4V | 00:00:00 | 02:17:21 | 00:00:00 | |
| OM5KV | 2026-09-05 04:03:24 | 47.23561 | 12.67197 | 89° | 124km/h | 13244m | -16.2m/s | -62.3°C | 16.1% | 0hPa | 2.4V | 08:22:00 | 00:00:00 | 00:00:00 | |
| OE5HKT-10 | 2026-09-05 04:03:22 | 47.23558 | 12.67059 | 89° | 119km/h | 13291m | -15.4m/s | -62.3°C | 22.0% | 0hPa | 2.4V | 00:00:00 | 02:17:18 | 00:00:00 | |
| DO3MHA-11 | 2026-09-05 04:03:21 | 47.23557 | 12.67014 | 90° | 120km/h | 13306m | -15.5m/s | -62.3°C | 21.6% | 0hPa | 2.4V | 00:00:00 | 02:17:17 | 00:00:00 | |
| OE5MMP-10 | 2026-09-05 04:03:20 | 47.23557 | 12.66969 | 91° | 119km/h | 13322m | -15.6m/s | -62.4°C | 21.5% | 0hPa | 2.4V | 00:00:00 | 02:17:16 | 00:00:00 | |
| DB0UT-7 | 2026-09-05 04:03:19 | 47.23558 | 12.66925 | 93° | 115km/h | 13337m | -15.7m/s | -62.5°C | 21.3% | 0hPa | 2.4V | 00:00:00 | 02:17:15 | 00:00:00 | |
| DG1MJG | 2026-09-05 04:03:18 | 47.23558 | 12.66925 | 93° | 120km/h | 13337m | -15.7m/s | -62.5°C | 14.7% | 0hPa | 2.4V | 08:22:00 | 00:00:00 | 00:00:00 | |
| OE5DXL-15 | 2026-09-05 04:03:17 | 47.23561 | 12.66836 | 95° | 115km/h | 13369m | -16.0m/s | -62.5°C | 20.6% | 0hPa | 2.4V | 00:00:00 | 00:00:00 | 00:00:00 | |
| OE5DRO-10 | 2026-09-05 04:03:16 | 47.23563 | 12.66791 | 94° | 117km/h | 13384m | -16.1m/s | -62.5°C | 20.4% | 0hPa | 2.4V | 00:00:00 | 00:00:00 | 00:00:00 | |
| PG1ADW-2 | 2026-09-05 04:03:15 | 47.23565 | 12.66746 | 94° | 115km/h | 13400m | -16.0m/s | -62.5°C | 20.2% | 0hPa | 2.4V | 08:21:00 | 00:00:00 | 00:00:00 | |
| OM5KV | 2026-09-05 04:03:13 | 47.23567 | 12.66702 | 94° | 119km/h | 13416m | -16.0m/s | -62.7°C | 13.7% | 0hPa | 2.4V | 08:22:00 | 00:00:00 | 00:00:00 | |
| OE3JTB-15 | 2026-09-05 04:03:12 | 47.23571 | 12.66614 | 94° | 113km/h | 13448m | -15.9m/s | -62.7°C | 20.1% | 0hPa | 2.4V | 00:00:00 | 00:00:00 | 00:00:00 | |
| NBG1-10 | 2026-09-05 04:03:11 | 47.23573 | 12.66572 | 96° | 111km/h | 13464m | -15.8m/s | -62.7°C | 20.0% | 0hPa | 2.4V | 00:00:00 | 02:17:07 | 00:00:00 | |
| DO3MHA-12 | 2026-09-05 04:03:10 | 47.23575 | 12.66529 | 96° | 113km/h | 13479m | -15.9m/s | -62.7°C | 19.8% | 0hPa | 2.4V | 00:00:00 | 02:17:06 | 00:00:00 | |
| OM5KV | 2026-09-05 04:03:08 | 47.23579 | 12.66487 | 98° | 115km/h | 13495m | -16.3m/s | -62.9°C | 13.3% | 0hPa | 2.4V | 08:22:00 | 00:00:00 | 00:00:00 | |
| BAUMI2-15 | 2026-09-05 04:03:05 | 47.23595 | 12.66316 | 97° | 115km/h | 13561m | -16.5m/s | -63.0°C | 18.7% | 0hPa | 2.4V | 00:00:00 | 02:17:01 | 00:00:00 | |
| OM5KV | 2026-09-05 04:03:03 | 47.23598 | 12.66273 | 97° | 117km/h | 13577m | -16.4m/s | -63.1°C | 12.2% | 0hPa | 2.5V | 08:22:00 | 00:00:00 | 00:00:00 | |
| DO3MHA-11 | 2026-09-05 04:03:01 | 47.23608 | 12.66146 | 98° | 113km/h | 13626m | -16.0m/s | -63.3°C | 17.4% | 0hPa | 2.5V | 00:00:00 | 02:16:57 | 00:00:00 | |
| BAUMI2-15 | 2026-09-05 04:03:00 | 47.23611 | 12.66104 | 98° | 113km/h | 13641m | -16.1m/s | -63.4°C | 17.3% | 0hPa | 2.5V | 00:00:00 | 02:16:56 | 00:00:00 | |
| OM5KV | 2026-09-05 04:02:58 | 47.23615 | 12.66063 | 99° | 113km/h | 13657m | -16.7m/s | -63.5°C | 10.9% | 0hPa | 2.5V | 08:22:00 | 00:00:00 | 00:00:00 | |
| OE5DRO-10 | 2026-09-05 04:02:57 | 47.23622 | 12.65979 | 97° | 108km/h | 13690m | -17.0m/s | -63.3°C | 16.3% | 0hPa | 2.5V | 00:00:00 | 00:00:00 | 00:00:00 | |
| PG1ADW-2 | 2026-09-05 04:02:55 | 47.23628 | 12.65895 | 95° | 108km/h | 13724m | -16.5m/s | -63.1°C | 15.4% | 0hPa | 2.5V | 00:00:00 | 00:00:00 | 00:00:00 | |
| BAUMI2-15 | 2026-09-05 04:02:50 | 47.23640 | 12.65691 | 97° | 108km/h | 13805m | -16.4m/s | -63.3°C | 14.9% | 0hPa | 2.5V | 08:22:00 | 02:16:46 | 00:00:00 | |
| DB0UT-7 | 2026-09-05 04:02:49 | 47.23643 | 12.65651 | 97° | 108km/h | 13822m | -16.6m/s | -63.4°C | 14.9% | 0hPa | 2.4V | 00:00:00 | 00:00:00 | 00:00:00 | |
| IN3HCDX1 | 2026-09-05 04:02:48 | 47.23643 | 12.65651 | 98° | 108km/h | 13822m | -16.6m/s | -63.5°C | 8.1% | 0hPa | 2.4V | 00:00:00 | 00:00:00 | 00:00:00 | |
| OE5DXL-15 | 2026-09-05 04:02:47 | 47.23649 | 12.65572 | 96° | 106km/h | 13855m | -17.0m/s | -63.5°C | 14.8% | 0hPa | 2.4V | 00:00:00 | 00:00:00 | 00:00:00 | |
| DO3MHA-11 | 2026-09-05 04:02:46 | 47.23651 | 12.65532 | 94° | 106km/h | 13871m | -17.0m/s | -63.6°C | 14.6% | 0hPa | 2.4V | 00:00:00 | 02:16:42 | 00:00:00 | |
| BAUMI2-15 | 2026-09-05 04:02:45 | 47.23653 | 12.65492 | 93° | 106km/h | 13888m | -16.6m/s | -63.6°C | 14.4% | 0hPa | 2.4V | 00:00:00 | 02:16:41 | 00:00:00 | |
| OE3JTB-15 | 2026-09-05 04:02:43 | 47.23655 | 12.65413 | 91° | 104km/h | 13921m | -16.1m/s | -63.6°C | 13.9% | 0hPa | 2.4V | 00:00:00 | 02:16:39 | 00:00:00 | |
| DO3MHA-12 | 2026-09-05 04:02:42 | 47.23655 | 12.65375 | 91° | 108km/h | 13937m | -16.4m/s | -63.5°C | 13.5% | 0hPa | 2.4V | 00:00:00 | 02:16:38 | 00:00:00 | |
| OE5MMP-10 | 2026-09-05 04:02:40 | 47.23656 | 12.65297 | 92° | 108km/h | 13970m | -16.8m/s | -63.2°C | 12.6% | 0hPa | 2.4V | 00:00:00 | 02:16:36 | 00:00:00 | |
| IN3HCDX | 2026-09-05 04:02:39 | 47.23656 | 12.65297 | 92° | 104km/h | 13970m | -16.9m/s | -63.3°C | 6.9% | 0hPa | 2.4V | 08:23:00 | 00:00:00 | 00:00:00 | |
| NBG1-10 | 2026-09-05 04:02:38 | 47.23658 | 12.65219 | 92° | 100km/h | 14003m | -17.5m/s | -62.8°C | 11.7% | 0hPa | 2.4V | 08:22:00 | 02:16:34 | 00:00:00 | |
| DB0NH | 2026-09-05 04:02:37 | 47.23658 | 12.65179 | 91° | 100km/h | 14021m | -17.3m/s | -62.8°C | 11.4% | 0hPa | 2.4V | 00:00:00 | 02:16:33 | 00:00:00 | |
| PG1ADW-2 | 2026-09-05 04:02:35 | 47.23658 | 12.65097 | 90° | 104km/h | 14055m | -17.0m/s | -62.7°C | 11.4% | 0hPa | 2.4V | 00:00:00 | 00:00:00 | 00:00:00 | |
| DO3MHA-12 | 2026-09-05 04:02:32 | 47.23659 | 12.64976 | 93° | 106km/h | 14106m | -17.0m/s | -61.0°C | 9.6% | 0hPa | 2.4V | 00:00:00 | 02:16:28 | 00:00:00 | |
| OE5MMP-10 | 2026-09-05 04:02:30 | 47.23662 | 12.64895 | 95° | 104km/h | 14140m | -17.6m/s | -60.5°C | 9.3% | 0hPa | 2.4V | 00:00:00 | 02:16:26 | 00:00:00 | |
| OM5KV | 2026-09-05 04:02:28 | 47.23664 | 12.64854 | 95° | 111km/h | 14157m | -17.9m/s | -60.4°C | 4.7% | 0hPa | 2.4V | 08:23:00 | 00:00:00 | 00:00:00 | |
| OM5KV | 2026-09-05 04:02:27 | 47.23666 | 12.64813 | 94° | 110km/h | 14175m | -17.8m/s | -59.8°C | 4.5% | 0hPa | 2.4V | 08:23:00 | 00:00:00 | 00:00:00 | |
| DO3MHA-11 | 2026-09-05 04:02:26 | 47.23668 | 12.64733 | 92° | 100km/h | 14210m | -17.4m/s | -59.3°C | 8.2% | 0hPa | 2.4V | 00:00:00 | 02:16:22 | 00:00:00 | |
| DO3MHA-12 | 2026-09-05 04:02:22 | 47.23672 | 12.64582 | 93° | 95km/h | 14279m | -17.3m/s | -59.3°C | 8.3% | 0hPa | 2.4V | 00:00:00 | 02:16:18 | 00:00:00 | |
| OM5KV | 2026-09-05 04:02:21 | 47.23672 | 12.64582 | 94° | 99km/h | 14279m | -17.3m/s | -59.4°C | 4.2% | 0hPa | 2.4V | 08:23:00 | 00:00:00 | 00:00:00 | |
| OE5MMP-10 | 2026-09-05 04:02:20 | 47.23675 | 12.64509 | 94° | 95km/h | 14313m | -17.8m/s | -58.7°C | 7.8% | 0hPa | 2.4V | 00:00:00 | 02:16:16 | 00:00:00 | |
| OE5HKT-10 | 2026-09-05 04:02:19 | 47.23676 | 12.64473 | 92° | 91km/h | 14331m | -17.9m/s | -58.7°C | 7.8% | 0hPa | 2.5V | 00:00:00 | 02:16:15 | 00:00:00 | |
| IN3HCDX | 2026-09-05 04:02:18 | 47.23676 | 12.64473 | 93° | 99km/h | 14331m | -17.9m/s | -58.8°C | 4.0% | 0hPa | 2.5V | 08:23:00 | 00:00:00 | 00:00:00 | |
| OE5DXL-15 | 2026-09-05 04:02:17 | 47.23676 | 12.64400 | 88° | 88km/h | 14367m | -17.9m/s | -58.2°C | 7.4% | 0hPa | 2.5V | 00:00:00 | 00:00:00 | 00:00:00 | |
| DO3MHA-11 | 2026-09-05 04:02:16 | 47.23675 | 12.64366 | 89° | 91km/h | 14384m | -18.0m/s | -58.1°C | 7.4% | 0hPa | 2.5V | 00:00:00 | 02:16:12 | 00:00:00 | |
| PG1ADW-2 | 2026-09-05 04:02:15 | 47.23675 | 12.64332 | 91° | 89km/h | 14402m | -18.1m/s | -58.0°C | 7.3% | 0hPa | 2.5V | 00:00:00 | 02:16:11 | 00:00:00 | |
| OE3JTB-15 | 2026-09-05 04:02:14 | 47.23675 | 12.64299 | 91° | 86km/h | 14420m | -18.5m/s | -57.8°C | 7.2% | 0hPa | 2.5V | 00:00:00 | 00:00:00 | 00:00:00 | |
| DO3MHA-12 | 2026-09-05 04:02:12 | 47.23676 | 12.64231 | 91° | 91km/h | 14457m | -19.3m/s | -57.6°C | 7.0% | 0hPa | 2.5V | 00:00:00 | 02:16:08 | 00:00:00 | |
| S52SK | 2026-09-05 04:02:11 | 47.23676 | 12.64231 | 92° | 93km/h | 14457m | -19.3m/s | -57.7°C | 3.5% | 0hPa | 2.5V | 08:23:00 | 00:00:00 | 00:00:00 | |
| OE5MMP-10 | 2026-09-05 04:02:10 | 47.23677 | 12.64161 | 89° | 91km/h | 14495m | -18.9m/s | -57.6°C | 7.0% | 0hPa | 2.5V | 00:00:00 | 02:16:06 | 00:00:00 | |
| DG1MFX-10 | 2026-09-05 04:02:09 | 47.23677 | 12.64161 | 90° | 93km/h | 14495m | -19.0m/s | -57.7°C | 3.6% | 0hPa | 2.5V | 08:23:00 | 00:00:00 | 00:00:00 | |
| DB0NH | 2026-09-05 04:02:06 | 47.23676 | 12.64025 | 91° | 80km/h | 14569m | -18.1m/s | -58.1°C | 7.1% | 0hPa | 2.5V | 00:00:00 | 02:16:02 | 00:00:00 | |
| NBG1-10 | 2026-09-05 04:02:05 | 47.23676 | 12.63992 | 92° | 80km/h | 14587m | -18.2m/s | -58.2°C | 7.2% | 0hPa | 2.5V | 00:00:00 | 02:16:01 | 00:00:00 | |
| OM5KV | 2026-09-05 04:02:03 | 47.23676 | 12.63959 | 93° | 89km/h | 14604m | -18.4m/s | -58.3°C | 3.6% | 0hPa | 2.5V | 08:23:00 | 00:00:00 | 00:00:00 | |
| OM5KV | 2026-09-05 04:02:01 | 47.23679 | 12.63893 | 94° | 89km/h | 14640m | -19.0m/s | -58.3°C | 3.6% | 0hPa | 2.5V | 08:23:00 | 00:00:00 | 00:00:00 | |
| OE5MMP-10 | 2026-09-05 04:02:00 | 47.23681 | 12.63827 | 93° | 84km/h | 14678m | -19.0m/s | -58.1°C | 7.1% | 0hPa | 2.5V | 00:00:00 | 02:15:56 | 00:00:00 | |
| OE5HKT-10 | 2026-09-05 04:01:58 | 47.23683 | 12.63764 | 92° | 78km/h | 14715m | -18.4m/s | -58.1°C | 7.0% | 0hPa | 2.5V | 08:23:00 | 00:00:00 | 00:00:00 | |
| IN3HCDX | 2026-09-05 04:01:57 | 47.23684 | 12.63764 | 93° | 84km/h | 14715m | -18.4m/s | -58.2°C | 3.5% | 0hPa | 2.4V | 00:00:00 | 00:00:00 | 00:00:00 | |
| DO3MHA-11 | 2026-09-05 04:01:56 | 47.23687 | 12.63702 | 97° | 82km/h | 14752m | -18.7m/s | -58.4°C | 7.3% | 0hPa | 2.4V | 00:00:00 | 02:15:52 | 00:00:00 | |
| PG1ADW-2 | 2026-09-05 04:01:55 | 47.23690 | 12.63671 | 99° | 78km/h | 14771m | -18.9m/s | -58.4°C | 7.3% | 0hPa | 2.4V | 00:00:00 | 00:00:00 | 00:00:00 | |
| DO3MHA-12 | 2026-09-05 04:01:52 | 47.23699 | 12.63579 | 98° | 80km/h | 14828m | -19.5m/s | -58.4°C | 7.2% | 0hPa | 2.4V | 00:00:00 | 02:15:48 | 00:00:00 | |
| OM5KV | 2026-09-05 04:01:51 | 47.23699 | 12.63579 | 99° | 84km/h | 14828m | -19.6m/s | -58.4°C | 3.5% | 0hPa | 2.4V | 08:23:00 | 00:00:00 | 00:00:00 | |
| OE5MMP-10 | 2026-09-05 04:01:50 | 47.23706 | 12.63519 | 99° | 78km/h | 14867m | -19.0m/s | -58.5°C | 7.2% | 0hPa | 2.4V | 00:00:00 | 02:15:46 | 00:00:00 | |
| DB0UT-7 | 2026-09-05 04:01:49 | 47.23709 | 12.63489 | 99° | 69km/h | 14886m | -18.7m/s | -58.7°C | 7.3% | 0hPa | 2.5V | 00:00:00 | 00:00:00 | 00:00:00 | |
| OE5DXL-15 | 2026-09-05 04:01:47 | 47.23717 | 12.63432 | 103° | 69km/h | 14923m | -18.7m/s | -58.9°C | 7.3% | 0hPa | 2.5V | 00:00:00 | 00:00:00 | 00:00:00 | |
| DO3MHA-11 | 2026-09-05 04:01:46 | 47.23721 | 12.63404 | 105° | 75km/h | 14942m | -19.0m/s | -59.1°C | 7.3% | 0hPa | 2.5V | 00:00:00 | 02:15:42 | 00:00:00 | |
| OE3JTB-15 | 2026-09-05 04:01:45 | 47.23727 | 12.63375 | 106° | 68km/h | 14960m | -19.4m/s | -59.2°C | 7.4% | 0hPa | 2.5V | 00:00:00 | 00:00:00 | 00:00:00 | |
| DO3MHA-12 | 2026-09-05 04:01:42 | 47.23741 | 12.63292 | 105° | 69km/h | 15019m | -19.2m/s | -59.0°C | 7.2% | 0hPa | 2.5V | 00:00:00 | 02:15:38 | 00:00:00 | |
| OE5DRO-10 | 2026-09-05 04:01:41 | 47.23745 | 12.63265 | 105° | 68km/h | 15039m | -19.2m/s | -58.8°C | 7.0% | 0hPa | 2.5V | 00:00:00 | 00:00:00 | 00:00:00 | |
| OE5MMP-10 | 2026-09-05 04:01:40 | 47.23750 | 12.63238 | 107° | 69km/h | 15058m | -19.0m/s | -58.6°C | 6.9% | 0hPa | 2.5V | 00:00:00 | 02:15:36 | 00:00:00 | |
| OM5KV | 2026-09-05 04:01:39 | 47.23750 | 12.63238 | 108° | 73km/h | 15058m | -19.1m/s | -58.7°C | 3.4% | 0hPa | 2.5V | 08:23:00 | 00:00:00 | 00:00:00 | |
| OE5HKT-10 | 2026-09-05 04:01:37 | 47.23766 | 12.63162 | 108° | 71km/h | 15115m | -20.5m/s | -58.3°C | 6.6% | 0hPa | 2.5V | 00:00:00 | 00:00:00 | 00:00:00 | |
| DB0NH | 2026-09-05 04:01:36 | 47.23771 | 12.63136 | 105° | 66km/h | 15135m | -20.8m/s | -58.4°C | 6.6% | 0hPa | 2.5V | 00:00:00 | 02:15:32 | 00:00:00 | |
| PG1ADW-2 | 2026-09-05 04:01:35 | 47.23776 | 12.63111 | 103° | 66km/h | 15156m | -20.3m/s | -58.5°C | 6.6% | 0hPa | 2.5V | 00:00:00 | 00:00:00 | 00:00:00 | |
| OM5KV | 2026-09-05 04:01:34 | 47.23776 | 12.63111 | 104° | 71km/h | 15156m | -20.4m/s | -58.6°C | 3.1% | 0hPa | 2.5V | 08:23:00 | 00:00:00 | 00:00:00 | |
| OE8JPQ-2 | 2026-09-05 04:01:33 | 47.23783 | 12.63060 | 100° | 71km/h | 15197m | -19.6m/s | -58.6°C | 6.6% | 0hPa | 2.5V | 00:00:00 | 00:00:00 | 00:00:00 | |
| NBG1-10 | 2026-09-05 04:01:32 | 47.23786 | 12.63035 | 99° | 68km/h | 15217m | -19.1m/s | -58.8°C | 6.7% | 0hPa | 2.5V | 00:00:00 | 02:15:28 | 00:00:00 | |
| DO3MHA-12 | 2026-09-05 04:01:30 | 47.23790 | 12.62987 | 98° | 64km/h | 15255m | -19.4m/s | -59.0°C | 6.8% | 0hPa | 2.5V | 08:23:00 | 02:15:26 | 00:00:00 | |
| DG1MFX-10 | 2026-09-05 04:01:29 | 47.23790 | 12.62987 | 98° | 64km/h | 15255m | -19.4m/s | -59.1°C | 3.3% | 0hPa | 2.4V | 08:23:00 | 00:00:00 | 00:00:00 | |
| OM5KV | 2026-09-05 04:01:28 | 47.23792 | 12.62963 | 100° | 64km/h | 15275m | -19.2m/s | -59.2°C | 3.3% | 0hPa | 2.4V | 08:23:00 | 00:00:00 | 00:00:00 | |
| DO3MHA-11 | 2026-09-05 04:01:26 | 47.23798 | 12.62892 | 93° | 64km/h | 15332m | -19.9m/s | -59.4°C | 7.0% | 0hPa | 2.4V | 00:00:00 | 02:15:22 | 00:00:00 | |
| OE5DRO-10 | 2026-09-05 04:01:22 | 47.23795 | 12.62799 | 84° | 68km/h | 15411m | -19.5m/s | -59.6°C | 6.9% | 0hPa | 2.4V | 00:00:00 | 00:00:00 | 00:00:00 | |
| OE5MMP-10 | 2026-09-05 04:01:20 | 47.23793 | 12.62754 | 86° | 66km/h | 15450m | -19.7m/s | -59.9°C | 7.0% | 0hPa | 2.4V | 08:23:00 | 02:15:16 | 00:00:00 | |
| DB0UT-7 | 2026-09-05 04:01:19 | 47.23791 | 12.62730 | 86° | 71km/h | 15470m | -20.0m/s | -60.0°C | 7.0% | 0hPa | 2.5V | 00:00:00 | 02:15:15 | 00:00:00 | |
| OE5DXL-15 | 2026-09-05 04:01:17 | 47.23787 | 12.62682 | 81° | 71km/h | 15510m | -19.8m/s | -60.1°C | 7.0% | 0hPa | 2.4V | 00:00:00 | 00:00:00 | 00:00:00 | |
| DO3MHA-11 | 2026-09-05 04:01:16 | 47.23785 | 12.62658 | 81° | 68km/h | 15530m | -19.8m/s | -60.2°C | 7.1% | 0hPa | 2.4V | 00:00:00 | 02:15:12 | 00:00:00 | |
| PG1ADW-2 | 2026-09-05 04:01:15 | 47.23782 | 12.62634 | 79° | 71km/h | 15550m | -19.3m/s | -60.4°C | 7.1% | 0hPa | 2.4V | 00:00:00 | 00:00:00 | 00:00:00 | |
| OM5KV | 2026-09-05 04:01:11 | 47.23775 | 12.62564 | 83° | 66km/h | 15608m | -19.9m/s | -60.7°C | 3.2% | 0hPa | 2.4V | 08:24:00 | 00:00:00 | 00:00:00 | |
| OE5MMP-10 | 2026-09-05 04:01:10 | 47.23770 | 12.62513 | 81° | 73km/h | 15647m | -20.5m/s | -60.8°C | 7.2% | 0hPa | 2.4V | 00:00:00 | 02:15:06 | 00:00:00 | |
| DO3MHA-12 | 2026-09-05 04:01:09 | 47.23767 | 12.62487 | 82° | 73km/h | 15668m | -20.1m/s | -60.6°C | 7.1% | 0hPa | 2.4V | 00:00:00 | 02:15:05 | 00:00:00 | |
| DB0NH | 2026-09-05 04:01:06 | 47.23759 | 12.62409 | 81° | 69km/h | 15728m | -19.9m/s | -60.3°C | 6.8% | 0hPa | 2.4V | 08:24:00 | 02:15:02 | 00:00:00 | |
| OE5DRO-10 | 2026-09-05 04:01:03 | 47.23752 | 12.62330 | 85° | 71km/h | 15788m | -20.7m/s | -60.6°C | 6.9% | 0hPa | 2.5V | 08:24:00 | 00:00:00 | 00:00:00 | |
| OE5MMP-10 | 2026-09-05 04:01:00 | 47.23745 | 12.62247 | 82° | 73km/h | 15849m | -20.4m/s | -60.9°C | 7.0% | 0hPa | 2.4V | 00:00:00 | 02:14:56 | 00:00:00 | |
| DO3MHA-12 | 2026-09-05 04:00:59 | 47.23742 | 12.62220 | 82° | 71km/h | 15870m | -20.3m/s | -61.1°C | 7.1% | 0hPa | 2.4V | 00:00:00 | 02:14:55 | 00:00:00 | |
| OM5KV | 2026-09-05 04:00:57 | 47.23739 | 12.62192 | 82° | 75km/h | 15890m | -20.1m/s | -61.3°C | 3.1% | 0hPa | 2.4V | 08:24:00 | 00:00:00 | 00:00:00 | |
| DO3MHA-11 | 2026-09-05 04:00:56 | 47.23735 | 12.62140 | 84° | 71km/h | 15929m | -20.3m/s | -61.5°C | 7.2% | 0hPa | 2.4V | 00:00:00 | 02:14:52 | 00:00:00 | |
| PG1ADW-2 | 2026-09-05 04:00:55 | 47.23733 | 12.62113 | 85° | 68km/h | 15949m | -20.2m/s | -61.6°C | 7.3% | 0hPa | 2.4V | 00:00:00 | 02:14:51 | 00:00:00 | |
| OM5KV | 2026-09-05 04:00:54 | 47.23733 | 12.62113 | 85° | 71km/h | 15949m | -20.3m/s | -61.7°C | 3.2% | 0hPa | 2.4V | 08:24:00 | 00:00:00 | 00:00:00 | |
| OE5HKT-10 | 2026-09-05 04:00:53 | 47.23730 | 12.62061 | 89° | 66km/h | 15989m | -20.2m/s | -61.9°C | 7.5% | 0hPa | 2.4V | 00:00:00 | 02:14:49 | 00:00:00 | |
| S52SK | 2026-09-05 04:00:51 | 47.23730 | 12.62034 | 90° | 71km/h | 16009m | -20.5m/s | -62.1°C | 3.2% | 0hPa | 2.4V | 00:00:00 | 00:00:00 | 00:00:00 | |
| OE5MMP-10 | 2026-09-05 04:00:50 | 47.23729 | 12.61981 | 90° | 68km/h | 16050m | -19.8m/s | -62.2°C | 7.6% | 0hPa | 2.4V | 00:00:00 | 02:14:46 | 00:00:00 | |
| DB0UT-7 | 2026-09-05 04:00:49 | 47.23729 | 12.61954 | 91° | 66km/h | 16070m | -19.6m/s | -62.1°C | 7.6% | 0hPa | 2.5V | 00:00:00 | 00:00:00 | 00:00:00 | |
| DG1MFX-10 | 2026-09-05 04:00:48 | 47.23729 | 12.61954 | 91° | 71km/h | 16070m | -19.6m/s | -62.2°C | 3.2% | 0hPa | 2.5V | 08:24:00 | 00:00:00 | 00:00:00 | |
| OE5DXL-15 | 2026-09-05 04:00:47 | 47.23730 | 12.61903 | 94° | 66km/h | 16108m | -19.7m/s | -61.9°C | 7.4% | 0hPa | 2.5V | 00:00:00 | 00:00:00 | 00:00:00 | |
| DO3MHA-11 | 2026-09-05 04:00:46 | 47.23732 | 12.61878 | 97° | 64km/h | 16128m | -20.2m/s | -61.8°C | 7.3% | 0hPa | 2.5V | 00:00:00 | 02:14:42 | 00:00:00 | |
| DG1MJG | 2026-09-05 04:00:45 | 47.23732 | 12.61878 | 98° | 68km/h | 16128m | -20.3m/s | -61.9°C | 3.1% | 0hPa | 2.5V | 08:24:00 | 00:00:00 | 00:00:00 | |
| OE5DRO-10 | 2026-09-05 04:00:44 | 47.23737 | 12.61828 | 98° | 64km/h | 16169m | -21.0m/s | -62.0°C | 7.3% | 0hPa | 2.5V | 00:00:00 | 00:00:00 | 00:00:00 | |
| OE5MMP-10 | 2026-09-05 04:00:40 | 47.23745 | 12.61732 | 97° | 62km/h | 16252m | -20.4m/s | -62.1°C | 7.5% | 0hPa | 2.5V | 00:00:00 | 02:14:36 | 00:00:00 | |
| OE8JPQ-2 | 2026-09-05 04:00:39 | 47.23747 | 12.61709 | 99° | 66km/h | 16272m | -20.2m/s | -61.9°C | 7.4% | 0hPa | 2.5V | 00:00:00 | 00:00:00 | 00:00:00 | |
| OM5KV | 2026-09-05 04:00:37 | 47.23749 | 12.61686 | 100° | 62km/h | 16292m | -20.3m/s | -61.8°C | 2.9% | 0hPa | 2.5V | 08:24:00 | 00:00:00 | 00:00:00 | |
| DB0NH | 2026-09-05 04:00:36 | 47.23755 | 12.61641 | 100° | 68km/h | 16332m | -20.9m/s | -61.5°C | 7.1% | 0hPa | 2.5V | 00:00:00 | 02:14:32 | 00:00:00 | |
| PG1ADW-2 | 2026-09-05 04:00:35 | 47.23757 | 12.61618 | 97° | 68km/h | 16353m | -21.1m/s | -61.5°C | 7.0% | 0hPa | 2.5V | 00:00:00 | 00:00:00 | 00:00:00 | |
| OE5REO-15 | 2026-09-05 04:00:34 | 47.23757 | 12.61618 | 97° | 64km/h | 16353m | -21.2m/s | -61.5°C | 2.8% | 0hPa | 2.5V | 08:24:00 | 00:00:00 | 00:00:00 | |
| OE5HKT-10 | 2026-09-05 04:00:32 | 47.23759 | 12.61549 | 93° | 69km/h | 16415m | -20.8m/s | -61.3°C | 6.9% | 0hPa | 2.5V | 00:00:00 | 00:00:00 | 00:00:00 | |
| OM5KV | 2026-09-05 04:00:31 | 47.23759 | 12.61549 | 94° | 60km/h | 16415m | -20.8m/s | -61.3°C | 2.8% | 0hPa | 2.4V | 08:24:00 | 00:00:00 | 00:00:00 | |
| OE5MMP-10 | 2026-09-05 04:00:30 | 47.23761 | 12.61503 | 96° | 69km/h | 16457m | -20.6m/s | -61.4°C | 7.1% | 0hPa | 2.4V | 00:00:00 | 02:14:26 | 00:00:00 | |
| DO3MHA-12 | 2026-09-05 04:00:29 | 47.23763 | 12.61480 | 98° | 69km/h | 16478m | -20.8m/s | -61.4°C | 7.1% | 0hPa | 2.4V | 00:00:00 | 02:14:25 | 00:00:00 | |
| DG1MFX-10 | 2026-09-05 04:00:27 | 47.23765 | 12.61456 | 98° | 68km/h | 16499m | -21.0m/s | -61.4°C | 2.8% | 0hPa | 2.4V | 08:24:00 | 00:00:00 | 00:00:00 | |
| NBG1-10 | 2026-09-05 04:00:26 | 47.23768 | 12.61405 | 96° | 60km/h | 16541m | -21.5m/s | -61.4°C | 7.3% | 0hPa | 2.4V | 00:00:00 | 02:14:22 | 00:00:00 | |
| BAUMI2-15 | 2026-09-05 04:00:25 | 47.23770 | 12.61380 | 96° | 71km/h | 16563m | -21.6m/s | -61.4°C | 7.3% | 0hPa | 2.4V | 00:00:00 | 02:14:21 | 00:00:00 | |
| OE5MMP-10 | 2026-09-05 04:00:20 | 47.23783 | 12.61248 | 99° | 71km/h | 16669m | -21.7m/s | -61.1°C | 7.2% | 0hPa | 2.4V | 00:00:00 | 02:14:16 | 00:00:00 | |
| OE8JPQ-2 | 2026-09-05 04:00:19 | 47.23785 | 12.61221 | 98° | 60km/h | 16690m | -22.0m/s | -61.1°C | 7.1% | 0hPa | 2.5V | 00:00:00 | 00:00:00 | 00:00:00 | |
| OE3JTB-15 | 2026-09-05 04:00:18 | 47.23788 | 12.61193 | 96° | 53km/h | 16712m | -21.5m/s | -61.1°C | 7.1% | 0hPa | 2.5V | 00:00:00 | 00:00:00 | 00:00:00 | |
| OE5DXL-15 | 2026-09-05 04:00:17 | 47.23790 | 12.61166 | 98° | 51km/h | 16733m | -21.0m/s | -61.2°C | 7.2% | 0hPa | 2.5V | 00:00:00 | 00:00:00 | 00:00:00 | |
| DO3MHA-11 | 2026-09-05 04:00:16 | 47.23793 | 12.61139 | 98° | 64km/h | 16754m | -20.5m/s | -61.3°C | 7.2% | 0hPa | 2.5V | 00:00:00 | 02:14:12 | 00:00:00 | |
| PG1ADW-2 | 2026-09-05 04:00:15 | 47.23795 | 12.61113 | 99° | 58km/h | 16774m | -20.6m/s | -61.5°C | 7.4% | 0hPa | 2.5V | 08:24:00 | 00:00:00 | 00:00:00 | |
| DG1MJG | 2026-09-05 04:00:14 | 47.23795 | 12.61113 | 100° | 71km/h | 16774m | -20.6m/s | -61.5°C | 2.7% | 0hPa | 2.4V | 08:25:00 | 00:00:00 | 00:00:00 | |
| OM5KV | 2026-09-05 04:00:13 | 47.23798 | 12.61088 | 102° | 68km/h | 16794m | -20.7m/s | -61.6°C | 2.8% | 0hPa | 2.4V | 08:25:00 | 00:00:00 | 00:00:00 | |
| OE5HKT-10 | 2026-09-05 04:00:11 | 47.23812 | 12.61017 | 109° | 47km/h | 16857m | -21.6m/s | -60.5°C | 7.0% | 0hPa | 2.4V | 00:00:00 | 00:00:00 | 00:00:00 | |
| BAUMI2-15 | 2026-09-05 04:00:10 | 47.23817 | 12.60995 | 108° | 57km/h | 16878m | -21.6m/s | -59.9°C | 6.8% | 0hPa | 2.4V | 00:00:00 | 02:14:06 | 00:00:00 | |
| DO3MHA-12 | 2026-09-05 04:00:09 | 47.23822 | 12.60974 | 109° | 51km/h | 16900m | -21.3m/s | -59.5°C | 6.5% | 0hPa | 2.4V | 00:00:00 | 02:14:05 | 00:00:00 | |
| OM5KV | 2026-09-05 04:00:07 | 47.23827 | 12.60954 | 109° | 57km/h | 16921m | -21.1m/s | -58.7°C | 2.2% | 0hPa | 2.4V | 08:25:00 | 00:00:00 | 00:00:00 | |
| DB0NH | 2026-09-05 04:00:06 | 47.23838 | 12.60916 | 115° | 37km/h | 16963m | -21.8m/s | -57.7°C | 5.5% | 0hPa | 2.4V | 00:00:00 | 02:14:02 | 00:00:00 | |
| BAUMI2-15 | 2026-09-05 04:00:05 | 47.23843 | 12.60898 | 115° | 51km/h | 16984m | -22.4m/s | -57.5°C | 5.4% | 0hPa | 2.4V | 08:25:00 | 02:14:01 | 00:00:00 | |
| OE5REO-15 | 2026-09-05 04:00:02 | 47.23854 | 12.60862 | 109° | 51km/h | 17028m | -22.0m/s | -56.8°C | 1.8% | 0hPa | 2.5V | 08:25:00 | 00:00:00 | 00:00:00 | |
| OM5KV | 2026-09-05 04:00:01 | 47.23857 | 12.60844 | 105° | 47km/h | 17051m | -21.8m/s | -56.7°C | 1.9% | 0hPa | 2.5V | 08:25:00 | 00:00:00 | 00:00:00 | |
| OE5MMP-10 | 2026-09-05 04:00:00 | 47.23862 | 12.60811 | 102° | 42km/h | 17093m | -21.3m/s | -56.4°C | 5.0% | 0hPa | 2.5V | 00:00:00 | 02:13:56 | 00:00:00 | |
| DO3MHA-12 | 2026-09-05 03:59:59 | 47.23864 | 12.60795 | 101° | 40km/h | 17114m | -21.5m/s | -56.4°C | 4.9% | 0hPa | 2.5V | 08:25:00 | 02:13:55 | 00:00:00 | |
| DO3MHA-11 | 2026-09-05 03:59:56 | 47.23867 | 12.60749 | 88° | 40km/h | 17179m | -22.5m/s | -56.4°C | 4.9% | 0hPa | 2.4V | 00:00:00 | 02:13:52 | 00:00:00 | |
| PG1ADW-2 | 2026-09-05 03:59:55 | 47.23867 | 12.60733 | 82° | 40km/h | 17201m | -22.3m/s | -56.5°C | 4.9% | 0hPa | 2.4V | 00:00:00 | 00:00:00 | 00:00:00 | |
| NBG1-10 | 2026-09-05 03:59:53 | 47.23863 | 12.60703 | 74° | 42km/h | 17245m | -21.4m/s | -56.8°C | 5.0% | 0hPa | 2.4V | 00:00:00 | 02:13:49 | 00:00:00 | |
| IN3HCDX | 2026-09-05 03:59:52 | 47.23863 | 12.60703 | 75° | 40km/h | 17245m | -21.4m/s | -56.8°C | 1.8% | 0hPa | 2.4V | 00:00:00 | 00:00:00 | 00:00:00 | |
| OE5HKT-10 | 2026-09-05 03:59:50 | 47.23854 | 12.60662 | 73° | 44km/h | 17309m | -21.5m/s | -57.1°C | 5.1% | 0hPa | 2.4V | 00:00:00 | 02:13:46 | 00:00:00 | |
| DB0UT-7 | 2026-09-05 03:59:49 | 47.23851 | 12.60648 | 76° | 42km/h | 17330m | -22.2m/s | -57.2°C | 5.1% | 0hPa | 2.4V | 08:25:00 | 00:00:00 | 00:00:00 | |
| OE5DXL-15 | 2026-09-05 03:59:47 | 47.23845 | 12.60619 | 70° | 40km/h | 17374m | -22.4m/s | -57.3°C | 5.3% | 0hPa | 2.4V | 08:25:00 | 00:00:00 | 00:00:00 | |
| DG1MFX-10 | 2026-09-05 03:59:46 | 47.23845 | 12.60619 | 71° | 42km/h | 17374m | -22.5m/s | -57.3°C | 1.9% | 0hPa | 2.5V | 08:25:00 | 00:00:00 | 00:00:00 | |
| BAUMI2-15 | 2026-09-05 03:59:45 | 47.23837 | 12.60590 | 72° | 42km/h | 17418m | -22.7m/s | -56.9°C | 5.1% | 0hPa | 2.5V | 00:00:00 | 02:13:41 | 00:00:00 | |
| DG1MJG | 2026-09-05 03:59:43 | 47.23834 | 12.60576 | 83° | 38km/h | 17441m | -22.5m/s | -56.8°C | 1.8% | 0hPa | 2.5V | 08:25:00 | 00:00:00 | 00:00:00 | |
| BAUMI2-15 | 2026-09-05 03:59:40 | 47.23834 | 12.60513 | 95° | 42km/h | 17533m | -23.1m/s | -56.6°C | 5.0% | 0hPa | 2.5V | 00:00:00 | 02:13:36 | 00:00:00 | |
| DO3MHA-12 | 2026-09-05 03:59:39 | 47.23835 | 12.60497 | 96° | 46km/h | 17556m | -22.7m/s | -56.7°C | 5.0% | 0hPa | 2.5V | 00:00:00 | 02:13:35 | 00:00:00 | |
| OM5KV | 2026-09-05 03:59:37 | 47.23837 | 12.60481 | 100° | 42km/h | 17579m | -22.7m/s | -56.9°C | 1.8% | 0hPa | 2.5V | 08:25:00 | 00:00:00 | 00:00:00 | |
| DO3MHA-11 | 2026-09-05 03:59:36 | 47.23842 | 12.60450 | 106° | 46km/h | 17624m | -22.3m/s | -57.1°C | 5.1% | 0hPa | 2.5V | 00:00:00 | 02:13:32 | 00:00:00 | |
| BAUMI2-15 | 2026-09-05 03:59:35 | 47.23845 | 12.60434 | 110° | 47km/h | 17646m | -22.1m/s | -57.2°C | 5.2% | 0hPa | 2.5V | 00:00:00 | 02:13:31 | 00:00:00 | |
| OM5KV | 2026-09-05 03:59:32 | 47.23855 | 12.60402 | 115° | 49km/h | 17691m | -22.6m/s | -57.5°C | 1.9% | 0hPa | 2.4V | 08:25:00 | 00:00:00 | 00:00:00 | |
| OE5REO-15 | 2026-09-05 03:59:31 | 47.23860 | 12.60386 | 116° | 47km/h | 17713m | -22.6m/s | -57.3°C | 1.8% | 0hPa | 2.4V | 08:25:00 | 00:00:00 | 00:00:00 | |
| BAUMI2-15 | 2026-09-05 03:59:30 | 47.23871 | 12.60354 | 119° | 44km/h | 17758m | -22.5m/s | -57.1°C | 5.1% | 0hPa | 2.4V | 00:00:00 | 02:13:26 | 00:00:00 | |
| OE5HKT-10 | 2026-09-05 03:59:29 | 47.23876 | 12.60339 | 118° | 35km/h | 17779m | -22.5m/s | -57.1°C | 5.2% | 0hPa | 2.4V | 00:00:00 | 00:00:00 | 00:00:00 | |
| OE5DRO-10 | 2026-09-05 03:59:28 | 47.23882 | 12.60325 | 123° | 35km/h | 17802m | -22.9m/s | -57.0°C | 5.1% | 0hPa | 2.5V | 00:00:00 | 00:00:00 | 00:00:00 | |
| DO3MHA-11 | 2026-09-05 03:59:26 | 47.23894 | 12.60299 | 123° | 33km/h | 17848m | -23.4m/s | -56.3°C | 4.8% | 0hPa | 2.5V | 00:00:00 | 02:13:22 | 00:00:00 | |
| BAUMI2-15 | 2026-09-05 03:59:25 | 47.23899 | 12.60288 | 120° | 33km/h | 17872m | -23.2m/s | -56.3°C | 4.8% | 0hPa | 2.5V | 00:00:00 | 02:13:21 | 00:00:00 | |
| PG1ADW-2 | 2026-09-05 03:59:24 | 47.23903 | 12.60276 | 118° | 38km/h | 17896m | -23.0m/s | -56.3°C | 4.8% | 0hPa | 2.5V | 00:00:00 | 02:13:20 | 00:00:00 | |
| S52SK | 2026-09-05 03:59:23 | 47.23903 | 12.60276 | 118° | 31km/h | 17896m | -23.0m/s | -56.4°C | 1.6% | 0hPa | 2.5V | 00:00:00 | 00:00:00 | 00:00:00 | |
| NBG1-10 | 2026-09-05 03:59:20 | 47.23919 | 12.60237 | 110° | 33km/h | 17991m | -24.5m/s | -56.6°C | 4.9% | 0hPa | 2.5V | 00:00:00 | 02:13:16 | 00:00:00 | |
| DB0UT-7 | 2026-09-05 03:59:19 | 47.23923 | 12.60226 | 105° | 33km/h | 18016m | -24.0m/s | -56.7°C | 4.9% | 0hPa | 2.5V | 00:00:00 | 02:13:15 | 00:00:00 | |
| OE5DXL-15 | 2026-09-05 03:59:17 | 47.23926 | 12.60203 | 97° | 33km/h | 18064m | -23.4m/s | -57.0°C | 5.1% | 0hPa | 2.5V | 00:00:00 | 00:00:00 | 00:00:00 | |
| DO3MHA-11 | 2026-09-05 03:59:16 | 47.23927 | 12.60192 | 99° | 37km/h | 18088m | -23.1m/s | -57.2°C | 5.1% | 0hPa | 2.5V | 00:00:00 | 02:13:12 | 00:00:00 | |
| BAUMI2-15 | 2026-09-05 03:59:15 | 47.23928 | 12.60180 | 100° | 35km/h | 18111m | -23.0m/s | -57.4°C | 5.2% | 0hPa | 2.5V | 00:00:00 | 02:13:11 | 00:00:00 | |
| DG1MJG | 2026-09-05 03:59:13 | 47.23930 | 12.60168 | 100° | 33km/h | 18134m | -22.7m/s | -57.7°C | 1.8% | 0hPa | 2.5V | 08:26:00 | 00:00:00 | 00:00:00 | |
| BAUMI2-15 | 2026-09-05 03:59:10 | 47.23935 | 12.60114 | 93° | 40km/h | 18225m | -23.2m/s | -58.0°C | 5.5% | 0hPa | 2.5V | 00:00:00 | 02:13:06 | 00:00:00 | |
| DO3MHA-12 | 2026-09-05 03:59:09 | 47.23935 | 12.60099 | 88° | 38km/h | 18248m | -23.3m/s | -57.9°C | 5.5% | 0hPa | 2.5V | 00:00:00 | 02:13:05 | 00:00:00 | |
| OE5HKT-10 | 2026-09-05 03:59:08 | 47.23935 | 12.60083 | 94° | 33km/h | 18272m | -23.3m/s | -57.7°C | 5.5% | 0hPa | 2.5V | 00:00:00 | 00:00:00 | 00:00:00 | |
| DO3MHA-11 | 2026-09-05 03:59:06 | 47.23937 | 12.60053 | 101° | 35km/h | 18318m | -23.6m/s | -56.4°C | 4.8% | 0hPa | 2.5V | 08:26:00 | 02:13:02 | 00:00:00 | |
| BAUMI2-15 | 2026-09-05 03:59:05 | 47.23939 | 12.60039 | 104° | 38km/h | 18341m | -23.8m/s | -56.5°C | 4.9% | 0hPa | 2.5V | 00:00:00 | 02:13:01 | 00:00:00 | |
| PG1ADW-2 | 2026-09-05 03:59:04 | 47.23942 | 12.60024 | 104° | 27km/h | 18365m | -23.9m/s | -56.6°C | 4.9% | 0hPa | 2.4V | 00:00:00 | 00:00:00 | 00:00:00 | |
| OM5KV | 2026-09-05 03:59:02 | 47.23944 | 12.60010 | 104° | 38km/h | 18389m | -23.7m/s | -56.8°C | 1.7% | 0hPa | 2.5V | 08:26:00 | 00:00:00 | 00:00:00 | |
| BAUMI2-15 | 2026-09-05 03:59:00 | 47.23952 | 12.59973 | 109° | 31km/h | 18459m | -23.3m/s | -57.1°C | 5.1% | 0hPa | 2.5V | 00:00:00 | 02:12:56 | 00:00:00 | |
| DO3MHA-12 | 2026-09-05 03:58:59 | 47.23955 | 12.59961 | 112° | 29km/h | 18482m | -23.6m/s | -57.2°C | 5.1% | 0hPa | 2.5V | 00:00:00 | 02:12:55 | 00:00:00 | |
| OM5KV | 2026-09-05 03:58:57 | 47.23958 | 12.59951 | 118° | 33km/h | 18506m | -24.2m/s | -57.2°C | 1.8% | 0hPa | 2.4V | 08:26:00 | 00:00:00 | 00:00:00 | |
| DO3MHA-11 | 2026-09-05 03:58:56 | 47.23964 | 12.59930 | 113° | 26km/h | 18555m | -24.4m/s | -57.1°C | 5.0% | 0hPa | 2.4V | 00:00:00 | 02:12:52 | 00:00:00 | |
| BAUMI2-15 | 2026-09-05 03:58:55 | 47.23967 | 12.59920 | 110° | 26km/h | 18580m | -23.5m/s | -57.0°C | 5.0% | 0hPa | 2.4V | 00:00:00 | 02:12:51 | 00:00:00 | |
| OM5KV | 2026-09-05 03:58:52 | 47.23973 | 12.59902 | 119° | 26km/h | 18627m | -23.4m/s | -57.0°C | 1.7% | 0hPa | 2.4V | 08:26:00 | 00:00:00 | 00:00:00 | |
| OE3JTB-15 | 2026-09-05 03:58:51 | 47.23980 | 12.59885 | 124° | 22km/h | 18673m | -23.6m/s | -56.9°C | 4.9% | 0hPa | 2.4V | 00:00:00 | 00:00:00 | 00:00:00 | |
| BAUMI2-15 | 2026-09-05 03:58:50 | 47.23984 | 12.59877 | 123° | 22km/h | 18696m | -24.2m/s | -57.0°C | 5.0% | 0hPa | 2.4V | 00:00:00 | 02:12:46 | 00:00:00 | |
| DB0NH | 2026-09-05 03:58:49 | 47.23987 | 12.59868 | 117° | 22km/h | 18721m | -24.1m/s | -57.1°C | 5.0% | 0hPa | 2.4V | 00:00:00 | 02:12:45 | 00:00:00 | |
| NBG1-10 | 2026-09-05 03:58:47 | 47.23991 | 12.59853 | 109° | 22km/h | 18769m | -24.0m/s | -56.8°C | 4.9% | 0hPa | 2.5V | 00:00:00 | 02:12:43 | 00:00:00 | |
| DO3MHA-11 | 2026-09-05 03:58:46 | 47.23993 | 12.59847 | 112° | 18km/h | 18793m | -24.3m/s | -56.7°C | 4.9% | 0hPa | 2.5V | 00:00:00 | 02:12:42 | 00:00:00 | |
| BAUMI2-15 | 2026-09-05 03:58:45 | 47.23994 | 12.59842 | 109° | 18km/h | 18817m | -24.3m/s | -56.7°C | 4.8% | 0hPa | 2.5V | 00:00:00 | 02:12:41 | 00:00:00 | |
| PG1ADW-2 | 2026-09-05 03:58:44 | 47.23995 | 12.59836 | 102° | 22km/h | 18842m | -24.9m/s | -56.6°C | 4.8% | 0hPa | 2.5V | 00:00:00 | 00:00:00 | 00:00:00 | |
| OE5REO-15 | 2026-09-05 03:58:43 | 47.23995 | 12.59836 | 103° | 18km/h | 18842m | -25.0m/s | -56.6°C | 1.6% | 0hPa | 2.5V | 08:26:00 | 00:00:00 | 00:00:00 | |
| DG1MJG | 2026-09-05 03:58:42 | 47.23995 | 12.59829 | 89° | 18km/h | 18866m | -25.0m/s | -56.8°C | 1.6% | 0hPa | 2.5V | 08:26:00 | 00:00:00 | 00:00:00 | |
| OE5MMP-10 | 2026-09-05 03:58:40 | 47.23991 | 12.59809 | 64° | 22km/h | 18941m | -24.2m/s | -57.0°C | 4.9% | 0hPa | 2.5V | 00:00:00 | 02:12:36 | 00:00:00 | |
| OE8JPQ-2 | 2026-09-05 03:58:39 | 47.23989 | 12.59803 | 66° | 24km/h | 18965m | -24.6m/s | -57.1°C | 5.0% | 0hPa | 2.5V | 00:00:00 | 00:00:00 | 00:00:00 | |
| DO3MHA-11 | 2026-09-05 03:58:36 | 47.23984 | 12.59782 | 68° | 24km/h | 19040m | -25.4m/s | -57.3°C | 5.1% | 0hPa | 2.4V | 00:00:00 | 02:12:32 | 00:00:00 | |
| OM5KV | 2026-09-05 03:58:33 | 47.23980 | 12.59765 | 71° | 24km/h | 19091m | -24.9m/s | -57.4°C | 1.7% | 0hPa | 2.6V | 08:27:00 | 00:00:00 | 00:00:00 | |
| OE5DRO-10 | 2026-09-05 03:58:31 | 47.23977 | 12.59740 | 88° | 26km/h | 19164m | -24.8m/s | -57.4°C | 5.3% | 0hPa | 2.6V | 00:00:00 | 00:00:00 | 00:00:00 | |
| OE5MMP-10 | 2026-09-05 03:58:30 | 47.23977 | 12.59731 | 96° | 26km/h | 19189m | -24.8m/s | -57.6°C | 5.3% | 0hPa | 2.6V | 00:00:00 | 02:12:26 | 00:00:00 | |
| IN3HCDX | 2026-09-05 03:58:29 | 47.23977 | 12.59731 | 96° | 24km/h | 19189m | -24.9m/s | -57.6°C | 1.7% | 0hPa | 2.6V | 08:27:00 | 00:00:00 | 00:00:00 | |
| DO3MHA-11 | 2026-09-05 03:58:26 | 47.23980 | 12.59693 | 97° | 24km/h | 19290m | -25.2m/s | -57.9°C | 5.6% | 0hPa | 2.6V | 00:00:00 | 02:12:22 | 00:00:00 | |
| PG1ADW-2 | 2026-09-05 03:58:24 | 47.23982 | 12.59676 | 102° | 22km/h | 19340m | -25.0m/s | -58.1°C | 5.7% | 0hPa | 2.6V | 00:00:00 | 00:00:00 | 00:00:00 | |
| OM5KV | 2026-09-05 03:58:23 | 47.23982 | 12.59676 | 102° | 24km/h | 19340m | -25.1m/s | -58.2°C | 1.9% | 0hPa | 2.6V | 08:27:00 | 00:00:00 | 00:00:00 | |
| OE3JTB-15 | 2026-09-05 03:58:22 | 47.23984 | 12.59658 | 101° | 20km/h | 19390m | -25.7m/s | -58.1°C | 5.8% | 0hPa | 2.6V | 00:00:00 | 02:12:18 | 00:00:00 | |
| OE5MMP-10 | 2026-09-05 03:58:20 | 47.23985 | 12.59640 | 81° | 24km/h | 19442m | -26.0m/s | -57.9°C | 5.7% | 0hPa | 2.6V | 08:26:00 | 02:12:16 | 00:00:00 | |
| DO3MHA-12 | 2026-09-05 03:58:19 | 47.23984 | 12.59631 | 83° | 24km/h | 19468m | -26.3m/s | -57.6°C | 5.6% | 0hPa | 2.4V | 00:00:00 | 02:12:15 | 00:00:00 | |
| OE5DXL-15 | 2026-09-05 03:58:17 | 47.23984 | 12.59614 | 97° | 20km/h | 19521m | -26.4m/s | -57.3°C | 5.4% | 0hPa | 2.4V | 00:00:00 | 00:00:00 | 00:00:00 | |
| DO3MHA-11 | 2026-09-05 03:58:16 | 47.23985 | 12.59604 | 95° | 24km/h | 19547m | -26.8m/s | -57.3°C | 5.4% | 0hPa | 2.6V | 00:00:00 | 02:12:12 | 00:00:00 | |
| NBG1-10 | 2026-09-05 03:58:14 | 47.23986 | 12.59584 | 92° | 20km/h | 19600m | -26.7m/s | -57.4°C | 5.4% | 0hPa | 2.6V | 00:00:00 | 02:12:10 | 00:00:00 | |
| OE5DRO-10 | 2026-09-05 03:58:12 | 47.23988 | 12.59567 | 106° | 18km/h | 19654m | -26.9m/s | -57.3°C | 5.4% | 0hPa | 2.6V | 08:26:00 | 00:00:00 | 00:00:00 | |
| DG1MJG | 2026-09-05 03:58:11 | 47.23988 | 12.59567 | 106° | 24km/h | 19654m | -27.0m/s | -57.4°C | 1.8% | 0hPa | 2.4V | 08:27:00 | 00:00:00 | 00:00:00 | |
| OE5MMP-10 | 2026-09-05 03:58:10 | 47.23991 | 12.59550 | 113° | 18km/h | 19708m | -27.6m/s | -57.0°C | 5.5% | 0hPa | 2.4V | 00:00:00 | 02:12:06 | 00:00:00 | |
| DO3MHA-12 | 2026-09-05 03:58:09 | 47.23993 | 12.59542 | 108° | 16km/h | 19736m | -27.4m/s | -56.3°C | 5.2% | 0hPa | 2.4V | 00:00:00 | 02:12:05 | 00:00:00 | |
| IN3HCDX | 2026-09-05 03:58:08 | 47.23993 | 12.59542 | 108° | 22km/h | 19736m | -27.4m/s | -56.4°C | 1.7% | 0hPa | 2.4V | 08:27:00 | 00:00:00 | 00:00:00 | |
| S52SK | 2026-09-05 03:58:07 | 47.23995 | 12.59535 | 107° | 20km/h | 19764m | -27.2m/s | -55.6°C | 1.5% | 0hPa | 2.4V | 00:00:00 | 00:00:00 | 00:00:00 | |
| DO3MHA-11 | 2026-09-05 03:58:06 | 47.23998 | 12.59523 | 112° | 16km/h | 19818m | -27.2m/s | -55.1°C | 4.6% | 0hPa | 2.4V | 00:00:00 | 02:12:02 | 00:00:00 | |
| OE5HKT-10 | 2026-09-05 03:58:05 | 47.23999 | 12.59518 | 114° | 20km/h | 19845m | -27.1m/s | -55.1°C | 4.6% | 0hPa | 2.5V | 00:00:00 | 00:00:00 | 00:00:00 | |
| PG1ADW-2 | 2026-09-05 03:58:04 | 47.24001 | 12.59512 | 116° | 20km/h | 19872m | -27.2m/s | -55.3°C | 4.7% | 0hPa | 2.5V | 00:00:00 | 02:12:00 | 00:00:00 | |
| OM5KV | 2026-09-05 03:58:01 | 47.24003 | 12.59501 | 99° | 16km/h | 19927m | -27.2m/s | -55.9°C | 1.6% | 0hPa | 2.5V | 08:27:00 | 00:00:00 | 00:00:00 | |
| OE5MMP-10 | 2026-09-05 03:58:00 | 47.24004 | 12.59488 | 85° | 20km/h | 19981m | -26.8m/s | -56.3°C | 5.2% | 0hPa | 2.5V | 00:00:00 | 02:11:56 | 00:00:00 | |
| 9A1FER-3 | 2026-09-05 03:57:59 | 47.24004 | 12.59483 | 89° | 20km/h | 20008m | -26.9m/s | -56.3°C | 5.4% | 0hPa | 2.5V | 00:00:00 | 02:11:55 | 00:00:00 | |
| OE5REO-15 | 2026-09-05 03:57:57 | 47.24003 | 12.59477 | 88° | 15km/h | 20034m | -26.8m/s | -56.2°C | 1.7% | 0hPa | 2.5V | 08:27:00 | 00:00:00 | 00:00:00 | |
| DO3MHA-11 | 2026-09-05 03:57:56 | 47.24004 | 12.59464 | 95° | 22km/h | 20088m | -27.2m/s | -55.8°C | 5.1% | 0hPa | 2.5V | 00:00:00 | 02:11:52 | 00:00:00 | |
| OM5KV | 2026-09-05 03:57:55 | 47.24003 | 12.59464 | 95° | 20km/h | 20088m | -27.2m/s | -55.8°C | 1.6% | 0hPa | 2.5V | 08:27:00 | 00:00:00 | 00:00:00 | |
| OE3JTB-15 | 2026-09-05 03:57:53 | 47.24003 | 12.59440 | 94° | 15km/h | 20170m | -27.5m/s | -55.6°C | 5.1% | 0hPa | 2.5V | 00:00:00 | 00:00:00 | 00:00:00 | |
| OE5MMP-10 | 2026-09-05 03:57:50 | 47.24008 | 12.59415 | 117° | 20km/h | 20252m | -28.1m/s | -54.9°C | 4.8% | 0hPa | 2.4V | 00:00:00 | 02:11:46 | 00:00:00 | |
| DB0UT-7 | 2026-09-05 03:57:49 | 47.24010 | 12.59407 | 119° | 13km/h | 20280m | -27.9m/s | -54.7°C | 4.8% | 0hPa | 2.4V | 00:00:00 | 00:00:00 | 00:00:00 | |
| IN3HCDX | 2026-09-05 03:57:48 | 47.24010 | 12.59407 | 120° | 24km/h | 20280m | -27.9m/s | -54.7°C | 1.6% | 0hPa | 2.4V | 08:27:00 | 00:00:00 | 00:00:00 | |
| OE5DXL-15 | 2026-09-05 03:57:47 | 47.24016 | 12.59393 | 127° | 13km/h | 20336m | -27.6m/s | -54.3°C | 4.5% | 0hPa | 2.4V | 00:00:00 | 00:00:00 | 00:00:00 | |
| DO3MHA-11 | 2026-09-05 03:57:45 | 47.24023 | 12.59381 | 137° | 11km/h | 20391m | -27.7m/s | -54.3°C | 4.5% | 0hPa | 2.4V | 00:00:00 | 02:11:41 | 00:00:00 | |
| DO3MHA-12 | 2026-09-05 03:57:44 | 47.24027 | 12.59376 | 145° | 9km/h | 20419m | -27.7m/s | -54.3°C | 4.5% | 0hPa | 2.4V | 00:00:00 | 02:11:40 | 00:00:00 | |
| DG1MFX-10 | 2026-09-05 03:57:43 | 47.24027 | 12.59376 | 145° | 22km/h | 20419m | -27.8m/s | -54.4°C | 1.5% | 0hPa | 2.4V | 08:28:00 | 00:00:00 | 00:00:00 | |
| 9A1FER-3 | 2026-09-05 03:57:42 | 47.24036 | 12.59368 | 150° | 9km/h | 20474m | -28.1m/s | -54.2°C | 4.5% | 0hPa | 2.4V | 08:27:00 | 02:11:38 | 00:00:00 | |
| NBG1-10 | 2026-09-05 03:57:41 | 47.24039 | 12.59365 | 146° | 11km/h | 20502m | -27.9m/s | -54.0°C | 4.5% | 0hPa | 2.4V | 08:27:00 | 02:11:37 | 00:00:00 | |
| OE5MMP-10 | 2026-09-05 03:57:40 | 47.24041 | 12.59363 | 154° | 7km/h | 20530m | -27.6m/s | -53.8°C | 4.4% | 0hPa | 2.6V | 00:00:00 | 02:11:36 | 00:00:00 | |
| OE8JPQ-2 | 2026-09-05 03:57:39 | 47.24043 | 12.59363 | 191° | 11km/h | 20558m | -27.6m/s | -53.4°C | 4.2% | 0hPa | 2.6V | 00:00:00 | 00:00:00 | 00:00:00 | |
| OM5KV | 2026-09-05 03:57:38 | 47.24043 | 12.59363 | 192° | 4km/h | 20558m | -27.6m/s | -53.4°C | 1.3% | 0hPa | 2.4V | 08:28:00 | 00:00:00 | 00:00:00 | |
| DO3MHA-11 | 2026-09-05 03:57:35 | 47.24044 | 12.59365 | 15° | 11km/h | 20670m | -28.4m/s | -53.5°C | 4.2% | 0hPa | 2.4V | 08:27:00 | 02:11:31 | 00:00:00 | |
| DO3MHA-12 | 2026-09-05 03:57:34 | 47.24042 | 12.59365 | 13° | 11km/h | 20698m | -28.4m/s | -53.6°C | 4.3% | 0hPa | 2.4V | 00:00:00 | 02:11:30 | 00:00:00 | |
| OM5KV | 2026-09-05 03:57:31 | 47.24037 | 12.59364 | 13° | 11km/h | 20755m | -28.5m/s | -53.7°C | 1.4% | 0hPa | 2.4V | 08:28:00 | 00:00:00 | 00:00:00 | |
| HARRO8 | 2026-09-05 03:57:30 | 47.24033 | 12.59360 | 44° | 9km/h | 20812m | -29.3m/s | -54.1°C | 1.3% | -1.0hPa | 2.4V | 00:00:00 | 00:00:00 | 00:00:00 | |
| OM5KV | 2026-09-05 03:57:28 | 47.24031 | 12.59357 | 54° | 13km/h | 20842m | -29.1m/s | -54.2°C | 1.4% | 0hPa | 2.4V | 08:28:00 | 00:00:00 | 00:00:00 | |
| 9A1FER-3 | 2026-09-05 03:57:27 | 47.24027 | 12.59349 | 64° | 15km/h | 20900m | -29.2m/s | -54.2°C | 4.5% | 0hPa | 2.4V | 00:00:00 | 02:11:23 | 00:00:00 | |
| DO3MHA-11 | 2026-09-05 03:57:25 | 47.24026 | 12.59340 | 102° | 15km/h | 20957m | -29.1m/s | -54.3°C | 4.6% | 0hPa | 2.4V | 00:00:00 | 02:11:21 | 00:00:00 | |
| DO3MHA-12 | 2026-09-05 03:57:24 | 47.24027 | 12.59336 | 110° | 15km/h | 20986m | -29.8m/s | -54.4°C | 4.6% | 0hPa | 2.4V | 00:00:00 | 02:11:20 | 00:00:00 | |
| OE5HKT-10 | 2026-09-05 03:57:23 | 47.24028 | 12.59331 | 114° | 11km/h | 21017m | -30.6m/s | -54.3°C | 4.6% | 0hPa | 2.4V | 00:00:00 | 00:00:00 | 00:00:00 | |
| OM5KV | 2026-09-05 03:57:21 | 47.24030 | 12.59325 | 107° | 16km/h | 21047m | -30.4m/s | -54.3°C | 1.5% | 0hPa | 2.6V | 08:28:00 | 00:00:00 | 00:00:00 | |
| OE5MMP-10 | 2026-09-05 03:57:20 | 47.24032 | 12.59315 | 111° | 13km/h | 21107m | -30.1m/s | -53.9°C | 4.4% | 0hPa | 2.6V | 00:00:00 | 02:11:16 | 00:00:00 | |
| DB0UT-7 | 2026-09-05 03:57:19 | 47.24033 | 12.59311 | 128° | 11km/h | 21138m | -30.2m/s | -54.0°C | 4.4% | 0hPa | 2.4V | 00:00:00 | 02:11:15 | 00:00:00 | |
| OE5DXL-15 | 2026-09-05 03:57:17 | 47.24037 | 12.59303 | 124° | 11km/h | 21198m | -31.1m/s | -54.1°C | 4.5% | 0hPa | 2.4V | 00:00:00 | 00:00:00 | 00:00:00 | |
| DO3MHA-11 | 2026-09-05 03:57:15 | 47.24040 | 12.59293 | 108° | 11km/h | 21259m | -31.2m/s | -54.1°C | 4.5% | 0hPa | 2.4V | 00:00:00 | 02:11:11 | 00:00:00 | |
| DO3MHA-12 | 2026-09-05 03:57:14 | 47.24041 | 12.59288 | 103° | 7km/h | 21290m | -31.7m/s | -53.9°C | 4.4% | 0hPa | 2.4V | 00:00:00 | 02:11:10 | 00:00:00 | |
| OM5KV | 2026-09-05 03:57:13 | 47.24041 | 12.59288 | 103° | 15km/h | 21290m | -31.8m/s | -53.9°C | 1.4% | 0hPa | 2.4V | 08:28:00 | 00:00:00 | 00:00:00 | |
| 9A1FER-3 | 2026-09-05 03:57:12 | 47.24042 | 12.59280 | 71° | 9km/h | 21353m | -31.3m/s | -53.7°C | 4.2% | 0hPa | 2.4V | 00:00:00 | 02:11:08 | 00:00:00 | |
| DG1MJG | 2026-09-05 03:57:11 | 47.24042 | 12.59280 | 72° | 11km/h | 21353m | -31.3m/s | -53.7°C | 1.3% | 0hPa | 2.4V | 08:28:00 | 00:00:00 | 00:00:00 | |
| OE5MMP-10 | 2026-09-05 03:57:10 | 47.24042 | 12.59273 | 109° | 7km/h | 21416m | -31.2m/s | -53.9°C | 4.3% | 0hPa | 2.4V | 00:00:00 | 02:11:06 | 00:00:00 | |
| OE5REO-15 | 2026-09-05 03:57:09 | 47.24042 | 12.59273 | 109° | 9km/h | 21416m | -31.2m/s | -53.9°C | 1.3% | 0hPa | 2.4V | 08:28:00 | 00:00:00 | 00:00:00 | |
| NBG1-10 | 2026-09-05 03:57:08 | 47.24043 | 12.59267 | 111° | 9km/h | 21478m | -31.6m/s | -53.5°C | 4.2% | 0hPa | 2.4V | 00:00:00 | 02:11:04 | 00:00:00 | |
| IN3HCDX | 2026-09-05 03:57:06 | 47.24044 | 12.59263 | 106° | 9km/h | 21510m | -31.8m/s | -53.5°C | 1.3% | 0hPa | 2.4V | 08:28:00 | 00:00:00 | 00:00:00 | |
| DO3MHA-11 | 2026-09-05 03:57:05 | 47.24044 | 12.59257 | 83° | 9km/h | 21573m | -31.0m/s | -53.6°C | 4.2% | 0hPa | 2.4V | 00:00:00 | 02:11:01 | 00:00:00 | |
| PG1ADW-2 | 2026-09-05 03:57:04 | 47.24044 | 12.59254 | 76° | 9km/h | 21604m | -31.0m/s | -53.5°C | 4.2% | 0hPa | 2.4V | 08:28:00 | 00:00:00 | 00:00:00 | |
| DG1MFX-10 | 2026-09-05 03:57:02 | 47.24044 | 12.59252 | 68° | 5km/h | 21635m | -31.5m/s | -53.7°C | 1.4% | 0hPa | 2.4V | 08:28:00 | 00:00:00 | 00:00:00 | |
| HARRO8 | 2026-09-05 03:56:59 | 47.24042 | 12.59239 | 59° | 11km/h | 21793m | -32.1m/s | -53.9°C | 1.3% | -1.0hPa | 2.4V | 00:00:00 | 00:00:00 | 00:00:00 | |
| OM5KV | 2026-09-05 03:56:58 | 47.24042 | 12.59243 | 73° | 11km/h | 21761m | -32.5m/s | -53.8°C | 1.3% | 0hPa | 2.4V | 08:28:00 | 00:00:00 | 00:00:00 | |
| 9A1FER-3 | 2026-09-05 03:56:57 | 47.24040 | 12.59236 | 54° | 9km/h | 21825m | -31.5m/s | -53.9°C | 4.4% | 0hPa | 2.4V | 00:00:00 | 02:10:53 | 00:00:00 | |
| OE5DRO-10 | 2026-09-05 03:56:56 | 47.24038 | 12.59231 | 55° | 11km/h | 21856m | -31.6m/s | -54.0°C | 4.5% | 0hPa | 2.4V | 00:00:00 | 00:00:00 | 00:00:00 | |
| DO3MHA-11 | 2026-09-05 03:56:55 | 47.24036 | 12.59227 | 57° | 11km/h | 21888m | -31.7m/s | -54.1°C | 4.5% | 0hPa | 2.4V | 00:00:00 | 02:10:51 | 00:00:00 | |
| OE5REO-15 | 2026-09-05 03:56:54 | 47.24036 | 12.59227 | 57° | 13km/h | 21888m | -31.8m/s | -54.2°C | 1.4% | 0hPa | 2.4V | 08:29:00 | 00:00:00 | 00:00:00 | |
| OM5KV | 2026-09-05 03:56:53 | 47.24034 | 12.59223 | 62° | 13km/h | 21919m | -31.8m/s | -54.2°C | 1.4% | 0hPa | 2.4V | 08:29:00 | 00:00:00 | 00:00:00 | |
| OM5KV | 2026-09-05 03:56:52 | 47.24033 | 12.59219 | 70° | 13km/h | 21951m | -31.8m/s | -54.3°C | 1.4% | 0hPa | 2.4V | 08:29:00 | 00:00:00 | 00:00:00 | |
| OE5MMP-10 | 2026-09-05 03:56:50 | 47.24032 | 12.59205 | 94° | 7km/h | 22046m | -31.1m/s | !°C | 4.8% | 0hPa | 2.4V | 08:28:00 | 02:10:46 | 00:00:00 | |
| DB0UT-7 | 2026-09-05 03:56:49 | 47.24032 | 12.59201 | 92° | 13km/h | 22077m | -30.9m/s | -54.5°C | 4.7% | 0hPa | 2.6V | 00:00:00 | 00:00:00 | 00:00:00 | |
| OE5DXL-15 | 2026-09-05 03:56:47 | 47.24032 | 12.59194 | 92° | 13km/h | 22139m | -31.0m/s | -54.4°C | 4.7% | 0hPa | 2.5V | 00:00:00 | 00:00:00 | 00:00:00 | |
| DB0NH | 2026-09-05 03:56:46 | 47.24033 | 12.59192 | 112° | 13km/h | 22170m | -31.7m/s | -54.1°C | 4.5% | 0hPa | 2.4V | 00:00:00 | 02:10:42 | 00:00:00 | |
| DO3MHA-11 | 2026-09-05 03:56:45 | 47.24033 | 12.59190 | 140° | 11km/h | 22201m | -31.6m/s | -54.0°C | 4.5% | 0hPa | 2.4V | 00:00:00 | 02:10:41 | 00:00:00 | |
| 9A1FER-3 | 2026-09-05 03:56:42 | 47.24032 | 12.59188 | 9° | 16km/h | 22298m | -32.5m/s | -53.7°C | 4.4% | 0hPa | 2.4V | 00:00:00 | 02:10:38 | 00:00:00 | |
| OM5KV | 2026-09-05 03:56:41 | 47.24032 | 12.59188 | 10° | 7km/h | 22298m | -32.6m/s | -53.8°C | 1.3% | 0hPa | 2.4V | 08:29:00 | 00:00:00 | 00:00:00 | |
| OE8JPQ-2 | 2026-09-05 03:56:39 | 47.24025 | 12.59188 | 11° | 15km/h | 22397m | -32.8m/s | -53.2°C | 4.2% | 0hPa | 2.4V | 08:28:00 | 00:00:00 | 00:00:00 | |
| OE5REO-15 | 2026-09-05 03:56:38 | 47.24025 | 12.59188 | 12° | 13km/h | 22397m | -32.9m/s | -53.3°C | 1.3% | 0hPa | 2.4V | 08:29:00 | 00:00:00 | 00:00:00 | |
| OE5DRO-10 | 2026-09-05 03:56:37 | 47.24019 | 12.59184 | 33° | 15km/h | 22463m | -33.6m/s | -53.5°C | 4.3% | 0hPa | 2.4V | 00:00:00 | 00:00:00 | 00:00:00 | |
| NBG1-10 | 2026-09-05 03:56:35 | 47.24011 | 12.59176 | 37° | 16km/h | 22529m | -33.8m/s | -53.6°C | 4.4% | 0hPa | 2.4V | 00:00:00 | 02:10:31 | 00:00:00 | |
| OM5KV | 2026-09-05 03:56:34 | 47.24011 | 12.59176 | 38° | 24km/h | 22529m | -33.9m/s | -53.7°C | 1.3% | 0hPa | 2.4V | 08:29:00 | 00:00:00 | 00:00:00 | |
| DO3MHA-12 | 2026-09-05 03:56:30 | 47.23990 | 12.59150 | 52° | 11km/h | 22699m | -34.8m/s | -53.4°C | 4.3% | 0hPa | 2.4V | 00:00:00 | 02:10:26 | 00:00:00 | |
| OM5KV | 2026-09-05 03:56:29 | 47.23990 | 12.59150 | 53° | 16km/h | 22699m | -34.8m/s | -53.5°C | 1.3% | 0hPa | 2.4V | 08:29:00 | 00:00:00 | 00:00:00 | |
| OM5KV | 2026-09-05 03:56:28 | 47.23988 | 12.59145 | 57° | 15km/h | 22734m | -35.0m/s | -53.5°C | 1.3% | 0hPa | 2.4V | 08:29:00 | 00:00:00 | 00:00:00 | |
| HARRO8 | 2026-09-05 03:56:27 | 47.23982 | 12.59135 | 41° | 9km/h | 22837m | -34.6m/s | -53.4°C | 1.2% | -1.0hPa | 2.4V | 00:00:00 | 00:00:00 | 00:00:00 | |
| OE3JTB-15 | 2026-09-05 03:56:26 | 47.23982 | 12.59135 | 42° | 16km/h | 22837m | -34.5m/s | -53.3°C | 4.3% | 0hPa | 2.4V | 00:00:00 | 00:00:00 | 00:00:00 | |
| BAUMI2-15 | 2026-09-05 03:56:25 | 47.23979 | 12.59133 | 31° | 7km/h | 22872m | -34.2m/s | -53.3°C | 4.2% | 0hPa | 2.4V | 00:00:00 | 02:10:21 | 00:00:00 | |
| OM5KV | 2026-09-05 03:56:24 | 47.23980 | 12.59133 | 32° | 9km/h | 22872m | -34.3m/s | -53.3°C | 1.3% | 0hPa | 2.4V | 08:29:00 | 00:00:00 | 00:00:00 | |
| OM5KV | 2026-09-05 03:56:23 | 47.23977 | 12.59132 | 19° | 9km/h | 22907m | -33.9m/s | -53.4°C | 1.3% | 0hPa | 2.4V | 08:29:00 | 00:00:00 | 00:00:00 | |
| DG1MFX-10 | 2026-09-05 03:56:22 | 47.23975 | 12.59131 | 2° | 9km/h | 22940m | -33.7m/s | -53.5°C | 1.3% | 0hPa | 2.4V | 08:29:00 | 00:00:00 | 00:00:00 | |
| PG1ADW-2 | 2026-09-05 03:56:21 | 47.23971 | 12.59131 | 4° | 16km/h | 23009m | -34.9m/s | -53.7°C | 4.5% | 0hPa | 2.4V | 00:00:00 | 02:10:17 | 00:00:00 | |
| OE5HKT-10 | 2026-09-05 03:56:20 | 47.23969 | 12.59130 | 14° | 18km/h | 23043m | -34.9m/s | -53.7°C | 4.4% | 0hPa | 2.4V | 00:00:00 | 00:00:00 | 00:00:00 | |
| OE8JPQ-2 | 2026-09-05 03:56:19 | 47.23967 | 12.59130 | 21° | 18km/h | 23079m | -34.8m/s | -53.7°C | 4.4% | 0hPa | 2.4V | 00:00:00 | 00:00:00 | 00:00:00 | |
| OE5DRO-10 | 2026-09-05 03:56:18 | 47.23965 | 12.59128 | 34° | 18km/h | 23113m | -34.4m/s | -53.7°C | 4.4% | 0hPa | 2.4V | 00:00:00 | 00:00:00 | 00:00:00 | |
| OE5DXL-15 | 2026-09-05 03:56:17 | 47.23962 | 12.59126 | 45° | 20km/h | 23147m | -34.1m/s | -53.7°C | 4.4% | 0hPa | 2.4V | 00:00:00 | 00:00:00 | 00:00:00 | |
| DO3MHA-11 | 2026-09-05 03:56:15 | 47.23956 | 12.59116 | 47° | 20km/h | 23215m | -33.7m/s | -53.7°C | 4.5% | 0hPa | 2.4V | 00:00:00 | 02:10:11 | 00:00:00 | |
| 9A1FER-3 | 2026-09-05 03:56:12 | 47.23947 | 12.59098 | 58° | 18km/h | 23316m | -33.7m/s | -54.0°C | 4.7% | 0hPa | 2.4V | 00:00:00 | 02:10:08 | 00:00:00 | |
| OM5KV | 2026-09-05 03:56:11 | 47.23947 | 12.59098 | 58° | 20km/h | 23316m | -33.7m/s | -54.1°C | 1.4% | 0hPa | 2.6V | 08:29:00 | 00:00:00 | 00:00:00 | |
| OE5MMP-10 | 2026-09-05 03:56:10 | 47.23943 | 12.59085 | 76° | 18km/h | 23383m | -34.0m/s | -53.9°C | 4.7% | 0hPa | 2.6V | 00:00:00 | 02:10:06 | 00:00:00 | |
| OM5KV | 2026-09-05 03:56:06 | 47.23940 | 12.59065 | 78° | 18km/h | 23487m | -34.7m/s | -53.7°C | 1.4% | 0hPa | 2.6V | 08:29:00 | 00:00:00 | 00:00:00 | |
| DO3MHA-11 | 2026-09-05 03:56:05 | 47.23938 | 12.59053 | 93° | 20km/h | 23557m | -34.8m/s | -53.4°C | 4.6% | 0hPa | 2.6V | 08:29:00 | 02:10:01 | 00:00:00 | |
| OM5KV | 2026-09-05 03:56:04 | 47.23938 | 12.59053 | 94° | 15km/h | 23557m | -34.8m/s | -53.5°C | 1.4% | 0hPa | 2.4V | 08:29:00 | 00:00:00 | 00:00:00 | |
| NBG1-10 | 2026-09-05 03:56:02 | 47.23940 | 12.59035 | 100° | 15km/h | 23662m | -35.0m/s | -53.1°C | 4.6% | 0hPa | 2.4V | 00:00:00 | 02:09:58 | 00:00:00 | |
| PG1ADW-2 | 2026-09-05 03:56:01 | 47.23941 | 12.59028 | 101° | 18km/h | 23697m | -34.8m/s | -53.2°C | 4.6% | 0hPa | 2.6V | 00:00:00 | 00:00:00 | 00:00:00 | |
| DO3MHA-12 | 2026-09-05 03:56:00 | 47.23942 | 12.59020 | 101° | 22km/h | 23731m | -34.8m/s | -53.1°C | 4.6% | 0hPa | 2.6V | 00:00:00 | 02:09:56 | 00:00:00 | |
| OE8JPQ-2 | 2026-09-05 03:55:59 | 47.23944 | 12.59012 | 105° | 16km/h | 23766m | -35.0m/s | -53.0°C | 4.5% | 0hPa | 2.6V | 00:00:00 | 02:09:55 | 00:00:00 | |
| 9A1FER-3 | 2026-09-05 03:55:57 | 47.23949 | 12.58996 | 121° | 16km/h | 23836m | -35.7m/s | -52.9°C | 4.5% | 0hPa | 2.6V | 00:00:00 | 02:09:53 | 00:00:00 | |
| OM5KV | 2026-09-05 03:55:56 | 47.23949 | 12.58996 | 121° | 26km/h | 23836m | -35.8m/s | -53.0°C | 1.3% | 0hPa | 2.6V | 08:29:00 | 00:00:00 | 00:00:00 | |
| BAUMI2-15 | 2026-09-05 03:55:55 | 47.23956 | 12.58980 | 127° | 22km/h | 23909m | -36.2m/s | -52.8°C | 4.5% | 0hPa | 2.6V | 00:00:00 | 02:09:51 | 00:00:00 | |
| OM5KV | 2026-09-05 03:55:54 | 47.23956 | 12.58980 | 128° | 26km/h | 23909m | -36.3m/s | -52.9°C | 1.3% | 0hPa | 2.6V | 08:29:00 | 00:00:00 | 00:00:00 | |
| DO3MHA-12 | 2026-09-05 03:55:50 | 47.23976 | 12.58956 | 145° | 11km/h | 24095m | -38.2m/s | -51.4°C | 3.9% | 0hPa | 2.6V | 00:00:00 | 02:09:46 | 00:00:00 | |
| DB0UT-7 | 2026-09-05 03:55:49 | 47.23979 | 12.58954 | 149° | 11km/h | 24134m | -38.5m/s | -51.2°C | 3.9% | 0hPa | 2.4V | 00:00:00 | 00:00:00 | 00:00:00 | |
| OE5REO-15 | 2026-09-05 03:55:48 | 47.23979 | 12.58954 | 149° | 11km/h | 24134m | -38.6m/s | -51.2°C | 1.2% | 0hPa | 2.4V | 08:29:00 | 00:00:00 | 00:00:00 | |
| OE5DXL-15 | 2026-09-05 03:55:47 | 47.23984 | 12.58949 | 150° | 11km/h | 24211m | -38.9m/s | -51.0°C | 3.8% | 0hPa | 2.4V | 00:00:00 | 00:00:00 | 00:00:00 | |
| DB0NH | 2026-09-05 03:55:46 | 47.23986 | 12.58947 | 145° | 11km/h | 24250m | -38.9m/s | -50.9°C | 3.8% | 0hPa | 2.4V | 00:00:00 | 02:09:42 | 00:00:00 | |
| DO3MHA-11 | 2026-09-05 03:55:45 | 47.23988 | 12.58945 | 142° | 9km/h | 24289m | -38.7m/s | -50.9°C | 3.7% | 0hPa | 2.4V | 00:00:00 | 02:09:41 | 00:00:00 | |
| IN3HCDX | 2026-09-05 03:55:44 | 47.23988 | 12.58945 | 142° | 11km/h | 24289m | -38.7m/s | -51.0°C | 1.1% | 0hPa | 2.4V | 08:29:00 | 00:00:00 | 00:00:00 | |
| OM5KV | 2026-09-05 03:55:43 | 47.23990 | 12.58942 | 138° | 13km/h | 24328m | -39.0m/s | -51.0°C | 1.1% | 0hPa | 2.4V | 08:29:00 | 00:00:00 | 00:00:00 | |
| 9A1FER-3 | 2026-09-05 03:55:42 | 47.23994 | 12.58936 | 124° | 7km/h | 24406m | -39.0m/s | -51.1°C | 3.8% | 0hPa | 2.4V | 00:00:00 | 02:09:38 | 00:00:00 | |
| PG1ADW-2 | 2026-09-05 03:55:41 | 47.23995 | 12.58933 | 125° | 11km/h | 24445m | -39.1m/s | -51.1°C | 3.8% | 0hPa | 2.4V | 00:00:00 | 00:00:00 | 00:00:00 | |
| DO3MHA-12 | 2026-09-05 03:55:40 | 47.23996 | 12.58931 | 134° | 7km/h | 24484m | -39.2m/s | -51.2°C | 3.8% | 0hPa | 2.4V | 00:00:00 | 02:09:36 | 00:00:00 | |
| 9A1FER-10 | 2026-09-05 03:55:39 | 47.23998 | 12.58930 | 140° | 18km/h | 24523m | -39.2m/s | -51.3°C | 3.9% | 0hPa | 2.4V | 00:00:00 | 02:09:35 | 00:00:00 | |
| OE5HKT-10 | 2026-09-05 03:55:38 | 47.23999 | 12.58928 | 149° | 13km/h | 24562m | -39.3m/s | -51.4°C | 3.9% | 0hPa | 2.4V | 00:00:00 | 02:09:34 | 00:00:00 | |
| OM5KV | 2026-09-05 03:55:36 | 47.24001 | 12.58927 | 162° | 9km/h | 24602m | -39.6m/s | -51.5°C | 1.2% | 0hPa | 2.4V | 08:29:00 | 00:00:00 | 00:00:00 | |
| DO3MHA-11 | 2026-09-05 03:55:35 | 47.24005 | 12.58925 | 163° | 9km/h | 24681m | -39.9m/s | -51.5°C | 4.1% | 0hPa | 2.4V | 00:00:00 | 02:09:31 | 00:00:00 | |
| OE5REO-15 | 2026-09-05 03:55:33 | 47.24006 | 12.58924 | 161° | 5km/h | 24720m | -39.6m/s | -51.6°C | 1.2% | 0hPa | 2.4V | 08:29:00 | 00:00:00 | 00:00:00 | |
| OM5KV | 2026-09-05 03:55:32 | 47.24008 | 12.58924 | 164° | 4km/h | 24760m | -39.7m/s | -51.7°C | 1.2% | 0hPa | 2.4V | 08:29:00 | 00:00:00 | 00:00:00 | |
| OE5MMP-10 | 2026-09-05 03:55:30 | 47.24012 | 12.58923 | 167° | 15km/h | 24880m | -40.5m/s | -51.8°C | 4.2% | 0hPa | 2.4V | 00:00:00 | 02:09:26 | 00:00:00 | |
| NBG1-10 | 2026-09-05 03:55:29 | 47.24014 | 12.58922 | 154° | 20km/h | 24920m | -40.2m/s | -51.9°C | 4.3% | 0hPa | 2.4V | 00:00:00 | 02:09:25 | 00:00:00 | |
| OE3JTB-15 | 2026-09-05 03:55:28 | 47.24017 | 12.58920 | 139° | 20km/h | 24960m | -40.3m/s | -52.1°C | 4.3% | 0hPa | 2.4V | 00:00:00 | 02:09:24 | 00:00:00 | |
| 9A1FER-3 | 2026-09-05 03:55:27 | 47.24019 | 12.58916 | 126° | 18km/h | 25001m | -40.2m/s | -52.2°C | 4.4% | 0hPa | 2.4V | 08:29:00 | 02:09:23 | 00:00:00 | |
| OM5KV | 2026-09-05 03:55:26 | 47.24019 | 12.58916 | 127° | 15km/h | 25001m | -40.3m/s | -52.2°C | 1.3% | 0hPa | 2.4V | 08:29:00 | 00:00:00 | 00:00:00 | |
| BAUMI2-15 | 2026-09-05 03:55:25 | 47.24023 | 12.58907 | 123° | 18km/h | 25082m | -40.9m/s | -52.1°C | 4.4% | 0hPa | 2.4V | 00:00:00 | 02:09:21 | 00:00:00 | |
| IN3HCDX | 2026-09-05 03:55:23 | 47.24025 | 12.58902 | 131° | 18km/h | 25123m | -41.4m/s | -52.1°C | 1.3% | 0hPa | 2.4V | 08:29:00 | 00:00:00 | 00:00:00 | |
| PG1ADW-2 | 2026-09-05 03:55:21 | 47.24035 | 12.58886 | 133° | 16km/h | 25247m | -41.9m/s | -51.4°C | 4.2% | 0hPa | 2.4V | 00:00:00 | 00:00:00 | 00:00:00 | |
| OE5MMP-10 | 2026-09-05 03:55:20 | 47.24038 | 12.58881 | 133° | 20km/h | 25289m | -42.1m/s | -51.3°C | 4.1% | 0hPa | 2.4V | 08:29:00 | 02:09:16 | 00:00:00 | |
| DB0UT-7 | 2026-09-05 03:55:19 | 47.24041 | 12.58877 | 139° | 18km/h | 25331m | -42.0m/s | -51.0°C | 4.0% | 0hPa | 2.4V | 08:29:00 | 02:09:15 | 00:00:00 | |
| OE5HKT-10 | 2026-09-05 03:55:17 | 47.24049 | 12.58870 | 154° | 22km/h | 25414m | -42.4m/s | -50.5°C | 3.8% | 0hPa | 2.6V | 08:29:00 | 00:00:00 | 00:00:00 | |
| OM5KV | 2026-09-05 03:55:16 | 47.24049 | 12.58870 | 154° | 18km/h | 25414m | -42.5m/s | -50.6°C | 1.1% | 0hPa | 2.4V | 08:29:00 | 00:00:00 | 00:00:00 | |
| BAUMI2-15 | 2026-09-05 03:55:15 | 47.24058 | 12.58864 | 159° | 24km/h | 25498m | -42.2m/s | -50.5°C | 3.9% | 0hPa | 2.4V | 00:00:00 | 02:09:11 | 00:00:00 | |
| 9A1FER-10 | 2026-09-05 03:55:13 | 47.24068 | 12.58858 | 161° | 24km/h | 25582m | -42.4m/s | -50.2°C | 3.8% | 0hPa | 2.4V | 00:00:00 | 02:09:09 | 00:00:00 | |
| 9A1FER-3 | 2026-09-05 03:55:12 | 47.24074 | 12.58856 | 166° | 24km/h | 25624m | -42.2m/s | -50.1°C | 3.7% | 0hPa | 2.4V | 00:00:00 | 02:09:08 | 00:00:00 | |
| DO3MHA-12 | 2026-09-05 03:55:10 | 47.24087 | 12.58853 | 177° | 27km/h | 25709m | -43.5m/s | -49.7°C | 3.6% | 0hPa | 2.4V | 00:00:00 | 02:09:06 | 00:00:00 | |
| OM5KV | 2026-09-05 03:55:09 | 47.24087 | 12.58853 | 178° | 27km/h | 25709m | -43.6m/s | -49.8°C | 1.0% | 0hPa | 2.4V | 00:00:00 | 00:00:00 | 00:00:00 | |
| DB0NH | 2026-09-05 03:55:08 | 47.24102 | 12.58852 | 180° | 13km/h | 25797m | -44.0m/s | -49.6°C | 3.6% | 0hPa | 2.4V | 00:00:00 | 02:09:04 | 08:30:00 | |
| IN3HCDX1 | 2026-09-05 03:55:06 | 47.24109 | 12.58853 | 185° | 27km/h | 25841m | -43.8m/s | -49.8°C | 1.1% | 0hPa | 2.6V | 00:00:00 | 00:00:00 | 00:00:00 | |
| DO3MHA-11 | 2026-09-05 03:55:05 | 47.24121 | 12.58856 | 199° | 18km/h | 25928m | -43.1m/s | -49.8°C | 3.7% | 0hPa | 2.6V | 00:00:00 | 02:09:01 | 00:00:00 | |
| OM5KV | 2026-09-05 03:55:04 | 47.24121 | 12.58856 | 199° | 22km/h | 25928m | -43.2m/s | -49.9°C | 1.1% | 0hPa | 2.4V | 00:00:00 | 00:00:00 | 00:00:00 | |
| PETON7-10 | 2026-09-05 03:55:03 | 47.24131 | 12.58862 | 210° | 9km/h | 26014m | -42.9m/s | -50.2°C | 3.9% | 0hPa | 2.4V | 00:00:00 | 00:00:00 | 00:00:00 | |
| OE5DRO-10 | 2026-09-05 03:55:02 | 47.24136 | 12.58867 | 216° | 11km/h | 26056m | -43.0m/s | -50.3°C | 3.9% | 0hPa | 2.4V | 00:00:00 | 00:00:00 | 00:00:00 | |
| DG1MFX-10 | 2026-09-05 03:55:01 | 47.24136 | 12.58867 | 217° | 24km/h | 26056m | -43.1m/s | -50.3°C | 1.2% | 0hPa | 2.4V | 00:00:00 | 00:00:00 | 00:00:00 | |
| BAUMI2-15 | 2026-09-05 03:55:00 | 47.24145 | 12.58877 | 222° | 16km/h | 26143m | -44.1m/s | -50.1°C | 3.8% | 0hPa | 2.4V | 00:00:00 | 02:08:56 | 00:00:00 | |
| OE3JTB-15 | 2026-09-05 03:54:59 | 47.24148 | 12.58882 | 233° | 7km/h | 26186m | -43.8m/s | -50.1°C | 3.8% | 0hPa | 2.4V | 00:00:00 | 00:00:00 | 08:30:00 | |
| 9A1FER-10 | 2026-09-05 03:54:58 | 47.24150 | 12.58887 | 249° | 7km/h | 26230m | -43.6m/s | -50.0°C | 3.8% | 0hPa | 2.5V | 00:00:00 | 02:08:54 | 00:00:00 | |
| 9A1FER-3 | 2026-09-05 03:54:57 | 47.24151 | 12.58892 | 252° | 7km/h | 26273m | -43.0m/s | -50.0°C | 3.7% | 0hPa | 2.6V | 00:00:00 | 02:08:53 | 00:00:00 | |
| OE5HKT-10 | 2026-09-05 03:54:56 | 47.24151 | 12.58896 | 260° | 7km/h | 26317m | -42.6m/s | -50.0°C | 3.7% | 0hPa | 2.6V | 00:00:00 | 00:00:00 | 00:00:00 | |
| DO3MHA-11 | 2026-09-05 03:54:55 | 47.24151 | 12.58901 | 266° | 7km/h | 26359m | -42.3m/s | -49.9°C | 3.6% | 0hPa | 2.6V | 00:00:00 | 02:08:51 | 00:00:00 | |
| OE5MMP-10 | 2026-09-05 03:54:50 | 47.24151 | 12.58915 | 325° | 5km/h | 26576m | -44.5m/s | -49.4°C | 3.4% | 0hPa | 2.6V | 00:00:00 | 02:08:46 | 00:00:00 | |
| IW2NTF | 2026-09-05 03:54:49 | 47.24147 | 12.58917 | 21° | 5km/h | 26785m | -22.8m/s | -49.8°C | 3.5% | 0hPa | 2.6V | 08:30:00 | 02:08:40 | 00:00:00 | |
| DB0UT-7 | 2026-09-05 03:54:49 | 47.24151 | 12.58917 | 292° | 5km/h | 26619m | -41.1m/s | -49.4°C | 3.4% | 0hPa | 2.6V | 00:00:00 | 00:00:00 | 00:00:00 | |
| OE5DXL-15 | 2026-09-05 03:54:47 | 47.24150 | 12.58919 | 343° | 7km/h | 26695m | -35.2m/s | -49.5°C | 3.4% | 0hPa | 2.6V | 00:00:00 | 00:00:00 | 00:00:00 | |
| OM5KV | 2026-09-05 03:54:46 | 47.24150 | 12.58919 | 344° | 4km/h | 26695m | -35.3m/s | -49.5°C | 1.0% | 0hPa | 2.6V | 00:00:00 | 00:00:00 | 00:00:00 | |
| DO3MHA-11 | 2026-09-05 03:54:45 | 47.24148 | 12.58918 | 30° | 5km/h | 26760m | -28.3m/s | -49.6°C | 3.5% | 0hPa | 2.6V | 00:00:00 | 02:08:41 | 00:00:00 | |
| 9A1FER-10 | 2026-09-05 03:54:43 | 47.24145 | 12.58916 | 22° | 5km/h | 26804m | -15.9m/s | -49.8°C | 3.6% | 0hPa | 2.6V | 00:00:00 | 02:08:39 | 00:00:00 | |
| 9A1FER-3 | 2026-09-05 03:54:42 | 47.24143 | 12.58915 | 19° | 5km/h | 26816m | -6.7m/s | -49.9°C | 3.7% | 0hPa | 2.6V | 00:00:00 | 02:08:38 | 00:00:00 | |
| DG1MFX-10 | 2026-09-05 03:54:41 | 47.24143 | 12.58915 | 20° | 7km/h | 26816m | -6.8m/s | -49.9°C | 1.1% | 0hPa | 2.6V | 00:00:00 | 00:00:00 | 00:00:00 | |
| IW2NTF | 2026-09-05 03:54:40 | 47.24134 | 12.58907 | 15° | 5km/h | 26788m | 3.9m/s | -49.9°C | 3.7% | 0hPa | 2.6V | 08:30:00 | 02:08:30 | 00:00:00 | |
| OE8JPQ-2 | 2026-09-05 03:54:39 | 47.24138 | 12.58912 | 23° | 5km/h | 26809m | 5.2m/s | -49.9°C | 3.7% | 0hPa | 2.5V | 00:00:00 | 00:00:00 | 00:00:00 | |
| DB0NH | 2026-09-05 03:54:38 | 47.24137 | 12.58912 | 51° | 7km/h | 26805m | 4.1m/s | -49.9°C | 3.7% | 0hPa | 2.6V | 00:00:00 | 02:08:34 | 00:00:00 | |
| OM5KV | 2026-09-05 03:54:37 | 47.24137 | 12.58912 | 52° | 4km/h | 26805m | 4.2m/s | -49.9°C | 1.0% | 0hPa | 2.6V | 00:00:00 | 00:00:00 | 00:00:00 | |
| OE5HKT-10 | 2026-09-05 03:54:35 | 47.24136 | 12.58908 | 38° | 7km/h | 26793m | 4.9m/s | -49.9°C | 3.6% | 0hPa | 2.6V | 00:00:00 | 02:08:31 | 00:00:00 | |
| DF7PN | 2026-09-05 03:54:32 | 47.24131 | 12.58907 | 6° | 5km/h | 26780m | 4.6m/s | -49.9°C | -1.0% | -1.0hPa | 2.6V | 00:00:00 | 00:00:00 | 00:00:00 | |
| OE5REO-15 | 2026-09-05 03:54:31 | 47.24131 | 12.58907 | 8° | 5km/h | 26780m | 4.6m/s | -49.9°C | 1.0% | 0hPa | 2.6V | 00:00:00 | 00:00:00 | 00:00:00 | |
| OE5MMP-10 | 2026-09-05 03:54:30 | 47.24130 | 12.58907 | 336° | 5km/h | 26771m | 4.2m/s | -49.9°C | 3.7% | 0hPa | 2.6V | 00:00:00 | 02:08:26 | 00:00:00 | |
| S52SK | 2026-09-05 03:54:29 | 47.24130 | 12.58907 | 0° | 0km/h | 26771m | 4.3m/s | -49.9°C | 1.1% | 0hPa | 2.6V | 00:00:00 | 00:00:00 | 00:00:00 | |
| 9A1FER-10 | 2026-09-05 03:54:28 | 47.24128 | 12.58908 | 345° | 7km/h | 26762m | 4.9m/s | -49.9°C | 3.7% | 0hPa | 2.6V | 00:00:00 | 02:08:24 | 00:00:00 | |
| 9A1FER-3 | 2026-09-05 03:54:27 | 47.24127 | 12.58908 | 352° | 9km/h | 26757m | 3.9m/s | -49.9°C | 3.7% | 0hPa | 2.6V | 00:00:00 | 02:08:23 | 00:00:00 | |
| IW2NTF | 2026-09-05 03:54:26 | 47.24116 | 12.58906 | 353° | 11km/h | 26730m | 4.6m/s | -50°C | 3.7% | 0hPa | 2.6V | 08:30:00 | 02:08:17 | 00:00:00 | |
| PETON7-10 | 2026-09-05 03:54:26 | 47.24125 | 12.58908 | 1° | 9km/h | 26754m | 4.0m/s | -49.9°C | 3.6% | 0hPa | 2.5V | 00:00:00 | 00:00:00 | 00:00:00 | |
| DO3MHA-11 | 2026-09-05 03:54:25 | 47.24123 | 12.58908 | 11° | 9km/h | 26749m | 5.2m/s | -49.9°C | 3.6% | 0hPa | 2.5V | 00:00:00 | 02:08:21 | 00:00:00 | |
| OE5DRO-10 | 2026-09-05 03:54:24 | 47.24121 | 12.58908 | 27° | 9km/h | 26744m | 4.2m/s | -49.9°C | 3.6% | 0hPa | 2.5V | 00:00:00 | 00:00:00 | 00:00:00 | |
| NBG1-10 | 2026-09-05 03:54:23 | 47.24120 | 12.58906 | 25° | 11km/h | 26740m | 4.1m/s | -49.9°C | 3.7% | 0hPa | 2.6V | 00:00:00 | 02:08:19 | 00:00:00 | |
| DG1MFX-10 | 2026-09-05 03:54:21 | 47.24118 | 12.58906 | 8° | 9km/h | 26735m | 5.1m/s | -50.0°C | 1.1% | 0hPa | 2.5V | 00:00:00 | 00:00:00 | 00:00:00 | |
| OE5MMP-10 | 2026-09-05 03:54:20 | 47.24112 | 12.58907 | 343° | 9km/h | 26726m | 3.7m/s | -50.0°C | 3.7% | 0hPa | 2.5V | 00:00:00 | 02:08:16 | 00:00:00 | |
| DB0UT-7 | 2026-09-05 03:54:19 | 47.24110 | 12.58908 | 336° | 11km/h | 26722m | 4.4m/s | -50.0°C | 3.7% | 0hPa | 2.5V | 00:00:00 | 02:08:15 | 00:00:00 | |
| S52SK | 2026-09-05 03:54:18 | 47.24110 | 12.58908 | 336° | 13km/h | 26722m | 4.4m/s | -50.1°C | 1.1% | 0hPa | 2.5V | 00:00:00 | 00:00:00 | 00:00:00 | |
| OE5DXL-15 | 2026-09-05 03:54:17 | 47.24106 | 12.58912 | 313° | 11km/h | 26713m | 4.5m/s | -50.0°C | 3.7% | 0hPa | 2.5V | 00:00:00 | 00:00:00 | 00:00:00 | |
| PETON7-10 | 2026-09-05 03:54:16 | 47.24105 | 12.58914 | 309° | 11km/h | 26708m | 3.9m/s | -50.0°C | 3.7% | 0hPa | 2.5V | 00:00:00 | 00:00:00 | 08:30:00 | |
| DO3MHA-11 | 2026-09-05 03:54:15 | 47.24104 | 12.58915 | 320° | 11km/h | 26704m | 4.8m/s | -50.0°C | 3.7% | 0hPa | 2.5V | 00:00:00 | 02:08:11 | 00:00:00 | |
| IW2NTF | 2026-09-05 03:54:14 | 47.24093 | 12.58930 | 293° | 11km/h | 26675m | 4m/s | -50.1°C | 3.7% | 0hPa | 2.5V | 08:30:00 | 02:08:05 | 00:00:00 | |
| OE5HKT-10 | 2026-09-05 03:54:14 | 47.24102 | 12.58917 | 329° | 11km/h | 26699m | 5.0m/s | -50.0°C | 3.7% | 0hPa | 2.6V | 00:00:00 | 00:00:00 | 00:00:00 | |
| 9A1FER-10 | 2026-09-05 03:54:13 | 47.24100 | 12.58919 | 327° | 11km/h | 26695m | 4.0m/s | -50.0°C | 3.7% | 0hPa | 2.6V | 00:00:00 | 02:08:09 | 00:00:00 | |
| 9A1FER-3 | 2026-09-05 03:54:12 | 47.24098 | 12.58921 | 324° | 11km/h | 26690m | 4.3m/s | -50.1°C | 3.7% | 0hPa | 2.5V | 00:00:00 | 02:08:08 | 00:00:00 | |
| S52SK | 2026-09-05 03:54:11 | 47.24098 | 12.58921 | 324° | 11km/h | 26690m | 4.3m/s | -50.1°C | 1.0% | 0hPa | 2.5V | 00:00:00 | 00:00:00 | 00:00:00 | |
| OE5MMP-10 | 2026-09-05 03:54:10 | 47.24094 | 12.58927 | 301° | 13km/h | 26680m | 4.8m/s | -50.1°C | 3.7% | 0hPa | 2.5V | 00:00:00 | 02:08:06 | 00:00:00 | |
| OM5KV | 2026-09-05 03:54:09 | 47.24094 | 12.58926 | 301° | 11km/h | 26680m | 4.8m/s | -50.1°C | 0% | 0hPa | 2.5V | 00:00:00 | 00:00:00 | 00:00:00 | |
| DB0NH | 2026-09-05 03:54:08 | 47.24092 | 12.58934 | 296° | 13km/h | 26672m | 4.6m/s | -50.1°C | 3.7% | 0hPa | 2.5V | 00:00:00 | 02:08:04 | 00:00:00 | |
| OM5KV | 2026-09-05 03:54:07 | 47.24092 | 12.58934 | 297° | 13km/h | 26672m | 4.7m/s | 0°C | 0% | 0hPa | 2.5V | 00:00:00 | 00:00:00 | 00:00:00 | |
| OE5WHR-10 | 2026-09-05 03:54:05 | 47.24084 | 12.58946 | 322° | 13km/h | 26657m | 3.7m/s | -50.1°C | 3.7% | 0hPa | 2.5V | 00:00:00 | 00:00:00 | 00:00:00 | |
| PG1ADW-2 | 2026-09-05 03:54:04 | 47.24082 | 12.58949 | 318° | 20km/h | 26653m | 4.9m/s | -50.1°C | 3.7% | 0hPa | 2.5V | 00:00:00 | 02:08:00 | 00:00:00 | |
| IW2NTF | 2026-09-05 03:54:01 | 47.24078 | 12.58977 | 269° | 11km/h | 26613m | 4.6m/s | -50.4°C | 3.7% | 0hPa | 2.5V | 08:30:00 | 02:07:52 | 00:00:00 | |
| OE3JTB-15 | 2026-09-05 03:54:01 | 47.24079 | 12.58959 | 270° | 13km/h | 26638m | 4.7m/s | -50.2°C | 3.7% | 0hPa | 2.5V | 00:00:00 | 02:07:57 | 00:00:00 | |
| DO3MHA-12 | 2026-09-05 03:54:00 | 47.24079 | 12.58962 | 276° | 13km/h | 26633m | 5.2m/s | -50.2°C | 3.7% | 0hPa | 2.5V | 00:00:00 | 02:07:56 | 00:00:00 | |
| OE8JPQ-2 | 2026-09-05 03:53:59 | 47.24078 | 12.58965 | 286° | 13km/h | 26628m | 4.2m/s | -50.3°C | 3.7% | 0hPa | 2.5V | 00:00:00 | 02:07:55 | 00:00:00 | |
| 9A1FER-10 | 2026-09-05 03:53:58 | 47.24078 | 12.58969 | 278° | 15km/h | 26624m | 4.4m/s | -50.3°C | 3.7% | 0hPa | 2.5V | 00:00:00 | 02:07:54 | 00:00:00 | |
| 9A1FER-3 | 2026-09-05 03:53:57 | 47.24077 | 12.58972 | 273° | 15km/h | 26619m | 5.5m/s | -50.3°C | 3.7% | 0hPa | 2.5V | 00:00:00 | 02:07:53 | 00:00:00 | |
| OM5KV | 2026-09-05 03:53:56 | 47.24077 | 12.58972 | 274° | 11km/h | 26619m | 5.6m/s | -50.4°C | 0% | 0hPa | 2.5V | 00:00:00 | 00:00:00 | 00:00:00 | |
| DO3MHA-11 | 2026-09-05 03:53:55 | 47.24077 | 12.58981 | 280° | 15km/h | 26610m | 3.7m/s | -50.3°C | 3.7% | 0hPa | 2.5V | 00:00:00 | 02:07:51 | 00:00:00 | |
| OE5HKT-10 | 2026-09-05 03:53:53 | 47.24074 | 12.58990 | 307° | 13km/h | 26599m | 5.2m/s | -50.4°C | 3.7% | 0hPa | 2.5V | 00:00:00 | 00:00:00 | 00:00:00 | |
| OM5KV | 2026-09-05 03:53:52 | 47.24072 | 12.58995 | 317° | 18km/h | 26594m | 4.7m/s | 0°C | 0% | 0hPa | 2.5V | 00:00:00 | 00:00:00 | 00:00:00 | |
| OM5KV | 2026-09-05 03:53:51 | 47.24072 | 12.58995 | 317° | 18km/h | 26594m | 4.7m/s | -50.4°C | 0% | 0hPa | 2.5V | 00:00:00 | 00:00:00 | 00:00:00 | |
| NBG1-10 | 2026-09-05 03:53:50 | 47.24066 | 12.59004 | 304° | 13km/h | 26584m | 5.0m/s | -50.4°C | 3.8% | 0hPa | 2.5V | 00:00:00 | 02:07:46 | 00:00:00 | |
| IW2NTF | 2026-09-05 03:53:49 | 47.24061 | 12.59035 | 252° | 16km/h | 26553m | 4.4m/s | -50.5°C | 3.7% | 0hPa | 2.5V | 08:30:00 | 02:07:40 | 00:00:00 | |
| DB0UT-7 | 2026-09-05 03:53:49 | 47.24064 | 12.59008 | 303° | 13km/h | 26579m | 4.5m/s | -50.4°C | 3.7% | 0hPa | 2.5V | 00:00:00 | 00:00:00 | 00:00:00 | |
| OE5DXL-15 | 2026-09-05 03:53:47 | 47.24061 | 12.59018 | 292° | 13km/h | 26569m | 4.9m/s | -50.4°C | 3.7% | 0hPa | 2.6V | 00:00:00 | 02:07:43 | 00:00:00 | |
| OE5DRO-10 | 2026-09-05 03:53:46 | 47.24060 | 12.59023 | 279° | 13km/h | 26564m | 4.8m/s | -50.4°C | 3.7% | 0hPa | 2.6V | 00:00:00 | 00:00:00 | 00:00:00 | |
| PETON7-10 | 2026-09-05 03:53:45 | 47.24060 | 12.59029 | 264° | 11km/h | 26558m | 5.8m/s | -50.4°C | 3.8% | 0hPa | 2.6V | 00:00:00 | 00:00:00 | 00:00:00 | |
| OE5WHR-10 | 2026-09-05 03:53:44 | 47.24060 | 12.59035 | 253° | 11km/h | 26553m | 4.4m/s | -50.4°C | 3.7% | 0hPa | 2.6V | 00:00:00 | 02:07:40 | 00:00:00 | |
| 9A1FER-10 | 2026-09-05 03:53:43 | 47.24062 | 12.59040 | 255° | 11km/h | 26549m | 4.6m/s | -50.5°C | 3.7% | 0hPa | 2.6V | 00:00:00 | 02:07:39 | 00:00:00 | |
| DL6DJ-15 | 2026-09-05 03:53:42 | 47.24062 | 12.59049 | 293° | 9km/h | 26538m | 4.3m/s | -50.5°C | 1.0% | -1.0hPa | 2.6V | 00:00:00 | 00:00:00 | 00:00:00 | |
| IW2NTF | 2026-09-05 03:53:38 | 47.24054 | 12.59075 | 277° | 15km/h | 26499m | 4.6m/s | -50.9°C | 3.9% | 0hPa | 2.6V | 08:30:00 | 02:07:29 | 00:00:00 | |
| DB0NH | 2026-09-05 03:53:38 | 47.24057 | 12.59057 | 317° | 15km/h | 26525m | 5.5m/s | -50.6°C | 3.8% | 0hPa | 2.5V | 00:00:00 | 02:07:34 | 00:00:00 | |
| DO3MHA-11 | 2026-09-05 03:53:35 | 47.24055 | 12.59065 | 278° | 13km/h | 26510m | 5.4m/s | -50.8°C | 3.9% | 0hPa | 2.5V | 00:00:00 | 02:07:31 | 00:00:00 | |
| OE5HKT-10 | 2026-09-05 03:53:32 | 47.24054 | 12.59080 | 272° | 15km/h | 26495m | 5.1m/s | -50.8°C | 3.9% | 0hPa | 2.5V | 00:00:00 | 02:07:28 | 00:00:00 | |
| OE5MMP-10 | 2026-09-05 03:53:30 | 47.24055 | 12.59089 | 245° | 13km/h | 26484m | 4.7m/s | -50.8°C | 3.9% | 0hPa | 2.5V | 00:00:00 | 02:07:26 | 00:00:00 | |
| OE5REO-15 | 2026-09-05 03:53:29 | 47.24055 | 12.59089 | 245° | 11km/h | 26484m | 4.7m/s | -50.8°C | 1.1% | 0hPa | 2.5V | 00:00:00 | 00:00:00 | 00:00:00 | |
| 9A1FER-10 | 2026-09-05 03:53:28 | 47.24057 | 12.59097 | 256° | 15km/h | 26474m | 5.7m/s | -50.7°C | 3.8% | 0hPa | 2.5V | 00:00:00 | 02:07:24 | 08:30:00 | |
| OE5DRO-10 | 2026-09-05 03:53:27 | 47.24058 | 12.59101 | 263° | 15km/h | 26469m | 4.9m/s | -50.7°C | 3.8% | 0hPa | 2.5V | 00:00:00 | 00:00:00 | 00:00:00 | |
| 9A1FER-3 | 2026-09-05 03:53:26 | 47.24058 | 12.59106 | 264° | 15km/h | 26464m | 4.5m/s | -50.7°C | 3.8% | 0hPa | 2.5V | 00:00:00 | 02:07:22 | 00:00:00 | |
| DO3MHA-11 | 2026-09-05 03:53:25 | 47.24059 | 12.59111 | 256° | 15km/h | 26459m | 6.1m/s | -50.7°C | 3.8% | 0hPa | 2.5V | 00:00:00 | 02:07:21 | 00:00:00 | |
| OE5WHR-10 | 2026-09-05 03:53:22 | 47.24062 | 12.59126 | 257° | 18km/h | 26442m | 5.7m/s | -50.6°C | 3.7% | 0hPa | 2.5V | 00:00:00 | 00:00:00 | 08:30:00 | |
| HARRO8 | 2026-09-05 03:53:21 | 47.24063 | 12.59131 | 267° | 15km/h | 26437m | 5.1m/s | -50.6°C | -1.0% | -1.0hPa | 2.6V | 00:00:00 | 00:00:00 | 00:00:00 | |
| DO3MHA-12 | 2026-09-05 03:53:20 | 47.24063 | 12.59137 | 267° | 15km/h | 26432m | 4.7m/s | -50.6°C | 3.8% | 0hPa | 2.6V | 00:00:00 | 02:07:16 | 00:00:00 | |
| IW2NTF | 2026-09-05 03:53:19 | 47.24075 | 12.59166 | 236° | 15km/h | 26400m | 5.1m/s | -50.6°C | 3.8% | 0hPa | 2.5V | 08:30:00 | 02:07:10 | 00:00:00 | |
| DB0UT-7 | 2026-09-05 03:53:19 | 47.24063 | 12.59143 | 256° | 20km/h | 26426m | 5.7m/s | -50.6°C | 3.8% | 0hPa | 2.6V | 00:00:00 | 02:07:15 | 00:00:00 | |
| IN3HCDX | 2026-09-05 03:53:18 | 47.24063 | 12.59143 | 257° | 15km/h | 26426m | 5.7m/s | -50.7°C | 1.1% | 0hPa | 2.6V | 00:00:00 | 00:00:00 | 00:00:00 | |
| NBG1-10 | 2026-09-05 03:53:17 | 47.24067 | 12.59153 | 227° | 22km/h | 26416m | 4.3m/s | -50.6°C | 3.8% | 0hPa | 2.6V | 00:00:00 | 02:07:13 | 00:00:00 | |
| DO3MHA-11 | 2026-09-05 03:53:15 | 47.24073 | 12.59161 | 231° | 16km/h | 26406m | 5.9m/s | -50.6°C | 3.8% | 0hPa | 2.6V | 00:00:00 | 02:07:11 | 00:00:00 | |
| 9A1FER-10 | 2026-09-05 03:53:13 | 47.24077 | 12.59170 | 243° | 20km/h | 26395m | 4.9m/s | -50.6°C | 3.8% | 0hPa | 2.6V | 00:00:00 | 02:07:09 | 00:00:00 | |
| DL6DJ-15 | 2026-09-05 03:53:11 | 47.24084 | 12.59184 | 225° | 16km/h | 26379m | 5.2m/s | -50.7°C | 1.0% | -1.0hPa | 2.6V | 00:00:00 | 00:00:00 | 00:00:00 | |
| OE5MMP-10 | 2026-09-05 03:53:10 | 47.24084 | 12.59184 | 226° | 22km/h | 26379m | 5.2m/s | -50.6°C | 3.8% | 0hPa | 2.6V | 00:00:00 | 02:07:06 | 00:00:00 | |
| DB0NH | 2026-09-05 03:53:08 | 47.24090 | 12.59194 | 234° | 24km/h | 26368m | 5.3m/s | -50.6°C | 3.8% | 0hPa | 2.6V | 00:00:00 | 02:07:04 | 00:00:00 | |
| DG1MJG | 2026-09-05 03:53:07 | 47.24090 | 12.59194 | 234° | 18km/h | 26368m | 5.3m/s | -50.7°C | 1.1% | 0hPa | 2.6V | 00:00:00 | 00:00:00 | 00:00:00 | |
| OM5KV | 2026-09-05 03:53:06 | 47.24093 | 12.59199 | 238° | 18km/h | 26364m | 4.1m/s | 0°C | 0% | 0hPa | 2.6V | 00:00:00 | 00:00:00 | 00:00:00 | |
| DO3MHA-11 | 2026-09-05 03:53:05 | 47.24099 | 12.59211 | 224° | 24km/h | 26354m | 6.4m/s | -50.6°C | 3.8% | 0hPa | 2.6V | 00:00:00 | 02:07:01 | 08:30:00 | |
| PETON7-10 | 2026-09-05 03:53:04 | 47.24104 | 12.59217 | 217° | 22km/h | 26348m | 5.3m/s | -50.7°C | 3.8% | 0hPa | 2.5V | 00:00:00 | 00:00:00 | 00:00:00 | |
| OE3JTB-15 | 2026-09-05 03:53:03 | 47.24110 | 12.59223 | 214° | 24km/h | 26343m | 4.7m/s | -50.7°C | 3.9% | 0hPa | 2.5V | 00:00:00 | 00:00:00 | 00:00:00 | |
| IN3HCDX1 | 2026-09-05 03:53:02 | 47.24110 | 12.59223 | 215° | 27km/h | 26343m | 4.7m/s | -50.7°C | 1.1% | 0hPa | 2.5V | 00:00:00 | 00:00:00 | 00:00:00 | |
| OE5WHR-10 | 2026-09-05 03:53:01 | 47.24120 | 12.59234 | 223° | 24km/h | 26332m | 5.7m/s | -50.7°C | 3.9% | 0hPa | 2.5V | 00:00:00 | 00:00:00 | 00:00:00 | |
| DO3MHA-12 | 2026-09-05 03:53:00 | 47.24124 | 12.59240 | 229° | 20km/h | 26327m | 4.6m/s | -50.7°C | 3.8% | 0hPa | 2.5V | 00:00:00 | 02:06:56 | 00:00:00 | |
| OE8JPQ-2 | 2026-09-05 03:52:59 | 47.24128 | 12.59247 | 230° | 24km/h | 26322m | 5.0m/s | -50.7°C | 3.9% | 0hPa | 2.5V | 00:00:00 | 02:06:55 | 00:00:00 | |
| IW2NTF | 2026-09-05 03:52:58 | 47.24152 | 12.59271 | 228° | 18km/h | 26290m | 5.3m/s | -50.6°C | 3.9% | 0hPa | 2.5V | 08:30:00 | 02:06:49 | 00:00:00 | |
| 9A1FER-10 | 2026-09-05 03:52:58 | 47.24131 | 12.59252 | 224° | 24km/h | 26316m | 5.9m/s | -50.7°C | 3.9% | 0hPa | 2.6V | 00:00:00 | 02:06:54 | 00:00:00 | |
| 9A1FER-3 | 2026-09-05 03:52:56 | 47.24140 | 12.59260 | 207° | 18km/h | 26306m | 4.5m/s | -50.6°C | 3.8% | 0hPa | 2.6V | 00:00:00 | 02:06:52 | 00:00:00 | |
| DO3MHA-11 | 2026-09-05 03:52:55 | 47.24144 | 12.59263 | 208° | 26km/h | 26301m | 4.7m/s | -50.6°C | 3.8% | 0hPa | 2.6V | 00:00:00 | 02:06:51 | 00:00:00 | |
| DO3MHA-12 | 2026-09-05 03:52:50 | 47.24162 | 12.59291 | 231° | 26km/h | 26273m | 5.8m/s | -50.6°C | 3.8% | 0hPa | 2.6V | 00:00:00 | 02:06:46 | 00:00:00 | |
| DB0UT-7 | 2026-09-05 03:52:49 | 47.24166 | 12.59299 | 231° | 26km/h | 26268m | 5.3m/s | -50.6°C | 3.8% | 0hPa | 2.6V | 00:00:00 | 00:00:00 | 00:00:00 | |
| DM0DOS-11 | 2026-09-05 03:52:48 | 47.24192 | 12.59350 | 217° | 22km/h | 26235m | 5.1m/s | 0°C | 0% | 0hPa | 2.6V | 00:00:00 | 02:06:39 | 00:00:00 | |
| OE5DXL-15 | 2026-09-05 03:52:47 | 47.24175 | 12.59317 | 239° | 24km/h | 26256m | 5.2m/s | -50.6°C | 3.9% | 0hPa | 2.5V | 00:00:00 | 00:00:00 | 00:00:00 | |
| S52SK | 2026-09-05 03:52:46 | 47.24175 | 12.59317 | 240° | 31km/h | 26256m | 5.2m/s | -50.6°C | 1.2% | 0hPa | 2.5V | 00:00:00 | 00:00:00 | 00:00:00 | |
| DO3MHA-11 | 2026-09-05 03:52:45 | 47.24183 | 12.59336 | 234° | 22km/h | 26247m | 6.0m/s | -50.6°C | 3.8% | 0hPa | 2.5V | 00:00:00 | 02:06:41 | 00:00:00 | |
| IW2NTF | 2026-09-05 03:52:44 | 47.24207 | 12.59369 | 224° | 18km/h | 26213m | 6.1m/s | -50.6°C | 3.8% | 0hPa | 2.5V | 00:00:00 | 02:06:35 | 00:00:00 | |
| NBG1-10 | 2026-09-05 03:52:44 | 47.24188 | 12.59344 | 225° | 26km/h | 26241m | 5.8m/s | -50.6°C | 3.8% | 0hPa | 2.6V | 00:00:00 | 02:06:40 | 08:30:00 | |
| 9A1FER-10 | 2026-09-05 03:52:43 | 47.24192 | 12.59349 | 218° | 24km/h | 26235m | 5.1m/s | -50.6°C | 3.8% | 0hPa | 2.6V | 00:00:00 | 02:06:39 | 00:00:00 | |
| OE5REO-15 | 2026-09-05 03:52:42 | 47.24192 | 12.59349 | 219° | 22km/h | 26235m | 5.1m/s | -50.6°C | 1.1% | 0hPa | 2.5V | 00:00:00 | 00:00:00 | 00:00:00 | |
| IN3HCDX1 | 2026-09-05 03:52:41 | 47.24197 | 12.59354 | 219° | 20km/h | 26230m | 5.6m/s | -50.6°C | 1.1% | 0hPa | 2.5V | 00:00:00 | 00:00:00 | 00:00:00 | |
| OE5WHR-10 | 2026-09-05 03:52:40 | 47.24203 | 12.59364 | 227° | 24km/h | 26219m | 5.1m/s | -50.6°C | 3.8% | 0hPa | 2.5V | 00:00:00 | 02:06:36 | 00:00:00 | |
| OE8JPQ-2 | 2026-09-05 03:52:39 | 47.24207 | 12.59369 | 225° | 24km/h | 26213m | 6.0m/s | -50.6°C | 3.8% | 0hPa | 2.5V | 00:00:00 | 00:00:00 | 00:00:00 | |
| DB0NH | 2026-09-05 03:52:38 | 47.24210 | 12.59373 | 220° | 26km/h | 26207m | 5.7m/s | -50.6°C | 3.8% | 0hPa | 2.6V | 00:00:00 | 02:06:34 | 00:00:00 | |
| DG1MJG | 2026-09-05 03:52:37 | 47.24210 | 12.59373 | 221° | 20km/h | 26207m | 5.7m/s | -50.6°C | 1.1% | 0hPa | 2.6V | 00:00:00 | 00:00:00 | 00:00:00 | |
| IW2NTF | 2026-09-05 03:52:35 | 47.24257 | 12.59432 | 199° | 27km/h | 26160m | 6m/s | -50.6°C | 3.8% | 0hPa | 2.6V | 00:00:00 | 02:06:25 | 00:00:00 | |
| OE3JTB-15 | 2026-09-05 03:52:34 | 47.24227 | 12.59401 | 234° | 27km/h | 26186m | 4.6m/s | -50.6°C | 3.8% | 0hPa | 2.5V | 00:00:00 | 02:06:30 | 00:00:00 | |
| BAUMI2-15 | 2026-09-05 03:52:30 | 47.24251 | 12.59428 | 203° | 26km/h | 26166m | 5.1m/s | -50.6°C | 3.8% | 0hPa | 2.5V | 00:00:00 | 02:06:26 | 00:00:00 | |
| OE5HKT-10 | 2026-09-05 03:52:29 | 47.24257 | 12.59432 | 200° | 26km/h | 26160m | 6.0m/s | -50.6°C | 3.8% | 0hPa | 2.5V | 00:00:00 | 02:06:25 | 00:00:00 | |
| 9A1FER-10 | 2026-09-05 03:52:28 | 47.24264 | 12.59435 | 200° | 24km/h | 26155m | 4.9m/s | -50.6°C | 3.8% | 0hPa | 2.5V | 00:00:00 | 02:06:24 | 00:00:00 | |
| OE5REO-15 | 2026-09-05 03:52:26 | 47.24269 | 12.59438 | 201° | 24km/h | 26150m | 4.8m/s | -50.7°C | 1.1% | 0hPa | 2.5V | 00:00:00 | 00:00:00 | 00:00:00 | |
| DO3MHA-11 | 2026-09-05 03:52:25 | 47.24280 | 12.59442 | 187° | 24km/h | 26139m | 5.7m/s | -50.6°C | 3.8% | 0hPa | 2.5V | 00:00:00 | 02:06:21 | 00:00:00 | |
| IW2NTF | 2026-09-05 03:52:24 | 47.24309 | 12.59460 | 203° | 24km/h | 26107m | 5.5m/s | -50.7°C | 3.9% | 0hPa | 2.5V | 00:00:00 | 02:06:15 | 00:00:00 | |
| IN3HCDX1 | 2026-09-05 03:52:21 | 47.24294 | 12.59448 | 212° | 20km/h | 26123m | 5.0m/s | -50.7°C | 1.1% | 0hPa | 2.5V | 00:00:00 | 00:00:00 | 00:00:00 | |
| OE5MMP-10 | 2026-09-05 03:52:20 | 47.24303 | 12.59456 | 210° | 27km/h | 26113m | 5.6m/s | -50.7°C | 3.9% | 0hPa | 2.5V | 00:00:00 | 02:06:16 | 08:30:00 | |
| OE5WHR-10 | 2026-09-05 03:52:19 | 47.24309 | 12.59460 | 204° | 31km/h | 26108m | 5.5m/s | -50.6°C | 3.9% | 0hPa | 2.5V | 00:00:00 | 00:00:00 | 00:00:00 | |
| DG1MFX-10 | 2026-09-05 03:52:18 | 47.24309 | 12.59460 | 204° | 24km/h | 26108m | 5.5m/s | -50.7°C | 1.2% | 0hPa | 2.6V | 00:00:00 | 00:00:00 | 00:00:00 | |
| OE5DXL-15 | 2026-09-05 03:52:17 | 47.24322 | 12.59466 | 191° | 33km/h | 26098m | 4.9m/s | -50.6°C | 3.8% | 0hPa | 2.6V | 00:00:00 | 00:00:00 | 00:00:00 | |
| BAUMI2-15 | 2026-09-05 03:52:15 | 47.24338 | 12.59470 | 190° | 29km/h | 26087m | 5.1m/s | -50.6°C | 3.8% | 0hPa | 2.6V | 00:00:00 | 02:06:11 | 00:00:00 | |
| NBG1-10 | 2026-09-05 03:52:11 | 47.24367 | 12.59469 | 178° | 33km/h | 26067m | 5.2m/s | -50.5°C | 3.8% | 0hPa | 2.6V | 00:00:00 | 02:06:07 | 00:00:00 | |
| OE5MMP-10 | 2026-09-05 03:52:10 | 47.24373 | 12.59470 | 188° | 33km/h | 26061m | 5.4m/s | -50.5°C | 3.8% | 0hPa | 2.6V | 00:00:00 | 02:06:06 | 00:00:00 | |
| PETON7-10 | 2026-09-05 03:52:09 | 47.24380 | 12.59472 | 197° | 35km/h | 26056m | 5.1m/s | -50.5°C | 3.8% | 0hPa | 2.6V | 00:00:00 | 00:00:00 | 00:00:00 | |
| OE5HKT-10 | 2026-09-05 03:52:08 | 47.24388 | 12.59475 | 198° | 35km/h | 26051m | 4.7m/s | -50.5°C | 3.8% | 0hPa | 2.6V | 00:00:00 | 00:00:00 | 08:30:00 | |
| DG1MJG | 2026-09-05 03:52:06 | 47.24396 | 12.59478 | 195° | 31km/h | 26046m | 5.9m/s | -50.5°C | 1.1% | 0hPa | 2.5V | 00:00:00 | 00:00:00 | 00:00:00 | |
| DO3MHA-11 | 2026-09-05 03:52:05 | 47.24412 | 12.59483 | 188° | 35km/h | 26036m | 4.5m/s | -50.4°C | 3.8% | 0hPa | 2.5V | 00:00:00 | 02:06:01 | 00:00:00 | |
| OE5MMP-10 | 2026-09-05 03:52:00 | 47.24456 | 12.59489 | 176° | 37km/h | 26011m | 4.2m/s | -50.4°C | 3.8% | 0hPa | 2.5V | 00:00:00 | 02:05:56 | 00:00:00 | |
| OE8JPQ-2 | 2026-09-05 03:51:59 | 47.24464 | 12.59488 | 177° | 33km/h | 26006m | 4.8m/s | -50.3°C | 3.8% | 0hPa | 2.5V | 00:00:00 | 02:05:55 | 00:00:00 | |
| IW2NTF | 2026-09-05 03:51:56 | 47.24537 | 12.59494 | 182° | 38km/h | 25965m | 5.2m/s | -50.2°C | 3.8% | 0hPa | 2.5V | 00:00:00 | 02:05:47 | 00:00:00 | |
| OE5REO-15 | 2026-09-05 03:51:56 | 47.24480 | 12.59489 | 189° | 33km/h | 25995m | 5.0m/s | -50.3°C | 1.1% | 0hPa | 2.5V | 00:00:00 | 00:00:00 | 00:00:00 | |
| 9A1FER-10 | 2026-09-05 03:51:55 | 47.24498 | 12.59493 | 186° | 35km/h | 25985m | 6.0m/s | -50.2°C | 3.8% | 0hPa | 2.5V | 00:00:00 | 02:05:51 | 00:00:00 | |
| OE5DRO-10 | 2026-09-05 03:51:52 | 47.24527 | 12.59494 | 181° | 35km/h | 25970m | 4.5m/s | -50.2°C | 3.8% | 0hPa | 2.5V | 00:00:00 | 00:00:00 | 00:00:00 | |
| BAUMI2-15 | 2026-09-05 03:51:50 | 47.24546 | 12.59495 | 186° | 29km/h | 25960m | 4.3m/s | -50.2°C | 3.8% | 0hPa | 2.5V | 00:00:00 | 02:05:46 | 00:00:00 | |
| DB0UT-7 | 2026-09-05 03:51:49 | 47.24554 | 12.59496 | 183° | 33km/h | 25956m | 4.3m/s | -50.1°C | 3.9% | 0hPa | 2.6V | 00:00:00 | 00:00:00 | 00:00:00 | |
| OE5HKT-10 | 2026-09-05 03:51:47 | 47.24568 | 12.59495 | 170° | 33km/h | 25946m | 5.1m/s | -50.1°C | 3.8% | 0hPa | 2.6V | 00:00:00 | 00:00:00 | 00:00:00 | |
| IW2NTF | 2026-09-05 03:51:47 | 47.24614 | 12.59487 | 180° | 37km/h | 25917m | 4.7m/s | -50°C | 3.8% | 0hPa | 2.5V | 00:00:00 | 02:05:37 | 00:00:00 | |
| DO3MHA-11 | 2026-09-05 03:51:45 | 47.24582 | 12.59490 | 168° | 35km/h | 25936m | 4.7m/s | -50.0°C | 3.8% | 0hPa | 2.6V | 00:00:00 | 02:05:41 | 00:00:00 | |
| DM0DOS-11 | 2026-09-05 03:51:43 | 47.24642 | 12.59483 | 170° | 38km/h | 25902m | 4.4m/s | 0°C | 0% | 0hPa | 2.6V | 00:00:00 | 02:05:34 | 00:00:00 | |
| OE5REO-15 | 2026-09-05 03:51:41 | 47.24605 | 12.59487 | 182° | 33km/h | 25922m | 4.3m/s | -50.0°C | 1.1% | 0hPa | 2.6V | 00:00:00 | 00:00:00 | 00:00:00 | |
| DO3MHA-12 | 2026-09-05 03:51:40 | 47.24623 | 12.59487 | 177° | 35km/h | 25912m | 5.5m/s | -49.9°C | 3.8% | 0hPa | 2.6V | 00:00:00 | 02:05:36 | 00:00:00 | |
| OE8JPQ-2 | 2026-09-05 03:51:39 | 47.24632 | 12.59486 | 173° | 33km/h | 25907m | 4.7m/s | -49.9°C | 3.8% | 0hPa | 2.6V | 00:00:00 | 00:00:00 | 00:00:00 | |
| NBG1-10 | 2026-09-05 03:51:38 | 47.24642 | 12.59483 | 171° | 35km/h | 25903m | 4.3m/s | -49.8°C | 3.8% | 0hPa | 2.6V | 00:00:00 | 02:05:34 | 00:00:00 | |
| OE5WHR-10 | 2026-09-05 03:51:37 | 47.24651 | 12.59481 | 173° | 33km/h | 25898m | 5.7m/s | -49.8°C | 3.8% | 0hPa | 2.6V | 00:00:00 | 02:05:33 | 00:00:00 | |
| IW2NTF | 2026-09-05 03:51:36 | 47.24702 | 12.59469 | 161° | 29km/h | 25868m | 4.3m/s | -49.7°C | 3.7% | 0hPa | 2.6V | 00:00:00 | 02:05:27 | 00:00:00 | |
| OE3JTB-15 | 2026-09-05 03:51:36 | 47.24661 | 12.59480 | 176° | 35km/h | 25892m | 4.7m/s | -49.8°C | 3.7% | 0hPa | 2.5V | 00:00:00 | 00:00:00 | 00:00:00 | |
| DO3MHA-11 | 2026-09-05 03:51:35 | 47.24670 | 12.59479 | 177° | 31km/h | 25888m | 4.2m/s | -49.7°C | 3.7% | 0hPa | 2.5V | 00:00:00 | 02:05:31 | 08:30:00 | |
| OE5DRO-10 | 2026-09-05 03:51:33 | 47.24687 | 12.59476 | 167° | 33km/h | 25878m | 5.7m/s | -49.7°C | 3.7% | 0hPa | 2.5V | 00:00:00 | 00:00:00 | 00:00:00 | |
| OE5MMP-10 | 2026-09-05 03:51:30 | 47.24709 | 12.59466 | 166° | 33km/h | 25863m | 5.8m/s | -49.6°C | 3.7% | 0hPa | 2.5V | 00:00:00 | 02:05:26 | 00:00:00 | |
| OE5HKT-10 | 2026-09-05 03:51:26 | 47.24737 | 12.59461 | 174° | 35km/h | 25844m | 5.5m/s | -49.6°C | 3.7% | 0hPa | 2.5V | 00:00:00 | 02:05:22 | 00:00:00 | |
| IW2NTF | 2026-09-05 03:51:25 | 47.24790 | 12.59455 | 183° | 35km/h | 25816m | 4.4m/s | -49.7°C | 3.7% | 0hPa | 2.5V | 00:00:00 | 02:05:16 | 00:00:00 | |
| DO3MHA-11 | 2026-09-05 03:51:25 | 47.24745 | 12.59460 | 171° | 35km/h | 25839m | 4.3m/s | -49.6°C | 3.7% | 0hPa | 2.5V | 00:00:00 | 02:05:21 | 00:00:00 | |
| OE5MMP-10 | 2026-09-05 03:51:20 | 47.24790 | 12.59456 | 184° | 35km/h | 25816m | 4.4m/s | -49.6°C | 3.7% | 0hPa | 2.5V | 00:00:00 | 02:05:16 | 00:00:00 | |
| DB0UT-7 | 2026-09-05 03:51:19 | 47.24798 | 12.59456 | 179° | 35km/h | 25811m | 5.4m/s | -49.7°C | 3.7% | 0hPa | 2.5V | 00:00:00 | 02:05:15 | 00:00:00 | |
| OE5DXL-15 | 2026-09-05 03:51:17 | 47.24814 | 12.59453 | 174° | 35km/h | 25801m | 4.7m/s | -49.7°C | 3.7% | 0hPa | 2.5V | 00:00:00 | 00:00:00 | 00:00:00 | |
| OE5WHR-10 | 2026-09-05 03:51:16 | 47.24822 | 12.59452 | 175° | 35km/h | 25796m | 5.4m/s | -49.7°C | 3.7% | 0hPa | 2.5V | 00:00:00 | 00:00:00 | 00:00:00 | |
| 9A1FER-10 | 2026-09-05 03:51:15 | 47.24830 | 12.59451 | 175° | 37km/h | 25792m | 4.3m/s | 0°C | 0% | 0hPa | 2.5V | 00:00:00 | 02:05:11 | 00:00:00 | |
| OE5DRO-10 | 2026-09-05 03:51:14 | 47.24839 | 12.59450 | 173° | 35km/h | 25787m | 4.7m/s | -49.6°C | 3.7% | 0hPa | 2.5V | 00:00:00 | 00:00:00 | 00:00:00 | |
| OE5MMP-10 | 2026-09-05 03:51:10 | 47.24876 | 12.59440 | 177° | 37km/h | 25767m | 5.0m/s | -49.6°C | 3.7% | 0hPa | 2.5V | 00:00:00 | 02:05:06 | 00:00:00 | |
| DB0NH | 2026-09-05 03:51:08 | 47.24897 | 12.59440 | 179° | 31km/h | 25759m | 4.0m/s | -49.6°C | 3.7% | 0hPa | 2.5V | 00:00:00 | 02:05:04 | 00:00:00 | |
| OE3JTB-15 | 2026-09-05 03:51:07 | 47.24906 | 12.59439 | 175° | 31km/h | 25754m | 5.5m/s | -49.6°C | 3.6% | 0hPa | 2.5V | 00:00:00 | 02:05:03 | 00:00:00 | |
| DL6DJ-15 | 2026-09-05 03:51:06 | 47.24915 | 12.59437 | 167° | 35km/h | 25749m | 4.2m/s | -49.6°C | 1.0% | -1.0hPa | 2.5V | 00:00:00 | 00:00:00 | 00:00:00 | |
| DO3MHA-11 | 2026-09-05 03:51:05 | 47.24924 | 12.59434 | 164° | 33km/h | 25746m | 3.5m/s | -49.5°C | 3.6% | 0hPa | 2.5V | 00:00:00 | 02:05:01 | 00:00:00 | |
| BAUMI2-15 | 2026-09-05 03:51:00 | 47.24964 | 12.59421 | 170° | 33km/h | 25723m | 4.5m/s | -49.5°C | 3.6% | 0hPa | 2.5V | 00:00:00 | 02:04:56 | 00:00:00 | |
| OE8JPQ-2 | 2026-09-05 03:50:59 | 47.24973 | 12.59418 | 164° | 31km/h | 25718m | 5.5m/s | -49.5°C | 3.6% | 0hPa | 2.5V | 00:00:00 | 02:04:55 | 00:00:00 | |
| OE5WHR-10 | 2026-09-05 03:50:55 | 47.25005 | 12.59401 | 162° | 27km/h | 25698m | 4.1m/s | -49.7°C | 3.6% | 0hPa | 2.5V | 00:00:00 | 00:00:00 | 00:00:00 | |
| IW2NTF | 2026-09-05 03:50:54 | 47.25053 | 12.59369 | 159° | 33km/h | 25669m | 4.2m/s | -49.8°C | 3.6% | 0hPa | 2.5V | 00:00:00 | 02:04:45 | 00:00:00 | |
| PG1ADW-2 | 2026-09-05 03:50:54 | 47.25014 | 12.59396 | 160° | 24km/h | 25694m | 4.6m/s | -49.7°C | 3.6% | 0hPa | 2.6V | 00:00:00 | 00:00:00 | 00:00:00 | |
| PETON7-10 | 2026-09-05 03:50:53 | 47.25022 | 12.59391 | 154° | 31km/h | 25689m | 5.1m/s | -49.7°C | 3.6% | 0hPa | 2.5V | 00:00:00 | 00:00:00 | 08:30:00 | |
| DO3MHA-12 | 2026-09-05 03:50:50 | 47.25045 | 12.59374 | 158° | 29km/h | 25674m | 5.0m/s | -49.7°C | 3.6% | 0hPa | 2.5V | 00:00:00 | 02:04:46 | 08:30:00 | |
| DB0UT-7 | 2026-09-05 03:50:49 | 47.25053 | 12.59369 | 160° | 24km/h | 25670m | 4.2m/s | -49.7°C | 3.6% | 0hPa | 2.5V | 00:00:00 | 00:00:00 | 08:30:00 | |
| OE5DXL-15 | 2026-09-05 03:50:47 | 47.25068 | 12.59359 | 153° | 24km/h | 25660m | 5.1m/s | -49.7°C | 3.6% | 0hPa | 2.6V | 00:00:00 | 00:00:00 | 08:30:00 | |
| IW2NTF | 2026-09-05 03:50:45 | 47.25114 | 12.59327 | 145° | 22km/h | 25622m | 4.4m/s | -50.1°C | 3.7% | 0hPa | 2.5V | 00:00:00 | 02:04:35 | 00:00:00 | |
| OE5HKT-10 | 2026-09-05 03:50:44 | 47.25088 | 12.59345 | 161° | 22km/h | 25645m | 4.8m/s | -49.8°C | 3.6% | 0hPa | 2.5V | 00:00:00 | 00:00:00 | 00:00:00 | |
| PETON7-10 | 2026-09-05 03:50:42 | 47.25100 | 12.59340 | 161° | 22km/h | 25636m | 5.1m/s | -49.9°C | 3.6% | 0hPa | 2.5V | 00:00:00 | 00:00:00 | 00:00:00 | |
| OE5MMP-10 | 2026-09-05 03:50:40 | 47.25110 | 12.59332 | 146° | 22km/h | 25627m | 4.1m/s | -50.0°C | 3.7% | 0hPa | 2.5V | 00:00:00 | 02:04:36 | 00:00:00 | |
| OE8JPQ-2 | 2026-09-05 03:50:39 | 47.25114 | 12.59327 | 146° | 22km/h | 25622m | 4.3m/s | -50.0°C | 3.7% | 0hPa | 2.5V | 00:00:00 | 00:00:00 | 08:30:00 | |
| DB0NH | 2026-09-05 03:50:38 | 47.25119 | 12.59323 | 152° | 18km/h | 25618m | 5.4m/s | -50.0°C | 3.7% | 0hPa | 2.5V | 00:00:00 | 02:04:34 | 08:30:00 | |
| OE5DRO-10 | 2026-09-05 03:50:36 | 47.25128 | 12.59318 | 160° | 22km/h | 25608m | 4.1m/s | -50.1°C | 3.7% | 0hPa | 2.5V | 00:00:00 | 00:00:00 | 00:00:00 | |
| DO3MHA-11 | 2026-09-05 03:50:35 | 47.25133 | 12.59314 | 152° | 22km/h | 25603m | 5.6m/s | -50.1°C | 3.7% | 0hPa | 2.5V | 00:00:00 | 02:04:31 | 00:00:00 | |
| DG1MFX-10 | 2026-09-05 03:50:34 | 47.25133 | 12.59314 | 153° | 22km/h | 25603m | 5.6m/s | -50.2°C | 1.1% | 0hPa | 2.6V | 00:00:00 | 00:00:00 | 00:00:00 | |
| IW2NTF | 2026-09-05 03:50:34 | 47.25158 | 12.59283 | 117° | 24km/h | 25575m | 5.5m/s | -50.2°C | 3.8% | 0hPa | 2.5V | 00:00:00 | 02:04:25 | 00:00:00 | |
| OE5WHR-10 | 2026-09-05 03:50:33 | 47.25143 | 12.59305 | 147° | 18km/h | 25593m | 4.9m/s | -50.1°C | 3.8% | 0hPa | 2.6V | 00:00:00 | 02:04:29 | 00:00:00 | |
| NBG1-10 | 2026-09-05 03:50:32 | 47.25147 | 12.59301 | 143° | 20km/h | 25588m | 4.3m/s | -50.2°C | 3.7% | 0hPa | 2.6V | 00:00:00 | 02:04:28 | 00:00:00 | |
| OE5MMP-10 | 2026-09-05 03:50:30 | 47.25154 | 12.59290 | 125° | 22km/h | 25580m | 5.1m/s | -50.2°C | 3.7% | 0hPa | 2.6V | 00:00:00 | 02:04:26 | 00:00:00 | |
| DO3MHA-11 | 2026-09-05 03:50:25 | 47.25169 | 12.59253 | 137° | 22km/h | 25556m | 4.1m/s | -50.1°C | 3.7% | 0hPa | 2.6V | 00:00:00 | 02:04:21 | 00:00:00 | |
| OE5REO-15 | 2026-09-05 03:50:24 | 47.25169 | 12.59253 | 138° | 20km/h | 25556m | 4.2m/s | -50.1°C | 1.1% | 0hPa | 2.6V | 00:00:00 | 00:00:00 | 00:00:00 | |
| IW2NTF | 2026-09-05 03:50:23 | 47.25198 | 12.59207 | 108° | 22km/h | 25518m | 5.4m/s | -50.4°C | 3.8% | 0hPa | 2.6V | 00:00:00 | 02:04:13 | 00:00:00 | |
| OE5HKT-10 | 2026-09-05 03:50:23 | 47.25177 | 12.59243 | 144° | 20km/h | 25547m | 5.5m/s | -50.1°C | 3.7% | 0hPa | 2.5V | 00:00:00 | 02:04:19 | 00:00:00 | |
| DO3MHA-12 | 2026-09-05 03:50:20 | 47.25190 | 12.59225 | 136° | 20km/h | 25533m | 5.4m/s | -50.1°C | 3.7% | 0hPa | 2.5V | 00:00:00 | 02:04:16 | 00:00:00 | |
| OE8JPQ-2 | 2026-09-05 03:50:19 | 47.25194 | 12.59220 | 129° | 20km/h | 25528m | 4.8m/s | 0°C | 0% | 0hPa | 2.5V | 00:00:00 | 00:00:00 | 00:00:00 | |
| OE5DXL-15 | 2026-09-05 03:50:17 | 47.25198 | 12.59207 | 109° | 18km/h | 25518m | 5.4m/s | -50.3°C | 3.8% | 0hPa | 2.5V | 00:00:00 | 00:00:00 | 00:00:00 | |
| DO3MHA-11 | 2026-09-05 03:50:15 | 47.25201 | 12.59191 | 104° | 20km/h | 25509m | 4.1m/s | -50.4°C | 3.8% | 0hPa | 2.5V | 00:00:00 | 02:04:11 | 00:00:00 | |
| DG1MFX-10 | 2026-09-05 03:50:13 | 47.25203 | 12.59183 | 110° | 20km/h | 25505m | 5.1m/s | -50.5°C | 1.1% | 0hPa | 2.5V | 00:00:00 | 00:00:00 | 00:00:00 | |
| IW2NTF | 2026-09-05 03:50:12 | 47.25232 | 12.59151 | 153° | 22km/h | 25472m | 5.4m/s | -50.5°C | 3.8% | 0hPa | 2.5V | 00:00:00 | 02:04:03 | 00:00:00 | |
| PETON7-10 | 2026-09-05 03:50:11 | 47.25211 | 12.59169 | 146° | 20km/h | 25491m | 5.3m/s | -50.4°C | 3.8% | 0hPa | 2.6V | 00:00:00 | 00:00:00 | 00:00:00 | |
| OE5MMP-10 | 2026-09-05 03:50:10 | 47.25216 | 12.59164 | 147° | 20km/h | 25486m | 4.8m/s | -50.4°C | 3.8% | 0hPa | 2.6V | 00:00:00 | 02:04:06 | 00:00:00 | |
| OE3JTB-15 | 2026-09-05 03:50:09 | 47.25221 | 12.59159 | 148° | 18km/h | 25482m | 4.0m/s | -50.5°C | 3.8% | 0hPa | 2.6V | 00:00:00 | 00:00:00 | 00:00:00 | |
| OE5REO-15 | 2026-09-05 03:50:08 | 47.25221 | 12.59159 | 149° | 26km/h | 25482m | 4.1m/s | -50.5°C | 1.1% | 0hPa | 2.6V | 00:00:00 | 00:00:00 | 00:00:00 | |
| DO3MHA-11 | 2026-09-05 03:50:05 | 47.25240 | 12.59145 | 154° | 16km/h | 25464m | 3.9m/s | -50.5°C | 3.8% | 0hPa | 2.6V | 00:00:00 | 02:04:01 | 08:30:00 | |
| DL6DJ-15 | 2026-09-05 03:50:04 | 47.25244 | 12.59141 | 144° | 15km/h | 25459m | 5.3m/s | -50.6°C | 1.0% | -1.0hPa | 2.5V | 00:00:00 | 00:00:00 | 00:00:00 | |
| DG1MJG | 2026-09-05 03:50:03 | 47.25244 | 12.59142 | 146° | 16km/h | 25459m | 5.3m/s | -50.6°C | 1.1% | 0hPa | 2.5V | 00:00:00 | 00:00:00 | 00:00:00 | |
| OE5HKT-10 | 2026-09-05 03:50:02 | 47.25250 | 12.59132 | 135° | 18km/h | 25450m | 3.7m/s | -50.5°C | 3.8% | 0hPa | 2.5V | 00:00:00 | 00:00:00 | 00:00:00 | |
| IW2NTF | 2026-09-05 03:50:01 | 47.25272 | 12.59113 | 158° | 18km/h | 25421m | 4.5m/s | -50.6°C | 3.8% | 0hPa | 2.6V | 00:00:00 | 02:03:52 | 00:00:00 | |
| PETON7-10 | 2026-09-05 03:50:01 | 47.25254 | 12.59127 | 136° | 18km/h | 25446m | 4.1m/s | -50.5°C | 3.8% | 0hPa | 2.5V | 00:00:00 | 00:00:00 | 00:00:00 | |
| DO3MHA-12 | 2026-09-05 03:50:00 | 47.25257 | 12.59123 | 143° | 16km/h | 25441m | 5.5m/s | -50.6°C | 3.8% | 0hPa | 2.5V | 00:00:00 | 02:03:56 | 00:00:00 | |
| NBG1-10 | 2026-09-05 03:49:59 | 47.25260 | 12.59120 | 150° | 18km/h | 25436m | 4.6m/s | -50.6°C | 3.8% | 0hPa | 2.5V | 00:00:00 | 02:03:55 | 00:00:00 | |
| OE5DRO-10 | 2026-09-05 03:49:58 | 47.25264 | 12.59117 | 158° | 16km/h | 25431m | 4.1m/s | -50.6°C | 3.8% | 0hPa | 2.5V | 00:00:00 | 00:00:00 | 00:00:00 | |
| DO3MHA-11 | 2026-09-05 03:49:55 | 47.25276 | 12.59111 | 163° | 18km/h | 25417m | 4.9m/s | -50.6°C | 3.8% | 0hPa | 2.5V | 00:00:00 | 02:03:51 | 00:00:00 | |
| DG1MFX-10 | 2026-09-05 03:49:53 | 47.25280 | 12.59109 | 166° | 16km/h | 25412m | 4.5m/s | -50.7°C | 1.2% | 0hPa | 2.5V | 00:00:00 | 00:00:00 | 00:00:00 | |
| OE5REO-15 | 2026-09-05 03:49:52 | 47.25283 | 12.59107 | 161° | 15km/h | 25408m | 3.4m/s | -50.7°C | 1.1% | 0hPa | 2.5V | 00:00:00 | 00:00:00 | 00:00:00 | |
| IW2NTF | 2026-09-05 03:49:51 | 47.25310 | 12.59079 | 131° | 18km/h | 25375m | 5m/s | -50.7°C | 3.7% | 0hPa | 2.5V | 00:00:00 | 02:03:42 | 00:00:00 | |
| DO3MHA-12 | 2026-09-05 03:49:50 | 47.25295 | 12.59097 | 142° | 18km/h | 25394m | 4.6m/s | -50.6°C | 3.8% | 0hPa | 2.5V | 00:00:00 | 02:03:46 | 00:00:00 | |
| DB0UT-7 | 2026-09-05 03:49:49 | 47.25299 | 12.59092 | 141° | 20km/h | 25389m | 4.6m/s | -50.7°C | 3.8% | 0hPa | 2.5V | 00:00:00 | 00:00:00 | 00:00:00 | |
| OE5DXL-15 | 2026-09-05 03:49:47 | 47.25307 | 12.59083 | 140° | 20km/h | 25380m | 4.2m/s | -50.7°C | 3.8% | 0hPa | 2.5V | 00:00:00 | 00:00:00 | 00:00:00 | |
| DO3MHA-11 | 2026-09-05 03:49:45 | 47.25313 | 12.59073 | 121° | 16km/h | 25370m | 4.8m/s | -50.7°C | 3.8% | 0hPa | 2.5V | 00:00:00 | 02:03:41 | 00:00:00 | |
| IW2NTF | 2026-09-05 03:49:41 | 47.25333 | 12.59029 | 122° | 20km/h | 25328m | 5.4m/s | -50.9°C | 3.7% | 0hPa | 2.5V | 00:00:00 | 02:03:32 | 00:00:00 | |
| OE5HKT-10 | 2026-09-05 03:49:41 | 47.25321 | 12.59052 | 131° | 20km/h | 25352m | 4.3m/s | -50.7°C | 3.8% | 0hPa | 2.6V | 00:00:00 | 00:00:00 | 00:00:00 | |
| DO3MHA-12 | 2026-09-05 03:49:40 | 47.25323 | 12.59049 | 137° | 20km/h | 25348m | 4.0m/s | -50.7°C | 3.8% | 0hPa | 2.6V | 00:00:00 | 02:03:36 | 00:00:00 | |
| OE8JPQ-2 | 2026-09-05 03:49:39 | 47.25325 | 12.59046 | 131° | 20km/h | 25343m | 5.2m/s | -50.7°C | 3.7% | 0hPa | 2.6V | 00:00:00 | 00:00:00 | 00:00:00 | |
| IN3HCDX1 | 2026-09-05 03:49:38 | 47.25325 | 12.59046 | 132° | 15km/h | 25343m | 5.3m/s | -50.8°C | 0% | 0hPa | 2.5V | 00:00:00 | 00:00:00 | 00:00:00 | |
| OE5REO-15 | 2026-09-05 03:49:37 | 47.25328 | 12.59041 | 125° | 18km/h | 25338m | 4.8m/s | -50.8°C | 1.1% | 0hPa | 2.5V | 00:00:00 | 00:00:00 | 00:00:00 | |
| DO3MHA-11 | 2026-09-05 03:49:35 | 47.25336 | 12.59023 | 121° | 20km/h | 25323m | 4.3m/s | -50.8°C | 3.7% | 0hPa | 2.5V | 00:00:00 | 02:03:31 | 00:00:00 | |
| DL6DJ-15 | 2026-09-05 03:49:33 | 47.25340 | 12.59008 | 111° | 24km/h | 25314m | 5.5m/s | -50.9°C | 1.0% | -1.0hPa | 2.6V | 00:00:00 | 00:00:00 | 00:00:00 | |
| DG1MFX-10 | 2026-09-05 03:49:32 | 47.25340 | 12.59008 | 112° | 24km/h | 25314m | 5.5m/s | -50.9°C | 1.1% | 0hPa | 2.6V | 00:00:00 | 00:00:00 | 00:00:00 | |
| IW2NTF | 2026-09-05 03:49:31 | 47.25349 | 12.58959 | 109° | 22km/h | 25281m | 3.9m/s | -51.6°C | 3.9% | 0hPa | 2.6V | 00:00:00 | 02:03:22 | 00:00:00 | |
| OE5MMP-10 | 2026-09-05 03:49:30 | 47.25345 | 12.58984 | 105° | 20km/h | 25299m | 4.6m/s | -51.2°C | 3.8% | 0hPa | 2.6V | 00:00:00 | 02:03:26 | 00:00:00 | |
| PETON7-10 | 2026-09-05 03:49:29 | 47.25346 | 12.58978 | 101° | 13km/h | 25295m | 3.7m/s | -51.3°C | 3.8% | 0hPa | 2.6V | 00:00:00 | 00:00:00 | 00:00:00 | |
| PG1ADW-2 | 2026-09-05 03:49:28 | 47.25347 | 12.58972 | 100° | 15km/h | 25291m | 4.6m/s | -51.4°C | 3.9% | 0hPa | 2.6V | 00:00:00 | 00:00:00 | 00:00:00 | |
| NBG1-10 | 2026-09-05 03:49:26 | 47.25349 | 12.58959 | 110° | 24km/h | 25281m | 3.9m/s | -51.5°C | 3.9% | 0hPa | 2.6V | 00:00:00 | 02:03:22 | 00:00:00 | |
| DO3MHA-11 | 2026-09-05 03:49:25 | 47.25351 | 12.58951 | 118° | 24km/h | 25278m | 3.8m/s | -51.6°C | 3.9% | 0hPa | 2.5V | 00:00:00 | 02:03:21 | 00:00:00 | |
| IW2NTF | 2026-09-05 03:49:21 | 47.25387 | 12.58892 | 129° | 24km/h | 25233m | 4.7m/s | 0°C | 0% | 0hPa | 2.5V | 00:00:00 | 02:03:12 | 00:00:00 | |
| OE5HKT-10 | 2026-09-05 03:49:20 | 47.25371 | 12.58920 | 131° | 24km/h | 25254m | 4.9m/s | -51.7°C | 3.9% | 0hPa | 2.6V | 00:00:00 | 02:03:16 | 00:00:00 | |
| DB0UT-7 | 2026-09-05 03:49:19 | 47.25375 | 12.58912 | 131° | 22km/h | 25249m | 4.7m/s | -51.6°C | 3.9% | 0hPa | 2.6V | 00:00:00 | 02:03:15 | 00:00:00 | |
| IN3HCDX1 | 2026-09-05 03:49:18 | 47.25375 | 12.58912 | 131° | 26km/h | 25249m | 4.8m/s | 0°C | 0% | 0hPa | 2.5V | 00:00:00 | 00:00:00 | 00:00:00 | |
| OE5DXL-15 | 2026-09-05 03:49:17 | 47.25383 | 12.58899 | 133° | 22km/h | 25238m | 4.3m/s | -51.7°C | 3.9% | 0hPa | 2.5V | 00:00:00 | 00:00:00 | 00:00:00 | |
| DO3MHA-11 | 2026-09-05 03:49:15 | 47.25390 | 12.58885 | 123° | 22km/h | 25229m | 5.4m/s | -51.7°C | 3.9% | 0hPa | 2.5V | 00:00:00 | 02:03:11 | 00:00:00 | |
| IW2NTF | 2026-09-05 03:49:11 | 47.25411 | 12.58821 | 113° | 22km/h | 25183m | 4.4m/s | 0°C | 0% | 0hPa | 2.5V | 00:00:00 | 02:03:02 | 00:00:00 | |
| OE3JTB-15 | 2026-09-05 03:49:11 | 47.25401 | 12.58856 | 122° | 20km/h | 25209m | 4.3m/s | -51.7°C | 3.9% | 0hPa | 2.6V | 00:00:00 | 00:00:00 | 00:00:00 | |
| OE5MMP-10 | 2026-09-05 03:49:10 | 47.25404 | 12.58850 | 116° | 24km/h | 25204m | 5.0m/s | -51.8°C | 3.9% | 0hPa | 2.5V | 00:00:00 | 02:03:06 | 00:00:00 | |
| IN3HCDX | 2026-09-05 03:49:09 | 47.25403 | 12.58850 | 117° | 18km/h | 25204m | 5.1m/s | -51.8°C | 1.1% | 0hPa | 2.5V | 00:00:00 | 00:00:00 | 00:00:00 | |
| OE5REO-15 | 2026-09-05 03:49:06 | 47.25409 | 12.58829 | 113° | 22km/h | 25189m | 5.7m/s | -52.0°C | 1.2% | 0hPa | 2.5V | 00:00:00 | 00:00:00 | 00:00:00 | |
| DO3MHA-11 | 2026-09-05 03:49:05 | 47.25413 | 12.58814 | 113° | 26km/h | 25179m | 4.6m/s | -52.1°C | 4.0% | 0hPa | 2.5V | 00:00:00 | 02:03:01 | 00:00:00 | |
| IW2NTF | 2026-09-05 03:49:01 | 47.25428 | 12.58732 | 96° | 22km/h | 25135m | 4.9m/s | 0°C | 0% | 0hPa | 2.6V | 00:00:00 | 02:02:52 | 00:00:00 | |
| OE5DRO-10 | 2026-09-05 03:49:01 | 47.25421 | 12.58774 | 107° | 20km/h | 25160m | 5.5m/s | -52.1°C | 4.0% | 0hPa | 2.5V | 00:00:00 | 00:00:00 | 00:00:00 | |
| OE5MMP-10 | 2026-09-05 03:49:00 | 47.25423 | 12.58765 | 108° | 20km/h | 25155m | 4.6m/s | -52.2°C | 4.0% | 0hPa | 2.5V | 00:00:00 | 02:02:56 | 00:00:00 | |
| OE5HKT-10 | 2026-09-05 03:48:59 | 47.25424 | 12.58757 | 109° | 16km/h | 25150m | 4.5m/s | -52.2°C | 4.0% | 0hPa | 2.5V | 00:00:00 | 00:00:00 | 08:30:00 | |
| IN3HCDX1 | 2026-09-05 03:48:57 | 47.25426 | 12.58749 | 103° | 24km/h | 25145m | 5.5m/s | 0°C | 0% | 0hPa | 2.5V | 00:00:00 | 00:00:00 | 00:00:00 | |
| DO3MHA-11 | 2026-09-05 03:48:55 | 47.25428 | 12.58724 | 98° | 18km/h | 25130m | 5.6m/s | -52.3°C | 4.0% | 0hPa | 2.5V | 00:00:00 | 02:02:51 | 00:00:00 | |
| NBG1-10 | 2026-09-05 03:48:53 | 47.25430 | 12.58712 | 101° | 11km/h | 25121m | 4.8m/s | -52.4°C | 4.1% | 0hPa | 2.5V | 00:00:00 | 02:02:49 | 00:00:00 | |
| IW2NTF | 2026-09-05 03:48:52 | 47.25438 | 12.58664 | 109° | 16km/h | 25086m | 4.9m/s | 0°C | 0% | 0hPa | 2.5V | 00:00:00 | 02:02:42 | 00:00:00 | |
| OE5MMP-10 | 2026-09-05 03:48:50 | 47.25432 | 12.58691 | 103° | 16km/h | 25106m | 4.0m/s | -52.6°C | 4.2% | 0hPa | 2.5V | 00:00:00 | 02:02:46 | 00:00:00 | |
| DB0UT-7 | 2026-09-05 03:48:49 | 47.25434 | 12.58683 | 105° | 9km/h | 25101m | 5.6m/s | -52.6°C | 4.1% | 0hPa | 2.5V | 00:00:00 | 00:00:00 | 00:00:00 | |
| IN3HCDX | 2026-09-05 03:48:48 | 47.25434 | 12.58683 | 105° | 22km/h | 25101m | 5.6m/s | -52.6°C | 1.2% | 0hPa | 2.5V | 00:00:00 | 00:00:00 | 00:00:00 | |
| OE5DXL-15 | 2026-09-05 03:48:47 | 47.25437 | 12.58670 | 112° | 7km/h | 25091m | 4.8m/s | -52.6°C | 4.2% | 0hPa | 2.5V | 00:00:00 | 00:00:00 | 00:00:00 | |
| DO3MHA-11 | 2026-09-05 03:48:45 | 47.25439 | 12.58658 | 104° | 11km/h | 25082m | 4.9m/s | -52.6°C | 4.1% | 0hPa | 2.5V | 00:00:00 | 02:02:41 | 00:00:00 | |
| OE3JTB-15 | 2026-09-05 03:48:42 | 47.25442 | 12.58643 | 106° | 5km/h | 25067m | 5.2m/s | -52.6°C | 4.2% | 0hPa | 2.5V | 00:00:00 | 00:00:00 | 00:00:00 | |
| IW2NTF | 2026-09-05 03:48:41 | 47.25449 | 12.58622 | 119° | 11km/h | 25038m | 5.9m/s | 0°C | 0% | 0hPa | 2.5V | 00:00:00 | 02:02:32 | 00:00:00 | |
| OE5MMP-10 | 2026-09-05 03:48:40 | 47.25443 | 12.58638 | 117° | 11km/h | 25058m | 5.2m/s | -52.6°C | 4.2% | 0hPa | 2.6V | 00:00:00 | 02:02:36 | 00:00:00 | |
| DO3MHA-12 | 2026-09-05 03:48:39 | 47.25444 | 12.58634 | 122° | 7km/h | 25053m | 5.0m/s | -52.6°C | 4.2% | 0hPa | 2.6V | 00:00:00 | 02:02:35 | 00:00:00 | |
| OE5HKT-10 | 2026-09-05 03:48:38 | 47.25446 | 12.58630 | 111° | 5km/h | 25048m | 4.1m/s | -52.6°C | 4.2% | 0hPa | 2.6V | 00:00:00 | 00:00:00 | 00:00:00 | |
| DO3MHA-11 | 2026-09-05 03:48:35 | 47.25450 | 12.58619 | 119° | 5km/h | 25034m | 4.7m/s | -52.6°C | 4.2% | 0hPa | 2.6V | 00:00:00 | 02:02:31 | 08:30:00 | |
| PG1ADW-2 | 2026-09-05 03:48:34 | 47.25451 | 12.58616 | 116° | 4km/h | 25029m | 4.4m/s | -52.6°C | 4.2% | 0hPa | 2.6V | 00:00:00 | 02:02:30 | 08:30:00 | |
| IW2NTF | 2026-09-05 03:48:31 | 47.25453 | 12.58600 | 101° | 4km/h | 24989m | 4.5m/s | 0°C | 0% | 0hPa | 2.6V | 00:00:00 | 02:02:22 | 00:00:00 | |
| DL6DJ-15 | 2026-09-05 03:48:31 | 47.25453 | 12.58607 | 93° | 7km/h | 25014m | 4.8m/s | -52.7°C | 1.2% | -1.0hPa | 2.5V | 00:00:00 | 00:00:00 | 00:00:00 | |
| BAUMI2-15 | 2026-09-05 03:48:30 | 47.25453 | 12.58604 | 92° | 4km/h | 25009m | 5.5m/s | -52.6°C | 4.2% | 0hPa | 2.5V | 00:00:00 | 02:02:26 | 00:00:00 | |
| DG1MFX-10 | 2026-09-05 03:48:29 | 47.25452 | 12.58604 | 92° | 5km/h | 25009m | 5.5m/s | -52.7°C | 1.3% | 0hPa | 2.5V | 00:00:00 | 00:00:00 | 00:00:00 | |
| DO3MHA-12 | 2026-09-05 03:48:28 | 47.25453 | 12.58602 | 122° | 2km/h | 24999m | 4.8m/s | -52.6°C | 4.2% | 0hPa | 2.5V | 00:00:00 | 02:02:24 | 00:00:00 | |
| BAUMI2-15 | 2026-09-05 03:48:25 | 47.25453 | 12.58599 | 123° | 2km/h | 24985m | 4.4m/s | -52.5°C | 4.2% | 0hPa | 2.5V | 00:00:00 | 02:02:21 | 00:00:00 | |
| OE5DRO-10 | 2026-09-05 03:48:23 | 47.25454 | 12.58600 | 251° | 4km/h | 24975m | 4.4m/s | -52.5°C | 4.2% | 0hPa | 2.5V | 00:00:00 | 00:00:00 | 00:00:00 | |
| IW2NTF | 2026-09-05 03:48:21 | 47.25451 | 12.58598 | 258° | 2km/h | 24941m | 4.9m/s | 0°C | 0% | 0hPa | 2.5V | 00:00:00 | 02:02:12 | 00:00:00 | |
| NBG1-10 | 2026-09-05 03:48:20 | 47.25453 | 12.58600 | 60° | 5km/h | 24961m | 4.4m/s | -52.5°C | 4.2% | 0hPa | 2.6V | 00:00:00 | 02:02:16 | 00:00:00 | |
| OE8JPQ-2 | 2026-09-05 03:48:19 | 47.25453 | 12.58599 | 55° | 4km/h | 24957m | 4.4m/s | -52.5°C | 4.2% | 0hPa | 2.6V | 00:00:00 | 00:00:00 | 00:00:00 | |
| DO3MHA-12 | 2026-09-05 03:48:18 | 47.25452 | 12.58598 | 34° | 4km/h | 24952m | 5.9m/s | -52.5°C | 4.2% | 0hPa | 2.6V | 00:00:00 | 02:02:14 | 00:00:00 | |
| OE5HKT-10 | 2026-09-05 03:48:17 | 47.25451 | 12.58598 | 336° | 5km/h | 24946m | 4.8m/s | -52.5°C | 4.2% | 0hPa | 2.6V | 00:00:00 | 02:02:13 | 00:00:00 | |
| DO3MHA-11 | 2026-09-05 03:48:15 | 47.25451 | 12.58599 | 187° | 4km/h | 24936m | 5.5m/s | -52.5°C | 4.2% | 0hPa | 2.6V | 00:00:00 | 02:02:11 | 00:00:00 | |
| PG1ADW-2 | 2026-09-05 03:48:13 | 47.25453 | 12.58599 | 194° | 5km/h | 24927m | 4.3m/s | -52.4°C | 4.2% | 0hPa | 2.6V | 00:00:00 | 00:00:00 | 00:00:00 | |
| HARRO8 | 2026-09-05 03:48:11 | 47.25456 | 12.58603 | 246° | 4km/h | 24913m | 4.0m/s | -52.4°C | 1.2% | -1.0hPa | 2.6V | 00:00:00 | 00:00:00 | 00:00:00 | |
| IW2NTF | 2026-09-05 03:48:10 | 47.25455 | 12.58604 | 259° | 2km/h | 24888m | 5.2m/s | 0°C | 0% | 0hPa | 2.6V | 00:00:00 | 02:02:01 | 00:00:00 | |
| OE5MMP-10 | 2026-09-05 03:48:10 | 47.25456 | 12.58603 | 247° | 4km/h | 24913m | 4.0m/s | -52.4°C | 4.2% | 0hPa | 2.6V | 00:00:00 | 02:02:06 | 00:00:00 | |
| DG1MFX-10 | 2026-09-05 03:48:09 | 47.25456 | 12.58603 | 248° | 5km/h | 24913m | 4.0m/s | -52.4°C | 1.3% | 0hPa | 2.6V | 00:00:00 | 00:00:00 | 00:00:00 | |
| DO3MHA-12 | 2026-09-05 03:48:08 | 47.25456 | 12.58605 | 87° | 5km/h | 24903m | 5.2m/s | -52.3°C | 4.1% | 0hPa | 2.6V | 00:00:00 | 02:02:04 | 00:00:00 | |
| IN3HCDX | 2026-09-05 03:48:07 | 47.25456 | 12.58605 | 0° | 0km/h | 24903m | 5.2m/s | -52.4°C | 1.2% | 0hPa | 2.6V | 00:00:00 | 00:00:00 | 00:00:00 | |
| DO3MHA-11 | 2026-09-05 03:48:05 | 47.25456 | 12.58604 | 260° | 9km/h | 24888m | 5.2m/s | -52.2°C | 4.1% | 0hPa | 2.6V | 00:00:00 | 02:02:01 | 00:00:00 | |
| OE5DRO-10 | 2026-09-05 03:48:04 | 47.25456 | 12.58606 | 248° | 5km/h | 24883m | 5.0m/s | -52.2°C | 4.1% | 0hPa | 2.5V | 00:00:00 | 00:00:00 | 00:00:00 | |
| PETON7-10 | 2026-09-05 03:48:03 | 47.25456 | 12.58608 | 237° | 9km/h | 24878m | 5.7m/s | -52.2°C | 4.1% | 0hPa | 2.5V | 00:00:00 | 00:00:00 | 00:00:00 | |
| OE5MMP-10 | 2026-09-05 03:48:00 | 47.25460 | 12.58615 | 239° | 7km/h | 24863m | 5.8m/s | -52.2°C | 4.1% | 0hPa | 2.5V | 00:00:00 | 02:01:56 | 00:00:00 | |
| IW2NTF | 2026-09-05 03:47:59 | 47.25467 | 12.58630 | 177° | 2km/h | 24833m | 6.1m/s | 0°C | 0% | 0hPa | 2.5V | 00:00:00 | 02:01:50 | 00:00:00 | |
| OE8JPQ-2 | 2026-09-05 03:47:59 | 47.25462 | 12.58619 | 248° | 5km/h | 24858m | 4.8m/s | -52.2°C | 4.1% | 0hPa | 2.6V | 00:00:00 | 02:01:55 | 00:00:00 | |
| DO3MHA-12 | 2026-09-05 03:47:58 | 47.25463 | 12.58624 | 249° | 5km/h | 24853m | 4.5m/s | -52.2°C | 4.1% | 0hPa | 2.6V | 00:00:00 | 02:01:54 | 00:00:00 | |
| OE5HKT-10 | 2026-09-05 03:47:56 | 47.25465 | 12.58630 | 214° | 5km/h | 24843m | 5.1m/s | -52.1°C | 4.1% | 0hPa | 2.6V | 00:00:00 | 00:00:00 | 00:00:00 | |
| BAUMI2-15 | 2026-09-05 03:47:55 | 47.25466 | 12.58630 | 182° | 2km/h | 24838m | 4.8m/s | -52.1°C | 4.1% | 0hPa | 2.6V | 00:00:00 | 02:01:51 | 00:00:00 | |
| PG1ADW-2 | 2026-09-05 03:47:53 | 47.25467 | 12.58630 | 209° | 5km/h | 24828m | 4.8m/s | -52.1°C | 4.1% | 0hPa | 2.6V | 00:00:00 | 00:00:00 | 00:00:00 | |
| BAUMI2-15 | 2026-09-05 03:47:50 | 47.25469 | 12.58630 | 152° | 5km/h | 24813m | 4.9m/s | -52.1°C | 4.1% | 0hPa | 2.6V | 00:00:00 | 02:01:46 | 00:00:00 | |
| IW2NTF | 2026-09-05 03:47:49 | 47.25474 | 12.58636 | 205° | 4km/h | 24783m | 4.9m/s | 0°C | 0% | 0hPa | 2.5V | 00:00:00 | 02:01:40 | 00:00:00 | |
| DB0UT-7 | 2026-09-05 03:47:49 | 47.25471 | 12.58630 | 161° | 7km/h | 24808m | 4.1m/s | -52.1°C | 4.1% | 0hPa | 2.6V | 00:00:00 | 00:00:00 | 00:00:00 | |
| DO3MHA-12 | 2026-09-05 03:47:48 | 47.25471 | 12.58630 | 203° | 5km/h | 24803m | 5.5m/s | -52.1°C | 4.1% | 0hPa | 2.6V | 00:00:00 | 02:01:44 | 08:30:00 | |
| OE5DXL-15 | 2026-09-05 03:47:47 | 47.25472 | 12.58631 | 249° | 7km/h | 24798m | 4.9m/s | -52.1°C | 4.1% | 0hPa | 2.5V | 00:00:00 | 00:00:00 | 00:00:00 | |
| BAUMI2-15 | 2026-09-05 03:47:45 | 47.25473 | 12.58635 | 247° | 4km/h | 24788m | 5.8m/s | -52.0°C | 4.1% | 0hPa | 2.5V | 00:00:00 | 02:01:41 | 00:00:00 | |
| OE3JTB-15 | 2026-09-05 03:47:44 | 47.25474 | 12.58636 | 206° | 7km/h | 24783m | 4.8m/s | -52.0°C | 4.1% | 0hPa | 2.5V | 00:00:00 | 00:00:00 | 00:00:00 | |
| HARRO8 | 2026-09-05 03:47:40 | 47.25480 | 12.58637 | 145° | 5km/h | 24758m | 5.7m/s | -52.2°C | 1.1% | -1.0hPa | 2.5V | 00:00:00 | 00:00:00 | 00:00:00 | |
| OE8JPQ-2 | 2026-09-05 03:47:39 | 47.25480 | 12.58637 | 146° | 7km/h | 24759m | 5.6m/s | -52.2°C | 4.1% | 0hPa | 2.5V | 00:00:00 | 00:00:00 | 08:30:00 | |
| DO3MHA-12 | 2026-09-05 03:47:38 | 47.25481 | 12.58635 | 135° | 7km/h | 24753m | 4.6m/s | -52.2°C | 4.1% | 0hPa | 2.5V | 00:00:00 | 02:01:34 | 00:00:00 | |
| DO3MHA-11 | 2026-09-05 03:47:35 | 47.25486 | 12.58630 | 154° | 5km/h | 24739m | 4.2m/s | -52.2°C | 4.1% | 0hPa | 2.5V | 00:00:00 | 02:01:31 | 00:00:00 | |
| OE5REO-15 | 2026-09-05 03:47:33 | 47.25487 | 12.58629 | 153° | 5km/h | 24735m | 5.2m/s | -52.2°C | 1.2% | 0hPa | 2.6V | 00:00:00 | 00:00:00 | 00:00:00 | |
| PG1ADW-2 | 2026-09-05 03:47:32 | 47.25490 | 12.58627 | 152° | 7km/h | 24724m | 4.9m/s | -52.1°C | 4.1% | 0hPa | 2.6V | 00:00:00 | 00:00:00 | 00:00:00 | |
| OE5MMP-10 | 2026-09-05 03:47:30 | 47.25493 | 12.58626 | 201° | 7km/h | 24714m | 4.8m/s | -52.1°C | 4.1% | 0hPa | 2.6V | 00:00:00 | 02:01:26 | 00:00:00 | |
| DL6DJ-15 | 2026-09-05 03:47:29 | 47.25496 | 12.58628 | 169° | 2km/h | 24706m | 4.7m/s | -52.1°C | 1.1% | -1.0hPa | 2.6V | 00:00:00 | 00:00:00 | 00:00:00 | |
| DO3MHA-12 | 2026-09-05 03:47:28 | 47.25495 | 12.58627 | 170° | 9km/h | 24706m | 4.7m/s | -52.1°C | 4.1% | 0hPa | 2.6V | 00:00:00 | 02:01:24 | 00:00:00 | |
| DG1MFX-10 | 2026-09-05 03:47:27 | 47.25495 | 12.58628 | 170° | 4km/h | 24706m | 4.7m/s | -52.1°C | 1.3% | 0hPa | 2.6V | 00:00:00 | 00:00:00 | 00:00:00 | |
| OE5DRO-10 | 2026-09-05 03:47:26 | 47.25497 | 12.58624 | 112° | 7km/h | 24695m | 4.7m/s | -52.1°C | 4.1% | 0hPa | 2.6V | 00:00:00 | 00:00:00 | 00:00:00 | |
| BAUMI2-15 | 2026-09-05 03:47:25 | 47.25499 | 12.58620 | 114° | 9km/h | 24691m | 4.1m/s | -52.0°C | 4.1% | 0hPa | 2.6V | 00:00:00 | 02:01:21 | 00:00:00 | |
| OE5MMP-10 | 2026-09-05 03:47:20 | 47.25507 | 12.58608 | 144° | 7km/h | 24667m | 5.9m/s | -51.8°C | 4.0% | 0hPa | 2.6V | 00:00:00 | 02:01:16 | 00:00:00 | |
| DB0UT-7 | 2026-09-05 03:47:19 | 47.25508 | 12.58606 | 137° | 7km/h | 24661m | 4.5m/s | -51.8°C | 4.0% | 0hPa | 2.6V | 00:00:00 | 02:01:15 | 00:00:00 | |
| OE5DXL-15 | 2026-09-05 03:47:17 | 47.25510 | 12.58603 | 141° | 7km/h | 24652m | 5.8m/s | -51.8°C | 4.0% | 0hPa | 2.6V | 00:00:00 | 00:00:00 | 00:00:00 | |
| BAUMI2-15 | 2026-09-05 03:47:15 | 47.25512 | 12.58602 | 136° | 9km/h | 24642m | 5.0m/s | -51.9°C | 4.1% | 0hPa | 2.6V | 00:00:00 | 02:01:11 | 00:00:00 | |
| NBG1-10 | 2026-09-05 03:47:14 | 47.25512 | 12.58601 | 111° | 9km/h | 24636m | 5.8m/s | -51.9°C | 4.0% | 0hPa | 2.6V | 00:00:00 | 02:01:10 | 00:00:00 | |
| PG1ADW-2 | 2026-09-05 03:47:12 | 47.25514 | 12.58594 | 108° | 7km/h | 24628m | 3.3m/s | -51.9°C | 4.1% | 0hPa | 2.6V | 00:00:00 | 02:01:08 | 00:00:00 | |
| OE5MMP-10 | 2026-09-05 03:47:10 | 47.25515 | 12.58587 | 95° | 7km/h | 24618m | 5.0m/s | -51.9°C | 4.1% | 0hPa | 2.6V | 00:00:00 | 02:01:06 | 00:00:00 | |
| HARRO8 | 2026-09-05 03:47:09 | 47.25515 | 12.58583 | 79° | 4km/h | 24609m | 4.1m/s | -52.0°C | 1.2% | -1.0hPa | 2.6V | 00:00:00 | 00:00:00 | 00:00:00 | |
| DO3MHA-12 | 2026-09-05 03:47:08 | 47.25515 | 12.58583 | 80° | 9km/h | 24609m | 4.0m/s | -51.9°C | 4.2% | 0hPa | 2.6V | 00:00:00 | 02:01:04 | 00:00:00 | |
| OE5DRO-10 | 2026-09-05 03:47:07 | 47.25515 | 12.58581 | 88° | 7km/h | 24604m | 5.3m/s | -52.0°C | 4.1% | 0hPa | 2.6V | 00:00:00 | 00:00:00 | 00:00:00 | |
| DG1MFX-10 | 2026-09-05 03:47:06 | 47.25515 | 12.58581 | 88° | 7km/h | 24604m | 5.3m/s | -52.0°C | 1.3% | 0hPa | 2.6V | 00:00:00 | 00:00:00 | 00:00:00 | |
| BAUMI2-15 | 2026-09-05 03:47:05 | 47.25516 | 12.58575 | 111° | 9km/h | 24594m | 4.6m/s | -52.0°C | 4.1% | 0hPa | 2.6V | 00:00:00 | 02:01:01 | 00:00:00 | |
| OE5REO-15 | 2026-09-05 03:47:01 | 47.25519 | 12.58566 | 127° | 9km/h | 24580m | 4.1m/s | -52.0°C | 1.2% | 0hPa | 2.5V | 00:00:00 | 00:00:00 | 00:00:00 | |
| BAUMI2-15 | 2026-09-05 03:47:00 | 47.25522 | 12.58559 | 106° | 9km/h | 24570m | 4.7m/s | -51.9°C | 4.1% | 0hPa | 2.5V | 00:00:00 | 02:00:56 | 00:00:00 | |
| OE8JPQ-2 | 2026-09-05 03:46:59 | 47.25523 | 12.58554 | 99° | 7km/h | 24566m | 3.9m/s | -51.9°C | 4.1% | 0hPa | 2.5V | 00:00:00 | 02:00:55 | 00:00:00 | |
| DO3MHA-12 | 2026-09-05 03:46:58 | 47.25523 | 12.58550 | 94° | 5km/h | 24561m | 5.0m/s | -51.9°C | 4.1% | 0hPa | 2.5V | 00:00:00 | 02:00:54 | 00:00:00 | |
| DO3MHA-11 | 2026-09-05 03:46:55 | 47.25522 | 12.58544 | 58° | 7km/h | 24547m | 5.7m/s | -51.9°C | 4.1% | 0hPa | 2.5V | 00:00:00 | 02:00:51 | 00:00:00 | |
| OE5HKT-10 | 2026-09-05 03:46:53 | 47.25520 | 12.58540 | 56° | 9km/h | 24537m | 3.8m/s | -51.9°C | 4.1% | 0hPa | 2.5V | 00:00:00 | 00:00:00 | 00:00:00 | |
| OE5MMP-10 | 2026-09-05 03:46:50 | 47.25519 | 12.58536 | 158° | 9km/h | 24523m | 4.1m/s | -51.8°C | 4.1% | 0hPa | 2.5V | 00:00:00 | 02:00:46 | 00:00:00 | |
| DB0UT-7 | 2026-09-05 03:46:49 | 47.25521 | 12.58535 | 137° | 9km/h | 24518m | 4.4m/s | -51.8°C | 4.0% | 0hPa | 2.6V | 00:00:00 | 00:00:00 | 00:00:00 | |
| DO3MHA-12 | 2026-09-05 03:46:48 | 47.25522 | 12.58532 | 111° | 9km/h | 24514m | 5.1m/s | -51.8°C | 4.0% | 0hPa | 2.6V | 00:00:00 | 02:00:44 | 00:00:00 | |
| OE5DXL-15 | 2026-09-05 03:46:47 | 47.25522 | 12.58529 | 97° | 9km/h | 24509m | 4.2m/s | -51.8°C | 4.1% | 0hPa | 2.6V | 00:00:00 | 00:00:00 | 00:00:00 | |
| OE3JTB-15 | 2026-09-05 03:46:46 | 47.25523 | 12.58525 | 98° | 9km/h | 24505m | 4.3m/s | -51.8°C | 4.1% | 0hPa | 2.6V | 00:00:00 | 02:00:42 | 00:00:00 | |
| DO3MHA-11 | 2026-09-05 03:46:45 | 47.25523 | 12.58521 | 98° | 9km/h | 24500m | 5.0m/s | -51.8°C | 4.1% | 0hPa | 2.6V | 00:00:00 | 02:00:41 | 00:00:00 | |
| IN3HCDX | 2026-09-05 03:46:44 | 47.25523 | 12.58521 | 99° | 9km/h | 24500m | 5.0m/s | -51.8°C | 1.2% | 0hPa | 2.6V | 00:00:00 | 00:00:00 | 00:00:00 | |
| NBG1-10 | 2026-09-05 03:46:41 | 47.25519 | 12.58509 | 55° | 9km/h | 24482m | 4.4m/s | -51.8°C | 4.0% | 0hPa | 2.6V | 00:00:00 | 02:00:37 | 00:00:00 | |
| OE5MMP-10 | 2026-09-05 03:46:40 | 47.25517 | 12.58505 | 60° | 9km/h | 24478m | 3.7m/s | -51.8°C | 4.0% | 0hPa | 2.6V | 00:00:00 | 02:00:36 | 00:00:00 | |
| OE8JPQ-2 | 2026-09-05 03:46:39 | 47.25516 | 12.58502 | 75° | 9km/h | 24473m | 5.5m/s | -51.7°C | 4.0% | 0hPa | 2.6V | 00:00:00 | 00:00:00 | 00:00:00 | |
| DO3MHA-12 | 2026-09-05 03:46:38 | 47.25516 | 12.58499 | 110° | 11km/h | 24468m | 4.8m/s | -51.7°C | 4.0% | 0hPa | 2.5V | 00:00:00 | 02:00:34 | 00:00:00 | |
| HARRO8 | 2026-09-05 03:46:37 | 47.25517 | 12.58497 | 127° | 7km/h | 24463m | 5.4m/s | -51.8°C | 1.1% | -1.0hPa | 2.5V | 00:00:00 | 00:00:00 | 00:00:00 | |
| DO3MHA-11 | 2026-09-05 03:46:35 | 47.25520 | 12.58492 | 138° | 13km/h | 24454m | 3.7m/s | -51.7°C | 4.0% | 0hPa | 2.5V | 00:00:00 | 02:00:31 | 00:00:00 | |
| OE5HKT-10 | 2026-09-05 03:46:32 | 47.25528 | 12.58487 | 158° | 9km/h | 24440m | 3.9m/s | -51.8°C | 4.1% | 0hPa | 2.6V | 00:00:00 | 00:00:00 | 00:00:00 | |
| OE5MMP-10 | 2026-09-05 03:46:30 | 47.25532 | 12.58481 | 110° | 9km/h | 24431m | 4.9m/s | -51.8°C | 4.1% | 0hPa | 2.6V | 00:00:00 | 02:00:26 | 00:00:00 | |
| PETON7-10 | 2026-09-05 03:46:29 | 47.25532 | 12.58476 | 98° | 11km/h | 24426m | 4.0m/s | -51.7°C | 4.0% | 0hPa | 2.6V | 00:00:00 | 00:00:00 | 00:00:00 | |
| DO3MHA-12 | 2026-09-05 03:46:28 | 47.25533 | 12.58471 | 100° | 7km/h | 24422m | 5.0m/s | -51.7°C | 4.1% | 0hPa | 2.6V | 00:00:00 | 02:00:24 | 00:00:00 | |
| DL6DJ-15 | 2026-09-05 03:46:27 | 47.25534 | 12.58462 | 111° | 11km/h | 24413m | 4.3m/s | -51.7°C | 1.1% | -1.0hPa | 2.6V | 00:00:00 | 00:00:00 | 00:00:00 | |
| DO3MHA-11 | 2026-09-05 03:46:25 | 47.25535 | 12.58458 | 110° | 5km/h | 24408m | 4.7m/s | -51.6°C | 4.0% | 0hPa | 2.6V | 00:00:00 | 02:00:21 | 00:00:00 | |
| DG1MFX-10 | 2026-09-05 03:46:24 | 47.25535 | 12.58458 | 110° | 11km/h | 24408m | 4.8m/s | -51.7°C | 1.2% | 0hPa | 2.6V | 00:00:00 | 00:00:00 | 00:00:00 | |
| OE5MMP-10 | 2026-09-05 03:46:20 | 47.25539 | 12.58449 | 187° | 7km/h | 24385m | 4.5m/s | -51.6°C | 4.0% | 0hPa | 2.6V | 00:00:00 | 02:00:16 | 08:30:00 | |
| OE8JPQ-2 | 2026-09-05 03:46:19 | 47.25540 | 12.58450 | 183° | 7km/h | 24379m | 5.4m/s | -51.6°C | 4.0% | 0hPa | 2.6V | 00:00:00 | 00:00:00 | 00:00:00 | |
| DO3MHA-12 | 2026-09-05 03:46:18 | 47.25540 | 12.58449 | 108° | 9km/h | 24375m | 4.4m/s | -51.6°C | 4.0% | 0hPa | 2.6V | 00:00:00 | 02:00:14 | 08:30:00 | |
| OE5DXL-15 | 2026-09-05 03:46:17 | 47.25541 | 12.58447 | 108° | 9km/h | 24371m | 3.6m/s | -51.7°C | 4.0% | 0hPa | 2.5V | 00:00:00 | 00:00:00 | 08:30:00 | |
| DO3MHA-11 | 2026-09-05 03:46:15 | 47.25542 | 12.58443 | 121° | 11km/h | 24361m | 4.5m/s | -51.7°C | 4.0% | 0hPa | 2.5V | 00:00:00 | 02:00:11 | 00:00:00 | |
| OE5REO-15 | 2026-09-05 03:46:14 | 47.25542 | 12.58443 | 122° | 5km/h | 24361m | 4.6m/s | -51.7°C | 1.2% | 0hPa | 2.5V | 00:00:00 | 00:00:00 | 00:00:00 | |
| PG1ADW-2 | 2026-09-05 03:46:12 | 47.25544 | 12.58435 | 109° | 11km/h | 24347m | 4.4m/s | -51.6°C | 4.0% | 0hPa | 2.5V | 00:00:00 | 00:00:00 | 00:00:00 | |
| OE5HKT-10 | 2026-09-05 03:46:11 | 47.25545 | 12.58431 | 120° | 11km/h | 24343m | 4.2m/s | -51.6°C | 4.0% | 0hPa | 2.5V | 00:00:00 | 02:00:07 | 00:00:00 | |
| OE5MMP-10 | 2026-09-05 03:46:10 | 47.25547 | 12.58428 | 137° | 9km/h | 24338m | 5.0m/s | -51.6°C | 4.0% | 0hPa | 2.5V | 00:00:00 | 02:00:06 | 00:00:00 | |
| DO3MHA-12 | 2026-09-05 03:46:08 | 47.25553 | 12.58422 | 148° | 7km/h | 24329m | 4.5m/s | -51.6°C | 4.0% | 0hPa | 2.5V | 00:00:00 | 02:00:04 | 00:00:00 | |
| HARRO8 | 2026-09-05 03:46:06 | 47.25560 | 12.58415 | 153° | 7km/h | 24316m | 3.9m/s | -51.6°C | 1.1% | -1.0hPa | 2.5V | 00:00:00 | 00:00:00 | 00:00:00 | |
| DO3MHA-11 | 2026-09-05 03:46:05 | 47.25560 | 12.58415 | 154° | 7km/h | 24316m | 3.8m/s | -51.6°C | 4.0% | 0hPa | 2.5V | 00:00:00 | 02:00:01 | 00:00:00 | |
| DG1MFX-10 | 2026-09-05 03:46:03 | 47.25562 | 12.58414 | 172° | 7km/h | 24311m | 5.5m/s | -51.6°C | 1.3% | 0hPa | 2.5V | 00:00:00 | 00:00:00 | 00:00:00 | |
| IN3HCDX | 2026-09-05 03:46:02 | 47.25563 | 12.58414 | 184° | 7km/h | 24306m | 4.5m/s | -51.6°C | 1.2% | 0hPa | 2.5V | 00:00:00 | 00:00:00 | 00:00:00 | |
| DL6DJ-15 | 2026-09-05 03:45:56 | 47.25577 | 12.58401 | 135° | 13km/h | 24269m | 4.6m/s | -51.7°C | 1.1% | -1.0hPa | 2.5V | 00:00:00 | 00:00:00 | 00:00:00 | |
| DO3MHA-11 | 2026-09-05 03:45:55 | 47.25577 | 12.58401 | 136° | 13km/h | 24269m | 4.5m/s | -51.6°C | 4.0% | 0hPa | 2.5V | 00:00:00 | 01:59:51 | 00:00:00 | |
| DB0NH | 2026-09-05 03:45:53 | 47.25582 | 12.58395 | 151° | 15km/h | 24261m | 4.1m/s | -51.7°C | 4.0% | 0hPa | 2.5V | 00:00:00 | 01:59:49 | 00:00:00 | |
| PG1ADW-2 | 2026-09-05 03:45:52 | 47.25585 | 12.58393 | 171° | 18km/h | 24257m | 5.5m/s | -51.7°C | 4.0% | 0hPa | 2.5V | 00:00:00 | 01:59:48 | 00:00:00 | |
| OE5DRO-10 | 2026-09-05 03:45:51 | 47.25588 | 12.58393 | 188° | 18km/h | 24251m | 4.4m/s | -51.7°C | 4.0% | 0hPa | 2.5V | 00:00:00 | 00:00:00 | 00:00:00 | |
| OE5HKT-10 | 2026-09-05 03:45:50 | 47.25592 | 12.58394 | 193° | 18km/h | 24247m | 4.3m/s | -51.7°C | 3.9% | 0hPa | 2.5V | 00:00:00 | 00:00:00 | 08:30:00 | |
| DB0UT-7 | 2026-09-05 03:45:49 | 47.25595 | 12.58395 | 194° | 16km/h | 24242m | 5.1m/s | -51.7°C | 4.0% | 0hPa | 2.6V | 00:00:00 | 00:00:00 | 00:00:00 | |
| DO3MHA-12 | 2026-09-05 03:45:48 | 47.25598 | 12.58396 | 183° | 20km/h | 24238m | 3.9m/s | -51.7°C | 4.0% | 0hPa | 2.6V | 00:00:00 | 01:59:44 | 00:00:00 | |
| OE5DXL-15 | 2026-09-05 03:45:47 | 47.25601 | 12.58396 | 177° | 16km/h | 24234m | 3.8m/s | -51.7°C | 4.0% | 0hPa | 2.5V | 00:00:00 | 00:00:00 | 00:00:00 | |
| DO3MHA-11 | 2026-09-05 03:45:45 | 47.25609 | 12.58394 | 165° | 20km/h | 24224m | 4.1m/s | -51.7°C | 4.0% | 0hPa | 2.5V | 00:00:00 | 01:59:41 | 00:00:00 | |
| OE5REO-15 | 2026-09-05 03:45:43 | 47.25613 | 12.58392 | 157° | 20km/h | 24220m | 4.2m/s | -51.8°C | 1.2% | 0hPa | 2.5V | 00:00:00 | 00:00:00 | 00:00:00 | |
| OE5MMP-10 | 2026-09-05 03:45:40 | 47.25632 | 12.58372 | 148° | 18km/h | 24201m | 4.6m/s | -51.8°C | 4.0% | 0hPa | 2.5V | 00:00:00 | 01:59:36 | 00:00:00 | |
| OE8JPQ-2 | 2026-09-05 03:45:39 | 47.25637 | 12.58368 | 154° | 16km/h | 24197m | 4.2m/s | -51.8°C | 4.0% | 0hPa | 2.5V | 00:00:00 | 00:00:00 | 00:00:00 | |
| DO3MHA-12 | 2026-09-05 03:45:38 | 47.25642 | 12.58364 | 156° | 16km/h | 24193m | 4.8m/s | -51.8°C | 4.0% | 0hPa | 2.6V | 00:00:00 | 01:59:34 | 00:00:00 | |
| DO3MHA-11 | 2026-09-05 03:45:35 | 47.25654 | 12.58357 | 172° | 16km/h | 24179m | 5.1m/s | -51.8°C | 4.0% | 0hPa | 2.6V | 00:00:00 | 01:59:31 | 08:30:00 | |
| PG1ADW-2 | 2026-09-05 03:45:32 | 47.25667 | 12.58358 | 183° | 15km/h | 24165m | 5.0m/s | -51.8°C | 4.0% | 0hPa | 2.5V | 00:00:00 | 00:00:00 | 08:30:00 | |
| OE5MMP-10 | 2026-09-05 03:45:30 | 47.25674 | 12.58357 | 168° | 16km/h | 24156m | 3.7m/s | -51.9°C | 3.9% | 0hPa | 2.6V | 00:00:00 | 01:59:26 | 00:00:00 | |
| OE5HKT-10 | 2026-09-05 03:45:29 | 47.25678 | 12.58356 | 166° | 16km/h | 24151m | 5.3m/s | -51.9°C | 4.0% | 0hPa | 2.6V | 00:00:00 | 00:00:00 | 00:00:00 | |
| DO3MHA-12 | 2026-09-05 03:45:28 | 47.25682 | 12.58354 | 166° | 15km/h | 24147m | 4.3m/s | -51.9°C | 4.0% | 0hPa | 2.6V | 00:00:00 | 01:59:24 | 00:00:00 | |
| OE5REO-15 | 2026-09-05 03:45:27 | 47.25682 | 12.58354 | 166° | 16km/h | 24147m | 4.3m/s | -52.0°C | 1.2% | 0hPa | 2.6V | 00:00:00 | 00:00:00 | 00:00:00 | |
| DG1MJG | 2026-09-05 03:45:26 | 47.25686 | 12.58352 | 161° | 16km/h | 24142m | 4.1m/s | -52.0°C | 1.2% | 0hPa | 2.6V | 00:00:00 | 00:00:00 | 00:00:00 | |
| DL6DJ-15 | 2026-09-05 03:45:25 | 47.25696 | 12.58342 | 137° | 15km/h | 24127m | 4.7m/s | -52.2°C | 1.1% | -1.0hPa | 2.6V | 00:00:00 | 00:00:00 | 00:00:00 | |
| DG1MFX-10 | 2026-09-05 03:45:22 | 47.25699 | 12.58338 | 146° | 15km/h | 24123m | 5.0m/s | -52.2°C | 1.2% | 0hPa | 2.6V | 00:00:00 | 00:00:00 | 00:00:00 | |
| IN3HCDX | 2026-09-05 03:45:21 | 47.25702 | 12.58335 | 156° | 15km/h | 24118m | 3.8m/s | -52.3°C | 1.2% | 0hPa | 2.6V | 00:00:00 | 00:00:00 | 00:00:00 | |
| OE5MMP-10 | 2026-09-05 03:45:20 | 47.25708 | 12.58331 | 156° | 15km/h | 24109m | 5.3m/s | -52.3°C | 4.0% | 0hPa | 2.6V | 00:00:00 | 01:59:16 | 00:00:00 | |
| DB0UT-7 | 2026-09-05 03:45:19 | 47.25711 | 12.58330 | 157° | 24km/h | 24104m | 4.3m/s | -52.3°C | 4.0% | 0hPa | 2.5V | 00:00:00 | 01:59:15 | 00:00:00 | |
| DO3MHA-12 | 2026-09-05 03:45:18 | 47.25713 | 12.58329 | 171° | 18km/h | 24100m | 4.4m/s | -52.3°C | 4.0% | 0hPa | 2.5V | 00:00:00 | 01:59:14 | 00:00:00 | |
| OE5DXL-15 | 2026-09-05 03:45:17 | 47.25716 | 12.58328 | 184° | 24km/h | 24095m | 5.1m/s | -52.4°C | 4.0% | 0hPa | 2.5V | 00:00:00 | 00:00:00 | 00:00:00 | |
| DO3MHA-11 | 2026-09-05 03:45:15 | 47.25723 | 12.58329 | 184° | 22km/h | 24086m | 5.0m/s | -52.5°C | 4.0% | 0hPa | 2.5V | 00:00:00 | 01:59:11 | 00:00:00 | |
| PETON7-10 | 2026-09-05 03:45:14 | 47.25727 | 12.58329 | 170° | 22km/h | 24082m | 4.4m/s | -52.5°C | 0% | 0hPa | 2.5V | 00:00:00 | 00:00:00 | 00:00:00 | |
| OE5DRO-10 | 2026-09-05 03:45:13 | 47.25731 | 12.58327 | 156° | 26km/h | 24077m | 3.8m/s | -52.5°C | 4.0% | 0hPa | 2.5V | 00:00:00 | 00:00:00 | 00:00:00 | |
| PG1ADW-2 | 2026-09-05 03:45:12 | 47.25735 | 12.58324 | 152° | 24km/h | 24073m | 5.5m/s | -52.6°C | 4.0% | 0hPa | 2.5V | 00:00:00 | 00:00:00 | 00:00:00 | |
| OE5REO-15 | 2026-09-05 03:45:11 | 47.25735 | 12.58324 | 152° | 20km/h | 24073m | 5.6m/s | -52.6°C | 1.2% | 0hPa | 2.5V | 00:00:00 | 00:00:00 | 00:00:00 | |
| OE5MMP-10 | 2026-09-05 03:45:10 | 47.25745 | 12.58315 | 148° | 22km/h | 24063m | 4.2m/s | -52.6°C | 4.1% | 0hPa | 2.5V | 00:00:00 | 01:59:06 | 00:00:00 | |
| DO3MHA-12 | 2026-09-05 03:45:08 | 47.25757 | 12.58303 | 139° | 26km/h | 24054m | 5.1m/s | -52.8°C | 4.1% | 0hPa | 2.5V | 00:00:00 | 01:59:04 | 00:00:00 | |
| DO3MHA-11 | 2026-09-05 03:45:05 | 47.25769 | 12.58285 | 144° | 27km/h | 24039m | 4.3m/s | -53.0°C | 4.1% | 0hPa | 2.5V | 00:00:00 | 01:59:01 | 00:00:00 | |
| HARRO8 | 2026-09-05 03:45:04 | 47.25774 | 12.58281 | 144° | 18km/h | 24034m | 4.3m/s | -53.1°C | 1.1% | -1.0hPa | 2.5V | 00:00:00 | 00:00:00 | 00:00:00 | |
| PETON7-10 | 2026-09-05 03:45:03 | 47.25777 | 12.58277 | 138° | 24km/h | 24030m | 5.5m/s | -53.1°C | 0% | 0hPa | 2.5V | 00:00:00 | 00:00:00 | 00:00:00 | |
| NBG1-10 | 2026-09-05 03:45:02 | 47.25780 | 12.58273 | 133° | 29km/h | 24025m | 4.2m/s | -53.2°C | 4.2% | 0hPa | 2.5V | 00:00:00 | 01:58:58 | 00:00:00 | |
| DG1MFX-10 | 2026-09-05 03:45:01 | 47.25780 | 12.58273 | 133° | 16km/h | 24025m | 4.2m/s | -53.3°C | 1.3% | 0hPa | 2.5V | 00:00:00 | 00:00:00 | 00:00:00 | |
| OE5MMP-10 | 2026-09-05 03:45:00 | 47.25786 | 12.58262 | 135° | 31km/h | 24015m | 5.3m/s | -53.3°C | 4.2% | 0hPa | 2.5V | 00:00:00 | 01:58:56 | 00:00:00 | |
| DO3MHA-12 | 2026-09-05 03:44:58 | 47.25796 | 12.58247 | 132° | 31km/h | 24006m | 4.0m/s | -53.4°C | 4.3% | 0hPa | 2.5V | 00:00:00 | 01:58:54 | 00:00:00 | |
| DG1MJG | 2026-09-05 03:44:56 | 47.25802 | 12.58237 | 129° | 35km/h | 24001m | 5.5m/s | -53.4°C | 1.3% | 0hPa | 2.5V | 00:00:00 | 00:00:00 | 00:00:00 | |
| DO3MHA-11 | 2026-09-05 03:44:55 | 47.25811 | 12.58215 | 117° | 29km/h | 23992m | 4.1m/s | -53.4°C | 4.3% | 0hPa | 2.5V | 00:00:00 | 01:58:51 | 00:00:00 | |
| OE5DRO-10 | 2026-09-05 03:44:54 | 47.25815 | 12.58204 | 118° | 29km/h | 23987m | 5.3m/s | -53.5°C | 4.3% | 0hPa | 2.5V | 00:00:00 | 00:00:00 | 00:00:00 | |
| OE5MMP-10 | 2026-09-05 03:44:50 | 47.25825 | 12.58163 | 98° | 29km/h | 23968m | 3.8m/s | -53.6°C | 4.3% | 0hPa | 2.6V | 00:00:00 | 01:58:46 | 08:30:00 | |
| DB0UT-7 | 2026-09-05 03:44:49 | 47.25826 | 12.58153 | 99° | 27km/h | 23964m | 4.0m/s | -53.6°C | 4.4% | 0hPa | 2.5V | 00:00:00 | 00:00:00 | 00:00:00 | |
| DO3MHA-12 | 2026-09-05 03:44:48 | 47.25827 | 12.58145 | 107° | 29km/h | 23959m | 5.4m/s | -53.7°C | 4.4% | 0hPa | 2.5V | 00:00:00 | 01:58:44 | 08:30:00 | |
| DB0NH | 2026-09-05 03:44:47 | 47.25830 | 12.58136 | 119° | 27km/h | 23954m | 4.4m/s | -53.7°C | 4.4% | 0hPa | 2.5V | 00:00:00 | 01:58:43 | 00:00:00 | |
| PG1ADW-2 | 2026-09-05 03:44:46 | 47.25833 | 12.58127 | 120° | 15km/h | 23950m | 4.5m/s | -53.8°C | 4.4% | 0hPa | 2.5V | 00:00:00 | 00:00:00 | 00:00:00 | |
| DO3MHA-11 | 2026-09-05 03:44:45 | 47.25836 | 12.58118 | 118° | 31km/h | 23945m | 5.8m/s | -53.8°C | 4.4% | 0hPa | 2.5V | 00:00:00 | 01:58:41 | 00:00:00 | |
| OE5MMP-10 | 2026-09-05 03:44:40 | 47.25850 | 12.58062 | 105° | 27km/h | 23920m | 4.0m/s | -53.7°C | 4.4% | 0hPa | 2.5V | 00:00:00 | 01:58:36 | 00:00:00 | |
| OE8JPQ-2 | 2026-09-05 03:44:39 | 47.25852 | 12.58051 | 97° | 26km/h | 23916m | 5.5m/s | -53.7°C | 4.4% | 0hPa | 2.5V | 00:00:00 | 00:00:00 | 08:30:00 | |
| DO3MHA-12 | 2026-09-05 03:44:38 | 47.25852 | 12.58039 | 89° | 27km/h | 23911m | 4.4m/s | -53.7°C | 4.4% | 0hPa | 2.6V | 00:00:00 | 01:58:34 | 00:00:00 | |
| DO3MHA-11 | 2026-09-05 03:44:35 | 47.25852 | 12.58008 | 98° | 26km/h | 23897m | 4.7m/s | -53.7°C | 4.4% | 0hPa | 2.6V | 00:00:00 | 01:58:31 | 00:00:00 | |
| HARRO8 | 2026-09-05 03:44:33 | 47.25855 | 12.57990 | 101° | 26km/h | 23887m | 5.6m/s | -53.7°C | 1.2% | -1.0hPa | 2.5V | 00:00:00 | 00:00:00 | 00:00:00 | |
| PETON7-10 | 2026-09-05 03:44:30 | 47.25859 | 12.57961 | 108° | 26km/h | 23872m | 5.0m/s | -53.7°C | 0% | 0hPa | 2.5V | 00:00:00 | 00:00:00 | 00:00:00 | |
| NBG1-10 | 2026-09-05 03:44:29 | 47.25861 | 12.57952 | 104° | 16km/h | 23867m | 3.9m/s | -53.7°C | 4.4% | 0hPa | 2.5V | 00:00:00 | 01:58:25 | 00:00:00 | |
| DO3MHA-12 | 2026-09-05 03:44:28 | 47.25862 | 12.57942 | 95° | 24km/h | 23863m | 5.2m/s | -53.7°C | 4.3% | 0hPa | 2.6V | 00:00:00 | 01:58:24 | 00:00:00 | |
| OE5HKT-10 | 2026-09-05 03:44:26 | 47.25861 | 12.57923 | 80° | 20km/h | 23853m | 3.7m/s | -53.7°C | 4.3% | 0hPa | 2.6V | 00:00:00 | 00:00:00 | 00:00:00 | |
| DO3MHA-11 | 2026-09-05 03:44:25 | 47.25860 | 12.57913 | 79° | 22km/h | 23849m | 4.9m/s | -53.7°C | 4.3% | 0hPa | 2.6V | 00:00:00 | 01:58:21 | 00:00:00 | |
| OE5REO-15 | 2026-09-05 03:44:24 | 47.25860 | 12.57913 | 80° | 27km/h | 23849m | 5.0m/s | -53.7°C | 1.3% | 0hPa | 2.6V | 00:00:00 | 00:00:00 | 00:00:00 | |
| OE3JTB-15 | 2026-09-05 03:44:21 | 47.25857 | 12.57877 | 90° | 13km/h | 23829m | 4.8m/s | -53.7°C | 4.3% | 0hPa | 2.6V | 00:00:00 | 00:00:00 | 00:00:00 | |
| BAUMI2-15 | 2026-09-05 03:44:20 | 47.25858 | 12.57868 | 95° | 20km/h | 23824m | 4.5m/s | -53.8°C | 4.3% | 0hPa | 2.6V | 00:00:00 | 01:58:16 | 00:00:00 | |
| DB0UT-7 | 2026-09-05 03:44:19 | 47.25858 | 12.57860 | 100° | 13km/h | 23819m | 5.2m/s | -53.8°C | 4.3% | 0hPa | 2.6V | 00:00:00 | 01:58:15 | 00:00:00 | |
| DO3MHA-12 | 2026-09-05 03:44:18 | 47.25859 | 12.57853 | 99° | 18km/h | 23814m | 4.3m/s | -53.9°C | 4.4% | 0hPa | 2.6V | 00:00:00 | 01:58:14 | 00:00:00 | |
| DB0NH | 2026-09-05 03:44:17 | 47.25860 | 12.57847 | 95° | 11km/h | 23809m | 5.5m/s | -53.9°C | 4.4% | 0hPa | 2.6V | 00:00:00 | 01:58:13 | 00:00:00 | |
| OE5DRO-10 | 2026-09-05 03:44:16 | 47.25860 | 12.57840 | 89° | 13km/h | 23804m | 4.6m/s | -54.0°C | 4.4% | 0hPa | 2.6V | 00:00:00 | 00:00:00 | 00:00:00 | |
| DO3MHA-11 | 2026-09-05 03:44:15 | 47.25859 | 12.57833 | 82° | 16km/h | 23800m | 4.4m/s | -54.0°C | 4.4% | 0hPa | 2.6V | 00:00:00 | 01:58:11 | 00:00:00 | |
| BAUMI2-15 | 2026-09-05 03:44:10 | 47.25853 | 12.57801 | 73° | 15km/h | 23775m | 3.8m/s | -54.1°C | 4.5% | 0hPa | 2.6V | 00:00:00 | 01:58:06 | 00:00:00 | |
| OM5KV | 2026-09-05 03:44:09 | 47.25853 | 12.57801 | 73° | 22km/h | 23775m | 3.8m/s | -54.2°C | 1.4% | 0hPa | 2.6V | 00:00:00 | 00:00:00 | 00:00:00 | |
| OE5REO-15 | 2026-09-05 03:44:08 | 47.25851 | 12.57794 | 78° | 18km/h | 23771m | 3.4m/s | -54.1°C | 1.3% | 0hPa | 2.6V | 00:00:00 | 00:00:00 | 00:00:00 | |
| OE5HKT-10 | 2026-09-05 03:44:05 | 47.25848 | 12.57778 | 67° | 7km/h | 23751m | 4.8m/s | -54.1°C | 4.5% | 0hPa | 2.6V | 00:00:00 | 01:58:01 | 00:00:00 | |
| HARRO8 | 2026-09-05 03:44:02 | 47.25847 | 12.57773 | 57° | 4km/h | 23736m | 5.9m/s | -54.1°C | 1.3% | -1.0hPa | 2.6V | 00:00:00 | 00:00:00 | 00:00:00 | |
| OE5MMP-10 | 2026-09-05 03:44:00 | 47.25846 | 12.57770 | 79° | 9km/h | 23726m | 4.8m/s | -54.0°C | 4.5% | 0hPa | 2.6V | 00:00:00 | 01:57:56 | 00:00:00 | |
| OE8JPQ-2 | 2026-09-05 03:43:59 | 47.25845 | 12.57767 | 76° | 11km/h | 23720m | 5.2m/s | -54.0°C | 4.5% | 0hPa | 2.6V | 00:00:00 | 01:57:55 | 00:00:00 | |
| DO3MHA-12 | 2026-09-05 03:43:58 | 47.25845 | 12.57762 | 82° | 9km/h | 23716m | 3.6m/s | -54.0°C | 4.5% | 0hPa | 2.6V | 00:00:00 | 01:57:54 | 00:00:00 | |
| OE5DRO-10 | 2026-09-05 03:43:57 | 47.25845 | 12.57758 | 82° | 11km/h | 23712m | 5.3m/s | -54.0°C | 4.5% | 0hPa | 2.6V | 00:00:00 | 00:00:00 | 08:30:00 | |
| NBG1-10 | 2026-09-05 03:43:56 | 47.25844 | 12.57754 | 78° | 13km/h | 23706m | 4.9m/s | -54.0°C | 4.4% | 0hPa | 2.6V | 00:00:00 | 01:57:52 | 00:00:00 | |
| DO3MHA-11 | 2026-09-05 03:43:55 | 47.25843 | 12.57751 | 78° | 9km/h | 23702m | 4.1m/s | -54.0°C | 4.5% | 0hPa | 2.6V | 00:00:00 | 01:57:51 | 00:00:00 | |
| DG1MJG | 2026-09-05 03:43:54 | 47.25843 | 12.57751 | 78° | 7km/h | 23702m | 4.1m/s | -54.0°C | 1.4% | 0hPa | 2.6V | 00:00:00 | 00:00:00 | 00:00:00 | |
| OM5KV | 2026-09-05 03:43:53 | 47.25843 | 12.57748 | 68° | 9km/h | 23697m | 5.0m/s | -54.0°C | 1.3% | 0hPa | 2.6V | 00:00:00 | 00:00:00 | 00:00:00 | |
| OE3JTB-15 | 2026-09-05 03:43:52 | 47.25842 | 12.57741 | 75° | 13km/h | 23688m | 3.8m/s | -53.9°C | 4.4% | 0hPa | 2.6V | 00:00:00 | 01:57:48 | 00:00:00 | |
| BAUMI2-15 | 2026-09-05 03:43:50 | 47.25840 | 12.57735 | 74° | 7km/h | 23678m | 5.1m/s | -53.9°C | 4.4% | 0hPa | 2.6V | 00:00:00 | 01:57:46 | 08:30:00 | |
| DB0UT-7 | 2026-09-05 03:43:49 | 47.25840 | 12.57733 | 71° | 15km/h | 23674m | 4.4m/s | -54.0°C | 4.4% | 0hPa | 2.5V | 00:00:00 | 00:00:00 | 00:00:00 | |
| DO3MHA-12 | 2026-09-05 03:43:48 | 47.25839 | 12.57730 | 62° | 13km/h | 23668m | 5.3m/s | -54.0°C | 4.5% | 0hPa | 2.5V | 00:00:00 | 01:57:44 | 00:00:00 | |
| OE5DXL-15 | 2026-09-05 03:43:47 | 47.25838 | 12.57727 | 66° | 15km/h | 23664m | 3.9m/s | -54.0°C | 4.4% | 0hPa | 2.5V | 00:00:00 | 00:00:00 | 00:00:00 | |
| BAUMI2-15 | 2026-09-05 03:43:45 | 47.25837 | 12.57721 | 92° | 15km/h | 23654m | 5.0m/s | -54.1°C | 4.5% | 0hPa | 2.5V | 00:00:00 | 01:57:41 | 00:00:00 | |
| OE5HKT-10 | 2026-09-05 03:43:44 | 47.25838 | 12.57717 | 107° | 15km/h | 23649m | 4.4m/s | -54.1°C | 4.4% | 0hPa | 2.5V | 00:00:00 | 00:00:00 | 00:00:00 | |
| OM5KV | 2026-09-05 03:43:42 | 47.25839 | 12.57713 | 112° | 15km/h | 23645m | 5.5m/s | -54.1°C | 1.3% | 0hPa | 2.5V | 00:00:00 | 00:00:00 | 00:00:00 | |
| BAUMI2-15 | 2026-09-05 03:43:40 | 47.25841 | 12.57693 | 100° | 11km/h | 23630m | 5.3m/s | -54.1°C | 4.4% | 0hPa | 2.5V | 00:00:00 | 01:57:36 | 00:00:00 | |
| OE8JPQ-2 | 2026-09-05 03:43:39 | 47.25842 | 12.57687 | 104° | 15km/h | 23624m | 5.1m/s | -54.2°C | 4.5% | 0hPa | 2.5V | 00:00:00 | 00:00:00 | 00:00:00 | |
| IN3HCDX | 2026-09-05 03:43:38 | 47.25843 | 12.57683 | 107° | 9km/h | 23620m | 4.2m/s | -54.3°C | 1.4% | 0hPa | 2.6V | 00:00:00 | 00:00:00 | 00:00:00 | |
| OE5REO-15 | 2026-09-05 03:43:37 | 47.25843 | 12.57683 | 107° | 9km/h | 23620m | 4.2m/s | -54.3°C | 1.4% | 0hPa | 2.6V | 00:00:00 | 00:00:00 | 00:00:00 | |
| OM5KV | 2026-09-05 03:43:36 | 47.25843 | 12.57680 | 84° | 7km/h | 23615m | 4.6m/s | -54.3°C | 1.4% | 0hPa | 2.6V | 00:00:00 | 00:00:00 | 00:00:00 | |
| DO3MHA-11 | 2026-09-05 03:43:35 | 47.25842 | 12.57675 | 60° | 16km/h | 23605m | 4.4m/s | -54.3°C | 4.5% | 0hPa | 2.6V | 00:00:00 | 01:57:31 | 00:00:00 | |
| HARRO8 | 2026-09-05 03:43:31 | 47.25841 | 12.57659 | 102° | 15km/h | 23586m | 4.7m/s | -54.4°C | 1.3% | -1.0hPa | 2.5V | 00:00:00 | 00:00:00 | 00:00:00 | |
| BAUMI2-15 | 2026-09-05 03:43:30 | 47.25842 | 12.57653 | 106° | 22km/h | 23581m | 5.6m/s | -54.4°C | 4.5% | 0hPa | 2.5V | 00:00:00 | 01:57:26 | 00:00:00 | |
| DO3MHA-12 | 2026-09-05 03:43:28 | 47.25845 | 12.57636 | 112° | 18km/h | 23571m | 5.0m/s | -54.4°C | 4.5% | 0hPa | 2.5V | 00:00:00 | 01:57:24 | 00:00:00 | |
| DO3MHA-11 | 2026-09-05 03:43:25 | 47.25851 | 12.57613 | 97° | 18km/h | 23558m | 5.2m/s | -54.4°C | 4.5% | 0hPa | 2.5V | 00:00:00 | 01:57:21 | 00:00:00 | |
| OE5HKT-10 | 2026-09-05 03:43:23 | 47.25849 | 12.57601 | 68° | 22km/h | 23548m | 4.6m/s | -54.4°C | 4.5% | 0hPa | 2.5V | 00:00:00 | 00:00:00 | 00:00:00 | |
| OE5REO-15 | 2026-09-05 03:43:21 | 47.25848 | 12.57596 | 55° | 13km/h | 23542m | 5.7m/s | -54.4°C | 1.4% | 0hPa | 2.5V | 00:00:00 | 00:00:00 | 00:00:00 | |
| OE5MMP-10 | 2026-09-05 03:43:20 | 47.25843 | 12.57588 | 52° | 24km/h | 23533m | 4.6m/s | -54.4°C | 4.5% | 0hPa | 2.5V | 00:00:00 | 01:57:16 | 08:30:00 | |
| DB0UT-7 | 2026-09-05 03:43:19 | 47.25841 | 12.57583 | 60° | 24km/h | 23528m | 5.4m/s | -54.5°C | 4.5% | 0hPa | 2.6V | 00:00:00 | 01:57:15 | 00:00:00 | |
| DO3MHA-12 | 2026-09-05 03:43:18 | 47.25839 | 12.57576 | 70° | 24km/h | 23523m | 4.3m/s | -54.5°C | 4.5% | 0hPa | 2.6V | 00:00:00 | 01:57:14 | 08:30:00 | |
| OE5DXL-15 | 2026-09-05 03:43:17 | 47.25837 | 12.57568 | 78° | 24km/h | 23518m | 5.0m/s | -54.5°C | 4.5% | 0hPa | 2.6V | 00:00:00 | 00:00:00 | 00:00:00 | |
| DO3MHA-11 | 2026-09-05 03:43:15 | 47.25836 | 12.57551 | 90° | 24km/h | 23508m | 4.1m/s | -54.6°C | 4.5% | 0hPa | 2.5V | 00:00:00 | 01:57:11 | 00:00:00 | |
| OM5KV | 2026-09-05 03:43:12 | 47.25835 | 12.57532 | 78° | 27km/h | 23499m | 5.1m/s | -54.6°C | 1.4% | 0hPa | 2.5V | 00:00:00 | 00:00:00 | 00:00:00 | |
| BAUMI2-15 | 2026-09-05 03:43:10 | 47.25826 | 12.57506 | 51° | 22km/h | 23485m | 5.5m/s | -54.7°C | 4.5% | 0hPa | 2.5V | 00:00:00 | 01:57:06 | 00:00:00 | |
| PETON7-10 | 2026-09-05 03:43:09 | 47.25822 | 12.57499 | 44° | 22km/h | 23480m | 4.8m/s | 0°C | 0% | 0hPa | 2.5V | 00:00:00 | 00:00:00 | 00:00:00 | |
| DO3MHA-12 | 2026-09-05 03:43:08 | 47.25818 | 12.57493 | 42° | 24km/h | 23474m | 5.5m/s | -54.8°C | 4.6% | 0hPa | 2.5V | 00:00:00 | 01:57:04 | 00:00:00 | |
| OE5REO-15 | 2026-09-05 03:43:06 | 47.25813 | 12.57488 | 45° | 24km/h | 23469m | 5.1m/s | -54.9°C | 1.4% | 0hPa | 2.5V | 00:00:00 | 00:00:00 | 00:00:00 | |
| BAUMI2-15 | 2026-09-05 03:43:05 | 47.25806 | 12.57476 | 52° | 22km/h | 23459m | 5.5m/s | -55.1°C | 4.7% | 0hPa | 2.5V | 00:00:00 | 01:57:01 | 08:30:00 | |
| OE5HKT-10 | 2026-09-05 03:43:02 | 47.25798 | 12.57456 | 59° | 24km/h | 23445m | 5.4m/s | -55.1°C | 4.7% | 0hPa | 2.6V | 00:00:00 | 01:56:58 | 00:00:00 | |
| BAUMI2-15 | 2026-09-05 03:43:00 | 47.25790 | 12.57440 | 50° | 27km/h | 23435m | 4.6m/s | -55.0°C | 4.7% | 0hPa | 2.6V | 00:00:00 | 01:56:56 | 00:00:00 | |
| OE8JPQ-2 | 2026-09-05 03:42:59 | 47.25785 | 12.57432 | 45° | 22km/h | 23431m | 5.2m/s | -55.0°C | 4.8% | 0hPa | 2.6V | 00:00:00 | 01:56:55 | 00:00:00 | |
| DO3MHA-12 | 2026-09-05 03:42:58 | 47.25780 | 12.57426 | 40° | 24km/h | 23426m | 4.4m/s | -55.0°C | 4.7% | 0hPa | 2.6V | 00:00:00 | 01:56:54 | 00:00:00 | |
| BAUMI2-15 | 2026-09-05 03:42:55 | 47.25764 | 12.57408 | 39° | 22km/h | 23411m | 4.0m/s | -54.9°C | 4.7% | 0hPa | 2.6V | 00:00:00 | 01:56:51 | 00:00:00 | |
| OM5KV | 2026-09-05 03:42:54 | 47.25759 | 12.57402 | 39° | 24km/h | 23407m | 5.0m/s | -55.0°C | 1.4% | 0hPa | 2.6V | 00:00:00 | 00:00:00 | 00:00:00 | |
| DG1MJG | 2026-09-05 03:42:53 | 47.25759 | 12.57402 | 39° | 24km/h | 23407m | 5.0m/s | -55.0°C | 1.4% | 0hPa | 2.6V | 00:00:00 | 00:00:00 | 00:00:00 | |
| NBG1-10 | 2026-09-05 03:42:50 | 47.25743 | 12.57385 | 38° | 18km/h | 23387m | 5.0m/s | -54.9°C | 4.7% | 0hPa | 2.6V | 00:00:00 | 01:56:46 | 08:30:00 | |
| DB0UT-7 | 2026-09-05 03:42:49 | 47.25738 | 12.57380 | 36° | 18km/h | 23382m | 3.9m/s | -54.9°C | 4.7% | 0hPa | 2.6V | 00:00:00 | 00:00:00 | 00:00:00 | |
| DO3MHA-12 | 2026-09-05 03:42:48 | 47.25734 | 12.57375 | 36° | 20km/h | 23378m | 5.2m/s | -54.9°C | 4.7% | 0hPa | 2.6V | 00:00:00 | 01:56:44 | 00:00:00 | |
| DB0NH | 2026-09-05 03:42:47 | 47.25729 | 12.57370 | 37° | 16km/h | 23372m | 5.6m/s | -54.9°C | 4.7% | 0hPa | 2.6V | 00:00:00 | 01:56:43 | 00:00:00 | |
| BAUMI2-15 | 2026-09-05 03:42:45 | 47.25720 | 12.57360 | 39° | 22km/h | 23362m | 5.2m/s | -54.9°C | 4.6% | 0hPa | 2.6V | 00:00:00 | 01:56:41 | 00:00:00 | |
| OE5HKT-10 | 2026-09-05 03:42:41 | 47.25702 | 12.57342 | 30° | 16km/h | 23342m | 5.5m/s | -54.8°C | 4.6% | 0hPa | 2.6V | 00:00:00 | 00:00:00 | 08:30:00 | |
| OE5MMP-10 | 2026-09-05 03:42:40 | 47.25698 | 12.57339 | 28° | 18km/h | 23338m | 4.8m/s | -54.8°C | 4.6% | 0hPa | 2.5V | 00:00:00 | 01:56:36 | 00:00:00 | |
| OE8JPQ-2 | 2026-09-05 03:42:39 | 47.25694 | 12.57336 | 26° | 16km/h | 23333m | 4.4m/s | -54.8°C | 4.6% | 0hPa | 2.5V | 00:00:00 | 00:00:00 | 00:00:00 | |
| DO3MHA-12 | 2026-09-05 03:42:38 | 47.25690 | 12.57334 | 24° | 18km/h | 23328m | 6.1m/s | -54.8°C | 4.6% | 0hPa | 2.5V | 00:00:00 | 01:56:34 | 00:00:00 | |
| DG1MFX-10 | 2026-09-05 03:42:37 | 47.25690 | 12.57334 | 24° | 18km/h | 23328m | 6.1m/s | -54.8°C | 1.4% | 0hPa | 2.5V | 00:00:00 | 00:00:00 | 00:00:00 | |
| DO3MHA-11 | 2026-09-05 03:42:35 | 47.25677 | 12.57325 | 27° | 16km/h | 23313m | 5.3m/s | -54.8°C | 4.6% | 0hPa | 2.5V | 00:00:00 | 01:56:31 | 08:30:00 | |
| OM5KV | 2026-09-05 03:42:34 | 47.25677 | 12.57325 | 27° | 18km/h | 23313m | 5.4m/s | -54.9°C | 1.4% | 0hPa | 2.5V | 00:00:00 | 00:00:00 | 00:00:00 | |
| S52SK | 2026-09-05 03:42:32 | 47.25670 | 12.57320 | 26° | 16km/h | 23303m | 5.1m/s | -54.9°C | 1.5% | 0hPa | 2.5V | 00:00:00 | 00:00:00 | 00:00:00 | |
| OE5MMP-10 | 2026-09-05 03:42:30 | 47.25656 | 12.57312 | 17° | 15km/h | 23288m | 5.1m/s | -54.9°C | 4.7% | 0hPa | 2.5V | 00:00:00 | 01:56:26 | 00:00:00 | |
| HARRO8 | 2026-09-05 03:42:29 | 47.25652 | 12.57310 | 13° | 15km/h | 23282m | 5.9m/s | -55.0°C | 1.3% | -1.0hPa | 2.5V | 00:00:00 | 00:00:00 | 00:00:00 | |
| DO3MHA-12 | 2026-09-05 03:42:28 | 47.25648 | 12.57309 | 9° | 13km/h | 23277m | 4.6m/s | -54.9°C | 4.7% | 0hPa | 2.5V | 00:00:00 | 01:56:24 | 00:00:00 | |
| PETON7-10 | 2026-09-05 03:42:26 | 47.25641 | 12.57308 | 13° | 13km/h | 23267m | 5.7m/s | 0°C | 0% | 0hPa | 2.5V | 00:00:00 | 00:00:00 | 00:00:00 | |
| OE3JTB-15 | 2026-09-05 03:42:25 | 47.25638 | 12.57306 | 18° | 13km/h | 23262m | 4.4m/s | -54.9°C | 4.7% | 0hPa | 2.5V | 00:00:00 | 01:56:21 | 00:00:00 | |
| OM5KV | 2026-09-05 03:42:23 | 47.25634 | 12.57304 | 18° | 16km/h | 23258m | 4.0m/s | -54.9°C | 1.4% | 0hPa | 2.5V | 00:00:00 | 00:00:00 | 00:00:00 | |
| OE5DRO-10 | 2026-09-05 03:42:22 | 47.25627 | 12.57302 | 3° | 13km/h | 23247m | 5.2m/s | -54.8°C | 4.7% | 0hPa | 2.5V | 00:00:00 | 00:00:00 | 00:00:00 | |
| OE5HKT-10 | 2026-09-05 03:42:20 | 47.25622 | 12.57303 | 358° | 13km/h | 23238m | 5.5m/s | -54.8°C | 4.7% | 0hPa | 2.5V | 00:00:00 | 00:00:00 | 00:00:00 | |
| DB0UT-7 | 2026-09-05 03:42:19 | 47.25619 | 12.57303 | 356° | 11km/h | 23232m | 4.4m/s | -54.8°C | 4.7% | 0hPa | 2.5V | 00:00:00 | 01:56:15 | 00:00:00 | |
| DO3MHA-12 | 2026-09-05 03:42:18 | 47.25616 | 12.57303 | 353° | 13km/h | 23227m | 5.8m/s | -54.8°C | 4.7% | 0hPa | 2.5V | 00:00:00 | 01:56:14 | 00:00:00 | |
| DB0NH | 2026-09-05 03:42:17 | 47.25613 | 12.57304 | 344° | 11km/h | 23222m | 4.8m/s | -54.7°C | 4.7% | 0hPa | 2.6V | 00:00:00 | 01:56:13 | 00:00:00 | |
| DG1MFX-10 | 2026-09-05 03:42:16 | 47.25613 | 12.57304 | 344° | 11km/h | 23222m | 4.8m/s | -54.8°C | 1.5% | 0hPa | 2.6V | 00:00:00 | 00:00:00 | 00:00:00 | |
| DO3MHA-11 | 2026-09-05 03:42:15 | 47.25607 | 12.57306 | 351° | 13km/h | 23212m | 5.9m/s | -54.7°C | 4.6% | 0hPa | 2.6V | 00:00:00 | 01:56:11 | 00:00:00 | |
| IN3HCDX | 2026-09-05 03:42:13 | 47.25604 | 12.57307 | 357° | 15km/h | 23206m | 4.7m/s | -54.7°C | 1.4% | 0hPa | 2.6V | 00:00:00 | 00:00:00 | 00:00:00 | |
| OE5MMP-10 | 2026-09-05 03:42:10 | 47.25592 | 12.57311 | 322° | 13km/h | 23187m | 3.7m/s | -54.6°C | 4.6% | 0hPa | 2.6V | 00:00:00 | 01:56:06 | 00:00:00 | |
| DO3MHA-12 | 2026-09-05 03:42:08 | 47.25587 | 12.57317 | 325° | 11km/h | 23177m | 5.0m/s | -54.5°C | 4.6% | 0hPa | 2.6V | 00:00:00 | 01:56:04 | 00:00:00 | |
| DO3MHA-11 | 2026-09-05 03:42:05 | 47.25578 | 12.57326 | 318° | 9km/h | 23162m | 5.3m/s | -54.5°C | 4.6% | 0hPa | 2.6V | 00:00:00 | 01:56:01 | 00:00:00 | |
| OE5DRO-10 | 2026-09-05 03:42:03 | 47.25573 | 12.57332 | 328° | 9km/h | 23151m | 5.8m/s | -54.5°C | 4.6% | 0hPa | 2.6V | 00:00:00 | 00:00:00 | 00:00:00 | |
| OE5MMP-10 | 2026-09-05 03:42:00 | 47.25566 | 12.57338 | 326° | 11km/h | 23138m | 5.5m/s | -54.5°C | 4.6% | 0hPa | 2.6V | 00:00:00 | 01:55:56 | 00:00:00 | |
| OE5HKT-10 | 2026-09-05 03:41:59 | 47.25565 | 12.57339 | 303° | 9km/h | 23132m | 5.3m/s | -54.5°C | 4.6% | 0hPa | 2.6V | 00:00:00 | 01:55:55 | 00:00:00 | |
| DO3MHA-12 | 2026-09-05 03:41:58 | 47.25564 | 12.57342 | 292° | 11km/h | 23127m | 5.0m/s | -54.5°C | 4.7% | 0hPa | 2.6V | 00:00:00 | 01:55:54 | 00:00:00 | |
| OE3JTB-15 | 2026-09-05 03:41:56 | 47.25562 | 12.57348 | 299° | 9km/h | 23117m | 4.2m/s | -54.5°C | 4.6% | 0hPa | 2.6V | 00:00:00 | 00:00:00 | 08:30:00 | |
| DO3MHA-11 | 2026-09-05 03:41:55 | 47.25561 | 12.57352 | 298° | 9km/h | 23113m | 3.6m/s | -54.5°C | 4.6% | 0hPa | 2.6V | 00:00:00 | 01:55:51 | 00:00:00 | |
| IN3HCDX | 2026-09-05 03:41:53 | 47.25560 | 12.57356 | 287° | 13km/h | 23108m | 5.7m/s | -54.5°C | 1.4% | 0hPa | 2.6V | 00:00:00 | 00:00:00 | 00:00:00 | |
| DG1MJG | 2026-09-05 03:41:51 | 47.25558 | 12.57365 | 283° | 11km/h | 23098m | 4.6m/s | -54.4°C | 1.4% | 0hPa | 2.6V | 00:00:00 | 00:00:00 | 00:00:00 | |
| DB0UT-7 | 2026-09-05 03:41:49 | 47.25554 | 12.57373 | 342° | 9km/h | 23083m | 3.9m/s | -54.3°C | 4.6% | 0hPa | 2.6V | 00:00:00 | 00:00:00 | 08:30:00 | |
| DO3MHA-12 | 2026-09-05 03:41:48 | 47.25552 | 12.57373 | 343° | 9km/h | 23079m | 5.6m/s | -54.3°C | 4.5% | 0hPa | 2.6V | 00:00:00 | 01:55:44 | 08:30:00 | |
| OE5WHR-10 | 2026-09-05 03:41:47 | 47.25551 | 12.57375 | 320° | 7km/h | 23073m | 4.6m/s | -54.3°C | 4.6% | 0hPa | 2.6V | 00:00:00 | 00:00:00 | 08:30:00 | |
| OM5KV | 2026-09-05 03:41:46 | 47.25551 | 12.57374 | 321° | 5km/h | 23073m | 4.7m/s | -54.4°C | 1.4% | 0hPa | 2.5V | 00:00:00 | 00:00:00 | 00:00:00 | |
| DO3MHA-11 | 2026-09-05 03:41:45 | 47.25548 | 12.57378 | 314° | 9km/h | 23063m | 5.7m/s | -54.3°C | 4.6% | 0hPa | 2.5V | 00:00:00 | 01:55:41 | 00:00:00 | |
| NBG1-10 | 2026-09-05 03:41:44 | 47.25547 | 12.57380 | 306° | 9km/h | 23058m | 4.4m/s | -54.3°C | 4.6% | 0hPa | 2.5V | 00:00:00 | 01:55:40 | 00:00:00 | |
| OE5MMP-10 | 2026-09-05 03:41:40 | 47.25546 | 12.57395 | 274° | 7km/h | 23038m | 5.5m/s | -54.2°C | 4.6% | 0hPa | 2.5V | 00:00:00 | 01:55:36 | 00:00:00 | |
| OE8JPQ-2 | 2026-09-05 03:41:39 | 47.25545 | 12.57399 | 287° | 9km/h | 23033m | 4.8m/s | -54.2°C | 4.6% | 0hPa | 2.5V | 00:00:00 | 00:00:00 | 08:30:00 | |
| OE5HKT-10 | 2026-09-05 03:41:38 | 47.25545 | 12.57403 | 296° | 9km/h | 23029m | 3.8m/s | -54.2°C | 4.6% | 0hPa | 2.5V | 00:00:00 | 00:00:00 | 00:00:00 | |
| DO3MHA-11 | 2026-09-05 03:41:35 | 47.25542 | 12.57408 | 332° | 9km/h | 23014m | 4.4m/s | -54.1°C | 4.6% | 0hPa | 2.6V | 00:00:00 | 01:55:31 | 00:00:00 | |
| DG1MFX-10 | 2026-09-05 03:41:34 | 47.25542 | 12.57408 | 332° | 5km/h | 23014m | 4.4m/s | -54.2°C | 1.4% | 0hPa | 2.6V | 00:00:00 | 00:00:00 | 00:00:00 | |
| IN3HCDX | 2026-09-05 03:41:32 | 47.25538 | 12.57410 | 353° | 9km/h | 23004m | 4.8m/s | -54.1°C | 1.4% | 0hPa | 2.6V | 00:00:00 | 00:00:00 | 00:00:00 | |
| OE5REO-15 | 2026-09-05 03:41:31 | 47.25536 | 12.57410 | 359° | 9km/h | 22999m | 4.9m/s | -54.1°C | 1.4% | 0hPa | 2.6V | 00:00:00 | 00:00:00 | 00:00:00 | |
| OE5MMP-10 | 2026-09-05 03:41:30 | 47.25533 | 12.57411 | 325° | 9km/h | 22989m | 4.3m/s | -54.0°C | 4.6% | 0hPa | 2.6V | 00:00:00 | 01:55:26 | 00:00:00 | |
| DO3MHA-12 | 2026-09-05 03:41:28 | 47.25530 | 12.57416 | 298° | 9km/h | 22979m | 4.4m/s | -54.0°C | 4.6% | 0hPa | 2.6V | 00:00:00 | 01:55:24 | 00:00:00 | |
| OE3JTB-15 | 2026-09-05 03:41:27 | 47.25529 | 12.57420 | 288° | 11km/h | 22975m | 4.9m/s | -54.0°C | 4.5% | 0hPa | 2.6V | 00:00:00 | 00:00:00 | 00:00:00 | |
| OE5WHR-10 | 2026-09-05 03:41:26 | 47.25528 | 12.57424 | 282° | 9km/h | 22969m | 5.2m/s | -54.0°C | 4.6% | 0hPa | 2.6V | 00:00:00 | 00:00:00 | 00:00:00 | |
| DO3MHA-11 | 2026-09-05 03:41:25 | 47.25528 | 12.57427 | 270° | 11km/h | 22965m | 4.1m/s | -54.0°C | 4.6% | 0hPa | 2.6V | 00:00:00 | 01:55:21 | 00:00:00 | |
| DG1MJG | 2026-09-05 03:41:21 | 47.25525 | 12.57434 | 342° | 9km/h | 22951m | 4.2m/s | -53.9°C | 1.4% | 0hPa | 2.6V | 00:00:00 | 00:00:00 | 00:00:00 | |
| OE5MMP-10 | 2026-09-05 03:41:20 | 47.25520 | 12.57434 | 17° | 11km/h | 22941m | 4.5m/s | -53.8°C | 4.5% | 0hPa | 2.6V | 00:00:00 | 01:55:16 | 00:00:00 | |
| DB0UT-7 | 2026-09-05 03:41:19 | 47.25518 | 12.57433 | 23° | 11km/h | 22937m | 4.5m/s | -53.7°C | 4.5% | 0hPa | 2.6V | 00:00:00 | 01:55:15 | 00:00:00 | |
| DO3MHA-12 | 2026-09-05 03:41:18 | 47.25515 | 12.57432 | 16° | 11km/h | 22932m | 5.1m/s | -53.7°C | 4.5% | 0hPa | 2.6V | 00:00:00 | 01:55:14 | 00:00:00 | |
| OE5HKT-10 | 2026-09-05 03:41:17 | 47.25511 | 12.57430 | 10° | 11km/h | 22927m | 4.1m/s | -53.7°C | 4.4% | 0hPa | 2.5V | 00:00:00 | 00:00:00 | 00:00:00 | |
| DL6DJ-15 | 2026-09-05 03:41:16 | 47.25508 | 12.57430 | 2° | 9km/h | 22922m | 5.5m/s | -53.7°C | 1.3% | -1.0hPa | 2.5V | 00:00:00 | 00:00:00 | 00:00:00 | |
| DO3MHA-11 | 2026-09-05 03:41:15 | 47.25506 | 12.57430 | 344° | 9km/h | 22918m | 3.9m/s | -53.7°C | 4.5% | 0hPa | 2.5V | 00:00:00 | 01:55:11 | 00:00:00 | |
| DG1MFX-10 | 2026-09-05 03:41:14 | 47.25506 | 12.57430 | 344° | 7km/h | 22918m | 3.9m/s | -53.7°C | 1.4% | 0hPa | 2.5V | 00:00:00 | 00:00:00 | 00:00:00 | |
| IN3HCDX | 2026-09-05 03:41:11 | 47.25501 | 12.57436 | 309° | 13km/h | 22903m | 4.2m/s | -53.6°C | 1.4% | 0hPa | 2.5V | 00:00:00 | 00:00:00 | 00:00:00 | |
| OE5MMP-10 | 2026-09-05 03:41:10 | 47.25497 | 12.57444 | 305° | 11km/h | 22895m | 5.3m/s | -53.5°C | 4.4% | 0hPa | 2.5V | 00:00:00 | 01:55:06 | 00:00:00 | |
| DO3MHA-12 | 2026-09-05 03:41:08 | 47.25495 | 12.57446 | 5° | 11km/h | 22885m | 3.9m/s | -53.5°C | 4.4% | 0hPa | 2.5V | 00:00:00 | 01:55:04 | 00:00:00 | |
| OE5DRO-10 | 2026-09-05 03:41:06 | 47.25491 | 12.57445 | 11° | 11km/h | 22876m | 5.0m/s | -53.4°C | 4.4% | 0hPa | 2.5V | 00:00:00 | 00:00:00 | 08:30:00 | |
| OE5WHR-10 | 2026-09-05 03:41:05 | 47.25488 | 12.57444 | 11° | 11km/h | 22872m | 4.1m/s | -53.4°C | 4.4% | 0hPa | 2.6V | 00:00:00 | 01:55:01 | 00:00:00 | |
| OE5MMP-10 | 2026-09-05 03:41:00 | 47.25471 | 12.57438 | 359° | 11km/h | 22850m | 5.2m/s | -53.3°C | 4.3% | 0hPa | 2.6V | 00:00:00 | 01:54:56 | 00:00:00 | |
| OE8JPQ-2 | 2026-09-05 03:40:59 | 47.25469 | 12.57439 | 343° | 11km/h | 22845m | 4.5m/s | -53.3°C | 4.3% | 0hPa | 2.6V | 00:00:00 | 01:54:55 | 00:00:00 | |
| DO3MHA-12 | 2026-09-05 03:40:58 | 47.25466 | 12.57441 | 337° | 11km/h | 22840m | 3.7m/s | -53.2°C | 4.3% | 0hPa | 2.6V | 00:00:00 | 01:54:54 | 00:00:00 | |
| OE5HKT-10 | 2026-09-05 03:40:56 | 47.25460 | 12.57443 | 353° | 11km/h | 22831m | 4.9m/s | -53.2°C | 4.3% | 0hPa | 2.6V | 00:00:00 | 01:54:52 | 00:00:00 | |
| DO3MHA-11 | 2026-09-05 03:40:55 | 47.25457 | 12.57443 | 5° | 11km/h | 22826m | 4.5m/s | -53.2°C | 4.3% | 0hPa | 2.6V | 00:00:00 | 01:54:51 | 00:00:00 | |
| DG1MFX-10 | 2026-09-05 03:40:53 | 47.25455 | 12.57442 | 14° | 9km/h | 22822m | 4.4m/s | -53.3°C | 1.3% | 0hPa | 2.6V | 00:00:00 | 00:00:00 | 00:00:00 | |
| OM5KV | 2026-09-05 03:40:51 | 47.25449 | 12.57441 | 10° | 11km/h | 22813m | 4.3m/s | -53.3°C | 1.3% | 0hPa | 2.6V | 00:00:00 | 00:00:00 | 00:00:00 | |
| OE5MMP-10 | 2026-09-05 03:40:50 | 47.25444 | 12.57439 | 20° | 11km/h | 22803m | 4.6m/s | -53.2°C | 4.3% | 0hPa | 2.6V | 00:00:00 | 01:54:46 | 00:00:00 | |
| DO3MHA-12 | 2026-09-05 03:40:48 | 47.25439 | 12.57437 | 2° | 11km/h | 22794m | 5.3m/s | -53.2°C | 4.2% | 0hPa | 2.5V | 00:00:00 | 01:54:44 | 00:00:00 | |
| DB0NH | 2026-09-05 03:40:47 | 47.25436 | 12.57438 | 353° | 16km/h | 22789m | 4.4m/s | -53.3°C | 4.3% | 0hPa | 2.6V | 00:00:00 | 01:54:43 | 00:00:00 | |
| DO3MHA-11 | 2026-09-05 03:40:45 | 47.25430 | 12.57438 | 355° | 13km/h | 22781m | 4.7m/s | -53.3°C | 4.2% | 0hPa | 2.6V | 00:00:00 | 01:54:41 | 00:00:00 | |
| OE5REO-15 | 2026-09-05 03:40:44 | 47.25430 | 12.57438 | 355° | 11km/h | 22781m | 4.7m/s | -53.3°C | 1.3% | 0hPa | 2.6V | 00:00:00 | 00:00:00 | 00:00:00 | |
| OM5KV | 2026-09-05 03:40:43 | 47.25427 | 12.57439 | 357° | 9km/h | 22776m | 4.6m/s | -53.3°C | 1.3% | 0hPa | 2.6V | 00:00:00 | 00:00:00 | 00:00:00 | |
| OE5WHR-10 | 2026-09-05 03:40:42 | 47.25423 | 12.57439 | 359° | 22km/h | 22767m | 4.7m/s | -53.3°C | 4.2% | 0hPa | 2.6V | 00:00:00 | 00:00:00 | 00:00:00 | |
| OE5MMP-10 | 2026-09-05 03:40:40 | 47.25417 | 12.57438 | 17° | 16km/h | 22758m | 3.9m/s | -53.5°C | 4.3% | 0hPa | 2.5V | 00:00:00 | 01:54:36 | 00:00:00 | |
| OE8JPQ-2 | 2026-09-05 03:40:39 | 47.25414 | 12.57436 | 32° | 18km/h | 22753m | 5.4m/s | -53.5°C | 4.3% | 0hPa | 2.5V | 00:00:00 | 00:00:00 | 00:00:00 | |
| DO3MHA-12 | 2026-09-05 03:40:38 | 47.25411 | 12.57433 | 44° | 16km/h | 22748m | 4.7m/s | -53.6°C | 4.4% | 0hPa | 2.6V | 00:00:00 | 01:54:34 | 00:00:00 | |
| NBG1-10 | 2026-09-05 03:40:37 | 47.25408 | 12.57429 | 44° | 24km/h | 22744m | 4.4m/s | -53.6°C | 4.4% | 0hPa | 2.6V | 00:00:00 | 01:54:33 | 00:00:00 | |
| OM5KV | 2026-09-05 03:40:36 | 47.25408 | 12.57429 | 44° | 16km/h | 22744m | 4.4m/s | -53.7°C | 1.4% | 0hPa | 2.6V | 00:00:00 | 00:00:00 | 00:00:00 | |
| OE5HKT-10 | 2026-09-05 03:40:35 | 47.25401 | 12.57421 | 34° | 22km/h | 22734m | 4.7m/s | -53.6°C | 4.4% | 0hPa | 2.6V | 00:00:00 | 00:00:00 | 00:00:00 | |
| DG1MFX-10 | 2026-09-05 03:40:33 | 47.25397 | 12.57417 | 42° | 18km/h | 22728m | 6.0m/s | -53.6°C | 1.4% | 0hPa | 2.5V | 00:00:00 | 00:00:00 | 00:00:00 | |
| OE5MMP-10 | 2026-09-05 03:40:30 | 47.25383 | 12.57401 | 26° | 18km/h | 22708m | 4.4m/s | -53.6°C | 4.3% | 0hPa | 2.5V | 00:00:00 | 01:54:26 | 00:00:00 | |
| OE3JTB-15 | 2026-09-05 03:40:29 | 47.25380 | 12.57398 | 28° | 26km/h | 22704m | 4.2m/s | -53.6°C | 4.4% | 0hPa | 2.5V | 00:00:00 | 00:00:00 | 00:00:00 | |
| DO3MHA-12 | 2026-09-05 03:40:28 | 47.25376 | 12.57395 | 33° | 22km/h | 22699m | 5.2m/s | -53.7°C | 4.4% | 0hPa | 2.5V | 00:00:00 | 01:54:24 | 00:00:00 | |
| BAUMI2-15 | 2026-09-05 03:40:25 | 47.25366 | 12.57386 | 28° | 22km/h | 22684m | 4.6m/s | -53.6°C | 4.4% | 0hPa | 2.5V | 00:00:00 | 01:54:21 | 00:00:00 | |
| BAUMI2-15 | 2026-09-05 03:40:20 | 47.25342 | 12.57361 | 34° | 27km/h | 22662m | 5.5m/s | -53.6°C | 4.4% | 0hPa | 2.5V | 00:00:00 | 01:54:16 | 08:30:00 | |
| OE8JPQ-2 | 2026-09-05 03:40:19 | 47.25336 | 12.57355 | 29° | 27km/h | 22657m | 4.2m/s | -53.6°C | 4.4% | 0hPa | 2.6V | 00:00:00 | 00:00:00 | 00:00:00 | |
| DO3MHA-12 | 2026-09-05 03:40:18 | 47.25330 | 12.57350 | 30° | 27km/h | 22652m | 4.6m/s | -53.6°C | 4.3% | 0hPa | 2.6V | 00:00:00 | 01:54:14 | 08:30:00 | |
| DB0NH | 2026-09-05 03:40:17 | 47.25324 | 12.57345 | 34° | 26km/h | 22647m | 5.4m/s | -53.5°C | 4.3% | 0hPa | 2.6V | 00:00:00 | 01:54:13 | 00:00:00 | |
| DO3MHA-11 | 2026-09-05 03:40:15 | 47.25313 | 12.57332 | 43° | 27km/h | 22638m | 3.8m/s | -53.5°C | 4.4% | 0hPa | 2.6V | 00:00:00 | 01:54:11 | 00:00:00 | |
| OE5HKT-10 | 2026-09-05 03:40:14 | 47.25308 | 12.57327 | 40° | 26km/h | 22633m | 5.5m/s | -53.5°C | 4.4% | 0hPa | 2.6V | 00:00:00 | 00:00:00 | 00:00:00 | |
| DG1MFX-10 | 2026-09-05 03:40:12 | 47.25303 | 12.57321 | 36° | 26km/h | 22628m | 4.6m/s | -53.6°C | 1.4% | 0hPa | 2.6V | 00:00:00 | 00:00:00 | 00:00:00 | |
| BAUMI2-15 | 2026-09-05 03:40:10 | 47.25287 | 12.57303 | 39° | 29km/h | 22614m | 4.2m/s | -53.8°C | 4.4% | 0hPa | 2.6V | 00:00:00 | 01:54:06 | 00:00:00 | |
| OE5DRO-10 | 2026-09-05 03:40:09 | 47.25281 | 12.57297 | 33° | 24km/h | 22609m | 5.4m/s | -53.8°C | 4.5% | 0hPa | 2.6V | 00:00:00 | 00:00:00 | 00:00:00 | |
| DO3MHA-12 | 2026-09-05 03:40:08 | 47.25275 | 12.57292 | 27° | 27km/h | 22604m | 4.8m/s | -53.8°C | 4.5% | 0hPa | 2.5V | 00:00:00 | 01:54:04 | 00:00:00 | |
| OM5KV | 2026-09-05 03:40:06 | 47.25268 | 12.57287 | 25° | 29km/h | 22599m | 4.1m/s | -53.9°C | 1.4% | 0hPa | 2.5V | 00:00:00 | 00:00:00 | 00:00:00 | |
| DO3MHA-11 | 2026-09-05 03:40:05 | 47.25255 | 12.57277 | 33° | 24km/h | 22590m | 4.6m/s | -53.8°C | 4.5% | 0hPa | 2.5V | 00:00:00 | 01:54:01 | 00:00:00 | |
| NBG1-10 | 2026-09-05 03:40:04 | 47.25249 | 12.57271 | 35° | 20km/h | 22586m | 3.8m/s | -53.8°C | 4.5% | 0hPa | 2.6V | 00:00:00 | 01:54:00 | 00:00:00 | |
| DF7PN | 2026-09-05 03:40:03 | 47.25199 | 12.57228 | 10° | 18km/h | 22540m | 4.5m/s | -53.7°C | 1.3% | -1.0hPa | 2.6V | 00:00:00 | 00:00:00 | 00:00:00 | |
| HARRO8 | 2026-09-05 03:39:54 | 47.25199 | 12.57228 | 10° | 18km/h | 22540m | 4.5m/s | -53.7°C | 1.3% | -1.0hPa | 2.6V | 00:00:00 | 00:00:00 | 00:00:00 | |
| OE5HKT-10 | 2026-09-05 03:39:53 | 47.25194 | 12.57227 | 9° | 18km/h | 22535m | 4.7m/s | -53.7°C | 4.5% | 0hPa | 2.6V | 00:00:00 | 01:53:49 | 00:00:00 | |
| DG1MFX-10 | 2026-09-05 03:39:52 | 47.25195 | 12.57227 | 10° | 18km/h | 22535m | 4.7m/s | -53.7°C | 1.4% | 0hPa | 2.6V | 00:00:00 | 00:00:00 | 00:00:00 | |
| BAUMI2-15 | 2026-09-05 03:39:50 | 47.25180 | 12.57220 | 23° | 22km/h | 22521m | 4.0m/s | -53.6°C | 4.4% | 0hPa | 2.6V | 00:00:00 | 01:53:46 | 00:00:00 | |
| DB0UT-7 | 2026-09-05 03:39:49 | 47.25174 | 12.57216 | 27° | 18km/h | 22517m | 3.9m/s | -53.6°C | 4.4% | 0hPa | 2.6V | 00:00:00 | 00:00:00 | 00:00:00 | |
| DO3MHA-12 | 2026-09-05 03:39:48 | 47.25169 | 12.57212 | 33° | 16km/h | 22512m | 5.2m/s | -53.5°C | 4.4% | 0hPa | 2.6V | 00:00:00 | 01:53:44 | 00:00:00 | |
| OE5DXL-15 | 2026-09-05 03:39:47 | 47.25164 | 12.57208 | 35° | 15km/h | 22507m | 4.1m/s | -53.5°C | 4.4% | 0hPa | 2.5V | 00:00:00 | 00:00:00 | 00:00:00 | |
| BAUMI2-15 | 2026-09-05 03:39:45 | 47.25157 | 12.57202 | 26° | 16km/h | 22499m | 5.3m/s | -53.5°C | 4.4% | 0hPa | 2.5V | 00:00:00 | 01:53:41 | 00:00:00 | |
| OE5REO-15 | 2026-09-05 03:39:44 | 47.25158 | 12.57202 | 26° | 15km/h | 22499m | 5.3m/s | -53.6°C | 1.4% | 0hPa | 2.5V | 00:00:00 | 00:00:00 | 00:00:00 | |
| DL6DJ-15 | 2026-09-05 03:39:43 | 47.25149 | 12.57199 | 5° | 16km/h | 22489m | 4.2m/s | -53.5°C | 1.3% | -1.0hPa | 2.5V | 00:00:00 | 00:00:00 | 00:00:00 | |
| OM5KV | 2026-09-05 03:39:42 | 47.25149 | 12.57199 | 7° | 18km/h | 22489m | 4.2m/s | -53.5°C | 1.4% | 0hPa | 2.5V | 00:00:00 | 00:00:00 | 00:00:00 | |
| BAUMI2-15 | 2026-09-05 03:39:40 | 47.25137 | 12.57199 | 358° | 16km/h | 22476m | 4.2m/s | -53.5°C | 4.4% | 0hPa | 2.5V | 00:00:00 | 01:53:36 | 00:00:00 | |
| OE8JPQ-2 | 2026-09-05 03:39:39 | 47.25133 | 12.57199 | 359° | 15km/h | 22471m | 5.1m/s | -53.5°C | 4.5% | 0hPa | 2.5V | 00:00:00 | 00:00:00 | 00:00:00 | |
| 9A1FER-3 | 2026-09-05 03:39:38 | 47.25129 | 12.57199 | 6° | 15km/h | 22466m | 4.8m/s | -53.4°C | 4.4% | 0hPa | 2.5V | 00:00:00 | 01:53:34 | 00:00:00 | |
| OM5KV | 2026-09-05 03:39:36 | 47.25124 | 12.57198 | 10° | 18km/h | 22462m | 4.1m/s | -53.5°C | 1.4% | 0hPa | 2.5V | 00:00:00 | 00:00:00 | 00:00:00 | |
| DO3MHA-11 | 2026-09-05 03:39:35 | 47.25116 | 12.57195 | 11° | 13km/h | 22452m | 4.6m/s | -53.4°C | 4.4% | 0hPa | 2.5V | 00:00:00 | 01:53:31 | 08:30:00 | |
| OE5HKT-10 | 2026-09-05 03:39:32 | 47.25103 | 12.57191 | 11° | 13km/h | 22437m | 4.0m/s | -53.3°C | 4.4% | 0hPa | 2.6V | 00:00:00 | 00:00:00 | 08:30:00 | |
| OE3JTB-15 | 2026-09-05 03:39:31 | 47.25100 | 12.57190 | 9° | 11km/h | 22433m | 4.4m/s | -53.3°C | 4.4% | 0hPa | 2.5V | 00:00:00 | 01:53:27 | 00:00:00 | |
| OE5WHR-10 | 2026-09-05 03:39:30 | 47.25097 | 12.57190 | 6° | 9km/h | 22428m | 4.9m/s | -53.3°C | 4.4% | 0hPa | 2.5V | 00:00:00 | 00:00:00 | 00:00:00 | |
| OE5REO-15 | 2026-09-05 03:39:29 | 47.25097 | 12.57190 | 7° | 9km/h | 22428m | 5.0m/s | -53.3°C | 1.4% | 0hPa | 2.5V | 00:00:00 | 00:00:00 | 00:00:00 | |
| DO3MHA-12 | 2026-09-05 03:39:28 | 47.25092 | 12.57190 | 345° | 15km/h | 22419m | 5.3m/s | -53.2°C | 4.3% | 0hPa | 2.5V | 00:00:00 | 01:53:24 | 00:00:00 | |
| IN3HCDX | 2026-09-05 03:39:27 | 47.25092 | 12.57190 | 346° | 11km/h | 22419m | 5.4m/s | -53.3°C | 1.4% | 0hPa | 2.5V | 00:00:00 | 00:00:00 | 00:00:00 | |
| DO3MHA-11 | 2026-09-05 03:39:25 | 47.25082 | 12.57195 | 333° | 13km/h | 22404m | 5.6m/s | -53.1°C | 4.3% | 0hPa | 2.5V | 00:00:00 | 01:53:21 | 00:00:00 | |
| HARRO8 | 2026-09-05 03:39:23 | 47.25072 | 12.57201 | 342° | 18km/h | 22389m | 4.4m/s | -53.1°C | 1.2% | -1.0hPa | 2.5V | 00:00:00 | 00:00:00 | 00:00:00 | |
| OE5MMP-10 | 2026-09-05 03:39:20 | 47.25064 | 12.57205 | 343° | 11km/h | 22381m | 5.7m/s | -53.0°C | 4.3% | 0hPa | 2.5V | 00:00:00 | 01:53:16 | 00:00:00 | |
| OE8JPQ-2 | 2026-09-05 03:39:19 | 47.25061 | 12.57206 | 336° | 9km/h | 22376m | 4.7m/s | -53.0°C | 4.3% | 0hPa | 2.6V | 00:00:00 | 00:00:00 | 00:00:00 | |
| DO3MHA-12 | 2026-09-05 03:39:18 | 47.25059 | 12.57208 | 327° | 11km/h | 22371m | 4.1m/s | -53.0°C | 4.3% | 0hPa | 2.6V | 00:00:00 | 01:53:14 | 00:00:00 | |
| DB0NH | 2026-09-05 03:39:17 | 47.25057 | 12.57210 | 334° | 9km/h | 22366m | 5.4m/s | -52.9°C | 4.3% | 0hPa | 2.5V | 00:00:00 | 01:53:13 | 00:00:00 | |
| DB0UT-7 | 2026-09-05 03:39:15 | 47.25053 | 12.57212 | 351° | 9km/h | 22356m | 4.5m/s | -52.9°C | 4.2% | 0hPa | 2.5V | 00:00:00 | 01:53:11 | 00:00:00 | |
| OE5REO-15 | 2026-09-05 03:39:13 | 47.25050 | 12.57213 | 337° | 11km/h | 22352m | 5.4m/s | -52.9°C | 1.3% | 0hPa | 2.5V | 00:00:00 | 00:00:00 | 00:00:00 | |
| OE5DRO-10 | 2026-09-05 03:39:12 | 47.25045 | 12.57217 | 328° | 9km/h | 22342m | 4.6m/s | -52.9°C | 4.2% | 0hPa | 2.5V | 00:00:00 | 00:00:00 | 00:00:00 | |
| OE5HKT-10 | 2026-09-05 03:39:11 | 47.25042 | 12.57219 | 338° | 9km/h | 22337m | 5.5m/s | -53.0°C | 4.2% | 0hPa | 2.6V | 00:00:00 | 00:00:00 | 00:00:00 | |
| BAUMI2-15 | 2026-09-05 03:39:10 | 47.25039 | 12.57220 | 347° | 11km/h | 22332m | 4.0m/s | -53.0°C | 4.2% | 0hPa | 2.6V | 00:00:00 | 01:53:06 | 00:00:00 | |
| 9A1FER-3 | 2026-09-05 03:39:08 | 47.25034 | 12.57223 | 325° | 9km/h | 22323m | 5.6m/s | -53.0°C | 4.2% | 0hPa | 2.6V | 00:00:00 | 01:53:04 | 00:00:00 | |
| OM5KV | 2026-09-05 03:39:06 | 47.25032 | 12.57226 | 309° | 9km/h | 22318m | 4.1m/s | -53.1°C | 1.3% | 0hPa | 2.6V | 00:00:00 | 00:00:00 | 00:00:00 | |
| BAUMI2-15 | 2026-09-05 03:39:05 | 47.25029 | 12.57231 | 317° | 9km/h | 22308m | 5.2m/s | -53.1°C | 4.3% | 0hPa | 2.6V | 00:00:00 | 01:53:01 | 00:00:00 | |
| DF7PN | 2026-09-05 03:39:01 | 47.25024 | 12.57241 | 294° | 9km/h | 22289m | 4.0m/s | -53.2°C | 1.2% | -1.0hPa | 2.5V | 00:00:00 | 00:00:00 | 00:00:00 | |
| HARRO8 | 2026-09-05 03:38:52 | 47.25019 | 12.57261 | 194° | 5km/h | 22242m | 5.1m/s | -53.4°C | 1.2% | -1.0hPa | 2.5V | 00:00:00 | 00:00:00 | 00:00:00 | |
| OE5HKT-10 | 2026-09-05 03:38:50 | 47.25020 | 12.57262 | 207° | 9km/h | 22237m | 4.5m/s | -53.4°C | 4.2% | 0hPa | 2.5V | 00:00:00 | 01:52:46 | 00:00:00 | |
| DG1MFX-10 | 2026-09-05 03:38:49 | 47.25021 | 12.57262 | 208° | 9km/h | 22237m | 4.6m/s | -53.5°C | 1.4% | 0hPa | 2.5V | 00:00:00 | 00:00:00 | 00:00:00 | |
| DO3MHA-12 | 2026-09-05 03:38:48 | 47.25024 | 12.57264 | 223° | 5km/h | 22227m | 4.2m/s | -53.5°C | 4.2% | 0hPa | 2.5V | 00:00:00 | 01:52:44 | 08:30:00 | |
| DB0NH | 2026-09-05 03:38:47 | 47.25025 | 12.57266 | 256° | 11km/h | 22223m | 4.2m/s | -53.6°C | 4.2% | 0hPa | 2.5V | 00:00:00 | 01:52:43 | 00:00:00 | |
| DB0UT-7 | 2026-09-05 03:38:45 | 47.25026 | 12.57272 | 247° | 11km/h | 22213m | 4.3m/s | -53.7°C | 4.3% | 0hPa | 2.5V | 00:00:00 | 00:00:00 | 00:00:00 | |
| OM5KV | 2026-09-05 03:38:44 | 47.25025 | 12.57272 | 248° | 9km/h | 22213m | 4.4m/s | -53.7°C | 1.3% | 0hPa | 2.5V | 00:00:00 | 00:00:00 | 00:00:00 | |
| OE5REO-15 | 2026-09-05 03:38:42 | 47.25027 | 12.57278 | 242° | 5km/h | 22204m | 5.3m/s | -53.8°C | 1.4% | 0hPa | 2.5V | 00:00:00 | 00:00:00 | 00:00:00 | |
| DL6DJ-15 | 2026-09-05 03:38:41 | 47.25028 | 12.57279 | 148° | 2km/h | 22195m | 4.4m/s | -53.9°C | 1.3% | -1.0hPa | 2.5V | 00:00:00 | 00:00:00 | 00:00:00 | |
| OE5MMP-10 | 2026-09-05 03:38:40 | 47.25029 | 12.57278 | 155° | 11km/h | 22190m | 5.5m/s | -54.0°C | 4.4% | 0hPa | 2.5V | 00:00:00 | 01:52:36 | 00:00:00 | |
| OE8JPQ-2 | 2026-09-05 03:38:39 | 47.25030 | 12.57278 | 179° | 13km/h | 22185m | 4.4m/s | -54.0°C | 4.3% | 0hPa | 2.5V | 00:00:00 | 00:00:00 | 08:30:00 | |
| DO3MHA-12 | 2026-09-05 03:38:38 | 47.25032 | 12.57277 | 169° | 11km/h | 22181m | 4.2m/s | -54.0°C | 4.4% | 0hPa | 2.5V | 00:00:00 | 01:52:34 | 00:00:00 | |
| DO3MHA-11 | 2026-09-05 03:38:35 | 47.25038 | 12.57271 | 143° | 13km/h | 22165m | 5.5m/s | -54.1°C | 4.4% | 0hPa | 2.5V | 00:00:00 | 01:52:31 | 00:00:00 | |
| OE5DRO-10 | 2026-09-05 03:38:34 | 47.25040 | 12.57269 | 139° | 15km/h | 22160m | 4.4m/s | -54.1°C | 4.4% | 0hPa | 2.6V | 00:00:00 | 00:00:00 | 00:00:00 | |
| OE3JTB-15 | 2026-09-05 03:38:33 | 47.25042 | 12.57265 | 129° | 15km/h | 22156m | 4.1m/s | -54.1°C | 4.4% | 0hPa | 2.6V | 00:00:00 | 00:00:00 | 00:00:00 | |
| OE5MMP-10 | 2026-09-05 03:38:30 | 47.25045 | 12.57252 | 96° | 15km/h | 22141m | 5.5m/s | -54.1°C | 4.4% | 0hPa | 2.6V | 00:00:00 | 01:52:26 | 00:00:00 | |
| OE5HKT-10 | 2026-09-05 03:38:29 | 47.25045 | 12.57248 | 103° | 15km/h | 22136m | 4.5m/s | -54.1°C | 4.4% | 0hPa | 2.6V | 00:00:00 | 00:00:00 | 00:00:00 | |
| DO3MHA-12 | 2026-09-05 03:38:28 | 47.25046 | 12.57244 | 97° | 16km/h | 22132m | 4.1m/s | -54.2°C | 4.4% | 0hPa | 2.6V | 00:00:00 | 01:52:24 | 00:00:00 | |
| OE5WHR-10 | 2026-09-05 03:38:27 | 47.25046 | 12.57239 | 93° | 13km/h | 22127m | 5.4m/s | -54.2°C | 4.4% | 0hPa | 2.6V | 00:00:00 | 00:00:00 | 00:00:00 | |
| OE5REO-15 | 2026-09-05 03:38:26 | 47.25046 | 12.57239 | 93° | 13km/h | 22127m | 5.5m/s | -54.3°C | 1.4% | 0hPa | 2.6V | 00:00:00 | 00:00:00 | 00:00:00 | |
| NBG1-10 | 2026-09-05 03:38:25 | 47.25047 | 12.57228 | 100° | 15km/h | 22117m | 4.9m/s | -54.4°C | 4.4% | 0hPa | 2.6V | 00:00:00 | 01:52:21 | 00:00:00 | |
| IN3HCDX | 2026-09-05 03:38:24 | 47.25047 | 12.57228 | 101° | 16km/h | 22117m | 4.9m/s | -54.4°C | 1.4% | 0hPa | 2.6V | 00:00:00 | 00:00:00 | 00:00:00 | |
| 9A1FER-3 | 2026-09-05 03:38:23 | 47.25049 | 12.57217 | 114° | 15km/h | 22108m | 3.6m/s | -54.5°C | 4.5% | 0hPa | 2.6V | 00:00:00 | 01:52:19 | 00:00:00 | |
| HARRO8 | 2026-09-05 03:38:21 | 47.25052 | 12.57198 | 91° | 15km/h | 22094m | 4.6m/s | -54.7°C | 1.3% | -1.0hPa | 2.6V | 00:00:00 | 00:00:00 | 00:00:00 | |
| OE5MMP-10 | 2026-09-05 03:38:20 | 47.25052 | 12.57198 | 92° | 15km/h | 22094m | 4.6m/s | -54.7°C | 4.6% | 0hPa | 2.6V | 00:00:00 | 01:52:16 | 00:00:00 | |
| OE8JPQ-2 | 2026-09-05 03:38:19 | 47.25052 | 12.57192 | 93° | 13km/h | 22089m | 5.4m/s | -54.7°C | 4.6% | 0hPa | 2.5V | 00:00:00 | 00:00:00 | 00:00:00 | |
| DO3MHA-12 | 2026-09-05 03:38:18 | 47.25052 | 12.57188 | 86° | 15km/h | 22084m | 4.4m/s | -54.7°C | 4.6% | 0hPa | 2.5V | 00:00:00 | 01:52:14 | 00:00:00 | |
| DB0NH | 2026-09-05 03:38:17 | 47.25051 | 12.57184 | 77° | 15km/h | 22080m | 4.2m/s | -54.7°C | 4.6% | 0hPa | 2.6V | 00:00:00 | 01:52:13 | 00:00:00 | |
| OM5KV | 2026-09-05 03:38:16 | 47.25051 | 12.57184 | 78° | 11km/h | 22080m | 4.2m/s | -54.8°C | 1.5% | 0hPa | 2.6V | 00:00:00 | 00:00:00 | 00:00:00 | |
| DO3MHA-11 | 2026-09-05 03:38:15 | 47.25049 | 12.57175 | 63° | 13km/h | 22070m | 4.5m/s | -54.9°C | 4.6% | 0hPa | 2.6V | 00:00:00 | 01:52:11 | 00:00:00 | |
| OE5MMP-10 | 2026-09-05 03:38:10 | 47.25046 | 12.57148 | 79° | 13km/h | 22046m | 4.8m/s | -55.1°C | 4.8% | 0hPa | 2.6V | 00:00:00 | 01:52:06 | 00:00:00 | |
| DG1MFX-10 | 2026-09-05 03:38:09 | 47.25046 | 12.57148 | 80° | 16km/h | 22046m | 4.9m/s | -55.1°C | 1.6% | 0hPa | 2.6V | 00:00:00 | 00:00:00 | 00:00:00 | |
| DO3MHA-12 | 2026-09-05 03:38:08 | 47.25045 | 12.57138 | 88° | 11km/h | 22036m | 4.9m/s | -55.1°C | 4.8% | 0hPa | 2.6V | 00:00:00 | 01:52:04 | 00:00:00 | |
| DO3MHA-11 | 2026-09-05 03:38:05 | 47.25042 | 12.57128 | 45° | 13km/h | 22022m | 4.8m/s | -55.0°C | 4.8% | 0hPa | 2.6V | 00:00:00 | 01:52:01 | 08:30:00 | |
| OE5WHR-10 | 2026-09-05 03:38:04 | 47.25040 | 12.57124 | 43° | 15km/h | 22018m | 3.9m/s | -55.0°C | 4.8% | 0hPa | 2.6V | 00:00:00 | 01:52:00 | 00:00:00 | |
| DF7PN | 2026-09-05 03:37:59 | 47.25031 | 12.57104 | 69° | 9km/h | 21988m | 4.7m/s | -54.8°C | 1.4% | -1.0hPa | 2.6V | 00:00:00 | 00:00:00 | 00:00:00 | |
| HARRO8 | 2026-09-05 03:37:49 | 47.25011 | 12.57054 | 52° | 11km/h | 21939m | 5.3m/s | -54.7°C | 1.4% | -1.0hPa | 2.6V | 00:00:00 | 00:00:00 | 00:00:00 | |
| DO3MHA-12 | 2026-09-05 03:37:48 | 47.25011 | 12.57054 | 53° | 13km/h | 21939m | 5.2m/s | -54.6°C | 4.6% | 0hPa | 2.6V | 00:00:00 | 01:51:44 | 00:00:00 | |
| OE5DXL-15 | 2026-09-05 03:37:47 | 47.25010 | 12.57050 | 83° | 9km/h | 21934m | 5.5m/s | -54.6°C | 4.6% | 0hPa | 2.6V | 00:00:00 | 00:00:00 | 00:00:00 | |
| DO3MHA-11 | 2026-09-05 03:37:45 | 47.25010 | 12.57042 | 104° | 11km/h | 21923m | 5.5m/s | -54.6°C | 4.6% | 0hPa | 2.6V | 00:00:00 | 01:51:41 | 00:00:00 | |
| IN3HCDX | 2026-09-05 03:37:43 | 47.25011 | 12.57039 | 102° | 9km/h | 21918m | 4.9m/s | -54.7°C | 1.5% | 0hPa | 2.6V | 00:00:00 | 00:00:00 | 00:00:00 | |
| OM5KV | 2026-09-05 03:37:42 | 47.25011 | 12.57036 | 89° | 9km/h | 21914m | 4.2m/s | -54.7°C | 1.5% | 0hPa | 2.6V | 00:00:00 | 00:00:00 | 00:00:00 | |
| OE5MMP-10 | 2026-09-05 03:37:40 | 47.25010 | 12.57022 | 81° | 11km/h | 21899m | 4.7m/s | -54.6°C | 4.6% | 0hPa | 2.6V | 00:00:00 | 01:51:36 | 00:00:00 | |
| DL6DJ-15 | 2026-09-05 03:37:39 | 47.25008 | 12.57013 | 53° | 11km/h | 21888m | 4.9m/s | -54.7°C | 1.4% | -1.0hPa | 2.6V | 00:00:00 | 00:00:00 | 00:00:00 | |
| 9A1FER-3 | 2026-09-05 03:37:38 | 47.25008 | 12.57013 | 54° | 9km/h | 21889m | 4.8m/s | -54.6°C | 4.6% | 0hPa | 2.6V | 00:00:00 | 01:51:34 | 00:00:00 | |
| DO3MHA-12 | 2026-09-05 03:37:37 | 47.25006 | 12.57010 | 47° | 11km/h | 21884m | 4.6m/s | -54.6°C | 4.6% | 0hPa | 2.6V | 00:00:00 | 01:51:33 | 00:00:00 | |
| OM5KV | 2026-09-05 03:37:36 | 47.25006 | 12.57010 | 47° | 13km/h | 21884m | 4.7m/s | -54.7°C | 1.4% | 0hPa | 2.6V | 00:00:00 | 00:00:00 | 00:00:00 | |
| DO3MHA-11 | 2026-09-05 03:37:35 | 47.25002 | 12.57003 | 55° | 9km/h | 21874m | 4.9m/s | -54.6°C | 4.7% | 0hPa | 2.6V | 00:00:00 | 01:51:31 | 00:00:00 | |
| OM5KV | 2026-09-05 03:37:31 | 47.24996 | 12.56994 | 55° | 7km/h | 21859m | 4.3m/s | -54.8°C | 1.5% | 0hPa | 2.5V | 00:00:00 | 00:00:00 | 00:00:00 | |
| OE5MMP-10 | 2026-09-05 03:37:30 | 47.24995 | 12.56988 | 96° | 7km/h | 21849m | 4.2m/s | -54.7°C | 4.7% | 0hPa | 2.5V | 00:00:00 | 01:51:26 | 00:00:00 | |
| DF7PN | 2026-09-05 03:37:28 | 47.24995 | 12.56980 | 81° | 4km/h | 21834m | 4.6m/s | -54.7°C | 1.4% | -1.0hPa | 2.5V | 00:00:00 | 00:00:00 | 00:00:00 | |
| DO3MHA-12 | 2026-09-05 03:37:27 | 47.24995 | 12.56980 | 82° | 7km/h | 21834m | 4.6m/s | -54.6°C | 4.6% | 0hPa | 2.5V | 00:00:00 | 01:51:23 | 00:00:00 | |
| OE5HKT-10 | 2026-09-05 03:37:26 | 47.24995 | 12.56978 | 62° | 5km/h | 21829m | 4.2m/s | -54.6°C | 4.6% | 0hPa | 2.5V | 00:00:00 | 00:00:00 | 00:00:00 | |
| DO3MHA-11 | 2026-09-05 03:37:25 | 47.24994 | 12.56976 | 59° | 7km/h | 21825m | 5.7m/s | -54.6°C | 4.6% | 0hPa | 2.5V | 00:00:00 | 01:51:21 | 00:00:00 | |
| S52SK | 2026-09-05 03:37:24 | 47.24994 | 12.56976 | 59° | 5km/h | 21825m | 5.7m/s | -54.7°C | 1.5% | 0hPa | 2.5V | 00:00:00 | 00:00:00 | 00:00:00 | |
| 9A1FER-3 | 2026-09-05 03:37:23 | 47.24993 | 12.56972 | 44° | 7km/h | 21814m | 4.7m/s | -54.6°C | 4.6% | 0hPa | 2.5V | 00:00:00 | 01:51:19 | 00:00:00 | |
| IN3HCDX | 2026-09-05 03:37:22 | 47.24993 | 12.56972 | 45° | 7km/h | 21814m | 4.8m/s | -54.7°C | 1.5% | 0hPa | 2.5V | 00:00:00 | 00:00:00 | 00:00:00 | |
| OE5REO-15 | 2026-09-05 03:37:21 | 47.24991 | 12.56971 | 5° | 7km/h | 21809m | 5.6m/s | -54.7°C | 1.4% | 0hPa | 2.5V | 00:00:00 | 00:00:00 | 00:00:00 | |
| OE5MMP-10 | 2026-09-05 03:37:20 | 47.24988 | 12.56971 | 2° | 7km/h | 21800m | 5.0m/s | -54.6°C | 4.6% | 0hPa | 2.5V | 00:00:00 | 01:51:16 | 08:30:00 | |
| NBG1-10 | 2026-09-05 03:37:19 | 47.24986 | 12.56971 | 11° | 7km/h | 21795m | 5.3m/s | -54.6°C | 4.6% | 0hPa | 2.6V | 00:00:00 | 01:51:15 | 00:00:00 | |
| OE5DRO-10 | 2026-09-05 03:37:18 | 47.24985 | 12.56969 | 53° | 5km/h | 21790m | 4.4m/s | -54.6°C | 4.6% | 0hPa | 2.6V | 00:00:00 | 00:00:00 | 00:00:00 | |
| DO3MHA-12 | 2026-09-05 03:37:17 | 47.24984 | 12.56967 | 58° | 7km/h | 21786m | 4.4m/s | -54.6°C | 4.6% | 0hPa | 2.6V | 00:00:00 | 01:51:13 | 08:30:00 | |
| DO3MHA-11 | 2026-09-05 03:37:15 | 47.24982 | 12.56962 | 79° | 5km/h | 21775m | 4.8m/s | -54.6°C | 4.6% | 0hPa | 2.5V | 00:00:00 | 01:51:11 | 00:00:00 | |
| S52SK | 2026-09-05 03:37:12 | 47.24982 | 12.56958 | 107° | 7km/h | 21765m | 5.8m/s | -54.7°C | 1.5% | 0hPa | 2.5V | 00:00:00 | 00:00:00 | 00:00:00 | |
| OE5MMP-10 | 2026-09-05 03:37:10 | 47.24986 | 12.56951 | 148° | 4km/h | 21749m | 5.4m/s | -54.6°C | 4.7% | 0hPa | 2.5V | 00:00:00 | 01:51:06 | 00:00:00 | |
| DL6DJ-15 | 2026-09-05 03:37:08 | 47.24988 | 12.56949 | 157° | 2km/h | 21734m | 5.8m/s | -54.7°C | 1.3% | -1.0hPa | 2.5V | 00:00:00 | 00:00:00 | 00:00:00 | |
| DO3MHA-12 | 2026-09-05 03:37:07 | 47.24988 | 12.56949 | 158° | 4km/h | 21735m | 5.7m/s | -54.6°C | 4.6% | 0hPa | 2.5V | 00:00:00 | 01:51:03 | 00:00:00 | |
| OE3JTB-15 | 2026-09-05 03:37:06 | 47.24989 | 12.56948 | 137° | 5km/h | 21729m | 4.6m/s | -54.6°C | 4.7% | 0hPa | 2.5V | 00:00:00 | 00:00:00 | 00:00:00 | |
| OE5HKT-10 | 2026-09-05 03:37:05 | 47.24990 | 12.56947 | 130° | 7km/h | 21725m | 4.2m/s | -54.6°C | 4.6% | 0hPa | 2.5V | 00:00:00 | 00:00:00 | 00:00:00 | |
| DF7PN | 2026-09-05 03:36:57 | 47.24990 | 12.56910 | 74° | 9km/h | 21640m | 5.7m/s | -54.7°C | 1.4% | -1.0hPa | 2.5V | 00:00:00 | 00:00:00 | 00:00:00 | |
| DO3MHA-11 | 2026-09-05 03:36:55 | 47.24995 | 12.56932 | 74° | 9km/h | 21674m | 5.2m/s | -54.5°C | 4.5% | 0hPa | 2.5V | 00:00:00 | 01:50:51 | 00:00:00 | |
| 9A1FER-3 | 2026-09-05 03:36:53 | 47.24993 | 12.56927 | 54° | 7km/h | 21665m | 4.0m/s | -54.5°C | 4.6% | 0hPa | 2.5V | 00:00:00 | 01:50:49 | 00:00:00 | |
| OE5MMP-10 | 2026-09-05 03:36:50 | 47.24990 | 12.56917 | 80° | 5km/h | 21650m | 4.4m/s | -54.6°C | 4.7% | 0hPa | 2.5V | 00:00:00 | 01:50:46 | 00:00:00 | |
| OE5WHR-10 | 2026-09-05 03:36:48 | 47.24990 | 12.56910 | 75° | 5km/h | 21640m | 5.6m/s | -54.6°C | 4.7% | 0hPa | 2.5V | 00:00:00 | 00:00:00 | 00:00:00 | |
| DB0NH | 2026-09-05 03:36:47 | 47.24989 | 12.56907 | 60° | 7km/h | 21635m | 4.1m/s | -54.6°C | 4.6% | 0hPa | 2.5V | 00:00:00 | 01:50:43 | 00:00:00 | |
| NBG1-10 | 2026-09-05 03:36:46 | 47.24989 | 12.56905 | 96° | 7km/h | 21631m | 4.5m/s | -54.6°C | 4.6% | 0hPa | 2.5V | 00:00:00 | 01:50:42 | 00:00:00 | |
| DO3MHA-11 | 2026-09-05 03:36:45 | 47.24989 | 12.56904 | 125° | 5km/h | 21626m | 5.3m/s | -54.6°C | 4.6% | 0hPa | 2.5V | 00:00:00 | 01:50:41 | 00:00:00 | |
| OE5HKT-10 | 2026-09-05 03:36:44 | 47.24990 | 12.56903 | 139° | 7km/h | 21621m | 4.7m/s | -54.6°C | 4.6% | 0hPa | 2.5V | 00:00:00 | 01:50:40 | 00:00:00 | |
| OE5MMP-10 | 2026-09-05 03:36:40 | 47.24993 | 12.56900 | 136° | 7km/h | 21601m | 5.2m/s | -54.5°C | 4.6% | 0hPa | 2.5V | 00:00:00 | 01:50:36 | 00:00:00 | |
| OE8JPQ-2 | 2026-09-05 03:36:39 | 47.24993 | 12.56898 | 120° | 9km/h | 21596m | 4.8m/s | -54.4°C | 4.6% | 0hPa | 2.5V | 00:00:00 | 00:00:00 | 00:00:00 | |
| 9A1FER-3 | 2026-09-05 03:36:38 | 47.24994 | 12.56896 | 95° | 7km/h | 21591m | 5.5m/s | -54.4°C | 4.6% | 0hPa | 2.5V | 00:00:00 | 01:50:34 | 00:00:00 | |
| DO3MHA-12 | 2026-09-05 03:36:37 | 47.24994 | 12.56893 | 85° | 9km/h | 21586m | 4.6m/s | -54.4°C | 4.5% | 0hPa | 2.5V | 00:00:00 | 01:50:33 | 00:00:00 | |
| DL6DJ-15 | 2026-09-05 03:36:36 | 47.24994 | 12.56891 | 70° | 7km/h | 21581m | 4.4m/s | -54.5°C | 1.4% | -1.0hPa | 2.5V | 00:00:00 | 00:00:00 | 00:00:00 | |
| OE5REO-15 | 2026-09-05 03:36:35 | 47.24994 | 12.56891 | 72° | 7km/h | 21581m | 4.4m/s | -54.5°C | 1.5% | 0hPa | 2.5V | 00:00:00 | 00:00:00 | 00:00:00 | |
| OM5KV | 2026-09-05 03:36:32 | 47.24992 | 12.56881 | 67° | 9km/h | 21567m | 5.7m/s | -54.4°C | 1.4% | 0hPa | 2.5V | 00:00:00 | 00:00:00 | 00:00:00 | |
| BAUMI2-15 | 2026-09-05 03:36:30 | 47.24988 | 12.56874 | 64° | 7km/h | 21552m | 5.3m/s | -54.4°C | 4.6% | 0hPa | 2.5V | 00:00:00 | 01:50:26 | 00:00:00 | |
| DO3MHA-12 | 2026-09-05 03:36:27 | 47.24987 | 12.56865 | 75° | 9km/h | 21538m | 5.2m/s | -54.5°C | 4.6% | 0hPa | 2.5V | 00:00:00 | 01:50:23 | 00:00:00 | |
| BAUMI2-15 | 2026-09-05 03:36:25 | 47.24985 | 12.56860 | 50° | 9km/h | 21529m | 4.2m/s | -54.6°C | 4.6% | 0hPa | 2.5V | 00:00:00 | 01:50:21 | 00:00:00 | |
| 9A1FER-3 | 2026-09-05 03:36:23 | 47.24984 | 12.56853 | 74° | 9km/h | 21520m | 4.8m/s | -54.6°C | 4.6% | 0hPa | 2.5V | 00:00:00 | 01:50:19 | 00:00:00 | |
| DB0UT-7 | 2026-09-05 03:36:21 | 47.24982 | 12.56846 | 67° | 11km/h | 21509m | 4.6m/s | -54.6°C | 4.6% | 0hPa | 2.6V | 00:00:00 | 00:00:00 | 00:00:00 | |
| BAUMI2-15 | 2026-09-05 03:36:20 | 47.24981 | 12.56843 | 86° | 9km/h | 21505m | 4.7m/s | -54.7°C | 4.6% | 0hPa | 2.6V | 00:00:00 | 01:50:16 | 00:00:00 | |
| OE8JPQ-2 | 2026-09-05 03:36:19 | 47.24981 | 12.56840 | 88° | 9km/h | 21500m | 5.2m/s | -54.7°C | 4.7% | 0hPa | 2.5V | 00:00:00 | 00:00:00 | 00:00:00 | |
| DO3MHA-12 | 2026-09-05 03:36:17 | 47.24982 | 12.56833 | 93° | 9km/h | 21490m | 5.1m/s | -54.8°C | 4.7% | 0hPa | 2.5V | 00:00:00 | 01:50:13 | 00:00:00 | |
| HARRO8 | 2026-09-05 03:36:16 | 47.24982 | 12.56830 | 81° | 5km/h | 21485m | 5.0m/s | -54.8°C | 1.4% | -1.0hPa | 2.6V | 00:00:00 | 00:00:00 | 00:00:00 | |
| DO3MHA-11 | 2026-09-05 03:36:15 | 47.24982 | 12.56827 | 86° | 9km/h | 21480m | 4.2m/s | -54.8°C | 4.7% | 0hPa | 2.6V | 00:00:00 | 01:50:11 | 00:00:00 | |
| NBG1-10 | 2026-09-05 03:36:13 | 47.24981 | 12.56822 | 92° | 11km/h | 21471m | 4.4m/s | -54.7°C | 4.7% | 0hPa | 2.6V | 00:00:00 | 01:50:09 | 00:00:00 | |
| BAUMI2-15 | 2026-09-05 03:36:10 | 47.24980 | 12.56813 | 73° | 9km/h | 21456m | 4.3m/s | -54.6°C | 4.6% | 0hPa | 2.6V | 00:00:00 | 01:50:06 | 00:00:00 | |
| 9A1FER-3 | 2026-09-05 03:36:08 | 47.24980 | 12.56806 | 83° | 9km/h | 21446m | 4.5m/s | -54.6°C | 4.6% | 0hPa | 2.6V | 00:00:00 | 01:50:04 | 00:00:00 | |
| DO3MHA-12 | 2026-09-05 03:36:07 | 47.24979 | 12.56803 | 71° | 9km/h | 21441m | 5.4m/s | -54.5°C | 4.6% | 0hPa | 2.6V | 00:00:00 | 01:50:03 | 00:00:00 | |
| DG1MFX-10 | 2026-09-05 03:36:06 | 47.24979 | 12.56803 | 71° | 7km/h | 21441m | 5.4m/s | -54.6°C | 1.5% | 0hPa | 2.6V | 00:00:00 | 00:00:00 | 00:00:00 | |
| DO3MHA-11 | 2026-09-05 03:36:05 | 47.24977 | 12.56797 | 60° | 11km/h | 21433m | 3.8m/s | -54.5°C | 4.6% | 0hPa | 2.6V | 00:00:00 | 01:50:01 | 00:00:00 | |
| OM5KV | 2026-09-05 03:36:04 | 47.24977 | 12.56797 | 61° | 9km/h | 21433m | 3.8m/s | -54.5°C | 1.5% | 0hPa | 2.6V | 00:00:00 | 00:00:00 | 00:00:00 | |
| OE5REO-15 | 2026-09-05 03:36:03 | 47.24977 | 12.56794 | 87° | 11km/h | 21428m | 5.4m/s | -54.5°C | 1.5% | 0hPa | 2.6V | 00:00:00 | 00:00:00 | 00:00:00 | |
| DF7PN | 2026-09-05 03:35:54 | 47.24985 | 12.56754 | 134° | 9km/h | 21372m | 4.6m/s | -54.5°C | -1.0% | -1.0hPa | 2.6V | 00:00:00 | 00:00:00 | 00:00:00 | |
| 9A1FER-3 | 2026-09-05 03:35:53 | 47.24984 | 12.56756 | 127° | 15km/h | 21377m | 5.5m/s | -54.4°C | 4.5% | 0hPa | 2.6V | 00:00:00 | 01:49:49 | 00:00:00 | |
| PG1ADW-2 | 2026-09-05 03:35:51 | 47.24987 | 12.56751 | 138° | 15km/h | 21367m | 5.4m/s | -54.5°C | 4.5% | 0hPa | 2.6V | 00:00:00 | 00:00:00 | 00:00:00 | |
| BAUMI2-15 | 2026-09-05 03:35:50 | 47.24988 | 12.56749 | 140° | 11km/h | 21362m | 4.7m/s | -54.5°C | 4.5% | 0hPa | 2.6V | 00:00:00 | 01:49:46 | 00:00:00 | |
| DO3MHA-12 | 2026-09-05 03:35:47 | 47.24995 | 12.56743 | 153° | 18km/h | 21348m | 5.1m/s | -54.5°C | 4.6% | 0hPa | 2.5V | 00:00:00 | 01:49:43 | 08:30:00 | |
| DG1MJG | 2026-09-05 03:35:46 | 47.24995 | 12.56743 | 153° | 15km/h | 21348m | 5.1m/s | -54.5°C | 1.5% | 0hPa | 2.5V | 00:00:00 | 00:00:00 | 00:00:00 | |
| BAUMI2-15 | 2026-09-05 03:35:45 | 47.25002 | 12.56736 | 142° | 18km/h | 21339m | 5.2m/s | -54.4°C | 4.5% | 0hPa | 2.5V | 00:00:00 | 01:49:41 | 00:00:00 | |
| OE5DRO-10 | 2026-09-05 03:35:43 | 47.25008 | 12.56727 | 136° | 16km/h | 21329m | 5.6m/s | -54.5°C | 4.5% | 0hPa | 2.5V | 00:00:00 | 00:00:00 | 00:00:00 | |
| OE5HKT-10 | 2026-09-05 03:35:41 | 47.25015 | 12.56717 | 136° | 15km/h | 21319m | 5.0m/s | -54.5°C | 4.6% | 0hPa | 2.5V | 00:00:00 | 01:49:37 | 00:00:00 | |
| NBG1-10 | 2026-09-05 03:35:40 | 47.25018 | 12.56712 | 127° | 15km/h | 21314m | 4.9m/s | -54.6°C | 4.6% | 0hPa | 2.5V | 00:00:00 | 01:49:36 | 00:00:00 | |
| OE8JPQ-2 | 2026-09-05 03:35:39 | 47.25021 | 12.56707 | 135° | 15km/h | 21309m | 4.7m/s | -54.6°C | 4.6% | 0hPa | 2.5V | 00:00:00 | 00:00:00 | 08:30:00 | |
| 9A1FER-3 | 2026-09-05 03:35:38 | 47.25024 | 12.56703 | 141° | 15km/h | 21304m | 5.3m/s | -54.7°C | 4.6% | 0hPa | 2.5V | 00:00:00 | 01:49:34 | 08:30:00 | |
| DO3MHA-12 | 2026-09-05 03:35:37 | 47.25027 | 12.56699 | 144° | 16km/h | 21299m | 3.9m/s | -54.7°C | 4.7% | 0hPa | 2.5V | 00:00:00 | 01:49:33 | 00:00:00 | |
| DO3MHA-11 | 2026-09-05 03:35:35 | 47.25033 | 12.56692 | 143° | 13km/h | 21290m | 5.0m/s | -54.7°C | 4.7% | 0hPa | 2.5V | 00:00:00 | 01:49:31 | 00:00:00 | |
| DL6DJ-15 | 2026-09-05 03:35:34 | 47.25035 | 12.56690 | 137° | 9km/h | 21286m | 3.8m/s | -54.8°C | 1.4% | -1.0hPa | 2.5V | 00:00:00 | 00:00:00 | 00:00:00 | |
| PG1ADW-2 | 2026-09-05 03:35:31 | 47.25042 | 12.56682 | 152° | 15km/h | 21273m | 4.1m/s | -54.7°C | 4.7% | 0hPa | 2.5V | 00:00:00 | 00:00:00 | 00:00:00 | |
| OE5MMP-10 | 2026-09-05 03:35:30 | 47.25046 | 12.56680 | 149° | 15km/h | 21269m | 4.4m/s | -54.7°C | 4.7% | 0hPa | 2.6V | 00:00:00 | 01:49:26 | 00:00:00 | |
| S52SK | 2026-09-05 03:35:29 | 47.25046 | 12.56680 | 150° | 15km/h | 21269m | 4.5m/s | -54.8°C | 1.5% | 0hPa | 2.6V | 00:00:00 | 00:00:00 | 00:00:00 | |
| DG1MFX-10 | 2026-09-05 03:35:26 | 47.25053 | 12.56668 | 128° | 16km/h | 21255m | 4.8m/s | -54.8°C | 1.5% | 0hPa | 2.6V | 00:00:00 | 00:00:00 | 00:00:00 | |
| DO3MHA-12 | 2026-09-05 03:35:25 | 47.25058 | 12.56658 | 126° | 15km/h | 21246m | 4.5m/s | -54.6°C | 4.7% | 0hPa | 2.6V | 00:00:00 | 01:49:21 | 00:00:00 | |
| OE5DRO-10 | 2026-09-05 03:35:24 | 47.25061 | 12.56653 | 121° | 15km/h | 21241m | 5.2m/s | -54.6°C | 4.7% | 0hPa | 2.6V | 00:00:00 | 00:00:00 | 08:30:00 | |
| 9A1FER-3 | 2026-09-05 03:35:23 | 47.25062 | 12.56648 | 110° | 15km/h | 21237m | 4.1m/s | -54.6°C | 4.6% | 0hPa | 2.5V | 00:00:00 | 01:49:19 | 00:00:00 | |
| OE5MMP-10 | 2026-09-05 03:35:20 | 47.25069 | 12.56637 | 147° | 13km/h | 21223m | 4.0m/s | -54.5°C | 4.6% | 0hPa | 2.5V | 00:00:00 | 01:49:16 | 00:00:00 | |
| OE8JPQ-2 | 2026-09-05 03:35:19 | 47.25072 | 12.56634 | 150° | 16km/h | 21218m | 4.8m/s | -54.5°C | 4.6% | 0hPa | 2.5V | 00:00:00 | 00:00:00 | 00:00:00 | |
| DB0NH | 2026-09-05 03:35:17 | 47.25077 | 12.56629 | 152° | 16km/h | 21209m | 4.1m/s | -54.4°C | 4.6% | 0hPa | 2.5V | 00:00:00 | 01:49:13 | 00:00:00 | |
| OE5REO-15 | 2026-09-05 03:35:16 | 47.25077 | 12.56629 | 152° | 11km/h | 21209m | 4.2m/s | -54.5°C | 1.5% | 0hPa | 2.5V | 00:00:00 | 00:00:00 | 00:00:00 | |
| DO3MHA-12 | 2026-09-05 03:35:15 | 47.25083 | 12.56625 | 157° | 16km/h | 21200m | 3.8m/s | -54.4°C | 4.6% | 0hPa | 2.5V | 00:00:00 | 01:49:11 | 00:00:00 | |
| HARRO8 | 2026-09-05 03:35:14 | 47.25086 | 12.56623 | 141° | 11km/h | 21196m | 4.9m/s | -54.5°C | 1.4% | -1.0hPa | 2.6V | 00:00:00 | 00:00:00 | 00:00:00 | |
| OM5KV | 2026-09-05 03:35:13 | 47.25086 | 12.56623 | 143° | 13km/h | 21196m | 4.9m/s | -54.5°C | 1.5% | 0hPa | 2.6V | 00:00:00 | 00:00:00 | 00:00:00 | |
| DB0UT-7 | 2026-09-05 03:35:11 | 47.25092 | 12.56612 | 125° | 18km/h | 21182m | 5.5m/s | -54.4°C | 4.6% | 0hPa | 2.6V | 00:00:00 | 00:00:00 | 00:00:00 | |
| BAUMI2-15 | 2026-09-05 03:35:10 | 47.25094 | 12.56607 | 133° | 18km/h | 21177m | 4.3m/s | -54.4°C | 4.6% | 0hPa | 2.6V | 00:00:00 | 01:49:06 | 00:00:00 | |
| 9A1FER-3 | 2026-09-05 03:35:08 | 47.25100 | 12.56597 | 131° | 16km/h | 21168m | 5.2m/s | -54.3°C | 4.5% | 0hPa | 2.6V | 00:00:00 | 01:49:04 | 00:00:00 | |
| NBG1-10 | 2026-09-05 03:35:07 | 47.25103 | 12.56592 | 124° | 16km/h | 21163m | 4.7m/s | -54.3°C | 4.6% | 0hPa | 2.6V | 00:00:00 | 01:49:03 | 00:00:00 | |
| DO3MHA-12 | 2026-09-05 03:35:05 | 47.25110 | 12.56581 | 138° | 16km/h | 21154m | 5.1m/s | -54.3°C | 4.6% | 0hPa | 2.6V | 00:00:00 | 01:49:01 | 00:00:00 | |
| DL6DJ-15 | 2026-09-05 03:35:03 | 47.25117 | 12.56573 | 141° | 16km/h | 21145m | 5.2m/s | -54.4°C | 1.3% | -1.0hPa | 2.6V | 00:00:00 | 00:00:00 | 00:00:00 | |
| BAUMI2-15 | 2026-09-05 03:35:00 | 47.25126 | 12.56560 | 139° | 16km/h | 21131m | 4.9m/s | -54.3°C | 4.6% | 0hPa | 2.6V | 00:00:00 | 01:48:56 | 00:00:00 | |
| OE5HKT-10 | 2026-09-05 03:34:59 | 47.25129 | 12.56557 | 144° | 16km/h | 21127m | 4.0m/s | -54.3°C | 4.5% | 0hPa | 2.6V | 00:00:00 | 00:00:00 | 00:00:00 | |
| IN3HCDX | 2026-09-05 03:34:56 | 47.25135 | 12.56549 | 135° | 16km/h | 21118m | 4.4m/s | -54.4°C | 1.5% | 0hPa | 2.6V | 00:00:00 | 00:00:00 | 00:00:00 | |
| BAUMI2-15 | 2026-09-05 03:34:55 | 47.25140 | 12.56540 | 139° | 16km/h | 21109m | 5.3m/s | -54.3°C | 4.5% | 0hPa | 2.6V | 00:00:00 | 01:48:51 | 00:00:00 | |
| 9A1FER-3 | 2026-09-05 03:34:53 | 47.25147 | 12.56532 | 143° | 18km/h | 21099m | 4.2m/s | -54.3°C | 4.5% | 0hPa | 2.6V | 00:00:00 | 01:48:49 | 00:00:00 | |
| DO3MHA-12 | 2026-09-05 03:34:52 | 47.25150 | 12.56528 | 138° | 18km/h | 21095m | 5.1m/s | -54.4°C | 4.5% | 0hPa | 2.5V | 00:00:00 | 01:48:48 | 00:00:00 | |
| PG1ADW-2 | 2026-09-05 03:34:51 | 47.25153 | 12.56523 | 129° | 16km/h | 21090m | 3.7m/s | -54.5°C | 4.6% | 0hPa | 2.5V | 00:00:00 | 00:00:00 | 00:00:00 | |
| BAUMI2-15 | 2026-09-05 03:34:50 | 47.25156 | 12.56519 | 129° | 16km/h | 21087m | 3.8m/s | -54.5°C | 4.6% | 0hPa | 2.5V | 00:00:00 | 01:48:46 | 00:00:00 | |
| DB0NH | 2026-09-05 03:34:47 | 47.25164 | 12.56506 | 135° | 24km/h | 21074m | 4.1m/s | -54.5°C | 4.6% | 0hPa | 2.5V | 00:00:00 | 01:48:43 | 00:00:00 | |
| OE5DRO-10 | 2026-09-05 03:34:46 | 47.25167 | 12.56501 | 135° | 16km/h | 21069m | 4.8m/s | -54.5°C | 4.6% | 0hPa | 2.5V | 00:00:00 | 00:00:00 | 00:00:00 | |
| BAUMI2-15 | 2026-09-05 03:34:45 | 47.25171 | 12.56496 | 128° | 22km/h | 21065m | 4.0m/s | -54.5°C | 4.6% | 0hPa | 2.5V | 00:00:00 | 01:48:41 | 00:00:00 | |
| OE5REO-15 | 2026-09-05 03:34:44 | 47.25171 | 12.56496 | 129° | 22km/h | 21065m | 4.0m/s | -54.6°C | 1.5% | 0hPa | 2.5V | 00:00:00 | 00:00:00 | 00:00:00 | |
| DO3MHA-11 | 2026-09-05 03:34:43 | 47.25178 | 12.56484 | 138° | 15km/h | 21055m | 4.0m/s | -54.6°C | 4.6% | 0hPa | 2.5V | 00:00:00 | 01:48:39 | 00:00:00 | |
| DO3MHA-12 | 2026-09-05 03:34:42 | 47.25182 | 12.56479 | 137° | 13km/h | 21051m | 3.6m/s | -54.6°C | 4.6% | 0hPa | 2.5V | 00:00:00 | 01:48:38 | 00:00:00 | |
| DB0UT-7 | 2026-09-05 03:34:41 | 47.25185 | 12.56474 | 131° | 11km/h | 21047m | 4.7m/s | -54.7°C | 4.6% | 0hPa | 2.5V | 00:00:00 | 01:48:37 | 00:00:00 | |
| OE5MMP-10 | 2026-09-05 03:34:40 | 47.25188 | 12.56469 | 122° | 13km/h | 21042m | 4.2m/s | -54.7°C | 4.7% | 0hPa | 2.5V | 00:00:00 | 01:48:36 | 00:00:00 | |
| OE8JPQ-2 | 2026-09-05 03:34:39 | 47.25190 | 12.56464 | 121° | 13km/h | 21039m | 4.1m/s | -54.7°C | 4.7% | 0hPa | 2.5V | 00:00:00 | 00:00:00 | 00:00:00 | |
| OE5HKT-10 | 2026-09-05 03:34:38 | 47.25192 | 12.56459 | 122° | 11km/h | 21034m | 5.3m/s | -54.6°C | 4.7% | 0hPa | 2.5V | 00:00:00 | 01:48:34 | 00:00:00 | |
| IN3HCDX | 2026-09-05 03:34:35 | 47.25196 | 12.56453 | 138° | 9km/h | 21025m | 4.0m/s | -54.7°C | 1.5% | 0hPa | 2.5V | 00:00:00 | 00:00:00 | 00:00:00 | |
| NBG1-10 | 2026-09-05 03:34:34 | 47.25199 | 12.56447 | 132° | 9km/h | 21016m | 3.7m/s | -54.6°C | 4.6% | 0hPa | 2.5V | 00:00:00 | 01:48:30 | 00:00:00 | |
| DO3MHA-11 | 2026-09-05 03:34:33 | 47.25201 | 12.56445 | 138° | 15km/h | 21012m | 4.7m/s | -54.6°C | 4.6% | 0hPa | 2.5V | 00:00:00 | 01:48:29 | 00:00:00 | |
| DO3MHA-12 | 2026-09-05 03:34:32 | 47.25203 | 12.56442 | 141° | 11km/h | 21007m | 3.9m/s | -54.6°C | 4.6% | 0hPa | 2.5V | 00:00:00 | 01:48:28 | 00:00:00 | |
| PG1ADW-2 | 2026-09-05 03:34:31 | 47.25206 | 12.56439 | 130° | 11km/h | 21003m | 4.4m/s | -54.6°C | 4.7% | 0hPa | 2.5V | 00:00:00 | 00:00:00 | 08:30:00 | |
| OE5MMP-10 | 2026-09-05 03:34:30 | 47.25208 | 12.56434 | 128° | 13km/h | 20998m | 4.9m/s | -54.6°C | 4.6% | 0hPa | 2.6V | 00:00:00 | 01:48:26 | 00:00:00 | |
| OE5REO-15 | 2026-09-05 03:34:28 | 47.25210 | 12.56429 | 112° | 18km/h | 20994m | 3.6m/s | -54.7°C | 1.5% | 0hPa | 2.6V | 00:00:00 | 00:00:00 | 00:00:00 | |
| OM5KV | 2026-09-05 03:34:27 | 47.25214 | 12.56417 | 116° | 16km/h | 20986m | 4.9m/s | -54.7°C | 1.5% | 0hPa | 2.6V | 00:00:00 | 00:00:00 | 00:00:00 | |
| DG1MFX-10 | 2026-09-05 03:34:25 | 47.25215 | 12.56412 | 120° | 13km/h | 20981m | 3.8m/s | -54.7°C | 1.6% | 0hPa | 2.6V | 00:00:00 | 00:00:00 | 00:00:00 | |
| 9A1FER-3 | 2026-09-05 03:34:23 | 47.25218 | 12.56401 | 100° | 9km/h | 20968m | 4.2m/s | -54.6°C | 4.7% | 0hPa | 2.6V | 00:00:00 | 01:48:19 | 00:00:00 | |
| DO3MHA-12 | 2026-09-05 03:34:22 | 47.25218 | 12.56397 | 99° | 9km/h | 20964m | 4.8m/s | -54.5°C | 4.7% | 0hPa | 2.6V | 00:00:00 | 01:48:18 | 00:00:00 | |
| OE5MMP-10 | 2026-09-05 03:34:20 | 47.25220 | 12.56392 | 115° | 9km/h | 20954m | 4.5m/s | -54.5°C | 4.6% | 0hPa | 2.6V | 00:00:00 | 01:48:16 | 08:30:00 | |
| OE8JPQ-2 | 2026-09-05 03:34:19 | 47.25220 | 12.56389 | 104° | 7km/h | 20950m | 4.9m/s | -54.5°C | 4.7% | 0hPa | 2.5V | 00:00:00 | 00:00:00 | 00:00:00 | |
| OE5DXL-15 | 2026-09-05 03:34:17 | 47.25221 | 12.56381 | 96° | 5km/h | 20941m | 4.2m/s | -54.5°C | 4.6% | 0hPa | 2.5V | 00:00:00 | 00:00:00 | 00:00:00 | |
| OE5HKT-10 | 2026-09-05 03:34:16 | 47.25222 | 12.56377 | 115° | 5km/h | 20937m | 4.7m/s | -54.5°C | 4.7% | 0hPa | 2.5V | 00:00:00 | 00:00:00 | 00:00:00 | |
| OM5KV | 2026-09-05 03:34:15 | 47.25221 | 12.56377 | 115° | 9km/h | 20937m | 4.8m/s | -54.5°C | 1.5% | 0hPa | 2.6V | 00:00:00 | 00:00:00 | 00:00:00 | |
| IN3HCDX | 2026-09-05 03:34:14 | 47.25223 | 12.56375 | 118° | 7km/h | 20932m | 4.2m/s | -54.5°C | 1.5% | 0hPa | 2.6V | 00:00:00 | 00:00:00 | 00:00:00 | |
| DO3MHA-11 | 2026-09-05 03:34:13 | 47.25224 | 12.56369 | 100° | 5km/h | 20924m | 4.9m/s | -54.4°C | 4.7% | 0hPa | 2.6V | 00:00:00 | 01:48:09 | 00:00:00 | |
| DO3MHA-12 | 2026-09-05 03:34:12 | 47.25223 | 12.56365 | 80° | 5km/h | 20919m | 3.9m/s | -54.4°C | 4.7% | 0hPa | 2.6V | 00:00:00 | 01:48:08 | 08:30:00 | |
| DB0UT-7 | 2026-09-05 03:34:11 | 47.25223 | 12.56362 | 83° | 5km/h | 20915m | 4.9m/s | -54.4°C | 4.7% | 0hPa | 2.5V | 00:00:00 | 00:00:00 | 00:00:00 | |
| OE5MMP-10 | 2026-09-05 03:34:10 | 47.25223 | 12.56360 | 65° | 5km/h | 20910m | 4.5m/s | -54.4°C | 4.7% | 0hPa | 2.6V | 00:00:00 | 01:48:06 | 00:00:00 | |
| 9A1FER-3 | 2026-09-05 03:34:08 | 47.25222 | 12.56356 | 75° | 5km/h | 20901m | 5.3m/s | 0°C | 0% | 0hPa | 2.6V | 00:00:00 | 01:48:04 | 00:00:00 | |
| OE5WHR-10 | 2026-09-05 03:34:05 | 47.25220 | 12.56351 | 64° | 16km/h | 20886m | 4.4m/s | -54.3°C | 4.6% | 0hPa | 2.6V | 00:00:00 | 00:00:00 | 00:00:00 | |
| DG1MFX-10 | 2026-09-05 03:34:04 | 47.25220 | 12.56351 | 64° | 2km/h | 20886m | 4.4m/s | -54.3°C | 1.5% | 0hPa | 2.5V | 00:00:00 | 00:00:00 | 00:00:00 | |
| DO3MHA-11 | 2026-09-05 03:34:03 | 47.25218 | 12.56349 | 52° | 5km/h | 20876m | 4.8m/s | -54.3°C | 4.6% | 0hPa | 2.5V | 00:00:00 | 01:47:59 | 00:00:00 | |
| DO3MHA-12 | 2026-09-05 03:34:02 | 47.25217 | 12.56346 | 62° | 4km/h | 20872m | 3.7m/s | -54.2°C | 4.6% | 0hPa | 2.6V | 00:00:00 | 01:47:58 | 00:00:00 | |
| NBG1-10 | 2026-09-05 03:34:01 | 47.25216 | 12.56344 | 48° | 5km/h | 20868m | 4.4m/s | -54.2°C | 4.6% | 0hPa | 2.6V | 00:00:00 | 01:47:57 | 00:00:00 | |
| OE5MMP-10 | 2026-09-05 03:34:00 | 47.25215 | 12.56342 | 42° | 4km/h | 20863m | 4.9m/s | -54.2°C | 4.6% | 0hPa | 2.6V | 00:00:00 | 01:47:56 | 00:00:00 | |
| OE8JPQ-2 | 2026-09-05 03:33:59 | 47.25214 | 12.56341 | 30° | 4km/h | 20858m | 4.2m/s | -54.2°C | 4.6% | 0hPa | 2.6V | 00:00:00 | 01:47:55 | 00:00:00 | |
| OM5KV | 2026-09-05 03:33:58 | 47.25214 | 12.56341 | 0° | 0km/h | 20858m | 4.2m/s | -54.2°C | 1.5% | 0hPa | 2.6V | 00:00:00 | 00:00:00 | 00:00:00 | |
| OE5REO-15 | 2026-09-05 03:33:57 | 47.25213 | 12.56341 | 21° | 4km/h | 20854m | 4.5m/s | -54.2°C | 1.5% | 0hPa | 2.6V | 00:00:00 | 00:00:00 | 00:00:00 | |
| DO3MHA-11 | 2026-09-05 03:33:53 | 47.25210 | 12.56337 | 330° | 4km/h | 20831m | 4.6m/s | -54.1°C | 4.7% | 0hPa | 2.6V | 00:00:00 | 01:47:49 | 00:00:00 | |
| DO3MHA-12 | 2026-09-05 03:33:52 | 47.25209 | 12.56337 | 27° | 4km/h | 20825m | 5.8m/s | -54.1°C | 4.6% | 0hPa | 2.6V | 00:00:00 | 01:47:48 | 00:00:00 | |
| PG1ADW-2 | 2026-09-05 03:33:51 | 47.25209 | 12.56336 | 57° | 5km/h | 20821m | 4.0m/s | -54.1°C | 4.5% | 0hPa | 2.6V | 00:00:00 | 01:47:47 | 00:00:00 | |
| OE5MMP-10 | 2026-09-05 03:33:50 | 47.25208 | 12.56335 | 49° | 5km/h | 20817m | 4.1m/s | -54.0°C | 4.6% | 0hPa | 2.6V | 00:00:00 | 01:47:46 | 00:00:00 | |
| OE5DRO-10 | 2026-09-05 03:33:49 | 47.25208 | 12.56335 | 340° | 5km/h | 20812m | 5.4m/s | -54.0°C | 4.5% | 0hPa | 2.5V | 00:00:00 | 00:00:00 | 00:00:00 | |
| OE5DXL-15 | 2026-09-05 03:33:47 | 47.25206 | 12.56336 | 333° | 7km/h | 20802m | 5.0m/s | -53.9°C | 4.5% | 0hPa | 2.5V | 00:00:00 | 00:00:00 | 00:00:00 | |
| DO3MHA-11 | 2026-09-05 03:33:43 | 47.25200 | 12.56338 | 315° | 5km/h | 20783m | 4.8m/s | -53.9°C | 4.5% | 0hPa | 2.5V | 00:00:00 | 01:47:39 | 00:00:00 | |
| OM5KV | 2026-09-05 03:33:42 | 47.25200 | 12.56338 | 315° | 5km/h | 20783m | 4.8m/s | -53.9°C | 1.5% | 0hPa | 2.5V | 00:00:00 | 00:00:00 | 00:00:00 | |
| DB0UT-7 | 2026-09-05 03:33:41 | 47.25199 | 12.56340 | 305° | 7km/h | 20774m | 5.1m/s | -53.9°C | 4.5% | 0hPa | 2.5V | 00:00:00 | 01:47:37 | 00:00:00 | |
| OE5MMP-10 | 2026-09-05 03:33:40 | 47.25199 | 12.56341 | 275° | 7km/h | 20769m | 4.2m/s | -53.8°C | 4.5% | 0hPa | 2.5V | 00:00:00 | 01:47:36 | 00:00:00 | |
| DO3MHA-12 | 2026-09-05 03:33:39 | 47.25198 | 12.56343 | 280° | 7km/h | 20764m | 5.5m/s | -53.8°C | 4.5% | 0hPa | 2.5V | 00:00:00 | 01:47:35 | 00:00:00 | |
| 9A1FER-3 | 2026-09-05 03:33:38 | 47.25198 | 12.56346 | 285° | 7km/h | 20759m | 4.4m/s | 0°C | 0% | 0hPa | 2.6V | 00:00:00 | 01:47:34 | 00:00:00 | |
| OM5KV | 2026-09-05 03:33:36 | 47.25197 | 12.56349 | 293° | 7km/h | 20754m | 4.8m/s | -53.9°C | 1.5% | 0hPa | 2.6V | 00:00:00 | 00:00:00 | 00:00:00 | |
| OE5HKT-10 | 2026-09-05 03:33:34 | 47.25193 | 12.56354 | 335° | 7km/h | 20741m | 5.0m/s | -53.7°C | 4.5% | 0hPa | 2.6V | 00:00:00 | 01:47:30 | 00:00:00 | |
| DO3MHA-11 | 2026-09-05 03:33:33 | 47.25191 | 12.56356 | 315° | 7km/h | 20736m | 4.9m/s | -53.7°C | 4.5% | 0hPa | 2.6V | 00:00:00 | 01:47:29 | 08:30:00 | |
| IN3HCDX | 2026-09-05 03:33:32 | 47.25191 | 12.56356 | 316° | 9km/h | 20736m | 5.0m/s | -53.8°C | 1.5% | 0hPa | 2.5V | 00:00:00 | 00:00:00 | 00:00:00 | |
| PG1ADW-2 | 2026-09-05 03:33:31 | 47.25188 | 12.56360 | 324° | 7km/h | 20727m | 5.4m/s | -53.7°C | 4.4% | 0hPa | 2.5V | 00:00:00 | 00:00:00 | 00:00:00 | |
| OE5DRO-10 | 2026-09-05 03:33:30 | 47.25187 | 12.56361 | 255° | 7km/h | 20722m | 4.7m/s | -53.6°C | 4.5% | 0hPa | 2.5V | 00:00:00 | 00:00:00 | 00:00:00 | |
| DO3MHA-12 | 2026-09-05 03:33:29 | 47.25188 | 12.56363 | 254° | 7km/h | 20716m | 5.7m/s | -53.6°C | 4.4% | 0hPa | 2.5V | 00:00:00 | 01:47:25 | 00:00:00 | |
| NBG1-10 | 2026-09-05 03:33:28 | 47.25188 | 12.56365 | 238° | 11km/h | 20711m | 5.0m/s | -53.6°C | 4.4% | 0hPa | 2.5V | 00:00:00 | 01:47:24 | 00:00:00 | |
| OE5REO-15 | 2026-09-05 03:33:25 | 47.25191 | 12.56369 | 220° | 9km/h | 20701m | 5.3m/s | -53.6°C | 1.4% | 0hPa | 2.5V | 00:00:00 | 00:00:00 | 00:00:00 | |
| 9A1FER-3 | 2026-09-05 03:33:23 | 47.25196 | 12.56376 | 239° | 9km/h | 20686m | 4.1m/s | 0°C | 0% | 0hPa | 2.5V | 00:00:00 | 01:47:19 | 00:00:00 | |
| DG1MFX-10 | 2026-09-05 03:33:22 | 47.25196 | 12.56376 | 239° | 11km/h | 20686m | 4.1m/s | -53.6°C | 1.5% | 0hPa | 2.5V | 00:00:00 | 00:00:00 | 00:00:00 | |
| OE5MMP-10 | 2026-09-05 03:33:20 | 47.25199 | 12.56383 | 209° | 7km/h | 20672m | 4.9m/s | -53.5°C | 4.4% | 0hPa | 2.5V | 00:00:00 | 01:47:16 | 00:00:00 | |
| DO3MHA-12 | 2026-09-05 03:33:19 | 47.25200 | 12.56384 | 223° | 7km/h | 20667m | 5.4m/s | -53.5°C | 4.4% | 0hPa | 2.5V | 00:00:00 | 01:47:15 | 00:00:00 | |
| OE5DXL-15 | 2026-09-05 03:33:17 | 47.25203 | 12.56387 | 198° | 15km/h | 20657m | 4.3m/s | -53.4°C | 4.3% | 0hPa | 2.5V | 00:00:00 | 00:00:00 | 00:00:00 | |
| OE3JTB-15 | 2026-09-05 03:33:14 | 47.25209 | 12.56386 | 172° | 16km/h | 20642m | 3.7m/s | -53.5°C | 4.3% | 0hPa | 2.5V | 00:00:00 | 00:00:00 | 08:30:00 | |
| OE5HKT-10 | 2026-09-05 03:33:13 | 47.25211 | 12.56386 | 175° | 15km/h | 20638m | 5.6m/s | -53.5°C | 4.3% | 0hPa | 2.5V | 00:00:00 | 00:00:00 | 08:30:00 | |
| DB0UT-7 | 2026-09-05 03:33:11 | 47.25215 | 12.56388 | 219° | 18km/h | 20628m | 3.9m/s | -53.4°C | 4.3% | 0hPa | 2.6V | 00:00:00 | 00:00:00 | 00:00:00 | |
| OE5MMP-10 | 2026-09-05 03:33:10 | 47.25217 | 12.56390 | 214° | 11km/h | 20624m | 5.3m/s | -53.4°C | 4.2% | 0hPa | 2.6V | 00:00:00 | 01:47:06 | 00:00:00 | |
| DO3MHA-12 | 2026-09-05 03:33:09 | 47.25219 | 12.56392 | 198° | 11km/h | 20619m | 4.6m/s | -53.4°C | 4.3% | 0hPa | 2.6V | 00:00:00 | 01:47:05 | 00:00:00 | |
| DO3MHA-11 | 2026-09-05 03:33:03 | 47.25233 | 12.56401 | 185° | 16km/h | 20590m | 5.0m/s | -53.5°C | 4.3% | 0hPa | 2.5V | 00:00:00 | 01:46:59 | 00:00:00 | |
| DG1MFX-10 | 2026-09-05 03:33:01 | 47.25235 | 12.56401 | 180° | 13km/h | 20584m | 5.7m/s | -53.7°C | 1.4% | 0hPa | 2.5V | 00:00:00 | 00:00:00 | 00:00:00 | |
| OE5MMP-10 | 2026-09-05 03:33:00 | 47.25243 | 12.56400 | 175° | 18km/h | 20575m | 4.0m/s | -53.8°C | 4.4% | 0hPa | 2.5V | 00:00:00 | 01:46:56 | 00:00:00 | |
| DO3MHA-12 | 2026-09-05 03:32:59 | 47.25248 | 12.56399 | 163° | 18km/h | 20570m | 5.5m/s | -53.8°C | 4.4% | 0hPa | 2.5V | 00:00:00 | 01:46:55 | 00:00:00 | |
| NBG1-10 | 2026-09-05 03:32:55 | 47.25265 | 12.56392 | 181° | 27km/h | 20551m | 4.8m/s | -54.2°C | 4.4% | 0hPa | 2.5V | 00:00:00 | 01:46:51 | 08:30:00 | |
| OE5REO-15 | 2026-09-05 03:32:54 | 47.25266 | 12.56393 | 182° | 20km/h | 20551m | 4.8m/s | -54.2°C | 1.5% | 0hPa | 2.5V | 00:00:00 | 00:00:00 | 00:00:00 | |
| DO3MHA-11 | 2026-09-05 03:32:53 | 47.25275 | 12.56394 | 183° | 24km/h | 20542m | 5.2m/s | -54.2°C | 4.5% | 0hPa | 2.5V | 00:00:00 | 01:46:49 | 00:00:00 | |
| OE5HKT-10 | 2026-09-05 03:32:52 | 47.25280 | 12.56393 | 174° | 27km/h | 20537m | 4.8m/s | -54.3°C | 4.5% | 0hPa | 2.5V | 00:00:00 | 00:00:00 | 00:00:00 | |
| PG1ADW-2 | 2026-09-05 03:32:51 | 47.25285 | 12.56392 | 169° | 27km/h | 20533m | 4.2m/s | -54.3°C | 4.5% | 0hPa | 2.5V | 00:00:00 | 00:00:00 | 00:00:00 | |
| OE5MMP-10 | 2026-09-05 03:32:50 | 47.25290 | 12.56390 | 162° | 27km/h | 20528m | 5.4m/s | -54.3°C | 4.5% | 0hPa | 2.5V | 00:00:00 | 01:46:46 | 08:30:00 | |
| DO3MHA-12 | 2026-09-05 03:32:49 | 47.25295 | 12.56387 | 161° | 27km/h | 20522m | 5.3m/s | -54.3°C | 4.5% | 0hPa | 2.5V | 00:00:00 | 01:46:45 | 00:00:00 | |
| OE5DXL-15 | 2026-09-05 03:32:47 | 47.25307 | 12.56379 | 147° | 29km/h | 20512m | 5.4m/s | -54.4°C | 4.5% | 0hPa | 2.5V | 00:00:00 | 00:00:00 | 08:30:00 | |
| S52SK | 2026-09-05 03:32:46 | 47.25307 | 12.56379 | 147° | 27km/h | 20512m | 5.4m/s | -54.4°C | 1.5% | 0hPa | 2.5V | 00:00:00 | 00:00:00 | 00:00:00 | |
| OE3JTB-15 | 2026-09-05 03:32:45 | 47.25319 | 12.56367 | 147° | 29km/h | 20502m | 5.7m/s | -54.5°C | 4.5% | 0hPa | 2.5V | 00:00:00 | 00:00:00 | 00:00:00 | |
| OE5WHR-10 | 2026-09-05 03:32:44 | 47.25325 | 12.56362 | 149° | 29km/h | 20497m | 4.8m/s | -54.5°C | 4.6% | 0hPa | 2.5V | 00:00:00 | 00:00:00 | 00:00:00 | |
| DO3MHA-11 | 2026-09-05 03:32:43 | 47.25331 | 12.56356 | 148° | 27km/h | 20492m | 4.2m/s | -54.5°C | 4.6% | 0hPa | 2.5V | 00:00:00 | 01:46:39 | 00:00:00 | |
| DB0UT-7 | 2026-09-05 03:32:41 | 47.25343 | 12.56345 | 148° | 29km/h | 20482m | 4.3m/s | -54.5°C | 4.6% | 0hPa | 2.5V | 00:00:00 | 01:46:37 | 00:00:00 | |
| OE5MMP-10 | 2026-09-05 03:32:40 | 47.25349 | 12.56339 | 147° | 29km/h | 20477m | 5.6m/s | -54.5°C | 4.6% | 0hPa | 2.5V | 00:00:00 | 01:46:36 | 00:00:00 | |
| DO3MHA-12 | 2026-09-05 03:32:39 | 47.25355 | 12.56334 | 153° | 29km/h | 20472m | 4.3m/s | -54.5°C | 4.6% | 0hPa | 2.5V | 00:00:00 | 01:46:35 | 08:30:00 | |
| OE5REO-15 | 2026-09-05 03:32:38 | 47.25354 | 12.56334 | 154° | 27km/h | 20472m | 4.4m/s | -54.5°C | 1.5% | 0hPa | 2.5V | 00:00:00 | 00:00:00 | 00:00:00 | |
| OM5KV | 2026-09-05 03:32:36 | 47.25366 | 12.56325 | 147° | 26km/h | 20463m | 5.6m/s | -54.5°C | 1.5% | 0hPa | 2.5V | 00:00:00 | 00:00:00 | 00:00:00 | |
| BAUMI2-15 | 2026-09-05 03:32:34 | 47.25382 | 12.56304 | 138° | 31km/h | 20449m | 5.0m/s | -54.4°C | 4.6% | 0hPa | 2.5V | 00:00:00 | 01:46:30 | 08:30:00 | |
| DO3MHA-11 | 2026-09-05 03:32:33 | 47.25388 | 12.56296 | 137° | 33km/h | 20444m | 4.8m/s | -54.4°C | 4.6% | 0hPa | 2.5V | 00:00:00 | 01:46:29 | 00:00:00 | |
| PG1ADW-2 | 2026-09-05 03:32:31 | 47.25400 | 12.56280 | 135° | 31km/h | 20434m | 4.6m/s | -54.4°C | 4.6% | 0hPa | 2.5V | 00:00:00 | 01:46:27 | 00:00:00 | |
| OE5MMP-10 | 2026-09-05 03:32:30 | 47.25405 | 12.56271 | 135° | 33km/h | 20430m | 3.8m/s | -54.4°C | 4.5% | 0hPa | 2.6V | 00:00:00 | 01:46:26 | 00:00:00 | |
| DO3MHA-12 | 2026-09-05 03:32:29 | 47.25411 | 12.56263 | 138° | 33km/h | 20425m | 4.9m/s | -54.3°C | 4.6% | 0hPa | 2.6V | 00:00:00 | 01:46:25 | 00:00:00 | |
| DL6DJ-15 | 2026-09-05 03:32:28 | 47.25418 | 12.56255 | 137° | 33km/h | 20420m | 4.6m/s | -54.4°C | 1.4% | -1.0hPa | 2.6V | 00:00:00 | 00:00:00 | 00:00:00 | |
| BAUMI2-15 | 2026-09-05 03:32:24 | 47.25440 | 12.56218 | 130° | 31km/h | 20400m | 5.7m/s | -54.5°C | 4.6% | 0hPa | 2.6V | 00:00:00 | 01:46:20 | 00:00:00 | |
| DO3MHA-11 | 2026-09-05 03:32:23 | 47.25445 | 12.56209 | 129° | 29km/h | 20395m | 3.9m/s | -54.5°C | 4.6% | 0hPa | 2.6V | 00:00:00 | 01:46:19 | 00:00:00 | |
| NBG1-10 | 2026-09-05 03:32:22 | 47.25450 | 12.56199 | 130° | 26km/h | 20391m | 3.8m/s | -54.5°C | 4.6% | 0hPa | 2.6V | 00:00:00 | 01:46:18 | 00:00:00 | |
| OE5MMP-10 | 2026-09-05 03:32:20 | 47.25460 | 12.56181 | 124° | 29km/h | 20381m | 4.3m/s | -54.5°C | 4.6% | 0hPa | 2.6V | 00:00:00 | 01:46:16 | 00:00:00 | |
| DO3MHA-12 | 2026-09-05 03:32:19 | 47.25464 | 12.56172 | 124° | 27km/h | 20377m | 4.3m/s | -54.5°C | 4.6% | 0hPa | 2.5V | 00:00:00 | 01:46:15 | 00:00:00 | |
| OE5DXL-15 | 2026-09-05 03:32:17 | 47.25472 | 12.56156 | 132° | 24km/h | 20367m | 4.5m/s | -54.4°C | 4.6% | 0hPa | 2.5V | 00:00:00 | 00:00:00 | 00:00:00 | |
| OE3JTB-15 | 2026-09-05 03:32:16 | 47.25477 | 12.56147 | 132° | 24km/h | 20362m | 4.3m/s | -54.4°C | 4.5% | 0hPa | 2.5V | 00:00:00 | 01:46:12 | 00:00:00 | |
| OM5KV | 2026-09-05 03:32:14 | 47.25487 | 12.56132 | 137° | 27km/h | 20353m | 4.6m/s | -54.5°C | 1.5% | 0hPa | 2.5V | 00:00:00 | 00:00:00 | 00:00:00 | |
| DO3MHA-11 | 2026-09-05 03:32:13 | 47.25492 | 12.56125 | 137° | 26km/h | 20348m | 4.9m/s | -54.5°C | 4.5% | 0hPa | 2.5V | 00:00:00 | 01:46:09 | 00:00:00 | |
| DB0UT-7 | 2026-09-05 03:32:11 | 47.25503 | 12.56110 | 138° | 22km/h | 20337m | 4.8m/s | -54.5°C | 4.6% | 0hPa | 2.5V | 00:00:00 | 00:00:00 | 00:00:00 | |
| OE5MMP-10 | 2026-09-05 03:32:10 | 47.25508 | 12.56103 | 134° | 24km/h | 20333m | 5.2m/s | -54.5°C | 4.5% | 0hPa | 2.5V | 00:00:00 | 01:46:06 | 00:00:00 | |
| DO3MHA-12 | 2026-09-05 03:32:09 | 47.25512 | 12.56096 | 128° | 24km/h | 20328m | 4.1m/s | -54.5°C | 4.5% | 0hPa | 2.5V | 00:00:00 | 01:46:05 | 00:00:00 | |
| OE5HKT-10 | 2026-09-05 03:32:08 | 47.25515 | 12.56089 | 124° | 22km/h | 20323m | 5.8m/s | -54.5°C | 4.5% | 0hPa | 2.5V | 00:00:00 | 00:00:00 | 00:00:00 | |
| OE5REO-15 | 2026-09-05 03:32:06 | 47.25518 | 12.56081 | 122° | 26km/h | 20317m | 4.7m/s | -54.6°C | 1.5% | 0hPa | 2.6V | 00:00:00 | 00:00:00 | 00:00:00 | |
| BAUMI2-15 | 2026-09-05 03:32:04 | 47.25525 | 12.56057 | 102° | 24km/h | 20302m | 4.5m/s | -54.5°C | 4.5% | 0hPa | 2.6V | 00:00:00 | 01:46:00 | 00:00:00 | |
| DO3MHA-11 | 2026-09-05 03:32:03 | 47.25526 | 12.56049 | 109° | 22km/h | 20298m | 4.9m/s | -54.5°C | 4.4% | 0hPa | 2.5V | 00:00:00 | 01:45:59 | 08:30:00 | |
| DL6DJ-15 | 2026-09-05 03:31:57 | 47.25540 | 12.56004 | 113° | 22km/h | 20270m | 5.1m/s | -55.0°C | 1.4% | -1.0hPa | 2.6V | 00:00:00 | 00:00:00 | 00:00:00 | |
| OE5DRO-10 | 2026-09-05 03:31:55 | 47.25545 | 12.55989 | 116° | 22km/h | 20260m | 4.5m/s | -55.0°C | 4.6% | 0hPa | 2.6V | 00:00:00 | 00:00:00 | 00:00:00 | |
| BAUMI2-15 | 2026-09-05 03:31:54 | 47.25547 | 12.55982 | 118° | 22km/h | 20255m | 4.7m/s | -55.0°C | 4.6% | 0hPa | 2.6V | 00:00:00 | 01:45:50 | 00:00:00 | |
| DO3MHA-11 | 2026-09-05 03:31:53 | 47.25550 | 12.55976 | 117° | 22km/h | 20251m | 3.5m/s | -55.0°C | 4.6% | 0hPa | 2.6V | 00:00:00 | 01:45:49 | 00:00:00 | |
| PG1ADW-2 | 2026-09-05 03:31:51 | 47.25554 | 12.55961 | 109° | 22km/h | 20242m | 4.5m/s | -55.0°C | 4.6% | 0hPa | 2.6V | 00:00:00 | 00:00:00 | 00:00:00 | |
| OE5MMP-10 | 2026-09-05 03:31:50 | 47.25556 | 12.55952 | 104° | 22km/h | 20238m | 3.8m/s | -55.0°C | 4.5% | 0hPa | 2.6V | 00:00:00 | 01:45:46 | 00:00:00 | |
| DO3MHA-12 | 2026-09-05 03:31:49 | 47.25557 | 12.55944 | 102° | 22km/h | 20233m | 5.1m/s | -55.0°C | 4.5% | 0hPa | 2.5V | 00:00:00 | 01:45:45 | 00:00:00 | |
| IN3HCDX | 2026-09-05 03:31:48 | 47.25557 | 12.55944 | 102° | 22km/h | 20233m | 5.1m/s | -55.0°C | 1.5% | 0hPa | 2.5V | 00:00:00 | 00:00:00 | 00:00:00 | |
| OE5HKT-10 | 2026-09-05 03:31:47 | 47.25559 | 12.55929 | 96° | 24km/h | 20223m | 4.8m/s | -55.0°C | 4.6% | 0hPa | 2.5V | 00:00:00 | 00:00:00 | 00:00:00 | |
| DO3MHA-11 | 2026-09-05 03:31:43 | 47.25560 | 12.55896 | 97° | 24km/h | 20204m | 4.7m/s | -55.4°C | 4.7% | 0hPa | 2.5V | 00:00:00 | 01:45:39 | 00:00:00 | |
| DB0UT-7 | 2026-09-05 03:31:41 | 47.25561 | 12.55879 | 91° | 20km/h | 20194m | 4.4m/s | -55.6°C | 4.8% | 0hPa | 2.5V | 00:00:00 | 01:45:37 | 00:00:00 | |
| OE5MMP-10 | 2026-09-05 03:31:40 | 47.25561 | 12.55869 | 88° | 24km/h | 20190m | 3.9m/s | -55.7°C | 4.9% | 0hPa | 2.5V | 00:00:00 | 01:45:36 | 00:00:00 | |
| DO3MHA-12 | 2026-09-05 03:31:39 | 47.25560 | 12.55861 | 84° | 24km/h | 20185m | 5.3m/s | -55.7°C | 4.9% | 0hPa | 2.5V | 00:00:00 | 01:45:35 | 00:00:00 | |
| OE5WHR-10 | 2026-09-05 03:31:38 | 47.25559 | 12.55853 | 80° | 20km/h | 20180m | 4.0m/s | -55.7°C | 5.0% | 0hPa | 2.6V | 00:00:00 | 00:00:00 | 00:00:00 | |
| BAUMI2-15 | 2026-09-05 03:31:34 | 47.25555 | 12.55821 | 82° | 26km/h | 20163m | 4.2m/s | -55.7°C | 4.9% | 0hPa | 2.6V | 00:00:00 | 01:45:30 | 00:00:00 | |
| DO3MHA-11 | 2026-09-05 03:31:33 | 47.25554 | 12.55812 | 76° | 24km/h | 20158m | 4.2m/s | -55.7°C | 4.9% | 0hPa | 2.5V | 00:00:00 | 01:45:29 | 00:00:00 | |
| PG1ADW-2 | 2026-09-05 03:31:31 | 47.25550 | 12.55794 | 69° | 18km/h | 20149m | 4.6m/s | -55.6°C | 4.9% | 0hPa | 2.5V | 00:00:00 | 00:00:00 | 08:30:00 | |
| OE5MMP-10 | 2026-09-05 03:31:30 | 47.25547 | 12.55785 | 66° | 22km/h | 20145m | 4.0m/s | -55.6°C | 4.8% | 0hPa | 2.5V | 00:00:00 | 01:45:26 | 00:00:00 | |
| DO3MHA-12 | 2026-09-05 03:31:29 | 47.25545 | 12.55776 | 69° | 22km/h | 20141m | 4.2m/s | -55.5°C | 4.8% | 0hPa | 2.5V | 00:00:00 | 01:45:25 | 00:00:00 | |
| DB0NH | 2026-09-05 03:31:28 | 47.25542 | 12.55767 | 74° | 15km/h | 20137m | 5.1m/s | -55.5°C | 4.8% | 0hPa | 2.5V | 00:00:00 | 01:45:24 | 00:00:00 | |
| IN3HCDX | 2026-09-05 03:31:27 | 47.25542 | 12.55767 | 74° | 24km/h | 20137m | 5.1m/s | -55.6°C | 1.6% | 0hPa | 2.5V | 00:00:00 | 00:00:00 | 00:00:00 | |
| OE5HKT-10 | 2026-09-05 03:31:26 | 47.25538 | 12.55752 | 68° | 16km/h | 20127m | 4.1m/s | -55.5°C | 4.8% | 0hPa | 2.5V | 00:00:00 | 01:45:22 | 00:00:00 | |
| BAUMI2-15 | 2026-09-05 03:31:24 | 47.25534 | 12.55738 | 64° | 20km/h | 20118m | 4.9m/s | -55.4°C | 4.7% | 0hPa | 2.5V | 00:00:00 | 01:45:20 | 00:00:00 | |
| DO3MHA-11 | 2026-09-05 03:31:23 | 47.25532 | 12.55730 | 65° | 16km/h | 20113m | 4.3m/s | -55.4°C | 4.7% | 0hPa | 2.5V | 00:00:00 | 01:45:19 | 00:00:00 | |
| OE5MMP-10 | 2026-09-05 03:31:20 | 47.25524 | 12.55711 | 53° | 15km/h | 20098m | 4.7m/s | -55.3°C | 4.7% | 0hPa | 2.5V | 00:00:00 | 01:45:16 | 08:30:00 | |
| DO3MHA-12 | 2026-09-05 03:31:19 | 47.25521 | 12.55706 | 60° | 13km/h | 20093m | 5.0m/s | -55.3°C | 4.7% | 0hPa | 2.5V | 00:00:00 | 01:45:15 | 00:00:00 | |
| OE3JTB-15 | 2026-09-05 03:31:18 | 47.25519 | 12.55700 | 57° | 11km/h | 20089m | 3.9m/s | -55.3°C | 4.7% | 0hPa | 2.5V | 00:00:00 | 00:00:00 | 00:00:00 | |
| OE5DXL-15 | 2026-09-05 03:31:17 | 47.25517 | 12.55696 | 57° | 11km/h | 20084m | 5.1m/s | -55.2°C | 4.6% | 0hPa | 2.5V | 00:00:00 | 00:00:00 | 00:00:00 | |
| NBG1-10 | 2026-09-05 03:31:16 | 47.25516 | 12.55692 | 62° | 11km/h | 20079m | 4.5m/s | -55.2°C | 4.7% | 0hPa | 2.5V | 00:00:00 | 01:45:12 | 00:00:00 | |
| BAUMI2-15 | 2026-09-05 03:31:14 | 47.25514 | 12.55684 | 75° | 15km/h | 20070m | 4.8m/s | -55.3°C | 4.7% | 0hPa | 2.5V | 00:00:00 | 01:45:10 | 00:00:00 | |
| DO3MHA-11 | 2026-09-05 03:31:13 | 47.25513 | 12.55679 | 77° | 13km/h | 20065m | 4.0m/s | -55.3°C | 4.7% | 0hPa | 2.5V | 00:00:00 | 01:45:09 | 00:00:00 | |
| DB0UT-7 | 2026-09-05 03:31:11 | 47.25511 | 12.55669 | 62° | 11km/h | 20056m | 4.7m/s | -55.3°C | 4.7% | 0hPa | 2.5V | 00:00:00 | 00:00:00 | 08:30:00 | |
| OE5MMP-10 | 2026-09-05 03:31:10 | 47.25509 | 12.55665 | 56° | 11km/h | 20051m | 4.6m/s | -55.3°C | 4.7% | 0hPa | 2.5V | 00:00:00 | 01:45:06 | 00:00:00 | |
| DO3MHA-12 | 2026-09-05 03:31:09 | 47.25507 | 12.55660 | 58° | 24km/h | 20046m | 5.3m/s | -55.3°C | 4.7% | 0hPa | 2.5V | 00:00:00 | 01:45:05 | 08:30:00 | |
| HARRO8 | 2026-09-05 03:31:06 | 47.25497 | 12.55647 | 17° | 11km/h | 20028m | 3.6m/s | -55.3°C | 1.4% | -1.0hPa | 2.6V | 00:00:00 | 00:00:00 | 00:00:00 | |
| OE5HKT-10 | 2026-09-05 03:31:05 | 47.25497 | 12.55647 | 18° | 11km/h | 20028m | 3.6m/s | -55.3°C | 4.6% | 0hPa | 2.6V | 00:00:00 | 00:00:00 | 00:00:00 | |
| BAUMI2-15 | 2026-09-05 03:31:04 | 47.25495 | 12.55646 | 26° | 9km/h | 20024m | 5.0m/s | -55.3°C | 4.6% | 0hPa | 2.5V | 00:00:00 | 01:45:00 | 08:30:00 | |
| DO3MHA-11 | 2026-09-05 03:31:03 | 47.25493 | 12.55645 | 33° | 15km/h | 20019m | 4.5m/s | -55.3°C | 4.7% | 0hPa | 2.5V | 00:00:00 | 01:44:59 | 00:00:00 | |
| DL6DJ-15 | 2026-09-05 03:30:55 | 47.25487 | 12.55611 | 71° | 7km/h | 19978m | 4.1m/s | -55.5°C | 1.4% | -1.0hPa | 2.5V | 00:00:00 | 00:00:00 | 00:00:00 | |
| BAUMI2-15 | 2026-09-05 03:30:54 | 47.25487 | 12.55611 | 72° | 7km/h | 19978m | 4.1m/s | -55.4°C | 4.7% | 0hPa | 2.5V | 00:00:00 | 01:44:50 | 00:00:00 | |
| PG1ADW-2 | 2026-09-05 03:30:51 | 47.25486 | 12.55603 | 87° | 11km/h | 19964m | 4.5m/s | -55.7°C | 4.8% | 0hPa | 2.5V | 00:00:00 | 00:00:00 | 00:00:00 | |
| OE5MMP-10 | 2026-09-05 03:30:50 | 47.25485 | 12.55600 | 54° | 13km/h | 19960m | 5.1m/s | -55.7°C | 4.8% | 0hPa | 2.5V | 00:00:00 | 01:44:46 | 00:00:00 | |
| OE3JTB-15 | 2026-09-05 03:30:49 | 47.25484 | 12.55598 | 44° | 13km/h | 19955m | 4.0m/s | -55.7°C | 4.7% | 0hPa | 2.6V | 00:00:00 | 01:44:45 | 00:00:00 | |
| OM5KV | 2026-09-05 03:30:48 | 47.25484 | 12.55598 | 45° | 9km/h | 19955m | 4.0m/s | -55.8°C | 1.6% | 0hPa | 2.6V | 00:00:00 | 00:00:00 | 00:00:00 | |
| OE5DXL-15 | 2026-09-05 03:30:47 | 47.25481 | 12.55591 | 79° | 15km/h | 19946m | 4.7m/s | -55.8°C | 4.8% | 0hPa | 2.6V | 00:00:00 | 00:00:00 | 00:00:00 | |
| IN3HCDX | 2026-09-05 03:30:45 | 47.25480 | 12.55586 | 79° | 15km/h | 19942m | 3.3m/s | -55.8°C | 1.6% | 0hPa | 2.6V | 00:00:00 | 00:00:00 | 00:00:00 | |
| OE5HKT-10 | 2026-09-05 03:30:44 | 47.25479 | 12.55574 | 88° | 13km/h | 19935m | 3.6m/s | -55.8°C | 4.8% | 0hPa | 2.6V | 00:00:00 | 00:00:00 | 00:00:00 | |
| NBG1-10 | 2026-09-05 03:30:43 | 47.25480 | 12.55568 | 107° | 15km/h | 19930m | 5.3m/s | -55.9°C | 4.8% | 0hPa | 2.6V | 00:00:00 | 01:44:39 | 00:00:00 | |
| OM5KV | 2026-09-05 03:30:42 | 47.25480 | 12.55568 | 107° | 16km/h | 19930m | 5.4m/s | -55.9°C | 1.6% | 0hPa | 2.6V | 00:00:00 | 00:00:00 | 00:00:00 | |
| DB0UT-7 | 2026-09-05 03:30:41 | 47.25482 | 12.55559 | 118° | 15km/h | 19921m | 4.6m/s | -56.0°C | 4.9% | 0hPa | 2.6V | 00:00:00 | 01:44:37 | 00:00:00 | |
| OE5MMP-10 | 2026-09-05 03:30:40 | 47.25484 | 12.55556 | 134° | 11km/h | 19916m | 4.6m/s | -56.0°C | 4.9% | 0hPa | 2.6V | 00:00:00 | 01:44:36 | 00:00:00 | |
| OE8JPQ-2 | 2026-09-05 03:30:39 | 47.25486 | 12.55554 | 154° | 13km/h | 19911m | 4.2m/s | -56.0°C | 4.9% | 0hPa | 2.6V | 00:00:00 | 00:00:00 | 00:00:00 | |
| DG1MFX-10 | 2026-09-05 03:30:38 | 47.25486 | 12.55554 | 155° | 7km/h | 19911m | 4.3m/s | -56.0°C | 1.6% | 0hPa | 2.6V | 00:00:00 | 00:00:00 | 00:00:00 | |
| HARRO8 | 2026-09-05 03:30:35 | 47.25493 | 12.55544 | 93° | 11km/h | 19890m | 3.4m/s | 0°C | -1.0% | -1.0hPa | 2.6V | 00:00:00 | 00:00:00 | 00:00:00 | |
| PG1ADW-2 | 2026-09-05 03:30:31 | 47.25496 | 12.55527 | 111° | 18km/h | 19877m | 3.9m/s | -55.9°C | 4.8% | 0hPa | 2.6V | 00:00:00 | 00:00:00 | 00:00:00 | |
| OE5MMP-10 | 2026-09-05 03:30:30 | 47.25498 | 12.55520 | 114° | 15km/h | 19873m | 3.7m/s | -55.8°C | 4.8% | 0hPa | 2.5V | 00:00:00 | 01:44:26 | 00:00:00 | |
| OM5KV | 2026-09-05 03:30:29 | 47.25498 | 12.55520 | 115° | 22km/h | 19873m | 3.7m/s | -55.9°C | 1.6% | 0hPa | 2.5V | 00:00:00 | 00:00:00 | 00:00:00 | |
| DB0NH | 2026-09-05 03:30:28 | 47.25501 | 12.55506 | 106° | 18km/h | 19864m | 4.2m/s | -55.9°C | 4.8% | 0hPa | 2.5V | 00:00:00 | 01:44:24 | 08:30:00 | |
| DL6DJ-15 | 2026-09-05 03:30:24 | 47.25508 | 12.55484 | 99° | 9km/h | 19841m | 4.3m/s | -55.9°C | 1.5% | -1.0hPa | 2.5V | 00:00:00 | 00:00:00 | 00:00:00 | |
| OE5HKT-10 | 2026-09-05 03:30:23 | 47.25508 | 12.55484 | 100° | 20km/h | 19841m | 4.2m/s | -55.9°C | 4.8% | 0hPa | 2.5V | 00:00:00 | 01:44:19 | 00:00:00 | |
| OE5MMP-10 | 2026-09-05 03:30:20 | 47.25511 | 12.55468 | 104° | 20km/h | 19828m | 5.0m/s | -55.9°C | 4.9% | 0hPa | 2.5V | 00:00:00 | 01:44:16 | 00:00:00 | |
| OE8JPQ-2 | 2026-09-05 03:30:19 | 47.25512 | 12.55461 | 94° | 20km/h | 19824m | 4.7m/s | -55.9°C | 4.9% | 0hPa | 2.6V | 00:00:00 | 00:00:00 | 00:00:00 | |
| OE5DXL-15 | 2026-09-05 03:30:17 | 47.25513 | 12.55446 | 101° | 18km/h | 19814m | 4.6m/s | -55.9°C | 5.0% | 0hPa | 2.6V | 00:00:00 | 00:00:00 | 00:00:00 | |
| DB0UT-7 | 2026-09-05 03:30:11 | 47.25523 | 12.55404 | 111° | 16km/h | 19789m | 5.3m/s | -55.8°C | 4.8% | 0hPa | 2.6V | 00:00:00 | 00:00:00 | 00:00:00 | |
| NBG1-10 | 2026-09-05 03:30:10 | 47.25525 | 12.55397 | 119° | 16km/h | 19783m | 4.5m/s | -55.8°C | 4.9% | 0hPa | 2.6V | 00:00:00 | 01:44:06 | 00:00:00 | |
| HARRO8 | 2026-09-05 03:30:04 | 47.25537 | 12.55343 | 104° | 22km/h | 19753m | 4.9m/s | 0°C | -1.0% | -1.0hPa | 2.6V | 00:00:00 | 00:00:00 | 00:00:00 | |
| DL6DJ-15 | 2026-09-05 03:29:53 | 47.25545 | 12.55280 | 101° | 20km/h | 19704m | 3.6m/s | -55.8°C | 1.4% | -1.0hPa | 2.6V | 00:00:00 | 00:00:00 | 00:00:00 | |
| PG1ADW-2 | 2026-09-05 03:29:51 | 47.25545 | 12.55273 | 104° | 16km/h | 19700m | 3.6m/s | -55.8°C | 4.6% | 0hPa | 2.6V | 00:00:00 | 01:43:47 | 00:00:00 | |
| OE5MMP-10 | 2026-09-05 03:29:50 | 47.25547 | 12.55266 | 107° | 13km/h | 19696m | 4.4m/s | -55.9°C | 4.7% | 0hPa | 2.6V | 00:00:00 | 01:43:46 | 08:30:00 | |
| DO3MHA-11 | 2026-09-05 03:29:48 | 47.25550 | 12.55253 | 109° | 13km/h | 19688m | 4.5m/s | -56.2°C | 4.8% | 0hPa | 2.5V | 00:00:00 | 01:43:44 | 00:00:00 | |
| OE5DXL-15 | 2026-09-05 03:29:47 | 47.25550 | 12.55247 | 92° | 20km/h | 19683m | 4.2m/s | -56.4°C | 4.8% | 0hPa | 2.5V | 00:00:00 | 00:00:00 | 00:00:00 | |
| S52SK | 2026-09-05 03:29:43 | 47.25551 | 12.55234 | 107° | 11km/h | 19671m | 3.6m/s | -56.6°C | 1.6% | 0hPa | 2.6V | 00:00:00 | 00:00:00 | 00:00:00 | |
| OE5DRO-10 | 2026-09-05 03:29:42 | 47.25552 | 12.55226 | 94° | 20km/h | 19663m | 4.5m/s | -56.6°C | 4.9% | 0hPa | 2.6V | 00:00:00 | 00:00:00 | 08:30:00 | |
| OE5HKT-10 | 2026-09-05 03:29:41 | 47.25552 | 12.55222 | 89° | 22km/h | 19659m | 3.3m/s | -56.7°C | 4.9% | 0hPa | 2.5V | 00:00:00 | 00:00:00 | 00:00:00 | |
| OE5MMP-10 | 2026-09-05 03:29:40 | 47.25552 | 12.55216 | 95° | 20km/h | 19655m | 4.9m/s | -56.7°C | 4.9% | 0hPa | 2.5V | 00:00:00 | 01:43:36 | 00:00:00 | |
| OE8JPQ-2 | 2026-09-05 03:29:39 | 47.25553 | 12.55210 | 111° | 24km/h | 19650m | 4.7m/s | -56.8°C | 5.0% | 0hPa | 2.5V | 00:00:00 | 00:00:00 | 08:30:00 | |
| DO3MHA-11 | 2026-09-05 03:29:38 | 47.25555 | 12.55204 | 108° | 20km/h | 19646m | 3.2m/s | -56.8°C | 5.0% | 0hPa | 2.5V | 00:00:00 | 01:43:34 | 00:00:00 | |
| NBG1-10 | 2026-09-05 03:29:37 | 47.25556 | 12.55197 | 104° | 26km/h | 19642m | 4.9m/s | -56.8°C | 5.0% | 0hPa | 2.5V | 00:00:00 | 01:43:33 | 00:00:00 | |
| DG1MFX-10 | 2026-09-05 03:29:36 | 47.25556 | 12.55197 | 105° | 20km/h | 19642m | 5.0m/s | -56.9°C | 1.7% | 0hPa | 2.6V | 00:00:00 | 00:00:00 | 00:00:00 | |
| HARRO8 | 2026-09-05 03:29:32 | 47.25562 | 12.55158 | 110° | 20km/h | 19620m | 4.4m/s | 0°C | -1.0% | -1.0hPa | 2.6V | 00:00:00 | 00:00:00 | 00:00:00 | |
| OE5WHR-10 | 2026-09-05 03:29:31 | 47.25564 | 12.55151 | 107° | 27km/h | 19615m | 5.0m/s | -57.1°C | 5.1% | 0hPa | 2.6V | 00:00:00 | 01:43:27 | 00:00:00 | |
| OE5MMP-10 | 2026-09-05 03:29:30 | 47.25565 | 12.55144 | 104° | 26km/h | 19611m | 3.5m/s | -57.2°C | 5.1% | 0hPa | 2.6V | 00:00:00 | 01:43:26 | 00:00:00 | |
| DO3MHA-11 | 2026-09-05 03:29:28 | 47.25568 | 12.55129 | 106° | 27km/h | 19603m | 4.7m/s | -57.2°C | 5.1% | 0hPa | 2.6V | 00:00:00 | 01:43:24 | 08:30:00 | |
| S52SK | 2026-09-05 03:29:26 | 47.25570 | 12.55120 | 109° | 26km/h | 19598m | 3.6m/s | -57.3°C | 1.7% | 0hPa | 2.6V | 00:00:00 | 00:00:00 | 00:00:00 | |
| OE5REO-15 | 2026-09-05 03:29:24 | 47.25573 | 12.55101 | 104° | 27km/h | 19589m | 4.4m/s | -57.4°C | 1.8% | 0hPa | 2.6V | 00:00:00 | 00:00:00 | 00:00:00 | |
| OE5DRO-10 | 2026-09-05 03:29:23 | 47.25576 | 12.55080 | 105° | 29km/h | 19580m | 4.7m/s | -57.3°C | 5.1% | 0hPa | 2.6V | 00:00:00 | 00:00:00 | 00:00:00 | |
| OE3JTB-15 | 2026-09-05 03:29:22 | 47.25578 | 12.55070 | 102° | 27km/h | 19576m | 4.2m/s | -57.3°C | 5.1% | 0hPa | 2.6V | 00:00:00 | 01:43:18 | 00:00:00 | |
| S52SK | 2026-09-05 03:29:21 | 47.25577 | 12.55070 | 103° | 27km/h | 19576m | 4.3m/s | -57.4°C | 1.7% | 0hPa | 2.6V | 00:00:00 | 00:00:00 | 00:00:00 | |
| OE5HKT-10 | 2026-09-05 03:29:20 | 47.25579 | 12.55049 | 93° | 27km/h | 19567m | 3.7m/s | -57.3°C | 5.1% | 0hPa | 2.6V | 00:00:00 | 01:43:16 | 00:00:00 | |
| OE8JPQ-2 | 2026-09-05 03:29:19 | 47.25580 | 12.55039 | 95° | 27km/h | 19562m | 4.8m/s | -57.3°C | 5.1% | 0hPa | 2.6V | 00:00:00 | 00:00:00 | 00:00:00 | |
| DO3MHA-11 | 2026-09-05 03:29:18 | 47.25580 | 12.55028 | 97° | 29km/h | 19557m | 4.2m/s | -57.2°C | 5.1% | 0hPa | 2.6V | 00:00:00 | 01:43:14 | 00:00:00 | |
| OE5DXL-15 | 2026-09-05 03:29:17 | 47.25582 | 12.55017 | 98° | 26km/h | 19554m | 2.9m/s | -57.2°C | 5.0% | 0hPa | 2.6V | 00:00:00 | 00:00:00 | 00:00:00 | |
| DG1MFX-10 | 2026-09-05 03:29:15 | 47.25582 | 12.55006 | 96° | 29km/h | 19550m | 5.0m/s | -57.2°C | 1.7% | 0hPa | 2.6V | 00:00:00 | 00:00:00 | 00:00:00 | |
| DO3MHA-12 | 2026-09-05 03:29:14 | 47.25583 | 12.54984 | 88° | 29km/h | 19541m | 3.8m/s | -57.2°C | 5.0% | 0hPa | 2.6V | 00:00:00 | 01:43:10 | 00:00:00 | |
| OM5KV | 2026-09-05 03:29:12 | 47.25582 | 12.54974 | 91° | 29km/h | 19536m | 4.3m/s | -57.3°C | 1.7% | 0hPa | 2.6V | 00:00:00 | 00:00:00 | 00:00:00 | |
| DB0UT-7 | 2026-09-05 03:29:11 | 47.25583 | 12.54951 | 94° | 24km/h | 19528m | 3.8m/s | -57.3°C | 5.0% | 0hPa | 2.6V | 00:00:00 | 00:00:00 | 00:00:00 | |
| OE5WHR-10 | 2026-09-05 03:29:10 | 47.25583 | 12.54940 | 92° | 27km/h | 19523m | 5.2m/s | -57.3°C | 5.0% | 0hPa | 2.6V | 00:00:00 | 00:00:00 | 08:30:00 | |
| DO3MHA-11 | 2026-09-05 03:29:08 | 47.25583 | 12.54918 | 91° | 26km/h | 19514m | 5.1m/s | -57.3°C | 5.0% | 0hPa | 2.5V | 00:00:00 | 01:43:04 | 00:00:00 | |
| OE5REO-15 | 2026-09-05 03:29:07 | 47.25583 | 12.54918 | 91° | 27km/h | 19514m | 5.2m/s | -57.3°C | 1.7% | 0hPa | 2.5V | 00:00:00 | 00:00:00 | 00:00:00 | |
| DO3MHA-12 | 2026-09-05 03:29:04 | 47.25583 | 12.54880 | 87° | 26km/h | 19495m | 4.3m/s | -57.4°C | 5.0% | 0hPa | 2.5V | 00:00:00 | 01:43:00 | 00:00:00 | |
| OM5KV | 2026-09-05 03:29:01 | 47.25583 | 12.54862 | 97° | 26km/h | 19486m | 4.2m/s | -57.6°C | 1.7% | 0hPa | 2.5V | 00:00:00 | 00:00:00 | 00:00:00 | |
| OE5MMP-10 | 2026-09-05 03:29:00 | 47.25583 | 12.54844 | 91° | 24km/h | 19477m | 5.5m/s | -57.7°C | 5.2% | 0hPa | 2.5V | 00:00:00 | 01:42:56 | 00:00:00 | |
| OE5HKT-10 | 2026-09-05 03:28:59 | 47.25583 | 12.54835 | 84° | 22km/h | 19472m | 4.0m/s | -57.8°C | 5.2% | 0hPa | 2.5V | 00:00:00 | 00:00:00 | 00:00:00 | |
| DB0NH | 2026-09-05 03:28:58 | 47.25582 | 12.54827 | 85° | 24km/h | 19469m | 3.7m/s | -57.8°C | 5.2% | 0hPa | 2.5V | 00:00:00 | 01:42:54 | 00:00:00 | |
| OM5KV | 2026-09-05 03:28:56 | 47.25582 | 12.54817 | 86° | 26km/h | 19464m | 5.2m/s | -58.0°C | 1.8% | 0hPa | 2.6V | 00:00:00 | 00:00:00 | 00:00:00 | |
| DO3MHA-12 | 2026-09-05 03:28:54 | 47.25583 | 12.54788 | 98° | 20km/h | 19451m | 5.6m/s | -58.1°C | 5.4% | 0hPa | 2.6V | 00:00:00 | 01:42:50 | 00:00:00 | |
| OE3JTB-15 | 2026-09-05 03:28:53 | 47.25583 | 12.54781 | 98° | 24km/h | 19446m | 4.0m/s | -58.1°C | 5.4% | 0hPa | 2.5V | 00:00:00 | 00:00:00 | 08:30:00 | |
| PG1ADW-2 | 2026-09-05 03:28:51 | 47.25585 | 12.54768 | 101° | 24km/h | 19439m | 4.3m/s | -58.2°C | 5.4% | 0hPa | 2.5V | 00:00:00 | 00:00:00 | 00:00:00 | |
| OE5MMP-10 | 2026-09-05 03:28:50 | 47.25586 | 12.54761 | 109° | 22km/h | 19434m | 4.7m/s | -58.2°C | 5.4% | 0hPa | 2.5V | 00:00:00 | 01:42:46 | 00:00:00 | |
| DO3MHA-11 | 2026-09-05 03:28:48 | 47.25590 | 12.54747 | 115° | 24km/h | 19425m | 4.6m/s | -58.2°C | 5.4% | 0hPa | 2.5V | 00:00:00 | 01:42:44 | 00:00:00 | |
| OE5DXL-15 | 2026-09-05 03:28:47 | 47.25591 | 12.54740 | 107° | 26km/h | 19421m | 4.5m/s | -58.2°C | 5.4% | 0hPa | 2.5V | 00:00:00 | 00:00:00 | 00:00:00 | |
| OE5DRO-10 | 2026-09-05 03:28:45 | 47.25594 | 12.54725 | 97° | 26km/h | 19411m | 4.8m/s | -58.2°C | 5.4% | 0hPa | 2.5V | 00:00:00 | 00:00:00 | 00:00:00 | |
| DO3MHA-12 | 2026-09-05 03:28:44 | 47.25595 | 12.54717 | 98° | 26km/h | 19407m | 4.1m/s | -58.2°C | 5.4% | 0hPa | 2.5V | 00:00:00 | 01:42:40 | 00:00:00 | |
| DB0UT-7 | 2026-09-05 03:28:41 | 47.25597 | 12.54690 | 103° | 26km/h | 19393m | 4.0m/s | -58.1°C | 5.3% | 0hPa | 2.5V | 00:00:00 | 01:42:37 | 00:00:00 | |
| OE5MMP-10 | 2026-09-05 03:28:40 | 47.25599 | 12.54681 | 106° | 26km/h | 19388m | 4.9m/s | -58.2°C | 5.3% | 0hPa | 2.5V | 00:00:00 | 01:42:36 | 00:00:00 | |
| BAUMI2-15 | 2026-09-05 03:28:39 | 47.25601 | 12.54671 | 106° | 26km/h | 19384m | 4.3m/s | -58.2°C | 5.4% | 0hPa | 2.5V | 00:00:00 | 01:42:35 | 00:00:00 | |
| OE5HKT-10 | 2026-09-05 03:28:38 | 47.25603 | 12.54662 | 108° | 26km/h | 19379m | 5.3m/s | -58.3°C | 5.4% | 0hPa | 2.5V | 00:00:00 | 00:00:00 | 00:00:00 | |
| OE5REO-15 | 2026-09-05 03:28:35 | 47.25606 | 12.54644 | 107° | 24km/h | 19370m | 4.1m/s | -58.5°C | 1.8% | 0hPa | 2.5V | 00:00:00 | 00:00:00 | 00:00:00 | |
| BAUMI2-15 | 2026-09-05 03:28:34 | 47.25609 | 12.54625 | 101° | 26km/h | 19361m | 3.9m/s | -58.5°C | 5.5% | 0hPa | 2.5V | 00:00:00 | 01:42:30 | 00:00:00 | |
| OM5KV | 2026-09-05 03:28:32 | 47.25610 | 12.54616 | 102° | 27km/h | 19357m | 3.8m/s | -58.5°C | 1.9% | 0hPa | 2.6V | 00:00:00 | 00:00:00 | 00:00:00 | |
| PG1ADW-2 | 2026-09-05 03:28:31 | 47.25613 | 12.54598 | 105° | 27km/h | 19348m | 4.1m/s | -58.4°C | 5.5% | 0hPa | 2.6V | 00:00:00 | 01:42:27 | 08:30:00 | |
| OE5MMP-10 | 2026-09-05 03:28:30 | 47.25614 | 12.54589 | 102° | 26km/h | 19344m | 5.1m/s | -58.4°C | 5.5% | 0hPa | 2.6V | 00:00:00 | 01:42:26 | 00:00:00 | |
| BAUMI2-15 | 2026-09-05 03:28:29 | 47.25616 | 12.54580 | 100° | 27km/h | 19339m | 4.4m/s | -58.4°C | 5.5% | 0hPa | 2.6V | 00:00:00 | 01:42:25 | 00:00:00 | |
| DB0NH | 2026-09-05 03:28:28 | 47.25617 | 12.54569 | 98° | 27km/h | 19334m | 4.0m/s | -58.3°C | 5.4% | 0hPa | 2.6V | 00:00:00 | 01:42:24 | 00:00:00 | |
| OE5DRO-10 | 2026-09-05 03:28:26 | 47.25618 | 12.54550 | 97° | 27km/h | 19324m | 4.7m/s | -58.3°C | 5.5% | 0hPa | 2.6V | 00:00:00 | 00:00:00 | 00:00:00 | |
| DO3MHA-12 | 2026-09-05 03:28:24 | 47.25620 | 12.54530 | 96° | 27km/h | 19314m | 4.1m/s | -58.3°C | 5.4% | 0hPa | 2.6V | 00:00:00 | 01:42:20 | 00:00:00 | |
| OE5MMP-10 | 2026-09-05 03:28:20 | 47.25623 | 12.54491 | 96° | 27km/h | 19295m | 4.6m/s | -58.3°C | 5.5% | 0hPa | 2.5V | 00:00:00 | 01:42:16 | 08:30:00 | |
| OE8JPQ-2 | 2026-09-05 03:28:19 | 47.25624 | 12.54480 | 96° | 27km/h | 19291m | 4.2m/s | -58.3°C | 5.5% | 0hPa | 2.5V | 00:00:00 | 00:00:00 | 00:00:00 | |
| DO3MHA-11 | 2026-09-05 03:28:18 | 47.25625 | 12.54470 | 96° | 26km/h | 19286m | 5.3m/s | -58.3°C | 5.5% | 0hPa | 2.5V | 00:00:00 | 01:42:14 | 00:00:00 | |
| OE5HKT-10 | 2026-09-05 03:28:17 | 47.25625 | 12.54460 | 96° | 27km/h | 19281m | 4.1m/s | -58.4°C | 5.6% | 0hPa | 2.5V | 00:00:00 | 01:42:13 | 00:00:00 | |
| DO3MHA-12 | 2026-09-05 03:28:14 | 47.25626 | 12.54430 | 93° | 26km/h | 19268m | 4.7m/s | -58.3°C | 5.5% | 0hPa | 2.5V | 00:00:00 | 01:42:10 | 00:00:00 | |
| DG1MFX-10 | 2026-09-05 03:28:13 | 47.25626 | 12.54430 | 93° | 27km/h | 19268m | 4.7m/s | -58.4°C | 1.9% | 0hPa | 2.5V | 00:00:00 | 00:00:00 | 00:00:00 | |
| OE5WHR-10 | 2026-09-05 03:28:12 | 47.25626 | 12.54410 | 92° | 26km/h | 19258m | 4.4m/s | -58.3°C | 5.6% | 0hPa | 2.5V | 00:00:00 | 00:00:00 | 00:00:00 | |
| DB0UT-7 | 2026-09-05 03:28:11 | 47.25626 | 12.54401 | 89° | 26km/h | 19253m | 4.3m/s | -58.2°C | 5.5% | 0hPa | 2.5V | 00:00:00 | 00:00:00 | 00:00:00 | |
| OE5MMP-10 | 2026-09-05 03:28:10 | 47.25626 | 12.54392 | 87° | 27km/h | 19248m | 5.4m/s | -58.2°C | 5.6% | 0hPa | 2.5V | 00:00:00 | 01:42:06 | 00:00:00 | |
| BAUMI2-15 | 2026-09-05 03:28:09 | 47.25625 | 12.54383 | 87° | 27km/h | 19244m | 4.3m/s | -58.2°C | 5.5% | 0hPa | 2.5V | 00:00:00 | 01:42:05 | 00:00:00 | |
| DO3MHA-11 | 2026-09-05 03:28:08 | 47.25625 | 12.54373 | 83° | 27km/h | 19239m | 4.7m/s | -58.2°C | 5.5% | 0hPa | 2.5V | 00:00:00 | 01:42:04 | 00:00:00 | |
| OE5DRO-10 | 2026-09-05 03:28:07 | 47.25624 | 12.54363 | 84° | 26km/h | 19234m | 4.4m/s | -58.1°C | 5.5% | 0hPa | 2.5V | 00:00:00 | 00:00:00 | 00:00:00 | |
| DO3MHA-12 | 2026-09-05 03:28:04 | 47.25621 | 12.54333 | 88° | 27km/h | 19221m | 4.1m/s | -58.1°C | 5.4% | 0hPa | 2.5V | 00:00:00 | 01:42:00 | 00:00:00 | |
| OE5REO-15 | 2026-09-05 03:28:03 | 47.25621 | 12.54333 | 89° | 31km/h | 19221m | 4.1m/s | -58.1°C | 1.8% | 0hPa | 2.5V | 00:00:00 | 00:00:00 | 00:00:00 | |
| OE5MMP-10 | 2026-09-05 03:28:00 | 47.25621 | 12.54291 | 90° | 26km/h | 19203m | 5.1m/s | -58.0°C | 5.3% | 0hPa | 2.5V | 00:00:00 | 01:41:56 | 00:00:00 | |
| BAUMI2-15 | 2026-09-05 03:27:59 | 47.25620 | 12.54281 | 81° | 26km/h | 19198m | 4.6m/s | -57.9°C | 5.4% | 0hPa | 2.5V | 00:00:00 | 01:41:55 | 00:00:00 | |
| DB0NH | 2026-09-05 03:27:58 | 47.25619 | 12.54271 | 78° | 24km/h | 19194m | 4.4m/s | -57.9°C | 5.3% | 0hPa | 2.5V | 00:00:00 | 01:41:54 | 00:00:00 | |
| OE5HKT-10 | 2026-09-05 03:27:56 | 47.25615 | 12.54253 | 75° | 31km/h | 19184m | 5.0m/s | -57.9°C | 5.3% | 0hPa | 2.5V | 00:00:00 | 00:00:00 | 00:00:00 | |
| OE3JTB-15 | 2026-09-05 03:27:55 | 47.25614 | 12.54245 | 69° | 24km/h | 19179m | 3.9m/s | -57.9°C | 5.3% | 0hPa | 2.5V | 00:00:00 | 01:41:51 | 00:00:00 | |
| DO3MHA-12 | 2026-09-05 03:27:54 | 47.25611 | 12.54237 | 70° | 26km/h | 19174m | 5.7m/s | -57.9°C | 5.3% | 0hPa | 2.5V | 00:00:00 | 01:41:50 | 08:30:00 | |
| DG1MFX-10 | 2026-09-05 03:27:53 | 47.25611 | 12.54237 | 70° | 26km/h | 19174m | 5.8m/s | -57.9°C | 1.8% | 0hPa | 2.6V | 00:00:00 | 00:00:00 | 00:00:00 | |
| PG1ADW-2 | 2026-09-05 03:27:51 | 47.25604 | 12.54210 | 68° | 24km/h | 19159m | 4.7m/s | -57.9°C | 5.3% | 0hPa | 2.6V | 00:00:00 | 00:00:00 | 00:00:00 | |
| OE5MMP-10 | 2026-09-05 03:27:50 | 47.25601 | 12.54202 | 68° | 26km/h | 19155m | 3.7m/s | -57.9°C | 5.4% | 0hPa | 2.6V | 00:00:00 | 01:41:46 | 00:00:00 | |
| BAUMI2-15 | 2026-09-05 03:27:49 | 47.25599 | 12.54193 | 65° | 26km/h | 19151m | 5.4m/s | -57.9°C | 5.3% | 0hPa | 2.5V | 00:00:00 | 01:41:45 | 00:00:00 | |
| DO3MHA-11 | 2026-09-05 03:27:48 | 47.25596 | 12.54184 | 68° | 26km/h | 19145m | 4.5m/s | -57.8°C | 5.3% | 0hPa | 2.5V | 00:00:00 | 01:41:44 | 00:00:00 | |
| OE5DXL-15 | 2026-09-05 03:27:47 | 47.25594 | 12.54176 | 67° | 24km/h | 19141m | 5.5m/s | -57.8°C | 5.3% | 0hPa | 2.5V | 00:00:00 | 00:00:00 | 00:00:00 | |
| OM5KV | 2026-09-05 03:27:45 | 47.25591 | 12.54168 | 66° | 24km/h | 19136m | 3.8m/s | -57.8°C | 1.8% | 0hPa | 2.5V | 00:00:00 | 00:00:00 | 00:00:00 | |
| DO3MHA-12 | 2026-09-05 03:27:44 | 47.25586 | 12.54151 | 60° | 24km/h | 19127m | 4.7m/s | -57.8°C | 5.3% | 0hPa | 2.5V | 00:00:00 | 01:41:40 | 00:00:00 | |
| DB0UT-7 | 2026-09-05 03:27:41 | 47.25574 | 12.54127 | 52° | 22km/h | 19114m | 4.7m/s | -57.8°C | 5.3% | 0hPa | 2.5V | 00:00:00 | 01:41:37 | 00:00:00 | |
| OE5MMP-10 | 2026-09-05 03:27:40 | 47.25571 | 12.54121 | 52° | 22km/h | 19110m | 4.0m/s | -57.8°C | 5.3% | 0hPa | 2.5V | 00:00:00 | 01:41:36 | 00:00:00 | |
| BAUMI2-15 | 2026-09-05 03:27:39 | 47.25567 | 12.54114 | 56° | 22km/h | 19105m | 5.0m/s | -57.8°C | 5.3% | 0hPa | 2.5V | 00:00:00 | 01:41:35 | 00:00:00 | |
| DO3MHA-11 | 2026-09-05 03:27:38 | 47.25564 | 12.54106 | 59° | 22km/h | 19101m | 4.2m/s | -57.8°C | 5.2% | 0hPa | 2.5V | 00:00:00 | 01:41:34 | 00:00:00 | |
| IN3HCDX | 2026-09-05 03:27:37 | 47.25564 | 12.54106 | 60° | 22km/h | 19101m | 4.2m/s | -57.8°C | 1.8% | 0hPa | 2.5V | 00:00:00 | 00:00:00 | 00:00:00 | |
| DO3MHA-12 | 2026-09-05 03:27:34 | 47.25552 | 12.54081 | 53° | 24km/h | 19081m | 3.9m/s | -57.8°C | 5.3% | 0hPa | 2.5V | 00:00:00 | 01:41:30 | 00:00:00 | |
| DG1MFX-10 | 2026-09-05 03:27:32 | 47.25548 | 12.54074 | 55° | 22km/h | 19077m | 5.8m/s | -57.9°C | 1.8% | 0hPa | 2.5V | 00:00:00 | 00:00:00 | 00:00:00 | |
| PG1ADW-2 | 2026-09-05 03:27:31 | 47.25540 | 12.54061 | 49° | 22km/h | 19067m | 5.4m/s | -58.0°C | 5.3% | 0hPa | 2.5V | 00:00:00 | 00:00:00 | 00:00:00 | |
| OE5WHR-10 | 2026-09-05 03:27:30 | 47.25536 | 12.54054 | 49° | 22km/h | 19062m | 4.1m/s | -58.1°C | 5.4% | 0hPa | 2.5V | 00:00:00 | 00:00:00 | 00:00:00 | |
| BAUMI2-15 | 2026-09-05 03:27:29 | 47.25532 | 12.54047 | 44° | 24km/h | 19057m | 5.0m/s | -58.1°C | 5.3% | 0hPa | 2.6V | 00:00:00 | 01:41:25 | 00:00:00 | |
| DO3MHA-11 | 2026-09-05 03:27:28 | 47.25527 | 12.54041 | 41° | 22km/h | 19052m | 4.2m/s | -58.1°C | 5.4% | 0hPa | 2.6V | 00:00:00 | 01:41:24 | 00:00:00 | |
| OE3JTB-15 | 2026-09-05 03:27:26 | 47.25518 | 12.54032 | 37° | 20km/h | 19045m | 4.6m/s | -58.1°C | 5.4% | 0hPa | 2.5V | 00:00:00 | 00:00:00 | 00:00:00 | |
| NBG1-10 | 2026-09-05 03:27:25 | 47.25513 | 12.54026 | 39° | 20km/h | 19040m | 4.6m/s | -58.1°C | 5.4% | 0hPa | 2.6V | 00:00:00 | 01:41:21 | 00:00:00 | |
| DO3MHA-12 | 2026-09-05 03:27:24 | 47.25508 | 12.54021 | 43° | 22km/h | 19035m | 4.3m/s | -58.1°C | 5.4% | 0hPa | 2.6V | 00:00:00 | 01:41:20 | 00:00:00 | |
| OM5KV | 2026-09-05 03:27:21 | 47.25500 | 12.54009 | 44° | 22km/h | 19027m | 4.8m/s | -58.1°C | 1.9% | 0hPa | 2.5V | 00:00:00 | 00:00:00 | 00:00:00 | |
| OE5MMP-10 | 2026-09-05 03:27:20 | 47.25493 | 12.53997 | 58° | 20km/h | 19018m | 4.8m/s | -57.9°C | 5.4% | 0hPa | 2.5V | 00:00:00 | 01:41:16 | 00:00:00 | |
| OE8JPQ-2 | 2026-09-05 03:27:19 | 47.25490 | 12.53991 | 62° | 20km/h | 19013m | 3.9m/s | -57.9°C | 5.5% | 0hPa | 2.5V | 00:00:00 | 00:00:00 | 00:00:00 | |
| DO3MHA-11 | 2026-09-05 03:27:18 | 47.25488 | 12.53984 | 68° | 20km/h | 19009m | 5.6m/s | -57.9°C | 5.4% | 0hPa | 2.5V | 00:00:00 | 01:41:14 | 00:00:00 | |
| IN3HCDX | 2026-09-05 03:27:17 | 47.25486 | 12.53977 | 69° | 18km/h | 19004m | 3.8m/s | -58.0°C | 1.9% | 0hPa | 2.5V | 00:00:00 | 00:00:00 | 00:00:00 | |
| OE5REO-15 | 2026-09-05 03:27:16 | 47.25486 | 12.53977 | 69° | 18km/h | 19004m | 3.8m/s | -58.0°C | 1.9% | 0hPa | 2.5V | 00:00:00 | 00:00:00 | 00:00:00 | |
| DO3MHA-12 | 2026-09-05 03:27:14 | 47.25482 | 12.53955 | 80° | 18km/h | 18992m | 3.9m/s | -57.9°C | 5.4% | 0hPa | 2.5V | 00:00:00 | 01:41:10 | 00:00:00 | |
| DB0UT-7 | 2026-09-05 03:27:11 | 47.25480 | 12.53934 | 72° | 20km/h | 18977m | 5.5m/s | -57.9°C | 5.4% | 0hPa | 2.5V | 00:00:00 | 00:00:00 | 00:00:00 | |
| OE5MMP-10 | 2026-09-05 03:27:10 | 47.25478 | 12.53927 | 69° | 20km/h | 18972m | 3.9m/s | -57.9°C | 5.4% | 0hPa | 2.5V | 00:00:00 | 01:41:06 | 00:00:00 | |
| OE5WHR-10 | 2026-09-05 03:27:09 | 47.25476 | 12.53921 | 65° | 22km/h | 18968m | 4.9m/s | -57.9°C | 5.4% | 0hPa | 2.5V | 00:00:00 | 00:00:00 | 00:00:00 | |
| DO3MHA-11 | 2026-09-05 03:27:08 | 47.25474 | 12.53915 | 59° | 20km/h | 18963m | 4.8m/s | -57.9°C | 5.4% | 0hPa | 2.5V | 00:00:00 | 01:41:04 | 00:00:00 | |
| DO3MHA-12 | 2026-09-05 03:27:04 | 47.25467 | 12.53890 | 76° | 22km/h | 18944m | 3.9m/s | -57.7°C | 5.3% | 0hPa | 2.5V | 00:00:00 | 01:41:00 | 00:00:00 | |
| DL6DJ-15 | 2026-09-05 03:26:46 | 47.25466 | 12.53747 | 101° | 18km/h | 18859m | 5.4m/s | -57.7°C | 1.6% | -1.0hPa | 2.5V | 00:00:00 | 00:00:00 | 00:00:00 | |
| OE5REO-15 | 2026-09-05 03:26:45 | 47.25466 | 12.53747 | 102° | 18km/h | 18859m | 5.4m/s | -57.7°C | 1.8% | 0hPa | 2.5V | 00:00:00 | 00:00:00 | 00:00:00 | |
| DO3MHA-12 | 2026-09-05 03:26:44 | 47.25469 | 12.53732 | 111° | 24km/h | 18849m | 3.9m/s | -57.7°C | 5.1% | 0hPa | 2.5V | 00:00:00 | 01:40:40 | 00:00:00 | |
| DB0UT-7 | 2026-09-05 03:26:41 | 47.25475 | 12.53710 | 106° | 31km/h | 18836m | 4.3m/s | -58.1°C | 5.3% | 0hPa | 2.5V | 00:00:00 | 01:40:37 | 08:30:00 | |
| OE5MMP-10 | 2026-09-05 03:26:40 | 47.25477 | 12.53701 | 115° | 27km/h | 18831m | 4.9m/s | -58.1°C | 5.4% | 0hPa | 2.6V | 00:00:00 | 01:40:36 | 00:00:00 | |
| OE8JPQ-2 | 2026-09-05 03:26:39 | 47.25479 | 12.53693 | 116° | 31km/h | 18827m | 3.2m/s | -58.1°C | 5.4% | 0hPa | 2.6V | 00:00:00 | 00:00:00 | 08:30:00 | |
| DO3MHA-11 | 2026-09-05 03:26:38 | 47.25482 | 12.53684 | 120° | 29km/h | 18823m | 5.2m/s | -58.1°C | 5.4% | 0hPa | 2.6V | 00:00:00 | 01:40:34 | 00:00:00 | |
| DO3MHA-12 | 2026-09-05 03:26:34 | 47.25493 | 12.53648 | 113° | 33km/h | 18805m | 4.2m/s | -57.9°C | 5.3% | 0hPa | 2.6V | 00:00:00 | 01:40:30 | 00:00:00 | |
| IN3HCDX | 2026-09-05 03:26:33 | 47.25493 | 12.53648 | 114° | 31km/h | 18805m | 4.3m/s | -58.0°C | 1.8% | 0hPa | 2.6V | 00:00:00 | 00:00:00 | 00:00:00 | |
| OE5DRO-10 | 2026-09-05 03:26:32 | 47.25498 | 12.53626 | 106° | 31km/h | 18796m | 4.9m/s | -57.9°C | 5.3% | 0hPa | 2.6V | 00:00:00 | 00:00:00 | 00:00:00 | |
| PG1ADW-2 | 2026-09-05 03:26:31 | 47.25500 | 12.53614 | 103° | 31km/h | 18792m | 4.0m/s | -57.9°C | 5.3% | 0hPa | 2.6V | 00:00:00 | 00:00:00 | 00:00:00 | |
| OE5MMP-10 | 2026-09-05 03:26:30 | 47.25502 | 12.53603 | 107° | 33km/h | 18787m | 5.1m/s | -57.9°C | 5.2% | 0hPa | 2.6V | 00:00:00 | 01:40:26 | 00:00:00 | |
| DG1MFX-10 | 2026-09-05 03:26:29 | 47.25502 | 12.53603 | 107° | 33km/h | 18787m | 5.1m/s | -57.9°C | 1.8% | 0hPa | 2.6V | 00:00:00 | 00:00:00 | 00:00:00 | |
| DB0NH | 2026-09-05 03:26:28 | 47.25507 | 12.53580 | 109° | 31km/h | 18778m | 4.9m/s | -58.0°C | 5.3% | 0hPa | 2.6V | 00:00:00 | 01:40:24 | 00:00:00 | |
| S52SK | 2026-09-05 03:26:25 | 47.25512 | 12.53557 | 109° | 33km/h | 18768m | 4.7m/s | -58.2°C | 1.9% | 0hPa | 2.6V | 00:00:00 | 00:00:00 | 00:00:00 | |
| DO3MHA-12 | 2026-09-05 03:26:24 | 47.25517 | 12.53533 | 107° | 31km/h | 18760m | 3.6m/s | -58.2°C | 5.4% | 0hPa | 2.6V | 00:00:00 | 01:40:20 | 08:30:00 | |
| OE5WHR-10 | 2026-09-05 03:26:23 | 47.25519 | 12.53522 | 103° | 31km/h | 18755m | 5.2m/s | -58.3°C | 5.5% | 0hPa | 2.6V | 00:00:00 | 00:00:00 | 00:00:00 | |
| OM5KV | 2026-09-05 03:26:22 | 47.25519 | 12.53522 | 104° | 31km/h | 18755m | 5.2m/s | -58.3°C | 1.9% | 0hPa | 2.5V | 00:00:00 | 00:00:00 | 00:00:00 | |
| OE5MMP-10 | 2026-09-05 03:26:20 | 47.25521 | 12.53487 | 97° | 31km/h | 18742m | 4.5m/s | -58.2°C | 5.5% | 0hPa | 2.5V | 00:00:00 | 01:40:16 | 00:00:00 | |
| NBG1-10 | 2026-09-05 03:26:19 | 47.25523 | 12.53475 | 99° | 31km/h | 18738m | 3.7m/s | -58.2°C | 5.4% | 0hPa | 2.5V | 00:00:00 | 01:40:15 | 00:00:00 | |
| DO3MHA-11 | 2026-09-05 03:26:18 | 47.25523 | 12.53463 | 96° | 31km/h | 18734m | 4.9m/s | -58.2°C | 5.4% | 0hPa | 2.6V | 00:00:00 | 01:40:14 | 00:00:00 | |
| OE5DXL-15 | 2026-09-05 03:26:17 | 47.25524 | 12.53452 | 97° | 31km/h | 18729m | 4.7m/s | -58.3°C | 5.4% | 0hPa | 2.6V | 00:00:00 | 00:00:00 | 00:00:00 | |
| OM5KV | 2026-09-05 03:26:16 | 47.25525 | 12.53452 | 97° | 29km/h | 18729m | 4.7m/s | -58.3°C | 1.9% | 0hPa | 2.6V | 00:00:00 | 00:00:00 | 00:00:00 | |
| DL6DJ-15 | 2026-09-05 03:26:15 | 47.25526 | 12.53430 | 98° | 31km/h | 18720m | 4.6m/s | -58.4°C | 1.7% | -1.0hPa | 2.6V | 00:00:00 | 00:00:00 | 00:00:00 | |
| DO3MHA-12 | 2026-09-05 03:26:14 | 47.25527 | 12.53418 | 99° | 29km/h | 18716m | 4.1m/s | -58.4°C | 5.4% | 0hPa | 2.6V | 00:00:00 | 01:40:10 | 00:00:00 | |
| OE5DRO-10 | 2026-09-05 03:26:13 | 47.25528 | 12.53407 | 97° | 29km/h | 18711m | 4.8m/s | -58.4°C | 5.5% | 0hPa | 2.6V | 00:00:00 | 00:00:00 | 00:00:00 | |
| IN3HCDX | 2026-09-05 03:26:12 | 47.25528 | 12.53407 | 98° | 31km/h | 18711m | 4.8m/s | -58.4°C | 1.9% | 0hPa | 2.6V | 00:00:00 | 00:00:00 | 00:00:00 | |
| DB0UT-7 | 2026-09-05 03:26:11 | 47.25530 | 12.53385 | 100° | 31km/h | 18703m | 4.8m/s | -58.4°C | 5.5% | 0hPa | 2.6V | 00:00:00 | 00:00:00 | 00:00:00 | |
| OE5MMP-10 | 2026-09-05 03:26:10 | 47.25532 | 12.53373 | 105° | 29km/h | 18698m | 4.5m/s | -58.4°C | 5.5% | 0hPa | 2.6V | 00:00:00 | 01:40:06 | 00:00:00 | |
| DO3MHA-11 | 2026-09-05 03:26:08 | 47.25534 | 12.53352 | 96° | 29km/h | 18689m | 3.9m/s | -58.4°C | 5.5% | 0hPa | 2.6V | 00:00:00 | 01:40:04 | 00:00:00 | |
| DO3MHA-12 | 2026-09-05 03:26:04 | 47.25538 | 12.53311 | 96° | 29km/h | 18673m | 3.6m/s | -58.4°C | 5.5% | 0hPa | 2.6V | 00:00:00 | 01:40:00 | 00:00:00 | |
| HARRO8 | 2026-09-05 03:25:55 | 47.25547 | 12.53217 | 105° | 29km/h | 18635m | 4.9m/s | -58.5°C | -1.0% | -1.0hPa | 2.6V | 00:00:00 | 00:00:00 | 00:00:00 | |
| DO3MHA-12 | 2026-09-05 03:25:54 | 47.25549 | 12.53206 | 104° | 35km/h | 18631m | 3.5m/s | -58.5°C | 5.5% | 0hPa | 2.6V | 00:00:00 | 01:39:50 | 00:00:00 | |
| OM5KV | 2026-09-05 03:25:53 | 47.25549 | 12.53206 | 105° | 31km/h | 18631m | 3.6m/s | -58.5°C | 1.9% | 0hPa | 2.5V | 00:00:00 | 00:00:00 | 00:00:00 | |
| IN3HCDX | 2026-09-05 03:25:52 | 47.25550 | 12.53195 | 101° | 33km/h | 18626m | 5.1m/s | -58.6°C | 1.9% | 0hPa | 2.5V | 00:00:00 | 00:00:00 | 00:00:00 | |
| PG1ADW-2 | 2026-09-05 03:25:51 | 47.25552 | 12.53170 | 93° | 35km/h | 18618m | 3.4m/s | -58.6°C | 5.6% | 0hPa | 2.5V | 00:00:00 | 01:39:47 | 00:00:00 | |
| OE5MMP-10 | 2026-09-05 03:25:50 | 47.25552 | 12.53156 | 96° | 33km/h | 18614m | 5.1m/s | -58.6°C | 5.6% | 0hPa | 2.5V | 00:00:00 | 01:39:46 | 00:00:00 | |
| DO3MHA-11 | 2026-09-05 03:25:48 | 47.25555 | 12.53130 | 98° | 33km/h | 18605m | 3.9m/s | -58.6°C | 5.6% | 0hPa | 2.6V | 00:00:00 | 01:39:44 | 00:00:00 | |
| OE5DXL-15 | 2026-09-05 03:25:47 | 47.25556 | 12.53117 | 96° | 38km/h | 18600m | 5.1m/s | -58.6°C | 5.6% | 0hPa | 2.6V | 00:00:00 | 00:00:00 | 00:00:00 | |
| NBG1-10 | 2026-09-05 03:25:46 | 47.25556 | 12.53105 | 93° | 38km/h | 18596m | 3.8m/s | -58.6°C | 5.6% | 0hPa | 2.6V | 00:00:00 | 01:39:42 | 00:00:00 | |
| DO3MHA-12 | 2026-09-05 03:25:44 | 47.25558 | 12.53081 | 99° | 35km/h | 18587m | 3.6m/s | -58.6°C | 5.6% | 0hPa | 2.6V | 00:00:00 | 01:39:40 | 00:00:00 | |
| DB0UT-7 | 2026-09-05 03:25:41 | 47.25560 | 12.53045 | 95° | 40km/h | 18574m | 4.3m/s | -58.5°C | 5.6% | 0hPa | 2.6V | 00:00:00 | 01:39:37 | 00:00:00 | |
| OE5MMP-10 | 2026-09-05 03:25:40 | 47.25560 | 12.53034 | 98° | 38km/h | 18570m | 4.3m/s | -58.5°C | 5.6% | 0hPa | 2.6V | 00:00:00 | 01:39:36 | 00:00:00 | |
| OE8JPQ-2 | 2026-09-05 03:25:39 | 47.25562 | 12.53021 | 100° | 40km/h | 18566m | 3.2m/s | -58.5°C | 5.6% | 0hPa | 2.6V | 00:00:00 | 00:00:00 | 00:00:00 | |
| DO3MHA-11 | 2026-09-05 03:25:38 | 47.25563 | 12.53009 | 96° | 40km/h | 18562m | 4.6m/s | -58.5°C | 5.6% | 0hPa | 2.5V | 00:00:00 | 01:39:34 | 00:00:00 | |
| OE5DRO-10 | 2026-09-05 03:25:35 | 47.25564 | 12.52969 | 94° | 42km/h | 18549m | 4.8m/s | -58.4°C | 5.6% | 0hPa | 2.5V | 00:00:00 | 00:00:00 | 00:00:00 | |
| DO3MHA-12 | 2026-09-05 03:25:34 | 47.25565 | 12.52953 | 95° | 40km/h | 18545m | 3.6m/s | -58.3°C | 5.6% | 0hPa | 2.5V | 00:00:00 | 01:39:30 | 00:00:00 | |
| IN3HCDX | 2026-09-05 03:25:32 | 47.25565 | 12.52938 | 96° | 42km/h | 18541m | 3.4m/s | -58.3°C | 1.9% | 0hPa | 2.5V | 00:00:00 | 00:00:00 | 00:00:00 | |
| PG1ADW-2 | 2026-09-05 03:25:31 | 47.25566 | 12.52906 | 91° | 42km/h | 18532m | 4.7m/s | -58.2°C | 5.5% | 0hPa | 2.5V | 00:00:00 | 00:00:00 | 08:30:00 | |
| OE5MMP-10 | 2026-09-05 03:25:30 | 47.25566 | 12.52891 | 89° | 42km/h | 18528m | 4.4m/s | -58.2°C | 5.4% | 0hPa | 2.6V | 00:00:00 | 01:39:26 | 00:00:00 | |
| DB0NH | 2026-09-05 03:25:28 | 47.25566 | 12.52862 | 89° | 44km/h | 18519m | 4.3m/s | -58.1°C | 5.4% | 0hPa | 2.6V | 00:00:00 | 01:39:24 | 00:00:00 | |
| DG1MFX-10 | 2026-09-05 03:25:27 | 47.25566 | 12.52862 | 89° | 40km/h | 18519m | 4.4m/s | -58.1°C | 1.9% | 0hPa | 2.6V | 00:00:00 | 00:00:00 | 00:00:00 | |
| DO3MHA-12 | 2026-09-05 03:25:24 | 47.25564 | 12.52801 | 86° | 42km/h | 18500m | 4.0m/s | -58.0°C | 5.3% | 0hPa | 2.6V | 00:00:00 | 01:39:20 | 00:00:00 | |
| OE5MMP-10 | 2026-09-05 03:25:20 | 47.25560 | 12.52736 | 89° | 42km/h | 18482m | 3.6m/s | -58.0°C | 5.2% | 0hPa | 2.5V | 00:00:00 | 01:39:16 | 08:30:00 | |
| OE8JPQ-2 | 2026-09-05 03:25:19 | 47.25560 | 12.52721 | 88° | 44km/h | 18478m | 3.9m/s | -58.0°C | 5.2% | 0hPa | 2.6V | 00:00:00 | 00:00:00 | 00:00:00 | |
| OE5HKT-10 | 2026-09-05 03:25:18 | 47.25559 | 12.52705 | 85° | 46km/h | 18473m | 5.1m/s | -58.1°C | 5.2% | 0hPa | 2.6V | 00:00:00 | 00:00:00 | 00:00:00 | |
| OE5DXL-15 | 2026-09-05 03:25:17 | 47.25558 | 12.52690 | 81° | 42km/h | 18468m | 4.2m/s | -58.2°C | 5.3% | 0hPa | 2.6V | 00:00:00 | 00:00:00 | 00:00:00 | |
| OE5DRO-10 | 2026-09-05 03:25:16 | 47.25556 | 12.52675 | 83° | 44km/h | 18464m | 4.7m/s | -58.4°C | 5.3% | 0hPa | 2.6V | 00:00:00 | 00:00:00 | 00:00:00 | |
| DO3MHA-12 | 2026-09-05 03:25:14 | 47.25554 | 12.52646 | 86° | 44km/h | 18454m | 3.4m/s | -58.4°C | 5.4% | 0hPa | 2.6V | 00:00:00 | 01:39:10 | 00:00:00 | |
| NBG1-10 | 2026-09-05 03:25:13 | 47.25553 | 12.52631 | 83° | 42km/h | 18450m | 5.3m/s | -58.5°C | 5.4% | 0hPa | 2.6V | 00:00:00 | 01:39:09 | 00:00:00 | |
| DB0UT-7 | 2026-09-05 03:25:11 | 47.25550 | 12.52599 | 83° | 42km/h | 18440m | 4.6m/s | -58.5°C | 5.5% | 0hPa | 2.6V | 00:00:00 | 00:00:00 | 00:00:00 | |
| OE5MMP-10 | 2026-09-05 03:25:10 | 47.25548 | 12.52583 | 84° | 46km/h | 18436m | 4.4m/s | -58.5°C | 5.5% | 0hPa | 2.6V | 00:00:00 | 01:39:06 | 00:00:00 | |
| DO3MHA-11 | 2026-09-05 03:25:08 | 47.25546 | 12.52551 | 81° | 46km/h | 18427m | 4.8m/s | -58.5°C | 5.4% | 0hPa | 2.6V | 00:00:00 | 01:39:04 | 00:00:00 | |
| DG1MFX-10 | 2026-09-05 03:25:06 | 47.25543 | 12.52534 | 77° | 46km/h | 18422m | 4.8m/s | -58.6°C | 2.0% | 0hPa | 2.6V | 00:00:00 | 00:00:00 | 00:00:00 | |
| DO3MHA-12 | 2026-09-05 03:25:04 | 47.25534 | 12.52486 | 75° | 47km/h | 18409m | 4.1m/s | -58.8°C | 5.5% | 0hPa | 2.6V | 00:00:00 | 01:39:00 | 00:00:00 | |
| OE3JTB-15 | 2026-09-05 03:25:01 | 47.25523 | 12.52438 | 73° | 38km/h | 18396m | 3.7m/s | -59.0°C | 5.6% | 0hPa | 2.6V | 00:00:00 | 01:38:57 | 00:00:00 | |
| OE5MMP-10 | 2026-09-05 03:25:00 | 47.25520 | 12.52422 | 75° | 44km/h | 18392m | 5.1m/s | -59.0°C | 5.5% | 0hPa | 2.6V | 00:00:00 | 01:38:56 | 00:00:00 | |
| OE5WHR-10 | 2026-09-05 03:24:59 | 47.25517 | 12.52406 | 79° | 40km/h | 18387m | 3.8m/s | -59.0°C | 5.5% | 0hPa | 2.6V | 00:00:00 | 00:00:00 | 00:00:00 | |
| OE5DRO-10 | 2026-09-05 03:24:57 | 47.25512 | 12.52370 | 77° | 38km/h | 18379m | 4.6m/s | -59.0°C | 5.5% | 0hPa | 2.6V | 00:00:00 | 00:00:00 | 00:00:00 | |
| OE5HKT-10 | 2026-09-05 03:24:56 | 47.25508 | 12.52352 | 75° | 37km/h | 18375m | 3.5m/s | -59.0°C | 5.6% | 0hPa | 2.5V | 00:00:00 | 01:38:52 | 00:00:00 | |
| DO3MHA-12 | 2026-09-05 03:24:54 | 47.25502 | 12.52319 | 77° | 37km/h | 18366m | 4.2m/s | -59.1°C | 5.7% | 0hPa | 2.5V | 00:00:00 | 01:38:50 | 08:30:00 | |
| PG1ADW-2 | 2026-09-05 03:24:51 | 47.25495 | 12.52277 | 77° | 35km/h | 18354m | 3.7m/s | -59.1°C | 5.7% | 0hPa | 2.6V | 00:00:00 | 00:00:00 | 00:00:00 | |
| OE5MMP-10 | 2026-09-05 03:24:50 | 47.25493 | 12.52264 | 79° | 37km/h | 18349m | 4.8m/s | -59.1°C | 5.7% | 0hPa | 2.6V | 00:00:00 | 01:38:46 | 00:00:00 | |
| IN3HCDX | 2026-09-05 03:24:49 | 47.25493 | 12.52264 | 79° | 35km/h | 18349m | 4.9m/s | -59.1°C | 2.0% | 0hPa | 2.5V | 00:00:00 | 00:00:00 | 00:00:00 | |
| DO3MHA-11 | 2026-09-05 03:24:48 | 47.25491 | 12.52239 | 85° | 37km/h | 18341m | 3.1m/s | -59.1°C | 5.7% | 0hPa | 2.5V | 00:00:00 | 01:38:44 | 00:00:00 | |
| OE5DXL-15 | 2026-09-05 03:24:47 | 47.25490 | 12.52226 | 83° | 33km/h | 18337m | 4.8m/s | -59.1°C | 5.7% | 0hPa | 2.5V | 00:00:00 | 00:00:00 | 00:00:00 | |
| DG1MFX-10 | 2026-09-05 03:24:45 | 47.25489 | 12.52212 | 79° | 37km/h | 18333m | 3.7m/s | -59.1°C | 2.1% | 0hPa | 2.5V | 00:00:00 | 00:00:00 | 00:00:00 | |
| DO3MHA-12 | 2026-09-05 03:24:44 | 47.25485 | 12.52185 | 81° | 35km/h | 18324m | 5.1m/s | -59.1°C | 5.7% | 0hPa | 2.5V | 00:00:00 | 01:38:40 | 00:00:00 | |
| DL6DJ-15 | 2026-09-05 03:24:42 | 47.25482 | 12.52157 | 79° | 38km/h | 18315m | 5.1m/s | -59.2°C | 1.8% | -1.0hPa | 2.5V | 00:00:00 | 00:00:00 | 00:00:00 | |
| DB0UT-7 | 2026-09-05 03:24:41 | 47.25480 | 12.52143 | 80° | 33km/h | 18311m | 3.7m/s | -59.2°C | 5.8% | 0hPa | 2.5V | 00:00:00 | 01:38:37 | 00:00:00 | |
| OE5MMP-10 | 2026-09-05 03:24:40 | 47.25479 | 12.52129 | 83° | 33km/h | 18307m | 4.7m/s | -59.2°C | 5.8% | 0hPa | 2.5V | 00:00:00 | 01:38:36 | 00:00:00 | |
| BAUMI2-15 | 2026-09-05 03:24:39 | 47.25478 | 12.52116 | 88° | 31km/h | 18302m | 4.5m/s | -59.3°C | 5.9% | 0hPa | 2.5V | 00:00:00 | 01:38:35 | 00:00:00 | |
| OE5WHR-10 | 2026-09-05 03:24:38 | 47.25477 | 12.52103 | 86° | 33km/h | 18298m | 3.7m/s | -59.3°C | 5.9% | 0hPa | 2.5V | 00:00:00 | 01:38:34 | 00:00:00 | |
| DO3MHA-12 | 2026-09-05 03:24:34 | 47.25475 | 12.52060 | 88° | 35km/h | 18279m | 3.9m/s | -59.2°C | 5.9% | 0hPa | 2.5V | 00:00:00 | 01:38:30 | 00:00:00 | |
| OE5HKT-10 | 2026-09-05 03:24:33 | 47.25474 | 12.52048 | 87° | 33km/h | 18276m | 3.4m/s | -59.1°C | 5.8% | 0hPa | 2.5V | 00:00:00 | 00:00:00 | 08:30:00 | |
| OE3JTB-15 | 2026-09-05 03:24:32 | 47.25473 | 12.52036 | 84° | 33km/h | 18272m | 4.4m/s | -59.1°C | 5.8% | 0hPa | 2.5V | 00:00:00 | 00:00:00 | 08:30:00 | |
| PG1ADW-2 | 2026-09-05 03:24:31 | 47.25473 | 12.52023 | 85° | 33km/h | 18267m | 4.0m/s | -59.1°C | 5.8% | 0hPa | 2.5V | 00:00:00 | 01:38:27 | 00:00:00 | |
| OE5MMP-10 | 2026-09-05 03:24:30 | 47.25472 | 12.52010 | 90° | 33km/h | 18263m | 4.9m/s | -59.0°C | 5.8% | 0hPa | 2.6V | 00:00:00 | 01:38:26 | 00:00:00 | |
| BAUMI2-15 | 2026-09-05 03:24:29 | 47.25472 | 12.51997 | 92° | 35km/h | 18258m | 4.0m/s | -59.0°C | 5.8% | 0hPa | 2.6V | 00:00:00 | 01:38:25 | 00:00:00 | |
| DB0NH | 2026-09-05 03:24:28 | 47.25473 | 12.51984 | 92° | 33km/h | 18254m | 4.7m/s | -59.0°C | 5.8% | 0hPa | 2.6V | 00:00:00 | 01:38:24 | 00:00:00 | |
| OE5REO-15 | 2026-09-05 03:24:26 | 47.25473 | 12.51971 | 91° | 33km/h | 18250m | 3.9m/s | -59.0°C | 2.1% | 0hPa | 2.5V | 00:00:00 | 00:00:00 | 00:00:00 | |
| DG1MFX-10 | 2026-09-05 03:24:25 | 47.25473 | 12.51958 | 92° | 35km/h | 18246m | 3.3m/s | -58.9°C | 2.1% | 0hPa | 2.5V | 00:00:00 | 00:00:00 | 00:00:00 | |
| DO3MHA-12 | 2026-09-05 03:24:24 | 47.25475 | 12.51934 | 103° | 31km/h | 18238m | 4.3m/s | -58.8°C | 5.8% | 0hPa | 2.5V | 00:00:00 | 01:38:20 | 00:00:00 | |
| OE5MMP-10 | 2026-09-05 03:24:20 | 47.25483 | 12.51890 | 97° | 35km/h | 18222m | 3.9m/s | -58.7°C | 5.7% | 0hPa | 2.5V | 00:00:00 | 01:38:16 | 00:00:00 | |
| OE8JPQ-2 | 2026-09-05 03:24:19 | 47.25484 | 12.51880 | 96° | 33km/h | 18218m | 4.4m/s | -58.6°C | 5.7% | 0hPa | 2.5V | 00:00:00 | 00:00:00 | 00:00:00 | |
| DO3MHA-11 | 2026-09-05 03:24:18 | 47.25485 | 12.51868 | 95° | 35km/h | 18213m | 4.5m/s | -58.6°C | 5.7% | 0hPa | 2.5V | 00:00:00 | 01:38:14 | 00:00:00 | |
| OE5WHR-10 | 2026-09-05 03:24:17 | 47.25486 | 12.51856 | 97° | 33km/h | 18209m | 4.0m/s | -58.6°C | 5.7% | 0hPa | 2.5V | 00:00:00 | 00:00:00 | 00:00:00 | |
| DO3MHA-12 | 2026-09-05 03:24:14 | 47.25488 | 12.51819 | 97° | 35km/h | 18197m | 3.6m/s | -58.4°C | 5.6% | 0hPa | 2.5V | 00:00:00 | 01:38:10 | 00:00:00 | |
| DB0UT-7 | 2026-09-05 03:24:11 | 47.25494 | 12.51779 | 108° | 33km/h | 18184m | 4.4m/s | -58.3°C | 5.6% | 0hPa | 2.5V | 00:00:00 | 00:00:00 | 00:00:00 | |
| OE5MMP-10 | 2026-09-05 03:24:10 | 47.25497 | 12.51766 | 104° | 31km/h | 18179m | 4.3m/s | -58.3°C | 5.6% | 0hPa | 2.5V | 00:00:00 | 01:38:06 | 00:00:00 | |
| BAUMI2-15 | 2026-09-05 03:24:09 | 47.25499 | 12.51753 | 106° | 31km/h | 18175m | 4.3m/s | -58.3°C | 5.6% | 0hPa | 2.5V | 00:00:00 | 01:38:05 | 00:00:00 | |
| DO3MHA-11 | 2026-09-05 03:24:08 | 47.25501 | 12.51742 | 107° | 31km/h | 18170m | 4.9m/s | -58.2°C | 5.6% | 0hPa | 2.5V | 00:00:00 | 01:38:04 | 00:00:00 | |
| NBG1-10 | 2026-09-05 03:24:07 | 47.25504 | 12.51730 | 111° | 33km/h | 18166m | 4.2m/s | -58.2°C | 5.6% | 0hPa | 2.5V | 00:00:00 | 01:38:03 | 00:00:00 | |
| OE5HKT-10 | 2026-09-05 03:24:05 | 47.25508 | 12.51709 | 103° | 35km/h | 18157m | 4.2m/s | -58.1°C | 5.5% | 0hPa | 2.5V | 00:00:00 | 00:00:00 | 00:00:00 | |
| DO3MHA-12 | 2026-09-05 03:24:04 | 47.25509 | 12.51698 | 99° | 31km/h | 18153m | 3.6m/s | -58.1°C | 5.5% | 0hPa | 2.5V | 00:00:00 | 01:38:00 | 00:00:00 | |
| OE5MMP-10 | 2026-09-05 03:24:00 | 47.25516 | 12.51654 | 103° | 35km/h | 18137m | 4.5m/s | -58.0°C | 5.5% | 0hPa | 2.5V | 00:00:00 | 01:37:56 | 00:00:00 | |
| BAUMI2-15 | 2026-09-05 03:23:59 | 47.25518 | 12.51642 | 103° | 33km/h | 18133m | 3.6m/s | -57.9°C | 5.5% | 0hPa | 2.5V | 00:00:00 | 01:37:55 | 00:00:00 | |
| DO3MHA-11 | 2026-09-05 03:23:58 | 47.25520 | 12.51632 | 108° | 35km/h | 18128m | 5.1m/s | -57.9°C | 5.5% | 0hPa | 2.5V | 00:00:00 | 01:37:54 | 00:00:00 | |
| OE5WHR-10 | 2026-09-05 03:23:56 | 47.25525 | 12.51609 | 108° | 35km/h | 18119m | 4.8m/s | -57.8°C | 5.4% | 0hPa | 2.7V | 00:00:00 | 00:00:00 | 00:00:00 | |
| DO3MHA-12 | 2026-09-05 03:23:54 | 47.25529 | 12.51585 | 109° | 35km/h | 18111m | 4.2m/s | -57.7°C | 5.4% | 0hPa | 2.7V | 00:00:00 | 01:37:50 | 00:00:00 | |
| OE5REO-15 | 2026-09-05 03:23:53 | 47.25529 | 12.51585 | 110° | 35km/h | 18111m | 4.3m/s | -57.8°C | 1.9% | 0hPa | 2.5V | 00:00:00 | 00:00:00 | 00:00:00 | |
| PG1ADW-2 | 2026-09-05 03:23:51 | 47.25538 | 12.51546 | 107° | 35km/h | 18098m | 4.9m/s | -57.6°C | 5.4% | 0hPa | 2.5V | 00:00:00 | 00:00:00 | 00:00:00 | |
| OE5MMP-10 | 2026-09-05 03:23:50 | 47.25541 | 12.51534 | 108° | 33km/h | 18094m | 3.7m/s | -57.6°C | 5.4% | 0hPa | 2.5V | 00:00:00 | 01:37:46 | 08:30:00 | |
| BAUMI2-15 | 2026-09-05 03:23:49 | 47.25544 | 12.51521 | 108° | 35km/h | 18090m | 4.3m/s | -57.6°C | 5.4% | 0hPa | 2.5V | 00:00:00 | 01:37:45 | 00:00:00 | |
| DO3MHA-11 | 2026-09-05 03:23:48 | 47.25547 | 12.51508 | 112° | 33km/h | 18085m | 4.5m/s | -57.6°C | 5.3% | 0hPa | 2.6V | 00:00:00 | 01:37:44 | 00:00:00 | |
| OE5DXL-15 | 2026-09-05 03:23:47 | 47.25550 | 12.51496 | 110° | 35km/h | 18081m | 3.8m/s | -57.6°C | 5.3% | 0hPa | 2.6V | 00:00:00 | 00:00:00 | 08:30:00 | |
| OM5KV | 2026-09-05 03:23:45 | 47.25553 | 12.51485 | 111° | 31km/h | 18076m | 4.6m/s | -57.6°C | 1.9% | 0hPa | 2.7V | 00:00:00 | 00:00:00 | 00:00:00 | |
| DO3MHA-12 | 2026-09-05 03:23:44 | 47.25558 | 12.51463 | 115° | 33km/h | 18068m | 4.9m/s | -57.6°C | 5.3% | 0hPa | 2.7V | 00:00:00 | 01:37:40 | 00:00:00 | |
| DB0UT-7 | 2026-09-05 03:23:41 | 47.25568 | 12.51430 | 110° | 38km/h | 18055m | 3.9m/s | -57.6°C | 5.3% | 0hPa | 2.7V | 00:00:00 | 01:37:37 | 00:00:00 | |
| OE5MMP-10 | 2026-09-05 03:23:40 | 47.25571 | 12.51419 | 115° | 35km/h | 18050m | 4.6m/s | -57.6°C | 5.4% | 0hPa | 2.5V | 00:00:00 | 01:37:36 | 00:00:00 | |
| OE5WHR-10 | 2026-09-05 03:23:35 | 47.25589 | 12.51362 | 119° | 38km/h | 18029m | 5.2m/s | -57.5°C | 5.3% | 0hPa | 2.5V | 00:00:00 | 01:37:31 | 00:00:00 | |
| BAUMI2-15 | 2026-09-05 03:23:34 | 47.25593 | 12.51351 | 119° | 35km/h | 18024m | 4.1m/s | -57.5°C | 5.3% | 0hPa | 2.5V | 00:00:00 | 01:37:30 | 00:00:00 | |
| PG1ADW-2 | 2026-09-05 03:23:31 | 47.25605 | 12.51316 | 118° | 40km/h | 18010m | 3.7m/s | -57.5°C | 5.3% | 0hPa | 2.6V | 00:00:00 | 00:00:00 | 00:00:00 | |
| OE5MMP-10 | 2026-09-05 03:23:30 | 47.25610 | 12.51304 | 120° | 37km/h | 18006m | 4.2m/s | -57.5°C | 5.4% | 0hPa | 2.5V | 00:00:00 | 01:37:26 | 00:00:00 | |
| BAUMI2-15 | 2026-09-05 03:23:29 | 47.25614 | 12.51293 | 123° | 37km/h | 18002m | 3.4m/s | -57.5°C | 5.3% | 0hPa | 2.5V | 00:00:00 | 01:37:25 | 00:00:00 | |
| DB0NH | 2026-09-05 03:23:28 | 47.25619 | 12.51281 | 120° | 46km/h | 17998m | 4.1m/s | -57.5°C | 5.3% | 0hPa | 2.5V | 00:00:00 | 01:37:24 | 00:00:00 | |
| DO3MHA-12 | 2026-09-05 03:23:24 | 47.25637 | 12.51235 | 121° | 40km/h | 17982m | 3.5m/s | -57.6°C | 5.3% | 0hPa | 2.5V | 00:00:00 | 01:37:20 | 08:30:00 | |
| OE5HKT-10 | 2026-09-05 03:23:23 | 47.25642 | 12.51223 | 119° | 38km/h | 17978m | 4.4m/s | -57.6°C | 5.3% | 0hPa | 2.5V | 00:00:00 | 00:00:00 | 00:00:00 | |
| OE5DRO-10 | 2026-09-05 03:23:22 | 47.25646 | 12.51211 | 118° | 46km/h | 17974m | 3.1m/s | -57.5°C | 5.3% | 0hPa | 2.7V | 00:00:00 | 00:00:00 | 00:00:00 | |
| OE5MMP-10 | 2026-09-05 03:23:20 | 47.25655 | 12.51186 | 122° | 44km/h | 17966m | 4.0m/s | -57.5°C | 5.2% | 0hPa | 2.7V | 00:00:00 | 01:37:16 | 00:00:00 | |
| OE8JPQ-2 | 2026-09-05 03:23:19 | 47.25660 | 12.51174 | 119° | 47km/h | 17962m | 4.3m/s | -57.5°C | 5.2% | 0hPa | 2.6V | 00:00:00 | 00:00:00 | 00:00:00 | |
| DO3MHA-11 | 2026-09-05 03:23:18 | 47.25665 | 12.51160 | 117° | 46km/h | 17958m | 3.5m/s | -57.6°C | 5.2% | 0hPa | 2.6V | 00:00:00 | 01:37:14 | 00:00:00 | |
| OE5DXL-15 | 2026-09-05 03:23:17 | 47.25670 | 12.51146 | 118° | 49km/h | 17954m | 4.3m/s | -57.6°C | 5.2% | 0hPa | 2.6V | 00:00:00 | 00:00:00 | 00:00:00 | |
| DO3MHA-12 | 2026-09-05 03:23:14 | 47.25686 | 12.51101 | 115° | 47km/h | 17940m | 3.8m/s | -57.9°C | 5.3% | 0hPa | 2.6V | 00:00:00 | 01:37:10 | 00:00:00 | |
| OE5WHR-10 | 2026-09-05 03:23:12 | 47.25696 | 12.51071 | 119° | 51km/h | 17933m | 3.9m/s | -58.0°C | 5.3% | 0hPa | 2.6V | 00:00:00 | 00:00:00 | 00:00:00 | |
| DB0UT-7 | 2026-09-05 03:23:11 | 47.25701 | 12.51056 | 118° | 49km/h | 17929m | 3.4m/s | -58.0°C | 5.4% | 0hPa | 2.6V | 00:00:00 | 00:00:00 | 00:00:00 | |
| OE5MMP-10 | 2026-09-05 03:23:10 | 47.25706 | 12.51041 | 115° | 51km/h | 17925m | 4.0m/s | -57.9°C | 5.4% | 0hPa | 2.6V | 00:00:00 | 01:37:06 | 00:00:00 | |
| BAUMI2-15 | 2026-09-05 03:23:09 | 47.25711 | 12.51026 | 116° | 49km/h | 17921m | 3.0m/s | -57.9°C | 5.3% | 0hPa | 2.6V | 00:00:00 | 01:37:05 | 00:00:00 | |
| DO3MHA-11 | 2026-09-05 03:23:08 | 47.25716 | 12.51011 | 116° | 53km/h | 17917m | 4.4m/s | -57.9°C | 5.3% | 0hPa | 2.6V | 00:00:00 | 01:37:04 | 00:00:00 | |
| OE5REO-15 | 2026-09-05 03:23:07 | 47.25716 | 12.51011 | 116° | 46km/h | 17917m | 4.4m/s | -58.0°C | 0% | 0hPa | 2.6V | 00:00:00 | 00:00:00 | 00:00:00 | |
| OE3JTB-15 | 2026-09-05 03:23:05 | 47.25732 | 12.50959 | 112° | 51km/h | 17906m | 4.0m/s | -57.9°C | 5.4% | 0hPa | 2.6V | 00:00:00 | 00:00:00 | 00:00:00 | |
| DO3MHA-12 | 2026-09-05 03:23:04 | 47.25736 | 12.50941 | 110° | 55km/h | 17902m | 3.0m/s | -57.9°C | 5.4% | 0hPa | 2.5V | 00:00:00 | 01:37:00 | 00:00:00 | |
| OM5KV | 2026-09-05 03:23:03 | 47.25736 | 12.50941 | 110° | 53km/h | 17902m | 3.0m/s | -58.0°C | 1.9% | 0hPa | 2.5V | 00:00:00 | 00:00:00 | 00:00:00 | |
| NBG1-10 | 2026-09-05 03:23:01 | 47.25751 | 12.50884 | 112° | 49km/h | 17891m | 3.0m/s | -58.1°C | 5.4% | 0hPa | 2.5V | 00:00:00 | 01:36:57 | 08:30:00 | |
| OE5MMP-10 | 2026-09-05 03:23:00 | 47.25756 | 12.50865 | 110° | 53km/h | 17887m | 3.8m/s | -58.1°C | 5.4% | 0hPa | 2.6V | 00:00:00 | 01:36:56 | 00:00:00 | |
| OE8JPQ-2 | 2026-09-05 03:22:59 | 47.25760 | 12.50845 | 111° | 49km/h | 17884m | 3.4m/s | -58.1°C | 5.4% | 0hPa | 2.6V | 00:00:00 | 01:36:55 | 00:00:00 | |
| DB0NH | 2026-09-05 03:22:58 | 47.25766 | 12.50826 | 112° | 47km/h | 17880m | 4.1m/s | -58.2°C | 5.5% | 0hPa | 2.6V | 00:00:00 | 01:36:54 | 00:00:00 | |
| DO3MHA-12 | 2026-09-05 03:22:54 | 47.25786 | 12.50751 | 111° | 47km/h | 17866m | 3.6m/s | -58.4°C | 5.5% | 0hPa | 2.5V | 00:00:00 | 01:36:50 | 00:00:00 | |
| OM5KV | 2026-09-05 03:22:52 | 47.25791 | 12.50732 | 116° | 53km/h | 17861m | 4.7m/s | -58.5°C | 2.0% | 0hPa | 2.5V | 00:00:00 | 00:00:00 | 00:00:00 | |
| OE5WHR-10 | 2026-09-05 03:22:51 | 47.25802 | 12.50699 | 116° | 47km/h | 17854m | 4.0m/s | -58.4°C | 5.6% | 0hPa | 2.5V | 00:00:00 | 00:00:00 | 00:00:00 | |
| OE5MMP-10 | 2026-09-05 03:22:50 | 47.25806 | 12.50683 | 113° | 47km/h | 17850m | 3.8m/s | -58.5°C | 5.6% | 0hPa | 2.5V | 00:00:00 | 01:36:46 | 00:00:00 | |
| BAUMI2-15 | 2026-09-05 03:22:49 | 47.25811 | 12.50668 | 112° | 46km/h | 17846m | 3.7m/s | -58.5°C | 5.6% | 0hPa | 2.5V | 00:00:00 | 01:36:45 | 00:00:00 | |
| DO3MHA-11 | 2026-09-05 03:22:48 | 47.25815 | 12.50653 | 113° | 47km/h | 17841m | 4.8m/s | -58.5°C | 5.6% | 0hPa | 2.5V | 00:00:00 | 01:36:44 | 00:00:00 | |
| IN3HCDX | 2026-09-05 03:22:47 | 47.25815 | 12.50653 | 114° | 44km/h | 17841m | 4.9m/s | -58.5°C | 2.0% | 0hPa | 2.5V | 00:00:00 | 00:00:00 | 00:00:00 | |
| DO3MHA-12 | 2026-09-05 03:22:44 | 47.25831 | 12.50590 | 108° | 47km/h | 17826m | 3.4m/s | -58.4°C | 5.6% | 0hPa | 2.5V | 00:00:00 | 01:36:40 | 00:00:00 | |
| DG1MFX-10 | 2026-09-05 03:22:42 | 47.25835 | 12.50572 | 108° | 49km/h | 17822m | 4.6m/s | -58.4°C | 2.0% | 0hPa | 2.5V | 00:00:00 | 00:00:00 | 00:00:00 | |
| DB0UT-7 | 2026-09-05 03:22:41 | 47.25842 | 12.50537 | 107° | 44km/h | 17814m | 5.0m/s | -58.4°C | 5.6% | 0hPa | 2.5V | 00:00:00 | 01:36:37 | 00:00:00 | |
| OE5MMP-10 | 2026-09-05 03:22:40 | 47.25845 | 12.50519 | 103° | 46km/h | 17809m | 3.8m/s | -58.5°C | 5.6% | 0hPa | 2.5V | 00:00:00 | 01:36:36 | 00:00:00 | |
| OE8JPQ-2 | 2026-09-05 03:22:39 | 47.25848 | 12.50502 | 101° | 46km/h | 17806m | 3.0m/s | -58.5°C | 5.7% | 0hPa | 2.5V | 00:00:00 | 00:00:00 | 00:00:00 | |
| DL6DJ-15 | 2026-09-05 03:22:38 | 47.25853 | 12.50469 | 105° | 46km/h | 17797m | 3.6m/s | -58.6°C | 1.9% | -1.0hPa | 2.7V | 00:00:00 | 00:00:00 | 00:00:00 | |
| OE3JTB-15 | 2026-09-05 03:22:36 | 47.25856 | 12.50452 | 104° | 42km/h | 17794m | 4.5m/s | -58.5°C | 5.7% | 0hPa | 2.7V | 00:00:00 | 00:00:00 | 00:00:00 | |
| OM5KV | 2026-09-05 03:22:35 | 47.25856 | 12.50452 | 104° | 46km/h | 17794m | 4.5m/s | -58.6°C | 2.1% | 0hPa | 2.7V | 00:00:00 | 00:00:00 | 00:00:00 | |
| DO3MHA-12 | 2026-09-05 03:22:34 | 47.25861 | 12.50419 | 103° | 47km/h | 17786m | 3.3m/s | -58.4°C | 5.7% | 0hPa | 2.7V | 00:00:00 | 01:36:30 | 00:00:00 | |
| PG1ADW-2 | 2026-09-05 03:22:31 | 47.25870 | 12.50370 | 102° | 42km/h | 17774m | 4.6m/s | -58.4°C | 5.7% | 0hPa | 2.7V | 00:00:00 | 00:00:00 | 08:30:00 | |
| OE5MMP-10 | 2026-09-05 03:22:30 | 47.25872 | 12.50353 | 98° | 44km/h | 17770m | 3.5m/s | -58.4°C | 5.7% | 0hPa | 2.7V | 00:00:00 | 01:36:26 | 00:00:00 | |
| OE5WHR-10 | 2026-09-05 03:22:29 | 47.25873 | 12.50335 | 97° | 42km/h | 17766m | 4.7m/s | -58.3°C | 5.6% | 0hPa | 2.7V | 00:00:00 | 01:36:25 | 00:00:00 | |
| DB0NH | 2026-09-05 03:22:28 | 47.25875 | 12.50317 | 97° | 40km/h | 17761m | 3.7m/s | -58.3°C | 5.6% | 0hPa | 2.7V | 00:00:00 | 01:36:24 | 00:00:00 | |
| IN3HCDX | 2026-09-05 03:22:26 | 47.25875 | 12.50299 | 94° | 49km/h | 17757m | 4.2m/s | -58.3°C | 2.0% | 0hPa | 2.7V | 00:00:00 | 00:00:00 | 00:00:00 | |
| OE5DRO-10 | 2026-09-05 03:22:25 | 47.25876 | 12.50264 | 90° | 40km/h | 17750m | 3.5m/s | -58.2°C | 5.6% | 0hPa | 2.7V | 00:00:00 | 00:00:00 | 00:00:00 | |
| DO3MHA-12 | 2026-09-05 03:22:24 | 47.25876 | 12.50247 | 94° | 40km/h | 17745m | 5.3m/s | -58.1°C | 5.6% | 0hPa | 2.7V | 00:00:00 | 01:36:20 | 00:00:00 | |
| OM5KV | 2026-09-05 03:22:23 | 47.25876 | 12.50247 | 95° | 44km/h | 17745m | 5.3m/s | -58.2°C | 2.0% | 0hPa | 2.5V | 00:00:00 | 00:00:00 | 00:00:00 | |
| DG1MFX-10 | 2026-09-05 03:22:21 | 47.25878 | 12.50217 | 97° | 38km/h | 17736m | 4.8m/s | -58.1°C | 2.0% | 0hPa | 2.5V | 00:00:00 | 00:00:00 | 00:00:00 | |
| OE5MMP-10 | 2026-09-05 03:22:20 | 47.25879 | 12.50190 | 94° | 40km/h | 17728m | 3.3m/s | -57.9°C | 5.6% | 0hPa | 2.5V | 00:00:00 | 01:36:16 | 08:30:00 | |
| OE8JPQ-2 | 2026-09-05 03:22:19 | 47.25880 | 12.50175 | 96° | 40km/h | 17724m | 5.1m/s | -57.9°C | 5.5% | 0hPa | 2.6V | 00:00:00 | 00:00:00 | 00:00:00 | |
| DO3MHA-11 | 2026-09-05 03:22:18 | 47.25881 | 12.50161 | 95° | 40km/h | 17719m | 3.9m/s | -57.9°C | 5.5% | 0hPa | 2.6V | 00:00:00 | 01:36:14 | 00:00:00 | |
| OE5DXL-15 | 2026-09-05 03:22:17 | 47.25881 | 12.50146 | 91° | 40km/h | 17714m | 4.8m/s | -57.8°C | 5.5% | 0hPa | 2.6V | 00:00:00 | 00:00:00 | 00:00:00 | |
| OE5REO-15 | 2026-09-05 03:22:15 | 47.25881 | 12.50130 | 89° | 42km/h | 17710m | 3.3m/s | -57.8°C | 0% | 0hPa | 2.6V | 00:00:00 | 00:00:00 | 00:00:00 | |
| DO3MHA-12 | 2026-09-05 03:22:14 | 47.25881 | 12.50100 | 91° | 40km/h | 17701m | 3.8m/s | -57.7°C | 5.5% | 0hPa | 2.6V | 00:00:00 | 01:36:10 | 00:00:00 | |
| OM5KV | 2026-09-05 03:22:12 | 47.25881 | 12.50085 | 91° | 38km/h | 17698m | 2.9m/s | -57.7°C | 2.0% | 0hPa | 2.6V | 00:00:00 | 00:00:00 | 00:00:00 | |
| DB0UT-7 | 2026-09-05 03:22:11 | 47.25880 | 12.50057 | 86° | 40km/h | 17690m | 3.9m/s | -57.6°C | 5.4% | 0hPa | 2.6V | 00:00:00 | 00:00:00 | 08:30:00 | |
| OE5MMP-10 | 2026-09-05 03:22:10 | 47.25879 | 12.50043 | 87° | 40km/h | 17685m | 4.6m/s | -57.6°C | 5.4% | 0hPa | 2.5V | 00:00:00 | 01:36:06 | 00:00:00 | |
| DO3MHA-11 | 2026-09-05 03:22:08 | 47.25879 | 12.50014 | 92° | 40km/h | 17677m | 3.6m/s | -57.5°C | 5.4% | 0hPa | 2.5V | 00:00:00 | 01:36:04 | 00:00:00 | |
| DL6DJ-15 | 2026-09-05 03:22:07 | 47.25878 | 12.49981 | 86° | 44km/h | 17669m | 4.0m/s | -57.5°C | 1.8% | -1.0hPa | 2.5V | 00:00:00 | 00:00:00 | 00:00:00 | |
| OE5DRO-10 | 2026-09-05 03:22:06 | 47.25878 | 12.49981 | 87° | 40km/h | 17669m | 3.9m/s | -57.4°C | 5.4% | 0hPa | 2.5V | 00:00:00 | 00:00:00 | 00:00:00 | |
| IN3HCDX | 2026-09-05 03:22:05 | 47.25878 | 12.49981 | 87° | 44km/h | 17669m | 4.0m/s | -57.5°C | 1.9% | 0hPa | 2.5V | 00:00:00 | 00:00:00 | 00:00:00 | |
| DO3MHA-12 | 2026-09-05 03:22:04 | 47.25877 | 12.49949 | 89° | 40km/h | 17661m | 5.0m/s | -57.3°C | 5.3% | 0hPa | 2.5V | 00:00:00 | 01:36:00 | 00:00:00 | |
| S52SK | 2026-09-05 03:22:03 | 47.25877 | 12.49949 | 90° | 40km/h | 17661m | 5.0m/s | -57.4°C | 1.9% | 0hPa | 2.5V | 00:00:00 | 00:00:00 | 00:00:00 | |
| DG1MFX-10 | 2026-09-05 03:22:01 | 47.25877 | 12.49920 | 93° | 38km/h | 17652m | 5.3m/s | -57.3°C | 1.9% | 0hPa | 2.5V | 00:00:00 | 00:00:00 | 00:00:00 | |
| OE5MMP-10 | 2026-09-05 03:22:00 | 47.25876 | 12.49892 | 90° | 38km/h | 17643m | 4.0m/s | -57.2°C | 5.3% | 0hPa | 2.5V | 00:00:00 | 01:35:56 | 00:00:00 | |
| OE8JPQ-2 | 2026-09-05 03:21:59 | 47.25877 | 12.49877 | 92° | 38km/h | 17638m | 5.0m/s | -57.2°C | 5.3% | 0hPa | 2.5V | 00:00:00 | 01:35:55 | 00:00:00 | |
| DO3MHA-11 | 2026-09-05 03:21:58 | 47.25877 | 12.49863 | 92° | 38km/h | 17634m | 4.0m/s | -57.2°C | 5.3% | 0hPa | 2.5V | 00:00:00 | 01:35:54 | 08:30:00 | |
| S52SK | 2026-09-05 03:21:57 | 47.25877 | 12.49863 | 92° | 38km/h | 17634m | 4.0m/s | -57.3°C | 1.9% | 0hPa | 2.5V | 00:00:00 | 00:00:00 | 00:00:00 | |
| DB0NH | 2026-09-05 03:21:55 | 47.25875 | 12.49818 | 85° | 75km/h | 17621m | 3.6m/s | -57.2°C | 5.3% | 0hPa | 2.5V | 00:00:00 | 01:35:51 | 00:00:00 | |
| DO3MHA-12 | 2026-09-05 03:21:54 | 47.25874 | 12.49803 | 84° | 38km/h | 17617m | 5.3m/s | -57.1°C | 5.3% | 0hPa | 2.5V | 00:00:00 | 01:35:50 | 08:30:00 | |
| PG1ADW-2 | 2026-09-05 03:21:51 | 47.25871 | 12.49760 | 80° | 55km/h | 17603m | 5.1m/s | -57.0°C | 5.2% | 0hPa | 2.7V | 00:00:00 | 01:35:47 | 00:00:00 | |
| OE5MMP-10 | 2026-09-05 03:21:50 | 47.25869 | 12.49747 | 77° | 38km/h | 17598m | 4.0m/s | -57.0°C | 5.2% | 0hPa | 2.7V | 00:00:00 | 01:35:46 | 00:00:00 | |
| DO3MHA-11 | 2026-09-05 03:21:48 | 47.25865 | 12.49719 | 81° | 38km/h | 17589m | 4.4m/s | -56.9°C | 5.2% | 0hPa | 2.6V | 00:00:00 | 01:35:44 | 00:00:00 | |
| OE5WHR-10 | 2026-09-05 03:21:47 | 47.25863 | 12.49706 | 82° | 40km/h | 17585m | 3.8m/s | -56.9°C | 5.2% | 0hPa | 2.6V | 00:00:00 | 00:00:00 | 00:00:00 | |
| IN3HCDX | 2026-09-05 03:21:45 | 47.25862 | 12.49692 | 80° | 38km/h | 17580m | 4.9m/s | -56.9°C | 1.9% | 0hPa | 2.6V | 00:00:00 | 00:00:00 | 00:00:00 | |
| DO3MHA-12 | 2026-09-05 03:21:44 | 47.25858 | 12.49664 | 80° | 40km/h | 17571m | 5.2m/s | -56.9°C | 5.1% | 0hPa | 2.6V | 00:00:00 | 01:35:40 | 00:00:00 | |
| OE5REO-15 | 2026-09-05 03:21:43 | 47.25858 | 12.49664 | 80° | 37km/h | 17571m | 5.2m/s | 0°C | 0% | 0hPa | 2.6V | 00:00:00 | 00:00:00 | 00:00:00 | |
| DB0UT-7 | 2026-09-05 03:21:41 | 47.25852 | 12.49623 | 77° | 38km/h | 17557m | 4.1m/s | -56.9°C | 5.2% | 0hPa | 2.6V | 00:00:00 | 01:35:37 | 00:00:00 | |
| OE5MMP-10 | 2026-09-05 03:21:40 | 47.25850 | 12.49608 | 79° | 40km/h | 17553m | 4.1m/s | -57.0°C | 5.2% | 0hPa | 2.6V | 00:00:00 | 01:35:36 | 00:00:00 | |
| OE8JPQ-2 | 2026-09-05 03:21:39 | 47.25848 | 12.49595 | 79° | 38km/h | 17548m | 4.7m/s | 0°C | 0% | 0hPa | 2.6V | 00:00:00 | 00:00:00 | 00:00:00 | |
| DO3MHA-11 | 2026-09-05 03:21:38 | 47.25846 | 12.49580 | 79° | 40km/h | 17544m | 3.8m/s | -57.0°C | 5.2% | 0hPa | 2.6V | 00:00:00 | 01:35:34 | 00:00:00 | |
| DL6DJ-15 | 2026-09-05 03:21:36 | 47.25839 | 12.49537 | 76° | 38km/h | 17530m | 5.4m/s | -57.2°C | 1.7% | -1.0hPa | 2.6V | 00:00:00 | 00:00:00 | 00:00:00 | |
| OE5MMP-10 | 2026-09-05 03:21:30 | 47.25829 | 12.49463 | 80° | 37km/h | 17507m | 4.6m/s | -57.1°C | 5.2% | 0hPa | 2.6V | 00:00:00 | 01:35:26 | 00:00:00 | |
| DO3MHA-12 | 2026-09-05 03:21:28 | 47.25824 | 12.49434 | 75° | 35km/h | 17497m | 5.2m/s | -57.1°C | 5.2% | 0hPa | 2.6V | 00:00:00 | 01:35:24 | 00:00:00 | |
| OE5REO-15 | 2026-09-05 03:21:27 | 47.25824 | 12.49434 | 75° | 42km/h | 17497m | 5.2m/s | 0°C | 0% | 0hPa | 2.6V | 00:00:00 | 00:00:00 | 00:00:00 | |
| OE5WHR-10 | 2026-09-05 03:21:26 | 47.25817 | 12.49406 | 64° | 35km/h | 17488m | 5.0m/s | -57.3°C | 5.3% | 0hPa | 2.6V | 00:00:00 | 01:35:22 | 00:00:00 | |
| IN3HCDX | 2026-09-05 03:21:25 | 47.25817 | 12.49406 | 64° | 38km/h | 17488m | 5.0m/s | -57.3°C | 1.9% | 0hPa | 2.6V | 00:00:00 | 00:00:00 | 00:00:00 | |
| NBG1-10 | 2026-09-05 03:21:22 | 47.25801 | 12.49360 | 65° | 35km/h | 17469m | 4.4m/s | -57.3°C | 5.3% | 0hPa | 2.6V | 00:00:00 | 01:35:18 | 00:00:00 | |
| OE5MMP-10 | 2026-09-05 03:21:20 | 47.25794 | 12.49336 | 71° | 37km/h | 17460m | 5.3m/s | -57.4°C | 5.3% | 0hPa | 2.5V | 00:00:00 | 01:35:16 | 00:00:00 | |
| OE8JPQ-2 | 2026-09-05 03:21:19 | 47.25792 | 12.49325 | 76° | 35km/h | 17456m | 4.4m/s | 0°C | 0% | 0hPa | 2.5V | 00:00:00 | 00:00:00 | 00:00:00 | |
| DO3MHA-11 | 2026-09-05 03:21:18 | 47.25789 | 12.49312 | 73° | 35km/h | 17451m | 5.3m/s | -57.5°C | 5.4% | 0hPa | 2.5V | 00:00:00 | 01:35:14 | 00:00:00 | |
| OE5DXL-15 | 2026-09-05 03:21:17 | 47.25786 | 12.49299 | 69° | 35km/h | 17446m | 3.8m/s | -57.6°C | 5.4% | 0hPa | 2.5V | 00:00:00 | 00:00:00 | 00:00:00 | |
| OM5KV | 2026-09-05 03:21:16 | 47.25786 | 12.49299 | 70° | 38km/h | 17446m | 3.9m/s | -57.7°C | 2.0% | 0hPa | 2.5V | 00:00:00 | 00:00:00 | 00:00:00 | |
| DB0UT-7 | 2026-09-05 03:21:11 | 47.25760 | 12.49228 | 57° | 35km/h | 17419m | 4.3m/s | -57.4°C | 5.4% | 0hPa | 2.5V | 00:00:00 | 00:00:00 | 00:00:00 | |
| OE5MMP-10 | 2026-09-05 03:21:10 | 47.25754 | 12.49218 | 51° | 33km/h | 17414m | 5.4m/s | -57.4°C | 5.4% | 0hPa | 2.5V | 00:00:00 | 01:35:06 | 00:00:00 | |
| OE3JTB-15 | 2026-09-05 03:21:09 | 47.25749 | 12.49209 | 48° | 35km/h | 17409m | 4.4m/s | -57.3°C | 5.3% | 0hPa | 2.5V | 00:00:00 | 00:00:00 | 00:00:00 | |
| DO3MHA-12 | 2026-09-05 03:21:08 | 47.25744 | 12.49201 | 47° | 37km/h | 17404m | 4.4m/s | -57.3°C | 5.3% | 0hPa | 2.5V | 00:00:00 | 01:35:04 | 00:00:00 | |
| DL6DJ-15 | 2026-09-05 03:21:05 | 47.25723 | 12.49169 | 44° | 31km/h | 17386m | 3.5m/s | -57.1°C | 1.8% | -1.0hPa | 2.5V | 00:00:00 | 00:00:00 | 00:00:00 | |
| OM5KV | 2026-09-05 03:21:03 | 47.25723 | 12.49169 | 45° | 31km/h | 17386m | 3.5m/s | -57.1°C | 1.9% | 0hPa | 2.5V | 00:00:00 | 00:00:00 | 00:00:00 | |
| OE5MMP-10 | 2026-09-05 03:21:00 | 47.25698 | 12.49130 | 48° | 33km/h | 17366m | 3.5m/s | -57.1°C | 5.4% | 0hPa | 2.5V | 00:00:00 | 01:34:56 | 00:00:00 | |
| OE8JPQ-2 | 2026-09-05 03:20:59 | 47.25692 | 12.49120 | 51° | 35km/h | 17362m | 4.8m/s | 0°C | 0% | 0hPa | 2.5V | 00:00:00 | 01:34:55 | 00:00:00 | |
| DO3MHA-11 | 2026-09-05 03:20:58 | 47.25686 | 12.49108 | 54° | 33km/h | 17357m | 4.9m/s | -57.0°C | 5.4% | 0hPa | 2.5V | 00:00:00 | 01:34:54 | 00:00:00 | |
| DO3MHA-12 | 2026-09-05 03:20:55 | 47.25670 | 12.49077 | 56° | 40km/h | 17343m | 3.7m/s | -57.0°C | 5.4% | 0hPa | 2.7V | 00:00:00 | 01:34:51 | 00:00:00 | |
| OM5KV | 2026-09-05 03:20:52 | 47.25661 | 12.49057 | 55° | 31km/h | 17333m | 4.4m/s | -57.1°C | 2.0% | 0hPa | 2.7V | 00:00:00 | 00:00:00 | 00:00:00 | |
| OE5MMP-10 | 2026-09-05 03:20:50 | 47.25646 | 12.49034 | 40° | 40km/h | 17318m | 4.6m/s | -57.0°C | 5.3% | 0hPa | 2.7V | 00:00:00 | 01:34:46 | 08:30:00 | |
| NBG1-10 | 2026-09-05 03:20:49 | 47.25640 | 12.49025 | 44° | 38km/h | 17314m | 4.0m/s | -57.1°C | 5.4% | 0hPa | 2.5V | 00:00:00 | 01:34:45 | 00:00:00 | |
| DO3MHA-11 | 2026-09-05 03:20:48 | 47.25633 | 12.49016 | 47° | 42km/h | 17310m | 3.2m/s | -57.1°C | 5.5% | 0hPa | 2.5V | 00:00:00 | 01:34:44 | 00:00:00 | |
| OE5DXL-15 | 2026-09-05 03:20:47 | 47.25627 | 12.49006 | 49° | 38km/h | 17305m | 5.6m/s | -57.1°C | 5.5% | 0hPa | 2.5V | 00:00:00 | 00:00:00 | 00:00:00 | |
| OM5KV | 2026-09-05 03:20:46 | 47.25627 | 12.49006 | 49° | 38km/h | 17305m | 5.7m/s | -57.1°C | 2.0% | 0hPa | 2.5V | 00:00:00 | 00:00:00 | 00:00:00 | |
| OE5WHR-10 | 2026-09-05 03:20:44 | 47.25609 | 12.48967 | 66° | 40km/h | 17289m | 5.0m/s | -56.9°C | 5.4% | 0hPa | 2.5V | 00:00:00 | 00:00:00 | 00:00:00 | |
| DO3MHA-12 | 2026-09-05 03:20:43 | 47.25605 | 12.48950 | 76° | 38km/h | 17284m | 4.2m/s | -56.9°C | 5.4% | 0hPa | 2.5V | 00:00:00 | 01:34:39 | 00:00:00 | |
| DB0UT-7 | 2026-09-05 03:20:41 | 47.25601 | 12.48918 | 88° | 40km/h | 17271m | 6.0m/s | -56.8°C | 5.3% | 0hPa | 2.5V | 00:00:00 | 01:34:37 | 00:00:00 | |
| OE5MMP-10 | 2026-09-05 03:20:40 | 47.25601 | 12.48903 | 91° | 37km/h | 17265m | 6.4m/s | -56.8°C | 5.2% | 0hPa | 2.5V | 00:00:00 | 01:34:36 | 00:00:00 | |
| BAUMI2-15 | 2026-09-05 03:20:39 | 47.25601 | 12.48890 | 86° | 35km/h | 17258m | 8.2m/s | -56.8°C | 5.1% | 0hPa | 2.5V | 00:00:00 | 01:34:35 | 00:00:00 | |
| DO3MHA-11 | 2026-09-05 03:20:38 | 47.25600 | 12.48877 | 78° | 37km/h | 17250m | 8.0m/s | -56.8°C | 5.1% | 0hPa | 2.5V | 00:00:00 | 01:34:34 | 00:00:00 | |
| DG1MFX-10 | 2026-09-05 03:20:37 | 47.25600 | 12.48877 | 79° | 35km/h | 17250m | 8.1m/s | -56.9°C | 1.9% | 0hPa | 2.5V | 00:00:00 | 00:00:00 | 00:00:00 | |
| BAUMI2-15 | 2026-09-05 03:20:34 | 47.25590 | 12.48827 | 85° | 38km/h | 17220m | 6.5m/s | -56.6°C | 5.2% | 0hPa | 2.5V | 00:00:00 | 01:34:30 | 08:30:00 | |
| DO3MHA-12 | 2026-09-05 03:20:33 | 47.25590 | 12.48814 | 93° | 40km/h | 17214m | 6.1m/s | -56.6°C | 5.3% | 0hPa | 2.5V | 00:00:00 | 01:34:29 | 00:00:00 | |
| S52SK | 2026-09-05 03:20:32 | 47.25590 | 12.48814 | 93° | 37km/h | 17214m | 6.2m/s | -56.7°C | 0% | 0hPa | 2.5V | 00:00:00 | 00:00:00 | 00:00:00 | |
| OE5DRO-10 | 2026-09-05 03:20:31 | 47.25592 | 12.48786 | 93° | 42km/h | 17202m | 6.7m/s | -56.7°C | 5.4% | 0hPa | 2.5V | 00:00:00 | 00:00:00 | 00:00:00 | |
| OE5MMP-10 | 2026-09-05 03:20:30 | 47.25592 | 12.48770 | 92° | 38km/h | 17196m | 5.4m/s | -56.8°C | 5.5% | 0hPa | 2.5V | 00:00:00 | 01:34:26 | 00:00:00 | |
| BAUMI2-15 | 2026-09-05 03:20:29 | 47.25592 | 12.48755 | 94° | 40km/h | 17190m | 6.0m/s | -56.7°C | 5.5% | 0hPa | 2.5V | 00:00:00 | 01:34:25 | 00:00:00 | |
| DO3MHA-11 | 2026-09-05 03:20:28 | 47.25593 | 12.48740 | 100° | 37km/h | 17184m | 5.6m/s | -56.6°C | 5.6% | 0hPa | 2.5V | 00:00:00 | 01:34:24 | 08:30:00 | |
| BAUMI2-15 | 2026-09-05 03:20:24 | 47.25600 | 12.48681 | 91° | 35km/h | 17162m | 6.6m/s | -56.3°C | 5.3% | 0hPa | 2.5V | 00:00:00 | 01:34:20 | 00:00:00 | |
| DO3MHA-12 | 2026-09-05 03:20:23 | 47.25599 | 12.48667 | 83° | 40km/h | 17156m | 5.9m/s | -56.4°C | 5.3% | 0hPa | 2.5V | 00:00:00 | 01:34:19 | 00:00:00 | |
| OE5MMP-10 | 2026-09-05 03:20:20 | 47.25595 | 12.48630 | 87° | 44km/h | 17136m | 8.9m/s | -56.2°C | 5.1% | 0hPa | 2.5V | 00:00:00 | 01:34:16 | 00:00:00 | |
| BAUMI2-15 | 2026-09-05 03:20:19 | 47.25595 | 12.48619 | 100° | 42km/h | 17127m | 8.6m/s | -56.2°C | 5.2% | 0hPa | 2.5V | 00:00:00 | 01:34:15 | 00:00:00 | |
| DO3MHA-11 | 2026-09-05 03:20:18 | 47.25597 | 12.48605 | 105° | 47km/h | 17119m | 7.0m/s | -56.2°C | 5.2% | 0hPa | 2.7V | 00:00:00 | 01:34:14 | 00:00:00 | |
| OE5DXL-15 | 2026-09-05 03:20:17 | 47.25600 | 12.48590 | 105° | 53km/h | 17111m | 7.3m/s | -56.1°C | 5.1% | 0hPa | 2.7V | 00:00:00 | 00:00:00 | 00:00:00 | |
| NBG1-10 | 2026-09-05 03:20:16 | 47.25603 | 12.48573 | 103° | 55km/h | 17104m | 7.0m/s | -56.0°C | 5.1% | 0hPa | 2.7V | 00:00:00 | 01:34:12 | 00:00:00 | |
| BAUMI2-15 | 2026-09-05 03:20:14 | 47.25609 | 12.48539 | 108° | 51km/h | 17090m | 7.5m/s | -56.0°C | 5.1% | 0hPa | 2.7V | 00:00:00 | 01:34:10 | 00:00:00 | |
| DO3MHA-12 | 2026-09-05 03:20:13 | 47.25613 | 12.48521 | 111° | 47km/h | 17083m | 6.4m/s | -56.1°C | 5.2% | 0hPa | 2.7V | 00:00:00 | 01:34:09 | 00:00:00 | |
| DB0UT-7 | 2026-09-05 03:20:11 | 47.25621 | 12.48485 | 105° | 57km/h | 17070m | 8.9m/s | -56.0°C | 5.1% | 0hPa | 2.7V | 00:00:00 | 00:00:00 | 00:00:00 | |
| OE5MMP-10 | 2026-09-05 03:20:10 | 47.25623 | 12.48467 | 100° | 47km/h | 17062m | 6.8m/s | -55.9°C | 5.0% | 0hPa | 2.7V | 00:00:00 | 01:34:06 | 00:00:00 | |
| BAUMI2-15 | 2026-09-05 03:20:09 | 47.25625 | 12.48449 | 98° | 44km/h | 17055m | 6.3m/s | -55.8°C | 4.9% | 0hPa | 2.7V | 00:00:00 | 01:34:05 | 00:00:00 | |
| DO3MHA-11 | 2026-09-05 03:20:08 | 47.25627 | 12.48433 | 101° | 49km/h | 17049m | 6.3m/s | -55.8°C | 5.0% | 0hPa | 2.7V | 00:00:00 | 01:34:04 | 00:00:00 | |
| BAUMI2-15 | 2026-09-05 03:20:04 | 47.25638 | 12.48370 | 108° | 51km/h | 17026m | 4.3m/s | -56.1°C | 5.1% | 0hPa | 2.7V | 00:00:00 | 01:34:00 | 00:00:00 | |
| DO3MHA-12 | 2026-09-05 03:20:03 | 47.25642 | 12.48353 | 112° | 57km/h | 17021m | 5.8m/s | -56.2°C | 5.1% | 0hPa | 2.7V | 00:00:00 | 01:33:59 | 08:30:00 | |
| OE5WHR-10 | 2026-09-05 03:20:02 | 47.25646 | 12.48336 | 113° | 62km/h | 17014m | 6.4m/s | -56.2°C | 5.1% | 0hPa | 2.7V | 00:00:00 | 00:00:00 | 00:00:00 | |
| IN3HCDX | 2026-09-05 03:20:01 | 47.25646 | 12.48336 | 113° | 49km/h | 17014m | 6.4m/s | -56.3°C | 2.0% | 0hPa | 2.5V | 00:00:00 | 00:00:00 | 00:00:00 | |
| OE5MMP-10 | 2026-09-05 03:20:00 | 47.25656 | 12.48300 | 110° | 58km/h | 17002m | 6.9m/s | -56.4°C | 5.1% | 0hPa | 2.5V | 00:00:00 | 01:33:56 | 00:00:00 | |
| BAUMI2-15 | 2026-09-05 03:19:59 | 47.25660 | 12.48280 | 111° | 60km/h | 16995m | 5.2m/s | -56.5°C | 5.2% | 0hPa | 2.5V | 00:00:00 | 01:33:55 | 00:00:00 | |
| DO3MHA-11 | 2026-09-05 03:19:58 | 47.25666 | 12.48260 | 113° | 60km/h | 16990m | 6.6m/s | -56.6°C | 5.2% | 0hPa | 2.5V | 00:00:00 | 01:33:54 | 00:00:00 | |
| BAUMI2-15 | 2026-09-05 03:19:54 | 47.25690 | 12.48178 | 112° | 60km/h | 16967m | 4.6m/s | -56.6°C | 5.3% | 0hPa | 2.7V | 00:00:00 | 01:33:50 | 00:00:00 | |
| DO3MHA-12 | 2026-09-05 03:19:53 | 47.25695 | 12.48157 | 111° | 64km/h | 16962m | 4.6m/s | -56.7°C | 5.3% | 0hPa | 2.7V | 00:00:00 | 01:33:49 | 00:00:00 | |
| OE5DRO-10 | 2026-09-05 03:19:52 | 47.25701 | 12.48136 | 114° | 68km/h | 16958m | 5.0m/s | -56.7°C | 5.3% | 0hPa | 2.7V | 00:00:00 | 00:00:00 | 00:00:00 | |
| OM5KV | 2026-09-05 03:19:51 | 47.25701 | 12.48136 | 114° | 58km/h | 16958m | 5.0m/s | -56.8°C | 2.1% | 0hPa | 2.7V | 00:00:00 | 00:00:00 | 00:00:00 | |
| OE5MMP-10 | 2026-09-05 03:19:50 | 47.25714 | 12.48096 | 116° | 66km/h | 16949m | 4.7m/s | -56.9°C | 5.3% | 0hPa | 2.7V | 00:00:00 | 01:33:46 | 00:00:00 | |
| OE5HKT-10 | 2026-09-05 03:19:49 | 47.25720 | 12.48076 | 115° | 69km/h | 16944m | 4.7m/s | -57.0°C | 5.4% | 0hPa | 2.5V | 00:00:00 | 00:00:00 | 00:00:00 | |
| DO3MHA-11 | 2026-09-05 03:19:48 | 47.25727 | 12.48054 | 116° | 68km/h | 16939m | 4.3m/s | -57.1°C | 5.5% | 0hPa | 2.5V | 00:00:00 | 01:33:44 | 00:00:00 | |
| OE5DXL-15 | 2026-09-05 03:19:47 | 47.25734 | 12.48032 | 117° | 71km/h | 16934m | 4.6m/s | -57.2°C | 5.4% | 0hPa | 2.5V | 00:00:00 | 00:00:00 | 00:00:00 | |
| BAUMI2-15 | 2026-09-05 03:19:44 | 47.25757 | 12.47966 | 117° | 69km/h | 16921m | 4.5m/s | -57.2°C | 5.5% | 0hPa | 2.5V | 00:00:00 | 01:33:40 | 00:00:00 | |
| DO3MHA-12 | 2026-09-05 03:19:43 | 47.25765 | 12.47943 | 118° | 69km/h | 16916m | 4.1m/s | -57.1°C | 5.5% | 0hPa | 2.5V | 00:00:00 | 01:33:39 | 00:00:00 | |
| OE3JTB-15 | 2026-09-05 03:19:42 | 47.25773 | 12.47920 | 119° | 71km/h | 16912m | 5.0m/s | -57.2°C | 5.4% | 0hPa | 2.5V | 00:00:00 | 00:00:00 | 00:00:00 | |
| DB0UT-7 | 2026-09-05 03:19:41 | 47.25782 | 12.47898 | 120° | 71km/h | 16907m | 4.6m/s | -57.2°C | 5.5% | 0hPa | 2.5V | 00:00:00 | 01:33:37 | 00:00:00 | |
| OE5MMP-10 | 2026-09-05 03:19:40 | 47.25790 | 12.47875 | 119° | 69km/h | 16902m | 5.2m/s | -57.3°C | 5.5% | 0hPa | 2.5V | 00:00:00 | 01:33:36 | 00:00:00 | |
| BAUMI2-15 | 2026-09-05 03:19:39 | 47.25799 | 12.47852 | 118° | 69km/h | 16898m | 3.4m/s | -57.4°C | 5.6% | 0hPa | 2.5V | 00:00:00 | 01:33:35 | 00:00:00 | |
| DO3MHA-11 | 2026-09-05 03:19:38 | 47.25807 | 12.47829 | 120° | 69km/h | 16893m | 4.7m/s | -57.5°C | 5.7% | 0hPa | 2.5V | 00:00:00 | 01:33:34 | 00:00:00 | |
| DG1MFX-10 | 2026-09-05 03:19:35 | 47.25825 | 12.47784 | 121° | 69km/h | 16885m | 3.5m/s | -57.7°C | 2.4% | 0hPa | 2.5V | 00:00:00 | 00:00:00 | 00:00:00 | |
| BAUMI2-15 | 2026-09-05 03:19:34 | 47.25841 | 12.47739 | 117° | 69km/h | 16877m | 4.3m/s | -57.7°C | 5.7% | 0hPa | 2.5V | 00:00:00 | 01:33:30 | 00:00:00 | |
| DO3MHA-12 | 2026-09-05 03:19:33 | 47.25849 | 12.47717 | 118° | 69km/h | 16872m | 5.3m/s | -57.7°C | 5.7% | 0hPa | 2.5V | 00:00:00 | 01:33:29 | 00:00:00 | |
| DL6DJ-15 | 2026-09-05 03:19:31 | 47.25866 | 12.47672 | 118° | 68km/h | 16863m | 4.7m/s | -57.7°C | 2.2% | -1.0hPa | 2.5V | 00:00:00 | 00:00:00 | 00:00:00 | |
| OE5MMP-10 | 2026-09-05 03:19:30 | 47.25874 | 12.47650 | 119° | 71km/h | 16858m | 4.5m/s | -57.6°C | 5.7% | 0hPa | 2.5V | 00:00:00 | 01:33:26 | 00:00:00 | |
| BAUMI2-15 | 2026-09-05 03:19:29 | 47.25882 | 12.47627 | 121° | 71km/h | 16854m | 4.2m/s | -57.7°C | 5.7% | 0hPa | 2.5V | 00:00:00 | 01:33:25 | 00:00:00 | |
| OE5HKT-10 | 2026-09-05 03:19:27 | 47.25901 | 12.47582 | 124° | 75km/h | 16845m | 3.9m/s | -57.7°C | 5.7% | 0hPa | 2.5V | 00:00:00 | 01:33:23 | 00:00:00 | |
| BAUMI2-15 | 2026-09-05 03:19:24 | 47.25930 | 12.47515 | 121° | 75km/h | 16831m | 3.9m/s | -57.9°C | 5.8% | 0hPa | 2.5V | 00:00:00 | 01:33:20 | 00:00:00 | |
| DO3MHA-12 | 2026-09-05 03:19:23 | 47.25940 | 12.47492 | 122° | 75km/h | 16827m | 5.4m/s | -58.0°C | 5.9% | 0hPa | 2.5V | 00:00:00 | 01:33:19 | 00:00:00 | |
| OE5WHR-10 | 2026-09-05 03:19:20 | 47.25968 | 12.47421 | 120° | 77km/h | 16813m | 4.1m/s | -58.3°C | 6.1% | 0hPa | 2.5V | 00:00:00 | 01:33:16 | 00:00:00 | |
| BAUMI2-15 | 2026-09-05 03:19:19 | 47.25978 | 12.47395 | 120° | 77km/h | 16809m | 4.3m/s | -58.5°C | 6.1% | 0hPa | 2.5V | 00:00:00 | 01:33:15 | 00:00:00 | |
| DO3MHA-11 | 2026-09-05 03:19:18 | 47.25988 | 12.47371 | 122° | 75km/h | 16804m | 4.2m/s | -58.6°C | 6.2% | 0hPa | 2.7V | 00:00:00 | 01:33:14 | 00:00:00 | |
| OE5DXL-15 | 2026-09-05 03:19:17 | 47.25997 | 12.47347 | 122° | 78km/h | 16800m | 3.7m/s | -58.7°C | 6.3% | 0hPa | 2.7V | 00:00:00 | 00:00:00 | 08:30:00 | |
| DG1MFX-10 | 2026-09-05 03:19:15 | 47.26007 | 12.47323 | 121° | 75km/h | 16796m | 5.3m/s | -58.8°C | 2.6% | 0hPa | 2.5V | 00:00:00 | 00:00:00 | 00:00:00 | |
| BAUMI2-15 | 2026-09-05 03:19:14 | 47.26026 | 12.47275 | 121° | 75km/h | 16787m | 4.8m/s | -58.8°C | 6.3% | 0hPa | 2.5V | 00:00:00 | 01:33:10 | 00:00:00 | |
| DO3MHA-12 | 2026-09-05 03:19:13 | 47.26036 | 12.47251 | 122° | 75km/h | 16782m | 3.7m/s | -58.9°C | 6.4% | 0hPa | 2.5V | 00:00:00 | 01:33:09 | 00:00:00 | |
| S52SK | 2026-09-05 03:19:12 | 47.26036 | 12.47251 | 123° | 75km/h | 16782m | 3.8m/s | -58.9°C | 0% | 0hPa | 2.5V | 00:00:00 | 00:00:00 | 00:00:00 | |
| DB0UT-7 | 2026-09-05 03:19:11 | 47.26055 | 12.47202 | 119° | 80km/h | 16774m | 3.8m/s | -58.9°C | 6.4% | 0hPa | 2.5V | 00:00:00 | 00:00:00 | 00:00:00 | |
| OE5MMP-10 | 2026-09-05 03:19:10 | 47.26064 | 12.47177 | 118° | 77km/h | 16769m | 4.2m/s | -58.9°C | 6.4% | 0hPa | 2.5V | 00:00:00 | 01:33:06 | 00:00:00 | |
| BAUMI2-15 | 2026-09-05 03:19:09 | 47.26073 | 12.47153 | 121° | 75km/h | 16766m | 4.1m/s | -58.9°C | 6.4% | 0hPa | 2.5V | 00:00:00 | 01:33:05 | 00:00:00 | |
| DO3MHA-11 | 2026-09-05 03:19:08 | 47.26083 | 12.47129 | 120° | 78km/h | 16762m | 3.1m/s | -59.0°C | 6.4% | 0hPa | 2.5V | 00:00:00 | 01:33:04 | 00:00:00 | |
| S52SK | 2026-09-05 03:19:07 | 47.26082 | 12.47129 | 121° | 75km/h | 16762m | 3.2m/s | -59.0°C | 0% | 0hPa | 2.5V | 00:00:00 | 00:00:00 | 00:00:00 | |
| OE5HKT-10 | 2026-09-05 03:19:06 | 47.26101 | 12.47081 | 118° | 80km/h | 16754m | 3.8m/s | -58.9°C | 6.4% | 0hPa | 2.5V | 00:00:00 | 00:00:00 | 00:00:00 | |
| BAUMI2-15 | 2026-09-05 03:19:04 | 47.26119 | 12.47032 | 120° | 82km/h | 16746m | 4.4m/s | -58.9°C | 6.4% | 0hPa | 2.7V | 00:00:00 | 01:33:00 | 08:30:00 | |
| OM5KV | 2026-09-05 03:19:01 | 47.26138 | 12.46979 | 119° | 82km/h | 16738m | 5.0m/s | -58.9°C | 2.7% | 0hPa | 2.7V | 00:00:00 | 00:00:00 | 00:00:00 | |
| OE5MMP-10 | 2026-09-05 03:19:00 | 47.26158 | 12.46923 | 117° | 82km/h | 16730m | 3.7m/s | -58.8°C | 6.3% | 0hPa | 2.7V | 00:00:00 | 01:32:56 | 00:00:00 | |
| OE5WHR-10 | 2026-09-05 03:18:59 | 47.26167 | 12.46895 | 118° | 80km/h | 16726m | 4.2m/s | -58.8°C | 6.3% | 0hPa | 2.7V | 00:00:00 | 00:00:00 | 08:30:00 | |
| DO3MHA-11 | 2026-09-05 03:18:58 | 47.26177 | 12.46868 | 117° | 82km/h | 16722m | 3.7m/s | -58.8°C | 6.4% | 0hPa | 2.7V | 00:00:00 | 01:32:54 | 08:30:00 | |
| OE5DRO-10 | 2026-09-05 03:18:55 | 47.26203 | 12.46784 | 115° | 80km/h | 16710m | 4.3m/s | -58.9°C | 6.5% | 0hPa | 2.5V | 00:00:00 | 00:00:00 | 00:00:00 | |
| BAUMI2-15 | 2026-09-05 03:18:54 | 47.26211 | 12.46757 | 116° | 80km/h | 16706m | 3.6m/s | -58.9°C | 6.5% | 0hPa | 2.5V | 00:00:00 | 01:32:50 | 00:00:00 | |
| DO3MHA-12 | 2026-09-05 03:18:53 | 47.26220 | 12.46730 | 116° | 80km/h | 16702m | 3.5m/s | -58.9°C | 6.6% | 0hPa | 2.5V | 00:00:00 | 01:32:49 | 00:00:00 | |
| OE5MMP-10 | 2026-09-05 03:18:50 | 47.26247 | 12.46649 | 118° | 80km/h | 16691m | 4.9m/s | -59.0°C | 6.6% | 0hPa | 2.5V | 00:00:00 | 01:32:46 | 00:00:00 | |
| BAUMI2-15 | 2026-09-05 03:18:49 | 47.26256 | 12.46623 | 119° | 80km/h | 16686m | 3.2m/s | -59.0°C | 6.7% | 0hPa | 2.5V | 00:00:00 | 01:32:45 | 00:00:00 | |
| DO3MHA-11 | 2026-09-05 03:18:48 | 47.26266 | 12.46597 | 120° | 78km/h | 16683m | 3.9m/s | -59.1°C | 6.6% | 0hPa | 2.5V | 00:00:00 | 01:32:44 | 00:00:00 | |
| OE5DXL-15 | 2026-09-05 03:18:47 | 47.26276 | 12.46571 | 118° | 80km/h | 16679m | 3.7m/s | -59.1°C | 6.6% | 0hPa | 2.5V | 00:00:00 | 00:00:00 | 00:00:00 | |
| OE5HKT-10 | 2026-09-05 03:18:45 | 47.26295 | 12.46519 | 120° | 78km/h | 16672m | 4.3m/s | -59.1°C | 6.6% | 0hPa | 2.5V | 00:00:00 | 00:00:00 | 00:00:00 | |
| BAUMI2-15 | 2026-09-05 03:18:44 | 47.26305 | 12.46493 | 120° | 77km/h | 16668m | 2.8m/s | -59.0°C | 6.7% | 0hPa | 2.5V | 00:00:00 | 01:32:40 | 00:00:00 | |
| DO3MHA-12 | 2026-09-05 03:18:43 | 47.26314 | 12.46468 | 119° | 80km/h | 16664m | 4.0m/s | -59.1°C | 6.7% | 0hPa | 2.5V | 00:00:00 | 01:32:39 | 00:00:00 | |
| OM5KV | 2026-09-05 03:18:42 | 47.26314 | 12.46467 | 119° | 78km/h | 16664m | 4.0m/s | -59.1°C | 3.0% | 0hPa | 2.5V | 00:00:00 | 00:00:00 | 00:00:00 | |
| DB0UT-7 | 2026-09-05 03:18:41 | 47.26332 | 12.46415 | 114° | 80km/h | 16656m | 3.1m/s | -59.1°C | 6.8% | 0hPa | 2.5V | 00:00:00 | 01:32:37 | 00:00:00 | |
| PG1ADW-2 | 2026-09-05 03:18:40 | 47.26340 | 12.46388 | 115° | 80km/h | 16653m | 4.3m/s | -59.1°C | 6.7% | 0hPa | 2.5V | 00:00:00 | 00:00:00 | 00:00:00 | |
| IN3HCDX | 2026-09-05 03:18:39 | 47.26340 | 12.46388 | 116° | 80km/h | 16653m | 4.3m/s | -59.1°C | 2.9% | 0hPa | 2.7V | 00:00:00 | 00:00:00 | 00:00:00 | |
| OE5WHR-10 | 2026-09-05 03:18:38 | 47.26356 | 12.46334 | 114° | 80km/h | 16645m | 3.1m/s | -59.2°C | 6.8% | 0hPa | 2.7V | 00:00:00 | 00:00:00 | 00:00:00 | |
| NBG1-10 | 2026-09-05 03:18:37 | 47.26364 | 12.46306 | 113° | 84km/h | 16642m | 3.8m/s | -59.2°C | 6.8% | 0hPa | 2.7V | 00:00:00 | 01:32:33 | 00:00:00 | |
| OE5DRO-10 | 2026-09-05 03:18:36 | 47.26372 | 12.46278 | 113° | 80km/h | 16638m | 3.1m/s | -59.2°C | 6.8% | 0hPa | 2.7V | 00:00:00 | 00:00:00 | 00:00:00 | |
| DG1MFX-10 | 2026-09-05 03:18:35 | 47.26373 | 12.46278 | 114° | 82km/h | 16638m | 3.2m/s | -59.2°C | 3.1% | 0hPa | 2.7V | 00:00:00 | 00:00:00 | 00:00:00 | |
| DO3MHA-12 | 2026-09-05 03:18:33 | 47.26396 | 12.46197 | 113° | 78km/h | 16628m | 3.5m/s | -59.2°C | 6.7% | 0hPa | 2.7V | 00:00:00 | 01:32:29 | 08:30:00 | |
| OE5MMP-10 | 2026-09-05 03:18:30 | 47.26418 | 12.46115 | 111° | 80km/h | 16617m | 3.7m/s | -59.2°C | 6.6% | 0hPa | 2.5V | 00:00:00 | 01:32:26 | 00:00:00 | |
| DL6DJ-15 | 2026-09-05 03:18:29 | 47.26425 | 12.46089 | 111° | 77km/h | 16614m | 2.4m/s | -59.2°C | 2.8% | -1.0hPa | 2.5V | 00:00:00 | 00:00:00 | 00:00:00 | |
| DO3MHA-11 | 2026-09-05 03:18:28 | 47.26432 | 12.46061 | 110° | 80km/h | 16611m | 3.4m/s | -59.1°C | 6.7% | 0hPa | 2.5V | 00:00:00 | 01:32:24 | 00:00:00 | |
| OE5HKT-10 | 2026-09-05 03:18:24 | 47.26456 | 12.45947 | 109° | 88km/h | 16596m | 3.2m/s | -59.2°C | 6.7% | 0hPa | 2.5V | 00:00:00 | 01:32:20 | 00:00:00 | |
| DO3MHA-12 | 2026-09-05 03:18:23 | 47.26462 | 12.45919 | 109° | 82km/h | 16593m | 2.9m/s | -59.2°C | 6.7% | 0hPa | 2.5V | 00:00:00 | 01:32:19 | 00:00:00 | |
| PG1ADW-2 | 2026-09-05 03:18:20 | 47.26481 | 12.45832 | 108° | 88km/h | 16582m | 3.6m/s | -59.3°C | 6.7% | 0hPa | 2.5V | 00:00:00 | 00:00:00 | 00:00:00 | |
| OM5KV | 2026-09-05 03:18:19 | 47.26481 | 12.45832 | 108° | 80km/h | 16582m | 3.7m/s | -59.3°C | 3.0% | 0hPa | 2.5V | 00:00:00 | 00:00:00 | 00:00:00 | |
| DO3MHA-11 | 2026-09-05 03:18:18 | 47.26494 | 12.45774 | 108° | 86km/h | 16575m | 3.5m/s | -59.4°C | 6.9% | 0hPa | 2.5V | 00:00:00 | 01:32:14 | 00:00:00 | |
| OE5WHR-10 | 2026-09-05 03:18:17 | 47.26500 | 12.45745 | 106° | 82km/h | 16572m | 3.4m/s | -59.5°C | 7.0% | 0hPa | 2.5V | 00:00:00 | 01:32:13 | 00:00:00 | |
| OE3JTB-15 | 2026-09-05 03:18:15 | 47.26511 | 12.45686 | 107° | 86km/h | 16565m | 4.0m/s | -59.7°C | 7.1% | 0hPa | 2.5V | 00:00:00 | 00:00:00 | 00:00:00 | |
| DG1MFX-10 | 2026-09-05 03:18:14 | 47.26511 | 12.45686 | 108° | 84km/h | 16565m | 4.0m/s | -59.8°C | 3.2% | 0hPa | 2.5V | 00:00:00 | 00:00:00 | 00:00:00 | |
| DO3MHA-12 | 2026-09-05 03:18:13 | 47.26524 | 12.45626 | 107° | 89km/h | 16558m | 3.6m/s | -59.8°C | 7.2% | 0hPa | 2.5V | 00:00:00 | 01:32:09 | 00:00:00 | |
| DB0UT-7 | 2026-09-05 03:18:11 | 47.26535 | 12.45563 | 105° | 84km/h | 16551m | 2.7m/s | -60.0°C | 7.3% | 0hPa | 2.5V | 00:00:00 | 00:00:00 | 00:00:00 | |
| OE5MMP-10 | 2026-09-05 03:18:10 | 47.26541 | 12.45530 | 107° | 89km/h | 16548m | 4.1m/s | -60.2°C | 7.5% | 0hPa | 2.5V | 00:00:00 | 01:32:06 | 00:00:00 | |
| OM5KV | 2026-09-05 03:18:09 | 47.26542 | 12.45530 | 107° | 91km/h | 16548m | 4.2m/s | -60.2°C | 3.4% | 0hPa | 2.5V | 00:00:00 | 00:00:00 | 00:00:00 | |
| DO3MHA-11 | 2026-09-05 03:18:08 | 47.26554 | 12.45465 | 106° | 88km/h | 16541m | 3.9m/s | -60.3°C | 7.6% | 0hPa | 2.5V | 00:00:00 | 01:32:04 | 00:00:00 | |
| NBG1-10 | 2026-09-05 03:18:04 | 47.26580 | 12.45338 | 107° | 80km/h | 16527m | 4.1m/s | -60.2°C | 7.5% | 0hPa | 2.5V | 00:00:00 | 01:32:00 | 08:30:00 | |
| DO3MHA-12 | 2026-09-05 03:18:03 | 47.26587 | 12.45307 | 107° | 86km/h | 16524m | 2.9m/s | -60.2°C | 7.4% | 0hPa | 2.7V | 00:00:00 | 01:31:59 | 00:00:00 | |
| OE5MMP-10 | 2026-09-05 03:18:00 | 47.26606 | 12.45214 | 105° | 82km/h | 16513m | 3.9m/s | -60.1°C | 7.3% | 0hPa | 2.5V | 00:00:00 | 01:31:56 | 00:00:00 | |
| DO3MHA-11 | 2026-09-05 03:17:58 | 47.26617 | 12.45152 | 105° | 82km/h | 16506m | 3.8m/s | -60.0°C | 7.3% | 0hPa | 2.5V | 00:00:00 | 01:31:54 | 00:00:00 | |
| IN3HCDX | 2026-09-05 03:17:57 | 47.26617 | 12.45152 | 105° | 86km/h | 16506m | 3.8m/s | -60.1°C | 3.4% | 0hPa | 2.7V | 00:00:00 | 00:00:00 | 00:00:00 | |
| DG1MFX-10 | 2026-09-05 03:17:54 | 47.26632 | 12.45061 | 104° | 82km/h | 16495m | 3.1m/s | -60.0°C | 3.3% | 0hPa | 2.7V | 00:00:00 | 00:00:00 | 00:00:00 | |
| DO3MHA-12 | 2026-09-05 03:17:53 | 47.26641 | 12.45003 | 106° | 80km/h | 16488m | 3.7m/s | -59.9°C | 7.3% | 0hPa | 2.7V | 00:00:00 | 01:31:49 | 00:00:00 | |
| OM5KV | 2026-09-05 03:17:51 | 47.26646 | 12.44974 | 106° | 80km/h | 16485m | 2.3m/s | -60.0°C | 3.4% | 0hPa | 2.7V | 00:00:00 | 00:00:00 | 00:00:00 | |
| OE5MMP-10 | 2026-09-05 03:17:50 | 47.26656 | 12.44917 | 103° | 78km/h | 16478m | 3.0m/s | -59.9°C | 7.2% | 0hPa | 2.7V | 00:00:00 | 01:31:46 | 08:30:00 | |
| DO3MHA-11 | 2026-09-05 03:17:48 | 47.26666 | 12.44859 | 105° | 78km/h | 16471m | 4.2m/s | -60.0°C | 7.2% | 0hPa | 2.5V | 00:00:00 | 01:31:44 | 00:00:00 | |
| OE5DXL-15 | 2026-09-05 03:17:47 | 47.26671 | 12.44830 | 106° | 75km/h | 16467m | 2.9m/s | -60.1°C | 7.3% | 0hPa | 2.5V | 00:00:00 | 00:00:00 | 00:00:00 | |
| OE3JTB-15 | 2026-09-05 03:17:46 | 47.26676 | 12.44801 | 105° | 75km/h | 16464m | 3.5m/s | -60.1°C | 7.3% | 0hPa | 2.5V | 00:00:00 | 01:31:42 | 00:00:00 | |
| OM5KV | 2026-09-05 03:17:45 | 47.26676 | 12.44801 | 105° | 80km/h | 16464m | 3.6m/s | -60.2°C | 3.4% | 0hPa | 2.5V | 00:00:00 | 00:00:00 | 00:00:00 | |
| DO3MHA-12 | 2026-09-05 03:17:43 | 47.26690 | 12.44715 | 105° | 78km/h | 16453m | 4.0m/s | -60.2°C | 7.4% | 0hPa | 2.5V | 00:00:00 | 01:31:39 | 00:00:00 | |
| DB0UT-7 | 2026-09-05 03:17:41 | 47.26699 | 12.44659 | 103° | 73km/h | 16446m | 4.0m/s | -60.2°C | 7.4% | 0hPa | 2.5V | 00:00:00 | 01:31:37 | 08:30:00 | |
| PG1ADW-2 | 2026-09-05 03:17:40 | 47.26703 | 12.44631 | 103° | 75km/h | 16442m | 2.9m/s | -60.2°C | 7.4% | 0hPa | 2.7V | 00:00:00 | 01:31:36 | 00:00:00 | |
| OE5DRO-10 | 2026-09-05 03:17:39 | 47.26708 | 12.44602 | 104° | 75km/h | 16440m | 2.8m/s | -60.2°C | 7.4% | 0hPa | 2.7V | 00:00:00 | 00:00:00 | 00:00:00 | |
| DO3MHA-11 | 2026-09-05 03:17:38 | 47.26712 | 12.44574 | 105° | 77km/h | 16436m | 3.9m/s | -60.3°C | 7.4% | 0hPa | 2.7V | 00:00:00 | 01:31:34 | 00:00:00 | |
| OE5HKT-10 | 2026-09-05 03:17:36 | 47.26723 | 12.44519 | 106° | 77km/h | 16429m | 3.5m/s | -60.6°C | 7.7% | 0hPa | 2.7V | 00:00:00 | 00:00:00 | 00:00:00 | |
| S52SK | 2026-09-05 03:17:35 | 47.26723 | 12.44519 | 107° | 77km/h | 16429m | 3.6m/s | -60.7°C | 0% | 0hPa | 2.7V | 00:00:00 | 00:00:00 | 00:00:00 | |
| DO3MHA-12 | 2026-09-05 03:17:33 | 47.26737 | 12.44435 | 104° | 73km/h | 16418m | 4.6m/s | -60.8°C | 7.7% | 0hPa | 2.7V | 00:00:00 | 01:31:29 | 00:00:00 | |
| NBG1-10 | 2026-09-05 03:17:31 | 47.26746 | 12.44381 | 103° | 69km/h | 16410m | 4.5m/s | -60.8°C | 7.8% | 0hPa | 2.5V | 00:00:00 | 01:31:27 | 00:00:00 | |
| OE5MMP-10 | 2026-09-05 03:17:30 | 47.26750 | 12.44354 | 102° | 73km/h | 16406m | 3.1m/s | -60.8°C | 7.8% | 0hPa | 2.5V | 00:00:00 | 01:31:26 | 00:00:00 | |
| DO3MHA-11 | 2026-09-05 03:17:28 | 47.26758 | 12.44301 | 103° | 71km/h | 16397m | 3.6m/s | -60.8°C | 7.8% | 0hPa | 2.5V | 00:00:00 | 01:31:24 | 08:30:00 | |
| DL6DJ-15 | 2026-09-05 03:17:27 | 47.26762 | 12.44274 | 101° | 71km/h | 16393m | 4.6m/s | -60.9°C | 3.4% | -1.0hPa | 2.5V | 00:00:00 | 00:00:00 | 00:00:00 | |
| DO3MHA-12 | 2026-09-05 03:17:23 | 47.26777 | 12.44169 | 105° | 68km/h | 16378m | 3.4m/s | -60.9°C | 7.7% | 0hPa | 2.5V | 00:00:00 | 01:31:19 | 00:00:00 | |
| OM5KV | 2026-09-05 03:17:22 | 47.26777 | 12.44169 | 106° | 71km/h | 16378m | 3.4m/s | -61.0°C | 3.6% | 0hPa | 2.5V | 00:00:00 | 00:00:00 | 00:00:00 | |
| PG1ADW-2 | 2026-09-05 03:17:20 | 47.26790 | 12.44092 | 105° | 68km/h | 16365m | 4.8m/s | -61.0°C | 7.8% | 0hPa | 2.5V | 00:00:00 | 00:00:00 | 00:00:00 | |
| DO3MHA-11 | 2026-09-05 03:17:18 | 47.26799 | 12.44043 | 104° | 68km/h | 16357m | 3.5m/s | -61.2°C | 7.9% | 0hPa | 2.5V | 00:00:00 | 01:31:14 | 00:00:00 | |
| OE5DXL-15 | 2026-09-05 03:17:17 | 47.26802 | 12.44019 | 102° | 68km/h | 16353m | 4.8m/s | -61.2°C | 7.8% | 0hPa | 2.5V | 00:00:00 | 00:00:00 | 00:00:00 | |
| IN3HCDX | 2026-09-05 03:17:14 | 47.26808 | 12.43970 | 102° | 66km/h | 16345m | 4.1m/s | -61.3°C | 3.6% | 0hPa | 2.5V | 00:00:00 | 00:00:00 | 00:00:00 | |
| DB0NH | 2026-09-05 03:17:13 | 47.26817 | 12.43923 | 108° | 68km/h | 16337m | 3.5m/s | -61.4°C | 8.0% | 0hPa | 2.5V | 00:00:00 | 01:31:09 | 00:00:00 | |
| DB0UT-7 | 2026-09-05 03:17:11 | 47.26828 | 12.43876 | 109° | 68km/h | 16329m | 4.4m/s | -61.5°C | 8.0% | 0hPa | 2.7V | 00:00:00 | 00:00:00 | 00:00:00 | |
| OE5MMP-10 | 2026-09-05 03:17:10 | 47.26834 | 12.43852 | 110° | 68km/h | 16325m | 3.4m/s | -61.6°C | 8.0% | 0hPa | 2.7V | 00:00:00 | 01:31:06 | 00:00:00 | |
| DO3MHA-11 | 2026-09-05 03:17:08 | 47.26846 | 12.43804 | 112° | 68km/h | 16317m | 3.0m/s | -61.6°C | 8.0% | 0hPa | 2.7V | 00:00:00 | 01:31:04 | 00:00:00 | |
| OM5KV | 2026-09-05 03:17:05 | 47.26858 | 12.43756 | 110° | 69km/h | 16309m | 3.9m/s | -61.7°C | 3.7% | 0hPa | 2.7V | 00:00:00 | 00:00:00 | 00:00:00 | |
| DO3MHA-12 | 2026-09-05 03:17:03 | 47.26874 | 12.43684 | 107° | 66km/h | 16297m | 4.0m/s | -61.8°C | 8.1% | 0hPa | 2.7V | 00:00:00 | 01:30:59 | 08:30:00 | |
| DL6DJ-15 | 2026-09-05 03:16:56 | 47.26901 | 12.43519 | 105° | 66km/h | 16267m | 4.6m/s | -61.9°C | 3.5% | -1.0hPa | 2.5V | 00:00:00 | 00:00:00 | 00:00:00 | |
| OM5KV | 2026-09-05 03:16:54 | 47.26906 | 12.43495 | 107° | 66km/h | 16263m | 3.8m/s | -61.9°C | 3.8% | 0hPa | 2.5V | 00:00:00 | 00:00:00 | 00:00:00 | |
| DO3MHA-12 | 2026-09-05 03:16:53 | 47.26916 | 12.43447 | 106° | 66km/h | 16256m | 4.1m/s | -61.8°C | 8.2% | 0hPa | 2.5V | 00:00:00 | 01:30:49 | 00:00:00 | |
| OE5MMP-10 | 2026-09-05 03:16:50 | 47.26927 | 12.43373 | 103° | 68km/h | 16242m | 4.5m/s | -61.8°C | 8.2% | 0hPa | 2.5V | 00:00:00 | 01:30:46 | 00:00:00 | |
| DO3MHA-11 | 2026-09-05 03:16:48 | 47.26934 | 12.43325 | 100° | 68km/h | 16233m | 4.7m/s | -62.0°C | 8.4% | 0hPa | 2.5V | 00:00:00 | 01:30:44 | 00:00:00 | |
| OE5DXL-15 | 2026-09-05 03:16:47 | 47.26936 | 12.43302 | 100° | 68km/h | 16229m | 3.9m/s | -61.9°C | 8.4% | 0hPa | 2.5V | 00:00:00 | 00:00:00 | 00:00:00 | |
| DO3MHA-12 | 2026-09-05 03:16:43 | 47.26951 | 12.43206 | 103° | 68km/h | 16212m | 4.2m/s | -61.8°C | 8.3% | 0hPa | 2.5V | 00:00:00 | 01:30:39 | 00:00:00 | |
| OE5DRO-10 | 2026-09-05 03:16:42 | 47.26955 | 12.43180 | 103° | 68km/h | 16208m | 3.5m/s | -61.7°C | 8.3% | 0hPa | 2.5V | 00:00:00 | 00:00:00 | 00:00:00 | |
| DB0UT-7 | 2026-09-05 03:16:41 | 47.26959 | 12.43155 | 105° | 69km/h | 16203m | 4.8m/s | -61.7°C | 8.2% | 0hPa | 2.5V | 00:00:00 | 01:30:37 | 00:00:00 | |
| OE5MMP-10 | 2026-09-05 03:16:40 | 47.26964 | 12.43130 | 107° | 68km/h | 16199m | 4.1m/s | -61.7°C | 8.2% | 0hPa | 2.5V | 00:00:00 | 01:30:36 | 00:00:00 | |
| BAUMI2-15 | 2026-09-05 03:16:39 | 47.26968 | 12.43105 | 106° | 68km/h | 16195m | 3.7m/s | -61.6°C | 8.2% | 0hPa | 2.5V | 00:00:00 | 01:30:35 | 00:00:00 | |
| DO3MHA-11 | 2026-09-05 03:16:38 | 47.26973 | 12.43080 | 104° | 68km/h | 16191m | 4.6m/s | -61.6°C | 8.2% | 0hPa | 2.5V | 00:00:00 | 01:30:34 | 00:00:00 | |
| OM5KV | 2026-09-05 03:16:37 | 47.26973 | 12.43080 | 104° | 69km/h | 16191m | 4.7m/s | -61.6°C | 3.7% | 0hPa | 2.5V | 00:00:00 | 00:00:00 | 00:00:00 | |
| BAUMI2-15 | 2026-09-05 03:16:34 | 47.26985 | 12.42984 | 100° | 68km/h | 16173m | 5.0m/s | -61.5°C | 8.2% | 0hPa | 2.5V | 00:00:00 | 01:30:30 | 00:00:00 | |
| DO3MHA-12 | 2026-09-05 03:16:33 | 47.26988 | 12.42961 | 97° | 69km/h | 16168m | 4.7m/s | -61.4°C | 8.2% | 0hPa | 2.5V | 00:00:00 | 01:30:29 | 00:00:00 | |
| DG1MFX-10 | 2026-09-05 03:16:32 | 47.26988 | 12.42961 | 98° | 66km/h | 16168m | 4.7m/s | -61.5°C | 3.8% | 0hPa | 2.5V | 00:00:00 | 00:00:00 | 00:00:00 | |
| OM5KV | 2026-09-05 03:16:31 | 47.26990 | 12.42936 | 98° | 68km/h | 16164m | 4.3m/s | -61.5°C | 3.7% | 0hPa | 2.5V | 00:00:00 | 00:00:00 | 00:00:00 | |
| OE5MMP-10 | 2026-09-05 03:16:30 | 47.26995 | 12.42886 | 101° | 69km/h | 16155m | 4.5m/s | -61.3°C | 8.1% | 0hPa | 2.5V | 00:00:00 | 01:30:26 | 00:00:00 | |
| BAUMI2-15 | 2026-09-05 03:16:29 | 47.26998 | 12.42861 | 102° | 69km/h | 16150m | 4.0m/s | -61.3°C | 8.1% | 0hPa | 2.5V | 00:00:00 | 01:30:25 | 00:00:00 | |
| DO3MHA-11 | 2026-09-05 03:16:28 | 47.27001 | 12.42835 | 100° | 69km/h | 16145m | 5.4m/s | -61.2°C | 8.1% | 0hPa | 2.5V | 00:00:00 | 01:30:24 | 00:00:00 | |
| NBG1-10 | 2026-09-05 03:16:25 | 47.27009 | 12.42757 | 98° | 69km/h | 16130m | 4.9m/s | -61.1°C | 8.0% | 0hPa | 2.7V | 00:00:00 | 01:30:21 | 00:00:00 | |
| BAUMI2-15 | 2026-09-05 03:16:24 | 47.27011 | 12.42732 | 97° | 69km/h | 16125m | 6.0m/s | -61.1°C | 8.0% | 0hPa | 2.7V | 00:00:00 | 01:30:20 | 00:00:00 | |
| DO3MHA-12 | 2026-09-05 03:16:23 | 47.27012 | 12.42706 | 96° | 69km/h | 16119m | 4.4m/s | -61.0°C | 8.0% | 0hPa | 2.7V | 00:00:00 | 01:30:19 | 00:00:00 | |
| OM5KV | 2026-09-05 03:16:21 | 47.27014 | 12.42680 | 97° | 69km/h | 16115m | 4.4m/s | -61.0°C | 0% | 0hPa | 2.7V | 00:00:00 | 00:00:00 | 00:00:00 | |
| PG1ADW-2 | 2026-09-05 03:16:20 | 47.27019 | 12.42629 | 100° | 69km/h | 16105m | 4.4m/s | -60.9°C | 7.9% | 0hPa | 2.7V | 00:00:00 | 01:30:16 | 00:00:00 | |
| BAUMI2-15 | 2026-09-05 03:16:19 | 47.27022 | 12.42603 | 100° | 69km/h | 16100m | 4.6m/s | -60.9°C | 7.9% | 0hPa | 2.7V | 00:00:00 | 01:30:15 | 08:30:00 | |
| DO3MHA-11 | 2026-09-05 03:16:18 | 47.27025 | 12.42578 | 100° | 68km/h | 16096m | 4.6m/s | -60.9°C | 7.9% | 0hPa | 2.5V | 00:00:00 | 01:30:14 | 00:00:00 | |
| OE5DXL-15 | 2026-09-05 03:16:17 | 47.27028 | 12.42552 | 100° | 69km/h | 16092m | 3.7m/s | -60.8°C | 7.9% | 0hPa | 2.5V | 00:00:00 | 00:00:00 | 00:00:00 | |
| OM5KV | 2026-09-05 03:16:15 | 47.27031 | 12.42526 | 101° | 69km/h | 16087m | 5.3m/s | 0°C | 0% | 0hPa | 2.5V | 00:00:00 | 00:00:00 | 00:00:00 | |
| OE5WHR-10 | 2026-09-05 03:16:14 | 47.27037 | 12.42476 | 99° | 68km/h | 16078m | 4.7m/s | -60.8°C | 7.8% | 0hPa | 2.5V | 00:00:00 | 00:00:00 | 00:00:00 | |
| DB0NH | 2026-09-05 03:16:13 | 47.27039 | 12.42451 | 97° | 69km/h | 16074m | 4.8m/s | -60.8°C | 7.9% | 0hPa | 2.5V | 00:00:00 | 01:30:09 | 00:00:00 | |
| DG1MFX-10 | 2026-09-05 03:16:12 | 47.27041 | 12.42426 | 97° | 68km/h | 16068m | 5.4m/s | -60.8°C | 3.7% | 0hPa | 2.5V | 00:00:00 | 00:00:00 | 00:00:00 | |
| DB0UT-7 | 2026-09-05 03:16:11 | 47.27042 | 12.42402 | 96° | 69km/h | 16063m | 4.3m/s | -60.8°C | 7.8% | 0hPa | 2.5V | 00:00:00 | 00:00:00 | 00:00:00 | |
| OE5MMP-10 | 2026-09-05 03:16:10 | 47.27044 | 12.42377 | 94° | 69km/h | 16059m | 5.0m/s | -60.7°C | 7.9% | 0hPa | 2.5V | 00:00:00 | 01:30:06 | 00:00:00 | |
| BAUMI2-15 | 2026-09-05 03:16:09 | 47.27045 | 12.42352 | 93° | 69km/h | 16054m | 4.9m/s | -60.7°C | 7.9% | 0hPa | 2.5V | 00:00:00 | 01:30:05 | 00:00:00 | |
| DO3MHA-11 | 2026-09-05 03:16:08 | 47.27045 | 12.42327 | 94° | 69km/h | 16049m | 4.7m/s | -60.6°C | 7.8% | 0hPa | 2.5V | 00:00:00 | 01:30:04 | 00:00:00 | |
| BAUMI2-15 | 2026-09-05 03:16:04 | 47.27051 | 12.42225 | 95° | 69km/h | 16030m | 4.5m/s | -60.5°C | 7.7% | 0hPa | 2.5V | 00:00:00 | 01:30:00 | 00:00:00 | |
| DL6DJ-15 | 2026-09-05 03:15:54 | 47.27061 | 12.41945 | 91° | 66km/h | 15975m | 4.9m/s | -60.1°C | 3.2% | -1.0hPa | 2.5V | 00:00:00 | 00:00:00 | 00:00:00 | |
| DO3MHA-12 | 2026-09-05 03:15:53 | 47.27061 | 12.41945 | 92° | 69km/h | 15975m | 4.9m/s | -60.0°C | 7.4% | 0hPa | 2.5V | 00:00:00 | 01:29:49 | 00:00:00 | |
| NBG1-10 | 2026-09-05 03:15:52 | 47.27061 | 12.41919 | 92° | 69km/h | 15971m | 3.7m/s | -60.0°C | 7.4% | 0hPa | 2.5V | 00:00:00 | 01:29:48 | 00:00:00 | |
| OE5WHR-10 | 2026-09-05 03:15:51 | 47.27062 | 12.41893 | 92° | 66km/h | 15966m | 5.6m/s | -59.9°C | 7.4% | 0hPa | 2.5V | 00:00:00 | 00:00:00 | 00:00:00 | |
| OE5MMP-10 | 2026-09-05 03:15:50 | 47.27062 | 12.41867 | 91° | 69km/h | 15961m | 4.2m/s | -59.9°C | 7.3% | 0hPa | 2.5V | 00:00:00 | 01:29:46 | 00:00:00 | |
| BAUMI2-15 | 2026-09-05 03:15:49 | 47.27062 | 12.41841 | 91° | 69km/h | 15956m | 5.2m/s | -59.9°C | 7.3% | 0hPa | 2.6V | 00:00:00 | 01:29:45 | 00:00:00 | |
| DO3MHA-11 | 2026-09-05 03:15:48 | 47.27062 | 12.41816 | 90° | 69km/h | 15951m | 5.0m/s | -59.9°C | 7.3% | 0hPa | 2.6V | 00:00:00 | 01:29:44 | 00:00:00 | |
| OE5DXL-15 | 2026-09-05 03:15:47 | 47.27062 | 12.41790 | 90° | 71km/h | 15946m | 5.4m/s | -59.9°C | 7.3% | 0hPa | 2.6V | 00:00:00 | 00:00:00 | 00:00:00 | |
| OE5DRO-10 | 2026-09-05 03:15:45 | 47.27062 | 12.41739 | 90° | 69km/h | 15936m | 4.4m/s | -59.9°C | 7.3% | 0hPa | 2.6V | 00:00:00 | 00:00:00 | 00:00:00 | |
| BAUMI2-15 | 2026-09-05 03:15:44 | 47.27061 | 12.41714 | 90° | 69km/h | 15931m | 4.5m/s | -60.0°C | 7.3% | 0hPa | 2.6V | 00:00:00 | 01:29:40 | 00:00:00 | |
| DB0NH | 2026-09-05 03:15:43 | 47.27061 | 12.41688 | 89° | 71km/h | 15926m | 5.2m/s | -60.0°C | 7.3% | 0hPa | 2.6V | 00:00:00 | 01:29:39 | 00:00:00 | |
| DB0UT-7 | 2026-09-05 03:15:41 | 47.27060 | 12.41637 | 88° | 73km/h | 15917m | 5.0m/s | -59.9°C | 7.3% | 0hPa | 2.7V | 00:00:00 | 01:29:37 | 00:00:00 | |
| PG1ADW-2 | 2026-09-05 03:15:40 | 47.27059 | 12.41612 | 88° | 71km/h | 15912m | 4.2m/s | -60.0°C | 7.3% | 0hPa | 2.7V | 00:00:00 | 00:00:00 | 00:00:00 | |
| BAUMI2-15 | 2026-09-05 03:15:39 | 47.27058 | 12.41586 | 87° | 71km/h | 15908m | 5.1m/s | -60.0°C | 7.4% | 0hPa | 2.5V | 00:00:00 | 01:29:35 | 00:00:00 | |
| DO3MHA-11 | 2026-09-05 03:15:38 | 47.27057 | 12.41560 | 86° | 71km/h | 15903m | 4.1m/s | -60.1°C | 7.4% | 0hPa | 2.5V | 00:00:00 | 01:29:34 | 00:00:00 | |
| DO3MHA-12 | 2026-09-05 03:15:33 | 47.27051 | 12.41428 | 86° | 69km/h | 15879m | 4.2m/s | -60.2°C | 7.5% | 0hPa | 2.5V | 00:00:00 | 01:29:29 | 08:30:00 | |
| IN3HCDX | 2026-09-05 03:15:31 | 47.27049 | 12.41401 | 88° | 71km/h | 15875m | 5.1m/s | -60.4°C | 3.5% | 0hPa | 2.5V | 00:00:00 | 00:00:00 | 00:00:00 | |
| OE5MMP-10 | 2026-09-05 03:15:30 | 47.27048 | 12.41349 | 89° | 71km/h | 15865m | 5.1m/s | -60.4°C | 7.6% | 0hPa | 2.5V | 00:00:00 | 01:29:26 | 00:00:00 | |
| BAUMI2-15 | 2026-09-05 03:15:29 | 47.27047 | 12.41323 | 89° | 69km/h | 15861m | 4.2m/s | -60.4°C | 7.6% | 0hPa | 2.5V | 00:00:00 | 01:29:25 | 00:00:00 | |
| DO3MHA-11 | 2026-09-05 03:15:28 | 47.27047 | 12.41297 | 90° | 71km/h | 15856m | 5.0m/s | -60.4°C | 7.7% | 0hPa | 2.5V | 00:00:00 | 01:29:24 | 00:00:00 | |
| OE5DRO-10 | 2026-09-05 03:15:26 | 47.27047 | 12.41246 | 90° | 75km/h | 15847m | 4.9m/s | -60.4°C | 7.7% | 0hPa | 2.6V | 00:00:00 | 00:00:00 | 08:30:00 | |
| BAUMI2-15 | 2026-09-05 03:15:24 | 47.27047 | 12.41194 | 92° | 73km/h | 15838m | 5.3m/s | -60.3°C | 7.6% | 0hPa | 2.7V | 00:00:00 | 01:29:20 | 00:00:00 | |
| DL6DJ-15 | 2026-09-05 03:15:23 | 47.27048 | 12.41168 | 91° | 69km/h | 15833m | 3.6m/s | -60.4°C | 3.3% | -1.0hPa | 2.7V | 00:00:00 | 00:00:00 | 00:00:00 | |
| OE3JTB-15 | 2026-09-05 03:15:21 | 47.27047 | 12.41114 | 88° | 77km/h | 15825m | 4.7m/s | -60.3°C | 7.7% | 0hPa | 2.7V | 00:00:00 | 00:00:00 | 00:00:00 | |
| PG1ADW-2 | 2026-09-05 03:15:20 | 47.27046 | 12.41086 | 87° | 77km/h | 15820m | 4.6m/s | -60.3°C | 7.7% | 0hPa | 2.7V | 00:00:00 | 00:00:00 | 00:00:00 | |
| NBG1-10 | 2026-09-05 03:15:19 | 47.27045 | 12.41059 | 87° | 77km/h | 15815m | 5.0m/s | -60.3°C | 7.6% | 0hPa | 2.7V | 00:00:00 | 01:29:15 | 00:00:00 | |
| DO3MHA-11 | 2026-09-05 03:15:18 | 47.27044 | 12.41032 | 88° | 78km/h | 15811m | 4.3m/s | -60.2°C | 7.7% | 0hPa | 2.7V | 00:00:00 | 01:29:14 | 00:00:00 | |
| OE5DXL-15 | 2026-09-05 03:15:17 | 47.27043 | 12.41004 | 89° | 77km/h | 15806m | 4.4m/s | -60.2°C | 7.6% | 0hPa | 2.7V | 00:00:00 | 00:00:00 | 00:00:00 | |
| BAUMI2-15 | 2026-09-05 03:15:14 | 47.27042 | 12.40919 | 90° | 80km/h | 15793m | 4.7m/s | -60.2°C | 7.6% | 0hPa | 2.7V | 00:00:00 | 01:29:10 | 00:00:00 | |
| DO3MHA-12 | 2026-09-05 03:15:13 | 47.27042 | 12.40889 | 90° | 78km/h | 15789m | 3.9m/s | -60.2°C | 7.6% | 0hPa | 2.7V | 00:00:00 | 01:29:09 | 00:00:00 | |
| OE5HKT-10 | 2026-09-05 03:15:12 | 47.27041 | 12.40860 | 89° | 77km/h | 15784m | 5.1m/s | -60.1°C | 7.6% | 0hPa | 2.7V | 00:00:00 | 01:29:08 | 00:00:00 | |
| DB0UT-7 | 2026-09-05 03:15:11 | 47.27041 | 12.40830 | 89° | 77km/h | 15779m | 4.6m/s | -60.1°C | 7.6% | 0hPa | 2.7V | 00:00:00 | 00:00:00 | 00:00:00 | |
| OE5MMP-10 | 2026-09-05 03:15:10 | 47.27040 | 12.40800 | 90° | 77km/h | 15774m | 5.7m/s | -60.1°C | 7.6% | 0hPa | 2.7V | 00:00:00 | 01:29:06 | 00:00:00 | |
| BAUMI2-15 | 2026-09-05 03:15:09 | 47.27040 | 12.40770 | 89° | 77km/h | 15769m | 4.1m/s | -60.1°C | 7.6% | 0hPa | 2.7V | 00:00:00 | 01:29:05 | 00:00:00 | |
| DO3MHA-11 | 2026-09-05 03:15:08 | 47.27039 | 12.40741 | 88° | 77km/h | 15765m | 4.5m/s | -60.1°C | 7.6% | 0hPa | 2.7V | 00:00:00 | 01:29:04 | 00:00:00 | |
| OE5DRO-10 | 2026-09-05 03:15:07 | 47.27038 | 12.40712 | 87° | 77km/h | 15760m | 4.5m/s | -60.1°C | 7.7% | 0hPa | 2.7V | 00:00:00 | 00:00:00 | 00:00:00 | |
| BAUMI2-15 | 2026-09-05 03:15:04 | 47.27035 | 12.40627 | 87° | 77km/h | 15746m | 4.9m/s | -60.0°C | 7.6% | 0hPa | 2.7V | 00:00:00 | 01:29:00 | 00:00:00 | |
| DO3MHA-12 | 2026-09-05 03:15:03 | 47.27033 | 12.40599 | 86° | 77km/h | 15741m | 4.6m/s | -59.9°C | 7.6% | 0hPa | 2.5V | 00:00:00 | 01:28:59 | 00:00:00 | |
| DL6DJ-15 | 2026-09-05 03:14:52 | 47.27014 | 12.40260 | 84° | 75km/h | 15689m | 4.2m/s | -59.8°C | 3.2% | -1.0hPa | 2.7V | 00:00:00 | 00:00:00 | 00:00:00 | |
| OE5MMP-10 | 2026-09-05 03:14:50 | 47.27012 | 12.40232 | 84° | 77km/h | 15685m | 3.9m/s | -59.7°C | 7.3% | 0hPa | 2.7V | 00:00:00 | 01:28:46 | 08:30:00 | |
| BAUMI2-15 | 2026-09-05 03:14:49 | 47.27009 | 12.40204 | 83° | 75km/h | 15681m | 4.5m/s | -59.7°C | 7.2% | 0hPa | 2.7V | 00:00:00 | 01:28:45 | 08:30:00 | |
| DO3MHA-11 | 2026-09-05 03:14:48 | 47.27007 | 12.40176 | 83° | 77km/h | 15676m | 4.1m/s | -59.7°C | 7.3% | 0hPa | 2.6V | 00:00:00 | 01:28:44 | 00:00:00 | |
| OE5DXL-15 | 2026-09-05 03:14:47 | 47.27005 | 12.40149 | 84° | 73km/h | 15672m | 4.0m/s | -59.7°C | 7.3% | 0hPa | 2.6V | 00:00:00 | 00:00:00 | 08:30:00 | |
| BAUMI2-15 | 2026-09-05 03:14:44 | 47.26998 | 12.40064 | 84° | 77km/h | 15659m | 3.6m/s | -59.9°C | 7.5% | 0hPa | 2.6V | 00:00:00 | 01:28:40 | 00:00:00 | |
| DO3MHA-12 | 2026-09-05 03:14:43 | 47.26996 | 12.40035 | 84° | 77km/h | 15656m | 3.9m/s | -60.0°C | 7.6% | 0hPa | 2.6V | 00:00:00 | 01:28:39 | 00:00:00 | |
| DB0UT-7 | 2026-09-05 03:14:41 | 47.26992 | 12.39978 | 85° | 80km/h | 15647m | 3.7m/s | -60.2°C | 7.8% | 0hPa | 2.6V | 00:00:00 | 01:28:37 | 00:00:00 | |
| PG1ADW-2 | 2026-09-05 03:14:40 | 47.26990 | 12.39950 | 84° | 73km/h | 15643m | 5.0m/s | -60.3°C | 7.7% | 0hPa | 2.7V | 00:00:00 | 00:00:00 | 00:00:00 | |
| DO3MHA-11 | 2026-09-05 03:14:38 | 47.26985 | 12.39893 | 83° | 75km/h | 15634m | 3.6m/s | -60.4°C | 7.8% | 0hPa | 2.5V | 00:00:00 | 01:28:34 | 00:00:00 | |
| S52SK | 2026-09-05 03:14:36 | 47.26983 | 12.39864 | 84° | 77km/h | 15630m | 4.8m/s | -60.5°C | 0% | 0hPa | 2.5V | 00:00:00 | 00:00:00 | 00:00:00 | |
| DO3MHA-12 | 2026-09-05 03:14:33 | 47.26974 | 12.39753 | 85° | 71km/h | 15612m | 4.0m/s | -60.4°C | 7.7% | 0hPa | 2.5V | 00:00:00 | 01:28:29 | 00:00:00 | |
| S52SK | 2026-09-05 03:14:31 | 47.26973 | 12.39726 | 87° | 73km/h | 15607m | 4.5m/s | -60.5°C | 0% | 0hPa | 2.7V | 00:00:00 | 00:00:00 | 00:00:00 | |
| OE5MMP-10 | 2026-09-05 03:14:30 | 47.26970 | 12.39671 | 86° | 69km/h | 15599m | 4.4m/s | -60.4°C | 7.7% | 0hPa | 2.7V | 00:00:00 | 01:28:26 | 00:00:00 | |
| OE5DRO-10 | 2026-09-05 03:14:29 | 47.26968 | 12.39643 | 85° | 68km/h | 15595m | 3.2m/s | -60.4°C | 7.7% | 0hPa | 2.7V | 00:00:00 | 00:00:00 | 00:00:00 | |
| DO3MHA-11 | 2026-09-05 03:14:28 | 47.26967 | 12.39615 | 86° | 68km/h | 15591m | 4.6m/s | -60.4°C | 7.8% | 0hPa | 2.5V | 00:00:00 | 01:28:24 | 08:30:00 | |
| DO3MHA-12 | 2026-09-05 03:14:23 | 47.26957 | 12.39489 | 82° | 66km/h | 15570m | 4.6m/s | -60.3°C | 7.8% | 0hPa | 2.7V | 00:00:00 | 01:28:19 | 00:00:00 | |
| DL6DJ-15 | 2026-09-05 03:14:21 | 47.26952 | 12.39418 | 83° | 66km/h | 15557m | 4.8m/s | -60.2°C | 3.4% | -1.0hPa | 2.7V | 00:00:00 | 00:00:00 | 00:00:00 | |
| OE5MMP-10 | 2026-09-05 03:14:20 | 47.26951 | 12.39418 | 84° | 66km/h | 15557m | 4.7m/s | -60.2°C | 7.8% | 0hPa | 2.7V | 00:00:00 | 01:28:16 | 00:00:00 | |
| DO3MHA-11 | 2026-09-05 03:14:18 | 47.26947 | 12.39369 | 82° | 66km/h | 15549m | 3.9m/s | -60.1°C | 7.7% | 0hPa | 2.7V | 00:00:00 | 01:28:14 | 00:00:00 | |
| OE5DXL-15 | 2026-09-05 03:14:17 | 47.26944 | 12.39344 | 83° | 64km/h | 15545m | 4.9m/s | -60.0°C | 7.7% | 0hPa | 2.7V | 00:00:00 | 00:00:00 | 00:00:00 | |
| NBG1-10 | 2026-09-05 03:14:13 | 47.26935 | 12.39249 | 81° | 64km/h | 15528m | 4.2m/s | -59.9°C | 7.6% | 0hPa | 2.7V | 00:00:00 | 01:28:09 | 00:00:00 | |
| OE5MMP-10 | 2026-09-05 03:14:10 | 47.26926 | 12.39179 | 78° | 62km/h | 15516m | 4.6m/s | -59.8°C | 7.6% | 0hPa | 2.7V | 00:00:00 | 01:28:06 | 00:00:00 | |
| DO3MHA-11 | 2026-09-05 03:14:08 | 47.26918 | 12.39132 | 78° | 62km/h | 15507m | 4.7m/s | -59.8°C | 7.5% | 0hPa | 2.7V | 00:00:00 | 01:28:04 | 00:00:00 | |
| IN3HCDX | 2026-09-05 03:14:07 | 47.26918 | 12.39132 | 78° | 62km/h | 15507m | 4.8m/s | -59.8°C | 3.6% | 0hPa | 2.7V | 00:00:00 | 00:00:00 | 00:00:00 | |
| DG1MFX-10 | 2026-09-05 03:14:04 | 47.26908 | 12.39065 | 78° | 64km/h | 15494m | 3.7m/s | -60.1°C | 3.7% | 0hPa | 2.7V | 00:00:00 | 00:00:00 | 00:00:00 | |
| DL6DJ-15 | 2026-09-05 03:13:49 | 47.26860 | 12.38691 | 87° | 66km/h | 15427m | 5.1m/s | -59.9°C | 3.6% | -1.0hPa | 2.7V | 00:00:00 | 00:00:00 | 00:00:00 | |
| DO3MHA-11 | 2026-09-05 03:13:48 | 47.26858 | 12.38666 | 86° | 66km/h | 15423m | 4.1m/s | -59.8°C | 7.9% | 0hPa | 2.7V | 00:00:00 | 01:27:44 | 00:00:00 | |
| OE5DXL-15 | 2026-09-05 03:13:47 | 47.26857 | 12.38642 | 84° | 66km/h | 15419m | 4.2m/s | -59.8°C | 7.9% | 0hPa | 2.7V | 00:00:00 | 00:00:00 | 00:00:00 | |
| DG1MFX-10 | 2026-09-05 03:13:44 | 47.26852 | 12.38592 | 82° | 68km/h | 15410m | 4.5m/s | -59.8°C | 3.9% | 0hPa | 2.7V | 00:00:00 | 00:00:00 | 00:00:00 | |
| DB0NH | 2026-09-05 03:13:43 | 47.26847 | 12.38544 | 80° | 66km/h | 15402m | 2.9m/s | -59.7°C | 7.9% | 0hPa | 2.7V | 00:00:00 | 01:27:39 | 00:00:00 | |
| OE5HKT-10 | 2026-09-05 03:13:40 | 47.26839 | 12.38473 | 84° | 77km/h | 15391m | 4.1m/s | -59.7°C | 8.0% | 0hPa | 2.7V | 00:00:00 | 00:00:00 | 00:00:00 | |
| DO3MHA-11 | 2026-09-05 03:13:38 | 47.26836 | 12.38427 | 85° | 64km/h | 15383m | 4.6m/s | -59.6°C | 8.0% | 0hPa | 2.5V | 00:00:00 | 01:27:34 | 00:00:00 | |
| DO3MHA-12 | 2026-09-05 03:13:33 | 47.26829 | 12.38307 | 84° | 64km/h | 15362m | 4.8m/s | -59.5°C | 7.9% | 0hPa | 2.5V | 00:00:00 | 01:27:29 | 00:00:00 | |
| OE5DRO-10 | 2026-09-05 03:13:32 | 47.26827 | 12.38282 | 84° | 66km/h | 15358m | 3.1m/s | -59.5°C | 8.0% | 0hPa | 2.6V | 00:00:00 | 00:00:00 | 00:00:00 | |
| OE5MMP-10 | 2026-09-05 03:13:30 | 47.26824 | 12.38234 | 86° | 66km/h | 15350m | 3.8m/s | -59.5°C | 8.0% | 0hPa | 2.6V | 00:00:00 | 01:27:26 | 00:00:00 | |
| IN3HCDX | 2026-09-05 03:13:26 | 47.26820 | 12.38164 | 86° | 64km/h | 15339m | 4.1m/s | -59.7°C | 4.0% | 0hPa | 2.6V | 00:00:00 | 00:00:00 | 00:00:00 | |
| OE3JTB-15 | 2026-09-05 03:13:25 | 47.26818 | 12.38117 | 87° | 69km/h | 15330m | 4.9m/s | -59.6°C | 8.0% | 0hPa | 2.6V | 00:00:00 | 01:27:21 | 00:00:00 | |
| DO3MHA-12 | 2026-09-05 03:13:23 | 47.26817 | 12.38069 | 89° | 68km/h | 15323m | 3.9m/s | -59.6°C | 8.0% | 0hPa | 2.6V | 00:00:00 | 01:27:19 | 00:00:00 | |
| PG1ADW-2 | 2026-09-05 03:13:20 | 47.26816 | 12.37992 | 90° | 69km/h | 15310m | 5.1m/s | -59.6°C | 8.0% | 0hPa | 2.6V | 00:00:00 | 00:00:00 | 00:00:00 | |
| DO3MHA-11 | 2026-09-05 03:13:18 | 47.26816 | 12.37942 | 92° | 68km/h | 15302m | 3.3m/s | -59.5°C | 8.1% | 0hPa | 2.6V | 00:00:00 | 01:27:14 | 00:00:00 | |
| OE5DXL-15 | 2026-09-05 03:13:17 | 47.26817 | 12.37917 | 91° | 71km/h | 15298m | 4.1m/s | -59.5°C | 8.0% | 0hPa | 2.6V | 00:00:00 | 00:00:00 | 00:00:00 | |
| S52SK | 2026-09-05 03:13:14 | 47.26817 | 12.37868 | 93° | 66km/h | 15291m | 4.6m/s | -59.5°C | 0% | 0hPa | 2.6V | 00:00:00 | 00:00:00 | 00:00:00 | |
| DO3MHA-12 | 2026-09-05 03:13:13 | 47.26818 | 12.37819 | 92° | 71km/h | 15282m | 4.3m/s | -59.5°C | 7.9% | 0hPa | 2.6V | 00:00:00 | 01:27:09 | 00:00:00 | |
| OE5MMP-10 | 2026-09-05 03:13:10 | 47.26819 | 12.37743 | 93° | 71km/h | 15271m | 3.5m/s | -59.5°C | 7.8% | 0hPa | 2.6V | 00:00:00 | 01:27:06 | 00:00:00 | |
| S52SK | 2026-09-05 03:13:09 | 47.26819 | 12.37743 | 93° | 69km/h | 15271m | 3.5m/s | -59.5°C | 0% | 0hPa | 2.6V | 00:00:00 | 00:00:00 | 00:00:00 | |
| DO3MHA-11 | 2026-09-05 03:13:08 | 47.26821 | 12.37690 | 93° | 71km/h | 15264m | 3.4m/s | -59.5°C | 7.8% | 0hPa | 2.6V | 00:00:00 | 01:27:04 | 00:00:00 | |
| NBG1-10 | 2026-09-05 03:13:07 | 47.26822 | 12.37663 | 95° | 75km/h | 15260m | 4.0m/s | -59.6°C | 7.9% | 0hPa | 2.6V | 00:00:00 | 01:27:03 | 08:30:00 | |
| OE5WHR-10 | 2026-09-05 03:13:05 | 47.26825 | 12.37610 | 97° | 73km/h | 15252m | 3.4m/s | -59.6°C | 7.9% | 0hPa | 2.7V | 00:00:00 | 00:00:00 | 00:00:00 | |
| DO3MHA-12 | 2026-09-05 03:13:03 | 47.26829 | 12.37557 | 95° | 71km/h | 15245m | 3.5m/s | -59.8°C | 8.0% | 0hPa | 2.6V | 00:00:00 | 01:26:59 | 00:00:00 | |
| OE5MMP-10 | 2026-09-05 03:13:00 | 47.26834 | 12.37477 | 95° | 73km/h | 15234m | 3.1m/s | -60.0°C | 8.1% | 0hPa | 2.6V | 00:00:00 | 01:26:56 | 00:00:00 | |
| DO3MHA-11 | 2026-09-05 03:12:58 | 47.26836 | 12.37424 | 94° | 73km/h | 15228m | 2.8m/s | -60.2°C | 8.2% | 0hPa | 2.6V | 00:00:00 | 01:26:54 | 08:30:00 | |
| OE3JTB-15 | 2026-09-05 03:12:56 | 47.26839 | 12.37372 | 96° | 77km/h | 15220m | 3.1m/s | -60.7°C | 8.6% | 0hPa | 2.6V | 00:00:00 | 00:00:00 | 00:00:00 | |
| OE5DRO-10 | 2026-09-05 03:12:54 | 47.26842 | 12.37319 | 96° | 77km/h | 15213m | 2.7m/s | -61.1°C | 8.9% | 0hPa | 2.7V | 00:00:00 | 00:00:00 | 00:00:00 | |
| DO3MHA-12 | 2026-09-05 03:12:53 | 47.26845 | 12.37291 | 98° | 75km/h | 15210m | 3.2m/s | -61.2°C | 8.9% | 0hPa | 2.7V | 00:00:00 | 01:26:49 | 00:00:00 | |
| OE5MMP-10 | 2026-09-05 03:12:50 | 47.26853 | 12.37210 | 98° | 77km/h | 15201m | 3.8m/s | -61.2°C | 9.0% | 0hPa | 2.7V | 00:00:00 | 01:26:46 | 00:00:00 | |
| DO3MHA-11 | 2026-09-05 03:12:48 | 47.26857 | 12.37156 | 98° | 77km/h | 15193m | 3.8m/s | -61.2°C | 9.0% | 0hPa | 2.6V | 00:00:00 | 01:26:44 | 00:00:00 | |
| OE5DXL-15 | 2026-09-05 03:12:47 | 47.26860 | 12.37128 | 97° | 80km/h | 15190m | 2.5m/s | -61.2°C | 9.1% | 0hPa | 2.6V | 00:00:00 | 00:00:00 | 00:00:00 | |
| IN3HCDX | 2026-09-05 03:12:44 | 47.26863 | 12.37072 | 95° | 78km/h | 15183m | 3.5m/s | -61.3°C | 4.7% | 0hPa | 2.6V | 00:00:00 | 00:00:00 | 00:00:00 | |
| DO3MHA-12 | 2026-09-05 03:12:43 | 47.26866 | 12.37015 | 95° | 78km/h | 15176m | 3.0m/s | -61.2°C | 9.2% | 0hPa | 2.6V | 00:00:00 | 01:26:39 | 00:00:00 | |
| OE5WHR-10 | 2026-09-05 03:12:42 | 47.26867 | 12.36986 | 95° | 80km/h | 15173m | 2.9m/s | -61.2°C | 9.2% | 0hPa | 2.6V | 00:00:00 | 00:00:00 | 00:00:00 | |
| PG1ADW-2 | 2026-09-05 03:12:40 | 47.26870 | 12.36928 | 95° | 80km/h | 15167m | 2.6m/s | -61.2°C | 9.2% | 0hPa | 2.6V | 00:00:00 | 00:00:00 | 00:00:00 | |
| DO3MHA-11 | 2026-09-05 03:12:38 | 47.26873 | 12.36870 | 97° | 78km/h | 15160m | 2.4m/s | -61.1°C | 9.1% | 0hPa | 2.6V | 00:00:00 | 01:26:34 | 00:00:00 | |
| BAUMI2-15 | 2026-09-05 03:12:35 | 47.26879 | 12.36781 | 93° | 80km/h | 15151m | 3.3m/s | -61.1°C | 9.1% | 0hPa | 2.6V | 00:00:00 | 01:26:31 | 00:00:00 | |
| NBG1-10 | 2026-09-05 03:12:34 | 47.26879 | 12.36751 | 91° | 82km/h | 15147m | 3.7m/s | -61.1°C | 9.1% | 0hPa | 2.7V | 00:00:00 | 01:26:30 | 00:00:00 | |
| DO3MHA-12 | 2026-09-05 03:12:33 | 47.26879 | 12.36722 | 91° | 80km/h | 15144m | 3.1m/s | -61.1°C | 9.1% | 0hPa | 2.7V | 00:00:00 | 01:26:29 | 08:30:00 | |
| OE5MMP-10 | 2026-09-05 03:12:30 | 47.26878 | 12.36634 | 88° | 80km/h | 15133m | 3.7m/s | -61.0°C | 9.1% | 0hPa | 2.7V | 00:00:00 | 01:26:26 | 00:00:00 | |
| DO3MHA-11 | 2026-09-05 03:12:28 | 47.26877 | 12.36575 | 89° | 82km/h | 15126m | 3.9m/s | -61.0°C | 9.1% | 0hPa | 2.7V | 00:00:00 | 01:26:24 | 00:00:00 | |
| OE3JTB-15 | 2026-09-05 03:12:27 | 47.26876 | 12.36545 | 91° | 84km/h | 15123m | 3.1m/s | -61.0°C | 9.1% | 0hPa | 2.6V | 00:00:00 | 00:00:00 | 00:00:00 | |
| BAUMI2-15 | 2026-09-05 03:12:25 | 47.26877 | 12.36484 | 93° | 82km/h | 15116m | 3.7m/s | -60.9°C | 9.0% | 0hPa | 2.6V | 00:00:00 | 01:26:21 | 00:00:00 | |
| DO3MHA-12 | 2026-09-05 03:12:23 | 47.26880 | 12.36424 | 94° | 82km/h | 15109m | 4.1m/s | -60.9°C | 9.0% | 0hPa | 2.6V | 00:00:00 | 01:26:19 | 00:00:00 | |
| OE5WHR-10 | 2026-09-05 03:12:21 | 47.26882 | 12.36362 | 94° | 84km/h | 15102m | 4.3m/s | -60.8°C | 9.0% | 0hPa | 2.6V | 00:00:00 | 01:26:17 | 00:00:00 | |
| OE5MMP-10 | 2026-09-05 03:12:20 | 47.26884 | 12.36332 | 94° | 82km/h | 15098m | 2.9m/s | -60.9°C | 9.0% | 0hPa | 2.6V | 00:00:00 | 01:26:16 | 00:00:00 | |
| DO3MHA-11 | 2026-09-05 03:12:18 | 47.26886 | 12.36272 | 93° | 84km/h | 15091m | 3.7m/s | -60.8°C | 9.1% | 0hPa | 2.7V | 00:00:00 | 01:26:14 | 00:00:00 | |
| OE5DXL-15 | 2026-09-05 03:12:17 | 47.26886 | 12.36241 | 92° | 84km/h | 15087m | 3.0m/s | -60.8°C | 9.0% | 0hPa | 2.7V | 00:00:00 | 00:00:00 | 00:00:00 | |
| OE5DRO-10 | 2026-09-05 03:12:16 | 47.26887 | 12.36210 | 91° | 84km/h | 15084m | 4.5m/s | -60.8°C | 9.0% | 0hPa | 2.7V | 00:00:00 | 00:00:00 | 00:00:00 | |
| BAUMI2-15 | 2026-09-05 03:12:15 | 47.26887 | 12.36180 | 89° | 84km/h | 15080m | 3.2m/s | -60.8°C | 9.1% | 0hPa | 2.7V | 00:00:00 | 01:26:11 | 00:00:00 | |
| DB0NH | 2026-09-05 03:12:13 | 47.26886 | 12.36119 | 88° | 84km/h | 15073m | 4.0m/s | -60.8°C | 9.1% | 0hPa | 2.7V | 00:00:00 | 01:26:09 | 00:00:00 | |
| BAUMI2-15 | 2026-09-05 03:12:10 | 47.26884 | 12.36024 | 90° | 86km/h | 15062m | 3.2m/s | -60.8°C | 9.1% | 0hPa | 2.7V | 00:00:00 | 01:26:06 | 00:00:00 | |
| DO3MHA-11 | 2026-09-05 03:12:08 | 47.26884 | 12.35960 | 91° | 84km/h | 15054m | 4.0m/s | -60.7°C | 9.1% | 0hPa | 2.7V | 00:00:00 | 01:26:04 | 00:00:00 | |
| BAUMI2-15 | 2026-09-05 03:12:05 | 47.26886 | 12.35866 | 93° | 84km/h | 15042m | 2.7m/s | -60.7°C | 9.1% | 0hPa | 2.7V | 00:00:00 | 01:26:01 | 08:30:00 | |
| NBG1-10 | 2026-09-05 03:12:01 | 47.26889 | 12.35742 | 92° | 84km/h | 15028m | 3.5m/s | -60.7°C | 9.0% | 0hPa | 2.6V | 00:00:00 | 01:25:57 | 00:00:00 | |
| PG1ADW-2 | 2026-09-05 03:12:00 | 47.26889 | 12.35710 | 90° | 84km/h | 15024m | 4.2m/s | -60.7°C | 9.0% | 0hPa | 2.6V | 00:00:00 | 00:00:00 | 00:00:00 | |
| DO3MHA-11 | 2026-09-05 03:11:58 | 47.26889 | 12.35646 | 89° | 84km/h | 15016m | 3.9m/s | -60.8°C | 9.0% | 0hPa | 2.6V | 00:00:00 | 01:25:54 | 00:00:00 | |
| OE5DRO-10 | 2026-09-05 03:11:57 | 47.26888 | 12.35614 | 89° | 82km/h | 15012m | 4.0m/s | -60.8°C | 9.1% | 0hPa | 2.6V | 00:00:00 | 00:00:00 | 00:00:00 | |
| BAUMI2-15 | 2026-09-05 03:11:55 | 47.26887 | 12.35551 | 90° | 84km/h | 15003m | 3.9m/s | -60.8°C | 9.1% | 0hPa | 2.6V | 00:00:00 | 01:25:51 | 00:00:00 | |
| DO3MHA-12 | 2026-09-05 03:11:53 | 47.26887 | 12.35489 | 90° | 82km/h | 14995m | 3.5m/s | -60.8°C | 9.1% | 0hPa | 2.6V | 00:00:00 | 01:25:49 | 00:00:00 | |
| OE5HKT-10 | 2026-09-05 03:11:50 | 47.26887 | 12.35396 | 91° | 82km/h | 14982m | 4.1m/s | -60.8°C | 9.2% | 0hPa | 2.6V | 00:00:00 | 00:00:00 | 00:00:00 | |
| DO3MHA-11 | 2026-09-05 03:11:48 | 47.26887 | 12.35335 | 90° | 82km/h | 14974m | 4.4m/s | -60.7°C | 9.2% | 0hPa | 2.6V | 00:00:00 | 01:25:44 | 00:00:00 | |
| OE5DXL-15 | 2026-09-05 03:11:47 | 47.26887 | 12.35304 | 89° | 82km/h | 14970m | 3.9m/s | -60.7°C | 9.2% | 0hPa | 2.6V | 00:00:00 | 00:00:00 | 00:00:00 | |
| BAUMI2-15 | 2026-09-05 03:11:45 | 47.26886 | 12.35242 | 89° | 82km/h | 14961m | 3.9m/s | -60.6°C | 9.1% | 0hPa | 2.6V | 00:00:00 | 01:25:41 | 00:00:00 | |
| DO3MHA-12 | 2026-09-05 03:11:43 | 47.26884 | 12.35181 | 88° | 82km/h | 14953m | 3.7m/s | -60.5°C | 9.1% | 0hPa | 2.6V | 00:00:00 | 01:25:39 | 00:00:00 | |
| IN3HCDX | 2026-09-05 03:11:42 | 47.26883 | 12.35151 | 88° | 80km/h | 14949m | 4.5m/s | -60.6°C | 4.7% | 0hPa | 2.6V | 00:00:00 | 00:00:00 | 00:00:00 | |
| BAUMI2-15 | 2026-09-05 03:11:40 | 47.26881 | 12.35090 | 87° | 82km/h | 14940m | 4.1m/s | -60.5°C | 9.0% | 0hPa | 2.6V | 00:00:00 | 01:25:36 | 00:00:00 | |
| OE5WHR-10 | 2026-09-05 03:11:39 | 47.26880 | 12.35060 | 87° | 84km/h | 14935m | 5.2m/s | -60.5°C | 9.1% | 0hPa | 2.6V | 00:00:00 | 00:00:00 | 00:00:00 | |
| DO3MHA-11 | 2026-09-05 03:11:38 | 47.26879 | 12.35030 | 86° | 84km/h | 14931m | 3.3m/s | -60.5°C | 9.1% | 0hPa | 2.6V | 00:00:00 | 01:25:34 | 00:00:00 | |
| BAUMI2-15 | 2026-09-05 03:11:35 | 47.26874 | 12.34937 | 87° | 84km/h | 14918m | 4.2m/s | -60.5°C | 9.2% | 0hPa | 2.6V | 00:00:00 | 01:25:31 | 00:00:00 | |
| DO3MHA-12 | 2026-09-05 03:11:33 | 47.26871 | 12.34875 | 86° | 82km/h | 14908m | 3.9m/s | -60.5°C | 9.2% | 0hPa | 2.7V | 00:00:00 | 01:25:29 | 00:00:00 | |
| BAUMI2-15 | 2026-09-05 03:11:30 | 47.26867 | 12.34782 | 86° | 82km/h | 14894m | 5.1m/s | -60.4°C | 9.1% | 0hPa | 2.7V | 00:00:00 | 01:25:26 | 00:00:00 | |
| OE5HKT-10 | 2026-09-05 03:11:29 | 47.26865 | 12.34752 | 86° | 84km/h | 14889m | 4.0m/s | 0°C | 0% | 0hPa | 2.7V | 00:00:00 | 01:25:25 | 00:00:00 | |
| NBG1-10 | 2026-09-05 03:11:28 | 47.26864 | 12.34722 | 87° | 86km/h | 14885m | 5.2m/s | -60.4°C | 9.1% | 0hPa | 2.7V | 00:00:00 | 01:25:24 | 00:00:00 | |
| DB0UT-7 | 2026-09-05 03:11:26 | 47.26860 | 12.34660 | 85° | 86km/h | 14876m | 4.6m/s | -60.5°C | 9.2% | 0hPa | 2.7V | 00:00:00 | 01:25:22 | 00:00:00 | |
| BAUMI2-15 | 2026-09-05 03:11:25 | 47.26858 | 12.34630 | 85° | 84km/h | 14871m | 4.4m/s | -60.5°C | 9.2% | 0hPa | 2.7V | 00:00:00 | 01:25:21 | 00:00:00 | |
| DO3MHA-12 | 2026-09-05 03:11:23 | 47.26853 | 12.34569 | 84° | 84km/h | 14863m | 5.4m/s | -60.5°C | 9.2% | 0hPa | 2.7V | 00:00:00 | 01:25:19 | 00:00:00 | |
| PG1ADW-2 | 2026-09-05 03:11:20 | 47.26847 | 12.34474 | 85° | 86km/h | 14848m | 4.8m/s | -60.4°C | 9.2% | 0hPa | 2.7V | 00:00:00 | 00:00:00 | 00:00:00 | |
| OE5DRO-10 | 2026-09-05 03:11:19 | 47.26845 | 12.34443 | 87° | 86km/h | 14843m | 5.2m/s | -60.4°C | 9.2% | 0hPa | 2.7V | 00:00:00 | 00:00:00 | 00:00:00 | |
| OE5WHR-10 | 2026-09-05 03:11:18 | 47.26844 | 12.34412 | 88° | 88km/h | 14838m | 4.5m/s | -60.4°C | 9.2% | 0hPa | 2.7V | 00:00:00 | 01:25:14 | 00:00:00 | |
| OE5DXL-15 | 2026-09-05 03:11:17 | 47.26843 | 12.34381 | 88° | 88km/h | 14834m | 4.9m/s | -60.3°C | 9.2% | 0hPa | 2.7V | 00:00:00 | 00:00:00 | 00:00:00 | |
| BAUMI2-15 | 2026-09-05 03:11:15 | 47.26840 | 12.34320 | 86° | 86km/h | 14825m | 4.4m/s | -60.3°C | 9.1% | 0hPa | 2.7V | 00:00:00 | 01:25:11 | 00:00:00 | |
| DL6DJ-15 | 2026-09-05 03:11:14 | 47.26839 | 12.34289 | 86° | 84km/h | 14819m | 5.5m/s | -60.3°C | 4.6% | -1.0hPa | 2.7V | 00:00:00 | 00:00:00 | 00:00:00 | |
| DO3MHA-12 | 2026-09-05 03:11:13 | 47.26837 | 12.34257 | 86° | 88km/h | 14815m | 4.2m/s | -60.2°C | 9.2% | 0hPa | 2.7V | 00:00:00 | 01:25:09 | 00:00:00 | |
| OE5MMP-10 | 2026-09-05 03:11:10 | 47.26831 | 12.34159 | 86° | 88km/h | 14800m | 5.4m/s | -60.2°C | 9.1% | 0hPa | 2.7V | 00:00:00 | 01:25:06 | 00:00:00 | |
| OE5HKT-10 | 2026-09-05 03:11:08 | 47.26828 | 12.34092 | 86° | 86km/h | 14790m | 5.3m/s | 0°C | 0% | 0hPa | 2.7V | 00:00:00 | 00:00:00 | 08:30:00 | |
| BAUMI2-15 | 2026-09-05 03:11:05 | 47.26824 | 12.33993 | 89° | 86km/h | 14776m | 4.8m/s | -60.0°C | 9.1% | 0hPa | 2.7V | 00:00:00 | 01:25:01 | 00:00:00 | |
| OE5MMP-10 | 2026-09-05 03:11:00 | 47.26819 | 12.33832 | 86° | 89km/h | 14750m | 5.8m/s | -59.9°C | 9.0% | 0hPa | 2.7V | 00:00:00 | 01:24:56 | 00:00:00 | |
| DG1MFX-10 | 2026-09-05 03:10:59 | 47.26818 | 12.33832 | 86° | 88km/h | 14750m | 5.9m/s | -60.0°C | 4.8% | 0hPa | 2.7V | 00:00:00 | 00:00:00 | 00:00:00 | |
| DO3MHA-11 | 2026-09-05 03:10:58 | 47.26814 | 12.33766 | 85° | 89km/h | 14740m | 6.0m/s | -59.8°C | 9.0% | 0hPa | 2.7V | 00:00:00 | 01:24:54 | 00:00:00 | |
| OE5WHR-10 | 2026-09-05 03:10:57 | 47.26813 | 12.33732 | 86° | 89km/h | 14734m | 4.4m/s | -59.8°C | 9.0% | 0hPa | 2.7V | 00:00:00 | 00:00:00 | 00:00:00 | |
| DB0UT-7 | 2026-09-05 03:10:56 | 47.26811 | 12.33698 | 86° | 88km/h | 14729m | 5.5m/s | -59.8°C | 8.9% | 0hPa | 2.5V | 00:00:00 | 00:00:00 | 08:30:00 | |
| BAUMI2-15 | 2026-09-05 03:10:55 | 47.26809 | 12.33664 | 86° | 88km/h | 14724m | 5.2m/s | -59.7°C | 9.0% | 0hPa | 2.6V | 00:00:00 | 01:24:51 | 00:00:00 | |
| DO3MHA-12 | 2026-09-05 03:10:53 | 47.26806 | 12.33599 | 86° | 88km/h | 14714m | 5.3m/s | -59.7°C | 8.9% | 0hPa | 2.6V | 00:00:00 | 01:24:49 | 00:00:00 | |
| OE5MMP-10 | 2026-09-05 03:10:50 | 47.26801 | 12.33502 | 86° | 89km/h | 14699m | 4.9m/s | -59.7°C | 9.0% | 0hPa | 2.6V | 00:00:00 | 01:24:46 | 00:00:00 | |
| DO3MHA-11 | 2026-09-05 03:10:48 | 47.26797 | 12.33437 | 86° | 89km/h | 14688m | 4.4m/s | -59.7°C | 8.9% | 0hPa | 2.7V | 00:00:00 | 01:24:44 | 00:00:00 | |
| OE5DXL-15 | 2026-09-05 03:10:47 | 47.26795 | 12.33404 | 85° | 86km/h | 14683m | 5.1m/s | -59.7°C | 8.9% | 0hPa | 2.7V | 00:00:00 | 00:00:00 | 00:00:00 | |
| DO3MHA-12 | 2026-09-05 03:10:43 | 47.26785 | 12.33272 | 84° | 88km/h | 14663m | 4.9m/s | -59.6°C | 8.9% | 0hPa | 2.7V | 00:00:00 | 01:24:39 | 00:00:00 | |
| OE5DRO-10 | 2026-09-05 03:10:41 | 47.26780 | 12.33207 | 84° | 86km/h | 14653m | 4.0m/s | -59.6°C | 8.9% | 0hPa | 2.7V | 00:00:00 | 00:00:00 | 00:00:00 | |
| PG1ADW-2 | 2026-09-05 03:10:40 | 47.26777 | 12.33174 | 85° | 86km/h | 14648m | 5.6m/s | -59.6°C | 8.8% | 0hPa | 2.7V | 00:00:00 | 00:00:00 | 08:30:00 | |
| DG1MFX-10 | 2026-09-05 03:10:39 | 47.26777 | 12.33174 | 86° | 88km/h | 14648m | 5.7m/s | -59.6°C | 4.8% | 0hPa | 2.7V | 00:00:00 | 00:00:00 | 00:00:00 | |
| DO3MHA-11 | 2026-09-05 03:10:38 | 47.26774 | 12.33108 | 86° | 88km/h | 14638m | 4.4m/s | -59.5°C | 8.8% | 0hPa | 2.7V | 00:00:00 | 01:24:34 | 00:00:00 | |
| IN3HCDX | 2026-09-05 03:10:37 | 47.26774 | 12.33108 | 87° | 89km/h | 14638m | 4.5m/s | -59.6°C | 4.8% | 0hPa | 2.7V | 00:00:00 | 00:00:00 | 00:00:00 | |
| OE5WHR-10 | 2026-09-05 03:10:36 | 47.26771 | 12.33043 | 87° | 86km/h | 14628m | 4.6m/s | -59.5°C | 8.8% | 0hPa | 2.7V | 00:00:00 | 00:00:00 | 00:00:00 | |
| DO3MHA-12 | 2026-09-05 03:10:33 | 47.26768 | 12.32947 | 87° | 86km/h | 14612m | 5.2m/s | -59.5°C | 8.8% | 0hPa | 2.7V | 00:00:00 | 01:24:29 | 00:00:00 | |
| OE3JTB-15 | 2026-09-05 03:10:31 | 47.26765 | 12.32883 | 86° | 86km/h | 14602m | 4.9m/s | -59.7°C | 9.1% | 0hPa | 2.7V | 00:00:00 | 01:24:27 | 00:00:00 | |
| OE5MMP-10 | 2026-09-05 03:10:30 | 47.26763 | 12.32850 | 84° | 84km/h | 14598m | 4.1m/s | -59.8°C | 9.0% | 0hPa | 2.7V | 00:00:00 | 01:24:26 | 00:00:00 | |
| DO3MHA-11 | 2026-09-05 03:10:28 | 47.26757 | 12.32786 | 83° | 84km/h | 14588m | 4.5m/s | -59.8°C | 9.2% | 0hPa | 2.7V | 00:00:00 | 01:24:24 | 00:00:00 | |
| DB0UT-7 | 2026-09-05 03:10:26 | 47.26753 | 12.32724 | 84° | 88km/h | 14579m | 4.8m/s | -59.9°C | 9.3% | 0hPa | 2.7V | 00:00:00 | 01:24:22 | 00:00:00 | |
| DO3MHA-12 | 2026-09-05 03:10:23 | 47.26746 | 12.32631 | 85° | 84km/h | 14565m | 3.8m/s | -60.0°C | 9.4% | 0hPa | 2.7V | 00:00:00 | 01:24:19 | 00:00:00 | |
| NBG1-10 | 2026-09-05 03:10:22 | 47.26744 | 12.32601 | 85° | 88km/h | 14561m | 5.0m/s | -60.0°C | 9.4% | 0hPa | 2.7V | 00:00:00 | 01:24:18 | 00:00:00 | |
| PG1ADW-2 | 2026-09-05 03:10:20 | 47.26740 | 12.32538 | 83° | 88km/h | 14551m | 5.0m/s | -60.0°C | 9.4% | 0hPa | 2.7V | 00:00:00 | 00:00:00 | 00:00:00 | |
| DG1MFX-10 | 2026-09-05 03:10:19 | 47.26740 | 12.32538 | 84° | 84km/h | 14551m | 5.0m/s | -60.1°C | 5.2% | 0hPa | 2.7V | 00:00:00 | 00:00:00 | 00:00:00 | |
| DO3MHA-11 | 2026-09-05 03:10:18 | 47.26734 | 12.32478 | 81° | 86km/h | 14542m | 3.8m/s | -60.1°C | 9.5% | 0hPa | 2.7V | 00:00:00 | 01:24:14 | 00:00:00 | |
| OE5DXL-15 | 2026-09-05 03:10:17 | 47.26730 | 12.32447 | 80° | 89km/h | 14537m | 5.5m/s | -60.1°C | 9.5% | 0hPa | 2.7V | 00:00:00 | 00:00:00 | 08:30:00 | |
| IN3HCDX | 2026-09-05 03:10:16 | 47.26730 | 12.32447 | 80° | 86km/h | 14537m | 5.5m/s | -60.1°C | 5.2% | 0hPa | 2.6V | 00:00:00 | 00:00:00 | 00:00:00 | |
| OE5WHR-10 | 2026-09-05 03:10:15 | 47.26723 | 12.32385 | 80° | 89km/h | 14527m | 5.5m/s | -60.3°C | 9.7% | 0hPa | 2.6V | 00:00:00 | 01:24:11 | 00:00:00 | |
| DO3MHA-12 | 2026-09-05 03:10:13 | 47.26716 | 12.32323 | 84° | 89km/h | 14518m | 4.2m/s | -60.4°C | 10.0% | 0hPa | 2.6V | 00:00:00 | 01:24:09 | 00:00:00 | |
| DL6DJ-15 | 2026-09-05 03:10:12 | 47.26714 | 12.32291 | 83° | 86km/h | 14513m | 5.2m/s | -60.5°C | 5.3% | -1.0hPa | 2.6V | 00:00:00 | 00:00:00 | 00:00:00 | |
| S52SK | 2026-09-05 03:10:11 | 47.26714 | 12.32291 | 85° | 88km/h | 14513m | 5.2m/s | -60.5°C | 0% | 0hPa | 2.6V | 00:00:00 | 00:00:00 | 00:00:00 | |
| OE5MMP-10 | 2026-09-05 03:10:10 | 47.26709 | 12.32226 | 84° | 91km/h | 14503m | 5.3m/s | -60.5°C | 10.1% | 0hPa | 2.6V | 00:00:00 | 01:24:06 | 00:00:00 | |
| DO3MHA-11 | 2026-09-05 03:10:08 | 47.26703 | 12.32160 | 83° | 91km/h | 14493m | 5.4m/s | -60.5°C | 10.1% | 0hPa | 2.6V | 00:00:00 | 01:24:04 | 00:00:00 | |
| DO3MHA-12 | 2026-09-05 03:10:03 | 47.26689 | 12.31992 | 85° | 91km/h | 14469m | 5.5m/s | -60.3°C | 10.0% | 0hPa | 2.6V | 00:00:00 | 01:23:59 | 00:00:00 | |
| OE3JTB-15 | 2026-09-05 03:10:02 | 47.26687 | 12.31958 | 86° | 89km/h | 14463m | 4.9m/s | -60.3°C | 10.0% | 0hPa | 2.6V | 00:00:00 | 00:00:00 | 00:00:00 | |
| PG1ADW-2 | 2026-09-05 03:10:00 | 47.26684 | 12.31890 | 87° | 89km/h | 14453m | 4.2m/s | -60.2°C | 10.0% | 0hPa | 2.7V | 00:00:00 | 00:00:00 | 00:00:00 | |
| DO3MHA-11 | 2026-09-05 03:09:58 | 47.26680 | 12.31821 | 86° | 89km/h | 14443m | 4.6m/s | -60.3°C | 10.1% | 0hPa | 2.7V | 00:00:00 | 01:23:54 | 08:30:00 | |
| OE5HKT-10 | 2026-09-05 03:09:56 | 47.26676 | 12.31753 | 85° | 88km/h | 14433m | 5.2m/s | 0°C | 0% | 0hPa | 2.6V | 00:00:00 | 01:23:52 | 00:00:00 | |
| IN3HCDX | 2026-09-05 03:09:55 | 47.26676 | 12.31753 | 85° | 89km/h | 14433m | 5.3m/s | -60.4°C | 5.8% | 0hPa | 2.6V | 00:00:00 | 00:00:00 | 00:00:00 | |
| OE5WHR-10 | 2026-09-05 03:09:54 | 47.26671 | 12.31686 | 83° | 88km/h | 14423m | 5.2m/s | -60.3°C | 10.3% | 0hPa | 2.6V | 00:00:00 | 00:00:00 | 00:00:00 | |
| DO3MHA-12 | 2026-09-05 03:09:53 | 47.26668 | 12.31653 | 83° | 88km/h | 14418m | 4.5m/s | -60.3°C | 10.4% | 0hPa | 2.7V | 00:00:00 | 01:23:49 | 00:00:00 | |
| OE5MMP-10 | 2026-09-05 03:09:50 | 47.26660 | 12.31555 | 84° | 88km/h | 14404m | 4.2m/s | -60.3°C | 10.5% | 0hPa | 2.7V | 00:00:00 | 01:23:46 | 00:00:00 | |
| NBG1-10 | 2026-09-05 03:09:49 | 47.26657 | 12.31523 | 83° | 91km/h | 14399m | 5.3m/s | -60.2°C | 10.5% | 0hPa | 2.6V | 00:00:00 | 01:23:45 | 00:00:00 | |
| DO3MHA-11 | 2026-09-05 03:09:48 | 47.26654 | 12.31490 | 82° | 88km/h | 14394m | 4.4m/s | -60.2°C | 10.4% | 0hPa | 2.6V | 00:00:00 | 01:23:44 | 00:00:00 | |
| OE5DXL-15 | 2026-09-05 03:09:47 | 47.26650 | 12.31458 | 81° | 91km/h | 14389m | 4.6m/s | -60.3°C | 10.5% | 0hPa | 2.6V | 00:00:00 | 01:23:43 | 00:00:00 | |
| OE5DRO-10 | 2026-09-05 03:09:44 | 47.26638 | 12.31362 | 80° | 91km/h | 14376m | 4.6m/s | -60.3°C | 10.4% | 0hPa | 2.6V | 00:00:00 | 00:00:00 | 08:30:00 | |
| DB0NH | 2026-09-05 03:09:43 | 47.26634 | 12.31329 | 81° | 93km/h | 14371m | 4.0m/s | -60.3°C | 10.4% | 0hPa | 2.6V | 00:00:00 | 01:23:39 | 08:30:00 | |
| DL6DJ-15 | 2026-09-05 03:09:41 | 47.26627 | 12.31266 | 80° | 82km/h | 14362m | 4.4m/s | -60.4°C | 5.6% | -1.0hPa | 2.7V | 00:00:00 | 00:00:00 | 00:00:00 | |
| OE5MMP-10 | 2026-09-05 03:09:40 | 47.26623 | 12.31235 | 81° | 89km/h | 14358m | 3.8m/s | -60.3°C | 10.4% | 0hPa | 2.7V | 00:00:00 | 01:23:36 | 00:00:00 | |
| DO3MHA-11 | 2026-09-05 03:09:38 | 47.26616 | 12.31173 | 83° | 91km/h | 14349m | 4.1m/s | -60.3°C | 10.4% | 0hPa | 2.7V | 00:00:00 | 01:23:34 | 00:00:00 | |
| OE5HKT-10 | 2026-09-05 03:09:35 | 47.26610 | 12.31075 | 85° | 97km/h | 14334m | 5.8m/s | 0°C | 0% | 0hPa | 2.7V | 00:00:00 | 00:00:00 | 00:00:00 | |
| IN3HCDX | 2026-09-05 03:09:34 | 47.26609 | 12.31075 | 85° | 89km/h | 14334m | 5.8m/s | -60.2°C | 6.0% | 0hPa | 2.7V | 00:00:00 | 00:00:00 | 00:00:00 | |
| DO3MHA-12 | 2026-09-05 03:09:33 | 47.26604 | 12.31007 | 83° | 95km/h | 14325m | 3.6m/s | -60.1°C | 10.5% | 0hPa | 2.7V | 00:00:00 | 01:23:29 | 08:30:00 | |
| OE5MMP-10 | 2026-09-05 03:09:30 | 47.26597 | 12.30904 | 86° | 95km/h | 14312m | 3.8m/s | -60.1°C | 10.6% | 0hPa | 2.6V | 00:00:00 | 01:23:26 | 00:00:00 | |
| DO3MHA-11 | 2026-09-05 03:09:28 | 47.26593 | 12.30833 | 86° | 95km/h | 14303m | 4.3m/s | -60.1°C | 10.6% | 0hPa | 2.6V | 00:00:00 | 01:23:24 | 00:00:00 | |
| DB0UT-7 | 2026-09-05 03:09:26 | 47.26589 | 12.30762 | 86° | 100km/h | 14294m | 4.1m/s | -60.1°C | 10.6% | 0hPa | 2.7V | 00:00:00 | 01:23:22 | 00:00:00 | |
| OE5DRO-10 | 2026-09-05 03:09:25 | 47.26587 | 12.30727 | 85° | 99km/h | 14289m | 4.8m/s | -60.1°C | 10.7% | 0hPa | 2.7V | 00:00:00 | 00:00:00 | 00:00:00 | |
| DO3MHA-12 | 2026-09-05 03:09:23 | 47.26583 | 12.30656 | 86° | 97km/h | 14280m | 4.6m/s | -60.2°C | 10.9% | 0hPa | 2.7V | 00:00:00 | 01:23:19 | 00:00:00 | |
| PG1ADW-2 | 2026-09-05 03:09:20 | 47.26578 | 12.30550 | 87° | 100km/h | 14268m | 3.9m/s | -60.3°C | 11.2% | 0hPa | 2.7V | 00:00:00 | 00:00:00 | 00:00:00 | |
| DO3MHA-11 | 2026-09-05 03:09:18 | 47.26575 | 12.30478 | 87° | 99km/h | 14259m | 4.3m/s | -60.3°C | 11.3% | 0hPa | 2.7V | 00:00:00 | 01:23:14 | 00:00:00 | |
| OE5DXL-15 | 2026-09-05 03:09:17 | 47.26573 | 12.30442 | 87° | 102km/h | 14255m | 4.0m/s | -60.4°C | 11.4% | 0hPa | 2.7V | 00:00:00 | 00:00:00 | 00:00:00 | |
| NBG1-10 | 2026-09-05 03:09:16 | 47.26572 | 12.30405 | 87° | 104km/h | 14251m | 3.8m/s | -60.5°C | 11.5% | 0hPa | 2.7V | 00:00:00 | 01:23:12 | 00:00:00 | |
| DO3MHA-12 | 2026-09-05 03:09:13 | 47.26568 | 12.30296 | 87° | 100km/h | 14238m | 4.5m/s | -60.6°C | 11.8% | 0hPa | 2.7V | 00:00:00 | 01:23:09 | 00:00:00 | |
| OE5HKT-10 | 2026-09-05 03:09:11 | 47.26564 | 12.30223 | 86° | 106km/h | 14230m | 4.4m/s | 0°C | 0% | 0hPa | 2.7V | 00:00:00 | 00:00:00 | 00:00:00 | |
| OE5MMP-10 | 2026-09-05 03:09:10 | 47.26562 | 12.30187 | 87° | 100km/h | 14226m | 3.5m/s | -60.7°C | 12.1% | 0hPa | 2.7V | 00:00:00 | 01:23:06 | 00:00:00 | |
| DO3MHA-11 | 2026-09-05 03:09:08 | 47.26558 | 12.30112 | 86° | 102km/h | 14218m | 3.3m/s | -60.6°C | 12.2% | 0hPa | 2.7V | 00:00:00 | 01:23:04 | 00:00:00 | |
| OE5DRO-10 | 2026-09-05 03:09:06 | 47.26555 | 12.30037 | 87° | 106km/h | 14211m | 3.9m/s | -60.6°C | 12.2% | 0hPa | 2.7V | 00:00:00 | 00:00:00 | 00:00:00 | |
| OE3JTB-15 | 2026-09-05 03:09:04 | 47.26551 | 12.29962 | 86° | 108km/h | 14203m | 3.8m/s | -60.5°C | 12.3% | 0hPa | 2.7V | 00:00:00 | 01:23:00 | 00:00:00 | |
| DO3MHA-12 | 2026-09-05 03:09:03 | 47.26549 | 12.29924 | 87° | 106km/h | 14199m | 4.5m/s | -60.5°C | 12.4% | 0hPa | 2.7V | 00:00:00 | 01:22:59 | 00:00:00 | |
| OM5KV | 2026-09-05 03:09:02 | 47.26549 | 12.29924 | 87° | 100km/h | 14199m | 4.6m/s | 0°C | 0% | 0hPa | 2.7V | 00:00:00 | 00:00:00 | 00:00:00 | |
| OE5MMP-10 | 2026-09-05 03:09:00 | 47.26545 | 12.29810 | 87° | 106km/h | 14189m | 3.7m/s | -60.5°C | 12.6% | 0hPa | 2.7V | 00:00:00 | 01:22:56 | 00:00:00 | |
| DG1MFX-10 | 2026-09-05 03:08:58 | 47.26542 | 12.29731 | 88° | 106km/h | 14182m | 4.2m/s | -60.6°C | 7.9% | 0hPa | 2.7V | 00:00:00 | 00:00:00 | 00:00:00 | |
| S52SK | 2026-09-05 03:08:57 | 47.26542 | 12.29731 | 88° | 106km/h | 14182m | 4.2m/s | -60.6°C | 0% | 0hPa | 2.7V | 00:00:00 | 00:00:00 | 00:00:00 | |
| DB0UT-7 | 2026-09-05 03:08:56 | 47.26540 | 12.29653 | 90° | 110km/h | 14175m | 3.1m/s | -60.6°C | 13.1% | 0hPa | 2.7V | 00:00:00 | 00:00:00 | 00:00:00 | |
| DO3MHA-12 | 2026-09-05 03:08:53 | 47.26539 | 12.29533 | 90° | 108km/h | 14165m | 3.3m/s | -60.6°C | 13.2% | 0hPa | 2.7V | 00:00:00 | 01:22:49 | 00:00:00 | |
| S52SK | 2026-09-05 03:08:51 | 47.26539 | 12.29493 | 91° | 106km/h | 14162m | 3.3m/s | -60.6°C | 0% | 0hPa | 2.7V | 00:00:00 | 00:00:00 | 00:00:00 | |
| OE5WHR-10 | 2026-09-05 03:08:50 | 47.26539 | 12.29414 | 90° | 111km/h | 14156m | 3.7m/s | -60.5°C | 13.4% | 0hPa | 2.7V | 00:00:00 | 00:00:00 | 08:30:00 | |
| DO3MHA-11 | 2026-09-05 03:08:48 | 47.26537 | 12.29333 | 89° | 110km/h | 14150m | 3.6m/s | -60.6°C | 13.5% | 0hPa | 2.6V | 00:00:00 | 01:22:44 | 00:00:00 | |
| OE5DXL-15 | 2026-09-05 03:08:47 | 47.26537 | 12.29294 | 89° | 111km/h | 14146m | 2.7m/s | -60.7°C | 13.8% | 0hPa | 2.6V | 00:00:00 | 00:00:00 | 00:00:00 | |
| S52SK | 2026-09-05 03:08:46 | 47.26536 | 12.29294 | 89° | 106km/h | 14146m | 2.7m/s | -60.7°C | 0% | 0hPa | 2.6V | 00:00:00 | 00:00:00 | 00:00:00 | |
| DO3MHA-12 | 2026-09-05 03:08:43 | 47.26532 | 12.29133 | 88° | 113km/h | 14135m | 3.3m/s | -60.6°C | 14.0% | 0hPa | 2.6V | 00:00:00 | 01:22:39 | 00:00:00 | |
| PG1ADW-2 | 2026-09-05 03:08:40 | 47.26530 | 12.29009 | 89° | 111km/h | 14126m | 2.9m/s | -60.7°C | 14.2% | 0hPa | 2.6V | 00:00:00 | 00:00:00 | 00:00:00 | |
| DL6DJ-15 | 2026-09-05 03:08:39 | 47.26528 | 12.28925 | 88° | 111km/h | 14120m | 3.1m/s | -60.7°C | 8.8% | -1.0hPa | 2.6V | 00:00:00 | 00:00:00 | 00:00:00 | |
| DO3MHA-11 | 2026-09-05 03:08:38 | 47.26528 | 12.28925 | 89° | 113km/h | 14120m | 3.1m/s | -60.6°C | 14.3% | 0hPa | 2.6V | 00:00:00 | 01:22:34 | 00:00:00 | |
| DG1MFX-10 | 2026-09-05 03:08:37 | 47.26527 | 12.28882 | 89° | 115km/h | 14117m | 2.9m/s | -60.7°C | 9.2% | 0hPa | 2.6V | 00:00:00 | 00:00:00 | 00:00:00 | |
| DO3MHA-12 | 2026-09-05 03:08:33 | 47.26524 | 12.28713 | 89° | 111km/h | 14106m | 1.6m/s | -60.6°C | 14.7% | 0hPa | 2.6V | 00:00:00 | 01:22:29 | 00:00:00 | |
| IN3HCDX | 2026-09-05 03:08:31 | 47.26523 | 12.28671 | 89° | 113km/h | 14103m | 3.5m/s | -60.7°C | 9.5% | 0hPa | 2.6V | 00:00:00 | 00:00:00 | 00:00:00 | |
| OE5MMP-10 | 2026-09-05 03:08:30 | 47.26520 | 12.28586 | 87° | 110km/h | 14098m | 2.0m/s | -60.6°C | 15.0% | 0hPa | 2.6V | 00:00:00 | 01:22:26 | 00:00:00 | |
| OE5WHR-10 | 2026-09-05 03:08:29 | 47.26519 | 12.28545 | 88° | 108km/h | 14095m | 3.1m/s | -60.6°C | 15.0% | 0hPa | 2.6V | 00:00:00 | 00:00:00 | 00:00:00 | |
| DB0UT-7 | 2026-09-05 03:08:26 | 47.26515 | 12.28424 | 87° | 104km/h | 14087m | 2.4m/s | -60.6°C | 15.4% | 0hPa | 2.6V | 00:00:00 | 01:22:22 | 00:00:00 | |
| BAUMI2-15 | 2026-09-05 03:08:24 | 47.26512 | 12.28343 | 88° | 110km/h | 14081m | 2.1m/s | -60.7°C | 15.3% | 0hPa | 2.6V | 00:00:00 | 01:22:20 | 00:00:00 | |
| DO3MHA-12 | 2026-09-05 03:08:23 | 47.26510 | 12.28303 | 86° | 108km/h | 14078m | 3.6m/s | -60.7°C | 15.3% | 0hPa | 2.6V | 00:00:00 | 01:22:19 | 00:00:00 | |
| OE5MMP-10 | 2026-09-05 03:08:20 | 47.26502 | 12.28182 | 85° | 106km/h | 14071m | 3.5m/s | -60.7°C | 15.5% | 0hPa | 2.6V | 00:00:00 | 01:22:16 | 00:00:00 | |
| BAUMI2-15 | 2026-09-05 03:08:19 | 47.26500 | 12.28142 | 85° | 106km/h | 14068m | 2.6m/s | -60.7°C | 15.6% | 0hPa | 2.6V | 00:00:00 | 01:22:15 | 00:00:00 | |
| DO3MHA-11 | 2026-09-05 03:08:18 | 47.26497 | 12.28103 | 86° | 106km/h | 14065m | 3.0m/s | -60.7°C | 15.7% | 0hPa | 2.6V | 00:00:00 | 01:22:14 | 00:00:00 | |
| OE5DXL-15 | 2026-09-05 03:08:17 | 47.26495 | 12.28063 | 86° | 102km/h | 14062m | 3.0m/s | -60.6°C | 15.7% | 0hPa | 2.6V | 00:00:00 | 00:00:00 | 00:00:00 | |
| DG1MFX-10 | 2026-09-05 03:08:15 | 47.26493 | 12.28024 | 87° | 106km/h | 14059m | 2.8m/s | -60.7°C | 10.5% | 0hPa | 2.6V | 00:00:00 | 00:00:00 | 00:00:00 | |
| BAUMI2-15 | 2026-09-05 03:08:14 | 47.26489 | 12.27945 | 86° | 104km/h | 14052m | 3.2m/s | -60.8°C | 16.2% | 0hPa | 2.6V | 00:00:00 | 01:22:10 | 00:00:00 | |
| DO3MHA-12 | 2026-09-05 03:08:13 | 47.26487 | 12.27906 | 86° | 104km/h | 14049m | 2.5m/s | -60.9°C | 16.6% | 0hPa | 2.6V | 00:00:00 | 01:22:09 | 00:00:00 | |
| IN3HCDX | 2026-09-05 03:08:11 | 47.26485 | 12.27867 | 86° | 104km/h | 14047m | 3.0m/s | -61.0°C | 11.3% | 0hPa | 2.6V | 00:00:00 | 00:00:00 | 00:00:00 | |
| NBG1-10 | 2026-09-05 03:08:10 | 47.26480 | 12.27790 | 84° | 100km/h | 14041m | 2.4m/s | -61.0°C | 17.1% | 0hPa | 2.6V | 00:00:00 | 01:22:06 | 08:30:00 | |
| BAUMI2-15 | 2026-09-05 03:08:09 | 47.26477 | 12.27752 | 85° | 102km/h | 14038m | 2.9m/s | -61.1°C | 17.1% | 0hPa | 2.6V | 00:00:00 | 01:22:05 | 00:00:00 | |
| DL6DJ-15 | 2026-09-05 03:08:08 | 47.26472 | 12.27675 | 84° | 100km/h | 14033m | 3.6m/s | -61.7°C | 11.7% | -1.0hPa | 2.6V | 00:00:00 | 00:00:00 | 00:00:00 | |
| OE3JTB-15 | 2026-09-05 03:08:05 | 47.26467 | 12.27600 | 85° | 100km/h | 14027m | 3.8m/s | -62.3°C | 19.4% | 0hPa | 2.6V | 00:00:00 | 00:00:00 | 00:00:00 | |
| BAUMI2-15 | 2026-09-05 03:08:04 | 47.26464 | 12.27562 | 85° | 100km/h | 14024m | 2.4m/s | -62.5°C | 19.8% | 0hPa | 2.6V | 00:00:00 | 01:22:00 | 00:00:00 | |
| PG1ADW-2 | 2026-09-05 03:08:00 | 47.26456 | 12.27414 | 86° | 100km/h | 14012m | 2.5m/s | -62.6°C | 20.4% | 0hPa | 2.6V | 00:00:00 | 00:00:00 | 00:00:00 | |
| BAUMI2-15 | 2026-09-05 03:07:59 | 47.26453 | 12.27375 | 86° | 100km/h | 14010m | 2.1m/s | -62.7°C | 20.6% | 0hPa | 2.6V | 00:00:00 | 01:21:55 | 00:00:00 | |
| DO3MHA-11 | 2026-09-05 03:07:58 | 47.26451 | 12.27337 | 87° | 99km/h | 14006m | 3.7m/s | -62.7°C | 20.8% | 0hPa | 2.6V | 00:00:00 | 01:21:54 | 00:00:00 | |
| DB0UT-7 | 2026-09-05 03:07:56 | 47.26449 | 12.27263 | 89° | 100km/h | 14000m | 2.7m/s | -62.8°C | 20.9% | 0hPa | 2.6V | 00:00:00 | 00:00:00 | 00:00:00 | |
| DG1MFX-10 | 2026-09-05 03:07:55 | 47.26449 | 12.27263 | 90° | 99km/h | 14000m | 2.8m/s | -62.8°C | 14.2% | 0hPa | 2.6V | 00:00:00 | 00:00:00 | 00:00:00 | |
| BAUMI2-15 | 2026-09-05 03:07:54 | 47.26449 | 12.27190 | 90° | 99km/h | 13995m | 2.8m/s | -62.8°C | 21.1% | 0hPa | 2.6V | 00:00:00 | 01:21:50 | 00:00:00 | |
| DO3MHA-12 | 2026-09-05 03:07:53 | 47.26448 | 12.27153 | 90° | 99km/h | 13992m | 3.2m/s | -62.8°C | 21.2% | 0hPa | 2.6V | 00:00:00 | 01:21:49 | 00:00:00 | |
| OM5KV | 2026-09-05 03:07:52 | 47.26448 | 12.27153 | 91° | 97km/h | 13992m | 3.2m/s | 0°C | 0% | 0hPa | 2.6V | 00:00:00 | 00:00:00 | 00:00:00 | |
| OE5MMP-10 | 2026-09-05 03:07:50 | 47.26447 | 12.27044 | 88° | 99km/h | 13983m | 2.1m/s | -62.8°C | 21.4% | 0hPa | 2.6V | 00:00:00 | 01:21:46 | 00:00:00 | |
| BAUMI2-15 | 2026-09-05 03:07:49 | 47.26446 | 12.27007 | 89° | 99km/h | 13980m | 3.4m/s | -62.8°C | 21.4% | 0hPa | 2.6V | 00:00:00 | 01:21:45 | 08:30:00 | |
| DO3MHA-11 | 2026-09-05 03:07:48 | 47.26445 | 12.26971 | 89° | 100km/h | 13977m | 2.6m/s | -62.8°C | 21.4% | 0hPa | 2.6V | 00:00:00 | 01:21:44 | 00:00:00 | |
| OE5DXL-15 | 2026-09-05 03:07:47 | 47.26445 | 12.26935 | 89° | 100km/h | 13974m | 2.6m/s | -62.8°C | 21.3% | 0hPa | 2.6V | 00:00:00 | 00:00:00 | 00:00:00 | |
| BAUMI2-15 | 2026-09-05 03:07:44 | 47.26442 | 12.26825 | 88° | 100km/h | 13965m | 3.5m/s | -62.8°C | 21.4% | 0hPa | 2.6V | 00:00:00 | 01:21:40 | 00:00:00 | |
| DO3MHA-12 | 2026-09-05 03:07:43 | 47.26440 | 12.26788 | 88° | 102km/h | 13963m | 2.0m/s | -62.8°C | 21.5% | 0hPa | 2.6V | 00:00:00 | 01:21:39 | 00:00:00 | |
| OE5MMP-10 | 2026-09-05 03:07:40 | 47.26438 | 12.26675 | 89° | 102km/h | 13954m | 3.5m/s | -62.7°C | 21.4% | 0hPa | 2.6V | 00:00:00 | 01:21:36 | 00:00:00 | |
| BAUMI2-15 | 2026-09-05 03:07:39 | 47.26437 | 12.26637 | 90° | 102km/h | 13951m | 2.5m/s | -62.7°C | 21.3% | 0hPa | 2.6V | 00:00:00 | 01:21:35 | 00:00:00 | |
| DO3MHA-11 | 2026-09-05 03:07:38 | 47.26437 | 12.26599 | 90° | 102km/h | 13948m | 3.8m/s | -62.7°C | 21.1% | 0hPa | 2.6V | 00:00:00 | 01:21:34 | 00:00:00 | |
| DL6DJ-15 | 2026-09-05 03:07:37 | 47.26437 | 12.26522 | 90° | 102km/h | 13941m | 3.6m/s | -62.7°C | 14.1% | -1.0hPa | 2.6V | 00:00:00 | 00:00:00 | 00:00:00 | |
| OE3JTB-15 | 2026-09-05 03:07:36 | 47.26437 | 12.26522 | 91° | 99km/h | 13941m | 3.6m/s | -62.7°C | 21.2% | 0hPa | 2.6V | 00:00:00 | 01:21:32 | 00:00:00 | |
| BAUMI2-15 | 2026-09-05 03:07:34 | 47.26436 | 12.26446 | 90° | 100km/h | 13935m | 3.7m/s | -62.6°C | 21.0% | 0hPa | 2.6V | 00:00:00 | 01:21:30 | 00:00:00 | |
| DO3MHA-12 | 2026-09-05 03:07:33 | 47.26436 | 12.26408 | 89° | 99km/h | 13932m | 2.9m/s | -62.7°C | 20.9% | 0hPa | 2.6V | 00:00:00 | 01:21:29 | 00:00:00 | |
| OE5DRO-10 | 2026-09-05 03:07:31 | 47.26434 | 12.26333 | 88° | 97km/h | 13925m | 3.0m/s | -62.7°C | 20.9% | 0hPa | 2.7V | 00:00:00 | 00:00:00 | 00:00:00 | |
| OE5MMP-10 | 2026-09-05 03:07:30 | 47.26433 | 12.26296 | 87° | 99km/h | 13921m | 4.0m/s | -62.7°C | 20.8% | 0hPa | 2.7V | 00:00:00 | 01:21:26 | 00:00:00 | |
| BAUMI2-15 | 2026-09-05 03:07:29 | 47.26432 | 12.26259 | 87° | 99km/h | 13918m | 2.3m/s | -62.7°C | 20.7% | 0hPa | 2.7V | 00:00:00 | 01:21:25 | 00:00:00 | |
| DO3MHA-11 | 2026-09-05 03:07:28 | 47.26430 | 12.26222 | 88° | 97km/h | 13915m | 3.8m/s | -62.7°C | 20.9% | 0hPa | 2.7V | 00:00:00 | 01:21:24 | 00:00:00 | |
| OE5WHR-10 | 2026-09-05 03:07:26 | 47.26428 | 12.26149 | 88° | 99km/h | 13909m | 2.9m/s | -62.8°C | 21.0% | 0hPa | 2.6V | 00:00:00 | 00:00:00 | 00:00:00 | |
| S52SK | 2026-09-05 03:07:25 | 47.26428 | 12.26149 | 88° | 99km/h | 13909m | 3.0m/s | -62.8°C | 0% | 0hPa | 2.6V | 00:00:00 | 00:00:00 | 00:00:00 | |
| BAUMI2-15 | 2026-09-05 03:07:24 | 47.26426 | 12.26077 | 89° | 97km/h | 13902m | 3.6m/s | -62.8°C | 21.4% | 0hPa | 2.6V | 00:00:00 | 01:21:20 | 00:00:00 | |
| DO3MHA-12 | 2026-09-05 03:07:23 | 47.26426 | 12.26041 | 90° | 97km/h | 13899m | 3.0m/s | -62.8°C | 21.5% | 0hPa | 2.6V | 00:00:00 | 01:21:19 | 00:00:00 | |
| PG1ADW-2 | 2026-09-05 03:07:20 | 47.26424 | 12.25933 | 90° | 99km/h | 13889m | 3.6m/s | -62.8°C | 21.4% | 0hPa | 2.6V | 00:00:00 | 00:00:00 | 00:00:00 | |
| BAUMI2-15 | 2026-09-05 03:07:19 | 47.26424 | 12.25898 | 91° | 97km/h | 13885m | 3.6m/s | -62.8°C | 21.6% | 0hPa | 2.6V | 00:00:00 | 01:21:15 | 00:00:00 | |
| DO3MHA-11 | 2026-09-05 03:07:18 | 47.26424 | 12.25862 | 91° | 97km/h | 13882m | 2.5m/s | -62.8°C | 21.7% | 0hPa | 2.7V | 00:00:00 | 01:21:14 | 00:00:00 | |
| OE5DXL-15 | 2026-09-05 03:07:17 | 47.26424 | 12.25826 | 90° | 100km/h | 13879m | 3.6m/s | -63.0°C | 22.1% | 0hPa | 2.7V | 00:00:00 | 00:00:00 | 00:00:00 | |
| BAUMI2-15 | 2026-09-05 03:07:14 | 47.26425 | 12.25718 | 92° | 99km/h | 13869m | 2.9m/s | -63.4°C | 23.2% | 0hPa | 2.6V | 00:00:00 | 01:21:10 | 00:00:00 | |
| DO3MHA-12 | 2026-09-05 03:07:13 | 47.26425 | 12.25682 | 91° | 99km/h | 13865m | 4.2m/s | -63.3°C | 23.0% | 0hPa | 2.6V | 00:00:00 | 01:21:09 | 00:00:00 | |
| OE5DRO-10 | 2026-09-05 03:07:12 | 47.26425 | 12.25645 | 91° | 100km/h | 13861m | 3.2m/s | -63.3°C | 23.0% | 0hPa | 2.6V | 00:00:00 | 00:00:00 | 00:00:00 | |
| OE5MMP-10 | 2026-09-05 03:07:10 | 47.26426 | 12.25573 | 92° | 99km/h | 13854m | 3.4m/s | -63.4°C | 22.8% | 0hPa | 2.6V | 00:00:00 | 01:21:06 | 00:00:00 | |
| BAUMI2-15 | 2026-09-05 03:07:09 | 47.26427 | 12.25536 | 92° | 99km/h | 13851m | 3.4m/s | -63.5°C | 22.8% | 0hPa | 2.6V | 00:00:00 | 01:21:05 | 00:00:00 | |
| DO3MHA-11 | 2026-09-05 03:07:08 | 47.26427 | 12.25499 | 91° | 99km/h | 13847m | 3.2m/s | -63.7°C | 22.9% | 0hPa | 2.6V | 00:00:00 | 01:21:04 | 00:00:00 | |
| OE3JTB-15 | 2026-09-05 03:07:07 | 47.26428 | 12.25462 | 92° | 102km/h | 13844m | 2.9m/s | -63.9°C | 23.3% | 0hPa | 2.6V | 00:00:00 | 00:00:00 | 08:30:00 | |
| DL6DJ-15 | 2026-09-05 03:07:05 | 47.26430 | 12.25389 | 92° | 97km/h | 13837m | 2.9m/s | -64.1°C | 15.8% | -1.0hPa | 2.7V | 00:00:00 | 00:00:00 | 00:00:00 | |
| NBG1-10 | 2026-09-05 03:07:04 | 47.26431 | 12.25353 | 93° | 104km/h | 13833m | 4.6m/s | -64.0°C | 23.5% | 0hPa | 2.7V | 00:00:00 | 01:21:00 | 00:00:00 | |
| DO3MHA-12 | 2026-09-05 03:07:03 | 47.26432 | 12.25317 | 92° | 102km/h | 13829m | 3.3m/s | -64.0°C | 23.3% | 0hPa | 2.7V | 00:00:00 | 01:20:59 | 00:00:00 | |
| PG1ADW-2 | 2026-09-05 03:07:00 | 47.26434 | 12.25206 | 92° | 104km/h | 13818m | 3.7m/s | -64.0°C | 23.3% | 0hPa | 2.7V | 00:00:00 | 01:20:56 | 00:00:00 | |
| BAUMI2-15 | 2026-09-05 03:06:59 | 47.26434 | 12.25169 | 92° | 102km/h | 13814m | 3.3m/s | -64.0°C | 23.3% | 0hPa | 2.7V | 00:00:00 | 01:20:55 | 00:00:00 | |
| DO3MHA-11 | 2026-09-05 03:06:58 | 47.26435 | 12.25131 | 93° | 104km/h | 13811m | 2.6m/s | -64.0°C | 23.1% | 0hPa | 2.7V | 00:00:00 | 01:20:54 | 08:30:00 | |
| DB0UT-7 | 2026-09-05 03:06:56 | 47.26439 | 12.25054 | 96° | 104km/h | 13804m | 3.7m/s | -63.9°C | 22.9% | 0hPa | 2.6V | 00:00:00 | 00:00:00 | 00:00:00 | |
| BAUMI2-15 | 2026-09-05 03:06:54 | 47.26443 | 12.24978 | 94° | 104km/h | 13796m | 3.5m/s | -63.8°C | 22.7% | 0hPa | 2.6V | 00:00:00 | 01:20:50 | 00:00:00 | |
| DO3MHA-12 | 2026-09-05 03:06:53 | 47.26444 | 12.24940 | 93° | 104km/h | 13792m | 3.2m/s | -63.8°C | 22.4% | 0hPa | 2.6V | 00:00:00 | 01:20:49 | 00:00:00 | |
| DG1MFX-10 | 2026-09-05 03:06:52 | 47.26444 | 12.24940 | 94° | 104km/h | 13792m | 3.3m/s | -63.9°C | 15.3% | 0hPa | 2.6V | 00:00:00 | 00:00:00 | 00:00:00 | |
| OE5MMP-10 | 2026-09-05 03:06:50 | 47.26449 | 12.24823 | 94° | 104km/h | 13780m | 4.3m/s | -63.7°C | 22.1% | 0hPa | 2.6V | 00:00:00 | 01:20:46 | 00:00:00 | |
| BAUMI2-15 | 2026-09-05 03:06:49 | 47.26451 | 12.24784 | 93° | 104km/h | 13775m | 3.9m/s | -63.6°C | 22.1% | 0hPa | 2.6V | 00:00:00 | 01:20:45 | 00:00:00 | |
| DO3MHA-11 | 2026-09-05 03:06:48 | 47.26452 | 12.24746 | 94° | 104km/h | 13771m | 3.9m/s | -63.6°C | 22.0% | 0hPa | 2.7V | 00:00:00 | 01:20:44 | 00:00:00 | |
| OE5DXL-15 | 2026-09-05 03:06:47 | 47.26454 | 12.24707 | 95° | 106km/h | 13767m | 4.0m/s | -63.6°C | 21.9% | 0hPa | 2.7V | 00:00:00 | 00:00:00 | 00:00:00 | |
| BAUMI2-15 | 2026-09-05 03:06:44 | 47.26459 | 12.24592 | 94° | 104km/h | 13755m | 3.4m/s | -63.5°C | 22.0% | 0hPa | 2.7V | 00:00:00 | 01:20:40 | 00:00:00 | |
| DO3MHA-12 | 2026-09-05 03:06:43 | 47.26460 | 12.24554 | 94° | 104km/h | 13751m | 4.3m/s | -63.4°C | 21.8% | 0hPa | 2.7V | 00:00:00 | 01:20:39 | 00:00:00 | |
| OE5WHR-10 | 2026-09-05 03:06:41 | 47.26463 | 12.24477 | 93° | 106km/h | 13742m | 4.3m/s | -63.5°C | 22.2% | 0hPa | 2.7V | 00:00:00 | 00:00:00 | 00:00:00 | |
| PG1ADW-2 | 2026-09-05 03:06:40 | 47.26464 | 12.24439 | 92° | 106km/h | 13738m | 3.4m/s | -63.5°C | 22.3% | 0hPa | 2.6V | 00:00:00 | 00:00:00 | 00:00:00 | |
| DO3MHA-11 | 2026-09-05 03:06:38 | 47.26467 | 12.24361 | 93° | 106km/h | 13730m | 3.8m/s | -63.5°C | 22.2% | 0hPa | 2.6V | 00:00:00 | 01:20:34 | 00:00:00 | |
| DL6DJ-15 | 2026-09-05 03:06:34 | 47.26470 | 12.24205 | 92° | 106km/h | 13712m | 4.8m/s | -63.4°C | 14.9% | -1.0hPa | 2.6V | 00:00:00 | 00:00:00 | 00:00:00 | |
| DO3MHA-12 | 2026-09-05 03:06:33 | 47.26471 | 12.24165 | 93° | 106km/h | 13707m | 3.4m/s | -63.3°C | 22.2% | 0hPa | 2.6V | 00:00:00 | 01:20:29 | 08:30:00 | |
| NBG1-10 | 2026-09-05 03:06:31 | 47.26473 | 12.24087 | 93° | 106km/h | 13698m | 4.6m/s | -63.2°C | 22.1% | 0hPa | 2.6V | 00:00:00 | 01:20:27 | 00:00:00 | |
| OE5MMP-10 | 2026-09-05 03:06:30 | 47.26474 | 12.24048 | 94° | 106km/h | 13693m | 5.0m/s | -63.2°C | 22.0% | 0hPa | 2.6V | 00:00:00 | 01:20:26 | 00:00:00 | |
| DO3MHA-11 | 2026-09-05 03:06:28 | 47.26478 | 12.23971 | 95° | 106km/h | 13684m | 4.6m/s | -63.1°C | 21.9% | 0hPa | 2.6V | 00:00:00 | 01:20:24 | 00:00:00 | |
| DB0UT-7 | 2026-09-05 03:06:26 | 47.26481 | 12.23892 | 93° | 108km/h | 13675m | 3.7m/s | -63.1°C | 21.8% | 0hPa | 2.6V | 00:00:00 | 01:20:22 | 08:30:00 | |
| IN3HCDX | 2026-09-05 03:06:25 | 47.26481 | 12.23892 | 94° | 108km/h | 13675m | 3.8m/s | -63.1°C | 14.8% | 0hPa | 2.7V | 00:00:00 | 00:00:00 | 00:00:00 | |
| DO3MHA-12 | 2026-09-05 03:06:23 | 47.26485 | 12.23772 | 94° | 106km/h | 13660m | 4.5m/s | -62.9°C | 21.4% | 0hPa | 2.7V | 00:00:00 | 01:20:19 | 00:00:00 | |
| OE5WHR-10 | 2026-09-05 03:06:20 | 47.26489 | 12.23653 | 94° | 108km/h | 13646m | 4.9m/s | -62.8°C | 21.3% | 0hPa | 2.7V | 00:00:00 | 00:00:00 | 00:00:00 | |
| DO3MHA-11 | 2026-09-05 03:06:18 | 47.26492 | 12.23575 | 93° | 108km/h | 13636m | 4.6m/s | -62.7°C | 21.2% | 0hPa | 2.7V | 00:00:00 | 01:20:14 | 00:00:00 | |
| OE5DXL-15 | 2026-09-05 03:06:17 | 47.26494 | 12.23536 | 94° | 108km/h | 13632m | 4.0m/s | -62.6°C | 21.0% | 0hPa | 2.7V | 00:00:00 | 00:00:00 | 00:00:00 | |
| OE5DRO-10 | 2026-09-05 03:06:15 | 47.26497 | 12.23457 | 95° | 108km/h | 13622m | 4.5m/s | -62.6°C | 20.9% | 0hPa | 2.7V | 00:00:00 | 00:00:00 | 00:00:00 | |
| DO3MHA-12 | 2026-09-05 03:06:13 | 47.26501 | 12.23378 | 95° | 110km/h | 13613m | 4.2m/s | -62.5°C | 20.7% | 0hPa | 2.7V | 00:00:00 | 01:20:09 | 00:00:00 | |
| OE5MMP-10 | 2026-09-05 03:06:10 | 47.26508 | 12.23258 | 95° | 108km/h | 13598m | 5.4m/s | -62.4°C | 20.7% | 0hPa | 2.7V | 00:00:00 | 01:20:06 | 00:00:00 | |
| DO3MHA-11 | 2026-09-05 03:06:08 | 47.26512 | 12.23178 | 95° | 108km/h | 13589m | 5.4m/s | -62.3°C | 20.4% | 0hPa | 2.7V | 00:00:00 | 01:20:04 | 00:00:00 | |
| S52SK | 2026-09-05 03:06:06 | 47.26514 | 12.23138 | 96° | 108km/h | 13584m | 5.2m/s | -62.4°C | 0% | 0hPa | 2.7V | 00:00:00 | 00:00:00 | 00:00:00 | |
| IN3HCDX | 2026-09-05 03:06:04 | 47.26518 | 12.23056 | 95° | 111km/h | 13574m | 4.6m/s | -62.3°C | 14.0% | 0hPa | 2.7V | 00:00:00 | 00:00:00 | 00:00:00 | |
| DL6DJ-15 | 2026-09-05 03:06:03 | 47.26522 | 12.22975 | 93° | 106km/h | 13564m | 5.0m/s | -62.2°C | 13.4% | -1.0hPa | 2.7V | 00:00:00 | 00:00:00 | 00:00:00 | |
| S52SK | 2026-09-05 03:06:01 | 47.26523 | 12.22936 | 94° | 104km/h | 13559m | 4.5m/s | 0°C | 0% | 0hPa | 2.7V | 00:00:00 | 00:00:00 | 00:00:00 | |
| PG1ADW-2 | 2026-09-05 03:06:00 | 47.26525 | 12.22858 | 92° | 108km/h | 13549m | 4.0m/s | -62.0°C | 20.0% | 0hPa | 2.7V | 00:00:00 | 00:00:00 | 00:00:00 | |
| OE5WHR-10 | 2026-09-05 03:05:59 | 47.26525 | 12.22819 | 92° | 108km/h | 13545m | 5.3m/s | -62.0°C | 20.0% | 0hPa | 2.7V | 00:00:00 | 01:19:55 | 00:00:00 | |
| NBG1-10 | 2026-09-05 03:05:58 | 47.26527 | 12.22780 | 94° | 108km/h | 13540m | 4.9m/s | -62.0°C | 20.0% | 0hPa | 2.7V | 00:00:00 | 01:19:54 | 00:00:00 | |
| DB0UT-7 | 2026-09-05 03:05:56 | 47.26530 | 12.22701 | 95° | 108km/h | 13530m | 5.3m/s | -61.9°C | 19.8% | 0hPa | 2.7V | 00:00:00 | 00:00:00 | 00:00:00 | |
| S52SK | 2026-09-05 03:05:55 | 47.26530 | 12.22701 | 96° | 110km/h | 13530m | 5.3m/s | 0°C | 0% | 0hPa | 2.7V | 00:00:00 | 00:00:00 | 00:00:00 | |
| DO3MHA-12 | 2026-09-05 03:05:53 | 47.26539 | 12.22580 | 96° | 108km/h | 13515m | 5.3m/s | -61.9°C | 20.3% | 0hPa | 2.7V | 00:00:00 | 01:19:49 | 00:00:00 | |
| OE5MMP-10 | 2026-09-05 03:05:50 | 47.26547 | 12.22458 | 96° | 108km/h | 13502m | 5.6m/s | -61.7°C | 20.2% | 0hPa | 2.7V | 00:00:00 | 01:19:46 | 08:30:00 | |
| DO3MHA-11 | 2026-09-05 03:05:48 | 47.26552 | 12.22377 | 96° | 108km/h | 13492m | 4.9m/s | -61.7°C | 20.0% | 0hPa | 2.6V | 00:00:00 | 01:19:44 | 00:00:00 | |
| OE5DXL-15 | 2026-09-05 03:05:47 | 47.26554 | 12.22337 | 95° | 108km/h | 13487m | 5.2m/s | -61.7°C | 20.1% | 0hPa | 2.6V | 00:00:00 | 00:00:00 | 08:30:00 | |
| IN3HCDX | 2026-09-05 03:05:44 | 47.26559 | 12.22259 | 95° | 104km/h | 13477m | 4.3m/s | -61.6°C | 13.8% | 0hPa | 2.6V | 00:00:00 | 00:00:00 | 00:00:00 | |
| DO3MHA-12 | 2026-09-05 03:05:43 | 47.26562 | 12.22181 | 93° | 111km/h | 13467m | 5.3m/s | -61.5°C | 20.0% | 0hPa | 2.6V | 00:00:00 | 01:19:39 | 00:00:00 | |
| DB0NH | 2026-09-05 03:05:42 | 47.26564 | 12.22141 | 94° | 108km/h | 13462m | 4.5m/s | 0°C | 0% | 0hPa | 2.6V | 00:00:00 | 01:19:38 | 00:00:00 | |
| OE5MMP-10 | 2026-09-05 03:05:40 | 47.26567 | 12.22060 | 95° | 111km/h | 13451m | 5.6m/s | -61.3°C | 19.6% | 0hPa | 2.6V | 00:00:00 | 01:19:36 | 00:00:00 | |
| DO3MHA-11 | 2026-09-05 03:05:38 | 47.26571 | 12.21977 | 94° | 110km/h | 13440m | 5.0m/s | -61.1°C | 19.4% | 0hPa | 2.6V | 00:00:00 | 01:19:34 | 00:00:00 | |
| OE5DRO-10 | 2026-09-05 03:05:37 | 47.26573 | 12.21935 | 94° | 108km/h | 13435m | 5.3m/s | -61.0°C | 19.4% | 0hPa | 2.6V | 00:00:00 | 00:00:00 | 00:00:00 | |
| DO3MHA-12 | 2026-09-05 03:05:33 | 47.26578 | 12.21765 | 94° | 104km/h | 13415m | 5.6m/s | -60.8°C | 19.5% | 0hPa | 2.6V | 00:00:00 | 01:19:29 | 00:00:00 | |
| DL6DJ-15 | 2026-09-05 03:05:32 | 47.26580 | 12.21724 | 93° | 106km/h | 13409m | 5.8m/s | -60.8°C | 13.0% | -1.0hPa | 2.6V | 00:00:00 | 00:00:00 | 00:00:00 | |
| OE5MMP-10 | 2026-09-05 03:05:30 | 47.26582 | 12.21648 | 93° | 106km/h | 13399m | 4.1m/s | -60.7°C | 19.6% | 0hPa | 2.6V | 00:00:00 | 01:19:26 | 00:00:00 | |
| OE3JTB-15 | 2026-09-05 03:05:29 | 47.26584 | 12.21610 | 94° | 106km/h | 13394m | 5.7m/s | -60.7°C | 19.7% | 0hPa | 2.6V | 00:00:00 | 01:19:25 | 00:00:00 | |
| DO3MHA-11 | 2026-09-05 03:05:28 | 47.26585 | 12.21573 | 95° | 108km/h | 13389m | 3.9m/s | -60.7°C | 19.7% | 0hPa | 2.6V | 00:00:00 | 01:19:24 | 08:30:00 | |
| DB0UT-7 | 2026-09-05 03:05:26 | 47.26589 | 12.21498 | 93° | 106km/h | 13380m | 4.9m/s | -60.6°C | 19.4% | 0hPa | 2.6V | 00:00:00 | 01:19:22 | 00:00:00 | |
| NBG1-10 | 2026-09-05 03:05:25 | 47.26590 | 12.21460 | 93° | 106km/h | 13375m | 5.0m/s | -60.6°C | 19.4% | 0hPa | 2.6V | 00:00:00 | 01:19:21 | 00:00:00 | |
| IN3HCDX | 2026-09-05 03:05:24 | 47.26590 | 12.21459 | 93° | 104km/h | 13375m | 5.1m/s | -60.6°C | 13.4% | 0hPa | 2.6V | 00:00:00 | 00:00:00 | 00:00:00 | |
| DO3MHA-12 | 2026-09-05 03:05:23 | 47.26592 | 12.21379 | 93° | 106km/h | 13365m | 4.4m/s | -60.5°C | 19.4% | 0hPa | 2.6V | 00:00:00 | 01:19:19 | 00:00:00 | |
| PG1ADW-2 | 2026-09-05 03:05:20 | 47.26596 | 12.21254 | 92° | 104km/h | 13350m | 5.7m/s | -60.4°C | 19.8% | 0hPa | 2.6V | 00:00:00 | 00:00:00 | 00:00:00 | |
| DO3MHA-11 | 2026-09-05 03:05:18 | 47.26597 | 12.21176 | 91° | 104km/h | 13340m | 3.8m/s | -60.4°C | 20.2% | 0hPa | 2.6V | 00:00:00 | 01:19:14 | 00:00:00 | |
| OE5WHR-10 | 2026-09-05 03:05:17 | 47.26597 | 12.21138 | 92° | 104km/h | 13336m | 5.2m/s | -60.4°C | 20.3% | 0hPa | 2.6V | 00:00:00 | 00:00:00 | 00:00:00 | |
| DO3MHA-12 | 2026-09-05 03:05:13 | 47.26599 | 12.20984 | 91° | 106km/h | 13318m | 4.9m/s | -60.4°C | 21.7% | 0hPa | 2.6V | 00:00:00 | 01:19:09 | 00:00:00 | |
| DB0NH | 2026-09-05 03:05:11 | 47.26599 | 12.20905 | 90° | 108km/h | 13309m | 4.5m/s | 0°C | 0% | 0hPa | 2.6V | 00:00:00 | 01:19:07 | 00:00:00 | |
| OE5MMP-10 | 2026-09-05 03:05:10 | 47.26599 | 12.20865 | 90° | 104km/h | 13305m | 3.6m/s | -60.4°C | 22.4% | 0hPa | 2.6V | 00:00:00 | 01:19:06 | 00:00:00 | |
| DG1MFX-10 | 2026-09-05 03:05:09 | 47.26599 | 12.20865 | 91° | 106km/h | 13305m | 3.7m/s | -60.4°C | 16.0% | 0hPa | 2.6V | 00:00:00 | 00:00:00 | 00:00:00 | |
| DO3MHA-11 | 2026-09-05 03:05:08 | 47.26599 | 12.20787 | 92° | 104km/h | 13297m | 3.2m/s | -60.4°C | 22.9% | 0hPa | 2.6V | 00:00:00 | 01:19:04 | 00:00:00 | |
| DO3MHA-12 | 2026-09-05 03:05:03 | 47.26603 | 12.20593 | 91° | 106km/h | 13277m | 3.3m/s | -60.4°C | 24.0% | 0hPa | 2.6V | 00:00:00 | 01:18:59 | 08:30:00 | |
| DL6DJ-15 | 2026-09-05 03:05:01 | 47.26603 | 12.20515 | 90° | 106km/h | 13269m | 4.1m/s | -60.4°C | 17.3% | -1.0hPa | 2.7V | 00:00:00 | 00:00:00 | 00:00:00 | |
| OE5MMP-10 | 2026-09-05 03:05:00 | 47.26603 | 12.20475 | 91° | 108km/h | 13265m | 3.9m/s | -60.3°C | 24.5% | 0hPa | 2.7V | 00:00:00 | 01:18:56 | 00:00:00 | |
| OE5DRO-10 | 2026-09-05 03:04:59 | 47.26603 | 12.20436 | 91° | 108km/h | 13261m | 4.3m/s | -60.4°C | 24.8% | 0hPa | 2.7V | 00:00:00 | 00:00:00 | 00:00:00 | |
| DO3MHA-11 | 2026-09-05 03:04:58 | 47.26603 | 12.20397 | 91° | 108km/h | 13257m | 3.5m/s | -60.4°C | 25.2% | 0hPa | 2.7V | 00:00:00 | 01:18:54 | 00:00:00 | |
| OE5WHR-10 | 2026-09-05 03:04:56 | 47.26604 | 12.20317 | 91° | 110km/h | 13249m | 3.3m/s | -60.3°C | 25.7% | 0hPa | 2.6V | 00:00:00 | 01:18:52 | 00:00:00 | |
| DB0UT-7 | 2026-09-05 03:04:55 | 47.26604 | 12.20277 | 90° | 111km/h | 13245m | 3.9m/s | -60.3°C | 25.8% | 0hPa | 2.6V | 00:00:00 | 00:00:00 | 00:00:00 | |
| DO3MHA-12 | 2026-09-05 03:04:52 | 47.26603 | 12.20158 | 89° | 110km/h | 13234m | 4.4m/s | -60.4°C | 26.4% | 0hPa | 2.6V | 00:00:00 | 01:18:48 | 00:00:00 | |
| IN3IJJ | 2026-09-05 03:04:51 | 47.26603 | 12.20158 | 89° | 108km/h | 13234m | 4.4m/s | -60.4°C | 19.4% | 0hPa | 2.6V | 00:00:00 | 00:00:00 | 00:00:00 | |
| OE5MMP-10 | 2026-09-05 03:04:50 | 47.26601 | 12.20077 | 88° | 110km/h | 13226m | 3.7m/s | -60.4°C | 26.8% | 0hPa | 2.6V | 00:00:00 | 01:18:46 | 00:00:00 | |
| DG1MFX-10 | 2026-09-05 03:04:49 | 47.26599 | 12.20038 | 89° | 108km/h | 13222m | 3.9m/s | -60.4°C | 20.0% | 0hPa | 2.6V | 00:00:00 | 00:00:00 | 00:00:00 | |
| DO3MHA-11 | 2026-09-05 03:04:48 | 47.26599 | 12.19998 | 89° | 110km/h | 13219m | 2.9m/s | -60.4°C | 27.3% | 0hPa | 2.6V | 00:00:00 | 01:18:44 | 00:00:00 | |
| OE5DXL-15 | 2026-09-05 03:04:47 | 47.26598 | 12.19958 | 89° | 113km/h | 13215m | 4.7m/s | -60.4°C | 27.4% | 0hPa | 2.6V | 00:00:00 | 00:00:00 | 00:00:00 | |
| DO3MHA-12 | 2026-09-05 03:04:42 | 47.26594 | 12.19753 | 88° | 111km/h | 13195m | 3.6m/s | -60.5°C | 28.3% | 0hPa | 2.6V | 00:00:00 | 01:18:38 | 00:00:00 | |
| DB0NH | 2026-09-05 03:04:41 | 47.26593 | 12.19712 | 88° | 111km/h | 13191m | 3.8m/s | 0°C | 0% | 0hPa | 2.6V | 00:00:00 | 01:18:37 | 00:00:00 | |
| PG1ADW-2 | 2026-09-05 03:04:40 | 47.26592 | 12.19671 | 88° | 113km/h | 13187m | 3.8m/s | -60.6°C | 29.0% | 0hPa | 2.6V | 00:00:00 | 00:00:00 | 08:30:00 | |
| DO3MHA-11 | 2026-09-05 03:04:38 | 47.26588 | 12.19591 | 87° | 113km/h | 13180m | 4.3m/s | -60.7°C | 29.2% | 0hPa | 2.6V | 00:00:00 | 01:18:34 | 00:00:00 | |
| S52SK | 2026-09-05 03:04:36 | 47.26586 | 12.19550 | 87° | 111km/h | 13177m | 3.5m/s | 0°C | 0% | 0hPa | 2.6V | 00:00:00 | 00:00:00 | 00:00:00 | |
| OE5WHR-10 | 2026-09-05 03:04:35 | 47.26583 | 12.19468 | 87° | 115km/h | 13169m | 3.5m/s | 0°C | 0% | 0hPa | 2.6V | 00:00:00 | 00:00:00 | 00:00:00 | |
| BAUMI2-15 | 2026-09-05 03:04:33 | 47.26579 | 12.19385 | 87° | 113km/h | 13162m | 3.0m/s | -60.8°C | 30.4% | 0hPa | 2.6V | 00:00:00 | 01:18:29 | 00:00:00 | |
| DO3MHA-12 | 2026-09-05 03:04:32 | 47.26577 | 12.19342 | 86° | 115km/h | 13158m | 3.7m/s | -60.8°C | 30.6% | 0hPa | 2.7V | 00:00:00 | 01:18:28 | 00:00:00 | |
| OE5MMP-10 | 2026-09-05 03:04:30 | 47.26573 | 12.19258 | 86° | 115km/h | 13151m | 3.3m/s | -60.7°C | 30.8% | 0hPa | 2.6V | 00:00:00 | 01:18:26 | 00:00:00 | |
| DO3MHA-11 | 2026-09-05 03:04:28 | 47.26568 | 12.19173 | 86° | 115km/h | 13144m | 2.5m/s | -60.7°C | 31.2% | 0hPa | 2.6V | 00:00:00 | 01:18:24 | 00:00:00 | |
| DG1MFX-10 | 2026-09-05 03:04:27 | 47.26568 | 12.19173 | 86° | 117km/h | 13144m | 2.6m/s | -60.7°C | 23.4% | 0hPa | 2.7V | 00:00:00 | 00:00:00 | 00:00:00 | |
| DB0UT-7 | 2026-09-05 03:04:25 | 47.26560 | 12.19047 | 84° | 95km/h | 13133m | 3.5m/s | -60.6°C | 31.5% | 0hPa | 2.7V | 00:00:00 | 01:18:21 | 00:00:00 | |
| BAUMI2-15 | 2026-09-05 03:04:23 | 47.26554 | 12.18963 | 84° | 117km/h | 13125m | 4.2m/s | -60.6°C | 31.6% | 0hPa | 2.7V | 00:00:00 | 01:18:19 | 00:00:00 | |
| DO3MHA-12 | 2026-09-05 03:04:22 | 47.26551 | 12.18921 | 83° | 117km/h | 13121m | 3.3m/s | -60.7°C | 31.8% | 0hPa | 2.7V | 00:00:00 | 01:18:18 | 00:00:00 | |
| OE5DRO-10 | 2026-09-05 03:04:21 | 47.26547 | 12.18878 | 82° | 115km/h | 13117m | 4.3m/s | -60.7°C | 32.2% | 0hPa | 2.7V | 00:00:00 | 00:00:00 | 00:00:00 | |
| OE5MMP-10 | 2026-09-05 03:04:20 | 47.26542 | 12.18835 | 82° | 117km/h | 13114m | 3.4m/s | -60.8°C | 32.5% | 0hPa | 2.7V | 00:00:00 | 01:18:16 | 08:30:00 | |
| NBG1-10 | 2026-09-05 03:04:19 | 47.26538 | 12.18792 | 83° | 111km/h | 13110m | 4.2m/s | -60.8°C | 32.5% | 0hPa | 2.6V | 00:00:00 | 01:18:15 | 00:00:00 | |
| DO3MHA-11 | 2026-09-05 03:04:18 | 47.26534 | 12.18749 | 83° | 117km/h | 13106m | 3.4m/s | -60.9°C | 32.7% | 0hPa | 2.6V | 00:00:00 | 01:18:14 | 00:00:00 | |
| OE5DXL-15 | 2026-09-05 03:04:17 | 47.26530 | 12.18706 | 82° | 110km/h | 13102m | 4.2m/s | -60.9°C | 32.9% | 0hPa | 2.6V | 00:00:00 | 00:00:00 | 00:00:00 | |
| OE5WHR-10 | 2026-09-05 03:04:14 | 47.26517 | 12.18577 | 83° | 111km/h | 13091m | 3.9m/s | 0°C | 0% | 0hPa | 2.7V | 00:00:00 | 00:00:00 | 00:00:00 | |
| BAUMI2-15 | 2026-09-05 03:04:13 | 47.26513 | 12.18534 | 83° | 115km/h | 13088m | 3.1m/s | -60.9°C | 33.5% | 0hPa | 2.7V | 00:00:00 | 01:18:09 | 00:00:00 | |
| DO3MHA-12 | 2026-09-05 03:04:12 | 47.26509 | 12.18491 | 82° | 111km/h | 13084m | 3.9m/s | -61.0°C | 33.8% | 0hPa | 2.7V | 00:00:00 | 01:18:08 | 00:00:00 | |
| OE5MMP-10 | 2026-09-05 03:04:10 | 47.26500 | 12.18407 | 83° | 110km/h | 13078m | 4.0m/s | -61.0°C | 34.2% | 0hPa | 2.7V | 00:00:00 | 01:18:06 | 00:00:00 | |
| DO3MHA-11 | 2026-09-05 03:04:08 | 47.26492 | 12.18323 | 82° | 108km/h | 13070m | 4.7m/s | -61.0°C | 35.0% | 0hPa | 2.7V | 00:00:00 | 01:18:04 | 00:00:00 | |
| DG1MFX-10 | 2026-09-05 03:04:06 | 47.26488 | 12.18282 | 81° | 111km/h | 13066m | 2.8m/s | -61.1°C | 27.2% | 0hPa | 2.7V | 00:00:00 | 00:00:00 | 00:00:00 | |
| BAUMI2-15 | 2026-09-05 03:04:03 | 47.26470 | 12.18122 | 81° | 106km/h | 13053m | 3.5m/s | -61.1°C | 36.9% | 0hPa | 2.7V | 00:00:00 | 01:17:59 | 00:00:00 | |
| DL6DJ-15 | 2026-09-05 03:03:59 | 47.26452 | 12.17966 | 78° | 106km/h | 13039m | 4.2m/s | -61.2°C | 28.6% | -1.0hPa | 2.7V | 00:00:00 | 00:00:00 | 00:00:00 | |
| DO3MHA-11 | 2026-09-05 03:03:58 | 47.26446 | 12.17927 | 78° | 108km/h | 13036m | 2.9m/s | -61.1°C | 38.2% | 0hPa | 2.7V | 00:00:00 | 01:17:54 | 08:30:00 | |
| OE5WHR-10 | 2026-09-05 03:03:53 | 47.26417 | 12.17730 | 78° | 108km/h | 13020m | 3.2m/s | 0°C | 0% | 0hPa | 2.7V | 00:00:00 | 01:17:49 | 00:00:00 | |
| DO3MHA-12 | 2026-09-05 03:03:52 | 47.26411 | 12.17691 | 78° | 106km/h | 13017m | 2.5m/s | -61.1°C | 39.0% | 0hPa | 2.7V | 00:00:00 | 01:17:48 | 00:00:00 | |
| OE5MMP-10 | 2026-09-05 03:03:50 | 47.26400 | 12.17614 | 79° | 106km/h | 13010m | 3.0m/s | -61.1°C | 39.3% | 0hPa | 2.7V | 00:00:00 | 01:17:46 | 00:00:00 | |
| DO3MHA-11 | 2026-09-05 03:03:48 | 47.26389 | 12.17536 | 79° | 108km/h | 13004m | 3.0m/s | -61.1°C | 39.7% | 0hPa | 2.6V | 00:00:00 | 01:17:44 | 00:00:00 | |
| OE5DXL-15 | 2026-09-05 03:03:47 | 47.26384 | 12.17498 | 79° | 104km/h | 13000m | 4.0m/s | -61.1°C | 40.1% | 0hPa | 2.6V | 00:00:00 | 00:00:00 | 00:00:00 | |
| NBG1-10 | 2026-09-05 03:03:46 | 47.26378 | 12.17459 | 79° | 104km/h | 12997m | 2.6m/s | -61.2°C | 40.3% | 0hPa | 2.6V | 00:00:00 | 01:17:42 | 00:00:00 | |
| BAUMI2-15 | 2026-09-05 03:03:43 | 47.26361 | 12.17345 | 78° | 110km/h | 12987m | 3.2m/s | -61.1°C | 40.6% | 0hPa | 2.6V | 00:00:00 | 01:17:39 | 00:00:00 | |
| DO3MHA-12 | 2026-09-05 03:03:42 | 47.26355 | 12.17306 | 77° | 110km/h | 12983m | 4.2m/s | -61.1°C | 40.5% | 0hPa | 2.6V | 00:00:00 | 01:17:38 | 00:00:00 | |
| OE5MMP-10 | 2026-09-05 03:03:40 | 47.26342 | 12.17227 | 77° | 110km/h | 12976m | 3.6m/s | -61.1°C | 40.7% | 0hPa | 2.6V | 00:00:00 | 01:17:36 | 00:00:00 | |
| IN3HCDX | 2026-09-05 03:03:39 | 47.26342 | 12.17227 | 78° | 111km/h | 12976m | 3.7m/s | -61.1°C | 31.6% | 0hPa | 2.6V | 00:00:00 | 00:00:00 | 00:00:00 | |
| DO3MHA-11 | 2026-09-05 03:03:38 | 47.26330 | 12.17147 | 78° | 108km/h | 12970m | 3.0m/s | -61.0°C | 41.3% | 0hPa | 2.6V | 00:00:00 | 01:17:34 | 00:00:00 | |
| BAUMI2-15 | 2026-09-05 03:03:33 | 47.26301 | 12.16949 | 78° | 106km/h | 12954m | 4.2m/s | -60.9°C | 42.3% | 0hPa | 2.6V | 00:00:00 | 01:17:29 | 08:30:00 | |
| DO3MHA-12 | 2026-09-05 03:03:32 | 47.26295 | 12.16910 | 77° | 104km/h | 12950m | 3.7m/s | -61.0°C | 43.0% | 0hPa | 2.7V | 00:00:00 | 01:17:28 | 08:30:00 | |
| OE5MMP-10 | 2026-09-05 03:03:30 | 47.26282 | 12.16833 | 77° | 102km/h | 12942m | 4.1m/s | -60.9°C | 43.8% | 0hPa | 2.7V | 00:00:00 | 01:17:26 | 00:00:00 | |
| DO3MHA-11 | 2026-09-05 03:03:28 | 47.26271 | 12.16758 | 78° | 100km/h | 12936m | 3.9m/s | -60.9°C | 43.9% | 0hPa | 2.7V | 00:00:00 | 01:17:24 | 00:00:00 | |
| DG1MFX-10 | 2026-09-05 03:03:26 | 47.26259 | 12.16683 | 78° | 104km/h | 12930m | 2.8m/s | -61.0°C | 34.8% | 0hPa | 2.7V | 00:00:00 | 00:00:00 | 00:00:00 | |
| OE5DRO-10 | 2026-09-05 03:03:24 | 47.26247 | 12.16608 | 78° | 97km/h | 12922m | 3.6m/s | -61.2°C | 45.7% | 0hPa | 2.7V | 00:00:00 | 00:00:00 | 00:00:00 | |
| DO3MHA-12 | 2026-09-05 03:03:22 | 47.26236 | 12.16534 | 79° | 97km/h | 12915m | 2.8m/s | -61.4°C | 47.5% | 0hPa | 2.7V | 00:00:00 | 01:17:18 | 00:00:00 | |
| PG1ADW-2 | 2026-09-05 03:03:20 | 47.26227 | 12.16462 | 80° | 95km/h | 12908m | 3.0m/s | -61.4°C | 48.6% | 0hPa | 2.7V | 00:00:00 | 00:00:00 | 00:00:00 | |
| IN3HCDX | 2026-09-05 03:03:19 | 47.26227 | 12.16462 | 80° | 95km/h | 12908m | 3.0m/s | -61.5°C | 38.2% | 0hPa | 2.7V | 00:00:00 | 00:00:00 | 00:00:00 | |
| DO3MHA-11 | 2026-09-05 03:03:18 | 47.26218 | 12.16392 | 79° | 95km/h | 12900m | 3.7m/s | -61.4°C | 49.2% | 0hPa | 2.7V | 00:00:00 | 01:17:14 | 00:00:00 | |
| OE5DXL-15 | 2026-09-05 03:03:17 | 47.26213 | 12.16357 | 79° | 93km/h | 12897m | 2.9m/s | -61.5°C | 49.4% | 0hPa | 2.7V | 00:00:00 | 00:00:00 | 00:00:00 | |
| NBG1-10 | 2026-09-05 03:03:13 | 47.26193 | 12.16217 | 78° | 91km/h | 12882m | 3.2m/s | -61.5°C | 50.4% | 0hPa | 2.7V | 00:00:00 | 01:17:09 | 08:30:00 | |
| DO3MHA-12 | 2026-09-05 03:03:12 | 47.26188 | 12.16182 | 77° | 95km/h | 12878m | 4.1m/s | -61.5°C | 50.6% | 0hPa | 2.7V | 00:00:00 | 01:17:08 | 00:00:00 | |
| OE5WHR-10 | 2026-09-05 03:03:11 | 47.26183 | 12.16148 | 77° | 93km/h | 12875m | 2.8m/s | 0°C | 0% | 0hPa | 2.7V | 00:00:00 | 00:00:00 | 00:00:00 | |
| OE5MMP-10 | 2026-09-05 03:03:10 | 47.26177 | 12.16114 | 76° | 95km/h | 12872m | 3.6m/s | 0°C | 0% | 0hPa | 2.7V | 00:00:00 | 01:17:06 | 00:00:00 | |
| DO3MHA-11 | 2026-09-05 03:03:08 | 47.26165 | 12.16046 | 77° | 95km/h | 12865m | 2.9m/s | -61.5°C | 51.3% | 0hPa | 2.7V | 00:00:00 | 01:17:04 | 00:00:00 | |
| OE5DRO-10 | 2026-09-05 03:03:05 | 47.26149 | 12.15942 | 79° | 91km/h | 12855m | 4.0m/s | -61.5°C | 51.9% | 0hPa | 2.7V | 00:00:00 | 00:00:00 | 00:00:00 | |
| S52SK | 2026-09-05 03:03:04 | 47.26150 | 12.15942 | 80° | 97km/h | 12855m | 4.1m/s | 0°C | 0% | 0hPa | 2.7V | 00:00:00 | 00:00:00 | 00:00:00 | |
| DL6DJ-15 | 2026-09-05 03:02:57 | 47.26110 | 12.15672 | 77° | 88km/h | 12829m | 3.5m/s | -61.4°C | 41.7% | -1.0hPa | 2.7V | 00:00:00 | 00:00:00 | 00:00:00 | |
| DG1MFX-10 | 2026-09-05 03:02:56 | 47.26110 | 12.15672 | 79° | 89km/h | 12829m | 3.5m/s | -61.4°C | 42.2% | 0hPa | 2.7V | 00:00:00 | 00:00:00 | 00:00:00 | |
| BAUMI2-15 | 2026-09-05 03:02:53 | 47.26091 | 12.15540 | 79° | 91km/h | 12815m | 3.1m/s | -61.3°C | 53.7% | 0hPa | 2.7V | 00:00:00 | 01:16:49 | 00:00:00 | |
| DO3MHA-12 | 2026-09-05 03:02:52 | 47.26086 | 12.15507 | 79° | 89km/h | 12811m | 4.6m/s | -61.2°C | 53.8% | 0hPa | 2.7V | 00:00:00 | 01:16:48 | 00:00:00 | |
| OE5MMP-10 | 2026-09-05 03:02:50 | 47.26077 | 12.15440 | 79° | 88km/h | 12804m | 4.0m/s | 0°C | 0% | 0hPa | 2.7V | 00:00:00 | 01:16:46 | 08:30:00 | |
| DO3MHA-11 | 2026-09-05 03:02:48 | 47.26069 | 12.15373 | 81° | 88km/h | 12797m | 3.3m/s | -61.1°C | 54.2% | 0hPa | 2.7V | 00:00:00 | 01:16:44 | 00:00:00 | |
| OE5DXL-15 | 2026-09-05 03:02:47 | 47.26064 | 12.15341 | 80° | 86km/h | 12793m | 4.1m/s | -61.1°C | 54.3% | 0hPa | 2.7V | 00:00:00 | 00:00:00 | 00:00:00 | |
| OE5DRO-10 | 2026-09-05 03:02:46 | 47.26060 | 12.15309 | 79° | 88km/h | 12790m | 2.9m/s | -61.1°C | 54.7% | 0hPa | 2.6V | 00:00:00 | 00:00:00 | 00:00:00 | |
| BAUMI2-15 | 2026-09-05 03:02:43 | 47.26047 | 12.15214 | 77° | 86km/h | 12779m | 3.6m/s | -61.0°C | 55.0% | 0hPa | 2.6V | 00:00:00 | 01:16:39 | 00:00:00 | |
| DO3MHA-12 | 2026-09-05 03:02:42 | 47.26042 | 12.15182 | 78° | 88km/h | 12776m | 3.3m/s | -61.0°C | 55.2% | 0hPa | 2.6V | 00:00:00 | 01:16:38 | 00:00:00 | |
| PG1ADW-2 | 2026-09-05 03:02:40 | 47.26033 | 12.15119 | 79° | 86km/h | 12769m | 3.0m/s | -60.9°C | 55.5% | 0hPa | 2.6V | 00:00:00 | 00:00:00 | 00:00:00 | |
| DO3MHA-11 | 2026-09-05 03:02:38 | 47.26024 | 12.15056 | 79° | 88km/h | 12762m | 3.6m/s | -60.9°C | 55.8% | 0hPa | 2.6V | 00:00:00 | 01:16:34 | 00:00:00 | |
| DG1MFX-10 | 2026-09-05 03:02:35 | 47.26016 | 12.14992 | 82° | 88km/h | 12755m | 2.8m/s | -60.8°C | 45.1% | 0hPa | 2.6V | 00:00:00 | 00:00:00 | 00:00:00 | |
| DO3MHA-12 | 2026-09-05 03:02:32 | 47.26000 | 12.14866 | 80° | 88km/h | 12741m | 3.1m/s | -60.7°C | 56.9% | 0hPa | 2.6V | 00:00:00 | 01:16:28 | 00:00:00 | |
| OE5MMP-10 | 2026-09-05 03:02:30 | 47.25991 | 12.14802 | 77° | 86km/h | 12735m | 3.9m/s | 0°C | 0% | 0hPa | 2.6V | 00:00:00 | 01:16:26 | 00:00:00 | |
| OE5DRO-10 | 2026-09-05 03:02:27 | 47.25975 | 12.14706 | 78° | 84km/h | 12724m | 2.5m/s | -60.7°C | 57.5% | 0hPa | 2.6V | 00:00:00 | 00:00:00 | 00:00:00 | |
| DL6DJ-15 | 2026-09-05 03:02:26 | 47.25965 | 12.14643 | 76° | 84km/h | 12717m | 3.4m/s | -60.8°C | 46.4% | -1.0hPa | 2.6V | 00:00:00 | 00:00:00 | 00:00:00 | |
| OE5HKT-10 | 2026-09-05 03:02:24 | 47.25960 | 12.14612 | 77° | 84km/h | 12714m | 3.4m/s | 0°C | 0% | 0hPa | 2.6V | 00:00:00 | 00:00:00 | 00:00:00 | |
| DO3MHA-12 | 2026-09-05 03:02:22 | 47.25951 | 12.14551 | 79° | 82km/h | 12707m | 3.2m/s | -60.7°C | 58.2% | 0hPa | 2.6V | 00:00:00 | 01:16:18 | 00:00:00 | |
| PG1ADW-2 | 2026-09-05 03:02:20 | 47.25942 | 12.14490 | 80° | 84km/h | 12699m | 3.4m/s | -60.7°C | 59.0% | 0hPa | 2.6V | 00:00:00 | 00:00:00 | 00:00:00 | |
| OE5MMP-10 | 2026-09-05 03:02:19 | 47.25939 | 12.14460 | 81° | 84km/h | 12696m | 4.0m/s | 0°C | 0% | 0hPa | 2.6V | 00:00:00 | 01:16:15 | 00:00:00 | |
| DO3MHA-11 | 2026-09-05 03:02:18 | 47.25935 | 12.14430 | 81° | 84km/h | 12692m | 3.0m/s | -60.7°C | 59.4% | 0hPa | 2.6V | 00:00:00 | 01:16:14 | 00:00:00 | |
| OE5DXL-15 | 2026-09-05 03:02:17 | 47.25932 | 12.14400 | 81° | 82km/h | 12689m | 4.1m/s | -60.7°C | 59.7% | 0hPa | 2.6V | 00:00:00 | 00:00:00 | 00:00:00 | |
| IN3IJJ | 2026-09-05 03:02:15 | 47.25929 | 12.14371 | 81° | 80km/h | 12685m | 2.8m/s | -60.8°C | 48.5% | 0hPa | 2.6V | 00:00:00 | 00:00:00 | 00:00:00 | |
| DG1MFX-10 | 2026-09-05 03:02:14 | 47.25925 | 12.14341 | 81° | 82km/h | 12682m | 3.9m/s | -60.8°C | 48.4% | 0hPa | 2.6V | 00:00:00 | 00:00:00 | 00:00:00 | |
| DO3MHA-12 | 2026-09-05 03:02:12 | 47.25915 | 12.14249 | 81° | 86km/h | 12672m | 3.9m/s | -60.7°C | 59.8% | 0hPa | 2.6V | 00:00:00 | 01:16:08 | 00:00:00 | |
| DB0UT-7 | 2026-09-05 03:02:10 | 47.25908 | 12.14186 | 81° | 82km/h | 12664m | 3.1m/s | -60.6°C | 60.6% | 0hPa | 2.6V | 00:00:00 | 00:00:00 | 00:00:00 | |
| OE5MMP-10 | 2026-09-05 03:02:09 | 47.25904 | 12.14154 | 81° | 84km/h | 12660m | 4.1m/s | 0°C | 0% | 0hPa | 2.6V | 00:00:00 | 01:16:05 | 00:00:00 | |
| DO3MHA-11 | 2026-09-05 03:02:08 | 47.25901 | 12.14123 | 81° | 82km/h | 12656m | 3.4m/s | -60.6°C | 61.0% | 0hPa | 2.6V | 00:00:00 | 01:16:04 | 00:00:00 | |
| NBG1-10 | 2026-09-05 03:02:07 | 47.25897 | 12.14092 | 82° | 82km/h | 12653m | 3.0m/s | -60.6°C | 61.1% | 0hPa | 2.6V | 00:00:00 | 01:16:03 | 00:00:00 | |
| DL6DJ-15 | 2026-09-05 03:01:55 | 47.25863 | 12.13668 | 83° | 80km/h | 12601m | 3.7m/s | -60.6°C | 53.2% | -1.0hPa | 2.6V | 00:00:00 | 00:00:00 | 00:00:00 | |
| DG1MFX-10 | 2026-09-05 03:01:54 | 47.25868 | 12.13727 | 83° | 80km/h | 12609m | 3.5m/s | -60.7°C | 53.4% | 0hPa | 2.6V | 00:00:00 | 00:00:00 | 00:00:00 | |
| OE5MMP-10 | 2026-09-05 03:01:49 | 47.25855 | 12.13546 | 85° | 80km/h | 12588m | 3.3m/s | 0°C | 0% | 0hPa | 2.6V | 00:00:00 | 01:15:45 | 00:00:00 | |
| DO3MHA-11 | 2026-09-05 03:01:48 | 47.25853 | 12.13516 | 84° | 80km/h | 12584m | 4.3m/s | -60.5°C | 66.6% | 0hPa | 2.6V | 00:00:00 | 01:15:44 | 00:00:00 | |
| OE5DXL-15 | 2026-09-05 03:01:47 | 47.25851 | 12.13486 | 85° | 80km/h | 12581m | 3.3m/s | -60.5°C | 66.9% | 0hPa | 2.6V | 00:00:00 | 00:00:00 | 00:00:00 | |
| S52SK | 2026-09-05 03:01:45 | 47.25849 | 12.13457 | 85° | 78km/h | 12577m | 4.3m/s | 0°C | 0% | 0hPa | 2.6V | 00:00:00 | 00:00:00 | 00:00:00 | |
| OE5HKT-10 | 2026-09-05 03:01:41 | 47.25839 | 12.13308 | 86° | 82km/h | 12558m | 3.7m/s | 0°C | 0% | 0hPa | 2.6V | 00:00:00 | 00:00:00 | 00:00:00 | |
| DB0UT-7 | 2026-09-05 03:01:40 | 47.25837 | 12.13279 | 85° | 80km/h | 12554m | 4.1m/s | -60.3°C | 68.3% | 0hPa | 2.6V | 00:00:00 | 01:15:36 | 00:00:00 | |
| S52SK | 2026-09-05 03:01:39 | 47.25837 | 12.13279 | 86° | 80km/h | 12554m | 4.1m/s | 0°C | 0% | 0hPa | 2.6V | 00:00:00 | 00:00:00 | 00:00:00 | |
| OE5MMP-10 | 2026-09-05 03:01:38 | 47.25833 | 12.13218 | 85° | 78km/h | 12547m | 2.9m/s | 0°C | 0% | 0hPa | 2.6V | 00:00:00 | 01:15:34 | 00:00:00 | |
| NBG1-10 | 2026-09-05 03:01:34 | 47.25827 | 12.13097 | 86° | 80km/h | 12532m | 3.4m/s | -60.2°C | 71.0% | 0hPa | 2.6V | 00:00:00 | 01:15:30 | 00:00:00 | |
| DG1MFX-10 | 2026-09-05 03:01:33 | 47.25828 | 12.13097 | 87° | 84km/h | 12532m | 3.4m/s | -60.3°C | 58.4% | 0hPa | 2.7V | 00:00:00 | 00:00:00 | 00:00:00 | |
| OE5DRO-10 | 2026-09-05 03:01:30 | 47.25822 | 12.12975 | 86° | 80km/h | 12519m | 3.7m/s | -60.2°C | 71.1% | 0hPa | 2.7V | 00:00:00 | 00:00:00 | 00:00:00 | |
| S52SK | 2026-09-05 03:01:27 | 47.25819 | 12.12916 | 85° | 77km/h | 12511m | 3.4m/s | 0°C | 0% | 0hPa | 2.7V | 00:00:00 | 00:00:00 | 00:00:00 | |
| DO3MHA-11 | 2026-09-05 03:01:26 | 47.25815 | 12.12859 | 84° | 80km/h | 12504m | 4.8m/s | -60.1°C | 71.3% | 0hPa | 2.7V | 00:00:00 | 01:15:22 | 00:00:00 | |
| OE5MMP-10 | 2026-09-05 03:01:25 | 47.25813 | 12.12830 | 85° | 80km/h | 12500m | 3.0m/s | 0°C | 0% | 0hPa | 2.7V | 00:00:00 | 01:15:21 | 00:00:00 | |
| DL6DJ-15 | 2026-09-05 03:01:24 | 47.25810 | 12.12771 | 87° | 78km/h | 12492m | 3.6m/s | -60.0°C | 59.0% | -1.0hPa | 2.7V | 00:00:00 | 00:00:00 | 00:00:00 | |
| DO3MHA-12 | 2026-09-05 03:01:22 | 47.25809 | 12.12741 | 89° | 80km/h | 12489m | 3.4m/s | -60.0°C | 72.1% | 0hPa | 2.7V | 00:00:00 | 01:15:18 | 00:00:00 | |
| S52SK | 2026-09-05 03:01:21 | 47.25809 | 12.12741 | 90° | 80km/h | 12489m | 3.4m/s | 0°C | 0% | 0hPa | 2.7V | 00:00:00 | 00:00:00 | 00:00:00 | |
| PG1ADW-2 | 2026-09-05 03:01:20 | 47.25808 | 12.12681 | 88° | 82km/h | 12481m | 3.4m/s | -59.9°C | 72.5% | 0hPa | 2.7V | 00:00:00 | 00:00:00 | 00:00:00 | |
| IN3HCDX | 2026-09-05 03:01:17 | 47.25806 | 12.12592 | 88° | 80km/h | 12470m | 4.0m/s | -59.9°C | 59.7% | 0hPa | 2.7V | 00:00:00 | 00:00:00 | 00:00:00 | |
| DO3MHA-11 | 2026-09-05 03:01:16 | 47.25805 | 12.12562 | 88° | 80km/h | 12466m | 3.4m/s | -59.8°C | 73.0% | 0hPa | 2.7V | 00:00:00 | 01:15:12 | 00:00:00 | |
| DO3MHA-12 | 2026-09-05 03:01:12 | 47.25802 | 12.12442 | 88° | 82km/h | 12452m | 3.3m/s | -59.7°C | 73.3% | 0hPa | 2.7V | 00:00:00 | 01:15:08 | 00:00:00 | |
| OE5DRO-10 | 2026-09-05 03:01:11 | 47.25802 | 12.12412 | 89° | 82km/h | 12448m | 3.8m/s | -59.7°C | 73.3% | 0hPa | 2.7V | 00:00:00 | 00:00:00 | 08:30:00 | |
| DB0UT-7 | 2026-09-05 03:01:06 | 47.25799 | 12.12260 | 89° | 82km/h | 12429m | 4.2m/s | -59.5°C | 73.2% | 0hPa | 2.6V | 00:00:00 | 00:00:00 | 00:00:00 | |
| DL6DJ-15 | 2026-09-05 03:00:53 | 47.25801 | 12.11835 | 88° | 80km/h | 12373m | 3.6m/s | -59.2°C | 63.3% | -1.0hPa | 2.6V | 00:00:00 | 00:00:00 | 00:00:00 | |
| OE5DRO-10 | 2026-09-05 03:00:52 | 47.25801 | 12.11835 | 89° | 82km/h | 12373m | 3.5m/s | -59.2°C | 76.6% | 0hPa | 2.6V | 00:00:00 | 00:00:00 | 00:00:00 | |
| DO3MHA-12 | 2026-09-05 03:00:50 | 47.25799 | 12.11774 | 89° | 80km/h | 12365m | 3.2m/s | -59.1°C | 77.2% | 0hPa | 2.6V | 00:00:00 | 01:14:46 | 00:00:00 | |
| OE5DXL-15 | 2026-09-05 03:00:47 | 47.25798 | 12.11683 | 89° | 80km/h | 12354m | 4.3m/s | -59.0°C | 77.1% | 0hPa | 2.6V | 00:00:00 | 00:00:00 | 00:00:00 | |
| DO3MHA-11 | 2026-09-05 03:00:45 | 47.25798 | 12.11623 | 90° | 82km/h | 12347m | 4.1m/s | -59.0°C | 77.5% | 0hPa | 2.6V | 00:00:00 | 01:14:41 | 00:00:00 | |
| IN3IJJ | 2026-09-05 03:00:41 | 47.25798 | 12.11534 | 90° | 82km/h | 12335m | 4.0m/s | -58.9°C | 64.6% | 0hPa | 2.6V | 00:00:00 | 00:00:00 | 00:00:00 | |
| PG1ADW-2 | 2026-09-05 03:00:40 | 47.25798 | 12.11473 | 91° | 82km/h | 12328m | 4.3m/s | -58.8°C | 77.1% | 0hPa | 2.6V | 00:00:00 | 00:00:00 | 00:00:00 | |
| DO3MHA-12 | 2026-09-05 03:00:39 | 47.25798 | 12.11442 | 92° | 82km/h | 12324m | 3.5m/s | -58.8°C | 77.1% | 0hPa | 2.7V | 00:00:00 | 01:14:35 | 00:00:00 | |
| BAUMI2-15 | 2026-09-05 03:00:38 | 47.25798 | 12.11411 | 91° | 82km/h | 12320m | 4.2m/s | -58.8°C | 76.9% | 0hPa | 2.7V | 00:00:00 | 01:14:34 | 00:00:00 | |
| DB0UT-7 | 2026-09-05 03:00:36 | 47.25799 | 12.11350 | 92° | 80km/h | 12312m | 4.4m/s | -58.7°C | 76.9% | 0hPa | 2.7V | 00:00:00 | 01:14:32 | 00:00:00 | |
| DO3MHA-11 | 2026-09-05 03:00:35 | 47.25799 | 12.11320 | 93° | 82km/h | 12308m | 3.6m/s | -58.7°C | 76.7% | 0hPa | 2.7V | 00:00:00 | 01:14:31 | 00:00:00 | |
| OE5DRO-10 | 2026-09-05 03:00:33 | 47.25801 | 12.11260 | 92° | 80km/h | 12300m | 3.1m/s | -58.6°C | 76.1% | 0hPa | 2.7V | 00:00:00 | 00:00:00 | 00:00:00 | |
| DG1MFX-10 | 2026-09-05 03:00:32 | 47.25801 | 12.11260 | 92° | 80km/h | 12300m | 3.2m/s | -58.7°C | 63.6% | 0hPa | 2.7V | 00:00:00 | 00:00:00 | 00:00:00 | |
| DB0NH | 2026-09-05 03:00:30 | 47.25802 | 12.11171 | 91° | 80km/h | 12287m | 3.8m/s | -58.5°C | 75.9% | 0hPa | 2.7V | 00:00:00 | 01:14:26 | 00:00:00 | |
| BAUMI2-15 | 2026-09-05 03:00:28 | 47.25803 | 12.11110 | 93° | 82km/h | 12279m | 3.7m/s | -58.4°C | 76.1% | 0hPa | 2.6V | 00:00:00 | 01:14:24 | 00:00:00 | |
| DO3MHA-11 | 2026-09-05 03:00:25 | 47.25804 | 12.11017 | 92° | 80km/h | 12269m | 2.8m/s | -58.4°C | 75.9% | 0hPa | 2.6V | 00:00:00 | 01:14:21 | 00:00:00 | |
| BAUMI2-15 | 2026-09-05 03:00:23 | 47.25806 | 12.10957 | 94° | 80km/h | 12261m | 4.0m/s | -58.3°C | 74.8% | 0hPa | 2.7V | 00:00:00 | 01:14:19 | 00:00:00 | |
| DL6DJ-15 | 2026-09-05 03:00:22 | 47.25808 | 12.10898 | 91° | 78km/h | 12252m | 3.6m/s | -58.3°C | 62.5% | -1.0hPa | 2.7V | 00:00:00 | 00:00:00 | 00:00:00 | |
| IN3IJJ | 2026-09-05 03:00:19 | 47.25809 | 12.10869 | 93° | 80km/h | 12249m | 2.7m/s | -58.3°C | 62.5% | 0hPa | 2.7V | 00:00:00 | 00:00:00 | 00:00:00 | |
| BAUMI2-15 | 2026-09-05 03:00:18 | 47.25811 | 12.10810 | 94° | 80km/h | 12241m | 3.7m/s | -58.2°C | 74.9% | 0hPa | 2.7V | 00:00:00 | 01:14:14 | 00:00:00 | |
| OE5DXL-15 | 2026-09-05 03:00:17 | 47.25812 | 12.10780 | 94° | 80km/h | 12237m | 3.9m/s | -58.2°C | 74.3% | 0hPa | 2.7V | 00:00:00 | 00:00:00 | 00:00:00 | |
| DO3MHA-11 | 2026-09-05 03:00:15 | 47.25814 | 12.10721 | 93° | 80km/h | 12229m | 4.1m/s | -58.1°C | 73.9% | 0hPa | 2.7V | 00:00:00 | 01:14:11 | 00:00:00 | |
| OE5DRO-10 | 2026-09-05 03:00:14 | 47.25815 | 12.10690 | 93° | 80km/h | 12225m | 3.5m/s | -58.0°C | 74.2% | 0hPa | 2.7V | 00:00:00 | 00:00:00 | 00:00:00 | |
| BAUMI2-15 | 2026-09-05 03:00:13 | 47.25816 | 12.10660 | 93° | 80km/h | 12221m | 3.9m/s | -58.0°C | 73.9% | 0hPa | 2.7V | 00:00:00 | 01:14:09 | 00:00:00 | |
| DG1MFX-10 | 2026-09-05 03:00:12 | 47.25816 | 12.10630 | 92° | 80km/h | 12217m | 4.0m/s | -58.0°C | 61.7% | 0hPa | 2.7V | 00:00:00 | 00:00:00 | 00:00:00 | |
| DO3MHA-12 | 2026-09-05 03:00:11 | 47.25817 | 12.10601 | 92° | 80km/h | 12213m | 3.8m/s | -57.9°C | 73.5% | 0hPa | 2.7V | 00:00:00 | 01:14:07 | 00:00:00 | |
| BAUMI2-15 | 2026-09-05 03:00:08 | 47.25819 | 12.10512 | 93° | 80km/h | 12200m | 4.5m/s | -57.8°C | 73.2% | 0hPa | 2.7V | 00:00:00 | 01:14:04 | 00:00:00 | |
| DB0UT-7 | 2026-09-05 03:00:06 | 47.25822 | 12.10453 | 95° | 80km/h | 12192m | 4.5m/s | -57.8°C | 72.7% | 0hPa | 2.7V | 00:00:00 | 00:00:00 | 08:30:00 | |
| DO3MHA-11 | 2026-09-05 03:00:05 | 47.25823 | 12.10423 | 96° | 80km/h | 12188m | 3.3m/s | -57.7°C | 72.6% | 0hPa | 2.7V | 00:00:00 | 01:14:01 | 00:00:00 | |
| DL6DJ-15 | 2026-09-05 02:59:51 | 47.25853 | 12.09973 | 95° | 82km/h | 12128m | 3.7m/s | -57.2°C | 60.8% | -1.0hPa | 2.7V | 00:00:00 | 00:00:00 | 00:00:00 | |
| DO3MHA-12 | 2026-09-05 02:59:48 | 47.25856 | 12.09914 | 96° | 78km/h | 12120m | 3.2m/s | -57.0°C | 73.7% | 0hPa | 2.7V | 00:00:00 | 01:13:44 | 08:30:00 | |
| OE5DXL-15 | 2026-09-05 02:59:47 | 47.25858 | 12.09885 | 97° | 78km/h | 12116m | 4.4m/s | -57.0°C | 73.7% | 0hPa | 2.6V | 00:00:00 | 00:00:00 | 00:00:00 | |
| DO3MHA-11 | 2026-09-05 02:59:45 | 47.25862 | 12.09827 | 95° | 80km/h | 12108m | 3.6m/s | -56.9°C | 74.1% | 0hPa | 2.7V | 00:00:00 | 01:13:41 | 00:00:00 | |
| BAUMI2-15 | 2026-09-05 02:59:43 | 47.25866 | 12.09769 | 97° | 80km/h | 12100m | 4.2m/s | -56.9°C | 74.6% | 0hPa | 2.7V | 00:00:00 | 01:13:39 | 00:00:00 | |
| DO3MHA-12 | 2026-09-05 02:59:38 | 47.25876 | 12.09621 | 97° | 80km/h | 12080m | 4.0m/s | -56.7°C | 75.9% | 0hPa | 2.7V | 00:00:00 | 01:13:34 | 00:00:00 | |
| DB0UT-7 | 2026-09-05 02:59:36 | 47.25880 | 12.09562 | 96° | 89km/h | 12072m | 3.3m/s | -56.7°C | 76.6% | 0hPa | 2.7V | 00:00:00 | 01:13:32 | 00:00:00 | |
| DO3MHA-11 | 2026-09-05 02:59:35 | 47.25883 | 12.09533 | 97° | 78km/h | 12068m | 4.7m/s | -56.7°C | 76.5% | 0hPa | 2.7V | 00:00:00 | 01:13:31 | 00:00:00 | |
| BAUMI2-15 | 2026-09-05 02:59:33 | 47.25887 | 12.09474 | 97° | 80km/h | 12060m | 4.2m/s | -56.6°C | 76.6% | 0hPa | 2.7V | 00:00:00 | 01:13:29 | 00:00:00 | |
| DB0NH | 2026-09-05 02:59:30 | 47.25894 | 12.09386 | 97° | 80km/h | 12048m | 4.2m/s | -56.5°C | 77.5% | 0hPa | 2.7V | 00:00:00 | 01:13:26 | 00:00:00 | |
| DO3MHA-12 | 2026-09-05 02:59:28 | 47.25899 | 12.09327 | 96° | 78km/h | 12041m | 4.5m/s | -56.4°C | 77.4% | 0hPa | 2.7V | 00:00:00 | 01:13:24 | 00:00:00 | |
| DO3MHA-11 | 2026-09-05 02:59:25 | 47.25905 | 12.09240 | 98° | 80km/h | 12028m | 3.9m/s | -56.4°C | 78.7% | 0hPa | 2.7V | 00:00:00 | 01:13:21 | 08:30:00 | |
| BAUMI2-15 | 2026-09-05 02:59:23 | 47.25910 | 12.09182 | 99° | 80km/h | 12019m | 3.7m/s | -56.4°C | 79.9% | 0hPa | 2.7V | 00:00:00 | 01:13:19 | 00:00:00 | |
| NBG1-10 | 2026-09-05 02:59:22 | 47.25914 | 12.09153 | 100° | 80km/h | 12015m | 4.8m/s | -56.4°C | 80.0% | 0hPa | 2.7V | 00:00:00 | 01:13:18 | 00:00:00 | |
| DL6DJ-15 | 2026-09-05 02:59:19 | 47.25924 | 12.09065 | 99° | 78km/h | 12002m | 3.3m/s | -56.3°C | 67.0% | -1.0hPa | 2.7V | 00:00:00 | 00:00:00 | 00:00:00 | |
| DO3MHA-12 | 2026-09-05 02:59:18 | 47.25927 | 12.09036 | 101° | 80km/h | 11999m | 4.1m/s | -56.2°C | 79.0% | 0hPa | 2.7V | 00:00:00 | 01:13:14 | 00:00:00 | |
| OE5DXL-15 | 2026-09-05 02:59:17 | 47.25931 | 12.09006 | 101° | 80km/h | 11994m | 3.9m/s | -56.2°C | 78.9% | 0hPa | 2.7V | 00:00:00 | 00:00:00 | 00:00:00 | |
| DO3MHA-11 | 2026-09-05 02:59:15 | 47.25938 | 12.08949 | 99° | 80km/h | 11987m | 3.9m/s | -56.1°C | 78.5% | 0hPa | 2.7V | 00:00:00 | 01:13:11 | 00:00:00 | |
| BAUMI2-15 | 2026-09-05 02:59:13 | 47.25943 | 12.08891 | 99° | 80km/h | 11979m | 4.4m/s | -56.0°C | 77.6% | 0hPa | 2.7V | 00:00:00 | 01:13:09 | 00:00:00 | |
| IN3HCDX | 2026-09-05 02:59:12 | 47.25944 | 12.08891 | 100° | 80km/h | 11979m | 4.4m/s | -56.1°C | 65.7% | 0hPa | 2.7V | 00:00:00 | 00:00:00 | 00:00:00 | |
| BAUMI2-15 | 2026-09-05 02:59:08 | 47.25960 | 12.08743 | 100° | 82km/h | 11959m | 4.2m/s | -55.9°C | 77.8% | 0hPa | 2.7V | 00:00:00 | 01:13:04 | 00:00:00 | |
| DO3MHA-11 | 2026-09-05 02:59:05 | 47.25970 | 12.08653 | 101° | 82km/h | 11947m | 4.5m/s | -55.8°C | 77.3% | 0hPa | 2.7V | 00:00:00 | 01:13:01 | 00:00:00 | |
| BAUMI2-15 | 2026-09-05 02:59:03 | 47.25977 | 12.08593 | 99° | 82km/h | 11939m | 3.8m/s | -55.7°C | 77.5% | 0hPa | 2.7V | 00:00:00 | 01:12:59 | 00:00:00 | |
| DG1MFX-10 | 2026-09-05 02:59:02 | 47.25978 | 12.08593 | 100° | 82km/h | 11939m | 3.9m/s | -55.8°C | 65.8% | 0hPa | 2.7V | 00:00:00 | 00:00:00 | 00:00:00 | |
| DB0NH | 2026-09-05 02:59:00 | 47.25987 | 12.08501 | 98° | 82km/h | 11927m | 4.6m/s | -55.6°C | 77.2% | 0hPa | 2.7V | 00:00:00 | 01:12:56 | 00:00:00 | |
| DO3MHA-12 | 2026-09-05 02:58:58 | 47.25992 | 12.08440 | 99° | 80km/h | 11920m | 4.5m/s | -55.5°C | 77.5% | 0hPa | 2.7V | 00:00:00 | 01:12:54 | 00:00:00 | |
| DO3MHA-11 | 2026-09-05 02:58:55 | 47.26002 | 12.08350 | 100° | 82km/h | 11908m | 4.2m/s | -55.5°C | 77.9% | 0hPa | 2.7V | 00:00:00 | 01:12:51 | 00:00:00 | |
| BAUMI2-15 | 2026-09-05 02:58:53 | 47.26010 | 12.08290 | 101° | 80km/h | 11899m | 3.4m/s | -55.4°C | 78.6% | 0hPa | 2.7V | 00:00:00 | 01:12:49 | 00:00:00 | |
| PG1ADW-2 | 2026-09-05 02:58:51 | 47.26016 | 12.08232 | 99° | 84km/h | 11891m | 3.4m/s | -55.3°C | 78.6% | 0hPa | 2.7V | 00:00:00 | 01:12:47 | 00:00:00 | |
| NBG1-10 | 2026-09-05 02:58:49 | 47.26023 | 12.08173 | 100° | 84km/h | 11884m | 4.1m/s | -55.2°C | 78.5% | 0hPa | 2.7V | 00:00:00 | 01:12:45 | 00:00:00 | |
| DO3MHA-12 | 2026-09-05 02:58:48 | 47.26026 | 12.08143 | 101° | 84km/h | 11880m | 3.9m/s | -55.2°C | 78.3% | 0hPa | 2.7V | 00:00:00 | 01:12:44 | 00:00:00 | |
| OE5DXL-15 | 2026-09-05 02:58:47 | 47.26030 | 12.08112 | 100° | 84km/h | 11875m | 4.5m/s | -55.2°C | 78.1% | 0hPa | 2.7V | 00:00:00 | 00:00:00 | 00:00:00 | |
| DO3MHA-11 | 2026-09-05 02:58:45 | 47.26036 | 12.08050 | 99° | 82km/h | 11867m | 4.2m/s | -55.1°C | 78.9% | 0hPa | 2.7V | 00:00:00 | 01:12:41 | 00:00:00 | |
| BAUMI2-15 | 2026-09-05 02:58:43 | 47.26042 | 12.07987 | 97° | 84km/h | 11859m | 4.3m/s | -55.0°C | 79.1% | 0hPa | 2.7V | 00:00:00 | 01:12:39 | 00:00:00 | |
| DG1MFX-10 | 2026-09-05 02:58:41 | 47.26045 | 12.07957 | 99° | 82km/h | 11855m | 3.0m/s | -55.0°C | 67.3% | 0hPa | 2.7V | 00:00:00 | 00:00:00 | 00:00:00 | |
| OE5DRO-10 | 2026-09-05 02:58:39 | 47.26054 | 12.07866 | 100° | 84km/h | 11844m | 2.8m/s | -54.9°C | 77.7% | 0hPa | 2.7V | 00:00:00 | 00:00:00 | 00:00:00 | |
| DO3MHA-12 | 2026-09-05 02:58:38 | 47.26057 | 12.07836 | 99° | 82km/h | 11840m | 4.3m/s | -54.9°C | 76.4% | 0hPa | 2.7V | 00:00:00 | 01:12:34 | 00:00:00 | |
| DO3MHA-11 | 2026-09-05 02:58:35 | 47.26067 | 12.07746 | 100° | 84km/h | 11828m | 3.0m/s | -54.7°C | 76.1% | 0hPa | 2.7V | 00:00:00 | 01:12:31 | 00:00:00 | |
| PG1ADW-2 | 2026-09-05 02:58:31 | 47.26082 | 12.07624 | 101° | 84km/h | 11812m | 3.2m/s | -54.6°C | 75.3% | 0hPa | 2.7V | 00:00:00 | 00:00:00 | 00:00:00 | |
| DB0NH | 2026-09-05 02:58:30 | 47.26086 | 12.07593 | 102° | 84km/h | 11808m | 4.0m/s | -54.5°C | 75.1% | 0hPa | 2.7V | 00:00:00 | 01:12:26 | 00:00:00 | |
| DO3MHA-12 | 2026-09-05 02:58:28 | 47.26094 | 12.07531 | 101° | 84km/h | 11800m | 3.6m/s | -54.5°C | 76.0% | 0hPa | 2.7V | 00:00:00 | 01:12:24 | 00:00:00 | |
| IN3IJJ | 2026-09-05 02:58:27 | 47.26094 | 12.07531 | 102° | 86km/h | 11800m | 3.6m/s | -54.5°C | 64.7% | 0hPa | 2.7V | 00:00:00 | 00:00:00 | 00:00:00 | |
| DO3MHA-11 | 2026-09-05 02:58:25 | 47.26106 | 12.07440 | 100° | 86km/h | 11788m | 3.0m/s | -54.4°C | 75.7% | 0hPa | 2.7V | 00:00:00 | 01:12:21 | 00:00:00 | |
| DG1MFX-10 | 2026-09-05 02:58:21 | 47.26117 | 12.07348 | 101° | 84km/h | 11776m | 4.7m/s | -54.3°C | 64.1% | 0hPa | 2.7V | 00:00:00 | 00:00:00 | 00:00:00 | |
| OE5DRO-10 | 2026-09-05 02:58:20 | 47.26125 | 12.07286 | 101° | 86km/h | 11768m | 4.1m/s | -54.2°C | 75.2% | 0hPa | 2.7V | 00:00:00 | 00:00:00 | 08:30:00 | |
| DO3MHA-12 | 2026-09-05 02:58:18 | 47.26133 | 12.07223 | 102° | 84km/h | 11760m | 4.6m/s | -54.1°C | 75.4% | 0hPa | 2.7V | 00:00:00 | 01:12:14 | 08:30:00 | |
| OE5DXL-15 | 2026-09-05 02:58:17 | 47.26138 | 12.07192 | 103° | 86km/h | 11756m | 3.5m/s | -54.1°C | 75.9% | 0hPa | 2.7V | 00:00:00 | 00:00:00 | 00:00:00 | |
| NBG1-10 | 2026-09-05 02:58:16 | 47.26142 | 12.07161 | 102° | 86km/h | 11752m | 4.9m/s | -54.1°C | 75.9% | 0hPa | 2.7V | 00:00:00 | 01:12:12 | 08:30:00 | |
| DO3MHA-11 | 2026-09-05 02:58:15 | 47.26146 | 12.07130 | 101° | 84km/h | 11747m | 3.5m/s | -54.0°C | 76.5% | 0hPa | 2.7V | 00:00:00 | 01:12:11 | 00:00:00 | |
| PG1ADW-2 | 2026-09-05 02:58:09 | 47.26168 | 12.06951 | 99° | 86km/h | 11725m | 4.9m/s | -53.8°C | 75.8% | 0hPa | 2.7V | 00:00:00 | 00:00:00 | 00:00:00 | |
| DO3MHA-12 | 2026-09-05 02:58:08 | 47.26171 | 12.06920 | 100° | 86km/h | 11720m | 3.8m/s | -53.8°C | 76.1% | 0hPa | 2.7V | 00:00:00 | 01:12:04 | 00:00:00 | |
| DO3MHA-11 | 2026-09-05 02:58:05 | 47.26182 | 12.06824 | 101° | 86km/h | 11708m | 4.1m/s | -53.7°C | 75.6% | 0hPa | 2.7V | 00:00:00 | 01:12:01 | 00:00:00 | |
| DL6DJ-15 | 2026-09-05 02:57:46 | 47.26267 | 12.06228 | 102° | 82km/h | 11624m | 4.4m/s | -53.0°C | 61.3% | -1.0hPa | 2.7V | 00:00:00 | 00:00:00 | 00:00:00 | |
| DO3MHA-11 | 2026-09-05 02:57:45 | 47.26271 | 12.06198 | 104° | 86km/h | 11620m | 4.8m/s | -52.9°C | 71.9% | 0hPa | 2.7V | 00:00:00 | 01:11:41 | 00:00:00 | |
| NBG1-10 | 2026-09-05 02:57:43 | 47.26280 | 12.06136 | 102° | 86km/h | 11611m | 3.8m/s | -52.8°C | 72.2% | 0hPa | 2.7V | 00:00:00 | 01:11:39 | 00:00:00 | |
| OE5DRO-10 | 2026-09-05 02:57:42 | 47.26285 | 12.06106 | 103° | 86km/h | 11607m | 4.4m/s | -52.7°C | 71.9% | 0hPa | 2.7V | 00:00:00 | 00:00:00 | 00:00:00 | |
| DG1MFX-10 | 2026-09-05 02:57:40 | 47.26290 | 12.06075 | 104° | 84km/h | 11602m | 5.2m/s | -52.7°C | 61.4% | 0hPa | 2.7V | 00:00:00 | 00:00:00 | 00:00:00 | |
| DO3MHA-12 | 2026-09-05 02:57:38 | 47.26305 | 12.05982 | 103° | 86km/h | 11589m | 4.8m/s | -52.6°C | 71.2% | 0hPa | 2.7V | 00:00:00 | 01:11:34 | 00:00:00 | |
| DO3MHA-11 | 2026-09-05 02:57:35 | 47.26319 | 12.05889 | 103° | 86km/h | 11575m | 3.9m/s | -52.4°C | 71.0% | 0hPa | 2.7V | 00:00:00 | 01:11:31 | 00:00:00 | |
| IN3IJJ | 2026-09-05 02:57:34 | 47.26319 | 12.05889 | 104° | 86km/h | 11575m | 3.9m/s | -52.5°C | 60.8% | 0hPa | 2.7V | 00:00:00 | 00:00:00 | 00:00:00 | |
| DB0NH | 2026-09-05 02:57:30 | 47.26343 | 12.05732 | 103° | 86km/h | 11553m | 5.3m/s | -52.2°C | 70.3% | 0hPa | 2.7V | 00:00:00 | 01:11:26 | 08:30:00 | |
| IN3HCDX | 2026-09-05 02:57:29 | 47.26343 | 12.05732 | 104° | 86km/h | 11553m | 5.4m/s | -52.3°C | 60.2% | 0hPa | 2.7V | 00:00:00 | 00:00:00 | 00:00:00 | |
| DO3MHA-12 | 2026-09-05 02:57:28 | 47.26354 | 12.05671 | 105° | 88km/h | 11543m | 4.9m/s | -52.1°C | 70.2% | 0hPa | 2.7V | 00:00:00 | 01:11:24 | 00:00:00 | |
| DO3MHA-11 | 2026-09-05 02:57:25 | 47.26369 | 12.05578 | 104° | 88km/h | 11529m | 4.2m/s | -52.0°C | 70.7% | 0hPa | 2.7V | 00:00:00 | 01:11:21 | 00:00:00 | |
| OE5DRO-10 | 2026-09-05 02:57:23 | 47.26380 | 12.05516 | 104° | 86km/h | 11521m | 4.0m/s | -51.9°C | 71.1% | 0hPa | 2.7V | 00:00:00 | 00:00:00 | 00:00:00 | |
| DG1MFX-10 | 2026-09-05 02:57:20 | 47.26390 | 12.05452 | 104° | 89km/h | 11512m | 4.2m/s | -51.9°C | 61.3% | 0hPa | 2.7V | 00:00:00 | 00:00:00 | 00:00:00 | |
| DO3MHA-12 | 2026-09-05 02:57:18 | 47.26405 | 12.05356 | 103° | 86km/h | 11499m | 5.0m/s | -51.7°C | 72.3% | 0hPa | 2.7V | 00:00:00 | 01:11:14 | 00:00:00 | |
| OE5DXL-15 | 2026-09-05 02:57:17 | 47.26410 | 12.05325 | 102° | 84km/h | 11494m | 4.2m/s | -51.7°C | 73.0% | 0hPa | 2.7V | 00:00:00 | 00:00:00 | 00:00:00 | |
| DO3MHA-11 | 2026-09-05 02:57:15 | 47.26419 | 12.05264 | 103° | 84km/h | 11485m | 4.1m/s | -51.7°C | 73.2% | 0hPa | 2.7V | 00:00:00 | 01:11:11 | 00:00:00 | |
| IN3IJJ | 2026-09-05 02:57:13 | 47.26423 | 12.05234 | 104° | 82km/h | 11482m | 3.9m/s | -51.7°C | 63.0% | 0hPa | 2.7V | 00:00:00 | 00:00:00 | 00:00:00 | |
| NBG1-10 | 2026-09-05 02:57:10 | 47.26442 | 12.05112 | 104° | 86km/h | 11464m | 3.9m/s | -51.5°C | 73.3% | 0hPa | 2.7V | 00:00:00 | 01:11:06 | 00:00:00 | |
| IN3HCDX | 2026-09-05 02:57:09 | 47.26443 | 12.05112 | 105° | 86km/h | 11464m | 4.0m/s | -51.5°C | 63.1% | 0hPa | 2.7V | 00:00:00 | 00:00:00 | 00:00:00 | |
| DO3MHA-12 | 2026-09-05 02:57:08 | 47.26453 | 12.05049 | 103° | 84km/h | 11455m | 3.6m/s | -51.4°C | 73.1% | 0hPa | 2.7V | 00:00:00 | 01:11:04 | 00:00:00 | |
| DO3MHA-11 | 2026-09-05 02:57:05 | 47.26468 | 12.04957 | 105° | 84km/h | 11443m | 3.8m/s | -51.3°C | 73.0% | 0hPa | 2.7V | 00:00:00 | 01:11:01 | 00:00:00 | |
| OE5DRO-10 | 2026-09-05 02:57:04 | 47.26473 | 12.04927 | 104° | 84km/h | 11439m | 4.9m/s | -51.3°C | 73.2% | 0hPa | 2.7V | 00:00:00 | 00:00:00 | 00:00:00 | |
| DB0NH | 2026-09-05 02:57:00 | 47.26493 | 12.04807 | 106° | 88km/h | 11421m | 4.0m/s | -51.2°C | 73.6% | 0hPa | 2.7V | 00:00:00 | 01:10:56 | 00:00:00 | |
| DG1MFX-10 | 2026-09-05 02:56:59 | 47.26493 | 12.04807 | 106° | 84km/h | 11421m | 4.1m/s | -51.2°C | 63.6% | 0hPa | 2.7V | 00:00:00 | 00:00:00 | 00:00:00 | |
| DO3MHA-12 | 2026-09-05 02:56:58 | 47.26504 | 12.04747 | 107° | 86km/h | 11413m | 4.1m/s | -51.1°C | 73.4% | 0hPa | 2.7V | 00:00:00 | 01:10:54 | 00:00:00 | |
| DO3MHA-11 | 2026-09-05 02:56:55 | 47.26523 | 12.04656 | 106° | 86km/h | 11400m | 3.9m/s | -51.0°C | 74.3% | 0hPa | 2.7V | 00:00:00 | 01:10:51 | 00:00:00 | |
| OE5DXL-15 | 2026-09-05 02:56:47 | 47.26569 | 12.04411 | 106° | 89km/h | 11367m | 5.0m/s | -50.7°C | 75.8% | 0hPa | 2.7V | 00:00:00 | 00:00:00 | 08:30:00 | |
| DO3MHA-12 | 2026-09-05 02:56:46 | 47.26574 | 12.04380 | 106° | 88km/h | 11362m | 3.9m/s | -50.7°C | 77.1% | 0hPa | 2.7V | 00:00:00 | 01:10:42 | 08:30:00 | |
| DO3MHA-11 | 2026-09-05 02:56:45 | 47.26580 | 12.04349 | 106° | 88km/h | 11358m | 4.4m/s | -50.7°C | 77.3% | 0hPa | 2.7V | 00:00:00 | 01:10:41 | 00:00:00 | |
| DL6DJ-15 | 2026-09-05 02:56:44 | 47.26586 | 12.04318 | 106° | 86km/h | 11353m | 3.9m/s | -50.7°C | 67.6% | -1.0hPa | 2.7V | 00:00:00 | 00:00:00 | 00:00:00 | |
| PG1ADW-2 | 2026-09-05 02:56:42 | 47.26598 | 12.04255 | 105° | 89km/h | 11346m | 4.9m/s | -50.6°C | 78.5% | 0hPa | 2.7V | 00:00:00 | 01:10:38 | 00:00:00 | |
| DG1MFX-10 | 2026-09-05 02:56:39 | 47.26608 | 12.04192 | 105° | 86km/h | 11336m | 4.8m/s | -50.5°C | 68.7% | 0hPa | 2.7V | 00:00:00 | 00:00:00 | 00:00:00 | |
| BAUMI2-15 | 2026-09-05 02:56:38 | 47.26619 | 12.04129 | 104° | 91km/h | 11328m | 4.7m/s | -50.4°C | 79.9% | 0hPa | 2.7V | 00:00:00 | 01:10:34 | 00:00:00 | |
| NBG1-10 | 2026-09-05 02:56:37 | 47.26625 | 12.04097 | 105° | 89km/h | 11323m | 3.8m/s | -50.4°C | 80.6% | 0hPa | 2.7V | 00:00:00 | 01:10:33 | 00:00:00 | |
| DO3MHA-12 | 2026-09-05 02:56:36 | 47.26631 | 12.04064 | 106° | 89km/h | 11319m | 4.3m/s | -50.3°C | 81.1% | 0hPa | 2.7V | 00:00:00 | 01:10:32 | 00:00:00 | |
| DO3MHA-11 | 2026-09-05 02:56:35 | 47.26637 | 12.04032 | 106° | 89km/h | 11315m | 3.5m/s | -50.3°C | 81.3% | 0hPa | 2.7V | 00:00:00 | 01:10:31 | 00:00:00 | |
| BAUMI2-15 | 2026-09-05 02:56:33 | 47.26649 | 12.03967 | 105° | 91km/h | 11307m | 4.1m/s | -50.2°C | 81.2% | 0hPa | 2.7V | 00:00:00 | 01:10:29 | 08:30:00 | |
| DB0NH | 2026-09-05 02:56:30 | 47.26667 | 12.03869 | 105° | 89km/h | 11294m | 4.9m/s | -50.1°C | 82.1% | 0hPa | 2.7V | 00:00:00 | 01:10:26 | 00:00:00 | |
| IN3HCDX | 2026-09-05 02:56:27 | 47.26678 | 12.03804 | 105° | 88km/h | 11286m | 4.3m/s | -50.1°C | 71.6% | 0hPa | 2.7V | 00:00:00 | 00:00:00 | 00:00:00 | |
| DO3MHA-12 | 2026-09-05 02:56:26 | 47.26689 | 12.03741 | 105° | 89km/h | 11277m | 4.5m/s | -50.0°C | 82.1% | 0hPa | 2.7V | 00:00:00 | 01:10:22 | 00:00:00 | |
| DO3MHA-11 | 2026-09-05 02:56:25 | 47.26695 | 12.03709 | 106° | 89km/h | 11273m | 3.4m/s | -49.9°C | 82.6% | 0hPa | 2.7V | 00:00:00 | 01:10:21 | 08:30:00 | |
| BAUMI2-15 | 2026-09-05 02:56:23 | 47.26707 | 12.03645 | 106° | 91km/h | 11264m | 4.9m/s | -49.9°C | 82.7% | 0hPa | 2.7V | 00:00:00 | 01:10:19 | 00:00:00 | |
| PG1ADW-2 | 2026-09-05 02:56:21 | 47.26719 | 12.03581 | 107° | 91km/h | 11256m | 4.5m/s | -49.8°C | 82.7% | 0hPa | 2.7V | 00:00:00 | 00:00:00 | 08:30:00 | |
| DG1MFX-10 | 2026-09-05 02:56:19 | 47.26725 | 12.03549 | 107° | 91km/h | 11251m | 4.1m/s | -49.8°C | 72.4% | 0hPa | 2.7V | 00:00:00 | 00:00:00 | 00:00:00 | |
| BAUMI2-15 | 2026-09-05 02:56:18 | 47.26738 | 12.03483 | 106° | 91km/h | 11243m | 3.5m/s | -49.7°C | 82.6% | 0hPa | 2.7V | 00:00:00 | 01:10:14 | 00:00:00 | |
| OE5DXL-15 | 2026-09-05 02:56:17 | 47.26744 | 12.03450 | 106° | 91km/h | 11239m | 4.5m/s | -49.6°C | 82.1% | 0hPa | 2.7V | 00:00:00 | 00:00:00 | 00:00:00 | |
| DO3MHA-12 | 2026-09-05 02:56:16 | 47.26750 | 12.03418 | 106° | 89km/h | 11235m | 3.7m/s | -49.6°C | 82.2% | 0hPa | 2.7V | 00:00:00 | 01:10:12 | 00:00:00 | |
| DO3MHA-11 | 2026-09-05 02:56:15 | 47.26756 | 12.03386 | 105° | 89km/h | 11230m | 4.6m/s | -49.5°C | 81.6% | 0hPa | 2.7V | 00:00:00 | 01:10:11 | 00:00:00 | |
| IN3IJJ | 2026-09-05 02:56:14 | 47.26756 | 12.03386 | 106° | 91km/h | 11230m | 4.6m/s | -49.6°C | 0% | 0hPa | 2.7V | 00:00:00 | 00:00:00 | 00:00:00 | |
| BAUMI2-15 | 2026-09-05 02:56:13 | 47.26768 | 12.03321 | 105° | 89km/h | 11222m | 4.2m/s | -49.5°C | 81.7% | 0hPa | 2.7V | 00:00:00 | 01:10:09 | 00:00:00 | |
| BAUMI2-15 | 2026-09-05 02:56:08 | 47.26795 | 12.03158 | 105° | 91km/h | 11201m | 4.1m/s | -49.3°C | 80.7% | 0hPa | 2.7V | 00:00:00 | 01:10:04 | 00:00:00 | |
| IN3HCDX | 2026-09-05 02:56:07 | 47.26800 | 12.03126 | 106° | 91km/h | 11197m | 4.7m/s | -49.3°C | 70.1% | 0hPa | 2.7V | 00:00:00 | 00:00:00 | 00:00:00 | |
| DO3MHA-12 | 2026-09-05 02:56:06 | 47.26806 | 12.03093 | 105° | 91km/h | 11192m | 3.9m/s | -49.2°C | 80.3% | 0hPa | 2.7V | 00:00:00 | 01:10:02 | 00:00:00 | |
| DO3MHA-11 | 2026-09-05 02:56:05 | 47.26812 | 12.03061 | 106° | 91km/h | 11187m | 4.8m/s | -49.1°C | 80.3% | 0hPa | 2.7V | 00:00:00 | 01:10:01 | 00:00:00 | |
| NBG1-10 | 2026-09-05 02:56:04 | 47.26818 | 12.03029 | 106° | 91km/h | 11183m | 3.4m/s | -49.1°C | 80.1% | 0hPa | 2.7V | 00:00:00 | 01:10:00 | 00:00:00 | |
| BAUMI2-15 | 2026-09-05 02:56:03 | 47.26824 | 12.02996 | 106° | 91km/h | 11179m | 4.7m/s | -49.1°C | 79.9% | 0hPa | 2.7V | 00:00:00 | 01:09:59 | 00:00:00 | |
| PG1ADW-2 | 2026-09-05 02:56:01 | 47.26836 | 12.02932 | 106° | 89km/h | 11170m | 3.9m/s | -49.0°C | 80.0% | 0hPa | 2.7V | 00:00:00 | 00:00:00 | 00:00:00 | |
| DB0NH | 2026-09-05 02:56:00 | 47.26842 | 12.02899 | 104° | 91km/h | 11166m | 4.9m/s | -48.9°C | 80.0% | 0hPa | 2.7V | 00:00:00 | 01:09:56 | 00:00:00 | |
| BAUMI2-15 | 2026-09-05 02:55:58 | 47.26853 | 12.02833 | 105° | 91km/h | 11158m | 4.9m/s | -48.9°C | 79.4% | 0hPa | 2.7V | 00:00:00 | 01:09:54 | 00:00:00 | |
| DO3MHA-12 | 2026-09-05 02:55:56 | 47.26865 | 12.02768 | 106° | 91km/h | 11149m | 3.9m/s | -48.8°C | 79.1% | 0hPa | 2.7V | 00:00:00 | 01:09:52 | 00:00:00 | |
| DO3MHA-11 | 2026-09-05 02:55:55 | 47.26871 | 12.02736 | 105° | 91km/h | 11145m | 4.2m/s | -48.7°C | 79.3% | 0hPa | 2.7V | 00:00:00 | 01:09:51 | 00:00:00 | |
| IN3IJJ | 2026-09-05 02:55:54 | 47.26871 | 12.02736 | 105° | 91km/h | 11145m | 4.3m/s | -48.8°C | 0% | 0hPa | 2.7V | 00:00:00 | 00:00:00 | 00:00:00 | |
| BAUMI2-15 | 2026-09-05 02:55:53 | 47.26883 | 12.02670 | 106° | 91km/h | 11137m | 4.2m/s | -48.7°C | 78.6% | 0hPa | 2.7V | 00:00:00 | 01:09:49 | 00:00:00 | |
| BAUMI2-15 | 2026-09-05 02:55:48 | 47.26912 | 12.02507 | 104° | 89km/h | 11115m | 4.8m/s | -48.5°C | 78.3% | 0hPa | 2.7V | 00:00:00 | 01:09:44 | 08:30:00 | |
| OE5DXL-15 | 2026-09-05 02:55:47 | 47.26918 | 12.02475 | 104° | 91km/h | 11111m | 3.8m/s | -48.4°C | 78.5% | 0hPa | 2.7V | 00:00:00 | 00:00:00 | 00:00:00 | |
| DO3MHA-12 | 2026-09-05 02:55:46 | 47.26923 | 12.02442 | 105° | 89km/h | 11107m | 4.3m/s | -48.4°C | 78.5% | 0hPa | 2.7V | 00:00:00 | 01:09:42 | 00:00:00 | |
| DO3MHA-11 | 2026-09-05 02:55:45 | 47.26929 | 12.02410 | 103° | 91km/h | 11103m | 4.0m/s | -48.3°C | 78.1% | 0hPa | 2.7V | 00:00:00 | 01:09:41 | 00:00:00 | |
| BAUMI2-15 | 2026-09-05 02:55:43 | 47.26938 | 12.02345 | 103° | 89km/h | 11094m | 4.4m/s | -48.3°C | 77.9% | 0hPa | 2.7V | 00:00:00 | 01:09:39 | 00:00:00 | |
| DL6DJ-15 | 2026-09-05 02:55:42 | 47.26944 | 12.02312 | 103° | 89km/h | 11090m | 3.8m/s | -48.3°C | 68.2% | -1.0hPa | 2.7V | 00:00:00 | 00:00:00 | 00:00:00 | |
| BAUMI2-15 | 2026-09-05 02:55:38 | 47.26965 | 12.02181 | 105° | 91km/h | 11073m | 3.4m/s | -48.1°C | 78.4% | 0hPa | 2.7V | 00:00:00 | 01:09:34 | 00:00:00 | |
| DO3MHA-12 | 2026-09-05 02:55:36 | 47.26976 | 12.02115 | 104° | 93km/h | 11065m | 3.9m/s | -48.0°C | 78.4% | 0hPa | 2.7V | 00:00:00 | 01:09:32 | 00:00:00 | |
| DO3MHA-11 | 2026-09-05 02:55:35 | 47.26982 | 12.02082 | 104° | 91km/h | 11060m | 4.5m/s | -48.0°C | 78.4% | 0hPa | 2.7V | 00:00:00 | 01:09:31 | 00:00:00 | |
| BAUMI2-15 | 2026-09-05 02:55:33 | 47.26994 | 12.02015 | 105° | 91km/h | 11052m | 3.5m/s | -47.9°C | 78.6% | 0hPa | 2.7V | 00:00:00 | 01:09:29 | 00:00:00 | |
| DB0UT-7 | 2026-09-05 02:55:32 | 47.26999 | 12.01981 | 104° | 89km/h | 11048m | 4.3m/s | -47.8°C | 78.7% | 0hPa | 2.7V | 00:00:00 | 00:00:00 | 00:00:00 | |
| NBG1-10 | 2026-09-05 02:55:31 | 47.27005 | 12.01948 | 105° | 89km/h | 11044m | 4.7m/s | -47.8°C | 78.6% | 0hPa | 2.7V | 00:00:00 | 01:09:27 | 00:00:00 | |
| DB0NH | 2026-09-05 02:55:30 | 47.27011 | 12.01915 | 105° | 89km/h | 11040m | 3.5m/s | -47.8°C | 78.8% | 0hPa | 2.7V | 00:00:00 | 01:09:26 | 00:00:00 | |
| OE5DRO-10 | 2026-09-05 02:55:29 | 47.27017 | 12.01882 | 104° | 89km/h | 11035m | 4.6m/s | -47.7°C | 78.7% | 0hPa | 2.7V | 00:00:00 | 00:00:00 | 08:30:00 | |
| BAUMI2-15 | 2026-09-05 02:55:28 | 47.27022 | 12.01849 | 104° | 88km/h | 11031m | 3.7m/s | -47.7°C | 78.8% | 0hPa | 2.7V | 00:00:00 | 01:09:24 | 00:00:00 | |
| DO3MHA-12 | 2026-09-05 02:55:26 | 47.27033 | 12.01786 | 104° | 91km/h | 11023m | 3.8m/s | -47.6°C | 78.6% | 0hPa | 2.7V | 00:00:00 | 01:09:22 | 00:00:00 | |
| DO3MHA-11 | 2026-09-05 02:55:25 | 47.27038 | 12.01754 | 104° | 91km/h | 11019m | 4.1m/s | -47.6°C | 78.9% | 0hPa | 2.7V | 00:00:00 | 01:09:21 | 00:00:00 | |
| PG1ADW-2 | 2026-09-05 02:55:24 | 47.27043 | 12.01722 | 104° | 89km/h | 11015m | 4.6m/s | 0°C | 0% | 0hPa | 2.7V | 00:00:00 | 00:00:00 | 00:00:00 | |
| BAUMI2-15 | 2026-09-05 02:55:23 | 47.27049 | 12.01690 | 105° | 91km/h | 11010m | 4.0m/s | -47.5°C | 78.9% | 0hPa | 2.7V | 00:00:00 | 01:09:19 | 00:00:00 | |
| OE3JTB-15 | 2026-09-05 02:55:18 | 47.27077 | 12.01523 | 104° | 89km/h | 10990m | 3.4m/s | -47.3°C | 78.6% | 0hPa | 2.7V | 00:00:00 | 00:00:00 | 08:30:00 | |
| OE5DXL-15 | 2026-09-05 02:55:17 | 47.27082 | 12.01490 | 104° | 89km/h | 10986m | 4.7m/s | -47.3°C | 78.8% | 0hPa | 2.7V | 00:00:00 | 00:00:00 | 00:00:00 | |
| DO3MHA-11 | 2026-09-05 02:55:15 | 47.27093 | 12.01424 | 105° | 89km/h | 10977m | 3.7m/s | -47.2°C | 79.4% | 0hPa | 2.7V | 00:00:00 | 01:09:11 | 00:00:00 | |
| DO3MHA-12 | 2026-09-05 02:55:13 | 47.27104 | 12.01360 | 104° | 89km/h | 10968m | 3.6m/s | -47.1°C | 79.6% | 0hPa | 2.7V | 00:00:00 | 01:09:09 | 08:30:00 | |
| DL6DJ-15 | 2026-09-05 02:55:11 | 47.27115 | 12.01296 | 103° | 86km/h | 10960m | 3.9m/s | -47.1°C | 69.8% | -1.0hPa | 2.7V | 00:00:00 | 00:00:00 | 00:00:00 | |
| OE5DRO-10 | 2026-09-05 02:55:10 | 47.27120 | 12.01265 | 103° | 89km/h | 10955m | 4.9m/s | -47.0°C | 79.9% | 0hPa | 2.7V | 00:00:00 | 00:00:00 | 00:00:00 | |
| BAUMI2-15 | 2026-09-05 02:55:08 | 47.27129 | 12.01200 | 103° | 89km/h | 10947m | 4.7m/s | -46.9°C | 79.6% | 0hPa | 2.7V | 00:00:00 | 01:09:04 | 00:00:00 | |
| IN3IJJ | 2026-09-05 02:55:07 | 47.27129 | 12.01200 | 104° | 89km/h | 10947m | 4.7m/s | -47.0°C | 0% | 0hPa | 2.7V | 00:00:00 | 00:00:00 | 00:00:00 | |
| DO3MHA-11 | 2026-09-05 02:55:05 | 47.27145 | 12.01103 | 103° | 89km/h | 10935m | 4.3m/s | -46.8°C | 79.2% | 0hPa | 2.7V | 00:00:00 | 01:09:01 | 00:00:00 | |
| PG1ADW-2 | 2026-09-05 02:55:04 | 47.27150 | 12.01071 | 104° | 89km/h | 10931m | 4.1m/s | 0°C | 0% | 0hPa | 2.7V | 00:00:00 | 01:09:00 | 00:00:00 | |
| DO3MHA-12 | 2026-09-05 02:55:03 | 47.27156 | 12.01038 | 105° | 89km/h | 10926m | 4.3m/s | -46.7°C | 79.5% | 0hPa | 2.7V | 00:00:00 | 01:08:59 | 00:00:00 | |
| DB0UT-7 | 2026-09-05 02:55:02 | 47.27161 | 12.01006 | 104° | 89km/h | 10923m | 3.9m/s | -46.7°C | 79.4% | 0hPa | 2.7V | 00:00:00 | 01:08:58 | 00:00:00 | |
| DB0NH | 2026-09-05 02:55:00 | 47.27171 | 12.00941 | 103° | 89km/h | 10915m | 3.1m/s | -46.6°C | 79.4% | 0hPa | 2.7V | 00:00:00 | 01:08:56 | 00:00:00 | |
| BAUMI2-15 | 2026-09-05 02:54:58 | 47.27181 | 12.00878 | 104° | 89km/h | 10907m | 3.3m/s | -46.5°C | 79.6% | 0hPa | 2.7V | 00:00:00 | 01:08:54 | 00:00:00 | |
| DG1MFX-10 | 2026-09-05 02:54:57 | 47.27181 | 12.00878 | 105° | 88km/h | 10907m | 3.4m/s | -46.6°C | 70.3% | 0hPa | 2.7V | 00:00:00 | 00:00:00 | 00:00:00 | |
| DO3MHA-11 | 2026-09-05 02:54:55 | 47.27197 | 12.00781 | 104° | 91km/h | 10894m | 4.8m/s | -46.4°C | 80.1% | 0hPa | 2.7V | 00:00:00 | 01:08:51 | 08:30:00 | |
| DO3MHA-12 | 2026-09-05 02:54:53 | 47.27208 | 12.00716 | 104° | 91km/h | 10886m | 4.6m/s | -46.4°C | 80.6% | 0hPa | 2.7V | 00:00:00 | 01:08:49 | 00:00:00 | |
| OE5DRO-10 | 2026-09-05 02:54:51 | 47.27219 | 12.00650 | 104° | 89km/h | 10878m | 4.6m/s | -46.3°C | 80.5% | 0hPa | 2.7V | 00:00:00 | 00:00:00 | 00:00:00 | |
| OE3JTB-15 | 2026-09-05 02:54:49 | 47.27230 | 12.00584 | 103° | 89km/h | 10870m | 4.5m/s | -46.2°C | 79.7% | 0hPa | 2.7V | 00:00:00 | 00:00:00 | 00:00:00 | |
| BAUMI2-15 | 2026-09-05 02:54:48 | 47.27234 | 12.00551 | 103° | 91km/h | 10866m | 4.0m/s | -46.2°C | 79.8% | 0hPa | 2.7V | 00:00:00 | 01:08:44 | 00:00:00 | |
| OE5DXL-15 | 2026-09-05 02:54:47 | 47.27239 | 12.00519 | 103° | 89km/h | 10861m | 4.7m/s | -46.1°C | 79.6% | 0hPa | 2.7V | 00:00:00 | 00:00:00 | 00:00:00 | |
| DO3MHA-11 | 2026-09-05 02:54:45 | 47.27249 | 12.00453 | 103° | 89km/h | 10852m | 5.0m/s | -46.1°C | 79.1% | 0hPa | 2.7V | 00:00:00 | 01:08:41 | 00:00:00 | |
| PG1ADW-2 | 2026-09-05 02:54:44 | 47.27255 | 12.00420 | 104° | 89km/h | 10848m | 3.9m/s | 0°C | 0% | 0hPa | 2.7V | 00:00:00 | 00:00:00 | 00:00:00 | |
| BAUMI2-15 | 2026-09-05 02:54:43 | 47.27260 | 12.00387 | 104° | 89km/h | 10843m | 4.5m/s | -46.0°C | 79.2% | 0hPa | 2.7V | 00:00:00 | 01:08:39 | 00:00:00 | |
| DO3MHA-12 | 2026-09-05 02:54:41 | 47.27271 | 12.00323 | 104° | 89km/h | 10835m | 4.9m/s | -45.9°C | 78.0% | 0hPa | 2.7V | 00:00:00 | 01:08:37 | 00:00:00 | |
| DL6DJ-15 | 2026-09-05 02:54:40 | 47.27276 | 12.00290 | 102° | 89km/h | 10831m | 4.0m/s | -45.9°C | 68.7% | -1.0hPa | 2.7V | 00:00:00 | 00:00:00 | 00:00:00 | |
| DG1MFX-10 | 2026-09-05 02:54:36 | 47.27290 | 12.00193 | 103° | 86km/h | 10818m | 3.7m/s | -45.8°C | 69.0% | 0hPa | 2.7V | 00:00:00 | 00:00:00 | 00:00:00 | |
| DO3MHA-11 | 2026-09-05 02:54:34 | 47.27304 | 12.00097 | 103° | 89km/h | 10806m | 4.1m/s | -45.6°C | 77.9% | 0hPa | 2.7V | 00:00:00 | 01:08:30 | 00:00:00 | |
| DB0UT-7 | 2026-09-05 02:54:32 | 47.27314 | 12.00031 | 104° | 88km/h | 10798m | 4.3m/s | -45.6°C | 77.9% | 0hPa | 2.7V | 00:00:00 | 00:00:00 | 00:00:00 | |
| DO3MHA-12 | 2026-09-05 02:54:31 | 47.27320 | 11.99998 | 103° | 89km/h | 10793m | 4.9m/s | -45.5°C | 78.3% | 0hPa | 2.7V | 00:00:00 | 01:08:27 | 00:00:00 | |
| DB0NH | 2026-09-05 02:54:30 | 47.27325 | 11.99965 | 103° | 89km/h | 10789m | 2.8m/s | -45.5°C | 79.0% | 0hPa | 2.7V | 00:00:00 | 01:08:26 | 00:00:00 | |
| NBG1-10 | 2026-09-05 02:54:25 | 47.27352 | 11.99804 | 103° | 89km/h | 10768m | 3.3m/s | -45.3°C | 79.3% | 0hPa | 2.7V | 00:00:00 | 01:08:21 | 00:00:00 | |
| PG1ADW-2 | 2026-09-05 02:54:24 | 47.27357 | 11.99772 | 103° | 89km/h | 10765m | 4.4m/s | 0°C | 0% | 0hPa | 2.7V | 00:00:00 | 00:00:00 | 00:00:00 | |
| IN3HCDX | 2026-09-05 02:54:22 | 47.27362 | 11.99740 | 105° | 88km/h | 10760m | 4.0m/s | -45.3°C | 70.0% | 0hPa | 2.7V | 00:00:00 | 00:00:00 | 00:00:00 | |
| DO3MHA-12 | 2026-09-05 02:54:21 | 47.27372 | 11.99677 | 104° | 88km/h | 10752m | 4.4m/s | -45.1°C | 79.1% | 0hPa | 2.7V | 00:00:00 | 01:08:17 | 00:00:00 | |
| OE3JTB-15 | 2026-09-05 02:54:20 | 47.27377 | 11.99645 | 103° | 89km/h | 10748m | 3.9m/s | -45.1°C | 79.3% | 0hPa | 2.7V | 00:00:00 | 01:08:16 | 00:00:00 | |
| OE5DXL-15 | 2026-09-05 02:54:17 | 47.27392 | 11.99551 | 104° | 89km/h | 10735m | 5.0m/s | -45.0°C | 78.0% | 0hPa | 2.7V | 00:00:00 | 00:00:00 | 00:00:00 | |
| DG1MFX-10 | 2026-09-05 02:54:15 | 47.27397 | 11.99521 | 105° | 86km/h | 10730m | 4.4m/s | -45.0°C | 69.2% | 0hPa | 2.7V | 00:00:00 | 00:00:00 | 00:00:00 | |
| DO3MHA-11 | 2026-09-05 02:54:14 | 47.27409 | 11.99459 | 105° | 89km/h | 10722m | 4.7m/s | -44.8°C | 77.9% | 0hPa | 2.7V | 00:00:00 | 01:08:10 | 00:00:00 | |
| OE5DRO-10 | 2026-09-05 02:54:13 | 47.27414 | 11.99427 | 104° | 89km/h | 10718m | 3.7m/s | -44.8°C | 78.5% | 0hPa | 2.7V | 00:00:00 | 00:00:00 | 00:00:00 | |
| DO3MHA-12 | 2026-09-05 02:54:11 | 47.27425 | 11.99363 | 106° | 91km/h | 10709m | 4.7m/s | -44.7°C | 77.9% | 0hPa | 2.7V | 00:00:00 | 01:08:07 | 00:00:00 | |
| DL6DJ-15 | 2026-09-05 02:54:09 | 47.27437 | 11.99297 | 104° | 91km/h | 10701m | 5.1m/s | -44.7°C | 68.5% | -1.0hPa | 2.7V | 00:00:00 | 00:00:00 | 00:00:00 | |
| DO3MHA-11 | 2026-09-05 02:54:04 | 47.27466 | 11.99134 | 104° | 89km/h | 10678m | 3.8m/s | -44.5°C | 76.8% | 0hPa | 2.7V | 00:00:00 | 01:08:00 | 00:00:00 | |
| DB0UT-7 | 2026-09-05 02:54:02 | 47.27477 | 11.99069 | 105° | 91km/h | 10670m | 4.5m/s | -44.4°C | 75.9% | 0hPa | 2.7V | 00:00:00 | 01:07:58 | 00:00:00 | |
| DO3MHA-12 | 2026-09-05 02:54:01 | 47.27482 | 11.99038 | 105° | 89km/h | 10666m | 4.0m/s | -44.3°C | 75.5% | 0hPa | 2.7V | 00:00:00 | 01:07:57 | 00:00:00 | |
| DB0NH | 2026-09-05 02:54:00 | 47.27488 | 11.99006 | 104° | 91km/h | 10661m | 5.0m/s | -44.3°C | 75.2% | 0hPa | 2.7V | 00:00:00 | 01:07:56 | 00:00:00 | |
| DG1MFX-10 | 2026-09-05 02:53:55 | 47.27511 | 11.98878 | 105° | 91km/h | 10641m | 5.7m/s | -44.2°C | 66.0% | 0hPa | 2.7V | 00:00:00 | 00:00:00 | 00:00:00 | |
| DO3MHA-11 | 2026-09-05 02:53:54 | 47.27522 | 11.98812 | 103° | 91km/h | 10631m | 4.8m/s | -44.0°C | 74.3% | 0hPa | 2.7V | 00:00:00 | 01:07:50 | 00:00:00 | |
| NBG1-10 | 2026-09-05 02:53:52 | 47.27532 | 11.98747 | 104° | 93km/h | 10622m | 3.4m/s | -43.9°C | 74.1% | 0hPa | 2.7V | 00:00:00 | 01:07:48 | 00:00:00 | |
| DO3MHA-12 | 2026-09-05 02:53:51 | 47.27538 | 11.98714 | 105° | 93km/h | 10618m | 5.1m/s | -43.9°C | 73.5% | 0hPa | 2.7V | 00:00:00 | 01:07:47 | 00:00:00 | |
| OE5DXL-15 | 2026-09-05 02:53:47 | 47.27563 | 11.98582 | 106° | 93km/h | 10600m | 4.3m/s | -43.7°C | 74.1% | 0hPa | 2.7V | 00:00:00 | 00:00:00 | 00:00:00 | |
| DO3MHA-11 | 2026-09-05 02:53:44 | 47.27582 | 11.98482 | 107° | 93km/h | 10587m | 3.7m/s | -43.6°C | 74.4% | 0hPa | 2.7V | 00:00:00 | 01:07:40 | 00:00:00 | |
| DO3MHA-12 | 2026-09-05 02:53:41 | 47.27601 | 11.98383 | 105° | 93km/h | 10575m | 3.8m/s | -43.5°C | 73.9% | 0hPa | 2.7V | 00:00:00 | 01:07:37 | 08:30:00 | |
| DL6DJ-15 | 2026-09-05 02:53:38 | 47.27625 | 11.98248 | 104° | 95km/h | 10558m | 3.5m/s | -43.4°C | 66.3% | -1.0hPa | 2.7V | 00:00:00 | 00:00:00 | 00:00:00 | |
| DB0UT-7 | 2026-09-05 02:53:32 | 47.27656 | 11.98079 | 106° | 93km/h | 10538m | 4.0m/s | -43.2°C | 75.3% | 0hPa | 2.7V | 00:00:00 | 00:00:00 | 00:00:00 | |
| DO3MHA-12 | 2026-09-05 02:53:31 | 47.27663 | 11.98046 | 106° | 95km/h | 10534m | 3.3m/s | -43.2°C | 75.5% | 0hPa | 2.7V | 00:00:00 | 01:07:27 | 00:00:00 | |
| DB0NH | 2026-09-05 02:53:30 | 47.27669 | 11.98013 | 106° | 93km/h | 10530m | 4.8m/s | -43.2°C | 75.1% | 0hPa | 2.7V | 00:00:00 | 01:07:26 | 00:00:00 | |
| DO3MHA-11 | 2026-09-05 02:53:24 | 47.27707 | 11.97812 | 108° | 95km/h | 10506m | 4.2m/s | -43.0°C | 75.7% | 0hPa | 2.7V | 00:00:00 | 01:07:20 | 08:30:00 | |
| OE3JTB-15 | 2026-09-05 02:53:22 | 47.27721 | 11.97744 | 106° | 95km/h | 10498m | 4.2m/s | -42.9°C | 75.9% | 0hPa | 2.7V | 00:00:00 | 00:00:00 | 00:00:00 | |
| DO3MHA-12 | 2026-09-05 02:53:21 | 47.27727 | 11.97710 | 106° | 93km/h | 10494m | 2.9m/s | -42.9°C | 76.0% | 0hPa | 2.7V | 00:00:00 | 01:07:17 | 00:00:00 | |
| IN3HCDX | 2026-09-05 02:53:20 | 47.27727 | 11.97710 | 106° | 95km/h | 10494m | 3.0m/s | -42.9°C | 67.8% | 0hPa | 2.7V | 00:00:00 | 00:00:00 | 00:00:00 | |
| NBG1-10 | 2026-09-05 02:53:19 | 47.27740 | 11.97642 | 107° | 95km/h | 10486m | 3.7m/s | -42.8°C | 75.5% | 0hPa | 2.7V | 00:00:00 | 01:07:15 | 08:30:00 | |
| OE5DXL-15 | 2026-09-05 02:53:17 | 47.27753 | 11.97575 | 106° | 95km/h | 10478m | 3.5m/s | -42.7°C | 75.3% | 0hPa | 2.7V | 00:00:00 | 00:00:00 | 00:00:00 | |
| OE5DRO-10 | 2026-09-05 02:53:16 | 47.27759 | 11.97542 | 107° | 95km/h | 10474m | 4.3m/s | -42.7°C | 74.9% | 0hPa | 2.7V | 00:00:00 | 00:00:00 | 00:00:00 | |
| DO3MHA-11 | 2026-09-05 02:53:14 | 47.27773 | 11.97475 | 106° | 93km/h | 10466m | 4.4m/s | -42.6°C | 74.5% | 0hPa | 2.7V | 00:00:00 | 01:07:10 | 00:00:00 | |
| DG1MFX-10 | 2026-09-05 02:53:13 | 47.27773 | 11.97475 | 107° | 93km/h | 10466m | 4.5m/s | -42.7°C | 66.5% | 0hPa | 2.7V | 00:00:00 | 00:00:00 | 00:00:00 | |
| DO3MHA-12 | 2026-09-05 02:53:11 | 47.27793 | 11.97375 | 107° | 93km/h | 10453m | 4.6m/s | -42.5°C | 74.1% | 0hPa | 2.7V | 00:00:00 | 01:07:07 | 00:00:00 | |
| DL6DJ-15 | 2026-09-05 02:53:07 | 47.27826 | 11.97206 | 105° | 91km/h | 10432m | 4.3m/s | -42.4°C | 66.1% | -1.0hPa | 2.7V | 00:00:00 | 00:00:00 | 00:00:00 | |
| DO3MHA-11 | 2026-09-05 02:53:04 | 47.27839 | 11.97140 | 105° | 95km/h | 10425m | 4.3m/s | -42.3°C | 74.3% | 0hPa | 2.7V | 00:00:00 | 01:07:00 | 00:00:00 | |
| DB0ND-19 | 2026-09-05 02:52:59 | 47.27872 | 11.96972 | 107° | 95km/h | 10405m | 3.8m/s | -42.1°C | 66.1% | -1.0hPa | 2.7V | 00:00:00 | 00:00:00 | 00:00:00 | |
| OE5DRO-10 | 2026-09-05 02:52:57 | 47.27887 | 11.96904 | 108° | 95km/h | 10397m | 3.3m/s | -42.0°C | 74.0% | 0hPa | 2.7V | 00:00:00 | 00:00:00 | 00:00:00 | |
| DO3MHA-11 | 2026-09-05 02:52:54 | 47.27907 | 11.96802 | 107° | 95km/h | 10385m | 4.5m/s | -41.9°C | 73.6% | 0hPa | 2.7V | 00:00:00 | 01:06:50 | 00:00:00 | |
| OE3JTB-15 | 2026-09-05 02:52:53 | 47.27914 | 11.96769 | 106° | 95km/h | 10381m | 3.6m/s | -41.9°C | 73.6% | 0hPa | 2.7V | 00:00:00 | 01:06:49 | 00:00:00 | |
| DO3MHA-12 | 2026-09-05 02:52:51 | 47.27927 | 11.96701 | 106° | 95km/h | 10372m | 4.6m/s | -41.8°C | 73.4% | 0hPa | 2.7V | 00:00:00 | 01:06:47 | 00:00:00 | |
| OE5DXL-15 | 2026-09-05 02:52:47 | 47.27953 | 11.96566 | 108° | 95km/h | 10356m | 4.5m/s | -41.7°C | 73.5% | 0hPa | 2.7V | 00:00:00 | 00:00:00 | 00:00:00 | |
| NBG1-10 | 2026-09-05 02:52:46 | 47.27960 | 11.96533 | 108° | 95km/h | 10351m | 3.6m/s | -41.6°C | 73.6% | 0hPa | 2.7V | 00:00:00 | 01:06:42 | 00:00:00 | |
| DO3MHA-11 | 2026-09-05 02:52:44 | 47.27975 | 11.96465 | 108° | 95km/h | 10343m | 3.7m/s | -41.5°C | 73.5% | 0hPa | 2.7V | 00:00:00 | 01:06:40 | 00:00:00 | |
| DO3MHA-12 | 2026-09-05 02:52:41 | 47.27996 | 11.96365 | 106° | 95km/h | 10332m | 3.7m/s | -41.4°C | 73.3% | 0hPa | 2.7V | 00:00:00 | 01:06:37 | 00:00:00 | |
| BAUMI2-15 | 2026-09-05 02:52:38 | 47.28015 | 11.96264 | 106° | 95km/h | 10320m | 4.6m/s | -41.3°C | 72.7% | 0hPa | 2.7V | 00:00:00 | 01:06:34 | 00:00:00 | |
| DL6DJ-15 | 2026-09-05 02:52:36 | 47.28035 | 11.96162 | 106° | 95km/h | 10307m | 4.1m/s | -41.3°C | 65.0% | -1.0hPa | 2.7V | 00:00:00 | 00:00:00 | 00:00:00 | |
| DO3MHA-11 | 2026-09-05 02:52:34 | 47.28042 | 11.96128 | 108° | 95km/h | 10303m | 3.9m/s | -41.2°C | 73.3% | 0hPa | 2.7V | 00:00:00 | 01:06:30 | 00:00:00 | |
| BAUMI2-15 | 2026-09-05 02:52:33 | 47.28049 | 11.96093 | 108° | 95km/h | 10300m | 3.4m/s | -41.1°C | 73.4% | 0hPa | 2.7V | 00:00:00 | 01:06:29 | 00:00:00 | |
| DG1MFX-10 | 2026-09-05 02:52:32 | 47.28049 | 11.96093 | 109° | 97km/h | 10300m | 3.4m/s | -41.2°C | 65.7% | 0hPa | 2.7V | 00:00:00 | 00:00:00 | 00:00:00 | |
| DO3MHA-12 | 2026-09-05 02:52:31 | 47.28064 | 11.96026 | 107° | 93km/h | 10292m | 3.5m/s | -41.1°C | 73.4% | 0hPa | 2.7V | 00:00:00 | 01:06:27 | 00:00:00 | |
| DB0NH | 2026-09-05 02:52:30 | 47.28070 | 11.95992 | 107° | 93km/h | 10289m | 4.0m/s | -41.0°C | 73.0% | 0hPa | 2.7V | 00:00:00 | 01:06:26 | 00:00:00 | |
| BAUMI2-15 | 2026-09-05 02:52:28 | 47.28083 | 11.95924 | 106° | 93km/h | 10280m | 4.8m/s | -41.0°C | 72.7% | 0hPa | 2.7V | 00:00:00 | 01:06:24 | 00:00:00 | |
| DO3MHA-11 | 2026-09-05 02:52:24 | 47.28109 | 11.95790 | 108° | 93km/h | 10264m | 4.7m/s | -40.8°C | 72.8% | 0hPa | 2.7V | 00:00:00 | 01:06:20 | 00:00:00 | |
| BAUMI2-15 | 2026-09-05 02:52:23 | 47.28116 | 11.95757 | 109° | 93km/h | 10259m | 3.7m/s | -40.8°C | 72.4% | 0hPa | 2.7V | 00:00:00 | 01:06:19 | 00:00:00 | |
| DO3MHA-12 | 2026-09-05 02:52:21 | 47.28131 | 11.95691 | 109° | 93km/h | 10251m | 3.5m/s | -40.7°C | 69.9% | 0hPa | 2.7V | 00:00:00 | 01:06:17 | 00:00:00 | |
| OE5DRO-10 | 2026-09-05 02:52:19 | 47.28146 | 11.95625 | 108° | 91km/h | 10242m | 4.4m/s | -40.7°C | 67.9% | 0hPa | 2.7V | 00:00:00 | 00:00:00 | 00:00:00 | |
| BAUMI2-15 | 2026-09-05 02:52:18 | 47.28153 | 11.95592 | 107° | 93km/h | 10237m | 4.4m/s | -40.7°C | 66.6% | 0hPa | 2.7V | 00:00:00 | 01:06:14 | 08:30:00 | |
| OE5DXL-15 | 2026-09-05 02:52:17 | 47.28160 | 11.95558 | 107° | 91km/h | 10233m | 4.1m/s | -40.6°C | 64.8% | 0hPa | 2.7V | 00:00:00 | 00:00:00 | 08:30:00 | |
| DO3MHA-11 | 2026-09-05 02:52:14 | 47.28180 | 11.95459 | 106° | 91km/h | 10221m | 4.6m/s | -40.6°C | 59.4% | 0hPa | 2.7V | 00:00:00 | 01:06:10 | 00:00:00 | |
| BAUMI2-15 | 2026-09-05 02:52:13 | 47.28187 | 11.95425 | 107° | 93km/h | 10216m | 3.7m/s | -40.6°C | 58.4% | 0hPa | 2.7V | 00:00:00 | 01:06:09 | 00:00:00 | |
| DG1MFX-10 | 2026-09-05 02:52:12 | 47.28187 | 11.95425 | 107° | 93km/h | 10216m | 3.7m/s | -40.6°C | 52.0% | 0hPa | 2.7V | 00:00:00 | 00:00:00 | 00:00:00 | |
| DO3MHA-12 | 2026-09-05 02:52:11 | 47.28200 | 11.95358 | 107° | 91km/h | 10208m | 3.4m/s | -40.5°C | 56.5% | 0hPa | 2.7V | 00:00:00 | 01:06:07 | 08:30:00 | |
| BAUMI2-15 | 2026-09-05 02:52:08 | 47.28219 | 11.95258 | 106° | 89km/h | 10196m | 5.1m/s | -40.4°C | 54.0% | 0hPa | 2.7V | 00:00:00 | 01:06:04 | 00:00:00 | |
| DL6DJ-15 | 2026-09-05 02:52:05 | 47.28244 | 11.95130 | 104° | 89km/h | 10179m | 3.4m/s | -40.3°C | 41.2% | -1.0hPa | 2.7V | 00:00:00 | 00:00:00 | 00:00:00 | |
| PG1ADW-2 | 2026-09-05 02:52:04 | 47.28244 | 11.95130 | 105° | 91km/h | 10179m | 3.4m/s | 0°C | 0% | 0hPa | 2.7V | 00:00:00 | 00:00:00 | 00:00:00 | |
| BAUMI2-15 | 2026-09-05 02:52:03 | 47.28250 | 11.95098 | 105° | 91km/h | 10175m | 4.6m/s | -40.2°C | 45.3% | 0hPa | 2.7V | 00:00:00 | 01:05:59 | 00:00:00 | |
| DO3MHA-12 | 2026-09-05 02:52:01 | 47.28261 | 11.95033 | 104° | 91km/h | 10165m | 4.7m/s | -40.1°C | 41.6% | 0hPa | 2.7V | 00:00:00 | 01:05:57 | 00:00:00 | |
| DB0NH | 2026-09-05 02:52:00 | 47.28267 | 11.94999 | 104° | 91km/h | 10161m | 3.3m/s | -40.1°C | 39.7% | 0hPa | 2.7V | 00:00:00 | 01:05:56 | 00:00:00 | |
| BAUMI2-15 | 2026-09-05 02:51:58 | 47.28278 | 11.94934 | 105° | 91km/h | 10153m | 3.6m/s | -40.0°C | 35.3% | 0hPa | 2.7V | 00:00:00 | 01:05:54 | 00:00:00 | |
| IN3HCDX | 2026-09-05 02:51:56 | 47.28284 | 11.94901 | 105° | 91km/h | 10149m | 4.0m/s | -40.0°C | 29.0% | 0hPa | 2.7V | 00:00:00 | 00:00:00 | 00:00:00 | |
| OE3JTB-15 | 2026-09-05 02:51:55 | 47.28294 | 11.94834 | 104° | 91km/h | 10140m | 4.0m/s | -39.9°C | 32.8% | 0hPa | 2.7V | 00:00:00 | 00:00:00 | 00:00:00 | |
| DO3MHA-11 | 2026-09-05 02:51:54 | 47.28300 | 11.94801 | 105° | 91km/h | 10136m | 3.6m/s | -39.9°C | 33.4% | 0hPa | 2.7V | 00:00:00 | 01:05:50 | 08:30:00 | |
| BAUMI2-15 | 2026-09-05 02:51:53 | 47.28306 | 11.94768 | 105° | 91km/h | 10132m | 4.2m/s | -39.9°C | 33.9% | 0hPa | 2.7V | 00:00:00 | 01:05:49 | 00:00:00 | |
| DO3MHA-12 | 2026-09-05 02:51:51 | 47.28317 | 11.94702 | 105° | 91km/h | 10124m | 2.8m/s | -39.8°C | 34.3% | 0hPa | 2.7V | 00:00:00 | 01:05:47 | 00:00:00 | |
| BAUMI2-15 | 2026-09-05 02:51:48 | 47.28335 | 11.94605 | 105° | 91km/h | 10113m | 4.6m/s | -39.7°C | 32.7% | 0hPa | 2.7V | 00:00:00 | 01:05:44 | 00:00:00 | |
| OE5DXL-15 | 2026-09-05 02:51:47 | 47.28341 | 11.94573 | 105° | 93km/h | 10109m | 3.4m/s | -39.7°C | 31.5% | 0hPa | 2.7V | 00:00:00 | 00:00:00 | 00:00:00 | |
| DO3MHA-11 | 2026-09-05 02:51:44 | 47.28358 | 11.94474 | 104° | 91km/h | 10096m | 4.1m/s | -39.6°C | 27.2% | 0hPa | 2.7V | 00:00:00 | 01:05:40 | 00:00:00 | |
| BAUMI2-15 | 2026-09-05 02:51:43 | 47.28363 | 11.94440 | 104° | 91km/h | 10092m | 3.4m/s | -39.5°C | 26.6% | 0hPa | 2.7V | 00:00:00 | 01:05:39 | 00:00:00 | |
| DO3MHA-12 | 2026-09-05 02:51:41 | 47.28374 | 11.94375 | 104° | 93km/h | 10085m | 3.2m/s | -39.5°C | 24.7% | 0hPa | 2.7V | 00:00:00 | 01:05:37 | 00:00:00 | |
| NBG1-10 | 2026-09-05 02:51:40 | 47.28379 | 11.94343 | 103° | 93km/h | 10081m | 3.9m/s | -39.4°C | 23.3% | 0hPa | 2.7V | 00:00:00 | 01:05:36 | 00:00:00 | |
| BAUMI2-15 | 2026-09-05 02:51:38 | 47.28390 | 11.94276 | 104° | 93km/h | 10073m | 4.0m/s | -39.4°C | 22.0% | 0hPa | 2.7V | 00:00:00 | 01:05:34 | 00:00:00 | |
| PG1ADW-2 | 2026-09-05 02:51:36 | 47.28401 | 11.94209 | 104° | 95km/h | 10065m | 4.5m/s | 0°C | 0% | 0hPa | 2.7V | 00:00:00 | 01:05:32 | 00:00:00 | |
| IN3HCDX | 2026-09-05 02:51:35 | 47.28401 | 11.94209 | 104° | 95km/h | 10065m | 4.5m/s | -39.4°C | 17.9% | 0hPa | 2.7V | 00:00:00 | 00:00:00 | 00:00:00 | |
| DO3MHA-11 | 2026-09-05 02:51:34 | 47.28411 | 11.94140 | 102° | 95km/h | 10057m | 3.6m/s | -39.3°C | 19.8% | 0hPa | 2.7V | 00:00:00 | 01:05:30 | 00:00:00 | |
| BAUMI2-15 | 2026-09-05 02:51:33 | 47.28416 | 11.94106 | 103° | 93km/h | 10053m | 4.3m/s | -39.2°C | 18.9% | 0hPa | 2.7V | 00:00:00 | 01:05:29 | 08:30:00 | |
| DO3MHA-12 | 2026-09-05 02:51:31 | 47.28427 | 11.94038 | 104° | 93km/h | 10045m | 4.1m/s | -39.3°C | 17.0% | 0hPa | 2.7V | 00:00:00 | 01:05:27 | 00:00:00 | |
| BAUMI2-15 | 2026-09-05 02:51:28 | 47.28445 | 11.93937 | 104° | 93km/h | 10033m | 3.7m/s | -39.3°C | 16.8% | 0hPa | 2.7V | 00:00:00 | 01:05:24 | 00:00:00 | |
| OE3JTB-15 | 2026-09-05 02:51:26 | 47.28456 | 11.93869 | 103° | 93km/h | 10025m | 3.2m/s | -39.2°C | 17.5% | 0hPa | 2.7V | 00:00:00 | 01:05:22 | 00:00:00 | |
| DO3MHA-11 | 2026-09-05 02:51:24 | 47.28466 | 11.93801 | 103° | 93km/h | 10018m | 4.4m/s | -39.2°C | 17.9% | 0hPa | 2.7V | 00:00:00 | 01:05:20 | 00:00:00 | |
| BAUMI2-15 | 2026-09-05 02:51:23 | 47.28471 | 11.93768 | 103° | 91km/h | 10014m | 3.3m/s | -39.3°C | 17.0% | 0hPa | 2.7V | 00:00:00 | 01:05:19 | 00:00:00 | |
| OE5DRO-10 | 2026-09-05 02:51:22 | 47.28476 | 11.93736 | 104° | 93km/h | 10010m | 4.4m/s | -39.4°C | 15.9% | 0hPa | 2.7V | 00:00:00 | 00:00:00 | 00:00:00 | |
| DO3MHA-12 | 2026-09-05 02:51:21 | 47.28482 | 11.93703 | 104° | 93km/h | 10006m | 3.1m/s | -39.4°C | 15.8% | 0hPa | 2.7V | 00:00:00 | 01:05:17 | 00:00:00 | |
| BAUMI2-15 | 2026-09-05 02:51:18 | 47.28497 | 11.93601 | 103° | 95km/h | 9994m | 3.4m/s | -39.4°C | 15.8% | 0hPa | 2.7V | 00:00:00 | 01:05:14 | 00:00:00 | |
| OE5DXL-15 | 2026-09-05 02:51:17 | 47.28502 | 11.93567 | 103° | 95km/h | 9990m | 4.0m/s | -39.4°C | 15.7% | 0hPa | 2.7V | 00:00:00 | 00:00:00 | 00:00:00 | |
| DB0UT-7 | 2026-09-05 02:51:15 | 47.28512 | 11.93498 | 103° | 95km/h | 9982m | 3.4m/s | -39.4°C | 15.7% | 0hPa | 2.7V | 00:00:00 | 01:05:11 | 00:00:00 | |
| DO3MHA-11 | 2026-09-05 02:51:14 | 47.28518 | 11.93464 | 103° | 93km/h | 9978m | 4.3m/s | -39.4°C | 15.6% | 0hPa | 2.7V | 00:00:00 | 01:05:10 | 00:00:00 | |
| BAUMI2-15 | 2026-09-05 02:51:13 | 47.28523 | 11.93430 | 102° | 93km/h | 9974m | 4.7m/s | -39.4°C | 15.5% | 0hPa | 2.7V | 00:00:00 | 01:05:09 | 00:00:00 | |
| DO3MHA-12 | 2026-09-05 02:51:11 | 47.28532 | 11.93363 | 102° | 93km/h | 9966m | 4.8m/s | -39.3°C | 15.3% | 0hPa | 2.7V | 00:00:00 | 01:05:07 | 00:00:00 | |
| DG1MFX-10 | 2026-09-05 02:51:09 | 47.28536 | 11.93329 | 102° | 93km/h | 9961m | 3.2m/s | -39.4°C | 12.7% | 0hPa | 2.7V | 00:00:00 | 00:00:00 | 00:00:00 | |
| BAUMI2-15 | 2026-09-05 02:51:08 | 47.28545 | 11.93261 | 100° | 95km/h | 9954m | 3.9m/s | -39.3°C | 15.2% | 0hPa | 2.7V | 00:00:00 | 01:05:04 | 00:00:00 | |
| NBG1-10 | 2026-09-05 02:51:07 | 47.28549 | 11.93227 | 101° | 95km/h | 9950m | 3.2m/s | -39.3°C | 15.1% | 0hPa | 2.7V | 00:00:00 | 01:05:03 | 00:00:00 | |
| DO3MHA-11 | 2026-09-05 02:51:04 | 47.28562 | 11.93123 | 101° | 95km/h | 9939m | 4.1m/s | -39.3°C | 14.9% | 0hPa | 2.7V | 00:00:00 | 01:05:00 | 00:00:00 | |
| BAUMI2-15 | 2026-09-05 02:51:03 | 47.28567 | 11.93088 | 100° | 95km/h | 9935m | 3.8m/s | -39.2°C | 14.8% | 0hPa | 2.7V | 00:00:00 | 01:04:59 | 00:00:00 | |
| DL6DJ-15 | 2026-09-05 02:51:02 | 47.28571 | 11.93054 | 99° | 93km/h | 9930m | 4.1m/s | -39.3°C | 12.0% | -1.0hPa | 2.7V | 00:00:00 | 00:00:00 | 00:00:00 | |
| DB0ND-19 | 2026-09-05 02:50:55 | 47.28639 | 11.92459 | 99° | 93km/h | 9865m | 3.4m/s | -38.7°C | 12.4% | -1.0hPa | 2.7V | 00:00:00 | 00:00:00 | 00:00:00 | |
| IN3HCDX | 2026-09-05 02:50:54 | 47.28601 | 11.92777 | 102° | 97km/h | 9899m | 4.7m/s | -39.0°C | 12.3% | 0hPa | 2.7V | 00:00:00 | 00:00:00 | 00:00:00 | |
| BAUMI2-15 | 2026-09-05 02:50:53 | 47.28606 | 11.92741 | 102° | 97km/h | 9895m | 2.9m/s | -38.9°C | 14.9% | 0hPa | 2.7V | 00:00:00 | 01:04:49 | 00:00:00 | |
| DO3MHA-12 | 2026-09-05 02:50:51 | 47.28615 | 11.92670 | 101° | 95km/h | 9888m | 3.1m/s | -38.9°C | 15.0% | 0hPa | 2.7V | 00:00:00 | 01:04:47 | 00:00:00 | |
| BAUMI2-15 | 2026-09-05 02:50:48 | 47.28627 | 11.92564 | 100° | 95km/h | 9877m | 3.9m/s | -38.8°C | 14.9% | 0hPa | 2.7V | 00:00:00 | 01:04:44 | 08:30:00 | |
| OE5DXL-15 | 2026-09-05 02:50:47 | 47.28631 | 11.92529 | 100° | 97km/h | 9873m | 4.0m/s | -38.7°C | 14.9% | 0hPa | 2.7V | 00:00:00 | 00:00:00 | 00:00:00 | |
| DB0UT-7 | 2026-09-05 02:50:45 | 47.28639 | 11.92459 | 100° | 97km/h | 9865m | 3.3m/s | -38.7°C | 15.1% | 0hPa | 2.7V | 00:00:00 | 00:00:00 | 00:00:00 | |
| DO3MHA-11 | 2026-09-05 02:50:44 | 47.28643 | 11.92424 | 99° | 95km/h | 9861m | 4.1m/s | -38.6°C | 15.1% | 0hPa | 2.7V | 00:00:00 | 01:04:40 | 00:00:00 | |
| BAUMI2-15 | 2026-09-05 02:50:43 | 47.28647 | 11.92389 | 100° | 95km/h | 9857m | 4.2m/s | -38.6°C | 15.2% | 0hPa | 2.7V | 00:00:00 | 01:04:39 | 00:00:00 | |
| DO3MHA-12 | 2026-09-05 02:50:41 | 47.28655 | 11.92319 | 100° | 95km/h | 9849m | 4.0m/s | -38.5°C | 15.2% | 0hPa | 2.7V | 00:00:00 | 01:04:37 | 08:30:00 | |
| DO3MHA-11 | 2026-09-05 02:50:34 | 47.28686 | 11.92078 | 101° | 97km/h | 9820m | 4.1m/s | -38.4°C | 15.9% | 0hPa | 2.7V | 00:00:00 | 01:04:30 | 00:00:00 | |
| IN3HCDX | 2026-09-05 02:50:33 | 47.28686 | 11.92078 | 101° | 97km/h | 9820m | 4.2m/s | -38.4°C | 13.4% | 0hPa | 2.7V | 00:00:00 | 00:00:00 | 00:00:00 | |
| DO3MHA-12 | 2026-09-05 02:50:31 | 47.28700 | 11.91972 | 101° | 97km/h | 9807m | 3.9m/s | -38.4°C | 16.3% | 0hPa | 2.7V | 00:00:00 | 01:04:27 | 00:00:00 | |
| DB0NH | 2026-09-05 02:50:30 | 47.28705 | 11.91936 | 102° | 100km/h | 9804m | 3.5m/s | -38.4°C | 16.4% | 0hPa | 2.7V | 00:00:00 | 01:04:26 | 00:00:00 | |
| OE3JTB-15 | 2026-09-05 02:50:28 | 47.28714 | 11.91867 | 102° | 100km/h | 9796m | 2.9m/s | -38.4°C | 16.5% | 0hPa | 2.7V | 00:00:00 | 00:00:00 | 00:00:00 | |
| OE5DRO-10 | 2026-09-05 02:50:25 | 47.28728 | 11.91762 | 102° | 100km/h | 9785m | 4.2m/s | -38.3°C | 16.4% | 0hPa | 2.7V | 00:00:00 | 00:00:00 | 00:00:00 | |
| DO3MHA-11 | 2026-09-05 02:50:24 | 47.28733 | 11.91727 | 102° | 99km/h | 9781m | 3.5m/s | -38.3°C | 16.4% | 0hPa | 2.7V | 00:00:00 | 01:04:20 | 08:30:00 | |
| DO3MHA-12 | 2026-09-05 02:50:21 | 47.28747 | 11.91619 | 103° | 100km/h | 9768m | 4.6m/s | -38.2°C | 16.4% | 0hPa | 2.7V | 00:00:00 | 01:04:17 | 00:00:00 | |
| OE5DXL-15 | 2026-09-05 02:50:17 | 47.28769 | 11.91475 | 103° | 102km/h | 9752m | 3.5m/s | -38.1°C | 16.2% | 0hPa | 2.7V | 00:00:00 | 00:00:00 | 00:00:00 | |
| DB0UT-7 | 2026-09-05 02:50:15 | 47.28780 | 11.91403 | 104° | 102km/h | 9744m | 3.4m/s | -38.0°C | 16.0% | 0hPa | 2.7V | 00:00:00 | 01:04:11 | 08:30:00 | |
| DO3MHA-11 | 2026-09-05 02:50:14 | 47.28786 | 11.91383 | 104° | 102km/h | 9741m | 4.2m/s | -38.0°C | 16.0% | 0hPa | 2.7V | 00:00:00 | 01:04:10 | 00:00:00 | |
| IN3HCDX | 2026-09-05 02:50:12 | 47.28792 | 11.91330 | 105° | 100km/h | 9737m | 3.7m/s | -38.0°C | 13.3% | 0hPa | 2.7V | 00:00:00 | 00:00:00 | 00:00:00 | |
| DO3MHA-12 | 2026-09-05 02:50:11 | 47.28804 | 11.91258 | 104° | 102km/h | 9729m | 4.4m/s | -37.9°C | 15.7% | 0hPa | 2.7V | 00:00:00 | 01:04:07 | 00:00:00 | |
| DG1MFX-10 | 2026-09-05 02:50:07 | 47.28822 | 11.91148 | 105° | 102km/h | 9716m | 3.7m/s | -37.8°C | 13.0% | 0hPa | 2.7V | 00:00:00 | 00:00:00 | 00:00:00 | |
| OE5DRO-10 | 2026-09-05 02:50:06 | 47.28834 | 11.91074 | 104° | 102km/h | 9708m | 3.4m/s | -37.7°C | 15.4% | 0hPa | 2.7V | 00:00:00 | 00:00:00 | 00:00:00 | |
| DO3MHA-11 | 2026-09-05 02:50:04 | 47.28846 | 11.91000 | 103° | 102km/h | 9700m | 3.5m/s | -37.6°C | 15.3% | 0hPa | 2.7V | 00:00:00 | 01:04:00 | 00:00:00 | |
| DL6DJ-15 | 2026-09-05 02:50:00 | 47.28869 | 11.90854 | 103° | 102km/h | 9684m | 3.6m/s | -37.5°C | 12.5% | -1.0hPa | 2.7V | 00:00:00 | 00:00:00 | 00:00:00 | |
| DB0ND-19 | 2026-09-05 02:49:53 | 47.28913 | 11.90595 | 102° | 100km/h | 9655m | 3.4m/s | -37.3°C | 12.1% | -1.0hPa | 2.7V | 00:00:00 | 00:00:00 | 00:00:00 | |
| IN3HCDX | 2026-09-05 02:49:52 | 47.28919 | 11.90559 | 104° | 100km/h | 9652m | 4.3m/s | -37.2°C | 12.2% | 0hPa | 2.7V | 00:00:00 | 00:00:00 | 00:00:00 | |
| DO3MHA-12 | 2026-09-05 02:49:51 | 47.28925 | 11.90523 | 103° | 102km/h | 9648m | 4.0m/s | -37.1°C | 14.6% | 0hPa | 2.7V | 00:00:00 | 01:03:47 | 00:00:00 | |
| OE5DXL-15 | 2026-09-05 02:49:47 | 47.28948 | 11.90377 | 104° | 102km/h | 9632m | 4.2m/s | -37.0°C | 14.3% | 0hPa | 2.7V | 00:00:00 | 00:00:00 | 00:00:00 | |
| DB0UT-7 | 2026-09-05 02:49:45 | 47.28960 | 11.90304 | 104° | 102km/h | 9624m | 4.4m/s | -36.9°C | 14.2% | 0hPa | 2.7V | 00:00:00 | 00:00:00 | 00:00:00 | |
| DO3MHA-11 | 2026-09-05 02:49:44 | 47.28967 | 11.90267 | 104° | 102km/h | 9619m | 4.3m/s | -36.9°C | 14.1% | 0hPa | 2.7V | 00:00:00 | 01:03:40 | 00:00:00 | |
| DO3MHA-11 | 2026-09-05 02:49:34 | 47.29026 | 11.89896 | 103° | 102km/h | 9580m | 3.8m/s | -36.5°C | 13.6% | 0hPa | 2.7V | 00:00:00 | 01:03:30 | 00:00:00 | |
| DO3MHA-12 | 2026-09-05 02:49:31 | 47.29045 | 11.89785 | 104° | 102km/h | 9569m | 4.1m/s | -36.4°C | 13.5% | 0hPa | 2.7V | 00:00:00 | 01:03:27 | 00:00:00 | |
| DB0NH | 2026-09-05 02:49:30 | 47.29051 | 11.89748 | 104° | 102km/h | 9565m | 3.4m/s | -36.3°C | 13.5% | 0hPa | 2.7V | 00:00:00 | 01:03:26 | 00:00:00 | |
| DL6DJ-15 | 2026-09-05 02:49:29 | 47.29057 | 11.89712 | 103° | 100km/h | 9561m | 3.7m/s | -36.4°C | 11.0% | -1.0hPa | 2.7V | 00:00:00 | 00:00:00 | 00:00:00 | |
| NBG1-10 | 2026-09-05 02:49:28 | 47.29063 | 11.89675 | 105° | 102km/h | 9557m | 3.4m/s | -36.3°C | 13.3% | 0hPa | 2.7V | 00:00:00 | 01:03:24 | 00:00:00 | |
| DG1MFX-10 | 2026-09-05 02:49:26 | 47.29069 | 11.89639 | 105° | 100km/h | 9554m | 3.0m/s | -36.3°C | 11.0% | 0hPa | 2.7V | 00:00:00 | 00:00:00 | 00:00:00 | |
| DO3MHA-11 | 2026-09-05 02:49:24 | 47.29088 | 11.89529 | 105° | 102km/h | 9543m | 4.6m/s | -36.1°C | 12.8% | 0hPa | 2.7V | 00:00:00 | 01:03:20 | 00:00:00 | |
| DB0ND-19 | 2026-09-05 02:49:22 | 47.29101 | 11.89456 | 104° | 102km/h | 9534m | 3.9m/s | -36.1°C | 10.4% | -1.0hPa | 2.7V | 00:00:00 | 00:00:00 | 00:00:00 | |
| DO3MHA-12 | 2026-09-05 02:49:21 | 47.29108 | 11.89419 | 105° | 102km/h | 9531m | 3.6m/s | -36.0°C | 12.5% | 0hPa | 2.7V | 00:00:00 | 01:03:17 | 00:00:00 | |
| OE5DXL-15 | 2026-09-05 02:49:17 | 47.29133 | 11.89270 | 104° | 102km/h | 9514m | 3.6m/s | -35.9°C | 12.3% | 0hPa | 2.7V | 00:00:00 | 00:00:00 | 00:00:00 | |
| DB0UT-7 | 2026-09-05 02:49:15 | 47.29145 | 11.89197 | 104° | 102km/h | 9506m | 3.0m/s | -35.8°C | 12.2% | 0hPa | 2.9V | 00:00:00 | 01:03:11 | 00:00:00 | |
| DO3MHA-11 | 2026-09-05 02:49:14 | 47.29151 | 11.89160 | 104° | 102km/h | 9502m | 5.0m/s | -35.8°C | 12.0% | 0hPa | 2.9V | 00:00:00 | 01:03:10 | 00:00:00 | |
| DO3MHA-12 | 2026-09-05 02:49:11 | 47.29169 | 11.89049 | 103° | 102km/h | 9490m | 3.3m/s | -35.7°C | 12.1% | 0hPa | 2.9V | 00:00:00 | 01:03:07 | 08:30:00 | |
| OE5DRO-10 | 2026-09-05 02:49:09 | 47.29181 | 11.88974 | 103° | 102km/h | 9483m | 4.0m/s | -35.6°C | 12.0% | 0hPa | 2.7V | 00:00:00 | 00:00:00 | 00:00:00 | |
| IN3HCDX | 2026-09-05 02:49:07 | 47.29186 | 11.88936 | 103° | 104km/h | 9479m | 3.4m/s | -35.6°C | 9.9% | 0hPa | 2.7V | 00:00:00 | 00:00:00 | 00:00:00 | |
| DG1MFX-10 | 2026-09-05 02:49:06 | 47.29192 | 11.88899 | 103° | 102km/h | 9475m | 4.2m/s | -35.6°C | 9.9% | 0hPa | 2.7V | 00:00:00 | 00:00:00 | 00:00:00 | |
| DO3MHA-11 | 2026-09-05 02:49:04 | 47.29209 | 11.88789 | 104° | 102km/h | 9462m | 4.4m/s | -35.5°C | 11.9% | 0hPa | 2.7V | 00:00:00 | 01:03:00 | 00:00:00 | |
| IN3IJJ | 2026-09-05 02:49:03 | 47.29209 | 11.88789 | 104° | 100km/h | 9462m | 4.5m/s | 0°C | 0% | 0hPa | 2.7V | 00:00:00 | 00:00:00 | 00:00:00 | |
| DL6DJ-15 | 2026-09-05 02:48:58 | 47.29242 | 11.88566 | 101° | 102km/h | 9439m | 4.0m/s | -35.5°C | 9.7% | -1.0hPa | 2.7V | 00:00:00 | 00:00:00 | 00:00:00 | |
| NBG1-10 | 2026-09-05 02:48:55 | 47.29259 | 11.88454 | 103° | 102km/h | 9428m | 4.1m/s | -35.3°C | 11.7% | 0hPa | 2.7V | 00:00:00 | 01:02:51 | 00:00:00 | |
| DO3MHA-11 | 2026-09-05 02:48:54 | 47.29264 | 11.88417 | 104° | 102km/h | 9424m | 4.1m/s | -35.3°C | 11.8% | 0hPa | 2.7V | 00:00:00 | 01:02:50 | 08:30:00 | |
| DO3MHA-12 | 2026-09-05 02:48:51 | 47.29282 | 11.88305 | 103° | 102km/h | 9413m | 3.8m/s | -35.3°C | 11.8% | 0hPa | 2.9V | 00:00:00 | 01:02:47 | 00:00:00 | |
| OE5DRO-10 | 2026-09-05 02:48:50 | 47.29287 | 11.88268 | 101° | 102km/h | 9409m | 3.2m/s | -35.2°C | 11.8% | 0hPa | 2.9V | 00:00:00 | 00:00:00 | 00:00:00 | |
| OE5DXL-15 | 2026-09-05 02:48:47 | 47.29302 | 11.88156 | 102° | 102km/h | 9398m | 4.2m/s | -35.2°C | 12.1% | 0hPa | 2.9V | 00:00:00 | 00:00:00 | 00:00:00 | |
| IN3HCDX | 2026-09-05 02:48:46 | 47.29302 | 11.88156 | 103° | 102km/h | 9398m | 4.3m/s | -35.2°C | 10.1% | 0hPa | 2.9V | 00:00:00 | 00:00:00 | 00:00:00 | |
| DB0UT-7 | 2026-09-05 02:48:45 | 47.29312 | 11.88082 | 102° | 102km/h | 9390m | 3.1m/s | -35.1°C | 12.4% | 0hPa | 2.9V | 00:00:00 | 00:00:00 | 00:00:00 | |
| DO3MHA-11 | 2026-09-05 02:48:43 | 47.29322 | 11.88007 | 101° | 102km/h | 9382m | 3.7m/s | -35.1°C | 12.7% | 0hPa | 2.7V | 00:00:00 | 01:02:39 | 00:00:00 | |
| DO3MHA-12 | 2026-09-05 02:48:41 | 47.29332 | 11.87932 | 100° | 102km/h | 9374m | 3.1m/s | -35.0°C | 13.6% | 0hPa | 2.7V | 00:00:00 | 01:02:37 | 00:00:00 | |
| BAUMI2-15 | 2026-09-05 02:48:38 | 47.29346 | 11.87818 | 102° | 102km/h | 9362m | 4.1m/s | -34.9°C | 15.2% | 0hPa | 2.9V | 00:00:00 | 01:02:34 | 00:00:00 | |
| DO3MHA-11 | 2026-09-05 02:48:33 | 47.29372 | 11.87631 | 101° | 102km/h | 9342m | 3.0m/s | -34.9°C | 17.2% | 0hPa | 2.9V | 00:00:00 | 01:02:29 | 00:00:00 | |
| OE3JTB-15 | 2026-09-05 02:48:32 | 47.29377 | 11.87593 | 102° | 104km/h | 9339m | 4.2m/s | -34.9°C | 17.5% | 0hPa | 2.9V | 00:00:00 | 01:02:28 | 00:00:00 | |
| DO3MHA-12 | 2026-09-05 02:48:31 | 47.29382 | 11.87556 | 101° | 104km/h | 9335m | 3.6m/s | -34.9°C | 17.6% | 0hPa | 2.9V | 00:00:00 | 01:02:27 | 00:00:00 | |
| DB0NH | 2026-09-05 02:48:30 | 47.29386 | 11.87519 | 101° | 104km/h | 9331m | 4.6m/s | -34.9°C | 17.6% | 0hPa | 2.9V | 00:00:00 | 01:02:26 | 08:30:00 | |
| BAUMI2-15 | 2026-09-05 02:48:28 | 47.29395 | 11.87444 | 101° | 104km/h | 9323m | 4.0m/s | -34.8°C | 17.6% | 0hPa | 2.9V | 00:00:00 | 01:02:24 | 00:00:00 | |
| DL6DJ-15 | 2026-09-05 02:48:27 | 47.29400 | 11.87406 | 100° | 102km/h | 9319m | 3.6m/s | -34.8°C | 15.2% | -1.0hPa | 2.9V | 00:00:00 | 00:00:00 | 00:00:00 | |
| IN3HCDX | 2026-09-05 02:48:26 | 47.29405 | 11.87368 | 101° | 104km/h | 9315m | 4.3m/s | -34.8°C | 15.4% | 0hPa | 2.9V | 00:00:00 | 00:00:00 | 00:00:00 | |
| DG1MFX-10 | 2026-09-05 02:48:25 | 47.29405 | 11.87368 | 101° | 104km/h | 9315m | 4.3m/s | -34.8°C | 15.4% | 0hPa | 2.9V | 00:00:00 | 00:00:00 | 00:00:00 | |
| BAUMI2-15 | 2026-09-05 02:48:23 | 47.29418 | 11.87253 | 100° | 104km/h | 9303m | 4.4m/s | -34.7°C | 17.6% | 0hPa | 2.9V | 00:00:00 | 01:02:19 | 00:00:00 | |
| NBG1-10 | 2026-09-05 02:48:22 | 47.29422 | 11.87215 | 100° | 104km/h | 9299m | 3.2m/s | -34.6°C | 17.4% | 0hPa | 2.9V | 00:00:00 | 01:02:18 | 08:30:00 | |
| DO3MHA-12 | 2026-09-05 02:48:21 | 47.29427 | 11.87177 | 101° | 102km/h | 9295m | 4.1m/s | -34.6°C | 17.3% | 0hPa | 2.9V | 00:00:00 | 01:02:17 | 00:00:00 | |
| BAUMI2-15 | 2026-09-05 02:48:18 | 47.29441 | 11.87063 | 101° | 102km/h | 9283m | 4.2m/s | -34.6°C | 16.9% | 0hPa | 2.9V | 00:00:00 | 01:02:14 | 00:00:00 | |
| OE5DXL-15 | 2026-09-05 02:48:17 | 47.29446 | 11.87026 | 101° | 104km/h | 9279m | 4.0m/s | -34.6°C | 16.9% | 0hPa | 2.9V | 00:00:00 | 00:00:00 | 00:00:00 | |
| DB0UT-7 | 2026-09-05 02:48:15 | 47.29455 | 11.86952 | 101° | 104km/h | 9270m | 4.0m/s | -34.5°C | 16.8% | 0hPa | 2.9V | 00:00:00 | 01:02:11 | 00:00:00 | |
| DO3MHA-11 | 2026-09-05 02:48:13 | 47.29465 | 11.86876 | 101° | 104km/h | 9263m | 3.0m/s | -34.4°C | 16.7% | 0hPa | 2.9V | 00:00:00 | 01:02:09 | 00:00:00 | |
| OE5DRO-10 | 2026-09-05 02:48:12 | 47.29470 | 11.86838 | 101° | 104km/h | 9260m | 4.4m/s | -34.4°C | 16.7% | 0hPa | 2.9V | 00:00:00 | 00:00:00 | 00:00:00 | |
| DO3MHA-12 | 2026-09-05 02:48:11 | 47.29474 | 11.86800 | 100° | 104km/h | 9256m | 3.2m/s | -34.3°C | 16.8% | 0hPa | 2.9V | 00:00:00 | 01:02:07 | 00:00:00 | |
| IN3IJJ | 2026-09-05 02:48:09 | 47.29479 | 11.86762 | 100° | 106km/h | 9252m | 3.9m/s | 0°C | 0% | 0hPa | 2.9V | 00:00:00 | 00:00:00 | 00:00:00 | |
| BAUMI2-15 | 2026-09-05 02:48:08 | 47.29487 | 11.86684 | 99° | 104km/h | 9244m | 3.6m/s | -34.2°C | 16.5% | 0hPa | 2.9V | 00:00:00 | 01:02:04 | 00:00:00 | |
| DG1MFX-10 | 2026-09-05 02:48:05 | 47.29494 | 11.86606 | 98° | 106km/h | 9236m | 4.3m/s | -34.2°C | 14.1% | 0hPa | 2.9V | 00:00:00 | 00:00:00 | 00:00:00 | |
| IN3HCDX | 2026-09-05 02:48:04 | 47.29497 | 11.86567 | 98° | 106km/h | 9232m | 3.8m/s | -34.2°C | 14.0% | 0hPa | 2.9V | 00:00:00 | 00:00:00 | 00:00:00 | |
| DO3MHA-11 | 2026-09-05 02:48:03 | 47.29505 | 11.86491 | 98° | 104km/h | 9223m | 3.0m/s | -34.1°C | 16.0% | 0hPa | 2.9V | 00:00:00 | 01:01:59 | 00:00:00 | |
| DL6DJ-15 | 2026-09-05 02:47:56 | 47.29528 | 11.86223 | 97° | 104km/h | 9193m | 4.3m/s | -34.0°C | 12.8% | -1.0hPa | 2.9V | 00:00:00 | 00:00:00 | 00:00:00 | |
| BAUMI2-15 | 2026-09-05 02:47:53 | 47.29539 | 11.86106 | 98° | 102km/h | 9180m | 4.8m/s | -33.8°C | 14.8% | 0hPa | 2.9V | 00:00:00 | 01:01:49 | 00:00:00 | |
| DO3MHA-12 | 2026-09-05 02:47:51 | 47.29545 | 11.86030 | 96° | 100km/h | 9171m | 4.3m/s | -33.8°C | 14.9% | 0hPa | 2.9V | 00:00:00 | 01:01:47 | 00:00:00 | |
| NBG1-10 | 2026-09-05 02:47:49 | 47.29551 | 11.85954 | 96° | 99km/h | 9162m | 3.2m/s | -33.7°C | 14.9% | 0hPa | 2.9V | 00:00:00 | 01:01:45 | 00:00:00 | |
| BAUMI2-15 | 2026-09-05 02:47:48 | 47.29553 | 11.85918 | 96° | 99km/h | 9158m | 4.5m/s | -33.7°C | 14.8% | 0hPa | 2.9V | 00:00:00 | 01:01:44 | 00:00:00 | |
| OE5DXL-15 | 2026-09-05 02:47:47 | 47.29556 | 11.85882 | 96° | 99km/h | 9154m | 3.4m/s | -33.7°C | 14.6% | 0hPa | 2.9V | 00:00:00 | 01:01:43 | 08:30:00 | |
| DB0UT-7 | 2026-09-05 02:47:45 | 47.29560 | 11.85809 | 96° | 99km/h | 9145m | 5.0m/s | -33.6°C | 14.3% | 0hPa | 2.9V | 00:00:00 | 00:00:00 | 00:00:00 | |
| BAUMI2-15 | 2026-09-05 02:47:43 | 47.29565 | 11.85732 | 95° | 100km/h | 9135m | 7.5m/s | -33.5°C | 14.0% | 0hPa | 2.9V | 00:00:00 | 01:01:39 | 00:00:00 | |
| DO3MHA-12 | 2026-09-05 02:47:41 | 47.29569 | 11.85658 | 94° | 99km/h | 9122m | 4.0m/s | -33.4°C | 14.2% | 0hPa | 2.9V | 00:00:00 | 01:01:37 | 08:30:00 | |
| BAUMI2-15 | 2026-09-05 02:47:38 | 47.29573 | 11.85549 | 95° | 99km/h | 9108m | 4.4m/s | -33.3°C | 14.1% | 0hPa | 2.9V | 00:00:00 | 01:01:34 | 00:00:00 | |
| OE3JTB-15 | 2026-09-05 02:47:34 | 47.29581 | 11.85403 | 97° | 99km/h | 9090m | 4.9m/s | -33.2°C | 14.0% | 0hPa | 2.9V | 00:00:00 | 00:00:00 | 00:00:00 | |
| DO3MHA-11 | 2026-09-05 02:47:33 | 47.29584 | 11.85367 | 97° | 99km/h | 9086m | 3.4m/s | -33.2°C | 13.9% | 0hPa | 2.9V | 00:00:00 | 01:01:29 | 00:00:00 | |
| DO3MHA-12 | 2026-09-05 02:47:31 | 47.29588 | 11.85293 | 94° | 99km/h | 9078m | 3.4m/s | -33.1°C | 13.7% | 0hPa | 2.9V | 00:00:00 | 01:01:27 | 00:00:00 | |
| DB0NH | 2026-09-05 02:47:30 | 47.29590 | 11.85256 | 93° | 100km/h | 9074m | 4.4m/s | -33.1°C | 13.6% | 0hPa | 2.9V | 00:00:00 | 01:01:26 | 00:00:00 | |
| BAUMI2-15 | 2026-09-05 02:47:28 | 47.29592 | 11.85184 | 92° | 99km/h | 9065m | 4.0m/s | -33.0°C | 13.3% | 0hPa | 2.9V | 00:00:00 | 01:01:24 | 00:00:00 | |
| DL6DJ-15 | 2026-09-05 02:47:25 | 47.29594 | 11.85075 | 91° | 97km/h | 9053m | 2.4m/s | -33.0°C | 11.2% | -1.0hPa | 2.9V | 00:00:00 | 00:00:00 | 00:00:00 | |
| DG1MFX-10 | 2026-09-05 02:47:24 | 47.29594 | 11.85075 | 93° | 97km/h | 9053m | 2.4m/s | -33.0°C | 11.3% | 0hPa | 2.9V | 00:00:00 | 00:00:00 | 00:00:00 | |
| DO3MHA-11 | 2026-09-05 02:47:23 | 47.29596 | 11.85001 | 93° | 99km/h | 9046m | 3.1m/s | -32.9°C | 13.1% | 0hPa | 2.9V | 00:00:00 | 01:01:19 | 08:30:00 | |
| DO3MHA-12 | 2026-09-05 02:47:21 | 47.29597 | 11.84927 | 92° | 99km/h | 9038m | 3.4m/s | -32.8°C | 12.9% | 0hPa | 2.9V | 00:00:00 | 01:01:17 | 00:00:00 | |
| BAUMI2-15 | 2026-09-05 02:47:18 | 47.29599 | 11.84818 | 91° | 99km/h | 9026m | 3.5m/s | -32.7°C | 12.8% | 0hPa | 2.9V | 00:00:00 | 01:01:14 | 08:30:00 | |
| OE5DXL-15 | 2026-09-05 02:47:17 | 47.29599 | 11.84782 | 92° | 102km/h | 9022m | 4.2m/s | -32.7°C | 12.7% | 0hPa | 2.7V | 00:00:00 | 00:00:00 | 00:00:00 | |
| NBG1-10 | 2026-09-05 02:47:16 | 47.29600 | 11.84745 | 93° | 102km/h | 9019m | 3.3m/s | -32.6°C | 12.8% | 0hPa | 2.7V | 00:00:00 | 01:01:12 | 00:00:00 | |
| DB0UT-7 | 2026-09-05 02:47:15 | 47.29601 | 11.84708 | 93° | 102km/h | 9015m | 3.8m/s | -32.6°C | 12.7% | 0hPa | 2.7V | 00:00:00 | 01:01:11 | 00:00:00 | |
| DO3MHA-11 | 2026-09-05 02:47:13 | 47.29604 | 11.84635 | 94° | 100km/h | 9007m | 3.2m/s | -32.6°C | 12.9% | 0hPa | 2.9V | 00:00:00 | 01:01:09 | 00:00:00 | |
| DO3MHA-12 | 2026-09-05 02:47:11 | 47.29606 | 11.84559 | 93° | 100km/h | 9000m | 3.6m/s | -32.5°C | 12.9% | 0hPa | 2.9V | 00:00:00 | 01:01:07 | 00:00:00 | |
| BAUMI2-15 | 2026-09-05 02:47:08 | 47.29609 | 11.84447 | 92° | 100km/h | 8989m | 4.0m/s | -32.4°C | 12.9% | 0hPa | 2.9V | 00:00:00 | 01:01:04 | 00:00:00 | |
| OE3JTB-15 | 2026-09-05 02:47:05 | 47.29612 | 11.84335 | 92° | 102km/h | 8977m | 5.0m/s | -32.3°C | 12.9% | 0hPa | 2.9V | 00:00:00 | 01:01:01 | 00:00:00 | |
| DG1MFX-10 | 2026-09-05 02:47:04 | 47.29612 | 11.84335 | 93° | 100km/h | 8977m | 5.1m/s | -32.4°C | 11.1% | 0hPa | 2.9V | 00:00:00 | 00:00:00 | 00:00:00 | |
| IN3HCDX | 2026-09-05 02:47:02 | 47.29614 | 11.84261 | 94° | 100km/h | 8968m | 3.1m/s | -32.3°C | 11.5% | 0hPa | 2.9V | 00:00:00 | 00:00:00 | 00:00:00 | |
| DL6DJ-15 | 2026-09-05 02:46:54 | 47.29627 | 11.83918 | 91° | 102km/h | 8934m | 2.8m/s | -32.1°C | 12.1% | -1.0hPa | 2.9V | 00:00:00 | 00:00:00 | 00:00:00 | |
| DO3MHA-11 | 2026-09-05 02:46:53 | 47.29627 | 11.83880 | 92° | 104km/h | 8930m | 4.6m/s | -32.0°C | 14.2% | 0hPa | 2.9V | 00:00:00 | 01:00:49 | 00:00:00 | |
| DO3MHA-12 | 2026-09-05 02:46:51 | 47.29630 | 11.83802 | 93° | 104km/h | 8923m | 3.5m/s | -32.0°C | 14.4% | 0hPa | 2.9V | 00:00:00 | 01:00:47 | 00:00:00 | |
| BAUMI2-15 | 2026-09-05 02:46:48 | 47.29634 | 11.83688 | 94° | 102km/h | 8912m | 4.1m/s | -31.9°C | 14.3% | 0hPa | 2.9V | 00:00:00 | 01:00:44 | 00:00:00 | |
| OE5DXL-15 | 2026-09-05 02:46:47 | 47.29635 | 11.83650 | 93° | 102km/h | 8908m | 4.5m/s | -31.9°C | 14.2% | 0hPa | 2.9V | 00:00:00 | 00:00:00 | 00:00:00 | |
| DB0UT-7 | 2026-09-05 02:46:45 | 47.29637 | 11.83574 | 92° | 102km/h | 8900m | 4.4m/s | -31.8°C | 14.3% | 0hPa | 2.9V | 00:00:00 | 00:00:00 | 00:00:00 | |
| DG1MFX-10 | 2026-09-05 02:46:44 | 47.29637 | 11.83574 | 93° | 104km/h | 8900m | 4.4m/s | -31.9°C | 12.4% | 0hPa | 2.9V | 00:00:00 | 00:00:00 | 00:00:00 | |
| DO3MHA-11 | 2026-09-05 02:46:43 | 47.29638 | 11.83495 | 92° | 104km/h | 8893m | 4.4m/s | -31.8°C | 14.3% | 0hPa | 2.9V | 00:00:00 | 01:00:39 | 00:00:00 | |
| DO3MHA-12 | 2026-09-05 02:46:41 | 47.29640 | 11.83417 | 92° | 102km/h | 8885m | 3.7m/s | -31.7°C | 14.3% | 0hPa | 2.9V | 00:00:00 | 01:00:37 | 00:00:00 | |
| OE5DRO-10 | 2026-09-05 02:46:37 | 47.29642 | 11.83262 | 92° | 102km/h | 8870m | 4.6m/s | -31.6°C | 14.2% | 0hPa | 2.7V | 00:00:00 | 00:00:00 | 00:00:00 | |
| OE3JTB-15 | 2026-09-05 02:46:36 | 47.29643 | 11.83224 | 93° | 102km/h | 8865m | 4.5m/s | -31.6°C | 14.3% | 0hPa | 2.7V | 00:00:00 | 00:00:00 | 08:30:00 | |
| DO3MHA-11 | 2026-09-05 02:46:33 | 47.29646 | 11.83111 | 91° | 102km/h | 8854m | 2.8m/s | -31.5°C | 14.4% | 0hPa | 2.9V | 00:00:00 | 01:00:29 | 00:00:00 | |
| DO3MHA-12 | 2026-09-05 02:46:31 | 47.29646 | 11.83036 | 91° | 102km/h | 8847m | 4.2m/s | -31.4°C | 14.3% | 0hPa | 2.9V | 00:00:00 | 01:00:27 | 00:00:00 | |
| DB0NH | 2026-09-05 02:46:29 | 47.29646 | 11.82960 | 90° | 102km/h | 8839m | 3.6m/s | -31.3°C | 14.3% | 0hPa | 2.9V | 00:00:00 | 01:00:25 | 00:00:00 | |
| DO3MHA-11 | 2026-09-05 02:46:23 | 47.29646 | 11.82729 | 91° | 100km/h | 8817m | 3.3m/s | -31.1°C | 14.1% | 0hPa | 2.9V | 00:00:00 | 01:00:19 | 00:00:00 | |
| DO3MHA-12 | 2026-09-05 02:46:21 | 47.29646 | 11.82652 | 90° | 100km/h | 8810m | 4.2m/s | -31.1°C | 14.0% | 0hPa | 2.9V | 00:00:00 | 01:00:17 | 00:00:00 | |
| IN3HCDX | 2026-09-05 02:46:20 | 47.29646 | 11.82652 | 90° | 102km/h | 8810m | 4.3m/s | -31.1°C | 12.1% | 0hPa | 2.9V | 00:00:00 | 00:00:00 | 00:00:00 | |
| OE5DRO-10 | 2026-09-05 02:46:18 | 47.29644 | 11.82539 | 89° | 100km/h | 8799m | 3.0m/s | -31.0°C | 14.1% | 0hPa | 2.9V | 00:00:00 | 00:00:00 | 00:00:00 | |
| OE5DXL-15 | 2026-09-05 02:46:17 | 47.29644 | 11.82503 | 89° | 100km/h | 8795m | 3.9m/s | -30.9°C | 14.0% | 0hPa | 2.9V | 00:00:00 | 00:00:00 | 00:00:00 | |
| DB0UT-7 | 2026-09-05 02:46:15 | 47.29642 | 11.82428 | 89° | 100km/h | 8787m | 3.2m/s | -30.9°C | 14.0% | 0hPa | 2.9V | 00:00:00 | 01:00:11 | 00:00:00 | |
| DO3MHA-11 | 2026-09-05 02:46:13 | 47.29642 | 11.82353 | 91° | 100km/h | 8780m | 2.5m/s | -30.8°C | 14.1% | 0hPa | 2.9V | 00:00:00 | 01:00:09 | 00:00:00 | |
| DO3MHA-12 | 2026-09-05 02:46:11 | 47.29642 | 11.82277 | 89° | 100km/h | 8773m | 3.2m/s | -30.8°C | 14.0% | 0hPa | 2.9V | 00:00:00 | 01:00:07 | 08:30:00 | |
| NBG1-10 | 2026-09-05 02:46:10 | 47.29641 | 11.82239 | 90° | 100km/h | 8770m | 4.0m/s | -30.7°C | 13.9% | 0hPa | 2.9V | 00:00:00 | 01:00:06 | 00:00:00 | |
| OE3JTB-15 | 2026-09-05 02:46:07 | 47.29639 | 11.82125 | 89° | 100km/h | 8759m | 4.2m/s | -30.6°C | 13.9% | 0hPa | 2.9V | 00:00:00 | 00:00:00 | 00:00:00 | |
| DO3MHA-11 | 2026-09-05 02:46:03 | 47.29638 | 11.81978 | 91° | 100km/h | 8745m | 2.4m/s | -30.6°C | 14.3% | 0hPa | 2.9V | 00:00:00 | 00:59:59 | 00:00:00 | |
| DL6DJ-15 | 2026-09-05 02:45:52 | 47.29630 | 11.81527 | 88° | 99km/h | 8703m | 4.2m/s | -30.4°C | 12.5% | -1.0hPa | 2.9V | 00:00:00 | 00:00:00 | 00:00:00 | |
| DO3MHA-12 | 2026-09-05 02:45:51 | 47.29630 | 11.81527 | 89° | 100km/h | 8703m | 4.1m/s | -30.3°C | 14.4% | 0hPa | 2.9V | 00:00:00 | 00:59:47 | 00:00:00 | |
| OE5DXL-15 | 2026-09-05 02:45:47 | 47.29627 | 11.81379 | 89° | 102km/h | 8689m | 4.2m/s | -30.2°C | 14.2% | 0hPa | 2.9V | 00:00:00 | 00:00:00 | 00:00:00 | |
| DB0UT-7 | 2026-09-05 02:45:45 | 47.29625 | 11.81303 | 88° | 102km/h | 8681m | 2.8m/s | -30.1°C | 14.2% | 0hPa | 2.9V | 00:00:00 | 00:00:00 | 08:30:00 | |
| DO3MHA-11 | 2026-09-05 02:45:43 | 47.29624 | 11.81227 | 89° | 102km/h | 8673m | 2.8m/s | -30.1°C | 14.2% | 0hPa | 2.7V | 00:00:00 | 00:59:39 | 00:00:00 | |
| DG1MFX-10 | 2026-09-05 02:45:42 | 47.29624 | 11.81227 | 90° | 102km/h | 8673m | 2.9m/s | -30.1°C | 12.4% | 0hPa | 2.7V | 00:00:00 | 00:00:00 | 00:00:00 | |
| DO3MHA-12 | 2026-09-05 02:45:41 | 47.29621 | 11.81151 | 87° | 102km/h | 8666m | 3.4m/s | -30.0°C | 14.1% | 0hPa | 2.7V | 00:00:00 | 00:59:37 | 00:00:00 | |
| OE5DRO-10 | 2026-09-05 02:45:40 | 47.29620 | 11.81113 | 87° | 102km/h | 8662m | 3.7m/s | -30.0°C | 14.0% | 0hPa | 2.9V | 00:00:00 | 00:00:00 | 00:00:00 | |
| IN3HCDX | 2026-09-05 02:45:39 | 47.29619 | 11.81075 | 88° | 102km/h | 8658m | 3.7m/s | -30.0°C | 12.3% | 0hPa | 2.9V | 00:00:00 | 00:00:00 | 00:00:00 | |
| OE3JTB-15 | 2026-09-05 02:45:38 | 47.29618 | 11.81037 | 88° | 102km/h | 8655m | 3.2m/s | -29.9°C | 14.0% | 0hPa | 2.9V | 00:00:00 | 00:59:34 | 00:00:00 | |
| NBG1-10 | 2026-09-05 02:45:37 | 47.29616 | 11.80999 | 87° | 104km/h | 8651m | 4.2m/s | -29.9°C | 13.9% | 0hPa | 2.9V | 00:00:00 | 00:59:33 | 00:00:00 | |
| IN3IJJ | 2026-09-05 02:45:34 | 47.29614 | 11.80923 | 89° | 102km/h | 8644m | 3.4m/s | 0°C | 0% | 0hPa | 2.9V | 00:00:00 | 00:00:00 | 00:00:00 | |
| DO3MHA-11 | 2026-09-05 02:45:33 | 47.29612 | 11.80848 | 87° | 102km/h | 8636m | 4.0m/s | -29.8°C | 14.0% | 0hPa | 2.9V | 00:00:00 | 00:59:29 | 00:00:00 | |
| DO3MHA-12 | 2026-09-05 02:45:31 | 47.29609 | 11.80773 | 88° | 102km/h | 8630m | 4.0m/s | -29.7°C | 13.9% | 0hPa | 2.9V | 00:00:00 | 00:59:27 | 00:00:00 | |
| DB0NH | 2026-09-05 02:45:28 | 47.29607 | 11.80659 | 89° | 104km/h | 8619m | 4.0m/s | -29.6°C | 13.8% | 0hPa | 2.9V | 00:00:00 | 00:59:24 | 00:00:00 | |
| DL6DJ-15 | 2026-09-05 02:45:21 | 47.29600 | 11.80357 | 89° | 102km/h | 8587m | 3.9m/s | -29.5°C | 12.2% | -1.0hPa | 2.9V | 00:00:00 | 00:00:00 | 00:00:00 | |
| OE5DXL-15 | 2026-09-05 02:45:17 | 47.29599 | 11.80242 | 88° | 106km/h | 8576m | 2.9m/s | -29.4°C | 14.0% | 0hPa | 2.9V | 00:00:00 | 00:00:00 | 00:00:00 | |
| DB0UT-7 | 2026-09-05 02:45:15 | 47.29596 | 11.80164 | 87° | 106km/h | 8569m | 3.4m/s | -29.3°C | 14.0% | 0hPa | 2.9V | 00:00:00 | 00:59:11 | 00:00:00 | |
| IN3HCDX | 2026-09-05 02:45:14 | 47.29596 | 11.80164 | 88° | 106km/h | 8569m | 3.5m/s | -29.4°C | 12.3% | 0hPa | 2.9V | 00:00:00 | 00:00:00 | 00:00:00 | |
| DO3MHA-11 | 2026-09-05 02:45:13 | 47.29592 | 11.80086 | 86° | 106km/h | 8561m | 3.7m/s | -29.3°C | 13.9% | 0hPa | 2.9V | 00:00:00 | 00:59:09 | 00:00:00 | |
| DO3MHA-12 | 2026-09-05 02:45:11 | 47.29588 | 11.80009 | 87° | 106km/h | 8555m | 4.1m/s | -29.2°C | 13.9% | 0hPa | 2.9V | 00:00:00 | 00:59:07 | 00:00:00 | |
| OE3JTB-15 | 2026-09-05 02:45:09 | 47.29585 | 11.79930 | 87° | 106km/h | 8548m | 3.2m/s | -29.1°C | 13.8% | 0hPa | 2.9V | 00:00:00 | 00:00:00 | 00:00:00 | |
| NBG1-10 | 2026-09-05 02:45:04 | 47.29577 | 11.79735 | 86° | 106km/h | 8527m | 3.6m/s | -29.0°C | 13.6% | 0hPa | 2.9V | 00:00:00 | 00:59:00 | 00:00:00 | |
| DL6DJ-15 | 2026-09-05 02:44:50 | 47.29544 | 11.79148 | 85° | 104km/h | 8471m | 4.5m/s | -28.5°C | 11.4% | -1.0hPa | 2.9V | 00:00:00 | 00:00:00 | 00:00:00 | |
| OE5DXL-15 | 2026-09-05 02:44:47 | 47.29540 | 11.79069 | 86° | 106km/h | 8464m | 4.0m/s | -28.3°C | 13.1% | 0hPa | 2.9V | 00:00:00 | 00:00:00 | 00:00:00 | |
| DB0UT-7 | 2026-09-05 02:44:45 | 47.29536 | 11.78992 | 85° | 106km/h | 8456m | 3.3m/s | -28.3°C | 13.1% | 0hPa | 2.7V | 00:00:00 | 00:00:00 | 00:00:00 | |
| DO3MHA-11 | 2026-09-05 02:44:43 | 47.29532 | 11.78913 | 87° | 106km/h | 8449m | 2.7m/s | -28.2°C | 13.0% | 0hPa | 2.7V | 00:00:00 | 00:58:39 | 00:00:00 | |
| DO3MHA-12 | 2026-09-05 02:44:41 | 47.29528 | 11.78834 | 87° | 106km/h | 8441m | 3.6m/s | -28.1°C | 12.9% | 0hPa | 2.7V | 00:00:00 | 00:58:37 | 08:30:00 | |
| OE3JTB-15 | 2026-09-05 02:44:40 | 47.29527 | 11.78794 | 87° | 106km/h | 8438m | 4.2m/s | -28.1°C | 12.9% | 0hPa | 2.9V | 00:00:00 | 00:00:00 | 00:00:00 | |
| BAUMI2-15 | 2026-09-05 02:44:37 | 47.29522 | 11.78676 | 87° | 106km/h | 8426m | 3.4m/s | -28.0°C | 12.8% | 0hPa | 2.9V | 00:00:00 | 00:58:33 | 00:00:00 | |
| DO3MHA-11 | 2026-09-05 02:44:33 | 47.29516 | 11.78519 | 87° | 106km/h | 8411m | 3.4m/s | -27.9°C | 12.8% | 0hPa | 2.9V | 00:00:00 | 00:58:29 | 00:00:00 | |
| BAUMI2-15 | 2026-09-05 02:44:32 | 47.29514 | 11.78479 | 87° | 106km/h | 8407m | 4.9m/s | -27.8°C | 12.7% | 0hPa | 2.9V | 00:00:00 | 00:58:28 | 08:30:00 | |
| DO3MHA-12 | 2026-09-05 02:44:31 | 47.29512 | 11.78440 | 85° | 106km/h | 8402m | 3.3m/s | -27.8°C | 12.8% | 0hPa | 2.9V | 00:00:00 | 00:58:27 | 00:00:00 | |
| DB0NH | 2026-09-05 02:44:28 | 47.29504 | 11.78321 | 85° | 108km/h | 8391m | 3.9m/s | -27.7°C | 12.8% | 0hPa | 2.9V | 00:00:00 | 00:58:24 | 00:00:00 | |
| BAUMI2-15 | 2026-09-05 02:44:27 | 47.29502 | 11.78282 | 86° | 106km/h | 8387m | 3.9m/s | -27.7°C | 12.9% | 0hPa | 2.9V | 00:00:00 | 00:58:23 | 00:00:00 | |
| OE5DRO-10 | 2026-09-05 02:44:24 | 47.29495 | 11.78164 | 85° | 108km/h | 8375m | 3.1m/s | -27.6°C | 12.9% | 0hPa | 2.9V | 00:00:00 | 00:00:00 | 00:00:00 | |
| DO3MHA-11 | 2026-09-05 02:44:23 | 47.29493 | 11.78125 | 86° | 106km/h | 8371m | 4.5m/s | -27.5°C | 12.9% | 0hPa | 2.9V | 00:00:00 | 00:58:19 | 08:30:00 | |
| BAUMI2-15 | 2026-09-05 02:44:22 | 47.29490 | 11.78086 | 86° | 106km/h | 8366m | 3.3m/s | -27.5°C | 13.0% | 0hPa | 2.7V | 00:00:00 | 00:58:18 | 00:00:00 | |
| DO3MHA-12 | 2026-09-05 02:44:21 | 47.29488 | 11.78047 | 85° | 108km/h | 8362m | 4.7m/s | -27.5°C | 12.9% | 0hPa | 2.7V | 00:00:00 | 00:58:17 | 00:00:00 | |
| DG1MFX-10 | 2026-09-05 02:44:20 | 47.29488 | 11.78047 | 86° | 106km/h | 8362m | 4.8m/s | -27.5°C | 11.4% | 0hPa | 2.7V | 00:00:00 | 00:00:00 | 00:00:00 | |
| DL6DJ-15 | 2026-09-05 02:44:19 | 47.29481 | 11.77928 | 85° | 106km/h | 8350m | 3.9m/s | -27.5°C | 11.5% | -1.0hPa | 2.7V | 00:00:00 | 00:00:00 | 00:00:00 | |
| OE5DXL-15 | 2026-09-05 02:44:17 | 47.29479 | 11.77888 | 85° | 108km/h | 8346m | 5.4m/s | -27.5°C | 13.1% | 0hPa | 2.7V | 00:00:00 | 00:00:00 | 00:00:00 | |
| DB0UT-7 | 2026-09-05 02:44:15 | 47.29473 | 11.77809 | 84° | 108km/h | 8338m | 3.8m/s | -27.4°C | 13.4% | 0hPa | 2.7V | 00:00:00 | 00:58:11 | 00:00:00 | |
| DO3MHA-11 | 2026-09-05 02:44:13 | 47.29467 | 11.77729 | 84° | 110km/h | 8329m | 4.1m/s | -27.4°C | 13.3% | 0hPa | 2.9V | 00:00:00 | 00:58:09 | 00:00:00 | |
| DO3MHA-12 | 2026-09-05 02:44:11 | 47.29460 | 11.77647 | 84° | 110km/h | 8321m | 4.3m/s | -27.3°C | 13.5% | 0hPa | 2.9V | 00:00:00 | 00:58:07 | 00:00:00 | |
| BAUMI2-15 | 2026-09-05 02:44:07 | 47.29449 | 11.77486 | 86° | 110km/h | 8306m | 4.0m/s | -27.2°C | 13.4% | 0hPa | 2.9V | 00:00:00 | 00:58:03 | 00:00:00 | |
| OE5DRO-10 | 2026-09-05 02:44:05 | 47.29444 | 11.77405 | 86° | 108km/h | 8298m | 4.0m/s | -27.2°C | 13.4% | 0hPa | 2.9V | 00:00:00 | 00:00:00 | 08:30:00 | |
| DO3MHA-11 | 2026-09-05 02:44:03 | 47.29440 | 11.77324 | 85° | 106km/h | 8290m | 4.2m/s | -27.1°C | 13.4% | 0hPa | 2.9V | 00:00:00 | 00:57:59 | 00:00:00 | |
| BAUMI2-15 | 2026-09-05 02:44:02 | 47.29437 | 11.77285 | 84° | 106km/h | 8286m | 3.8m/s | -27.1°C | 13.3% | 0hPa | 2.9V | 00:00:00 | 00:57:58 | 00:00:00 | |
| DO3MHA-12 | 2026-09-05 02:44:01 | 47.29434 | 11.77245 | 83° | 106km/h | 8281m | 4.7m/s | -27.0°C | 13.3% | 0hPa | 2.7V | 00:00:00 | 00:57:57 | 00:00:00 | |
| DG1MFX-10 | 2026-09-05 02:43:59 | 47.29430 | 11.77206 | 84° | 104km/h | 8277m | 4.1m/s | -27.0°C | 11.7% | 0hPa | 2.7V | 00:00:00 | 00:00:00 | 00:00:00 | |
| DB0NH | 2026-09-05 02:43:58 | 47.29424 | 11.77129 | 84° | 106km/h | 8269m | 4.9m/s | -26.9°C | 13.1% | 0hPa | 2.7V | 00:00:00 | 00:57:54 | 08:30:00 | |
| BAUMI2-15 | 2026-09-05 02:43:57 | 47.29421 | 11.77090 | 84° | 108km/h | 8264m | 3.6m/s | -26.9°C | 13.0% | 0hPa | 2.9V | 00:00:00 | 00:57:53 | 00:00:00 | |
| DO3MHA-11 | 2026-09-05 02:43:53 | 47.29408 | 11.76932 | 83° | 106km/h | 8247m | 3.3m/s | -26.7°C | 12.9% | 0hPa | 2.9V | 00:00:00 | 00:57:49 | 00:00:00 | |
| BAUMI2-15 | 2026-09-05 02:43:52 | 47.29405 | 11.76892 | 83° | 108km/h | 8243m | 4.6m/s | -26.7°C | 12.9% | 0hPa | 2.9V | 00:00:00 | 00:57:48 | 00:00:00 | |
| DO3MHA-12 | 2026-09-05 02:43:51 | 47.29401 | 11.76852 | 83° | 106km/h | 8239m | 3.4m/s | -26.6°C | 12.9% | 0hPa | 2.9V | 00:00:00 | 00:57:47 | 00:00:00 | |
| IN3HCDX | 2026-09-05 02:43:50 | 47.29401 | 11.76852 | 84° | 108km/h | 8239m | 3.5m/s | -26.7°C | 11.4% | 0hPa | 2.9V | 00:00:00 | 00:00:00 | 00:00:00 | |
| OE5DXL-15 | 2026-09-05 02:43:47 | 47.29387 | 11.76694 | 83° | 106km/h | 8222m | 3.6m/s | -26.5°C | 12.8% | 0hPa | 2.9V | 00:00:00 | 00:00:00 | 00:00:00 | |
| OE5DRO-10 | 2026-09-05 02:43:46 | 47.29384 | 11.76655 | 83° | 106km/h | 8218m | 4.1m/s | -26.4°C | 12.8% | 0hPa | 2.9V | 00:00:00 | 00:00:00 | 00:00:00 | |
| DB0UT-7 | 2026-09-05 02:43:45 | 47.29380 | 11.76616 | 83° | 106km/h | 8214m | 3.4m/s | -26.4°C | 12.8% | 0hPa | 2.9V | 00:00:00 | 00:00:00 | 00:00:00 | |
| DO3MHA-11 | 2026-09-05 02:43:43 | 47.29374 | 11.76539 | 83° | 106km/h | 8206m | 3.2m/s | -26.3°C | 12.8% | 0hPa | 2.9V | 00:00:00 | 00:57:39 | 00:00:00 | |
| BAUMI2-15 | 2026-09-05 02:43:42 | 47.29371 | 11.76501 | 83° | 106km/h | 8202m | 5.0m/s | -26.3°C | 12.8% | 0hPa | 2.9V | 00:00:00 | 00:57:38 | 00:00:00 | |
| DO3MHA-12 | 2026-09-05 02:43:41 | 47.29367 | 11.76462 | 83° | 106km/h | 8198m | 2.7m/s | -26.3°C | 12.9% | 0hPa | 2.9V | 00:00:00 | 00:57:37 | 00:00:00 | |
| DG1MFX-10 | 2026-09-05 02:43:39 | 47.29364 | 11.76422 | 84° | 108km/h | 8194m | 4.5m/s | -26.3°C | 11.2% | 0hPa | 2.9V | 00:00:00 | 00:00:00 | 00:00:00 | |
| BAUMI2-15 | 2026-09-05 02:43:37 | 47.29355 | 11.76304 | 84° | 106km/h | 8180m | 4.2m/s | -26.1°C | 12.6% | 0hPa | 2.9V | 00:00:00 | 00:57:33 | 00:00:00 | |
| DO3MHA-11 | 2026-09-05 02:43:33 | 47.29344 | 11.76147 | 84° | 108km/h | 8162m | 3.9m/s | -26.0°C | 12.7% | 0hPa | 2.9V | 00:00:00 | 00:57:29 | 00:00:00 | |
| BAUMI2-15 | 2026-09-05 02:43:32 | 47.29341 | 11.76106 | 85° | 108km/h | 8158m | 4.0m/s | -25.9°C | 12.6% | 0hPa | 2.9V | 00:00:00 | 00:57:28 | 00:00:00 | |
| DO3MHA-12 | 2026-09-05 02:43:31 | 47.29338 | 11.76066 | 85° | 106km/h | 8154m | 4.1m/s | -25.9°C | 12.6% | 0hPa | 2.9V | 00:00:00 | 00:57:27 | 00:00:00 | |
| IN3HCDX | 2026-09-05 02:43:29 | 47.29334 | 11.76026 | 84° | 110km/h | 8150m | 3.6m/s | -25.9°C | 11.2% | 0hPa | 2.9V | 00:00:00 | 00:00:00 | 00:00:00 | |
| DB0NH | 2026-09-05 02:43:28 | 47.29327 | 11.75947 | 83° | 106km/h | 8141m | 4.6m/s | -25.8°C | 12.5% | 0hPa | 2.9V | 00:00:00 | 00:57:24 | 00:00:00 | |
| BAUMI2-15 | 2026-09-05 02:43:27 | 47.29324 | 11.75908 | 83° | 106km/h | 8136m | 4.6m/s | -25.7°C | 12.6% | 0hPa | 2.9V | 00:00:00 | 00:57:23 | 00:00:00 | |
| NBG1-10 | 2026-09-05 02:43:25 | 47.29317 | 11.75829 | 83° | 104km/h | 8128m | 5.0m/s | -25.7°C | 12.5% | 0hPa | 2.9V | 00:00:00 | 00:57:21 | 08:30:00 | |
| DO3MHA-11 | 2026-09-05 02:43:23 | 47.29310 | 11.75751 | 82° | 106km/h | 8119m | 4.1m/s | -25.6°C | 12.5% | 0hPa | 2.9V | 00:00:00 | 00:57:19 | 00:00:00 | |
| BAUMI2-15 | 2026-09-05 02:43:22 | 47.29306 | 11.75712 | 83° | 106km/h | 8115m | 4.7m/s | -25.6°C | 12.4% | 0hPa | 2.9V | 00:00:00 | 00:57:18 | 00:00:00 | |
| DO3MHA-12 | 2026-09-05 02:43:21 | 47.29302 | 11.75673 | 84° | 106km/h | 8110m | 5.1m/s | -25.5°C | 12.3% | 0hPa | 2.9V | 00:00:00 | 00:57:17 | 00:00:00 | |
| DG1MFX-10 | 2026-09-05 02:43:18 | 47.29296 | 11.75594 | 85° | 106km/h | 8100m | 3.8m/s | -25.5°C | 11.0% | 0hPa | 2.9V | 00:00:00 | 00:00:00 | 00:00:00 | |
| BAUMI2-15 | 2026-09-05 02:43:17 | 47.29291 | 11.75515 | 84° | 106km/h | 8091m | 3.8m/s | -25.4°C | 12.3% | 0hPa | 2.9V | 00:00:00 | 00:57:13 | 00:00:00 | |
| DL6DJ-15 | 2026-09-05 02:43:16 | 47.29288 | 11.75476 | 84° | 104km/h | 8086m | 4.8m/s | -25.4°C | 10.8% | -1.0hPa | 2.9V | 00:00:00 | 00:00:00 | 00:00:00 | |
| DB0UT-7 | 2026-09-05 02:43:15 | 47.29285 | 11.75438 | 84° | 104km/h | 8082m | 3.0m/s | -25.3°C | 12.3% | 0hPa | 2.9V | 00:00:00 | 00:57:11 | 00:00:00 | |
| DO3MHA-11 | 2026-09-05 02:43:13 | 47.29279 | 11.75360 | 83° | 106km/h | 8074m | 3.5m/s | -25.2°C | 12.3% | 0hPa | 2.9V | 00:00:00 | 00:57:09 | 00:00:00 | |
| BAUMI2-15 | 2026-09-05 02:43:12 | 47.29275 | 11.75321 | 83° | 106km/h | 8070m | 4.2m/s | -25.2°C | 12.2% | 0hPa | 2.9V | 00:00:00 | 00:57:08 | 00:00:00 | |
| DO3MHA-12 | 2026-09-05 02:43:11 | 47.29271 | 11.75282 | 83° | 106km/h | 8065m | 4.6m/s | -25.1°C | 12.2% | 0hPa | 2.9V | 00:00:00 | 00:57:07 | 08:30:00 | |
| OE5DRO-10 | 2026-09-05 02:43:08 | 47.29262 | 11.75163 | 85° | 104km/h | 8051m | 5.2m/s | -25.0°C | 12.0% | 0hPa | 2.9V | 00:00:00 | 00:00:00 | 00:00:00 | |
| BAUMI2-15 | 2026-09-05 02:43:07 | 47.29260 | 11.75124 | 85° | 106km/h | 8046m | 4.8m/s | -24.9°C | 12.1% | 0hPa | 2.9V | 00:00:00 | 00:57:03 | 00:00:00 | |
| DO3MHA-11 | 2026-09-05 02:43:03 | 47.29247 | 11.74966 | 83° | 102km/h | 8028m | 5.3m/s | -24.8°C | 11.8% | 0hPa | 2.9V | 00:00:00 | 00:56:59 | 00:00:00 | |
| DL6DJ-15 | 2026-09-05 02:42:45 | 47.29184 | 11.74287 | 81° | 104km/h | 7946m | 6.5m/s | -24.0°C | 9.7% | -1.0hPa | 2.9V | 00:00:00 | 00:00:00 | 00:00:00 | |
| OE3JTB-15 | 2026-09-05 02:42:44 | 47.29180 | 11.74248 | 83° | 102km/h | 7940m | 3.9m/s | 0°C | 0% | 0hPa | 2.9V | 00:00:00 | 00:56:40 | 00:00:00 | |
| DO3MHA-11 | 2026-09-05 02:42:43 | 47.29176 | 11.74210 | 82° | 102km/h | 7936m | 4.5m/s | -23.9°C | 11.0% | 0hPa | 2.9V | 00:00:00 | 00:56:39 | 00:00:00 | |
| DB0UT-7 | 2026-09-05 02:42:42 | 47.29173 | 11.74172 | 82° | 102km/h | 7931m | 5.2m/s | 0°C | 0% | 0hPa | 2.9V | 00:00:00 | 00:00:00 | 00:00:00 | |
| DO3MHA-12 | 2026-09-05 02:42:41 | 47.29169 | 11.74134 | 82° | 102km/h | 7926m | 6.1m/s | -23.8°C | 10.9% | 0hPa | 2.9V | 00:00:00 | 00:56:37 | 00:00:00 | |
| DG1MFX-10 | 2026-09-05 02:42:37 | 47.29159 | 11.74021 | 83° | 102km/h | 7912m | 5.7m/s | -23.7°C | 9.6% | 0hPa | 2.9V | 00:00:00 | 00:00:00 | 00:00:00 | |
| DO3MHA-11 | 2026-09-05 02:42:33 | 47.29140 | 11.73831 | 82° | 102km/h | 7888m | 5.3m/s | -23.5°C | 10.8% | 0hPa | 2.9V | 00:00:00 | 00:56:29 | 00:00:00 | |
| DO3MHA-12 | 2026-09-05 02:42:31 | 47.29132 | 11.73756 | 82° | 102km/h | 7879m | 4.5m/s | -23.5°C | 10.9% | 0hPa | 2.9V | 00:00:00 | 00:56:27 | 00:00:00 | |
| OE5DRO-10 | 2026-09-05 02:42:30 | 47.29129 | 11.73719 | 82° | 100km/h | 7875m | 3.4m/s | -23.4°C | 11.0% | 0hPa | 2.9V | 00:00:00 | 00:00:00 | 00:00:00 | |
| IN3HCDX | 2026-09-05 02:42:26 | 47.29118 | 11.73606 | 84° | 100km/h | 7862m | 4.9m/s | -23.4°C | 9.9% | 0hPa | 2.9V | 00:00:00 | 00:00:00 | 00:00:00 | |
| DO3MHA-11 | 2026-09-05 02:42:23 | 47.29105 | 11.73456 | 84° | 100km/h | 7845m | 5.3m/s | -23.2°C | 11.2% | 0hPa | 2.9V | 00:00:00 | 00:56:19 | 00:00:00 | |
| DO3MHA-12 | 2026-09-05 02:42:21 | 47.29099 | 11.73382 | 83° | 100km/h | 7835m | 4.6m/s | -23.1°C | 11.2% | 0hPa | 2.9V | 00:00:00 | 00:56:17 | 00:00:00 | |
| NBG1-10 | 2026-09-05 02:42:19 | 47.29091 | 11.73308 | 82° | 102km/h | 7827m | 4.0m/s | -23.1°C | 11.2% | 0hPa | 2.9V | 00:00:00 | 00:56:15 | 00:00:00 | |
| OE5DXL-15 | 2026-09-05 02:42:17 | 47.29084 | 11.73234 | 82° | 102km/h | 7819m | 3.2m/s | -23.0°C | 11.2% | 0hPa | 2.9V | 00:00:00 | 00:00:00 | 00:00:00 | |
| OE3JTB-15 | 2026-09-05 02:42:15 | 47.29077 | 11.73161 | 83° | 102km/h | 7810m | 4.9m/s | 0°C | 0% | 0hPa | 2.9V | 00:00:00 | 00:00:00 | 00:00:00 | |
| DL6DJ-15 | 2026-09-05 02:42:14 | 47.29073 | 11.73124 | 81° | 100km/h | 7805m | 4.4m/s | -22.9°C | 10.2% | -1.0hPa | 2.9V | 00:00:00 | 00:00:00 | 00:00:00 | |
| DO3MHA-11 | 2026-09-05 02:42:13 | 47.29070 | 11.73087 | 82° | 102km/h | 7801m | 4.2m/s | -22.9°C | 11.5% | 0hPa | 2.9V | 00:00:00 | 00:56:09 | 00:00:00 | |
| DB0UT-7 | 2026-09-05 02:42:12 | 47.29066 | 11.73049 | 83° | 102km/h | 7796m | 5.4m/s | 0°C | 0% | 0hPa | 2.9V | 00:00:00 | 00:56:08 | 00:00:00 | |
| DO3MHA-12 | 2026-09-05 02:42:11 | 47.29063 | 11.73012 | 84° | 102km/h | 7791m | 3.7m/s | -22.8°C | 11.6% | 0hPa | 2.9V | 00:00:00 | 00:56:07 | 00:00:00 | |
| DG1MFX-10 | 2026-09-05 02:42:10 | 47.29063 | 11.73012 | 85° | 102km/h | 7791m | 3.8m/s | -22.8°C | 10.4% | 0hPa | 2.9V | 00:00:00 | 00:00:00 | 00:00:00 | |
| IN3HCDX | 2026-09-05 02:42:06 | 47.29050 | 11.72861 | 85° | 102km/h | 7774m | 5.4m/s | -22.7°C | 10.4% | 0hPa | 2.9V | 00:00:00 | 00:00:00 | 00:00:00 | |
| DO3MHA-11 | 2026-09-05 02:42:03 | 47.29039 | 11.72710 | 84° | 104km/h | 7756m | 4.7m/s | -22.5°C | 12.0% | 0hPa | 2.9V | 00:00:00 | 00:55:59 | 00:00:00 | |
| DO3MHA-12 | 2026-09-05 02:42:01 | 47.29033 | 11.72633 | 85° | 104km/h | 7746m | 4.5m/s | -22.5°C | 12.0% | 0hPa | 2.9V | 00:00:00 | 00:55:57 | 00:00:00 | |
| DO3MHA-11 | 2026-09-05 02:41:53 | 47.29009 | 11.72325 | 83° | 100km/h | 7713m | 4.3m/s | -22.2°C | 12.6% | 0hPa | 2.9V | 00:00:00 | 00:55:49 | 00:00:00 | |
| OE5DRO-10 | 2026-09-05 02:41:52 | 47.29006 | 11.72287 | 83° | 100km/h | 7708m | 4.4m/s | -22.2°C | 12.8% | 0hPa | 2.7V | 00:00:00 | 00:00:00 | 00:00:00 | |
| DO3MHA-12 | 2026-09-05 02:41:51 | 47.29002 | 11.72250 | 82° | 100km/h | 7704m | 4.5m/s | -22.2°C | 12.7% | 0hPa | 2.7V | 00:00:00 | 00:55:47 | 00:00:00 | |
| DG1MFX-10 | 2026-09-05 02:41:50 | 47.29002 | 11.72250 | 82° | 100km/h | 7704m | 4.5m/s | -22.2°C | 11.5% | 0hPa | 2.7V | 00:00:00 | 00:00:00 | 00:00:00 | |
| OE5DXL-15 | 2026-09-05 02:41:47 | 47.28987 | 11.72102 | 82° | 102km/h | 7685m | 4.2m/s | -22.0°C | 12.9% | 0hPa | 2.7V | 00:00:00 | 00:00:00 | 00:00:00 | |
| NBG1-10 | 2026-09-05 02:41:46 | 47.28983 | 11.72065 | 82° | 102km/h | 7681m | 4.2m/s | -22.0°C | 12.9% | 0hPa | 2.7V | 00:00:00 | 00:55:42 | 00:00:00 | |
| DO3MHA-11 | 2026-09-05 02:41:43 | 47.28973 | 11.71954 | 83° | 100km/h | 7668m | 3.6m/s | -21.9°C | 12.9% | 0hPa | 2.9V | 00:00:00 | 00:55:39 | 00:00:00 | |
| DB0UT-7 | 2026-09-05 02:41:42 | 47.28970 | 11.71917 | 84° | 102km/h | 7663m | 4.8m/s | 0°C | 0% | 0hPa | 2.9V | 00:00:00 | 00:00:00 | 00:00:00 | |
| DO3MHA-12 | 2026-09-05 02:41:41 | 47.28967 | 11.71880 | 84° | 100km/h | 7659m | 3.9m/s | -21.8°C | 13.0% | 0hPa | 2.9V | 00:00:00 | 00:55:37 | 08:30:00 | |
| DO3MHA-11 | 2026-09-05 02:41:33 | 47.28944 | 11.71582 | 83° | 102km/h | 7625m | 4.6m/s | -21.5°C | 13.1% | 0hPa | 2.9V | 00:00:00 | 00:55:29 | 00:00:00 | |
| DO3MHA-12 | 2026-09-05 02:41:31 | 47.28938 | 11.71506 | 83° | 102km/h | 7616m | 4.9m/s | -21.4°C | 13.0% | 0hPa | 2.9V | 00:00:00 | 00:55:27 | 00:00:00 | |
| DG1MFX-10 | 2026-09-05 02:41:30 | 47.28938 | 11.71506 | 83° | 102km/h | 7616m | 5.0m/s | -21.5°C | 11.8% | 0hPa | 2.9V | 00:00:00 | 00:00:00 | 00:00:00 | |
| DO3MHA-11 | 2026-09-05 02:41:23 | 47.28912 | 11.71203 | 82° | 102km/h | 7578m | 5.1m/s | -21.2°C | 13.5% | 0hPa | 2.9V | 00:00:00 | 00:55:19 | 08:30:00 | |
| DO3MHA-12 | 2026-09-05 02:41:21 | 47.28905 | 11.71128 | 80° | 102km/h | 7569m | 5.2m/s | -21.1°C | 13.4% | 0hPa | 2.7V | 00:00:00 | 00:55:17 | 00:00:00 | |
| OE5DXL-15 | 2026-09-05 02:41:17 | 47.28886 | 11.70976 | 81° | 102km/h | 7552m | 4.4m/s | -21.0°C | 13.4% | 0hPa | 2.7V | 00:00:00 | 00:00:00 | 00:00:00 | |
| OE5DRO-10 | 2026-09-05 02:41:14 | 47.28873 | 11.70865 | 80° | 102km/h | 7539m | 4.4m/s | -20.8°C | 13.3% | 0hPa | 2.7V | 00:00:00 | 00:00:00 | 08:30:00 | |
| NBG1-10 | 2026-09-05 02:41:13 | 47.28869 | 11.70828 | 80° | 102km/h | 7534m | 4.7m/s | -20.8°C | 13.3% | 0hPa | 2.9V | 00:00:00 | 00:55:09 | 00:00:00 | |
| DB0UT-7 | 2026-09-05 02:41:12 | 47.28864 | 11.70791 | 79° | 100km/h | 7530m | 3.9m/s | 0°C | 0% | 0hPa | 2.9V | 00:00:00 | 00:55:08 | 00:00:00 | |
| DO3MHA-12 | 2026-09-05 02:41:11 | 47.28859 | 11.70754 | 79° | 102km/h | 7526m | 4.7m/s | -20.7°C | 13.2% | 0hPa | 2.9V | 00:00:00 | 00:55:07 | 00:00:00 | |
| DG1MFX-10 | 2026-09-05 02:41:09 | 47.28854 | 11.70717 | 80° | 102km/h | 7521m | 4.1m/s | -20.7°C | 12.0% | 0hPa | 2.7V | 00:00:00 | 00:00:00 | 00:00:00 | |
| DO3MHA-11 | 2026-09-05 02:41:03 | 47.28819 | 11.70456 | 79° | 102km/h | 7491m | 3.2m/s | -20.5°C | 13.6% | 0hPa | 2.7V | 00:00:00 | 00:54:59 | 00:00:00 | |
| DO3MHA-12 | 2026-09-05 02:41:01 | 47.28809 | 11.70382 | 79° | 102km/h | 7483m | 3.6m/s | -20.4°C | 13.7% | 0hPa | 2.7V | 00:00:00 | 00:54:57 | 00:00:00 | |
| OE5DRO-10 | 2026-09-05 02:40:55 | 47.28781 | 11.70158 | 81° | 102km/h | 7459m | 3.8m/s | -20.2°C | 13.6% | 0hPa | 2.7V | 00:00:00 | 00:00:00 | 00:00:00 | |
| DO3MHA-11 | 2026-09-05 02:40:53 | 47.28772 | 11.70082 | 81° | 104km/h | 7450m | 4.3m/s | -20.2°C | 13.1% | 0hPa | 2.7V | 00:00:00 | 00:54:49 | 00:00:00 | |
| DO3MHA-12 | 2026-09-05 02:40:51 | 47.28763 | 11.70006 | 81° | 102km/h | 7441m | 3.4m/s | -20.1°C | 12.8% | 0hPa | 2.9V | 00:00:00 | 00:54:47 | 00:00:00 | |
| DG1MFX-10 | 2026-09-05 02:40:48 | 47.28754 | 11.69930 | 80° | 104km/h | 7433m | 3.9m/s | -20.1°C | 11.5% | 0hPa | 2.9V | 00:00:00 | 00:00:00 | 00:00:00 | |
| OE5DXL-15 | 2026-09-05 02:40:47 | 47.28744 | 11.69854 | 80° | 102km/h | 7425m | 3.2m/s | -20.0°C | 12.4% | 0hPa | 2.9V | 00:00:00 | 00:00:00 | 00:00:00 | |
| DO3MHA-11 | 2026-09-05 02:40:43 | 47.28723 | 11.69705 | 79° | 100km/h | 7409m | 3.9m/s | -19.8°C | 12.2% | 0hPa | 2.9V | 00:00:00 | 00:54:39 | 00:00:00 | |
| IN3HCDX | 2026-09-05 02:40:42 | 47.28723 | 11.69705 | 79° | 102km/h | 7409m | 4.0m/s | -19.9°C | 11.1% | 0hPa | 2.9V | 00:00:00 | 00:00:00 | 00:00:00 | |
| DO3MHA-12 | 2026-09-05 02:40:41 | 47.28713 | 11.69631 | 79° | 100km/h | 7401m | 4.7m/s | -19.8°C | 12.1% | 0hPa | 2.9V | 00:00:00 | 00:54:37 | 00:00:00 | |
| NBG1-10 | 2026-09-05 02:40:40 | 47.28708 | 11.69595 | 80° | 102km/h | 7397m | 3.0m/s | -19.7°C | 12.1% | 0hPa | 2.9V | 00:00:00 | 00:54:36 | 00:00:00 | |
| BAUMI2-15 | 2026-09-05 02:40:37 | 47.28694 | 11.69484 | 80° | 102km/h | 7387m | 3.5m/s | -19.7°C | 11.8% | 0hPa | 2.9V | 00:00:00 | 00:54:33 | 00:00:00 | |
| OE5DRO-10 | 2026-09-05 02:40:36 | 47.28689 | 11.69447 | 80° | 102km/h | 7383m | 3.2m/s | -19.7°C | 11.7% | 0hPa | 2.9V | 00:00:00 | 00:00:00 | 00:00:00 | |
| DO3MHA-11 | 2026-09-05 02:40:33 | 47.28675 | 11.69335 | 79° | 102km/h | 7372m | 3.6m/s | -19.6°C | 11.6% | 0hPa | 2.9V | 00:00:00 | 00:54:29 | 00:00:00 | |
| BAUMI2-15 | 2026-09-05 02:40:32 | 47.28671 | 11.69298 | 80° | 102km/h | 7368m | 3.8m/s | -19.5°C | 11.6% | 0hPa | 2.9V | 00:00:00 | 00:54:28 | 00:00:00 | |
| DO3MHA-12 | 2026-09-05 02:40:31 | 47.28666 | 11.69261 | 81° | 102km/h | 7364m | 3.2m/s | -19.5°C | 11.6% | 0hPa | 2.9V | 00:00:00 | 00:54:27 | 00:00:00 | |
| DG1MFX-10 | 2026-09-05 02:40:28 | 47.28657 | 11.69186 | 80° | 102km/h | 7356m | 4.1m/s | -19.6°C | 10.6% | 0hPa | 2.9V | 00:00:00 | 00:00:00 | 00:00:00 | |
| BAUMI2-15 | 2026-09-05 02:40:27 | 47.28647 | 11.69112 | 80° | 100km/h | 7349m | 4.4m/s | -19.5°C | 11.9% | 0hPa | 2.9V | 00:00:00 | 00:54:23 | 00:00:00 | |
| DO3MHA-11 | 2026-09-05 02:40:23 | 47.28626 | 11.68965 | 79° | 102km/h | 7333m | 5.1m/s | -19.4°C | 12.2% | 0hPa | 2.9V | 00:00:00 | 00:54:19 | 00:00:00 | |
| BAUMI2-15 | 2026-09-05 02:40:22 | 47.28621 | 11.68928 | 78° | 102km/h | 7330m | 2.8m/s | -19.4°C | 12.4% | 0hPa | 2.9V | 00:00:00 | 00:54:18 | 00:00:00 | |
| DO3MHA-12 | 2026-09-05 02:40:21 | 47.28615 | 11.68891 | 77° | 104km/h | 7326m | 4.5m/s | -19.4°C | 12.4% | 0hPa | 2.9V | 00:00:00 | 00:54:17 | 00:00:00 | |
| OE5DXL-15 | 2026-09-05 02:40:17 | 47.28593 | 11.68742 | 78° | 104km/h | 7311m | 5.1m/s | -19.2°C | 12.6% | 0hPa | 2.9V | 00:00:00 | 00:00:00 | 00:00:00 | |
| DO3MHA-11 | 2026-09-05 02:40:13 | 47.28570 | 11.68590 | 78° | 106km/h | 7296m | 4.3m/s | -19.1°C | 12.6% | 0hPa | 2.9V | 00:00:00 | 00:54:09 | 00:00:00 | |
| BAUMI2-15 | 2026-09-05 02:40:12 | 47.28565 | 11.68552 | 78° | 104km/h | 7292m | 3.9m/s | -19.1°C | 12.7% | 0hPa | 2.9V | 00:00:00 | 00:54:08 | 00:00:00 | |
| DB0NH | 2026-09-05 02:40:11 | 47.28559 | 11.68514 | 78° | 104km/h | 7288m | 3.8m/s | -19.1°C | 12.7% | 0hPa | 2.9V | 00:00:00 | 00:54:07 | 00:00:00 | |
| DL6DJ-15 | 2026-09-05 02:40:10 | 47.28554 | 11.68477 | 77° | 102km/h | 7284m | 4.3m/s | -19.1°C | 11.7% | -1.0hPa | 2.9V | 00:00:00 | 00:00:00 | 00:00:00 | |
| NBG1-10 | 2026-09-05 02:40:07 | 47.28537 | 11.68362 | 79° | 104km/h | 7272m | 2.7m/s | -18.9°C | 12.8% | 0hPa | 2.9V | 00:00:00 | 00:54:03 | 00:00:00 | |
| DO3MHA-11 | 2026-09-05 02:40:03 | 47.28516 | 11.68208 | 80° | 104km/h | 7256m | 3.3m/s | -18.8°C | 12.6% | 0hPa | 2.9V | 00:00:00 | 00:53:59 | 00:00:00 | |
| BAUMI2-15 | 2026-09-05 02:40:02 | 47.28511 | 11.68171 | 79° | 102km/h | 7252m | 3.5m/s | -18.8°C | 12.7% | 0hPa | 2.9V | 00:00:00 | 00:53:58 | 00:00:00 | |
| DO3MHA-12 | 2026-09-05 02:40:01 | 47.28506 | 11.68134 | 79° | 104km/h | 7249m | 3.8m/s | -18.8°C | 12.7% | 0hPa | 2.9V | 00:00:00 | 00:53:57 | 00:00:00 | |
| IN3HCDX | 2026-09-05 02:40:00 | 47.28506 | 11.68134 | 79° | 100km/h | 7249m | 3.9m/s | -18.8°C | 0% | 0hPa | 2.9V | 00:00:00 | 00:00:00 | 00:00:00 | |
| OE5DRO-10 | 2026-09-05 02:39:58 | 47.28490 | 11.68022 | 79° | 106km/h | 7238m | 1.9m/s | -18.7°C | 13.0% | 0hPa | 2.9V | 00:00:00 | 00:00:00 | 00:00:00 | |
| BAUMI2-15 | 2026-09-05 02:39:57 | 47.28484 | 11.67983 | 78° | 106km/h | 7234m | 5.8m/s | -18.7°C | 12.9% | 0hPa | 2.9V | 00:00:00 | 00:53:53 | 00:00:00 | |
| DO3MHA-11 | 2026-09-05 02:39:53 | 47.28461 | 11.67828 | 79° | 104km/h | 7216m | 3.2m/s | -18.6°C | 13.2% | 0hPa | 2.9V | 00:00:00 | 00:53:49 | 08:30:00 | |
| BAUMI2-15 | 2026-09-05 02:39:52 | 47.28456 | 11.67791 | 78° | 106km/h | 7212m | 4.7m/s | -18.6°C | 13.1% | 0hPa | 2.9V | 00:00:00 | 00:53:48 | 00:00:00 | |
| DO3MHA-12 | 2026-09-05 02:39:51 | 47.28451 | 11.67753 | 79° | 106km/h | 7209m | 3.0m/s | -18.5°C | 13.2% | 0hPa | 2.9V | 00:00:00 | 00:53:47 | 00:00:00 | |
| OE5DXL-15 | 2026-09-05 02:39:47 | 47.28428 | 11.67598 | 77° | 104km/h | 7194m | 3.0m/s | -18.4°C | 13.1% | 0hPa | 2.9V | 00:00:00 | 00:00:00 | 00:00:00 | |
| DO3MHA-11 | 2026-09-05 02:39:43 | 47.28403 | 11.67447 | 77° | 104km/h | 7179m | 4.8m/s | -18.3°C | 13.1% | 0hPa | 2.9V | 00:00:00 | 00:53:39 | 00:00:00 | |
| BAUMI2-15 | 2026-09-05 02:39:42 | 47.28397 | 11.67410 | 78° | 104km/h | 7175m | 3.7m/s | -18.3°C | 13.3% | 0hPa | 2.9V | 00:00:00 | 00:53:38 | 00:00:00 | |
| DB0NH | 2026-09-05 02:39:41 | 47.28391 | 11.67372 | 79° | 104km/h | 7171m | 4.0m/s | 0°C | 0% | 0hPa | 2.9V | 00:00:00 | 00:53:37 | 00:00:00 | |
| DL6DJ-15 | 2026-09-05 02:39:39 | 47.28381 | 11.67296 | 78° | 102km/h | 7162m | 4.6m/s | -18.3°C | -1.0% | -1.0hPa | 2.9V | 00:00:00 | 00:00:00 | 00:00:00 | |
| IN3HCDX | 2026-09-05 02:39:38 | 47.28381 | 11.67297 | 80° | 104km/h | 7162m | 4.6m/s | -18.3°C | 0% | 0hPa | 2.9V | 00:00:00 | 00:00:00 | 00:00:00 | |
| BAUMI2-15 | 2026-09-05 02:39:37 | 47.28371 | 11.67220 | 79° | 106km/h | 7154m | 2.4m/s | -18.2°C | 14.3% | 0hPa | 2.9V | 00:00:00 | 00:53:33 | 00:00:00 | |
| NBG1-10 | 2026-09-05 02:39:34 | 47.28354 | 11.67104 | 79° | 104km/h | 7143m | 4.0m/s | -18.1°C | 14.3% | 0hPa | 2.9V | 00:00:00 | 00:53:30 | 00:00:00 | |
| DO3MHA-11 | 2026-09-05 02:39:33 | 47.28348 | 11.67066 | 78° | 104km/h | 7139m | 2.6m/s | -18.1°C | 14.3% | 0hPa | 2.9V | 00:00:00 | 00:53:29 | 00:00:00 | |
| BAUMI2-15 | 2026-09-05 02:39:32 | 47.28342 | 11.67028 | 78° | 102km/h | 7136m | 4.4m/s | -18.0°C | 14.2% | 0hPa | 2.9V | 00:00:00 | 00:53:28 | 08:30:00 | |
| DO3MHA-12 | 2026-09-05 02:39:31 | 47.28336 | 11.66991 | 77° | 104km/h | 7132m | 3.4m/s | -18.0°C | 14.4% | 0hPa | 2.9V | 00:00:00 | 00:53:27 | 00:00:00 | |
| BAUMI2-15 | 2026-09-05 02:39:27 | 47.28313 | 11.66842 | 77° | 104km/h | 7116m | 4.4m/s | -17.8°C | 14.3% | 0hPa | 2.9V | 00:00:00 | 00:53:23 | 00:00:00 | |
| DO3MHA-11 | 2026-09-05 02:39:23 | 47.28288 | 11.66690 | 77° | 106km/h | 7100m | 3.3m/s | -17.7°C | 14.3% | 0hPa | 2.9V | 00:00:00 | 00:53:19 | 00:00:00 | |
| BAUMI2-15 | 2026-09-05 02:39:22 | 47.28281 | 11.66652 | 76° | 106km/h | 7095m | 5.5m/s | -17.7°C | 14.1% | 0hPa | 2.9V | 00:00:00 | 00:53:18 | 00:00:00 | |
| DO3MHA-12 | 2026-09-05 02:39:21 | 47.28275 | 11.66614 | 77° | 106km/h | 7091m | 4.1m/s | -17.6°C | 14.1% | 0hPa | 2.9V | 00:00:00 | 00:53:17 | 00:00:00 | |
| OE5DRO-10 | 2026-09-05 02:39:20 | 47.28269 | 11.66575 | 77° | 104km/h | 7087m | 3.5m/s | -17.6°C | 14.1% | 0hPa | 2.9V | 00:00:00 | 00:00:00 | 00:00:00 | |
| OE5DXL-15 | 2026-09-05 02:39:17 | 47.28248 | 11.66461 | 75° | 104km/h | 7075m | 3.1m/s | -17.5°C | 14.2% | 0hPa | 2.9V | 00:00:00 | 00:00:00 | 00:00:00 | |
| DO3MHA-11 | 2026-09-05 02:39:13 | 47.28220 | 11.66310 | 75° | 102km/h | 7060m | 3.9m/s | -17.4°C | 14.1% | 0hPa | 2.9V | 00:00:00 | 00:53:09 | 00:00:00 | |
| BAUMI2-15 | 2026-09-05 02:39:12 | 47.28214 | 11.66272 | 76° | 102km/h | 7056m | 4.1m/s | -17.3°C | 14.1% | 0hPa | 2.9V | 00:00:00 | 00:53:08 | 00:00:00 | |
| DO3MHA-12 | 2026-09-05 02:39:11 | 47.28207 | 11.66235 | 76° | 102km/h | 7052m | 4.5m/s | -17.3°C | 14.1% | 0hPa | 2.9V | 00:00:00 | 00:53:07 | 00:00:00 | |
| DL6DJ-15 | 2026-09-05 02:39:08 | 47.28180 | 11.66089 | 73° | 100km/h | 7036m | 3.0m/s | -17.2°C | -1.0% | -1.0hPa | 2.9V | 00:00:00 | 00:00:00 | 00:00:00 | |
| BAUMI2-15 | 2026-09-05 02:39:07 | 47.28180 | 11.66088 | 74° | 102km/h | 7036m | 3.0m/s | -17.2°C | 14.1% | 0hPa | 2.9V | 00:00:00 | 00:53:03 | 00:00:00 | |
| DG1MFX-10 | 2026-09-05 02:39:06 | 47.28180 | 11.66088 | 75° | 100km/h | 7036m | 3.0m/s | -17.2°C | 13.0% | 0hPa | 2.9V | 00:00:00 | 00:00:00 | 00:00:00 | |
| DO3MHA-11 | 2026-09-05 02:39:03 | 47.28153 | 11.65942 | 75° | 104km/h | 7022m | 4.4m/s | -17.1°C | 14.3% | 0hPa | 2.9V | 00:00:00 | 00:52:59 | 00:00:00 | |
| DO3MHA-12 | 2026-09-05 02:39:01 | 47.28140 | 11.65867 | 77° | 102km/h | 7015m | 4.2m/s | -17.0°C | 14.3% | 0hPa | 2.9V | 00:00:00 | 00:52:57 | 00:00:00 | |
| BAUMI2-15 | 2026-09-05 02:38:57 | 47.28115 | 11.65718 | 77° | 104km/h | 7002m | 4.2m/s | -16.9°C | 14.3% | 0hPa | 2.9V | 00:00:00 | 00:52:53 | 00:00:00 | |
| DO3MHA-11 | 2026-09-05 02:38:53 | 47.28090 | 11.65568 | 76° | 104km/h | 6988m | 3.2m/s | -16.8°C | 14.8% | 0hPa | 2.9V | 00:00:00 | 00:52:49 | 00:00:00 | |
| BAUMI2-15 | 2026-09-05 02:38:52 | 47.28084 | 11.65530 | 76° | 104km/h | 6984m | 4.4m/s | -16.8°C | 15.3% | 0hPa | 2.9V | 00:00:00 | 00:52:48 | 00:00:00 | |
| OE5DXL-15 | 2026-09-05 02:38:47 | 47.28051 | 11.65343 | 77° | 106km/h | 6967m | 3.5m/s | -16.8°C | 15.6% | 0hPa | 2.9V | 00:00:00 | 00:00:00 | 08:30:00 | |
| DG1MFX-10 | 2026-09-05 02:38:46 | 47.28051 | 11.65343 | 78° | 104km/h | 6967m | 3.5m/s | 0°C | 0% | 0hPa | 2.9V | 00:00:00 | 00:00:00 | 00:00:00 | |
| BAUMI2-15 | 2026-09-05 02:38:42 | 47.28021 | 11.65153 | 77° | 104km/h | 6951m | 3.0m/s | -16.6°C | 15.4% | 0hPa | 2.9V | 00:00:00 | 00:52:38 | 00:00:00 | |
| DO3MHA-11 | 2026-09-05 02:38:39 | 47.28003 | 11.65042 | 77° | 108km/h | 6941m | 3.7m/s | -16.5°C | 15.3% | 0hPa | 2.9V | 00:00:00 | 00:52:35 | 00:00:00 | |
| DB0NH | 2026-09-05 02:38:38 | 47.27996 | 11.65004 | 76° | 108km/h | 6938m | 3.1m/s | 0°C | 0% | 0hPa | 2.9V | 00:00:00 | 00:52:34 | 00:00:00 | |
| DO3MHA-12 | 2026-09-05 02:38:36 | 47.27984 | 11.64928 | 78° | 108km/h | 6931m | 3.0m/s | -16.4°C | 14.9% | 0hPa | 2.9V | 00:00:00 | 00:52:32 | 00:00:00 | |
| DB0ND-19 | 2026-09-05 02:38:30 | 47.27952 | 11.64690 | 78° | 106km/h | 6910m | 3.7m/s | -16.3°C | 14.0% | -1.0hPa | 2.9V | 00:00:00 | 00:00:00 | 00:00:00 | |
| DO3MHA-11 | 2026-09-05 02:38:29 | 47.27947 | 11.64651 | 80° | 108km/h | 6907m | 3.4m/s | -16.3°C | 15.1% | 0hPa | 2.9V | 00:00:00 | 00:52:25 | 00:00:00 | |
| NBG1-10 | 2026-09-05 02:38:28 | 47.27942 | 11.64612 | 80° | 106km/h | 6904m | 3.0m/s | -16.2°C | 15.2% | 0hPa | 2.9V | 00:00:00 | 00:52:24 | 08:30:00 | |
| DO3MHA-12 | 2026-09-05 02:38:24 | 47.27921 | 11.64455 | 80° | 106km/h | 6888m | 3.6m/s | -16.1°C | 15.8% | 0hPa | 2.9V | 00:00:00 | 00:52:20 | 08:30:00 | |
| OE5DRO-10 | 2026-09-05 02:38:23 | 47.27916 | 11.64415 | 80° | 106km/h | 6885m | 2.3m/s | -16.1°C | 15.9% | 0hPa | 2.7V | 00:00:00 | 00:00:00 | 08:30:00 | |
| DO3MHA-11 | 2026-09-05 02:38:19 | 47.27897 | 11.64259 | 80° | 106km/h | 6873m | 3.0m/s | -16.1°C | 15.8% | 0hPa | 2.9V | 00:00:00 | 00:52:15 | 08:30:00 | |
| OE5DXL-15 | 2026-09-05 02:38:17 | 47.27887 | 11.64182 | 81° | 104km/h | 6866m | 3.1m/s | -16.0°C | 15.7% | 0hPa | 2.9V | 00:00:00 | 00:00:00 | 00:00:00 | |
| DO3MHA-12 | 2026-09-05 02:38:14 | 47.27872 | 11.64065 | 78° | 106km/h | 6856m | 3.0m/s | -15.9°C | 15.7% | 0hPa | 2.9V | 00:00:00 | 00:52:10 | 00:00:00 | |
| DG1MFX-10 | 2026-09-05 02:38:11 | 47.27860 | 11.63987 | 78° | 108km/h | 6850m | 3.8m/s | 0°C | 0% | 0hPa | 2.9V | 00:00:00 | 00:00:00 | 00:00:00 | |
| DO3MHA-11 | 2026-09-05 02:38:09 | 47.27843 | 11.63869 | 78° | 104km/h | 6841m | 4.2m/s | -15.9°C | 15.3% | 0hPa | 2.9V | 00:00:00 | 00:52:05 | 00:00:00 | |
| IN3HCDX | 2026-09-05 02:38:05 | 47.27827 | 11.63753 | 80° | 106km/h | 6830m | 2.7m/s | -15.9°C | 0% | 0hPa | 2.9V | 00:00:00 | 00:00:00 | 00:00:00 | |
| DO3MHA-12 | 2026-09-05 02:38:04 | 47.27817 | 11.63677 | 79° | 102km/h | 6823m | 2.7m/s | -15.9°C | 15.3% | 0hPa | 2.9V | 00:00:00 | 00:52:00 | 00:00:00 | |
| DB0NH | 2026-09-05 02:38:00 | 47.27797 | 11.63526 | 80° | 100km/h | 6808m | 3.6m/s | 0°C | 0% | 0hPa | 2.9V | 00:00:00 | 00:51:56 | 00:00:00 | |
| DO3MHA-11 | 2026-09-05 02:37:59 | 47.27792 | 11.63488 | 79° | 102km/h | 6804m | 3.8m/s | -15.7°C | 15.3% | 0hPa | 2.9V | 00:00:00 | 00:51:55 | 00:00:00 | |
| NBG1-10 | 2026-09-05 02:37:55 | 47.27771 | 11.63340 | 80° | 100km/h | 6790m | 3.5m/s | -15.8°C | 16.1% | 0hPa | 2.9V | 00:00:00 | 00:51:51 | 00:00:00 | |
| DO3MHA-12 | 2026-09-05 02:37:54 | 47.27766 | 11.63303 | 79° | 100km/h | 6786m | 4.7m/s | -15.8°C | 16.2% | 0hPa | 2.9V | 00:00:00 | 00:51:50 | 00:00:00 | |
| DO3MHA-11 | 2026-09-05 02:37:49 | 47.27742 | 11.63119 | 81° | 100km/h | 6769m | 3.7m/s | -15.9°C | 17.9% | 0hPa | 2.9V | 00:00:00 | 00:51:45 | 00:00:00 | |
| OE5DXL-15 | 2026-09-05 02:37:47 | 47.27734 | 11.63045 | 82° | 100km/h | 6761m | 4.1m/s | -15.9°C | 18.7% | 0hPa | 2.9V | 00:00:00 | 00:00:00 | 00:00:00 | |
| OE5DRO-10 | 2026-09-05 02:37:45 | 47.27726 | 11.62972 | 81° | 100km/h | 6754m | 3.1m/s | -16.0°C | 19.6% | 0hPa | 2.9V | 00:00:00 | 00:00:00 | 00:00:00 | |
| DO3MHA-12 | 2026-09-05 02:37:44 | 47.27722 | 11.62936 | 82° | 100km/h | 6751m | 3.8m/s | -16.0°C | 19.7% | 0hPa | 2.9V | 00:00:00 | 00:51:40 | 00:00:00 | |
| DO3MHA-11 | 2026-09-05 02:37:39 | 47.27702 | 11.62753 | 81° | 100km/h | 6735m | 3.6m/s | -16.0°C | 21.1% | 0hPa | 2.9V | 00:00:00 | 00:51:35 | 00:00:00 | |
| IN3HCDX | 2026-09-05 02:37:34 | 47.27687 | 11.62608 | 82° | 100km/h | 6722m | 3.3m/s | -16.0°C | 0% | 0hPa | 2.9V | 00:00:00 | 00:00:00 | 00:00:00 | |
| DB0NH | 2026-09-05 02:37:30 | 47.27667 | 11.62420 | 80° | 102km/h | 6704m | 2.9m/s | 0°C | 0% | 0hPa | 2.9V | 00:00:00 | 00:51:26 | 00:00:00 | |
| DO3MHA-11 | 2026-09-05 02:37:29 | 47.27662 | 11.62382 | 81° | 102km/h | 6700m | 4.5m/s | -15.8°C | 21.8% | 0hPa | 2.9V | 00:00:00 | 00:51:25 | 00:00:00 | |
| OE5DRO-10 | 2026-09-05 02:37:26 | 47.27649 | 11.62270 | 81° | 100km/h | 6690m | 2.8m/s | -15.7°C | 21.7% | 0hPa | 2.9V | 00:00:00 | 00:00:00 | 00:00:00 | |
| DO3MHA-12 | 2026-09-05 02:37:24 | 47.27640 | 11.62194 | 81° | 100km/h | 6684m | 2.4m/s | -15.6°C | 21.8% | 0hPa | 2.9V | 00:00:00 | 00:51:20 | 00:00:00 | |
| NBG1-10 | 2026-09-05 02:37:22 | 47.27631 | 11.62119 | 80° | 100km/h | 6677m | 3.0m/s | -15.6°C | 21.7% | 0hPa | 2.7V | 00:00:00 | 00:51:18 | 00:00:00 | |
| DO3MHA-11 | 2026-09-05 02:37:19 | 47.27618 | 11.62008 | 80° | 100km/h | 6667m | 4.0m/s | -15.5°C | 21.6% | 0hPa | 2.7V | 00:00:00 | 00:51:15 | 00:00:00 | |
| OE5DXL-15 | 2026-09-05 02:37:17 | 47.27609 | 11.61935 | 81° | 100km/h | 6660m | 4.3m/s | -15.4°C | 21.7% | 0hPa | 2.9V | 00:00:00 | 00:00:00 | 00:00:00 | |
| DO3MHA-12 | 2026-09-05 02:37:14 | 47.27597 | 11.61825 | 81° | 100km/h | 6650m | 2.9m/s | -15.4°C | 22.2% | 0hPa | 2.9V | 00:00:00 | 00:51:10 | 00:00:00 | |
| DG1MFX-10 | 2026-09-05 02:37:13 | 47.27597 | 11.61825 | 81° | 100km/h | 6650m | 2.9m/s | 0°C | 0% | 0hPa | 2.9V | 00:00:00 | 00:00:00 | 00:00:00 | |
| DO3MHA-11 | 2026-09-05 02:37:09 | 47.27576 | 11.61641 | 80° | 100km/h | 6632m | 3.3m/s | -15.2°C | 23.1% | 0hPa | 2.9V | 00:00:00 | 00:51:05 | 00:00:00 | |
| OE5DRO-10 | 2026-09-05 02:37:07 | 47.27567 | 11.61567 | 79° | 102km/h | 6625m | 3.7m/s | -15.2°C | 23.0% | 0hPa | 2.9V | 00:00:00 | 00:00:00 | 00:00:00 | |
| DO3MHA-12 | 2026-09-05 02:37:04 | 47.27553 | 11.61455 | 81° | 102km/h | 6614m | 2.7m/s | -15.1°C | 23.0% | 0hPa | 2.9V | 00:00:00 | 00:51:00 | 00:00:00 | |
| DO3MHA-11 | 2026-09-05 02:36:59 | 47.27534 | 11.61271 | 81° | 102km/h | 6594m | 4.0m/s | -14.9°C | 22.7% | 0hPa | 2.9V | 00:00:00 | 00:50:55 | 00:00:00 | |
| DO3MHA-12 | 2026-09-05 02:36:54 | 47.27511 | 11.61082 | 79° | 100km/h | 6574m | 3.2m/s | -14.7°C | 22.7% | 0hPa | 2.9V | 00:00:00 | 00:50:50 | 08:30:00 | |
| IN3HCDX | 2026-09-05 02:36:52 | 47.27505 | 11.61045 | 80° | 100km/h | 6571m | 2.7m/s | -14.7°C | 0% | 0hPa | 2.9V | 00:00:00 | 00:00:00 | 00:00:00 | |
| NBG1-10 | 2026-09-05 02:36:49 | 47.27488 | 11.60897 | 82° | 102km/h | 6556m | 3.0m/s | -14.6°C | 23.2% | 0hPa | 2.9V | 00:00:00 | 00:50:45 | 00:00:00 | |
| OE5DRO-10 | 2026-09-05 02:36:48 | 47.27484 | 11.60861 | 82° | 102km/h | 6554m | 2.6m/s | -14.5°C | 23.3% | 0hPa | 2.9V | 00:00:00 | 00:00:00 | 00:00:00 | |
| OE5DXL-15 | 2026-09-05 02:36:47 | 47.27480 | 11.60824 | 81° | 102km/h | 6550m | 4.5m/s | -14.5°C | 23.3% | 0hPa | 2.9V | 00:00:00 | 00:00:00 | 00:00:00 | |
| DO3MHA-12 | 2026-09-05 02:36:44 | 47.27467 | 11.60713 | 80° | 104km/h | 6538m | 3.5m/s | -14.6°C | 25.2% | 0hPa | 2.9V | 00:00:00 | 00:50:40 | 00:00:00 | |
| DO3MHA-11 | 2026-09-05 02:36:39 | 47.27442 | 11.60526 | 80° | 104km/h | 6520m | 2.3m/s | -14.4°C | 25.6% | 0hPa | 2.9V | 00:00:00 | 00:50:35 | 00:00:00 | |
| DO3MHA-12 | 2026-09-05 02:36:34 | 47.27417 | 11.60334 | 79° | 100km/h | 6502m | 4.7m/s | -14.3°C | 25.5% | 0hPa | 2.9V | 00:00:00 | 00:50:30 | 00:00:00 | |
| DL6DJ-15 | 2026-09-05 02:36:32 | 47.27402 | 11.60222 | 78° | 99km/h | 6489m | 2.2m/s | -14.3°C | -1.0% | -1.0hPa | 2.9V | 00:00:00 | 00:00:00 | 00:00:00 | |
| DO3MHA-11 | 2026-09-05 02:36:29 | 47.27391 | 11.60150 | 79° | 100km/h | 6482m | 4.9m/s | -14.2°C | 25.5% | 0hPa | 2.9V | 00:00:00 | 00:50:25 | 00:00:00 | |
| IN3HCDX | 2026-09-05 02:36:26 | 47.27381 | 11.60077 | 80° | 100km/h | 6474m | 3.6m/s | -14.1°C | 0% | 0hPa | 2.9V | 00:00:00 | 00:00:00 | 00:00:00 | |
| BAUMI2-15 | 2026-09-05 02:36:24 | 47.27367 | 11.59967 | 81° | 100km/h | 6462m | 4.3m/s | -14.0°C | 25.2% | 0hPa | 2.9V | 00:00:00 | 00:50:20 | 00:00:00 | |
| DO3MHA-11 | 2026-09-05 02:36:19 | 47.27347 | 11.59780 | 82° | 102km/h | 6442m | 3.4m/s | -13.9°C | 24.7% | 0hPa | 2.9V | 00:00:00 | 00:50:15 | 00:00:00 | |
| DG1MFX-10 | 2026-09-05 02:36:18 | 47.27347 | 11.59780 | 82° | 100km/h | 6442m | 3.4m/s | 0°C | 0% | 0hPa | 2.9V | 00:00:00 | 00:00:00 | 00:00:00 | |
| OE5DXL-15 | 2026-09-05 02:36:17 | 47.27339 | 11.59706 | 82° | 99km/h | 6434m | 3.3m/s | -13.8°C | 24.6% | 0hPa | 2.9V | 00:00:00 | 00:00:00 | 00:00:00 | |
| NBG1-10 | 2026-09-05 02:36:16 | 47.27336 | 11.59669 | 81° | 99km/h | 6430m | 4.2m/s | -13.8°C | 24.6% | 0hPa | 2.9V | 00:00:00 | 00:50:12 | 00:00:00 | |
| DO3MHA-12 | 2026-09-05 02:36:14 | 47.27328 | 11.59594 | 82° | 102km/h | 6423m | 5.0m/s | -13.7°C | 24.3% | 0hPa | 2.9V | 00:00:00 | 00:50:10 | 00:00:00 | |
| OE5DRO-10 | 2026-09-05 02:36:10 | 47.27313 | 11.59442 | 83° | 99km/h | 6406m | 4.7m/s | -13.6°C | 23.8% | 0hPa | 2.9V | 00:00:00 | 00:00:00 | 00:00:00 | |
| DO3MHA-11 | 2026-09-05 02:36:09 | 47.27309 | 11.59404 | 81° | 99km/h | 6401m | 4.7m/s | -13.6°C | 23.6% | 0hPa | 2.9V | 00:00:00 | 00:50:05 | 00:00:00 | |
| DO3MHA-12 | 2026-09-05 02:36:04 | 47.27292 | 11.59220 | 83° | 99km/h | 6382m | 4.6m/s | -13.4°C | 23.1% | 0hPa | 2.9V | 00:00:00 | 00:50:00 | 00:00:00 | |
| DL6DJ-15 | 2026-09-05 02:36:01 | 47.27276 | 11.59077 | 79° | 95km/h | 6365m | 5.3m/s | -13.4°C | -1.0% | -1.0hPa | 2.9V | 00:00:00 | 00:00:00 | 00:00:00 | |
| IN3HCDX | 2026-09-05 02:36:00 | 47.27280 | 11.59111 | 80° | 95km/h | 6370m | 4.1m/s | -13.4°C | 0% | 0hPa | 2.9V | 00:00:00 | 00:00:00 | 00:00:00 | |
| BAUMI2-15 | 2026-09-05 02:35:59 | 47.27271 | 11.59041 | 81° | 99km/h | 6360m | 4.8m/s | -13.3°C | 22.5% | 0hPa | 2.9V | 00:00:00 | 00:49:55 | 08:30:00 | |
| DG1MFX-10 | 2026-09-05 02:35:57 | 47.27268 | 11.59005 | 83° | 99km/h | 6356m | 3.1m/s | 0°C | 0% | 0hPa | 2.9V | 00:00:00 | 00:00:00 | 00:00:00 | |
| DO3MHA-12 | 2026-09-05 02:35:54 | 47.27255 | 11.58861 | 82° | 95km/h | 6337m | 4.8m/s | -13.2°C | 21.5% | 0hPa | 2.9V | 00:00:00 | 00:49:50 | 00:00:00 | |
| OE5DRO-10 | 2026-09-05 02:35:51 | 47.27246 | 11.58753 | 86° | 91km/h | 6326m | 3.4m/s | -13.1°C | 21.1% | 0hPa | 2.9V | 00:00:00 | 00:00:00 | 00:00:00 | |
| DO3MHA-11 | 2026-09-05 02:35:49 | 47.27242 | 11.58682 | 85° | 93km/h | 6317m | 3.2m/s | -13.1°C | 20.7% | 0hPa | 2.9V | 00:00:00 | 00:49:45 | 00:00:00 | |
| OE5DXL-15 | 2026-09-05 02:35:47 | 47.27237 | 11.58613 | 83° | 91km/h | 6308m | 5.7m/s | -13.0°C | 20.3% | 0hPa | 2.9V | 00:00:00 | 00:00:00 | 00:00:00 | |
| DO3MHA-12 | 2026-09-05 02:35:44 | 47.27229 | 11.58510 | 86° | 91km/h | 6295m | 3.9m/s | -12.8°C | 20.3% | 0hPa | 2.9V | 00:00:00 | 00:49:40 | 00:00:00 | |
| NBG1-10 | 2026-09-05 02:35:43 | 47.27227 | 11.58475 | 86° | 89km/h | 6292m | 3.1m/s | -12.8°C | 20.2% | 0hPa | 2.9V | 00:00:00 | 00:49:39 | 00:00:00 | |
| IN3HCDX | 2026-09-05 02:35:40 | 47.27223 | 11.58408 | 85° | 89km/h | 6284m | 3.5m/s | -12.8°C | 0% | 0hPa | 2.9V | 00:00:00 | 00:00:00 | 00:00:00 | |
| DO3MHA-11 | 2026-09-05 02:35:39 | 47.27218 | 11.58341 | 84° | 89km/h | 6276m | 3.1m/s | -12.7°C | 20.1% | 0hPa | 2.9V | 00:00:00 | 00:49:35 | 00:00:00 | |
| DG1MFX-10 | 2026-09-05 02:35:36 | 47.27213 | 11.58274 | 85° | 89km/h | 6268m | 3.5m/s | 0°C | 0% | 0hPa | 2.9V | 00:00:00 | 00:00:00 | 00:00:00 | |
| DO3MHA-12 | 2026-09-05 02:35:34 | 47.27205 | 11.58175 | 82° | 89km/h | 6255m | 5.3m/s | -12.5°C | 19.8% | 0hPa | 2.9V | 00:00:00 | 00:49:30 | 00:00:00 | |
| OE5DRO-10 | 2026-09-05 02:35:32 | 47.27198 | 11.58109 | 82° | 89km/h | 6247m | 4.6m/s | -12.4°C | 19.5% | 0hPa | 2.9V | 00:00:00 | 00:00:00 | 08:30:00 | |
| DO3MHA-11 | 2026-09-05 02:35:29 | 47.27188 | 11.58008 | 82° | 89km/h | 6233m | 4.1m/s | -12.3°C | 19.5% | 0hPa | 2.9V | 00:00:00 | 00:49:25 | 00:00:00 | |
| DO3MHA-12 | 2026-09-05 02:35:24 | 47.27171 | 11.57846 | 82° | 89km/h | 6210m | 3.5m/s | -12.2°C | 19.6% | 0hPa | 2.9V | 00:00:00 | 00:49:20 | 08:30:00 | |
| BAUMI2-15 | 2026-09-05 02:35:19 | 47.27158 | 11.57680 | 88° | 91km/h | 6188m | 2.5m/s | 0°C | 0% | 0hPa | 2.9V | 00:00:00 | 00:49:15 | 00:00:00 | |
| OE5DXL-15 | 2026-09-05 02:35:17 | 47.27155 | 11.57611 | 87° | 84km/h | 6180m | 4.7m/s | -12.1°C | 20.2% | 0hPa | 2.9V | 00:00:00 | 00:00:00 | 00:00:00 | |
| DO3MHA-12 | 2026-09-05 02:35:14 | 47.27151 | 11.57512 | 86° | 86km/h | 6166m | 3.7m/s | -12.1°C | 21.2% | 0hPa | 2.9V | 00:00:00 | 00:49:10 | 00:00:00 | |
| OE5DRO-10 | 2026-09-05 02:35:13 | 47.27149 | 11.57479 | 86° | 82km/h | 6162m | 2.8m/s | -12.1°C | 21.7% | 0hPa | 2.9V | 00:00:00 | 00:00:00 | 00:00:00 | |
| IN3HCDX | 2026-09-05 02:35:12 | 47.27149 | 11.57479 | 87° | 89km/h | 6162m | 2.9m/s | -12.1°C | 0% | 0hPa | 2.9V | 00:00:00 | 00:00:00 | 00:00:00 | |
| NBG1-10 | 2026-09-05 02:35:10 | 47.27145 | 11.57381 | 86° | 82km/h | 6151m | 4.0m/s | -12.0°C | 22.2% | 0hPa | 2.9V | 00:00:00 | 00:49:06 | 00:00:00 | |
| DO3MHA-11 | 2026-09-05 02:35:09 | 47.27144 | 11.57350 | 87° | 82km/h | 6147m | 3.2m/s | -12.0°C | 22.6% | 0hPa | 2.9V | 00:00:00 | 00:49:05 | 00:00:00 | |
| DO3MHA-12 | 2026-09-05 02:35:04 | 47.27136 | 11.57197 | 85° | 80km/h | 6126m | 3.3m/s | -12.0°C | 24.1% | 0hPa | 2.9V | 00:00:00 | 00:49:00 | 00:00:00 | |
| DO3MHA-11 | 2026-09-05 02:34:59 | 47.27128 | 11.57047 | 88° | 82km/h | 6106m | 3.5m/s | -11.8°C | 23.3% | 0hPa | 2.9V | 00:00:00 | 00:48:55 | 00:00:00 | |
| BAUMI2-15 | 2026-09-05 02:34:58 | 47.27127 | 11.57018 | 88° | 82km/h | 6102m | 4.7m/s | 0°C | 0% | 0hPa | 2.9V | 00:00:00 | 00:48:54 | 00:00:00 | |
| DO3MHA-12 | 2026-09-05 02:34:54 | 47.27123 | 11.56896 | 89° | 82km/h | 6087m | 4.2m/s | -11.7°C | 25.3% | 0hPa | 2.9V | 00:00:00 | 00:48:50 | 00:00:00 | |
| BAUMI2-15 | 2026-09-05 02:34:53 | 47.27122 | 11.56866 | 89° | 84km/h | 6083m | 3.2m/s | 0°C | 0% | 0hPa | 2.9V | 00:00:00 | 00:48:49 | 00:00:00 | |
| DB0NH | 2026-09-05 02:34:51 | 47.27121 | 11.56804 | 89° | 82km/h | 6075m | 3.0m/s | 0°C | 0% | 0hPa | 2.9V | 00:00:00 | 00:48:47 | 00:00:00 | |
| DO3MHA-11 | 2026-09-05 02:34:49 | 47.27120 | 11.56741 | 90° | 82km/h | 6067m | 2.7m/s | -11.5°C | 25.5% | 0hPa | 2.9V | 00:00:00 | 00:48:45 | 00:00:00 | |
| BAUMI2-15 | 2026-09-05 02:34:48 | 47.27119 | 11.56710 | 89° | 82km/h | 6063m | 3.9m/s | 0°C | 0% | 0hPa | 2.9V | 00:00:00 | 00:48:44 | 00:00:00 | |
| OE5DXL-15 | 2026-09-05 02:34:47 | 47.27119 | 11.56680 | 89° | 82km/h | 6060m | 3.3m/s | -11.5°C | 25.4% | 0hPa | 2.9V | 00:00:00 | 00:00:00 | 00:00:00 | |
| DO3MHA-12 | 2026-09-05 02:34:44 | 47.27118 | 11.56587 | 90° | 82km/h | 6048m | 4.1m/s | -11.4°C | 25.3% | 0hPa | 2.9V | 00:00:00 | 00:48:40 | 00:00:00 | |
| BAUMI2-15 | 2026-09-05 02:34:43 | 47.27118 | 11.56556 | 92° | 80km/h | 6043m | 4.3m/s | 0°C | 0% | 0hPa | 2.9V | 00:00:00 | 00:48:39 | 00:00:00 | |
| DO3MHA-11 | 2026-09-05 02:34:39 | 47.27119 | 11.56434 | 90° | 82km/h | 6028m | 2.9m/s | -11.2°C | 24.7% | 0hPa | 2.9V | 00:00:00 | 00:48:35 | 00:00:00 | |
| NBG1-10 | 2026-09-05 02:34:37 | 47.27118 | 11.56375 | 88° | 82km/h | 6020m | 4.4m/s | 0°C | 0% | 0hPa | 2.9V | 00:00:00 | 00:48:33 | 00:00:00 | |
| OE5DRO-10 | 2026-09-05 02:34:35 | 47.27116 | 11.56315 | 88° | 82km/h | 6012m | 3.8m/s | -11.0°C | 24.1% | 0hPa | 2.9V | 00:00:00 | 00:00:00 | 00:00:00 | |
| DO3MHA-12 | 2026-09-05 02:34:34 | 47.27115 | 11.56284 | 88° | 82km/h | 6008m | 3.4m/s | -11.0°C | 24.1% | 0hPa | 2.9V | 00:00:00 | 00:48:30 | 00:00:00 | |
| IN3HCDX | 2026-09-05 02:34:30 | 47.27113 | 11.56194 | 89° | 84km/h | 5995m | 5.1m/s | -10.9°C | 0% | 0hPa | 2.9V | 00:00:00 | 00:00:00 | 00:00:00 | |
| DO3MHA-11 | 2026-09-05 02:34:29 | 47.27112 | 11.56131 | 90° | 80km/h | 5987m | 3.2m/s | -10.8°C | 23.6% | 0hPa | 2.9V | 00:00:00 | 00:48:25 | 00:00:00 | |
| DL6DJ-15 | 2026-09-05 02:34:28 | 47.27111 | 11.56007 | 90° | 80km/h | 5972m | 3.5m/s | 0°C | -1.0% | -1.0hPa | 2.9V | 00:00:00 | 00:00:00 | 00:00:00 | |
| DO3MHA-12 | 2026-09-05 02:34:24 | 47.27111 | 11.55977 | 90° | 80km/h | 5968m | 4.3m/s | -10.7°C | 23.1% | 0hPa | 2.9V | 00:00:00 | 00:48:20 | 00:00:00 | |
| DG1MFX-10 | 2026-09-05 02:34:23 | 47.27111 | 11.55977 | 91° | 78km/h | 5968m | 4.3m/s | 0°C | 0% | 0hPa | 2.9V | 00:00:00 | 00:00:00 | 00:00:00 | |
| DO3MHA-11 | 2026-09-05 02:34:19 | 47.27110 | 11.55830 | 90° | 80km/h | 5948m | 4.4m/s | -10.5°C | 24.3% | 0hPa | 2.9V | 00:00:00 | 00:48:15 | 00:00:00 | |
| OE5DXL-15 | 2026-09-05 02:34:17 | 47.27109 | 11.55769 | 88° | 82km/h | 5940m | 4.2m/s | -10.5°C | 24.1% | 0hPa | 2.9V | 00:00:00 | 00:00:00 | 08:30:00 | |
| OE5DRO-10 | 2026-09-05 02:34:16 | 47.27108 | 11.55738 | 88° | 82km/h | 5936m | 3.0m/s | 0°C | 0% | 0hPa | 2.7V | 00:00:00 | 00:00:00 | 00:00:00 | |
| DO3MHA-12 | 2026-09-05 02:34:14 | 47.27107 | 11.55678 | 90° | 82km/h | 5929m | 3.3m/s | -10.4°C | 24.1% | 0hPa | 2.7V | 00:00:00 | 00:48:10 | 00:00:00 | |
| DB0NH | 2026-09-05 02:34:13 | 47.27107 | 11.55648 | 92° | 82km/h | 5925m | 3.7m/s | 0°C | 0% | 0hPa | 2.7V | 00:00:00 | 00:48:09 | 00:00:00 | |
| IN3HCDX | 2026-09-05 02:34:10 | 47.27108 | 11.55588 | 93° | 78km/h | 5918m | 3.8m/s | -10.3°C | 0% | 0hPa | 2.7V | 00:00:00 | 00:00:00 | 00:00:00 | |
| DO3MHA-11 | 2026-09-05 02:34:09 | 47.27109 | 11.55529 | 91° | 82km/h | 5910m | 4.5m/s | -10.3°C | 24.2% | 0hPa | 2.7V | 00:00:00 | 00:48:05 | 00:00:00 | |
| DO3MHA-12 | 2026-09-05 02:34:04 | 47.27108 | 11.55375 | 90° | 82km/h | 5891m | 4.5m/s | -10.1°C | 24.7% | 0hPa | 2.7V | 00:00:00 | 00:48:00 | 00:00:00 | |
| DG1MFX-10 | 2026-09-05 02:34:03 | 47.27108 | 11.55375 | 90° | 82km/h | 5891m | 4.5m/s | 0°C | 0% | 0hPa | 2.7V | 00:00:00 | 00:00:00 | 00:00:00 | |
| OE5DRO-10 | 2026-09-05 02:33:57 | 47.27108 | 11.55160 | 91° | 82km/h | 5864m | 4.1m/s | 0°C | 0% | 0hPa | 2.7V | 00:00:00 | 00:00:00 | 00:00:00 | |
| DO3MHA-12 | 2026-09-05 02:33:54 | 47.27109 | 11.55068 | 92° | 82km/h | 5852m | 3.8m/s | -9.8°C | 23.7% | 0hPa | 2.7V | 00:00:00 | 00:47:50 | 08:30:00 | |
| DO3MHA-11 | 2026-09-05 02:33:49 | 47.27112 | 11.54915 | 91° | 82km/h | 5833m | 4.2m/s | -9.7°C | 23.6% | 0hPa | 2.9V | 00:00:00 | 00:47:45 | 08:30:00 | |
| OE5DXL-15 | 2026-09-05 02:33:47 | 47.27112 | 11.54853 | 90° | 80km/h | 5824m | 4.2m/s | -9.6°C | 23.5% | 0hPa | 2.9V | 00:00:00 | 00:00:00 | 00:00:00 | |
| DO3MHA-12 | 2026-09-05 02:33:44 | 47.27112 | 11.54759 | 91° | 82km/h | 5810m | 7.0m/s | -9.5°C | 23.1% | 0hPa | 2.9V | 00:00:00 | 00:47:40 | 00:00:00 | |
| DB0NH | 2026-09-05 02:33:43 | 47.27112 | 11.54729 | 90° | 77km/h | 5804m | 4.6m/s | 0°C | 0% | 0hPa | 2.9V | 00:00:00 | 00:47:39 | 00:00:00 | |
| DO3MHA-11 | 2026-09-05 02:33:39 | 47.27110 | 11.54609 | 90° | 82km/h | 5786m | 2.6m/s | -9.3°C | 22.9% | 0hPa | 2.9V | 00:00:00 | 00:47:35 | 00:00:00 | |
| OE5DRO-10 | 2026-09-05 02:33:38 | 47.27110 | 11.54579 | 89° | 80km/h | 5782m | 5.4m/s | 0°C | 0% | 0hPa | 2.9V | 00:00:00 | 00:00:00 | 00:00:00 | |
| DG1MFX-10 | 2026-09-05 02:33:35 | 47.27110 | 11.54518 | 91° | 82km/h | 5772m | 4.7m/s | 0°C | 0% | 0hPa | 2.9V | 00:00:00 | 00:00:00 | 00:00:00 | |
| DO3MHA-12 | 2026-09-05 02:33:34 | 47.27109 | 11.54456 | 89° | 80km/h | 5763m | 4.7m/s | -9.1°C | 22.2% | 0hPa | 2.9V | 00:00:00 | 00:47:30 | 00:00:00 | |
| DO3MHA-11 | 2026-09-05 02:33:29 | 47.27107 | 11.54302 | 89° | 78km/h | 5742m | 3.4m/s | -8.9°C | 20.9% | 0hPa | 2.9V | 00:00:00 | 00:47:25 | 00:00:00 | |
| IN3HCDX | 2026-09-05 02:33:28 | 47.27107 | 11.54303 | 90° | 80km/h | 5742m | 3.5m/s | 0°C | 0% | 0hPa | 2.9V | 00:00:00 | 00:00:00 | 00:00:00 | |
| DL6DJ-15 | 2026-09-05 02:33:26 | 47.27106 | 11.54214 | 88° | 77km/h | 5729m | 3.4m/s | 0°C | -1.0% | -1.0hPa | 2.9V | 00:00:00 | 00:00:00 | 00:00:00 | |
| DO3MHA-12 | 2026-09-05 02:33:24 | 47.27105 | 11.54158 | 90° | 78km/h | 5720m | 5.2m/s | -8.8°C | 19.3% | 0hPa | 2.9V | 00:00:00 | 00:47:20 | 00:00:00 | |
| DO3MHA-11 | 2026-09-05 02:33:19 | 47.27101 | 11.54012 | 85° | 78km/h | 5697m | 5.3m/s | -8.7°C | 18.0% | 0hPa | 2.9V | 00:00:00 | 00:47:15 | 00:00:00 | |
| OE5DXL-15 | 2026-09-05 02:33:17 | 47.27098 | 11.53950 | 86° | 77km/h | 5688m | 3.8m/s | -8.7°C | 17.2% | 0hPa | 2.9V | 00:00:00 | 00:00:00 | 00:00:00 | |
| DO3MHA-12 | 2026-09-05 02:33:14 | 47.27094 | 11.53864 | 88° | 78km/h | 5676m | 4.3m/s | -8.6°C | 16.4% | 0hPa | 2.9V | 00:00:00 | 00:47:10 | 00:00:00 | |
| DO3MHA-11 | 2026-09-05 02:33:09 | 47.27088 | 11.53718 | 87° | 78km/h | 5656m | 4.5m/s | -8.4°C | 15.5% | 0hPa | 2.9V | 00:00:00 | 00:47:05 | 00:00:00 | |
| DO3MHA-12 | 2026-09-05 02:33:04 | 47.27080 | 11.53572 | 86° | 77km/h | 5637m | 4.4m/s | -8.3°C | 14.8% | 0hPa | 2.9V | 00:00:00 | 00:47:00 | 00:00:00 | |
| DO3MHA-11 | 2026-09-05 02:32:59 | 47.27070 | 11.53429 | 85° | 77km/h | 5618m | 3.0m/s | -8.4°C | 15.4% | 0hPa | 2.9V | 00:00:00 | 00:46:55 | 00:00:00 | |
| DO3MHA-12 | 2026-09-05 02:32:54 | 47.27058 | 11.53291 | 82° | 77km/h | 5599m | 4.1m/s | -8.6°C | 17.1% | 0hPa | 2.9V | 00:00:00 | 00:46:50 | 00:00:00 | |
| DO3MHA-11 | 2026-09-05 02:32:49 | 47.27044 | 11.53149 | 83° | 75km/h | 5578m | 3.3m/s | -9.0°C | 19.9% | 0hPa | 2.9V | 00:00:00 | 00:46:45 | 00:00:00 | |
| OE5DXL-15 | 2026-09-05 02:32:47 | 47.27040 | 11.53093 | 86° | 73km/h | 5570m | 3.1m/s | -9.0°C | 20.4% | 0hPa | 2.9V | 00:00:00 | 00:00:00 | 00:00:00 | |
| DO3MHA-12 | 2026-09-05 02:32:44 | 47.27035 | 11.53008 | 85° | 73km/h | 5555m | 4.2m/s | -9.0°C | 20.8% | 0hPa | 2.7V | 00:00:00 | 00:46:40 | 00:00:00 | |
| DO3MHA-11 | 2026-09-05 02:32:39 | 47.27026 | 11.52873 | 86° | 73km/h | 5534m | 4.4m/s | -8.9°C | 21.5% | 0hPa | 2.7V | 00:00:00 | 00:46:35 | 00:00:00 | |
| DB0NH | 2026-09-05 02:32:37 | 47.27024 | 11.52820 | 86° | 75km/h | 5525m | 5.7m/s | 0°C | 0% | 0hPa | 2.7V | 00:00:00 | 00:46:33 | 00:00:00 | |
| BAUMI2-15 | 2026-09-05 02:32:32 | 47.27018 | 11.52682 | 88° | 73km/h | 5503m | 2.7m/s | 0°C | 0% | 0hPa | 2.7V | 00:00:00 | 00:46:28 | 00:00:00 | |
| DO3MHA-11 | 2026-09-05 02:32:29 | 47.27016 | 11.52601 | 89° | 75km/h | 5490m | 5.0m/s | -9.1°C | 24.1% | 0hPa | 2.7V | 00:00:00 | 00:46:25 | 00:00:00 | |
| BAUMI2-15 | 2026-09-05 02:32:27 | 47.27015 | 11.52548 | 90° | 75km/h | 5480m | 4.9m/s | 0°C | 0% | 0hPa | 2.7V | 00:00:00 | 00:46:23 | 08:30:00 | |
| NBG1-10 | 2026-09-05 02:32:25 | 47.27016 | 11.52495 | 94° | 75km/h | 5469m | 5.3m/s | 0°C | 0% | 0hPa | 2.7V | 00:00:00 | 00:46:21 | 00:00:00 | |
| DO3MHA-12 | 2026-09-05 02:32:24 | 47.27017 | 11.52466 | 94° | 75km/h | 5464m | 3.1m/s | -9.0°C | 24.0% | 0hPa | 2.7V | 00:00:00 | 00:46:20 | 08:30:00 | |
| BAUMI2-15 | 2026-09-05 02:32:22 | 47.27019 | 11.52409 | 93° | 75km/h | 5457m | 4.9m/s | 0°C | 0% | 0hPa | 2.9V | 00:00:00 | 00:46:18 | 00:00:00 | |
| DO3MHA-11 | 2026-09-05 02:32:19 | 47.27021 | 11.52326 | 91° | 75km/h | 5444m | 2.6m/s | -8.8°C | 23.7% | 0hPa | 2.9V | 00:00:00 | 00:46:15 | 08:30:00 | |
| OE5DXL-15 | 2026-09-05 02:32:17 | 47.27021 | 11.52272 | 91° | 73km/h | 5436m | 2.9m/s | -8.8°C | 23.7% | 0hPa | 2.9V | 00:00:00 | 00:00:00 | 00:00:00 | |
| DO3MHA-12 | 2026-09-05 02:32:14 | 47.27023 | 11.52188 | 93° | 73km/h | 5425m | 4.8m/s | -8.8°C | 23.8% | 0hPa | 2.9V | 00:00:00 | 00:46:10 | 00:00:00 | |
| BAUMI2-15 | 2026-09-05 02:32:12 | 47.27024 | 11.52131 | 93° | 73km/h | 5416m | 4.0m/s | 0°C | 0% | 0hPa | 2.9V | 00:00:00 | 00:46:08 | 00:00:00 | |
| DO3MHA-11 | 2026-09-05 02:32:09 | 47.27028 | 11.52049 | 95° | 73km/h | 5406m | 3.1m/s | -8.7°C | 24.2% | 0hPa | 2.9V | 00:00:00 | 00:46:05 | 00:00:00 | |
| BAUMI2-15 | 2026-09-05 02:32:07 | 47.27031 | 11.51995 | 94° | 71km/h | 5399m | 4.2m/s | 0°C | 0% | 0hPa | 2.9V | 00:00:00 | 00:46:03 | 00:00:00 | |
| OE5DRO-10 | 2026-09-05 02:32:05 | 47.27032 | 11.51942 | 91° | 75km/h | 5392m | 3.1m/s | 0°C | 0% | 0hPa | 2.9V | 00:00:00 | 00:00:00 | 00:00:00 | |
| DO3MHA-12 | 2026-09-05 02:32:04 | 47.27032 | 11.51916 | 90° | 71km/h | 5389m | 2.4m/s | -8.8°C | 25.1% | 0hPa | 2.9V | 00:00:00 | 00:46:00 | 00:00:00 | |
| BAUMI2-15 | 2026-09-05 02:32:02 | 47.27032 | 11.51862 | 91° | 73km/h | 5382m | 4.3m/s | 0°C | 0% | 0hPa | 2.9V | 00:00:00 | 00:45:58 | 00:00:00 | |
| DO3MHA-11 | 2026-09-05 02:31:59 | 47.27032 | 11.51780 | 89° | 71km/h | 5372m | 2.6m/s | -8.6°C | 25.1% | 0hPa | 2.9V | 00:00:00 | 00:45:55 | 00:00:00 | |
| BAUMI2-15 | 2026-09-05 02:31:57 | 47.27031 | 11.51727 | 89° | 71km/h | 5365m | 2.9m/s | 0°C | 0% | 0hPa | 2.9V | 00:00:00 | 00:45:53 | 00:00:00 | |
| DO3MHA-12 | 2026-09-05 02:31:54 | 47.27030 | 11.51648 | 90° | 73km/h | 5355m | 3.5m/s | -8.6°C | 25.7% | 0hPa | 2.9V | 00:00:00 | 00:45:50 | 00:00:00 | |
| BAUMI2-15 | 2026-09-05 02:31:51 | 47.27028 | 11.51567 | 88° | 71km/h | 5345m | 2.7m/s | 0°C | 0% | 0hPa | 2.9V | 00:00:00 | 00:45:47 | 00:00:00 | |
| DO3MHA-11 | 2026-09-05 02:31:49 | 47.27027 | 11.51514 | 88° | 75km/h | 5338m | 2.8m/s | -8.5°C | 26.6% | 0hPa | 2.9V | 00:00:00 | 00:45:45 | 00:00:00 | |
| OE5DXL-15 | 2026-09-05 02:31:47 | 47.27024 | 11.51460 | 87° | 77km/h | 5331m | 3.0m/s | -8.5°C | 27.3% | 0hPa | 2.9V | 00:00:00 | 00:00:00 | 00:00:00 | |
| BAUMI2-15 | 2026-09-05 02:31:46 | 47.27023 | 11.51433 | 88° | 75km/h | 5327m | 3.6m/s | 0°C | 0% | 0hPa | 2.9V | 00:00:00 | 00:45:42 | 00:00:00 | |
| DO3MHA-12 | 2026-09-05 02:31:44 | 47.27021 | 11.51377 | 87° | 77km/h | 5319m | 4.2m/s | -8.4°C | 27.7% | 0hPa | 2.9V | 00:00:00 | 00:45:40 | 00:00:00 | |
| BAUMI2-15 | 2026-09-05 02:31:41 | 47.27018 | 11.51293 | 87° | 75km/h | 5308m | 3.5m/s | 0°C | 0% | 0hPa | 2.9V | 00:00:00 | 00:45:37 | 08:30:00 | |
| DO3MHA-11 | 2026-09-05 02:31:39 | 47.27017 | 11.51238 | 90° | 78km/h | 5300m | 4.5m/s | -8.6°C | 29.7% | 0hPa | 2.9V | 00:00:00 | 00:45:35 | 00:00:00 | |
| BAUMI2-15 | 2026-09-05 02:31:36 | 47.27016 | 11.51153 | 88° | 80km/h | 5285m | 4.9m/s | 0°C | 0% | 0hPa | 2.9V | 00:00:00 | 00:45:32 | 00:00:00 | |
| DO3MHA-12 | 2026-09-05 02:31:34 | 47.27013 | 11.51093 | 86° | 78km/h | 5277m | 2.4m/s | -8.5°C | 30.9% | 0hPa | 2.9V | 00:00:00 | 00:45:30 | 00:00:00 | |
| BAUMI2-15 | 2026-09-05 02:31:30 | 47.27007 | 11.50975 | 88° | 78km/h | 5257m | 6.5m/s | 0°C | 0% | 0hPa | 2.9V | 00:00:00 | 00:45:26 | 00:00:00 | |
| DO3MHA-11 | 2026-09-05 02:31:29 | 47.27006 | 11.50946 | 88° | 78km/h | 5252m | 4.6m/s | -8.5°C | 32.5% | 0hPa | 2.9V | 00:00:00 | 00:45:25 | 00:00:00 | |
| BAUMI2-15 | 2026-09-05 02:31:25 | 47.27003 | 11.50829 | 90° | 80km/h | 5232m | 3.1m/s | 0°C | 0% | 0hPa | 2.9V | 00:00:00 | 00:45:21 | 00:00:00 | |
| DO3MHA-12 | 2026-09-05 02:31:24 | 47.27003 | 11.50799 | 91° | 78km/h | 5229m | 3.5m/s | -8.3°C | 32.0% | 0hPa | 2.9V | 00:00:00 | 00:45:20 | 00:00:00 | |
| BAUMI2-15 | 2026-09-05 02:31:20 | 47.27002 | 11.50681 | 90° | 78km/h | 5211m | 4.9m/s | 0°C | 0% | 0hPa | 2.9V | 00:00:00 | 00:45:16 | 00:00:00 | |
| DO3MHA-11 | 2026-09-05 02:31:19 | 47.27002 | 11.50653 | 90° | 77km/h | 5207m | 3.3m/s | -8.1°C | 31.7% | 0hPa | 2.9V | 00:00:00 | 00:45:15 | 00:00:00 | |
| OE5DXL-15 | 2026-09-05 02:31:17 | 47.27001 | 11.50596 | 88° | 77km/h | 5198m | 5.4m/s | -8.1°C | 31.5% | 0hPa | 2.9V | 00:00:00 | 00:00:00 | 00:00:00 | |
| BAUMI2-15 | 2026-09-05 02:31:15 | 47.27000 | 11.50538 | 90° | 77km/h | 5190m | 3.5m/s | 0°C | 0% | 0hPa | 2.9V | 00:00:00 | 00:45:11 | 00:00:00 | |
| DO3MHA-12 | 2026-09-05 02:31:14 | 47.27000 | 11.50510 | 90° | 75km/h | 5185m | 4.5m/s | -7.9°C | 31.3% | 0hPa | 2.9V | 00:00:00 | 00:45:10 | 00:00:00 | |
| BAUMI2-15 | 2026-09-05 02:31:10 | 47.26999 | 11.50396 | 92° | 75km/h | 5170m | 3.3m/s | 0°C | 0% | 0hPa | 2.9V | 00:00:00 | 00:45:06 | 00:00:00 | |
| DO3MHA-11 | 2026-09-05 02:31:09 | 47.27000 | 11.50368 | 92° | 77km/h | 5166m | 3.5m/s | -7.8°C | 31.1% | 0hPa | 2.9V | 00:00:00 | 00:45:05 | 00:00:00 | |
| DO3MHA-12 | 2026-09-05 02:31:04 | 47.27004 | 11.50229 | 96° | 77km/h | 5147m | 4.2m/s | -7.6°C | 31.0% | 0hPa | 2.9V | 00:00:00 | 00:45:00 | 00:00:00 | |
| OE5DRO-10 | 2026-09-05 02:31:02 | 47.27006 | 11.50171 | 91° | 77km/h | 5140m | 3.5m/s | 0°C | 0% | 0hPa | 2.9V | 00:00:00 | 00:00:00 | 00:00:00 | |
| DO3MHA-11 | 2026-09-05 02:30:59 | 47.27006 | 11.50085 | 90° | 75km/h | 5129m | 2.7m/s | -7.5°C | 31.1% | 0hPa | 2.9V | 00:00:00 | 00:44:55 | 00:00:00 | |
| BAUMI2-15 | 2026-09-05 02:30:58 | 47.27006 | 11.50056 | 90° | 75km/h | 5125m | 4.1m/s | 0°C | 0% | 0hPa | 2.9V | 00:00:00 | 00:44:54 | 00:00:00 | |
| DO3MHA-12 | 2026-09-05 02:30:54 | 47.27007 | 11.49944 | 90° | 75km/h | 5110m | 3.8m/s | -7.4°C | 31.0% | 0hPa | 2.9V | 00:00:00 | 00:44:50 | 08:30:00 | |
| DO3MHA-11 | 2026-09-05 02:30:49 | 47.27006 | 11.49805 | 90° | 75km/h | 5092m | 3.4m/s | -7.3°C | 27.8% | 0hPa | 3.0V | 00:00:00 | 00:44:45 | 08:30:00 | |
| OE5DXL-15 | 2026-09-05 02:30:47 | 47.27006 | 11.49748 | 92° | 75km/h | 5085m | 3.2m/s | -7.2°C | 26.9% | 0hPa | 2.9V | 00:00:00 | 00:00:00 | 00:00:00 | |
| DO3MHA-12 | 2026-09-05 02:30:44 | 47.27007 | 11.49663 | 92° | 75km/h | 5075m | 3.0m/s | -7.2°C | 25.6% | 0hPa | 2.9V | 00:00:00 | 00:44:40 | 00:00:00 | |
| DO3MHA-11 | 2026-09-05 02:30:39 | 47.27010 | 11.49525 | 91° | 75km/h | 5058m | 3.6m/s | -7.1°C | 26.0% | 0hPa | 2.9V | 00:00:00 | 00:44:35 | 00:00:00 | |
| DO3MHA-12 | 2026-09-05 02:30:34 | 47.27012 | 11.49385 | 90° | 75km/h | 5039m | 2.9m/s | -7.0°C | 26.0% | 0hPa | 2.9V | 00:00:00 | 00:44:30 | 00:00:00 | |
| DO3MHA-11 | 2026-09-05 02:30:29 | 47.27008 | 11.49247 | 85° | 73km/h | 5022m | 3.2m/s | -6.9°C | 26.4% | 0hPa | 2.9V | 00:00:00 | 00:44:25 | 00:00:00 | |
| DO3MHA-12 | 2026-09-05 02:30:24 | 47.27002 | 11.49111 | 88° | 75km/h | 5000m | 4.3m/s | -6.8°C | 26.3% | 0hPa | 2.9V | 00:00:00 | 00:44:20 | 00:00:00 | |
| DO3MHA-11 | 2026-09-05 02:30:19 | 47.26997 | 11.48976 | 87° | 78km/h | 4981m | 2.9m/s | -6.7°C | 27.0% | 0hPa | 2.9V | 00:00:00 | 00:44:15 | 00:00:00 | |
| OE5DXL-15 | 2026-09-05 02:30:17 | 47.26994 | 11.48918 | 85° | 73km/h | 4973m | 4.7m/s | -6.6°C | 26.9% | 0hPa | 2.9V | 00:00:00 | 00:00:00 | 00:00:00 | |
| DO3MHA-12 | 2026-09-05 02:30:14 | 47.26988 | 11.48832 | 86° | 78km/h | 4961m | 5.7m/s | -6.6°C | 27.2% | 0hPa | 2.9V | 00:00:00 | 00:44:10 | 00:00:00 | |
| DO3MHA-11 | 2026-09-05 02:30:09 | 47.26978 | 11.48686 | 83° | 73km/h | 4938m | 3.2m/s | -6.5°C | 28.8% | 0hPa | 2.9V | 00:00:00 | 00:44:05 | 00:00:00 | |
| DG1MFX-10 | 2026-09-05 02:30:06 | 47.26974 | 11.48627 | 86° | 77km/h | 4930m | 3.4m/s | 0°C | 0% | 0hPa | 2.9V | 00:00:00 | 00:00:00 | 00:00:00 | |
| DO3MHA-12 | 2026-09-05 02:30:04 | 47.26969 | 11.48544 | 84° | 68km/h | 4915m | 3.6m/s | -6.7°C | 39.5% | 0hPa | 2.9V | 00:00:00 | 00:44:00 | 00:00:00 | |
| DO3MHA-11 | 2026-09-05 02:29:59 | 47.26956 | 11.48417 | 80° | 66km/h | 4891m | 4.4m/s | -6.6°C | 42.1% | 0hPa | 2.9V | 00:00:00 | 00:43:55 | 00:00:00 | |
| DO3MHA-12 | 2026-09-05 02:29:54 | 47.26942 | 11.48297 | 79° | 68km/h | 4868m | 3.8m/s | -6.4°C | 42.0% | 0hPa | 2.9V | 00:00:00 | 00:43:50 | 00:00:00 | |
| DO3MHA-11 | 2026-09-05 02:29:49 | 47.26925 | 11.48174 | 78° | 69km/h | 4848m | 2.8m/s | -6.2°C | 42.7% | 0hPa | 2.9V | 00:00:00 | 00:43:45 | 00:00:00 | |
| OE5DXL-15 | 2026-09-05 02:29:47 | 47.26918 | 11.48125 | 78° | 71km/h | 4840m | 2.7m/s | -6.2°C | 42.8% | 0hPa | 3.0V | 00:00:00 | 00:00:00 | 08:30:00 | |
| DO3MHA-12 | 2026-09-05 02:29:44 | 47.26906 | 11.48053 | 78° | 73km/h | 4828m | 5.1m/s | -6.0°C | 42.0% | 0hPa | 2.9V | 00:00:00 | 00:43:40 | 00:00:00 | |
| DO3MHA-11 | 2026-09-05 02:29:39 | 47.26888 | 11.47920 | 77° | 73km/h | 4807m | 3.3m/s | -5.9°C | 45.5% | 0hPa | 2.9V | 00:00:00 | 00:43:35 | 00:00:00 | |
| DO3MHA-12 | 2026-09-05 02:29:34 | 47.26866 | 11.47784 | 79° | 71km/h | 4787m | 4.5m/s | -5.7°C | 48.3% | 0hPa | 2.9V | 00:00:00 | 00:43:30 | 00:00:00 | |
| DO3MHA-12 | 2026-09-05 02:29:24 | 47.26835 | 11.47522 | 78° | 73km/h | 4741m | 3.8m/s | -5.4°C | 55.4% | 0hPa | 2.9V | 00:00:00 | 00:43:20 | 08:30:00 | |
| DO3MHA-11 | 2026-09-05 02:29:19 | 47.26815 | 11.47392 | 77° | 73km/h | 4720m | 1.5m/s | -5.2°C | 60.0% | 0hPa | 3.0V | 00:00:00 | 00:43:15 | 08:30:00 | |
| OE5DXL-15 | 2026-09-05 02:29:17 | 47.26807 | 11.47337 | 80° | 71km/h | 4713m | 3.1m/s | -5.2°C | 63.1% | 0hPa | 2.9V | 00:00:00 | 00:00:00 | 00:00:00 | |
| DO3MHA-12 | 2026-09-05 02:29:14 | 47.26798 | 11.47258 | 80° | 73km/h | 4699m | 4.2m/s | -5.0°C | 60.0% | 0hPa | 2.9V | 00:00:00 | 00:43:10 | 00:00:00 | |
| DO3MHA-11 | 2026-09-05 02:29:09 | 47.26775 | 11.47129 | 75° | 71km/h | 4673m | 5.2m/s | -4.9°C | 66.9% | 0hPa | 2.9V | 00:00:00 | 00:43:05 | 00:00:00 | |
| DO3MHA-12 | 2026-09-05 02:29:04 | 47.26752 | 11.46995 | 75° | 69km/h | 4651m | 4.5m/s | -4.7°C | 67.7% | 0hPa | 2.9V | 00:00:00 | 00:43:00 | 00:00:00 | |
| DO3MHA-11 | 2026-09-05 02:28:59 | 47.26730 | 11.46873 | 73° | 71km/h | 4629m | 3.4m/s | -4.5°C | 70.6% | 0hPa | 2.9V | 00:00:00 | 00:42:55 | 00:00:00 | |
| DO3MHA-12 | 2026-09-05 02:28:54 | 47.26707 | 11.46748 | 76° | 73km/h | 4608m | 4.2m/s | -4.6°C | 86.4% | 0hPa | 2.9V | 00:00:00 | 00:42:50 | 00:00:00 | |
| DO3MHA-11 | 2026-09-05 02:28:49 | 47.26687 | 11.46616 | 77° | 68km/h | 4587m | 5.1m/s | -4.3°C | 80.9% | 0hPa | 2.9V | 00:00:00 | 00:42:45 | 00:00:00 | |
| OE5DXL-15 | 2026-09-05 02:28:47 | 47.26679 | 11.46561 | 78° | 66km/h | 4578m | 4.6m/s | -4.4°C | 85.8% | 0hPa | 3.0V | 00:00:00 | 00:00:00 | 00:00:00 | |
| DO3MHA-12 | 2026-09-05 02:28:44 | 47.26666 | 11.46488 | 75° | 66km/h | 4567m | 3.2m/s | -4.3°C | 86.2% | 0hPa | 3.0V | 00:00:00 | 00:42:40 | 00:00:00 | |
| DO3MHA-11 | 2026-09-05 02:28:39 | 47.26646 | 11.46370 | 77° | 68km/h | 4546m | 5.5m/s | -4.0°C | 84.2% | 0hPa | 3.0V | 00:00:00 | 00:42:35 | 00:00:00 | |
| DO3MHA-12 | 2026-09-05 02:28:34 | 47.26625 | 11.46247 | 78° | 66km/h | 4520m | 3.6m/s | -3.8°C | 83.4% | 0hPa | 3.0V | 00:00:00 | 00:42:30 | 00:00:00 | |
| Es werden nur die letzten 3500 von 3566 Frames angezeigt. GPX/KML und Diagramme bleiben verfügbar. | |||||||||||||||